<?xml version="1.0" encoding="UTF-8" standalone="no" ?>
<gpx xmlns="http://www.topografix.com/GPX/1/1" xmlns:xsi="http://www.w3.org/2001/XMLSchema-instance" xsi:schemaLocation="http://www.topografix.com/GPX/1/1 http://www.topografix.com/GPX/1/1/gpx.xsd" version="1.1" creator="VisuGPX - https://www.visugpx.com">
  <metadata>
    <name>tuc de la core de Léat-col de cos -boucle depart Jos sentein13/03/2021</name>
    <desc><![CDATA[Trace AlpineQuest 13/03/2021 9:42:20 AM]]></desc>
  </metadata>
  <trk>
    <name><![CDATA[tuc de la core de Léat-col de cos -boucle depart Jos sentein13/03/2021_1]]></name>
    <trkseg>
      <trkpt lat="42.8505" lon="0.92746">
        <ele>955.913</ele>
        <time>2021-03-13T08:42:20Z</time>
      </trkpt>
      <trkpt lat="42.85048" lon="0.92739">
        <ele>947.884</ele>
        <time>2021-03-13T08:42:22Z</time>
      </trkpt>
      <trkpt lat="42.85045" lon="0.92736">
        <ele>947.724</ele>
        <time>2021-03-13T08:42:24Z</time>
      </trkpt>
      <trkpt lat="42.85043" lon="0.92734">
        <ele>944.403</ele>
        <time>2021-03-13T08:42:26Z</time>
      </trkpt>
      <trkpt lat="42.85044" lon="0.92734">
        <ele>940.501</ele>
        <time>2021-03-13T08:42:28Z</time>
      </trkpt>
      <trkpt lat="42.85044" lon="0.92734">
        <ele>940.203</ele>
        <time>2021-03-13T08:42:30Z</time>
      </trkpt>
      <trkpt lat="42.85043" lon="0.92732">
        <ele>939.521</ele>
        <time>2021-03-13T08:42:32Z</time>
      </trkpt>
      <trkpt lat="42.85042" lon="0.9273">
        <ele>939.197</ele>
        <time>2021-03-13T08:42:34Z</time>
      </trkpt>
      <trkpt lat="42.85042" lon="0.92729">
        <ele>938.958</ele>
        <time>2021-03-13T08:42:36Z</time>
      </trkpt>
      <trkpt lat="42.85042" lon="0.92728">
        <ele>938.036</ele>
        <time>2021-03-13T08:42:38Z</time>
      </trkpt>
      <trkpt lat="42.85042" lon="0.92728">
        <ele>938.088</ele>
        <time>2021-03-13T08:42:40Z</time>
      </trkpt>
      <trkpt lat="42.85042" lon="0.92728">
        <ele>938.088</ele>
        <time>2021-03-13T08:42:42Z</time>
      </trkpt>
      <trkpt lat="42.85041" lon="0.92729">
        <ele>940.09</ele>
        <time>2021-03-13T08:42:44Z</time>
      </trkpt>
      <trkpt lat="42.85041" lon="0.92729">
        <ele>941.19</ele>
        <time>2021-03-13T08:42:46Z</time>
      </trkpt>
      <trkpt lat="42.85042" lon="0.9273">
        <ele>940.62</ele>
        <time>2021-03-13T08:42:48Z</time>
      </trkpt>
      <trkpt lat="42.85044" lon="0.92731">
        <ele>941.797</ele>
        <time>2021-03-13T08:42:50Z</time>
      </trkpt>
      <trkpt lat="42.85045" lon="0.92732">
        <ele>941.695</ele>
        <time>2021-03-13T08:42:52Z</time>
      </trkpt>
      <trkpt lat="42.85043" lon="0.92733">
        <ele>942.8</ele>
        <time>2021-03-13T08:42:54Z</time>
      </trkpt>
      <trkpt lat="42.85044" lon="0.92733">
        <ele>943.235</ele>
        <time>2021-03-13T08:42:56Z</time>
      </trkpt>
      <trkpt lat="42.85044" lon="0.92733">
        <ele>943.431</ele>
        <time>2021-03-13T08:42:58Z</time>
      </trkpt>
      <trkpt lat="42.85044" lon="0.9273">
        <ele>942.307</ele>
        <time>2021-03-13T08:43:00Z</time>
      </trkpt>
      <trkpt lat="42.85043" lon="0.92729">
        <ele>942.538</ele>
        <time>2021-03-13T08:43:02Z</time>
      </trkpt>
      <trkpt lat="42.85043" lon="0.92728">
        <ele>941.768</ele>
        <time>2021-03-13T08:43:04Z</time>
      </trkpt>
      <trkpt lat="42.85042" lon="0.92727">
        <ele>940.736</ele>
        <time>2021-03-13T08:43:06Z</time>
      </trkpt>
      <trkpt lat="42.85043" lon="0.92727">
        <ele>941.234</ele>
        <time>2021-03-13T08:43:08Z</time>
      </trkpt>
      <trkpt lat="42.85043" lon="0.92727">
        <ele>942.175</ele>
        <time>2021-03-13T08:43:10Z</time>
      </trkpt>
      <trkpt lat="42.85043" lon="0.92728">
        <ele>940.726</ele>
        <time>2021-03-13T08:43:12Z</time>
      </trkpt>
      <trkpt lat="42.85041" lon="0.92727">
        <ele>939.668</ele>
        <time>2021-03-13T08:43:14Z</time>
      </trkpt>
      <trkpt lat="42.85039" lon="0.92727">
        <ele>938.803</ele>
        <time>2021-03-13T08:43:16Z</time>
      </trkpt>
      <trkpt lat="42.85039" lon="0.92727">
        <ele>938.934</ele>
        <time>2021-03-13T08:43:18Z</time>
      </trkpt>
      <trkpt lat="42.85038" lon="0.92727">
        <ele>938.845</ele>
        <time>2021-03-13T08:43:20Z</time>
      </trkpt>
      <trkpt lat="42.85038" lon="0.92727">
        <ele>939.278</ele>
        <time>2021-03-13T08:43:22Z</time>
      </trkpt>
      <trkpt lat="42.85037" lon="0.92726">
        <ele>938.514</ele>
        <time>2021-03-13T08:43:24Z</time>
      </trkpt>
      <trkpt lat="42.85037" lon="0.92726">
        <ele>939.109</ele>
        <time>2021-03-13T08:43:26Z</time>
      </trkpt>
      <trkpt lat="42.85037" lon="0.92727">
        <ele>938.938</ele>
        <time>2021-03-13T08:43:28Z</time>
      </trkpt>
      <trkpt lat="42.85039" lon="0.92728">
        <ele>938.099</ele>
        <time>2021-03-13T08:43:30Z</time>
      </trkpt>
      <trkpt lat="42.85039" lon="0.92728">
        <ele>939.316</ele>
        <time>2021-03-13T08:43:32Z</time>
      </trkpt>
      <trkpt lat="42.8504" lon="0.92729">
        <ele>938.913</ele>
        <time>2021-03-13T08:43:34Z</time>
      </trkpt>
      <trkpt lat="42.85043" lon="0.92731">
        <ele>937.041</ele>
        <time>2021-03-13T08:43:36Z</time>
      </trkpt>
      <trkpt lat="42.85044" lon="0.92732">
        <ele>937.29</ele>
        <time>2021-03-13T08:43:38Z</time>
      </trkpt>
      <trkpt lat="42.85044" lon="0.92733">
        <ele>938.52</ele>
        <time>2021-03-13T08:43:40Z</time>
      </trkpt>
      <trkpt lat="42.85041" lon="0.92732">
        <ele>939.959</ele>
        <time>2021-03-13T08:43:42Z</time>
      </trkpt>
      <trkpt lat="42.8504" lon="0.92732">
        <ele>939.989</ele>
        <time>2021-03-13T08:43:44Z</time>
      </trkpt>
      <trkpt lat="42.85039" lon="0.92731">
        <ele>940.083</ele>
        <time>2021-03-13T08:43:46Z</time>
      </trkpt>
      <trkpt lat="42.85037" lon="0.9273">
        <ele>940.499</ele>
        <time>2021-03-13T08:43:48Z</time>
      </trkpt>
      <trkpt lat="42.85035" lon="0.9273">
        <ele>942.495</ele>
        <time>2021-03-13T08:43:50Z</time>
      </trkpt>
      <trkpt lat="42.85037" lon="0.92731">
        <ele>941.261</ele>
        <time>2021-03-13T08:43:52Z</time>
      </trkpt>
      <trkpt lat="42.85036" lon="0.92731">
        <ele>941.19</ele>
        <time>2021-03-13T08:43:54Z</time>
      </trkpt>
      <trkpt lat="42.85036" lon="0.92731">
        <ele>940.905</ele>
        <time>2021-03-13T08:43:56Z</time>
      </trkpt>
      <trkpt lat="42.85035" lon="0.9273">
        <ele>940.145</ele>
        <time>2021-03-13T08:43:58Z</time>
      </trkpt>
      <trkpt lat="42.85035" lon="0.9273">
        <ele>940.121</ele>
        <time>2021-03-13T08:44:00Z</time>
      </trkpt>
      <trkpt lat="42.85035" lon="0.92729">
        <ele>939.768</ele>
        <time>2021-03-13T08:44:02Z</time>
      </trkpt>
      <trkpt lat="42.85035" lon="0.92728">
        <ele>940.337</ele>
        <time>2021-03-13T08:44:04Z</time>
      </trkpt>
      <trkpt lat="42.85036" lon="0.92729">
        <ele>939.793</ele>
        <time>2021-03-13T08:44:06Z</time>
      </trkpt>
      <trkpt lat="42.85036" lon="0.92729">
        <ele>938.468</ele>
        <time>2021-03-13T08:44:08Z</time>
      </trkpt>
      <trkpt lat="42.85037" lon="0.92728">
        <ele>937.584</ele>
        <time>2021-03-13T08:44:10Z</time>
      </trkpt>
      <trkpt lat="42.85036" lon="0.92727">
        <ele>937.51</ele>
        <time>2021-03-13T08:44:12Z</time>
      </trkpt>
      <trkpt lat="42.85035" lon="0.92727">
        <ele>937.229</ele>
        <time>2021-03-13T08:44:14Z</time>
      </trkpt>
      <trkpt lat="42.85036" lon="0.92727">
        <ele>937.063</ele>
        <time>2021-03-13T08:44:16Z</time>
      </trkpt>
      <trkpt lat="42.85037" lon="0.92728">
        <ele>936.72</ele>
        <time>2021-03-13T08:44:18Z</time>
      </trkpt>
      <trkpt lat="42.85037" lon="0.92728">
        <ele>936.028</ele>
        <time>2021-03-13T08:44:20Z</time>
      </trkpt>
      <trkpt lat="42.85037" lon="0.92728">
        <ele>935.859</ele>
        <time>2021-03-13T08:44:22Z</time>
      </trkpt>
      <trkpt lat="42.85037" lon="0.92729">
        <ele>935.338</ele>
        <time>2021-03-13T08:44:24Z</time>
      </trkpt>
      <trkpt lat="42.85037" lon="0.92729">
        <ele>935.01</ele>
        <time>2021-03-13T08:44:26Z</time>
      </trkpt>
      <trkpt lat="42.85038" lon="0.92729">
        <ele>934.754</ele>
        <time>2021-03-13T08:44:28Z</time>
      </trkpt>
      <trkpt lat="42.85037" lon="0.9273">
        <ele>934.974</ele>
        <time>2021-03-13T08:44:30Z</time>
      </trkpt>
      <trkpt lat="42.85037" lon="0.9273">
        <ele>935.736</ele>
        <time>2021-03-13T08:44:32Z</time>
      </trkpt>
      <trkpt lat="42.85037" lon="0.92731">
        <ele>935.754</ele>
        <time>2021-03-13T08:44:34Z</time>
      </trkpt>
      <trkpt lat="42.85037" lon="0.92732">
        <ele>936.258</ele>
        <time>2021-03-13T08:44:36Z</time>
      </trkpt>
      <trkpt lat="42.85037" lon="0.92731">
        <ele>936.254</ele>
        <time>2021-03-13T08:44:38Z</time>
      </trkpt>
      <trkpt lat="42.85036" lon="0.92732">
        <ele>937.316</ele>
        <time>2021-03-13T08:44:40Z</time>
      </trkpt>
      <trkpt lat="42.85036" lon="0.92732">
        <ele>937.576</ele>
        <time>2021-03-13T08:44:42Z</time>
      </trkpt>
      <trkpt lat="42.85037" lon="0.92732">
        <ele>937.679</ele>
        <time>2021-03-13T08:44:44Z</time>
      </trkpt>
      <trkpt lat="42.85037" lon="0.92732">
        <ele>937.88</ele>
        <time>2021-03-13T08:44:46Z</time>
      </trkpt>
      <trkpt lat="42.85037" lon="0.92732">
        <ele>937.547</ele>
        <time>2021-03-13T08:44:48Z</time>
      </trkpt>
      <trkpt lat="42.85037" lon="0.92732">
        <ele>938.041</ele>
        <time>2021-03-13T08:44:50Z</time>
      </trkpt>
      <trkpt lat="42.85038" lon="0.92732">
        <ele>938.393</ele>
        <time>2021-03-13T08:44:52Z</time>
      </trkpt>
      <trkpt lat="42.85038" lon="0.92733">
        <ele>938.611</ele>
        <time>2021-03-13T08:44:54Z</time>
      </trkpt>
      <trkpt lat="42.85037" lon="0.92733">
        <ele>938.597</ele>
        <time>2021-03-13T08:44:56Z</time>
      </trkpt>
      <trkpt lat="42.85037" lon="0.92732">
        <ele>938.626</ele>
        <time>2021-03-13T08:44:58Z</time>
      </trkpt>
      <trkpt lat="42.85037" lon="0.92732">
        <ele>938.648</ele>
        <time>2021-03-13T08:45:00Z</time>
      </trkpt>
      <trkpt lat="42.85037" lon="0.92732">
        <ele>938.634</ele>
        <time>2021-03-13T08:45:02Z</time>
      </trkpt>
      <trkpt lat="42.85037" lon="0.92732">
        <ele>938.624</ele>
        <time>2021-03-13T08:45:04Z</time>
      </trkpt>
      <trkpt lat="42.85037" lon="0.92732">
        <ele>938.617</ele>
        <time>2021-03-13T08:45:06Z</time>
      </trkpt>
      <trkpt lat="42.85037" lon="0.92732">
        <ele>938.622</ele>
        <time>2021-03-13T08:45:08Z</time>
      </trkpt>
      <trkpt lat="42.85037" lon="0.92732">
        <ele>938.627</ele>
        <time>2021-03-13T08:45:10Z</time>
      </trkpt>
      <trkpt lat="42.85037" lon="0.92732">
        <ele>938.648</ele>
        <time>2021-03-13T08:45:12Z</time>
      </trkpt>
      <trkpt lat="42.85037" lon="0.92732">
        <ele>938.658</ele>
        <time>2021-03-13T08:45:14Z</time>
      </trkpt>
      <trkpt lat="42.85037" lon="0.92732">
        <ele>938.657</ele>
        <time>2021-03-13T08:45:16Z</time>
      </trkpt>
      <trkpt lat="42.85037" lon="0.92733">
        <ele>938.65</ele>
        <time>2021-03-13T08:45:18Z</time>
      </trkpt>
      <trkpt lat="42.85037" lon="0.92733">
        <ele>938.639</ele>
        <time>2021-03-13T08:45:20Z</time>
      </trkpt>
      <trkpt lat="42.85038" lon="0.92733">
        <ele>938.842</ele>
        <time>2021-03-13T08:45:22Z</time>
      </trkpt>
      <trkpt lat="42.85039" lon="0.92733">
        <ele>939.027</ele>
        <time>2021-03-13T08:45:24Z</time>
      </trkpt>
      <trkpt lat="42.85039" lon="0.92732">
        <ele>938.626</ele>
        <time>2021-03-13T08:45:26Z</time>
      </trkpt>
      <trkpt lat="42.8504" lon="0.92732">
        <ele>938.432</ele>
        <time>2021-03-13T08:45:28Z</time>
      </trkpt>
      <trkpt lat="42.85039" lon="0.92731">
        <ele>938.013</ele>
        <time>2021-03-13T08:45:30Z</time>
      </trkpt>
      <trkpt lat="42.85039" lon="0.92729">
        <ele>937.31</ele>
        <time>2021-03-13T08:45:32Z</time>
      </trkpt>
      <trkpt lat="42.85039" lon="0.92726">
        <ele>936.691</ele>
        <time>2021-03-13T08:45:34Z</time>
      </trkpt>
      <trkpt lat="42.85038" lon="0.92723">
        <ele>937.215</ele>
        <time>2021-03-13T08:45:36Z</time>
      </trkpt>
      <trkpt lat="42.85038" lon="0.92721">
        <ele>936.758</ele>
        <time>2021-03-13T08:45:38Z</time>
      </trkpt>
      <trkpt lat="42.85037" lon="0.92719">
        <ele>935.727</ele>
        <time>2021-03-13T08:45:40Z</time>
      </trkpt>
      <trkpt lat="42.85036" lon="0.92717">
        <ele>934.801</ele>
        <time>2021-03-13T08:45:42Z</time>
      </trkpt>
      <trkpt lat="42.85036" lon="0.92715">
        <ele>934.624</ele>
        <time>2021-03-13T08:45:44Z</time>
      </trkpt>
      <trkpt lat="42.85035" lon="0.92712">
        <ele>934.421</ele>
        <time>2021-03-13T08:45:46Z</time>
      </trkpt>
      <trkpt lat="42.85034" lon="0.92709">
        <ele>935.177</ele>
        <time>2021-03-13T08:45:48Z</time>
      </trkpt>
      <trkpt lat="42.85034" lon="0.92708">
        <ele>935.371</ele>
        <time>2021-03-13T08:45:50Z</time>
      </trkpt>
      <trkpt lat="42.8503" lon="0.92702">
        <ele>935.117</ele>
        <time>2021-03-13T08:45:52Z</time>
      </trkpt>
      <trkpt lat="42.8503" lon="0.927">
        <ele>934.301</ele>
        <time>2021-03-13T08:45:54Z</time>
      </trkpt>
      <trkpt lat="42.8503" lon="0.92697">
        <ele>933.675</ele>
        <time>2021-03-13T08:45:56Z</time>
      </trkpt>
      <trkpt lat="42.85031" lon="0.92694">
        <ele>932.013</ele>
        <time>2021-03-13T08:45:58Z</time>
      </trkpt>
      <trkpt lat="42.85032" lon="0.92692">
        <ele>931.201</ele>
        <time>2021-03-13T08:46:00Z</time>
      </trkpt>
      <trkpt lat="42.85033" lon="0.9269">
        <ele>930.954</ele>
        <time>2021-03-13T08:46:02Z</time>
      </trkpt>
      <trkpt lat="42.85034" lon="0.92687">
        <ele>929.954</ele>
        <time>2021-03-13T08:46:04Z</time>
      </trkpt>
      <trkpt lat="42.85033" lon="0.92684">
        <ele>929.444</ele>
        <time>2021-03-13T08:46:06Z</time>
      </trkpt>
      <trkpt lat="42.85033" lon="0.92681">
        <ele>928.615</ele>
        <time>2021-03-13T08:46:08Z</time>
      </trkpt>
      <trkpt lat="42.85032" lon="0.92679">
        <ele>928.647</ele>
        <time>2021-03-13T08:46:10Z</time>
      </trkpt>
      <trkpt lat="42.8503" lon="0.92676">
        <ele>928</ele>
        <time>2021-03-13T08:46:12Z</time>
      </trkpt>
      <trkpt lat="42.85029" lon="0.92673">
        <ele>927.524</ele>
        <time>2021-03-13T08:46:14Z</time>
      </trkpt>
      <trkpt lat="42.85028" lon="0.9267">
        <ele>927.654</ele>
        <time>2021-03-13T08:46:16Z</time>
      </trkpt>
      <trkpt lat="42.85027" lon="0.92666">
        <ele>927.528</ele>
        <time>2021-03-13T08:46:18Z</time>
      </trkpt>
      <trkpt lat="42.85027" lon="0.92663">
        <ele>925.858</ele>
        <time>2021-03-13T08:46:20Z</time>
      </trkpt>
      <trkpt lat="42.85027" lon="0.92661">
        <ele>927.123</ele>
        <time>2021-03-13T08:46:22Z</time>
      </trkpt>
      <trkpt lat="42.85027" lon="0.92657">
        <ele>925.559</ele>
        <time>2021-03-13T08:46:24Z</time>
      </trkpt>
      <trkpt lat="42.85026" lon="0.92654">
        <ele>924.667</ele>
        <time>2021-03-13T08:46:26Z</time>
      </trkpt>
      <trkpt lat="42.85026" lon="0.92651">
        <ele>923.726</ele>
        <time>2021-03-13T08:46:28Z</time>
      </trkpt>
      <trkpt lat="42.85026" lon="0.92647">
        <ele>921.148</ele>
        <time>2021-03-13T08:46:30Z</time>
      </trkpt>
      <trkpt lat="42.85026" lon="0.92643">
        <ele>919.894</ele>
        <time>2021-03-13T08:46:32Z</time>
      </trkpt>
      <trkpt lat="42.85027" lon="0.9264">
        <ele>920.243</ele>
        <time>2021-03-13T08:46:34Z</time>
      </trkpt>
      <trkpt lat="42.85026" lon="0.92636">
        <ele>920.665</ele>
        <time>2021-03-13T08:46:36Z</time>
      </trkpt>
      <trkpt lat="42.85025" lon="0.92633">
        <ele>921.473</ele>
        <time>2021-03-13T08:46:38Z</time>
      </trkpt>
      <trkpt lat="42.85023" lon="0.92631">
        <ele>921.217</ele>
        <time>2021-03-13T08:46:40Z</time>
      </trkpt>
      <trkpt lat="42.85022" lon="0.92627">
        <ele>921.025</ele>
        <time>2021-03-13T08:46:42Z</time>
      </trkpt>
      <trkpt lat="42.85022" lon="0.92624">
        <ele>921.128</ele>
        <time>2021-03-13T08:46:44Z</time>
      </trkpt>
      <trkpt lat="42.85022" lon="0.92621">
        <ele>920.256</ele>
        <time>2021-03-13T08:46:46Z</time>
      </trkpt>
      <trkpt lat="42.85022" lon="0.92618">
        <ele>920.045</ele>
        <time>2021-03-13T08:46:48Z</time>
      </trkpt>
      <trkpt lat="42.85022" lon="0.92614">
        <ele>919.735</ele>
        <time>2021-03-13T08:46:50Z</time>
      </trkpt>
      <trkpt lat="42.85022" lon="0.92611">
        <ele>918.902</ele>
        <time>2021-03-13T08:46:52Z</time>
      </trkpt>
      <trkpt lat="42.85022" lon="0.92608">
        <ele>917.817</ele>
        <time>2021-03-13T08:46:54Z</time>
      </trkpt>
      <trkpt lat="42.85021" lon="0.92605">
        <ele>918.017</ele>
        <time>2021-03-13T08:46:56Z</time>
      </trkpt>
      <trkpt lat="42.85021" lon="0.92603">
        <ele>918.665</ele>
        <time>2021-03-13T08:46:58Z</time>
      </trkpt>
      <trkpt lat="42.85022" lon="0.92601">
        <ele>918.942</ele>
        <time>2021-03-13T08:47:00Z</time>
      </trkpt>
      <trkpt lat="42.85021" lon="0.92599">
        <ele>918.484</ele>
        <time>2021-03-13T08:47:02Z</time>
      </trkpt>
      <trkpt lat="42.85022" lon="0.92597">
        <ele>918.788</ele>
        <time>2021-03-13T08:47:04Z</time>
      </trkpt>
      <trkpt lat="42.85021" lon="0.92593">
        <ele>918.106</ele>
        <time>2021-03-13T08:47:06Z</time>
      </trkpt>
      <trkpt lat="42.85019" lon="0.9259">
        <ele>917.156</ele>
        <time>2021-03-13T08:47:08Z</time>
      </trkpt>
      <trkpt lat="42.85018" lon="0.92589">
        <ele>917.371</ele>
        <time>2021-03-13T08:47:10Z</time>
      </trkpt>
      <trkpt lat="42.85018" lon="0.92588">
        <ele>921.838</ele>
        <time>2021-03-13T08:47:12Z</time>
      </trkpt>
      <trkpt lat="42.85018" lon="0.92587">
        <ele>922.883</ele>
        <time>2021-03-13T08:47:14Z</time>
      </trkpt>
      <trkpt lat="42.85018" lon="0.92586">
        <ele>924.532</ele>
        <time>2021-03-13T08:47:16Z</time>
      </trkpt>
      <trkpt lat="42.85017" lon="0.92588">
        <ele>926.145</ele>
        <time>2021-03-13T08:47:18Z</time>
      </trkpt>
      <trkpt lat="42.85015" lon="0.92589">
        <ele>926.799</ele>
        <time>2021-03-13T08:47:20Z</time>
      </trkpt>
      <trkpt lat="42.85014" lon="0.9259">
        <ele>926.706</ele>
        <time>2021-03-13T08:47:22Z</time>
      </trkpt>
      <trkpt lat="42.85012" lon="0.92592">
        <ele>925.107</ele>
        <time>2021-03-13T08:47:24Z</time>
      </trkpt>
      <trkpt lat="42.8501" lon="0.92593">
        <ele>924.376</ele>
        <time>2021-03-13T08:47:26Z</time>
      </trkpt>
      <trkpt lat="42.85009" lon="0.92594">
        <ele>923.241</ele>
        <time>2021-03-13T08:47:28Z</time>
      </trkpt>
      <trkpt lat="42.85007" lon="0.92595">
        <ele>922.578</ele>
        <time>2021-03-13T08:47:30Z</time>
      </trkpt>
      <trkpt lat="42.85006" lon="0.92597">
        <ele>922.643</ele>
        <time>2021-03-13T08:47:32Z</time>
      </trkpt>
      <trkpt lat="42.85004" lon="0.92599">
        <ele>922.936</ele>
        <time>2021-03-13T08:47:34Z</time>
      </trkpt>
      <trkpt lat="42.85003" lon="0.92601">
        <ele>922.562</ele>
        <time>2021-03-13T08:47:36Z</time>
      </trkpt>
      <trkpt lat="42.85001" lon="0.92603">
        <ele>922.909</ele>
        <time>2021-03-13T08:47:38Z</time>
      </trkpt>
      <trkpt lat="42.85" lon="0.92605">
        <ele>922.813</ele>
        <time>2021-03-13T08:47:40Z</time>
      </trkpt>
      <trkpt lat="42.84998" lon="0.92606">
        <ele>923.051</ele>
        <time>2021-03-13T08:47:42Z</time>
      </trkpt>
      <trkpt lat="42.84997" lon="0.92608">
        <ele>923.089</ele>
        <time>2021-03-13T08:47:44Z</time>
      </trkpt>
      <trkpt lat="42.84996" lon="0.9261">
        <ele>923.362</ele>
        <time>2021-03-13T08:47:46Z</time>
      </trkpt>
      <trkpt lat="42.84995" lon="0.92613">
        <ele>923.825</ele>
        <time>2021-03-13T08:47:48Z</time>
      </trkpt>
      <trkpt lat="42.84995" lon="0.92616">
        <ele>923.847</ele>
        <time>2021-03-13T08:47:50Z</time>
      </trkpt>
      <trkpt lat="42.84994" lon="0.92618">
        <ele>923.227</ele>
        <time>2021-03-13T08:47:52Z</time>
      </trkpt>
      <trkpt lat="42.84993" lon="0.9262">
        <ele>923.398</ele>
        <time>2021-03-13T08:47:54Z</time>
      </trkpt>
      <trkpt lat="42.84993" lon="0.92623">
        <ele>923.322</ele>
        <time>2021-03-13T08:47:56Z</time>
      </trkpt>
      <trkpt lat="42.84992" lon="0.92625">
        <ele>923.464</ele>
        <time>2021-03-13T08:47:58Z</time>
      </trkpt>
      <trkpt lat="42.84991" lon="0.92628">
        <ele>922.328</ele>
        <time>2021-03-13T08:48:00Z</time>
      </trkpt>
      <trkpt lat="42.8499" lon="0.9263">
        <ele>922.017</ele>
        <time>2021-03-13T08:48:02Z</time>
      </trkpt>
      <trkpt lat="42.84989" lon="0.92633">
        <ele>922.625</ele>
        <time>2021-03-13T08:48:04Z</time>
      </trkpt>
      <trkpt lat="42.84987" lon="0.92636">
        <ele>922.734</ele>
        <time>2021-03-13T08:48:06Z</time>
      </trkpt>
      <trkpt lat="42.84986" lon="0.92638">
        <ele>922.54</ele>
        <time>2021-03-13T08:48:08Z</time>
      </trkpt>
      <trkpt lat="42.84984" lon="0.92641">
        <ele>922.301</ele>
        <time>2021-03-13T08:48:10Z</time>
      </trkpt>
      <trkpt lat="42.84982" lon="0.92643">
        <ele>922.279</ele>
        <time>2021-03-13T08:48:12Z</time>
      </trkpt>
      <trkpt lat="42.84981" lon="0.92645">
        <ele>922.579</ele>
        <time>2021-03-13T08:48:14Z</time>
      </trkpt>
      <trkpt lat="42.8498" lon="0.92647">
        <ele>924.275</ele>
        <time>2021-03-13T08:48:16Z</time>
      </trkpt>
      <trkpt lat="42.84977" lon="0.92656">
        <ele>929.931</ele>
        <time>2021-03-13T08:48:18Z</time>
      </trkpt>
      <trkpt lat="42.84976" lon="0.92658">
        <ele>930.913</ele>
        <time>2021-03-13T08:48:20Z</time>
      </trkpt>
      <trkpt lat="42.84975" lon="0.92658">
        <ele>930.838</ele>
        <time>2021-03-13T08:48:22Z</time>
      </trkpt>
      <trkpt lat="42.84975" lon="0.92658">
        <ele>931.104</ele>
        <time>2021-03-13T08:48:24Z</time>
      </trkpt>
      <trkpt lat="42.84975" lon="0.92658">
        <ele>930.713</ele>
        <time>2021-03-13T08:48:26Z</time>
      </trkpt>
      <trkpt lat="42.84975" lon="0.92658">
        <ele>930.648</ele>
        <time>2021-03-13T08:48:28Z</time>
      </trkpt>
      <trkpt lat="42.84975" lon="0.92659">
        <ele>930.933</ele>
        <time>2021-03-13T08:48:30Z</time>
      </trkpt>
      <trkpt lat="42.84974" lon="0.9266">
        <ele>931.293</ele>
        <time>2021-03-13T08:48:32Z</time>
      </trkpt>
      <trkpt lat="42.84974" lon="0.9266">
        <ele>931.525</ele>
        <time>2021-03-13T08:48:34Z</time>
      </trkpt>
      <trkpt lat="42.84974" lon="0.9266">
        <ele>931.604</ele>
        <time>2021-03-13T08:48:36Z</time>
      </trkpt>
      <trkpt lat="42.84974" lon="0.9266">
        <ele>931.631</ele>
        <time>2021-03-13T08:48:38Z</time>
      </trkpt>
      <trkpt lat="42.84974" lon="0.9266">
        <ele>931.654</ele>
        <time>2021-03-13T08:48:40Z</time>
      </trkpt>
      <trkpt lat="42.84974" lon="0.9266">
        <ele>931.661</ele>
        <time>2021-03-13T08:48:42Z</time>
      </trkpt>
      <trkpt lat="42.84974" lon="0.9266">
        <ele>931.664</ele>
        <time>2021-03-13T08:48:44Z</time>
      </trkpt>
      <trkpt lat="42.84974" lon="0.9266">
        <ele>931.665</ele>
        <time>2021-03-13T08:48:46Z</time>
      </trkpt>
      <trkpt lat="42.84974" lon="0.9266">
        <ele>931.665</ele>
        <time>2021-03-13T08:48:48Z</time>
      </trkpt>
      <trkpt lat="42.84974" lon="0.9266">
        <ele>931.656</ele>
        <time>2021-03-13T08:48:50Z</time>
      </trkpt>
      <trkpt lat="42.84974" lon="0.9266">
        <ele>931.659</ele>
        <time>2021-03-13T08:48:52Z</time>
      </trkpt>
      <trkpt lat="42.84973" lon="0.9266">
        <ele>932.792</ele>
        <time>2021-03-13T08:48:54Z</time>
      </trkpt>
      <trkpt lat="42.84972" lon="0.92662">
        <ele>933.044</ele>
        <time>2021-03-13T08:48:56Z</time>
      </trkpt>
      <trkpt lat="42.84972" lon="0.92663">
        <ele>933.177</ele>
        <time>2021-03-13T08:48:58Z</time>
      </trkpt>
      <trkpt lat="42.8497" lon="0.92665">
        <ele>932.452</ele>
        <time>2021-03-13T08:49:00Z</time>
      </trkpt>
      <trkpt lat="42.84968" lon="0.92666">
        <ele>932.824</ele>
        <time>2021-03-13T08:49:02Z</time>
      </trkpt>
      <trkpt lat="42.84966" lon="0.92667">
        <ele>932.047</ele>
        <time>2021-03-13T08:49:04Z</time>
      </trkpt>
      <trkpt lat="42.84965" lon="0.9267">
        <ele>932.445</ele>
        <time>2021-03-13T08:49:06Z</time>
      </trkpt>
      <trkpt lat="42.84963" lon="0.92672">
        <ele>933.439</ele>
        <time>2021-03-13T08:49:08Z</time>
      </trkpt>
      <trkpt lat="42.84961" lon="0.92673">
        <ele>932.084</ele>
        <time>2021-03-13T08:49:10Z</time>
      </trkpt>
      <trkpt lat="42.8496" lon="0.92674">
        <ele>932.165</ele>
        <time>2021-03-13T08:49:12Z</time>
      </trkpt>
      <trkpt lat="42.84958" lon="0.92676">
        <ele>931.942</ele>
        <time>2021-03-13T08:49:14Z</time>
      </trkpt>
      <trkpt lat="42.84956" lon="0.92677">
        <ele>932.218</ele>
        <time>2021-03-13T08:49:16Z</time>
      </trkpt>
      <trkpt lat="42.84954" lon="0.92678">
        <ele>932.419</ele>
        <time>2021-03-13T08:49:18Z</time>
      </trkpt>
      <trkpt lat="42.84951" lon="0.92679">
        <ele>932.674</ele>
        <time>2021-03-13T08:49:20Z</time>
      </trkpt>
      <trkpt lat="42.84949" lon="0.92679">
        <ele>933.149</ele>
        <time>2021-03-13T08:49:22Z</time>
      </trkpt>
      <trkpt lat="42.84947" lon="0.9268">
        <ele>933.979</ele>
        <time>2021-03-13T08:49:24Z</time>
      </trkpt>
      <trkpt lat="42.84944" lon="0.92679">
        <ele>932.549</ele>
        <time>2021-03-13T08:49:26Z</time>
      </trkpt>
      <trkpt lat="42.84942" lon="0.92678">
        <ele>932.089</ele>
        <time>2021-03-13T08:49:28Z</time>
      </trkpt>
      <trkpt lat="42.84941" lon="0.92678">
        <ele>934.464</ele>
        <time>2021-03-13T08:49:30Z</time>
      </trkpt>
      <trkpt lat="42.84941" lon="0.92678">
        <ele>934.209</ele>
        <time>2021-03-13T08:49:32Z</time>
      </trkpt>
      <trkpt lat="42.84942" lon="0.92681">
        <ele>936.969</ele>
        <time>2021-03-13T08:49:34Z</time>
      </trkpt>
      <trkpt lat="42.84944" lon="0.92683">
        <ele>936.731</ele>
        <time>2021-03-13T08:49:36Z</time>
      </trkpt>
      <trkpt lat="42.84947" lon="0.92682">
        <ele>936.045</ele>
        <time>2021-03-13T08:49:38Z</time>
      </trkpt>
      <trkpt lat="42.8495" lon="0.92682">
        <ele>936.475</ele>
        <time>2021-03-13T08:49:40Z</time>
      </trkpt>
      <trkpt lat="42.84953" lon="0.92682">
        <ele>937.199</ele>
        <time>2021-03-13T08:49:42Z</time>
      </trkpt>
      <trkpt lat="42.84956" lon="0.92681">
        <ele>937.117</ele>
        <time>2021-03-13T08:49:44Z</time>
      </trkpt>
      <trkpt lat="42.84958" lon="0.9268">
        <ele>936.765</ele>
        <time>2021-03-13T08:49:46Z</time>
      </trkpt>
      <trkpt lat="42.84959" lon="0.92679">
        <ele>935.78</ele>
        <time>2021-03-13T08:49:48Z</time>
      </trkpt>
      <trkpt lat="42.84961" lon="0.92676">
        <ele>935.312</ele>
        <time>2021-03-13T08:49:50Z</time>
      </trkpt>
      <trkpt lat="42.84962" lon="0.92674">
        <ele>935.364</ele>
        <time>2021-03-13T08:49:52Z</time>
      </trkpt>
      <trkpt lat="42.84964" lon="0.92671">
        <ele>935.939</ele>
        <time>2021-03-13T08:49:54Z</time>
      </trkpt>
      <trkpt lat="42.84964" lon="0.92669">
        <ele>935.004</ele>
        <time>2021-03-13T08:49:56Z</time>
      </trkpt>
      <trkpt lat="42.84964" lon="0.92667">
        <ele>935.977</ele>
        <time>2021-03-13T08:49:58Z</time>
      </trkpt>
      <trkpt lat="42.84963" lon="0.92668">
        <ele>937.516</ele>
        <time>2021-03-13T08:50:00Z</time>
      </trkpt>
      <trkpt lat="42.84961" lon="0.92669">
        <ele>938.499</ele>
        <time>2021-03-13T08:50:02Z</time>
      </trkpt>
      <trkpt lat="42.8496" lon="0.9267">
        <ele>939.379</ele>
        <time>2021-03-13T08:50:04Z</time>
      </trkpt>
      <trkpt lat="42.84958" lon="0.92671">
        <ele>938.288</ele>
        <time>2021-03-13T08:50:06Z</time>
      </trkpt>
      <trkpt lat="42.84957" lon="0.92672">
        <ele>940.111</ele>
        <time>2021-03-13T08:50:08Z</time>
      </trkpt>
      <trkpt lat="42.84956" lon="0.92672">
        <ele>940.884</ele>
        <time>2021-03-13T08:50:10Z</time>
      </trkpt>
      <trkpt lat="42.84955" lon="0.92671">
        <ele>940.866</ele>
        <time>2021-03-13T08:50:12Z</time>
      </trkpt>
      <trkpt lat="42.84954" lon="0.9267">
        <ele>940.486</ele>
        <time>2021-03-13T08:50:14Z</time>
      </trkpt>
      <trkpt lat="42.84953" lon="0.9267">
        <ele>940.676</ele>
        <time>2021-03-13T08:50:16Z</time>
      </trkpt>
      <trkpt lat="42.84952" lon="0.92669">
        <ele>940.461</ele>
        <time>2021-03-13T08:50:18Z</time>
      </trkpt>
      <trkpt lat="42.84951" lon="0.92669">
        <ele>940.35</ele>
        <time>2021-03-13T08:50:20Z</time>
      </trkpt>
      <trkpt lat="42.84951" lon="0.92667">
        <ele>940.017</ele>
        <time>2021-03-13T08:50:22Z</time>
      </trkpt>
      <trkpt lat="42.8495" lon="0.92666">
        <ele>939.544</ele>
        <time>2021-03-13T08:50:24Z</time>
      </trkpt>
      <trkpt lat="42.8495" lon="0.92664">
        <ele>938.367</ele>
        <time>2021-03-13T08:50:26Z</time>
      </trkpt>
      <trkpt lat="42.8495" lon="0.92663">
        <ele>940.455</ele>
        <time>2021-03-13T08:50:28Z</time>
      </trkpt>
      <trkpt lat="42.84952" lon="0.92663">
        <ele>941.231</ele>
        <time>2021-03-13T08:50:30Z</time>
      </trkpt>
      <trkpt lat="42.84953" lon="0.92662">
        <ele>939.446</ele>
        <time>2021-03-13T08:50:32Z</time>
      </trkpt>
      <trkpt lat="42.84955" lon="0.92661">
        <ele>940.186</ele>
        <time>2021-03-13T08:50:34Z</time>
      </trkpt>
      <trkpt lat="42.84955" lon="0.9266">
        <ele>941.41</ele>
        <time>2021-03-13T08:50:36Z</time>
      </trkpt>
      <trkpt lat="42.84955" lon="0.92658">
        <ele>941.078</ele>
        <time>2021-03-13T08:50:38Z</time>
      </trkpt>
      <trkpt lat="42.84956" lon="0.92657">
        <ele>942.208</ele>
        <time>2021-03-13T08:50:40Z</time>
      </trkpt>
      <trkpt lat="42.84957" lon="0.92656">
        <ele>941.595</ele>
        <time>2021-03-13T08:50:42Z</time>
      </trkpt>
      <trkpt lat="42.84957" lon="0.92654">
        <ele>942.336</ele>
        <time>2021-03-13T08:50:44Z</time>
      </trkpt>
      <trkpt lat="42.84957" lon="0.92652">
        <ele>941.387</ele>
        <time>2021-03-13T08:50:46Z</time>
      </trkpt>
      <trkpt lat="42.84957" lon="0.92651">
        <ele>941.831</ele>
        <time>2021-03-13T08:50:48Z</time>
      </trkpt>
      <trkpt lat="42.84959" lon="0.9265">
        <ele>944.326</ele>
        <time>2021-03-13T08:50:50Z</time>
      </trkpt>
      <trkpt lat="42.8496" lon="0.92649">
        <ele>946.159</ele>
        <time>2021-03-13T08:50:52Z</time>
      </trkpt>
      <trkpt lat="42.84962" lon="0.92648">
        <ele>947.478</ele>
        <time>2021-03-13T08:50:54Z</time>
      </trkpt>
      <trkpt lat="42.84963" lon="0.92647">
        <ele>946.715</ele>
        <time>2021-03-13T08:50:56Z</time>
      </trkpt>
      <trkpt lat="42.84963" lon="0.92646">
        <ele>945.482</ele>
        <time>2021-03-13T08:50:58Z</time>
      </trkpt>
      <trkpt lat="42.84963" lon="0.92644">
        <ele>945.81</ele>
        <time>2021-03-13T08:51:00Z</time>
      </trkpt>
      <trkpt lat="42.84963" lon="0.92642">
        <ele>945.571</ele>
        <time>2021-03-13T08:51:02Z</time>
      </trkpt>
      <trkpt lat="42.84963" lon="0.92641">
        <ele>946.426</ele>
        <time>2021-03-13T08:51:04Z</time>
      </trkpt>
      <trkpt lat="42.84964" lon="0.92639">
        <ele>948.573</ele>
        <time>2021-03-13T08:51:06Z</time>
      </trkpt>
      <trkpt lat="42.84964" lon="0.92638">
        <ele>950.106</ele>
        <time>2021-03-13T08:51:08Z</time>
      </trkpt>
      <trkpt lat="42.84966" lon="0.92637">
        <ele>951.969</ele>
        <time>2021-03-13T08:51:10Z</time>
      </trkpt>
      <trkpt lat="42.84967" lon="0.92636">
        <ele>952.642</ele>
        <time>2021-03-13T08:51:12Z</time>
      </trkpt>
      <trkpt lat="42.84969" lon="0.92634">
        <ele>953.217</ele>
        <time>2021-03-13T08:51:15Z</time>
      </trkpt>
      <trkpt lat="42.8497" lon="0.92633">
        <ele>954.537</ele>
        <time>2021-03-13T08:51:17Z</time>
      </trkpt>
      <trkpt lat="42.84971" lon="0.92631">
        <ele>955.236</ele>
        <time>2021-03-13T08:51:19Z</time>
      </trkpt>
      <trkpt lat="42.84972" lon="0.9263">
        <ele>956.224</ele>
        <time>2021-03-13T08:51:21Z</time>
      </trkpt>
      <trkpt lat="42.84972" lon="0.92628">
        <ele>954.965</ele>
        <time>2021-03-13T08:51:23Z</time>
      </trkpt>
      <trkpt lat="42.84972" lon="0.92627">
        <ele>955.164</ele>
        <time>2021-03-13T08:51:25Z</time>
      </trkpt>
      <trkpt lat="42.84971" lon="0.92625">
        <ele>955.45</ele>
        <time>2021-03-13T08:51:27Z</time>
      </trkpt>
      <trkpt lat="42.84971" lon="0.92623">
        <ele>955.782</ele>
        <time>2021-03-13T08:51:29Z</time>
      </trkpt>
      <trkpt lat="42.84971" lon="0.92621">
        <ele>955.816</ele>
        <time>2021-03-13T08:51:31Z</time>
      </trkpt>
      <trkpt lat="42.84973" lon="0.9262">
        <ele>957.22</ele>
        <time>2021-03-13T08:51:33Z</time>
      </trkpt>
      <trkpt lat="42.84974" lon="0.92618">
        <ele>958.742</ele>
        <time>2021-03-13T08:51:35Z</time>
      </trkpt>
      <trkpt lat="42.84975" lon="0.92617">
        <ele>960.113</ele>
        <time>2021-03-13T08:51:37Z</time>
      </trkpt>
      <trkpt lat="42.84976" lon="0.92616">
        <ele>961.818</ele>
        <time>2021-03-13T08:51:39Z</time>
      </trkpt>
      <trkpt lat="42.84977" lon="0.92614">
        <ele>961.495</ele>
        <time>2021-03-13T08:51:41Z</time>
      </trkpt>
      <trkpt lat="42.84977" lon="0.92611">
        <ele>960.2</ele>
        <time>2021-03-13T08:51:43Z</time>
      </trkpt>
      <trkpt lat="42.84978" lon="0.92609">
        <ele>959.6</ele>
        <time>2021-03-13T08:51:45Z</time>
      </trkpt>
      <trkpt lat="42.84978" lon="0.92606">
        <ele>959.433</ele>
        <time>2021-03-13T08:51:47Z</time>
      </trkpt>
      <trkpt lat="42.84979" lon="0.92604">
        <ele>960.353</ele>
        <time>2021-03-13T08:51:49Z</time>
      </trkpt>
      <trkpt lat="42.8498" lon="0.92602">
        <ele>961.045</ele>
        <time>2021-03-13T08:51:51Z</time>
      </trkpt>
      <trkpt lat="42.8498" lon="0.926">
        <ele>961.147</ele>
        <time>2021-03-13T08:51:53Z</time>
      </trkpt>
      <trkpt lat="42.84979" lon="0.92599">
        <ele>961.996</ele>
        <time>2021-03-13T08:51:55Z</time>
      </trkpt>
      <trkpt lat="42.84978" lon="0.92597">
        <ele>962.495</ele>
        <time>2021-03-13T08:51:57Z</time>
      </trkpt>
      <trkpt lat="42.84978" lon="0.92595">
        <ele>962.614</ele>
        <time>2021-03-13T08:51:59Z</time>
      </trkpt>
      <trkpt lat="42.84977" lon="0.92593">
        <ele>962.274</ele>
        <time>2021-03-13T08:52:01Z</time>
      </trkpt>
      <trkpt lat="42.84977" lon="0.92591">
        <ele>961.873</ele>
        <time>2021-03-13T08:52:03Z</time>
      </trkpt>
      <trkpt lat="42.84976" lon="0.92589">
        <ele>961.121</ele>
        <time>2021-03-13T08:52:05Z</time>
      </trkpt>
      <trkpt lat="42.84977" lon="0.92588">
        <ele>963.054</ele>
        <time>2021-03-13T08:52:07Z</time>
      </trkpt>
      <trkpt lat="42.84977" lon="0.92586">
        <ele>965.379</ele>
        <time>2021-03-13T08:52:09Z</time>
      </trkpt>
      <trkpt lat="42.84978" lon="0.92583">
        <ele>965.709</ele>
        <time>2021-03-13T08:52:11Z</time>
      </trkpt>
      <trkpt lat="42.84978" lon="0.92581">
        <ele>965.487</ele>
        <time>2021-03-13T08:52:13Z</time>
      </trkpt>
      <trkpt lat="42.84979" lon="0.92579">
        <ele>967.454</ele>
        <time>2021-03-13T08:52:15Z</time>
      </trkpt>
      <trkpt lat="42.8498" lon="0.92577">
        <ele>968.074</ele>
        <time>2021-03-13T08:52:17Z</time>
      </trkpt>
      <trkpt lat="42.8498" lon="0.92575">
        <ele>968.128</ele>
        <time>2021-03-13T08:52:19Z</time>
      </trkpt>
      <trkpt lat="42.84979" lon="0.92573">
        <ele>967.999</ele>
        <time>2021-03-13T08:52:21Z</time>
      </trkpt>
      <trkpt lat="42.84977" lon="0.92572">
        <ele>968.216</ele>
        <time>2021-03-13T08:52:23Z</time>
      </trkpt>
      <trkpt lat="42.84976" lon="0.92572">
        <ele>970.071</ele>
        <time>2021-03-13T08:52:25Z</time>
      </trkpt>
      <trkpt lat="42.84975" lon="0.92571">
        <ele>970.584</ele>
        <time>2021-03-13T08:52:27Z</time>
      </trkpt>
      <trkpt lat="42.84974" lon="0.9257">
        <ele>970.632</ele>
        <time>2021-03-13T08:52:29Z</time>
      </trkpt>
      <trkpt lat="42.84973" lon="0.92569">
        <ele>971.831</ele>
        <time>2021-03-13T08:52:31Z</time>
      </trkpt>
      <trkpt lat="42.84972" lon="0.92569">
        <ele>972.016</ele>
        <time>2021-03-13T08:52:33Z</time>
      </trkpt>
      <trkpt lat="42.84972" lon="0.92568">
        <ele>972.467</ele>
        <time>2021-03-13T08:52:35Z</time>
      </trkpt>
      <trkpt lat="42.84971" lon="0.92568">
        <ele>972.644</ele>
        <time>2021-03-13T08:52:37Z</time>
      </trkpt>
      <trkpt lat="42.8497" lon="0.92569">
        <ele>972.263</ele>
        <time>2021-03-13T08:52:39Z</time>
      </trkpt>
      <trkpt lat="42.84969" lon="0.9257">
        <ele>972.938</ele>
        <time>2021-03-13T08:52:41Z</time>
      </trkpt>
      <trkpt lat="42.84969" lon="0.9257">
        <ele>973.276</ele>
        <time>2021-03-13T08:52:43Z</time>
      </trkpt>
      <trkpt lat="42.84968" lon="0.92571">
        <ele>975.524</ele>
        <time>2021-03-13T08:52:45Z</time>
      </trkpt>
      <trkpt lat="42.84969" lon="0.92571">
        <ele>976.978</ele>
        <time>2021-03-13T08:52:47Z</time>
      </trkpt>
      <trkpt lat="42.84969" lon="0.92569">
        <ele>977.508</ele>
        <time>2021-03-13T08:52:49Z</time>
      </trkpt>
      <trkpt lat="42.84968" lon="0.92568">
        <ele>979.883</ele>
        <time>2021-03-13T08:52:51Z</time>
      </trkpt>
      <trkpt lat="42.84968" lon="0.92566">
        <ele>979.452</ele>
        <time>2021-03-13T08:52:53Z</time>
      </trkpt>
      <trkpt lat="42.84967" lon="0.92565">
        <ele>978.881</ele>
        <time>2021-03-13T08:52:55Z</time>
      </trkpt>
      <trkpt lat="42.84967" lon="0.92563">
        <ele>979.06</ele>
        <time>2021-03-13T08:52:57Z</time>
      </trkpt>
      <trkpt lat="42.84967" lon="0.92562">
        <ele>979.32</ele>
        <time>2021-03-13T08:52:59Z</time>
      </trkpt>
      <trkpt lat="42.84968" lon="0.92561">
        <ele>978.679</ele>
        <time>2021-03-13T08:53:01Z</time>
      </trkpt>
      <trkpt lat="42.84967" lon="0.92561">
        <ele>979.668</ele>
        <time>2021-03-13T08:53:03Z</time>
      </trkpt>
      <trkpt lat="42.84968" lon="0.92561">
        <ele>979.238</ele>
        <time>2021-03-13T08:53:05Z</time>
      </trkpt>
      <trkpt lat="42.84968" lon="0.92559">
        <ele>977.57</ele>
        <time>2021-03-13T08:53:07Z</time>
      </trkpt>
      <trkpt lat="42.84969" lon="0.92557">
        <ele>977.164</ele>
        <time>2021-03-13T08:53:09Z</time>
      </trkpt>
      <trkpt lat="42.84969" lon="0.92555">
        <ele>976.598</ele>
        <time>2021-03-13T08:53:11Z</time>
      </trkpt>
      <trkpt lat="42.8497" lon="0.92555">
        <ele>979.261</ele>
        <time>2021-03-13T08:53:13Z</time>
      </trkpt>
      <trkpt lat="42.8497" lon="0.92554">
        <ele>979.671</ele>
        <time>2021-03-13T08:53:15Z</time>
      </trkpt>
      <trkpt lat="42.8497" lon="0.92554">
        <ele>978.259</ele>
        <time>2021-03-13T08:53:17Z</time>
      </trkpt>
      <trkpt lat="42.84968" lon="0.92553">
        <ele>980.093</ele>
        <time>2021-03-13T08:53:19Z</time>
      </trkpt>
      <trkpt lat="42.84967" lon="0.92552">
        <ele>978.537</ele>
        <time>2021-03-13T08:53:21Z</time>
      </trkpt>
      <trkpt lat="42.84966" lon="0.9255">
        <ele>977.739</ele>
        <time>2021-03-13T08:53:23Z</time>
      </trkpt>
      <trkpt lat="42.84965" lon="0.92548">
        <ele>978.712</ele>
        <time>2021-03-13T08:53:25Z</time>
      </trkpt>
      <trkpt lat="42.84965" lon="0.92546">
        <ele>978.675</ele>
        <time>2021-03-13T08:53:27Z</time>
      </trkpt>
      <trkpt lat="42.84966" lon="0.92544">
        <ele>980.592</ele>
        <time>2021-03-13T08:53:29Z</time>
      </trkpt>
      <trkpt lat="42.84966" lon="0.92542">
        <ele>980.574</ele>
        <time>2021-03-13T08:53:31Z</time>
      </trkpt>
      <trkpt lat="42.84965" lon="0.92541">
        <ele>981.456</ele>
        <time>2021-03-13T08:53:33Z</time>
      </trkpt>
      <trkpt lat="42.84964" lon="0.92541">
        <ele>982.603</ele>
        <time>2021-03-13T08:53:35Z</time>
      </trkpt>
      <trkpt lat="42.84963" lon="0.9254">
        <ele>982.689</ele>
        <time>2021-03-13T08:53:37Z</time>
      </trkpt>
      <trkpt lat="42.84961" lon="0.92539">
        <ele>981.475</ele>
        <time>2021-03-13T08:53:39Z</time>
      </trkpt>
      <trkpt lat="42.8496" lon="0.92538">
        <ele>979.07</ele>
        <time>2021-03-13T08:53:41Z</time>
      </trkpt>
      <trkpt lat="42.84959" lon="0.92536">
        <ele>978.447</ele>
        <time>2021-03-13T08:53:43Z</time>
      </trkpt>
      <trkpt lat="42.84958" lon="0.92534">
        <ele>977.338</ele>
        <time>2021-03-13T08:53:45Z</time>
      </trkpt>
      <trkpt lat="42.84958" lon="0.92533">
        <ele>976.894</ele>
        <time>2021-03-13T08:53:47Z</time>
      </trkpt>
      <trkpt lat="42.84958" lon="0.92532">
        <ele>976.859</ele>
        <time>2021-03-13T08:53:49Z</time>
      </trkpt>
      <trkpt lat="42.84958" lon="0.9253">
        <ele>976.654</ele>
        <time>2021-03-13T08:53:51Z</time>
      </trkpt>
      <trkpt lat="42.84958" lon="0.9253">
        <ele>976.9</ele>
        <time>2021-03-13T08:53:53Z</time>
      </trkpt>
      <trkpt lat="42.84958" lon="0.9253">
        <ele>977.879</ele>
        <time>2021-03-13T08:53:55Z</time>
      </trkpt>
      <trkpt lat="42.84958" lon="0.92529">
        <ele>978.094</ele>
        <time>2021-03-13T08:53:57Z</time>
      </trkpt>
      <trkpt lat="42.84959" lon="0.92529">
        <ele>978.106</ele>
        <time>2021-03-13T08:53:59Z</time>
      </trkpt>
      <trkpt lat="42.84959" lon="0.92529">
        <ele>978.117</ele>
        <time>2021-03-13T08:54:01Z</time>
      </trkpt>
      <trkpt lat="42.84959" lon="0.92529">
        <ele>978.146</ele>
        <time>2021-03-13T08:54:03Z</time>
      </trkpt>
      <trkpt lat="42.84959" lon="0.92529">
        <ele>978.371</ele>
        <time>2021-03-13T08:54:05Z</time>
      </trkpt>
      <trkpt lat="42.84959" lon="0.92529">
        <ele>978.363</ele>
        <time>2021-03-13T08:54:07Z</time>
      </trkpt>
      <trkpt lat="42.84959" lon="0.92529">
        <ele>978.377</ele>
        <time>2021-03-13T08:54:09Z</time>
      </trkpt>
      <trkpt lat="42.84959" lon="0.92529">
        <ele>978.387</ele>
        <time>2021-03-13T08:54:11Z</time>
      </trkpt>
      <trkpt lat="42.84959" lon="0.92529">
        <ele>978.399</ele>
        <time>2021-03-13T08:54:13Z</time>
      </trkpt>
      <trkpt lat="42.84959" lon="0.92529">
        <ele>978.412</ele>
        <time>2021-03-13T08:54:15Z</time>
      </trkpt>
      <trkpt lat="42.84959" lon="0.92529">
        <ele>978.412</ele>
        <time>2021-03-13T08:54:17Z</time>
      </trkpt>
      <trkpt lat="42.84959" lon="0.92529">
        <ele>978.408</ele>
        <time>2021-03-13T08:54:19Z</time>
      </trkpt>
      <trkpt lat="42.84959" lon="0.92529">
        <ele>978.42</ele>
        <time>2021-03-13T08:54:21Z</time>
      </trkpt>
      <trkpt lat="42.84959" lon="0.92529">
        <ele>978.423</ele>
        <time>2021-03-13T08:54:23Z</time>
      </trkpt>
      <trkpt lat="42.84959" lon="0.92529">
        <ele>978.422</ele>
        <time>2021-03-13T08:54:25Z</time>
      </trkpt>
      <trkpt lat="42.84959" lon="0.92529">
        <ele>978.429</ele>
        <time>2021-03-13T08:54:27Z</time>
      </trkpt>
      <trkpt lat="42.84959" lon="0.92529">
        <ele>978.442</ele>
        <time>2021-03-13T08:54:29Z</time>
      </trkpt>
      <trkpt lat="42.84959" lon="0.92529">
        <ele>978.448</ele>
        <time>2021-03-13T08:54:31Z</time>
      </trkpt>
      <trkpt lat="42.84959" lon="0.92529">
        <ele>978.454</ele>
        <time>2021-03-13T08:54:33Z</time>
      </trkpt>
      <trkpt lat="42.84959" lon="0.92529">
        <ele>978.449</ele>
        <time>2021-03-13T08:54:35Z</time>
      </trkpt>
      <trkpt lat="42.84959" lon="0.92529">
        <ele>978.437</ele>
        <time>2021-03-13T08:54:37Z</time>
      </trkpt>
      <trkpt lat="42.84959" lon="0.92529">
        <ele>978.512</ele>
        <time>2021-03-13T08:54:39Z</time>
      </trkpt>
      <trkpt lat="42.84959" lon="0.92528">
        <ele>979.711</ele>
        <time>2021-03-13T08:54:41Z</time>
      </trkpt>
      <trkpt lat="42.84958" lon="0.92528">
        <ele>981.481</ele>
        <time>2021-03-13T08:54:43Z</time>
      </trkpt>
      <trkpt lat="42.84959" lon="0.92526">
        <ele>981.21</ele>
        <time>2021-03-13T08:54:45Z</time>
      </trkpt>
      <trkpt lat="42.84959" lon="0.92524">
        <ele>979.785</ele>
        <time>2021-03-13T08:54:47Z</time>
      </trkpt>
      <trkpt lat="42.84959" lon="0.92522">
        <ele>981.245</ele>
        <time>2021-03-13T08:54:49Z</time>
      </trkpt>
      <trkpt lat="42.84958" lon="0.92521">
        <ele>981.244</ele>
        <time>2021-03-13T08:54:51Z</time>
      </trkpt>
      <trkpt lat="42.84958" lon="0.92518">
        <ele>980.877</ele>
        <time>2021-03-13T08:54:53Z</time>
      </trkpt>
      <trkpt lat="42.84957" lon="0.92516">
        <ele>980.742</ele>
        <time>2021-03-13T08:54:55Z</time>
      </trkpt>
      <trkpt lat="42.84958" lon="0.92514">
        <ele>980.38</ele>
        <time>2021-03-13T08:54:57Z</time>
      </trkpt>
      <trkpt lat="42.84958" lon="0.92511">
        <ele>979.687</ele>
        <time>2021-03-13T08:54:59Z</time>
      </trkpt>
      <trkpt lat="42.84959" lon="0.9251">
        <ele>979.918</ele>
        <time>2021-03-13T08:55:01Z</time>
      </trkpt>
      <trkpt lat="42.8496" lon="0.92509">
        <ele>981.228</ele>
        <time>2021-03-13T08:55:03Z</time>
      </trkpt>
      <trkpt lat="42.84959" lon="0.92508">
        <ele>980.204</ele>
        <time>2021-03-13T08:55:05Z</time>
      </trkpt>
      <trkpt lat="42.84958" lon="0.92506">
        <ele>980.949</ele>
        <time>2021-03-13T08:55:07Z</time>
      </trkpt>
      <trkpt lat="42.84956" lon="0.92504">
        <ele>981.244</ele>
        <time>2021-03-13T08:55:09Z</time>
      </trkpt>
      <trkpt lat="42.84955" lon="0.92502">
        <ele>983.03</ele>
        <time>2021-03-13T08:55:11Z</time>
      </trkpt>
      <trkpt lat="42.84955" lon="0.925">
        <ele>982.938</ele>
        <time>2021-03-13T08:55:13Z</time>
      </trkpt>
      <trkpt lat="42.84955" lon="0.92498">
        <ele>983.158</ele>
        <time>2021-03-13T08:55:15Z</time>
      </trkpt>
      <trkpt lat="42.84956" lon="0.92497">
        <ele>983.452</ele>
        <time>2021-03-13T08:55:17Z</time>
      </trkpt>
      <trkpt lat="42.84956" lon="0.92495">
        <ele>982.451</ele>
        <time>2021-03-13T08:55:19Z</time>
      </trkpt>
      <trkpt lat="42.84956" lon="0.92492">
        <ele>983.373</ele>
        <time>2021-03-13T08:55:21Z</time>
      </trkpt>
      <trkpt lat="42.84955" lon="0.9249">
        <ele>982.198</ele>
        <time>2021-03-13T08:55:23Z</time>
      </trkpt>
      <trkpt lat="42.84956" lon="0.92488">
        <ele>980.495</ele>
        <time>2021-03-13T08:55:25Z</time>
      </trkpt>
      <trkpt lat="42.84957" lon="0.92486">
        <ele>980.895</ele>
        <time>2021-03-13T08:55:27Z</time>
      </trkpt>
      <trkpt lat="42.84958" lon="0.92485">
        <ele>981.461</ele>
        <time>2021-03-13T08:55:29Z</time>
      </trkpt>
      <trkpt lat="42.84959" lon="0.92484">
        <ele>981.547</ele>
        <time>2021-03-13T08:55:31Z</time>
      </trkpt>
      <trkpt lat="42.8496" lon="0.92483">
        <ele>981.23</ele>
        <time>2021-03-13T08:55:33Z</time>
      </trkpt>
      <trkpt lat="42.8496" lon="0.92481">
        <ele>980.274</ele>
        <time>2021-03-13T08:55:35Z</time>
      </trkpt>
      <trkpt lat="42.84961" lon="0.92479">
        <ele>979.708</ele>
        <time>2021-03-13T08:55:37Z</time>
      </trkpt>
      <trkpt lat="42.84961" lon="0.92478">
        <ele>978.603</ele>
        <time>2021-03-13T08:55:39Z</time>
      </trkpt>
      <trkpt lat="42.84962" lon="0.92476">
        <ele>978.905</ele>
        <time>2021-03-13T08:55:41Z</time>
      </trkpt>
      <trkpt lat="42.84961" lon="0.92473">
        <ele>977.201</ele>
        <time>2021-03-13T08:55:43Z</time>
      </trkpt>
      <trkpt lat="42.8496" lon="0.92471">
        <ele>977.283</ele>
        <time>2021-03-13T08:55:45Z</time>
      </trkpt>
      <trkpt lat="42.84958" lon="0.92468">
        <ele>978.909</ele>
        <time>2021-03-13T08:55:47Z</time>
      </trkpt>
      <trkpt lat="42.84958" lon="0.92467">
        <ele>978.921</ele>
        <time>2021-03-13T08:55:49Z</time>
      </trkpt>
      <trkpt lat="42.84957" lon="0.92465">
        <ele>978.676</ele>
        <time>2021-03-13T08:55:51Z</time>
      </trkpt>
      <trkpt lat="42.84957" lon="0.92463">
        <ele>979.139</ele>
        <time>2021-03-13T08:55:53Z</time>
      </trkpt>
      <trkpt lat="42.84956" lon="0.92462">
        <ele>979.782</ele>
        <time>2021-03-13T08:55:55Z</time>
      </trkpt>
      <trkpt lat="42.84957" lon="0.9246">
        <ele>980.569</ele>
        <time>2021-03-13T08:55:57Z</time>
      </trkpt>
      <trkpt lat="42.84958" lon="0.92459">
        <ele>981.605</ele>
        <time>2021-03-13T08:55:59Z</time>
      </trkpt>
      <trkpt lat="42.84958" lon="0.92458">
        <ele>982.465</ele>
        <time>2021-03-13T08:56:01Z</time>
      </trkpt>
      <trkpt lat="42.84959" lon="0.92456">
        <ele>982.593</ele>
        <time>2021-03-13T08:56:03Z</time>
      </trkpt>
      <trkpt lat="42.8496" lon="0.92453">
        <ele>982.053</ele>
        <time>2021-03-13T08:56:05Z</time>
      </trkpt>
      <trkpt lat="42.84958" lon="0.92451">
        <ele>981.904</ele>
        <time>2021-03-13T08:56:07Z</time>
      </trkpt>
      <trkpt lat="42.84956" lon="0.92448">
        <ele>982.5</ele>
        <time>2021-03-13T08:56:09Z</time>
      </trkpt>
      <trkpt lat="42.84954" lon="0.92446">
        <ele>983.966</ele>
        <time>2021-03-13T08:56:11Z</time>
      </trkpt>
      <trkpt lat="42.84953" lon="0.92444">
        <ele>983.36</ele>
        <time>2021-03-13T08:56:13Z</time>
      </trkpt>
      <trkpt lat="42.84951" lon="0.92441">
        <ele>985.257</ele>
        <time>2021-03-13T08:56:15Z</time>
      </trkpt>
      <trkpt lat="42.84951" lon="0.92439">
        <ele>985.168</ele>
        <time>2021-03-13T08:56:17Z</time>
      </trkpt>
      <trkpt lat="42.84949" lon="0.92438">
        <ele>985.266</ele>
        <time>2021-03-13T08:56:19Z</time>
      </trkpt>
      <trkpt lat="42.84948" lon="0.92435">
        <ele>984.799</ele>
        <time>2021-03-13T08:56:21Z</time>
      </trkpt>
      <trkpt lat="42.84947" lon="0.92433">
        <ele>985.504</ele>
        <time>2021-03-13T08:56:23Z</time>
      </trkpt>
      <trkpt lat="42.84948" lon="0.92431">
        <ele>985.554</ele>
        <time>2021-03-13T08:56:25Z</time>
      </trkpt>
      <trkpt lat="42.84949" lon="0.9243">
        <ele>986.484</ele>
        <time>2021-03-13T08:56:27Z</time>
      </trkpt>
      <trkpt lat="42.8495" lon="0.92429">
        <ele>986.687</ele>
        <time>2021-03-13T08:56:29Z</time>
      </trkpt>
      <trkpt lat="42.8495" lon="0.92429">
        <ele>986.742</ele>
        <time>2021-03-13T08:56:31Z</time>
      </trkpt>
      <trkpt lat="42.84951" lon="0.92428">
        <ele>987.087</ele>
        <time>2021-03-13T08:56:33Z</time>
      </trkpt>
      <trkpt lat="42.84952" lon="0.92426">
        <ele>986.094</ele>
        <time>2021-03-13T08:56:35Z</time>
      </trkpt>
      <trkpt lat="42.84952" lon="0.92425">
        <ele>987.615</ele>
        <time>2021-03-13T08:56:37Z</time>
      </trkpt>
      <trkpt lat="42.84951" lon="0.92423">
        <ele>988.173</ele>
        <time>2021-03-13T08:56:39Z</time>
      </trkpt>
      <trkpt lat="42.8495" lon="0.92421">
        <ele>988.255</ele>
        <time>2021-03-13T08:56:41Z</time>
      </trkpt>
      <trkpt lat="42.84948" lon="0.92418">
        <ele>988.504</ele>
        <time>2021-03-13T08:56:43Z</time>
      </trkpt>
      <trkpt lat="42.84949" lon="0.92416">
        <ele>989.097</ele>
        <time>2021-03-13T08:56:45Z</time>
      </trkpt>
      <trkpt lat="42.84949" lon="0.92415">
        <ele>990.748</ele>
        <time>2021-03-13T08:56:47Z</time>
      </trkpt>
      <trkpt lat="42.84949" lon="0.92414">
        <ele>993.117</ele>
        <time>2021-03-13T08:56:49Z</time>
      </trkpt>
      <trkpt lat="42.84948" lon="0.92411">
        <ele>991.144</ele>
        <time>2021-03-13T08:56:51Z</time>
      </trkpt>
      <trkpt lat="42.84948" lon="0.92408">
        <ele>991.048</ele>
        <time>2021-03-13T08:56:53Z</time>
      </trkpt>
      <trkpt lat="42.84948" lon="0.92406">
        <ele>992.034</ele>
        <time>2021-03-13T08:56:55Z</time>
      </trkpt>
      <trkpt lat="42.84948" lon="0.92405">
        <ele>993.682</ele>
        <time>2021-03-13T08:56:57Z</time>
      </trkpt>
      <trkpt lat="42.84947" lon="0.92403">
        <ele>995.408</ele>
        <time>2021-03-13T08:56:59Z</time>
      </trkpt>
      <trkpt lat="42.84946" lon="0.92401">
        <ele>998.516</ele>
        <time>2021-03-13T08:57:01Z</time>
      </trkpt>
      <trkpt lat="42.84947" lon="0.924">
        <ele>999.775</ele>
        <time>2021-03-13T08:57:03Z</time>
      </trkpt>
      <trkpt lat="42.84946" lon="0.92398">
        <ele>1000.747</ele>
        <time>2021-03-13T08:57:05Z</time>
      </trkpt>
      <trkpt lat="42.84947" lon="0.92397">
        <ele>1000.247</ele>
        <time>2021-03-13T08:57:07Z</time>
      </trkpt>
      <trkpt lat="42.84947" lon="0.92395">
        <ele>999.4</ele>
        <time>2021-03-13T08:57:09Z</time>
      </trkpt>
      <trkpt lat="42.84947" lon="0.92393">
        <ele>999.893</ele>
        <time>2021-03-13T08:57:11Z</time>
      </trkpt>
      <trkpt lat="42.84948" lon="0.92392">
        <ele>999.772</ele>
        <time>2021-03-13T08:57:13Z</time>
      </trkpt>
      <trkpt lat="42.84948" lon="0.9239">
        <ele>1001.527</ele>
        <time>2021-03-13T08:57:15Z</time>
      </trkpt>
      <trkpt lat="42.84948" lon="0.92388">
        <ele>1002.567</ele>
        <time>2021-03-13T08:57:17Z</time>
      </trkpt>
      <trkpt lat="42.84948" lon="0.92386">
        <ele>1002.798</ele>
        <time>2021-03-13T08:57:19Z</time>
      </trkpt>
      <trkpt lat="42.84947" lon="0.92384">
        <ele>1002.881</ele>
        <time>2021-03-13T08:57:21Z</time>
      </trkpt>
      <trkpt lat="42.84947" lon="0.92381">
        <ele>1003.536</ele>
        <time>2021-03-13T08:57:23Z</time>
      </trkpt>
      <trkpt lat="42.84947" lon="0.9238">
        <ele>1004.363</ele>
        <time>2021-03-13T08:57:25Z</time>
      </trkpt>
      <trkpt lat="42.84947" lon="0.92378">
        <ele>1005.467</ele>
        <time>2021-03-13T08:57:27Z</time>
      </trkpt>
      <trkpt lat="42.84945" lon="0.92375">
        <ele>1005.598</ele>
        <time>2021-03-13T08:57:29Z</time>
      </trkpt>
      <trkpt lat="42.84944" lon="0.92372">
        <ele>1004.225</ele>
        <time>2021-03-13T08:57:31Z</time>
      </trkpt>
      <trkpt lat="42.84943" lon="0.9237">
        <ele>1003.921</ele>
        <time>2021-03-13T08:57:33Z</time>
      </trkpt>
      <trkpt lat="42.84941" lon="0.92367">
        <ele>1002.597</ele>
        <time>2021-03-13T08:57:35Z</time>
      </trkpt>
      <trkpt lat="42.84941" lon="0.92366">
        <ele>1004.495</ele>
        <time>2021-03-13T08:57:37Z</time>
      </trkpt>
      <trkpt lat="42.84942" lon="0.92364">
        <ele>1004.961</ele>
        <time>2021-03-13T08:57:39Z</time>
      </trkpt>
      <trkpt lat="42.84942" lon="0.92363">
        <ele>1006.437</ele>
        <time>2021-03-13T08:57:41Z</time>
      </trkpt>
      <trkpt lat="42.8494" lon="0.9236">
        <ele>1006.187</ele>
        <time>2021-03-13T08:57:43Z</time>
      </trkpt>
      <trkpt lat="42.84938" lon="0.92358">
        <ele>1006.107</ele>
        <time>2021-03-13T08:57:45Z</time>
      </trkpt>
      <trkpt lat="42.84937" lon="0.92356">
        <ele>1005.372</ele>
        <time>2021-03-13T08:57:47Z</time>
      </trkpt>
      <trkpt lat="42.84935" lon="0.92353">
        <ele>1005.353</ele>
        <time>2021-03-13T08:57:49Z</time>
      </trkpt>
      <trkpt lat="42.84933" lon="0.92351">
        <ele>1006.028</ele>
        <time>2021-03-13T08:57:51Z</time>
      </trkpt>
      <trkpt lat="42.84932" lon="0.92349">
        <ele>1005.514</ele>
        <time>2021-03-13T08:57:53Z</time>
      </trkpt>
      <trkpt lat="42.8493" lon="0.92347">
        <ele>1005.297</ele>
        <time>2021-03-13T08:57:55Z</time>
      </trkpt>
      <trkpt lat="42.84928" lon="0.92344">
        <ele>1004.576</ele>
        <time>2021-03-13T08:57:57Z</time>
      </trkpt>
      <trkpt lat="42.84928" lon="0.92342">
        <ele>1005.879</ele>
        <time>2021-03-13T08:57:59Z</time>
      </trkpt>
      <trkpt lat="42.84926" lon="0.92339">
        <ele>1006.286</ele>
        <time>2021-03-13T08:58:01Z</time>
      </trkpt>
      <trkpt lat="42.84925" lon="0.92337">
        <ele>1005.837</ele>
        <time>2021-03-13T08:58:03Z</time>
      </trkpt>
      <trkpt lat="42.84925" lon="0.92334">
        <ele>1006.171</ele>
        <time>2021-03-13T08:58:05Z</time>
      </trkpt>
      <trkpt lat="42.84924" lon="0.92332">
        <ele>1003.88</ele>
        <time>2021-03-13T08:58:07Z</time>
      </trkpt>
      <trkpt lat="42.84924" lon="0.92329">
        <ele>1004.916</ele>
        <time>2021-03-13T08:58:09Z</time>
      </trkpt>
      <trkpt lat="42.84923" lon="0.92328">
        <ele>1004.655</ele>
        <time>2021-03-13T08:58:11Z</time>
      </trkpt>
      <trkpt lat="42.84922" lon="0.92325">
        <ele>1003.773</ele>
        <time>2021-03-13T08:58:13Z</time>
      </trkpt>
      <trkpt lat="42.84922" lon="0.92323">
        <ele>1003.818</ele>
        <time>2021-03-13T08:58:15Z</time>
      </trkpt>
      <trkpt lat="42.84921" lon="0.92321">
        <ele>1003.462</ele>
        <time>2021-03-13T08:58:17Z</time>
      </trkpt>
      <trkpt lat="42.84921" lon="0.92319">
        <ele>1002.924</ele>
        <time>2021-03-13T08:58:19Z</time>
      </trkpt>
      <trkpt lat="42.8492" lon="0.92316">
        <ele>1002.152</ele>
        <time>2021-03-13T08:58:21Z</time>
      </trkpt>
      <trkpt lat="42.8492" lon="0.92313">
        <ele>1003.029</ele>
        <time>2021-03-13T08:58:23Z</time>
      </trkpt>
      <trkpt lat="42.8492" lon="0.92311">
        <ele>1004.169</ele>
        <time>2021-03-13T08:58:25Z</time>
      </trkpt>
      <trkpt lat="42.8492" lon="0.92309">
        <ele>1005.056</ele>
        <time>2021-03-13T08:58:27Z</time>
      </trkpt>
      <trkpt lat="42.84921" lon="0.92307">
        <ele>1005.75</ele>
        <time>2021-03-13T08:58:29Z</time>
      </trkpt>
      <trkpt lat="42.84922" lon="0.92304">
        <ele>1005.837</ele>
        <time>2021-03-13T08:58:31Z</time>
      </trkpt>
      <trkpt lat="42.84923" lon="0.92302">
        <ele>1007.364</ele>
        <time>2021-03-13T08:58:33Z</time>
      </trkpt>
      <trkpt lat="42.84924" lon="0.92301">
        <ele>1007.805</ele>
        <time>2021-03-13T08:58:35Z</time>
      </trkpt>
      <trkpt lat="42.84925" lon="0.92299">
        <ele>1008.679</ele>
        <time>2021-03-13T08:58:37Z</time>
      </trkpt>
      <trkpt lat="42.84923" lon="0.92297">
        <ele>1009.862</ele>
        <time>2021-03-13T08:58:39Z</time>
      </trkpt>
      <trkpt lat="42.84923" lon="0.92295">
        <ele>1010.155</ele>
        <time>2021-03-13T08:58:41Z</time>
      </trkpt>
      <trkpt lat="42.84922" lon="0.92294">
        <ele>1010.976</ele>
        <time>2021-03-13T08:58:43Z</time>
      </trkpt>
      <trkpt lat="42.84921" lon="0.92293">
        <ele>1012.464</ele>
        <time>2021-03-13T08:58:45Z</time>
      </trkpt>
      <trkpt lat="42.84921" lon="0.92291">
        <ele>1013.499</ele>
        <time>2021-03-13T08:58:47Z</time>
      </trkpt>
      <trkpt lat="42.8492" lon="0.9229">
        <ele>1013.216</ele>
        <time>2021-03-13T08:58:49Z</time>
      </trkpt>
      <trkpt lat="42.84918" lon="0.92288">
        <ele>1013.659</ele>
        <time>2021-03-13T08:58:51Z</time>
      </trkpt>
      <trkpt lat="42.84917" lon="0.92286">
        <ele>1014.462</ele>
        <time>2021-03-13T08:58:53Z</time>
      </trkpt>
      <trkpt lat="42.84916" lon="0.92284">
        <ele>1015.029</ele>
        <time>2021-03-13T08:58:55Z</time>
      </trkpt>
      <trkpt lat="42.84915" lon="0.92282">
        <ele>1015.413</ele>
        <time>2021-03-13T08:58:57Z</time>
      </trkpt>
      <trkpt lat="42.84914" lon="0.92281">
        <ele>1016.06</ele>
        <time>2021-03-13T08:58:59Z</time>
      </trkpt>
      <trkpt lat="42.84912" lon="0.92279">
        <ele>1017.954</ele>
        <time>2021-03-13T08:59:02Z</time>
      </trkpt>
      <trkpt lat="42.84911" lon="0.92278">
        <ele>1017.969</ele>
        <time>2021-03-13T08:59:04Z</time>
      </trkpt>
      <trkpt lat="42.8491" lon="0.92276">
        <ele>1018.793</ele>
        <time>2021-03-13T08:59:06Z</time>
      </trkpt>
      <trkpt lat="42.84909" lon="0.92274">
        <ele>1018.742</ele>
        <time>2021-03-13T08:59:08Z</time>
      </trkpt>
      <trkpt lat="42.84908" lon="0.92272">
        <ele>1018.946</ele>
        <time>2021-03-13T08:59:10Z</time>
      </trkpt>
      <trkpt lat="42.84907" lon="0.9227">
        <ele>1019.029</ele>
        <time>2021-03-13T08:59:12Z</time>
      </trkpt>
      <trkpt lat="42.84907" lon="0.92267">
        <ele>1018.663</ele>
        <time>2021-03-13T08:59:14Z</time>
      </trkpt>
      <trkpt lat="42.84907" lon="0.92265">
        <ele>1018.831</ele>
        <time>2021-03-13T08:59:16Z</time>
      </trkpt>
      <trkpt lat="42.84907" lon="0.92262">
        <ele>1020.145</ele>
        <time>2021-03-13T08:59:18Z</time>
      </trkpt>
      <trkpt lat="42.84907" lon="0.92261">
        <ele>1020.546</ele>
        <time>2021-03-13T08:59:20Z</time>
      </trkpt>
      <trkpt lat="42.84908" lon="0.92261">
        <ele>1022.272</ele>
        <time>2021-03-13T08:59:22Z</time>
      </trkpt>
      <trkpt lat="42.84908" lon="0.92261">
        <ele>1023.165</ele>
        <time>2021-03-13T08:59:24Z</time>
      </trkpt>
      <trkpt lat="42.8491" lon="0.9226">
        <ele>1022.532</ele>
        <time>2021-03-13T08:59:26Z</time>
      </trkpt>
      <trkpt lat="42.8491" lon="0.9226">
        <ele>1021.089</ele>
        <time>2021-03-13T08:59:28Z</time>
      </trkpt>
      <trkpt lat="42.84912" lon="0.92261">
        <ele>1021.277</ele>
        <time>2021-03-13T08:59:30Z</time>
      </trkpt>
      <trkpt lat="42.84913" lon="0.9226">
        <ele>1020.188</ele>
        <time>2021-03-13T08:59:32Z</time>
      </trkpt>
      <trkpt lat="42.84914" lon="0.92261">
        <ele>1019.271</ele>
        <time>2021-03-13T08:59:34Z</time>
      </trkpt>
      <trkpt lat="42.84915" lon="0.92262">
        <ele>1020.337</ele>
        <time>2021-03-13T08:59:36Z</time>
      </trkpt>
      <trkpt lat="42.84916" lon="0.92263">
        <ele>1020.615</ele>
        <time>2021-03-13T08:59:38Z</time>
      </trkpt>
      <trkpt lat="42.84918" lon="0.92264">
        <ele>1021.391</ele>
        <time>2021-03-13T08:59:40Z</time>
      </trkpt>
      <trkpt lat="42.84919" lon="0.92264">
        <ele>1021.363</ele>
        <time>2021-03-13T08:59:42Z</time>
      </trkpt>
      <trkpt lat="42.8492" lon="0.92265">
        <ele>1021.639</ele>
        <time>2021-03-13T08:59:44Z</time>
      </trkpt>
      <trkpt lat="42.84922" lon="0.92266">
        <ele>1021.982</ele>
        <time>2021-03-13T08:59:46Z</time>
      </trkpt>
      <trkpt lat="42.84924" lon="0.92267">
        <ele>1021.902</ele>
        <time>2021-03-13T08:59:48Z</time>
      </trkpt>
      <trkpt lat="42.84925" lon="0.92268">
        <ele>1022.114</ele>
        <time>2021-03-13T08:59:50Z</time>
      </trkpt>
      <trkpt lat="42.84927" lon="0.9227">
        <ele>1022.063</ele>
        <time>2021-03-13T08:59:52Z</time>
      </trkpt>
      <trkpt lat="42.84928" lon="0.92271">
        <ele>1021.999</ele>
        <time>2021-03-13T08:59:54Z</time>
      </trkpt>
      <trkpt lat="42.84929" lon="0.92272">
        <ele>1022.099</ele>
        <time>2021-03-13T08:59:56Z</time>
      </trkpt>
      <trkpt lat="42.84931" lon="0.92273">
        <ele>1022.036</ele>
        <time>2021-03-13T08:59:58Z</time>
      </trkpt>
      <trkpt lat="42.84932" lon="0.92274">
        <ele>1021.98</ele>
        <time>2021-03-13T09:00:00Z</time>
      </trkpt>
      <trkpt lat="42.84933" lon="0.92276">
        <ele>1021.837</ele>
        <time>2021-03-13T09:00:02Z</time>
      </trkpt>
      <trkpt lat="42.84934" lon="0.92276">
        <ele>1021.202</ele>
        <time>2021-03-13T09:00:04Z</time>
      </trkpt>
      <trkpt lat="42.84935" lon="0.92277">
        <ele>1020.771</ele>
        <time>2021-03-13T09:00:06Z</time>
      </trkpt>
      <trkpt lat="42.84937" lon="0.92278">
        <ele>1019.971</ele>
        <time>2021-03-13T09:00:08Z</time>
      </trkpt>
      <trkpt lat="42.84938" lon="0.92279">
        <ele>1020.959</ele>
        <time>2021-03-13T09:00:10Z</time>
      </trkpt>
      <trkpt lat="42.84939" lon="0.9228">
        <ele>1021.001</ele>
        <time>2021-03-13T09:00:12Z</time>
      </trkpt>
      <trkpt lat="42.84941" lon="0.92282">
        <ele>1020.562</ele>
        <time>2021-03-13T09:00:14Z</time>
      </trkpt>
      <trkpt lat="42.84942" lon="0.92282">
        <ele>1020.32</ele>
        <time>2021-03-13T09:00:16Z</time>
      </trkpt>
      <trkpt lat="42.84943" lon="0.92284">
        <ele>1020.675</ele>
        <time>2021-03-13T09:00:18Z</time>
      </trkpt>
      <trkpt lat="42.84945" lon="0.92285">
        <ele>1021.051</ele>
        <time>2021-03-13T09:00:20Z</time>
      </trkpt>
      <trkpt lat="42.84946" lon="0.92287">
        <ele>1022.204</ele>
        <time>2021-03-13T09:00:22Z</time>
      </trkpt>
      <trkpt lat="42.84947" lon="0.92289">
        <ele>1022.578</ele>
        <time>2021-03-13T09:00:24Z</time>
      </trkpt>
      <trkpt lat="42.84948" lon="0.92291">
        <ele>1023.439</ele>
        <time>2021-03-13T09:00:26Z</time>
      </trkpt>
      <trkpt lat="42.8495" lon="0.92291">
        <ele>1024.396</ele>
        <time>2021-03-13T09:00:28Z</time>
      </trkpt>
      <trkpt lat="42.8495" lon="0.9229">
        <ele>1024.624</ele>
        <time>2021-03-13T09:00:30Z</time>
      </trkpt>
      <trkpt lat="42.8495" lon="0.92289">
        <ele>1025.76</ele>
        <time>2021-03-13T09:00:32Z</time>
      </trkpt>
      <trkpt lat="42.84949" lon="0.92288">
        <ele>1026.888</ele>
        <time>2021-03-13T09:00:34Z</time>
      </trkpt>
      <trkpt lat="42.84948" lon="0.92287">
        <ele>1026.81</ele>
        <time>2021-03-13T09:00:36Z</time>
      </trkpt>
      <trkpt lat="42.84947" lon="0.92285">
        <ele>1026.874</ele>
        <time>2021-03-13T09:00:38Z</time>
      </trkpt>
      <trkpt lat="42.84947" lon="0.92284">
        <ele>1027.39</ele>
        <time>2021-03-13T09:00:40Z</time>
      </trkpt>
      <trkpt lat="42.84947" lon="0.92283">
        <ele>1027.742</ele>
        <time>2021-03-13T09:00:42Z</time>
      </trkpt>
      <trkpt lat="42.84947" lon="0.92281">
        <ele>1026.16</ele>
        <time>2021-03-13T09:00:44Z</time>
      </trkpt>
      <trkpt lat="42.84948" lon="0.92279">
        <ele>1025.38</ele>
        <time>2021-03-13T09:00:46Z</time>
      </trkpt>
      <trkpt lat="42.8495" lon="0.92279">
        <ele>1026.039</ele>
        <time>2021-03-13T09:00:48Z</time>
      </trkpt>
      <trkpt lat="42.84951" lon="0.92281">
        <ele>1026.984</ele>
        <time>2021-03-13T09:00:50Z</time>
      </trkpt>
      <trkpt lat="42.84952" lon="0.92281">
        <ele>1026.617</ele>
        <time>2021-03-13T09:00:52Z</time>
      </trkpt>
      <trkpt lat="42.84954" lon="0.92282">
        <ele>1027.019</ele>
        <time>2021-03-13T09:00:54Z</time>
      </trkpt>
      <trkpt lat="42.84954" lon="0.92283">
        <ele>1027.44</ele>
        <time>2021-03-13T09:00:56Z</time>
      </trkpt>
      <trkpt lat="42.84956" lon="0.92284">
        <ele>1027.589</ele>
        <time>2021-03-13T09:00:58Z</time>
      </trkpt>
      <trkpt lat="42.84957" lon="0.92284">
        <ele>1027.759</ele>
        <time>2021-03-13T09:01:00Z</time>
      </trkpt>
      <trkpt lat="42.84958" lon="0.92285">
        <ele>1027.707</ele>
        <time>2021-03-13T09:01:02Z</time>
      </trkpt>
      <trkpt lat="42.84959" lon="0.92286">
        <ele>1027.78</ele>
        <time>2021-03-13T09:01:04Z</time>
      </trkpt>
      <trkpt lat="42.84961" lon="0.92287">
        <ele>1027.446</ele>
        <time>2021-03-13T09:01:06Z</time>
      </trkpt>
      <trkpt lat="42.84962" lon="0.92288">
        <ele>1026.612</ele>
        <time>2021-03-13T09:01:08Z</time>
      </trkpt>
      <trkpt lat="42.84964" lon="0.92288">
        <ele>1027.338</ele>
        <time>2021-03-13T09:01:10Z</time>
      </trkpt>
      <trkpt lat="42.84965" lon="0.92289">
        <ele>1027.883</ele>
        <time>2021-03-13T09:01:12Z</time>
      </trkpt>
      <trkpt lat="42.84966" lon="0.92289">
        <ele>1028.867</ele>
        <time>2021-03-13T09:01:14Z</time>
      </trkpt>
      <trkpt lat="42.84967" lon="0.92289">
        <ele>1030.422</ele>
        <time>2021-03-13T09:01:16Z</time>
      </trkpt>
      <trkpt lat="42.84967" lon="0.92288">
        <ele>1031.784</ele>
        <time>2021-03-13T09:01:18Z</time>
      </trkpt>
      <trkpt lat="42.84968" lon="0.92287">
        <ele>1032.905</ele>
        <time>2021-03-13T09:01:20Z</time>
      </trkpt>
      <trkpt lat="42.84968" lon="0.92286">
        <ele>1033.224</ele>
        <time>2021-03-13T09:01:22Z</time>
      </trkpt>
      <trkpt lat="42.84968" lon="0.92286">
        <ele>1033.928</ele>
        <time>2021-03-13T09:01:24Z</time>
      </trkpt>
      <trkpt lat="42.8497" lon="0.92287">
        <ele>1035.189</ele>
        <time>2021-03-13T09:01:26Z</time>
      </trkpt>
      <trkpt lat="42.84971" lon="0.92288">
        <ele>1035.383</ele>
        <time>2021-03-13T09:01:28Z</time>
      </trkpt>
      <trkpt lat="42.84972" lon="0.92289">
        <ele>1036.049</ele>
        <time>2021-03-13T09:01:30Z</time>
      </trkpt>
      <trkpt lat="42.84973" lon="0.92291">
        <ele>1036.301</ele>
        <time>2021-03-13T09:01:32Z</time>
      </trkpt>
      <trkpt lat="42.84974" lon="0.92292">
        <ele>1036.239</ele>
        <time>2021-03-13T09:01:34Z</time>
      </trkpt>
      <trkpt lat="42.84976" lon="0.92292">
        <ele>1036.999</ele>
        <time>2021-03-13T09:01:36Z</time>
      </trkpt>
      <trkpt lat="42.84977" lon="0.92293">
        <ele>1037.056</ele>
        <time>2021-03-13T09:01:38Z</time>
      </trkpt>
      <trkpt lat="42.84978" lon="0.92294">
        <ele>1036.353</ele>
        <time>2021-03-13T09:01:40Z</time>
      </trkpt>
      <trkpt lat="42.84979" lon="0.92295">
        <ele>1035.809</ele>
        <time>2021-03-13T09:01:42Z</time>
      </trkpt>
      <trkpt lat="42.84981" lon="0.92295">
        <ele>1035.905</ele>
        <time>2021-03-13T09:01:44Z</time>
      </trkpt>
      <trkpt lat="42.84982" lon="0.92296">
        <ele>1035.834</ele>
        <time>2021-03-13T09:01:46Z</time>
      </trkpt>
      <trkpt lat="42.84983" lon="0.92298">
        <ele>1036.939</ele>
        <time>2021-03-13T09:01:48Z</time>
      </trkpt>
      <trkpt lat="42.84984" lon="0.92299">
        <ele>1037.515</ele>
        <time>2021-03-13T09:01:50Z</time>
      </trkpt>
      <trkpt lat="42.84986" lon="0.923">
        <ele>1038.105</ele>
        <time>2021-03-13T09:01:52Z</time>
      </trkpt>
      <trkpt lat="42.84987" lon="0.923">
        <ele>1038.552</ele>
        <time>2021-03-13T09:01:54Z</time>
      </trkpt>
      <trkpt lat="42.84988" lon="0.92299">
        <ele>1038.357</ele>
        <time>2021-03-13T09:01:56Z</time>
      </trkpt>
      <trkpt lat="42.84989" lon="0.92299">
        <ele>1037.739</ele>
        <time>2021-03-13T09:01:58Z</time>
      </trkpt>
      <trkpt lat="42.8499" lon="0.923">
        <ele>1038.553</ele>
        <time>2021-03-13T09:02:00Z</time>
      </trkpt>
      <trkpt lat="42.84991" lon="0.92301">
        <ele>1039.363</ele>
        <time>2021-03-13T09:02:02Z</time>
      </trkpt>
      <trkpt lat="42.84992" lon="0.92303">
        <ele>1040.456</ele>
        <time>2021-03-13T09:02:04Z</time>
      </trkpt>
      <trkpt lat="42.84993" lon="0.92304">
        <ele>1041.234</ele>
        <time>2021-03-13T09:02:06Z</time>
      </trkpt>
      <trkpt lat="42.84994" lon="0.92306">
        <ele>1042.804</ele>
        <time>2021-03-13T09:02:08Z</time>
      </trkpt>
      <trkpt lat="42.84995" lon="0.92306">
        <ele>1043.244</ele>
        <time>2021-03-13T09:02:10Z</time>
      </trkpt>
      <trkpt lat="42.84996" lon="0.92305">
        <ele>1044.922</ele>
        <time>2021-03-13T09:02:12Z</time>
      </trkpt>
      <trkpt lat="42.84997" lon="0.92304">
        <ele>1046.387</ele>
        <time>2021-03-13T09:02:14Z</time>
      </trkpt>
      <trkpt lat="42.84998" lon="0.92304">
        <ele>1047.5</ele>
        <time>2021-03-13T09:02:16Z</time>
      </trkpt>
      <trkpt lat="42.84999" lon="0.92305">
        <ele>1048.051</ele>
        <time>2021-03-13T09:02:18Z</time>
      </trkpt>
      <trkpt lat="42.85" lon="0.92305">
        <ele>1048.435</ele>
        <time>2021-03-13T09:02:20Z</time>
      </trkpt>
      <trkpt lat="42.85001" lon="0.92307">
        <ele>1049.568</ele>
        <time>2021-03-13T09:02:22Z</time>
      </trkpt>
      <trkpt lat="42.85002" lon="0.92309">
        <ele>1051.155</ele>
        <time>2021-03-13T09:02:24Z</time>
      </trkpt>
      <trkpt lat="42.85002" lon="0.9231">
        <ele>1051.351</ele>
        <time>2021-03-13T09:02:26Z</time>
      </trkpt>
      <trkpt lat="42.85003" lon="0.92312">
        <ele>1052.867</ele>
        <time>2021-03-13T09:02:28Z</time>
      </trkpt>
      <trkpt lat="42.85004" lon="0.92313">
        <ele>1052.336</ele>
        <time>2021-03-13T09:02:30Z</time>
      </trkpt>
      <trkpt lat="42.85004" lon="0.92315">
        <ele>1052.959</ele>
        <time>2021-03-13T09:02:32Z</time>
      </trkpt>
      <trkpt lat="42.85005" lon="0.92316">
        <ele>1054.025</ele>
        <time>2021-03-13T09:02:34Z</time>
      </trkpt>
      <trkpt lat="42.85006" lon="0.92314">
        <ele>1053.411</ele>
        <time>2021-03-13T09:02:36Z</time>
      </trkpt>
      <trkpt lat="42.85007" lon="0.92314">
        <ele>1054.588</ele>
        <time>2021-03-13T09:02:38Z</time>
      </trkpt>
      <trkpt lat="42.85007" lon="0.92313">
        <ele>1054.369</ele>
        <time>2021-03-13T09:02:40Z</time>
      </trkpt>
      <trkpt lat="42.85007" lon="0.92314">
        <ele>1054.239</ele>
        <time>2021-03-13T09:02:42Z</time>
      </trkpt>
      <trkpt lat="42.85007" lon="0.92314">
        <ele>1054.253</ele>
        <time>2021-03-13T09:02:44Z</time>
      </trkpt>
      <trkpt lat="42.85007" lon="0.92314">
        <ele>1054.264</ele>
        <time>2021-03-13T09:02:46Z</time>
      </trkpt>
      <trkpt lat="42.85007" lon="0.92313">
        <ele>1053.743</ele>
        <time>2021-03-13T09:02:48Z</time>
      </trkpt>
      <trkpt lat="42.85007" lon="0.92312">
        <ele>1052.634</ele>
        <time>2021-03-13T09:02:50Z</time>
      </trkpt>
      <trkpt lat="42.85009" lon="0.92312">
        <ele>1052.411</ele>
        <time>2021-03-13T09:02:52Z</time>
      </trkpt>
      <trkpt lat="42.85008" lon="0.92313">
        <ele>1054.314</ele>
        <time>2021-03-13T09:02:54Z</time>
      </trkpt>
      <trkpt lat="42.85008" lon="0.92313">
        <ele>1054.495</ele>
        <time>2021-03-13T09:02:56Z</time>
      </trkpt>
      <trkpt lat="42.85008" lon="0.92314">
        <ele>1055.21</ele>
        <time>2021-03-13T09:02:58Z</time>
      </trkpt>
      <trkpt lat="42.85007" lon="0.92313">
        <ele>1055.817</ele>
        <time>2021-03-13T09:03:00Z</time>
      </trkpt>
      <trkpt lat="42.85008" lon="0.92313">
        <ele>1055.795</ele>
        <time>2021-03-13T09:03:02Z</time>
      </trkpt>
      <trkpt lat="42.85008" lon="0.92313">
        <ele>1055.766</ele>
        <time>2021-03-13T09:03:04Z</time>
      </trkpt>
      <trkpt lat="42.85008" lon="0.92313">
        <ele>1055.781</ele>
        <time>2021-03-13T09:03:06Z</time>
      </trkpt>
      <trkpt lat="42.85008" lon="0.92314">
        <ele>1056.193</ele>
        <time>2021-03-13T09:03:08Z</time>
      </trkpt>
      <trkpt lat="42.85008" lon="0.92314">
        <ele>1057.21</ele>
        <time>2021-03-13T09:03:10Z</time>
      </trkpt>
      <trkpt lat="42.85008" lon="0.92315">
        <ele>1056.852</ele>
        <time>2021-03-13T09:03:12Z</time>
      </trkpt>
      <trkpt lat="42.85008" lon="0.92315">
        <ele>1056.868</ele>
        <time>2021-03-13T09:03:14Z</time>
      </trkpt>
      <trkpt lat="42.85008" lon="0.92315">
        <ele>1056.862</ele>
        <time>2021-03-13T09:03:16Z</time>
      </trkpt>
      <trkpt lat="42.85008" lon="0.92315">
        <ele>1056.857</ele>
        <time>2021-03-13T09:03:18Z</time>
      </trkpt>
      <trkpt lat="42.85008" lon="0.92315">
        <ele>1057.197</ele>
        <time>2021-03-13T09:03:20Z</time>
      </trkpt>
      <trkpt lat="42.85008" lon="0.92315">
        <ele>1057.21</ele>
        <time>2021-03-13T09:03:22Z</time>
      </trkpt>
      <trkpt lat="42.85008" lon="0.92315">
        <ele>1057.216</ele>
        <time>2021-03-13T09:03:24Z</time>
      </trkpt>
      <trkpt lat="42.85008" lon="0.92315">
        <ele>1057.226</ele>
        <time>2021-03-13T09:03:26Z</time>
      </trkpt>
      <trkpt lat="42.85008" lon="0.92315">
        <ele>1057.236</ele>
        <time>2021-03-13T09:03:28Z</time>
      </trkpt>
      <trkpt lat="42.85008" lon="0.92315">
        <ele>1057.24</ele>
        <time>2021-03-13T09:03:30Z</time>
      </trkpt>
      <trkpt lat="42.85008" lon="0.92315">
        <ele>1057.239</ele>
        <time>2021-03-13T09:03:32Z</time>
      </trkpt>
      <trkpt lat="42.85008" lon="0.92315">
        <ele>1057.244</ele>
        <time>2021-03-13T09:03:34Z</time>
      </trkpt>
      <trkpt lat="42.85007" lon="0.92315">
        <ele>1057.246</ele>
        <time>2021-03-13T09:03:36Z</time>
      </trkpt>
      <trkpt lat="42.85007" lon="0.92315">
        <ele>1057.254</ele>
        <time>2021-03-13T09:03:38Z</time>
      </trkpt>
      <trkpt lat="42.85007" lon="0.92315">
        <ele>1057.253</ele>
        <time>2021-03-13T09:03:40Z</time>
      </trkpt>
      <trkpt lat="42.85008" lon="0.92315">
        <ele>1057.364</ele>
        <time>2021-03-13T09:03:42Z</time>
      </trkpt>
      <trkpt lat="42.85008" lon="0.92315">
        <ele>1057.397</ele>
        <time>2021-03-13T09:03:44Z</time>
      </trkpt>
      <trkpt lat="42.85008" lon="0.92315">
        <ele>1057.392</ele>
        <time>2021-03-13T09:03:46Z</time>
      </trkpt>
      <trkpt lat="42.85008" lon="0.92315">
        <ele>1057.389</ele>
        <time>2021-03-13T09:03:48Z</time>
      </trkpt>
      <trkpt lat="42.85008" lon="0.92315">
        <ele>1057.387</ele>
        <time>2021-03-13T09:03:50Z</time>
      </trkpt>
      <trkpt lat="42.85008" lon="0.92315">
        <ele>1057.728</ele>
        <time>2021-03-13T09:03:52Z</time>
      </trkpt>
      <trkpt lat="42.85007" lon="0.92315">
        <ele>1058.429</ele>
        <time>2021-03-13T09:03:54Z</time>
      </trkpt>
      <trkpt lat="42.85007" lon="0.92315">
        <ele>1058.434</ele>
        <time>2021-03-13T09:03:56Z</time>
      </trkpt>
      <trkpt lat="42.85007" lon="0.92315">
        <ele>1058.455</ele>
        <time>2021-03-13T09:03:58Z</time>
      </trkpt>
      <trkpt lat="42.85007" lon="0.92315">
        <ele>1058.458</ele>
        <time>2021-03-13T09:04:00Z</time>
      </trkpt>
      <trkpt lat="42.85007" lon="0.92315">
        <ele>1058.461</ele>
        <time>2021-03-13T09:04:02Z</time>
      </trkpt>
      <trkpt lat="42.85007" lon="0.92315">
        <ele>1059.057</ele>
        <time>2021-03-13T09:04:04Z</time>
      </trkpt>
      <trkpt lat="42.85007" lon="0.92316">
        <ele>1058.66</ele>
        <time>2021-03-13T09:04:06Z</time>
      </trkpt>
      <trkpt lat="42.85007" lon="0.92316">
        <ele>1058.762</ele>
        <time>2021-03-13T09:04:08Z</time>
      </trkpt>
      <trkpt lat="42.85007" lon="0.92316">
        <ele>1058.659</ele>
        <time>2021-03-13T09:04:10Z</time>
      </trkpt>
      <trkpt lat="42.85007" lon="0.92316">
        <ele>1058.664</ele>
        <time>2021-03-13T09:04:12Z</time>
      </trkpt>
      <trkpt lat="42.85007" lon="0.92316">
        <ele>1059.302</ele>
        <time>2021-03-13T09:04:14Z</time>
      </trkpt>
      <trkpt lat="42.85006" lon="0.92316">
        <ele>1059.306</ele>
        <time>2021-03-13T09:04:16Z</time>
      </trkpt>
      <trkpt lat="42.85006" lon="0.92316">
        <ele>1059.311</ele>
        <time>2021-03-13T09:04:18Z</time>
      </trkpt>
      <trkpt lat="42.85006" lon="0.92316">
        <ele>1059.47</ele>
        <time>2021-03-13T09:04:20Z</time>
      </trkpt>
      <trkpt lat="42.85006" lon="0.92316">
        <ele>1059.306</ele>
        <time>2021-03-13T09:04:22Z</time>
      </trkpt>
      <trkpt lat="42.85006" lon="0.92316">
        <ele>1059.064</ele>
        <time>2021-03-13T09:04:24Z</time>
      </trkpt>
      <trkpt lat="42.85005" lon="0.92316">
        <ele>1059.202</ele>
        <time>2021-03-13T09:04:26Z</time>
      </trkpt>
      <trkpt lat="42.85005" lon="0.92316">
        <ele>1059.444</ele>
        <time>2021-03-13T09:04:28Z</time>
      </trkpt>
      <trkpt lat="42.85006" lon="0.92316">
        <ele>1059.488</ele>
        <time>2021-03-13T09:04:30Z</time>
      </trkpt>
      <trkpt lat="42.85005" lon="0.92316">
        <ele>1059.784</ele>
        <time>2021-03-13T09:04:32Z</time>
      </trkpt>
      <trkpt lat="42.85006" lon="0.92317">
        <ele>1059.451</ele>
        <time>2021-03-13T09:04:34Z</time>
      </trkpt>
      <trkpt lat="42.85006" lon="0.92317">
        <ele>1059.453</ele>
        <time>2021-03-13T09:04:36Z</time>
      </trkpt>
      <trkpt lat="42.85006" lon="0.92318">
        <ele>1060.679</ele>
        <time>2021-03-13T09:04:38Z</time>
      </trkpt>
      <trkpt lat="42.85007" lon="0.92318">
        <ele>1060.671</ele>
        <time>2021-03-13T09:04:40Z</time>
      </trkpt>
      <trkpt lat="42.85007" lon="0.92318">
        <ele>1060.681</ele>
        <time>2021-03-13T09:04:42Z</time>
      </trkpt>
      <trkpt lat="42.85007" lon="0.92318">
        <ele>1061.238</ele>
        <time>2021-03-13T09:04:44Z</time>
      </trkpt>
      <trkpt lat="42.85007" lon="0.92318">
        <ele>1061.239</ele>
        <time>2021-03-13T09:04:46Z</time>
      </trkpt>
      <trkpt lat="42.85007" lon="0.92318">
        <ele>1061.009</ele>
        <time>2021-03-13T09:04:48Z</time>
      </trkpt>
      <trkpt lat="42.85006" lon="0.92317">
        <ele>1059.62</ele>
        <time>2021-03-13T09:04:50Z</time>
      </trkpt>
      <trkpt lat="42.85006" lon="0.92317">
        <ele>1059.921</ele>
        <time>2021-03-13T09:04:52Z</time>
      </trkpt>
      <trkpt lat="42.85006" lon="0.92319">
        <ele>1062.05</ele>
        <time>2021-03-13T09:04:54Z</time>
      </trkpt>
      <trkpt lat="42.85007" lon="0.92319">
        <ele>1062.42</ele>
        <time>2021-03-13T09:04:56Z</time>
      </trkpt>
      <trkpt lat="42.85007" lon="0.9232">
        <ele>1062.545</ele>
        <time>2021-03-13T09:04:58Z</time>
      </trkpt>
      <trkpt lat="42.85007" lon="0.9232">
        <ele>1063.037</ele>
        <time>2021-03-13T09:05:00Z</time>
      </trkpt>
      <trkpt lat="42.85007" lon="0.9232">
        <ele>1063.042</ele>
        <time>2021-03-13T09:05:02Z</time>
      </trkpt>
      <trkpt lat="42.85007" lon="0.92319">
        <ele>1063.372</ele>
        <time>2021-03-13T09:05:04Z</time>
      </trkpt>
      <trkpt lat="42.85006" lon="0.92318">
        <ele>1062.702</ele>
        <time>2021-03-13T09:05:06Z</time>
      </trkpt>
      <trkpt lat="42.85006" lon="0.92316">
        <ele>1061.823</ele>
        <time>2021-03-13T09:05:08Z</time>
      </trkpt>
      <trkpt lat="42.85005" lon="0.92313">
        <ele>1061.413</ele>
        <time>2021-03-13T09:05:10Z</time>
      </trkpt>
      <trkpt lat="42.85005" lon="0.92312">
        <ele>1061.694</ele>
        <time>2021-03-13T09:05:12Z</time>
      </trkpt>
      <trkpt lat="42.85005" lon="0.9231">
        <ele>1061.008</ele>
        <time>2021-03-13T09:05:14Z</time>
      </trkpt>
      <trkpt lat="42.85006" lon="0.92308">
        <ele>1059.965</ele>
        <time>2021-03-13T09:05:16Z</time>
      </trkpt>
      <trkpt lat="42.85006" lon="0.92309">
        <ele>1060.522</ele>
        <time>2021-03-13T09:05:18Z</time>
      </trkpt>
      <trkpt lat="42.85006" lon="0.92309">
        <ele>1060.546</ele>
        <time>2021-03-13T09:05:20Z</time>
      </trkpt>
      <trkpt lat="42.85006" lon="0.92309">
        <ele>1060.551</ele>
        <time>2021-03-13T09:05:22Z</time>
      </trkpt>
      <trkpt lat="42.85005" lon="0.9231">
        <ele>1060.849</ele>
        <time>2021-03-13T09:05:24Z</time>
      </trkpt>
      <trkpt lat="42.85004" lon="0.92311">
        <ele>1062.745</ele>
        <time>2021-03-13T09:05:26Z</time>
      </trkpt>
      <trkpt lat="42.85005" lon="0.92314">
        <ele>1064.365</ele>
        <time>2021-03-13T09:05:28Z</time>
      </trkpt>
      <trkpt lat="42.85005" lon="0.92316">
        <ele>1064.684</ele>
        <time>2021-03-13T09:05:30Z</time>
      </trkpt>
      <trkpt lat="42.85005" lon="0.92318">
        <ele>1062.44</ele>
        <time>2021-03-13T09:05:32Z</time>
      </trkpt>
      <trkpt lat="42.85004" lon="0.92319">
        <ele>1062.042</ele>
        <time>2021-03-13T09:05:34Z</time>
      </trkpt>
      <trkpt lat="42.85004" lon="0.92321">
        <ele>1062.38</ele>
        <time>2021-03-13T09:05:36Z</time>
      </trkpt>
      <trkpt lat="42.85005" lon="0.92322">
        <ele>1063.577</ele>
        <time>2021-03-13T09:05:38Z</time>
      </trkpt>
      <trkpt lat="42.85005" lon="0.92322">
        <ele>1063.532</ele>
        <time>2021-03-13T09:05:40Z</time>
      </trkpt>
      <trkpt lat="42.85005" lon="0.92322">
        <ele>1063.587</ele>
        <time>2021-03-13T09:05:42Z</time>
      </trkpt>
      <trkpt lat="42.85005" lon="0.92322">
        <ele>1063.597</ele>
        <time>2021-03-13T09:05:44Z</time>
      </trkpt>
      <trkpt lat="42.85005" lon="0.92322">
        <ele>1063.588</ele>
        <time>2021-03-13T09:05:46Z</time>
      </trkpt>
      <trkpt lat="42.85004" lon="0.92322">
        <ele>1063.608</ele>
        <time>2021-03-13T09:05:48Z</time>
      </trkpt>
      <trkpt lat="42.85004" lon="0.92322">
        <ele>1063.613</ele>
        <time>2021-03-13T09:05:50Z</time>
      </trkpt>
      <trkpt lat="42.85004" lon="0.92322">
        <ele>1063.613</ele>
        <time>2021-03-13T09:05:52Z</time>
      </trkpt>
      <trkpt lat="42.85005" lon="0.92323">
        <ele>1063.655</ele>
        <time>2021-03-13T09:05:54Z</time>
      </trkpt>
      <trkpt lat="42.85005" lon="0.92325">
        <ele>1064.365</ele>
        <time>2021-03-13T09:05:56Z</time>
      </trkpt>
      <trkpt lat="42.85006" lon="0.92326">
        <ele>1064.471</ele>
        <time>2021-03-13T09:05:58Z</time>
      </trkpt>
      <trkpt lat="42.85007" lon="0.92328">
        <ele>1066.811</ele>
        <time>2021-03-13T09:06:00Z</time>
      </trkpt>
      <trkpt lat="42.85008" lon="0.92329">
        <ele>1067.228</ele>
        <time>2021-03-13T09:06:02Z</time>
      </trkpt>
      <trkpt lat="42.85009" lon="0.92331">
        <ele>1069.103</ele>
        <time>2021-03-13T09:06:04Z</time>
      </trkpt>
      <trkpt lat="42.8501" lon="0.92333">
        <ele>1070.218</ele>
        <time>2021-03-13T09:06:06Z</time>
      </trkpt>
      <trkpt lat="42.8501" lon="0.92333">
        <ele>1069.365</ele>
        <time>2021-03-13T09:06:08Z</time>
      </trkpt>
      <trkpt lat="42.8501" lon="0.92333">
        <ele>1069.191</ele>
        <time>2021-03-13T09:06:10Z</time>
      </trkpt>
      <trkpt lat="42.8501" lon="0.92333">
        <ele>1069.194</ele>
        <time>2021-03-13T09:06:12Z</time>
      </trkpt>
      <trkpt lat="42.8501" lon="0.92332">
        <ele>1069.341</ele>
        <time>2021-03-13T09:06:14Z</time>
      </trkpt>
      <trkpt lat="42.8501" lon="0.92331">
        <ele>1068.713</ele>
        <time>2021-03-13T09:06:16Z</time>
      </trkpt>
      <trkpt lat="42.85009" lon="0.92328">
        <ele>1067.733</ele>
        <time>2021-03-13T09:06:18Z</time>
      </trkpt>
      <trkpt lat="42.85008" lon="0.92326">
        <ele>1066.616</ele>
        <time>2021-03-13T09:06:20Z</time>
      </trkpt>
      <trkpt lat="42.85008" lon="0.92324">
        <ele>1066.273</ele>
        <time>2021-03-13T09:06:22Z</time>
      </trkpt>
      <trkpt lat="42.85007" lon="0.92321">
        <ele>1064.053</ele>
        <time>2021-03-13T09:06:24Z</time>
      </trkpt>
      <trkpt lat="42.85006" lon="0.92318">
        <ele>1062.924</ele>
        <time>2021-03-13T09:06:26Z</time>
      </trkpt>
      <trkpt lat="42.85006" lon="0.92315">
        <ele>1062.227</ele>
        <time>2021-03-13T09:06:28Z</time>
      </trkpt>
      <trkpt lat="42.85005" lon="0.92312">
        <ele>1061.915</ele>
        <time>2021-03-13T09:06:30Z</time>
      </trkpt>
      <trkpt lat="42.85006" lon="0.92309">
        <ele>1060.027</ele>
        <time>2021-03-13T09:06:32Z</time>
      </trkpt>
      <trkpt lat="42.85005" lon="0.92307">
        <ele>1059.256</ele>
        <time>2021-03-13T09:06:34Z</time>
      </trkpt>
      <trkpt lat="42.85005" lon="0.92305">
        <ele>1059.381</ele>
        <time>2021-03-13T09:06:36Z</time>
      </trkpt>
      <trkpt lat="42.85004" lon="0.92302">
        <ele>1059.645</ele>
        <time>2021-03-13T09:06:38Z</time>
      </trkpt>
      <trkpt lat="42.85004" lon="0.92301">
        <ele>1059.366</ele>
        <time>2021-03-13T09:06:40Z</time>
      </trkpt>
      <trkpt lat="42.85006" lon="0.92299">
        <ele>1061.395</ele>
        <time>2021-03-13T09:06:42Z</time>
      </trkpt>
      <trkpt lat="42.85007" lon="0.92299">
        <ele>1063.126</ele>
        <time>2021-03-13T09:06:44Z</time>
      </trkpt>
      <trkpt lat="42.85008" lon="0.92298">
        <ele>1064.18</ele>
        <time>2021-03-13T09:06:46Z</time>
      </trkpt>
      <trkpt lat="42.85009" lon="0.92297">
        <ele>1064.972</ele>
        <time>2021-03-13T09:06:48Z</time>
      </trkpt>
      <trkpt lat="42.85009" lon="0.92297">
        <ele>1066.528</ele>
        <time>2021-03-13T09:06:50Z</time>
      </trkpt>
      <trkpt lat="42.85008" lon="0.92296">
        <ele>1067.011</ele>
        <time>2021-03-13T09:06:52Z</time>
      </trkpt>
      <trkpt lat="42.85008" lon="0.92296">
        <ele>1067.229</ele>
        <time>2021-03-13T09:06:54Z</time>
      </trkpt>
      <trkpt lat="42.85009" lon="0.92295">
        <ele>1068.888</ele>
        <time>2021-03-13T09:06:56Z</time>
      </trkpt>
      <trkpt lat="42.85008" lon="0.92293">
        <ele>1069.55</ele>
        <time>2021-03-13T09:06:58Z</time>
      </trkpt>
      <trkpt lat="42.85007" lon="0.92292">
        <ele>1069.838</ele>
        <time>2021-03-13T09:07:00Z</time>
      </trkpt>
      <trkpt lat="42.85006" lon="0.92291">
        <ele>1071.121</ele>
        <time>2021-03-13T09:07:02Z</time>
      </trkpt>
      <trkpt lat="42.85006" lon="0.9229">
        <ele>1072.155</ele>
        <time>2021-03-13T09:07:04Z</time>
      </trkpt>
      <trkpt lat="42.85005" lon="0.92289">
        <ele>1072.889</ele>
        <time>2021-03-13T09:07:06Z</time>
      </trkpt>
      <trkpt lat="42.85004" lon="0.92287">
        <ele>1073.282</ele>
        <time>2021-03-13T09:07:08Z</time>
      </trkpt>
      <trkpt lat="42.85004" lon="0.92286">
        <ele>1073.981</ele>
        <time>2021-03-13T09:07:10Z</time>
      </trkpt>
      <trkpt lat="42.85003" lon="0.92284">
        <ele>1073.408</ele>
        <time>2021-03-13T09:07:12Z</time>
      </trkpt>
      <trkpt lat="42.85003" lon="0.92282">
        <ele>1074.688</ele>
        <time>2021-03-13T09:07:14Z</time>
      </trkpt>
      <trkpt lat="42.85003" lon="0.9228">
        <ele>1074.966</ele>
        <time>2021-03-13T09:07:16Z</time>
      </trkpt>
      <trkpt lat="42.85002" lon="0.92277">
        <ele>1074.812</ele>
        <time>2021-03-13T09:07:18Z</time>
      </trkpt>
      <trkpt lat="42.85002" lon="0.92275">
        <ele>1074.818</ele>
        <time>2021-03-13T09:07:20Z</time>
      </trkpt>
      <trkpt lat="42.85002" lon="0.92274">
        <ele>1074.906</ele>
        <time>2021-03-13T09:07:22Z</time>
      </trkpt>
      <trkpt lat="42.85004" lon="0.92272">
        <ele>1074.965</ele>
        <time>2021-03-13T09:07:24Z</time>
      </trkpt>
      <trkpt lat="42.85003" lon="0.92269">
        <ele>1076.644</ele>
        <time>2021-03-13T09:07:26Z</time>
      </trkpt>
      <trkpt lat="42.85002" lon="0.92268">
        <ele>1078.713</ele>
        <time>2021-03-13T09:07:28Z</time>
      </trkpt>
      <trkpt lat="42.85001" lon="0.92267">
        <ele>1079.17</ele>
        <time>2021-03-13T09:07:30Z</time>
      </trkpt>
      <trkpt lat="42.85001" lon="0.92267">
        <ele>1078.848</ele>
        <time>2021-03-13T09:07:32Z</time>
      </trkpt>
      <trkpt lat="42.85002" lon="0.92265">
        <ele>1078.889</ele>
        <time>2021-03-13T09:07:34Z</time>
      </trkpt>
      <trkpt lat="42.85002" lon="0.92264">
        <ele>1078.854</ele>
        <time>2021-03-13T09:07:36Z</time>
      </trkpt>
      <trkpt lat="42.85001" lon="0.92263">
        <ele>1078.343</ele>
        <time>2021-03-13T09:07:38Z</time>
      </trkpt>
      <trkpt lat="42.85001" lon="0.92262">
        <ele>1076.862</ele>
        <time>2021-03-13T09:07:40Z</time>
      </trkpt>
      <trkpt lat="42.85002" lon="0.92259">
        <ele>1076.326</ele>
        <time>2021-03-13T09:07:42Z</time>
      </trkpt>
      <trkpt lat="42.85002" lon="0.92259">
        <ele>1076.779</ele>
        <time>2021-03-13T09:07:44Z</time>
      </trkpt>
      <trkpt lat="42.85003" lon="0.9226">
        <ele>1076.622</ele>
        <time>2021-03-13T09:07:46Z</time>
      </trkpt>
      <trkpt lat="42.85003" lon="0.9226">
        <ele>1076.907</ele>
        <time>2021-03-13T09:07:48Z</time>
      </trkpt>
      <trkpt lat="42.85003" lon="0.9226">
        <ele>1076.915</ele>
        <time>2021-03-13T09:07:50Z</time>
      </trkpt>
      <trkpt lat="42.85003" lon="0.92261">
        <ele>1076.91</ele>
        <time>2021-03-13T09:07:52Z</time>
      </trkpt>
      <trkpt lat="42.85003" lon="0.92261">
        <ele>1076.902</ele>
        <time>2021-03-13T09:07:54Z</time>
      </trkpt>
      <trkpt lat="42.85003" lon="0.92261">
        <ele>1076.9</ele>
        <time>2021-03-13T09:07:56Z</time>
      </trkpt>
      <trkpt lat="42.85003" lon="0.92261">
        <ele>1076.901</ele>
        <time>2021-03-13T09:07:58Z</time>
      </trkpt>
      <trkpt lat="42.85003" lon="0.92261">
        <ele>1076.891</ele>
        <time>2021-03-13T09:08:00Z</time>
      </trkpt>
      <trkpt lat="42.85003" lon="0.92261">
        <ele>1076.893</ele>
        <time>2021-03-13T09:08:02Z</time>
      </trkpt>
      <trkpt lat="42.85003" lon="0.9226">
        <ele>1077.346</ele>
        <time>2021-03-13T09:08:04Z</time>
      </trkpt>
      <trkpt lat="42.85003" lon="0.9226">
        <ele>1077.353</ele>
        <time>2021-03-13T09:08:06Z</time>
      </trkpt>
      <trkpt lat="42.85003" lon="0.9226">
        <ele>1077.351</ele>
        <time>2021-03-13T09:08:08Z</time>
      </trkpt>
      <trkpt lat="42.85003" lon="0.9226">
        <ele>1077.349</ele>
        <time>2021-03-13T09:08:10Z</time>
      </trkpt>
      <trkpt lat="42.85003" lon="0.9226">
        <ele>1077.347</ele>
        <time>2021-03-13T09:08:12Z</time>
      </trkpt>
      <trkpt lat="42.85003" lon="0.9226">
        <ele>1077.335</ele>
        <time>2021-03-13T09:08:14Z</time>
      </trkpt>
      <trkpt lat="42.85003" lon="0.9226">
        <ele>1077.646</ele>
        <time>2021-03-13T09:08:16Z</time>
      </trkpt>
      <trkpt lat="42.85003" lon="0.9226">
        <ele>1077.631</ele>
        <time>2021-03-13T09:08:18Z</time>
      </trkpt>
      <trkpt lat="42.85003" lon="0.9226">
        <ele>1077.594</ele>
        <time>2021-03-13T09:08:20Z</time>
      </trkpt>
      <trkpt lat="42.85003" lon="0.9226">
        <ele>1077.88</ele>
        <time>2021-03-13T09:08:22Z</time>
      </trkpt>
      <trkpt lat="42.85003" lon="0.92259">
        <ele>1078.274</ele>
        <time>2021-03-13T09:08:24Z</time>
      </trkpt>
      <trkpt lat="42.85003" lon="0.9226">
        <ele>1078.586</ele>
        <time>2021-03-13T09:08:26Z</time>
      </trkpt>
      <trkpt lat="42.85003" lon="0.9226">
        <ele>1078.094</ele>
        <time>2021-03-13T09:08:28Z</time>
      </trkpt>
      <trkpt lat="42.85003" lon="0.9226">
        <ele>1078.307</ele>
        <time>2021-03-13T09:08:30Z</time>
      </trkpt>
      <trkpt lat="42.85003" lon="0.9226">
        <ele>1078.301</ele>
        <time>2021-03-13T09:08:32Z</time>
      </trkpt>
      <trkpt lat="42.85003" lon="0.9226">
        <ele>1078.299</ele>
        <time>2021-03-13T09:08:34Z</time>
      </trkpt>
      <trkpt lat="42.85003" lon="0.9226">
        <ele>1078.313</ele>
        <time>2021-03-13T09:08:36Z</time>
      </trkpt>
      <trkpt lat="42.85003" lon="0.9226">
        <ele>1078.322</ele>
        <time>2021-03-13T09:08:38Z</time>
      </trkpt>
      <trkpt lat="42.85003" lon="0.9226">
        <ele>1078.321</ele>
        <time>2021-03-13T09:08:40Z</time>
      </trkpt>
      <trkpt lat="42.85003" lon="0.9226">
        <ele>1078.319</ele>
        <time>2021-03-13T09:08:42Z</time>
      </trkpt>
      <trkpt lat="42.85003" lon="0.9226">
        <ele>1078.332</ele>
        <time>2021-03-13T09:08:44Z</time>
      </trkpt>
      <trkpt lat="42.85003" lon="0.9226">
        <ele>1078.333</ele>
        <time>2021-03-13T09:08:46Z</time>
      </trkpt>
      <trkpt lat="42.85003" lon="0.9226">
        <ele>1078.336</ele>
        <time>2021-03-13T09:08:48Z</time>
      </trkpt>
      <trkpt lat="42.85003" lon="0.9226">
        <ele>1078.343</ele>
        <time>2021-03-13T09:08:50Z</time>
      </trkpt>
      <trkpt lat="42.85003" lon="0.9226">
        <ele>1078.336</ele>
        <time>2021-03-13T09:08:52Z</time>
      </trkpt>
      <trkpt lat="42.85003" lon="0.9226">
        <ele>1078.295</ele>
        <time>2021-03-13T09:08:54Z</time>
      </trkpt>
      <trkpt lat="42.85003" lon="0.9226">
        <ele>1078.313</ele>
        <time>2021-03-13T09:08:56Z</time>
      </trkpt>
      <trkpt lat="42.85003" lon="0.9226">
        <ele>1078.334</ele>
        <time>2021-03-13T09:08:58Z</time>
      </trkpt>
      <trkpt lat="42.85004" lon="0.92259">
        <ele>1077.843</ele>
        <time>2021-03-13T09:09:00Z</time>
      </trkpt>
      <trkpt lat="42.85003" lon="0.92259">
        <ele>1078.051</ele>
        <time>2021-03-13T09:09:02Z</time>
      </trkpt>
      <trkpt lat="42.85003" lon="0.92259">
        <ele>1078.475</ele>
        <time>2021-03-13T09:09:04Z</time>
      </trkpt>
      <trkpt lat="42.85003" lon="0.92259">
        <ele>1078.479</ele>
        <time>2021-03-13T09:09:06Z</time>
      </trkpt>
      <trkpt lat="42.85003" lon="0.92259">
        <ele>1078.481</ele>
        <time>2021-03-13T09:09:08Z</time>
      </trkpt>
      <trkpt lat="42.85003" lon="0.92259">
        <ele>1078.485</ele>
        <time>2021-03-13T09:09:10Z</time>
      </trkpt>
      <trkpt lat="42.85003" lon="0.92259">
        <ele>1078.486</ele>
        <time>2021-03-13T09:09:12Z</time>
      </trkpt>
      <trkpt lat="42.85003" lon="0.92259">
        <ele>1078.489</ele>
        <time>2021-03-13T09:09:14Z</time>
      </trkpt>
      <trkpt lat="42.85003" lon="0.92259">
        <ele>1078.495</ele>
        <time>2021-03-13T09:09:16Z</time>
      </trkpt>
      <trkpt lat="42.85003" lon="0.92259">
        <ele>1078.5</ele>
        <time>2021-03-13T09:09:18Z</time>
      </trkpt>
      <trkpt lat="42.85003" lon="0.92259">
        <ele>1078.502</ele>
        <time>2021-03-13T09:09:20Z</time>
      </trkpt>
      <trkpt lat="42.85003" lon="0.92259">
        <ele>1078.491</ele>
        <time>2021-03-13T09:09:22Z</time>
      </trkpt>
      <trkpt lat="42.85004" lon="0.92257">
        <ele>1079.082</ele>
        <time>2021-03-13T09:09:24Z</time>
      </trkpt>
      <trkpt lat="42.85004" lon="0.92256">
        <ele>1078.259</ele>
        <time>2021-03-13T09:09:26Z</time>
      </trkpt>
      <trkpt lat="42.85003" lon="0.92255">
        <ele>1078.059</ele>
        <time>2021-03-13T09:09:28Z</time>
      </trkpt>
      <trkpt lat="42.85004" lon="0.92253">
        <ele>1077.712</ele>
        <time>2021-03-13T09:09:30Z</time>
      </trkpt>
      <trkpt lat="42.85004" lon="0.92251">
        <ele>1078.644</ele>
        <time>2021-03-13T09:09:32Z</time>
      </trkpt>
      <trkpt lat="42.85004" lon="0.92249">
        <ele>1078.337</ele>
        <time>2021-03-13T09:09:34Z</time>
      </trkpt>
      <trkpt lat="42.85003" lon="0.92246">
        <ele>1078.676</ele>
        <time>2021-03-13T09:09:36Z</time>
      </trkpt>
      <trkpt lat="42.85003" lon="0.92245">
        <ele>1078.381</ele>
        <time>2021-03-13T09:09:38Z</time>
      </trkpt>
      <trkpt lat="42.85002" lon="0.92244">
        <ele>1078.096</ele>
        <time>2021-03-13T09:09:40Z</time>
      </trkpt>
      <trkpt lat="42.85002" lon="0.92243">
        <ele>1077.954</ele>
        <time>2021-03-13T09:09:42Z</time>
      </trkpt>
      <trkpt lat="42.85001" lon="0.92241">
        <ele>1077.293</ele>
        <time>2021-03-13T09:09:44Z</time>
      </trkpt>
      <trkpt lat="42.85002" lon="0.92239">
        <ele>1078.267</ele>
        <time>2021-03-13T09:09:46Z</time>
      </trkpt>
      <trkpt lat="42.85002" lon="0.92236">
        <ele>1078.405</ele>
        <time>2021-03-13T09:09:48Z</time>
      </trkpt>
      <trkpt lat="42.85003" lon="0.92234">
        <ele>1079.612</ele>
        <time>2021-03-13T09:09:50Z</time>
      </trkpt>
      <trkpt lat="42.85004" lon="0.92232">
        <ele>1079.695</ele>
        <time>2021-03-13T09:09:52Z</time>
      </trkpt>
      <trkpt lat="42.85004" lon="0.9223">
        <ele>1080.985</ele>
        <time>2021-03-13T09:09:54Z</time>
      </trkpt>
      <trkpt lat="42.85004" lon="0.92228">
        <ele>1081.369</ele>
        <time>2021-03-13T09:09:56Z</time>
      </trkpt>
      <trkpt lat="42.85004" lon="0.92227">
        <ele>1081.347</ele>
        <time>2021-03-13T09:09:58Z</time>
      </trkpt>
      <trkpt lat="42.85005" lon="0.92225">
        <ele>1081.398</ele>
        <time>2021-03-13T09:10:00Z</time>
      </trkpt>
      <trkpt lat="42.85004" lon="0.92223">
        <ele>1080.549</ele>
        <time>2021-03-13T09:10:02Z</time>
      </trkpt>
      <trkpt lat="42.85004" lon="0.92221">
        <ele>1081.041</ele>
        <time>2021-03-13T09:10:04Z</time>
      </trkpt>
      <trkpt lat="42.85004" lon="0.9222">
        <ele>1082.97</ele>
        <time>2021-03-13T09:10:06Z</time>
      </trkpt>
      <trkpt lat="42.85003" lon="0.92218">
        <ele>1084.211</ele>
        <time>2021-03-13T09:10:08Z</time>
      </trkpt>
      <trkpt lat="42.85001" lon="0.92217">
        <ele>1085.363</ele>
        <time>2021-03-13T09:10:10Z</time>
      </trkpt>
      <trkpt lat="42.85001" lon="0.92216">
        <ele>1086.772</ele>
        <time>2021-03-13T09:10:12Z</time>
      </trkpt>
      <trkpt lat="42.85" lon="0.92215">
        <ele>1087.073</ele>
        <time>2021-03-13T09:10:14Z</time>
      </trkpt>
      <trkpt lat="42.85" lon="0.92213">
        <ele>1087.878</ele>
        <time>2021-03-13T09:10:16Z</time>
      </trkpt>
      <trkpt lat="42.84999" lon="0.92211">
        <ele>1088.668</ele>
        <time>2021-03-13T09:10:18Z</time>
      </trkpt>
      <trkpt lat="42.84999" lon="0.9221">
        <ele>1089.285</ele>
        <time>2021-03-13T09:10:20Z</time>
      </trkpt>
      <trkpt lat="42.85" lon="0.92208">
        <ele>1089.731</ele>
        <time>2021-03-13T09:10:22Z</time>
      </trkpt>
      <trkpt lat="42.84999" lon="0.92208">
        <ele>1089.664</ele>
        <time>2021-03-13T09:10:24Z</time>
      </trkpt>
      <trkpt lat="42.84999" lon="0.92207">
        <ele>1089.719</ele>
        <time>2021-03-13T09:10:26Z</time>
      </trkpt>
      <trkpt lat="42.84999" lon="0.92206">
        <ele>1089.555</ele>
        <time>2021-03-13T09:10:28Z</time>
      </trkpt>
      <trkpt lat="42.84999" lon="0.92204">
        <ele>1089.194</ele>
        <time>2021-03-13T09:10:30Z</time>
      </trkpt>
      <trkpt lat="42.85" lon="0.92203">
        <ele>1091.46</ele>
        <time>2021-03-13T09:10:32Z</time>
      </trkpt>
      <trkpt lat="42.85001" lon="0.92201">
        <ele>1093.055</ele>
        <time>2021-03-13T09:10:34Z</time>
      </trkpt>
      <trkpt lat="42.85002" lon="0.922">
        <ele>1092.261</ele>
        <time>2021-03-13T09:10:36Z</time>
      </trkpt>
      <trkpt lat="42.85002" lon="0.922">
        <ele>1092.023</ele>
        <time>2021-03-13T09:10:38Z</time>
      </trkpt>
      <trkpt lat="42.85003" lon="0.92199">
        <ele>1093.581</ele>
        <time>2021-03-13T09:10:40Z</time>
      </trkpt>
      <trkpt lat="42.85003" lon="0.92198">
        <ele>1093.17</ele>
        <time>2021-03-13T09:10:42Z</time>
      </trkpt>
      <trkpt lat="42.85003" lon="0.92197">
        <ele>1094.363</ele>
        <time>2021-03-13T09:10:44Z</time>
      </trkpt>
      <trkpt lat="42.85002" lon="0.92195">
        <ele>1094.117</ele>
        <time>2021-03-13T09:10:46Z</time>
      </trkpt>
      <trkpt lat="42.85002" lon="0.92195">
        <ele>1093.924</ele>
        <time>2021-03-13T09:10:48Z</time>
      </trkpt>
      <trkpt lat="42.85001" lon="0.92193">
        <ele>1093.269</ele>
        <time>2021-03-13T09:10:50Z</time>
      </trkpt>
      <trkpt lat="42.85001" lon="0.92192">
        <ele>1094.707</ele>
        <time>2021-03-13T09:10:52Z</time>
      </trkpt>
      <trkpt lat="42.85001" lon="0.92191">
        <ele>1094.566</ele>
        <time>2021-03-13T09:10:54Z</time>
      </trkpt>
      <trkpt lat="42.85" lon="0.92191">
        <ele>1094.746</ele>
        <time>2021-03-13T09:10:56Z</time>
      </trkpt>
      <trkpt lat="42.84999" lon="0.92189">
        <ele>1094.856</ele>
        <time>2021-03-13T09:10:58Z</time>
      </trkpt>
      <trkpt lat="42.84998" lon="0.92188">
        <ele>1095.152</ele>
        <time>2021-03-13T09:11:00Z</time>
      </trkpt>
      <trkpt lat="42.84997" lon="0.92187">
        <ele>1095.708</ele>
        <time>2021-03-13T09:11:02Z</time>
      </trkpt>
      <trkpt lat="42.84997" lon="0.92186">
        <ele>1096.152</ele>
        <time>2021-03-13T09:11:04Z</time>
      </trkpt>
      <trkpt lat="42.84996" lon="0.92183">
        <ele>1095.912</ele>
        <time>2021-03-13T09:11:06Z</time>
      </trkpt>
      <trkpt lat="42.84996" lon="0.92182">
        <ele>1096.224</ele>
        <time>2021-03-13T09:11:08Z</time>
      </trkpt>
      <trkpt lat="42.84996" lon="0.92181">
        <ele>1098.088</ele>
        <time>2021-03-13T09:11:10Z</time>
      </trkpt>
      <trkpt lat="42.84997" lon="0.92179">
        <ele>1099.436</ele>
        <time>2021-03-13T09:11:12Z</time>
      </trkpt>
      <trkpt lat="42.84996" lon="0.92178">
        <ele>1099.396</ele>
        <time>2021-03-13T09:11:14Z</time>
      </trkpt>
      <trkpt lat="42.84995" lon="0.92178">
        <ele>1101.198</ele>
        <time>2021-03-13T09:11:16Z</time>
      </trkpt>
      <trkpt lat="42.84995" lon="0.92178">
        <ele>1100.489</ele>
        <time>2021-03-13T09:11:18Z</time>
      </trkpt>
      <trkpt lat="42.84994" lon="0.92177">
        <ele>1101.515</ele>
        <time>2021-03-13T09:11:20Z</time>
      </trkpt>
      <trkpt lat="42.84993" lon="0.92177">
        <ele>1101.892</ele>
        <time>2021-03-13T09:11:22Z</time>
      </trkpt>
      <trkpt lat="42.84991" lon="0.92176">
        <ele>1101.553</ele>
        <time>2021-03-13T09:11:24Z</time>
      </trkpt>
      <trkpt lat="42.84991" lon="0.92175">
        <ele>1102.306</ele>
        <time>2021-03-13T09:11:26Z</time>
      </trkpt>
      <trkpt lat="42.8499" lon="0.92174">
        <ele>1102.258</ele>
        <time>2021-03-13T09:11:28Z</time>
      </trkpt>
      <trkpt lat="42.84989" lon="0.92173">
        <ele>1102.867</ele>
        <time>2021-03-13T09:11:30Z</time>
      </trkpt>
      <trkpt lat="42.84989" lon="0.92173">
        <ele>1104.381</ele>
        <time>2021-03-13T09:11:32Z</time>
      </trkpt>
      <trkpt lat="42.84989" lon="0.92172">
        <ele>1105.613</ele>
        <time>2021-03-13T09:11:34Z</time>
      </trkpt>
      <trkpt lat="42.84988" lon="0.92171">
        <ele>1106.762</ele>
        <time>2021-03-13T09:11:36Z</time>
      </trkpt>
      <trkpt lat="42.84988" lon="0.92169">
        <ele>1106.012</ele>
        <time>2021-03-13T09:11:38Z</time>
      </trkpt>
      <trkpt lat="42.84988" lon="0.92167">
        <ele>1106.224</ele>
        <time>2021-03-13T09:11:41Z</time>
      </trkpt>
      <trkpt lat="42.84988" lon="0.92166">
        <ele>1105.711</ele>
        <time>2021-03-13T09:11:43Z</time>
      </trkpt>
      <trkpt lat="42.84988" lon="0.92165">
        <ele>1105.065</ele>
        <time>2021-03-13T09:11:45Z</time>
      </trkpt>
      <trkpt lat="42.84988" lon="0.92163">
        <ele>1105.402</ele>
        <time>2021-03-13T09:11:47Z</time>
      </trkpt>
      <trkpt lat="42.84987" lon="0.92162">
        <ele>1105.624</ele>
        <time>2021-03-13T09:11:49Z</time>
      </trkpt>
      <trkpt lat="42.84988" lon="0.92161">
        <ele>1109.179</ele>
        <time>2021-03-13T09:11:51Z</time>
      </trkpt>
      <trkpt lat="42.84989" lon="0.92159">
        <ele>1108.937</ele>
        <time>2021-03-13T09:11:53Z</time>
      </trkpt>
      <trkpt lat="42.84989" lon="0.92157">
        <ele>1107.526</ele>
        <time>2021-03-13T09:11:55Z</time>
      </trkpt>
      <trkpt lat="42.84989" lon="0.92156">
        <ele>1107.087</ele>
        <time>2021-03-13T09:11:57Z</time>
      </trkpt>
      <trkpt lat="42.84989" lon="0.92155">
        <ele>1107.349</ele>
        <time>2021-03-13T09:11:59Z</time>
      </trkpt>
      <trkpt lat="42.84989" lon="0.92153">
        <ele>1107.66</ele>
        <time>2021-03-13T09:12:01Z</time>
      </trkpt>
      <trkpt lat="42.84989" lon="0.92152">
        <ele>1106.876</ele>
        <time>2021-03-13T09:12:03Z</time>
      </trkpt>
      <trkpt lat="42.84989" lon="0.92151">
        <ele>1106.748</ele>
        <time>2021-03-13T09:12:05Z</time>
      </trkpt>
      <trkpt lat="42.84989" lon="0.9215">
        <ele>1107.561</ele>
        <time>2021-03-13T09:12:07Z</time>
      </trkpt>
      <trkpt lat="42.84989" lon="0.92149">
        <ele>1108.19</ele>
        <time>2021-03-13T09:12:09Z</time>
      </trkpt>
      <trkpt lat="42.84989" lon="0.92148">
        <ele>1110.207</ele>
        <time>2021-03-13T09:12:11Z</time>
      </trkpt>
      <trkpt lat="42.84987" lon="0.92148">
        <ele>1110.294</ele>
        <time>2021-03-13T09:12:13Z</time>
      </trkpt>
      <trkpt lat="42.84986" lon="0.92148">
        <ele>1109.913</ele>
        <time>2021-03-13T09:12:15Z</time>
      </trkpt>
      <trkpt lat="42.84985" lon="0.92147">
        <ele>1109.866</ele>
        <time>2021-03-13T09:12:17Z</time>
      </trkpt>
      <trkpt lat="42.84985" lon="0.92146">
        <ele>1110.052</ele>
        <time>2021-03-13T09:12:19Z</time>
      </trkpt>
      <trkpt lat="42.84985" lon="0.92144">
        <ele>1111.603</ele>
        <time>2021-03-13T09:12:21Z</time>
      </trkpt>
      <trkpt lat="42.84985" lon="0.92143">
        <ele>1111.963</ele>
        <time>2021-03-13T09:12:23Z</time>
      </trkpt>
      <trkpt lat="42.84984" lon="0.92142">
        <ele>1111.988</ele>
        <time>2021-03-13T09:12:25Z</time>
      </trkpt>
      <trkpt lat="42.84984" lon="0.92141">
        <ele>1112.064</ele>
        <time>2021-03-13T09:12:26Z</time>
      </trkpt>
      <trkpt lat="42.84983" lon="0.92139">
        <ele>1111.998</ele>
        <time>2021-03-13T09:12:29Z</time>
      </trkpt>
      <trkpt lat="42.84983" lon="0.92137">
        <ele>1112.563</ele>
        <time>2021-03-13T09:12:31Z</time>
      </trkpt>
      <trkpt lat="42.84983" lon="0.92136">
        <ele>1112.76</ele>
        <time>2021-03-13T09:12:33Z</time>
      </trkpt>
      <trkpt lat="42.84984" lon="0.92134">
        <ele>1112.969</ele>
        <time>2021-03-13T09:12:35Z</time>
      </trkpt>
      <trkpt lat="42.84985" lon="0.92133">
        <ele>1113.243</ele>
        <time>2021-03-13T09:12:37Z</time>
      </trkpt>
      <trkpt lat="42.84986" lon="0.92132">
        <ele>1114.718</ele>
        <time>2021-03-13T09:12:39Z</time>
      </trkpt>
      <trkpt lat="42.84987" lon="0.92131">
        <ele>1115.928</ele>
        <time>2021-03-13T09:12:41Z</time>
      </trkpt>
      <trkpt lat="42.84986" lon="0.92129">
        <ele>1115.347</ele>
        <time>2021-03-13T09:12:43Z</time>
      </trkpt>
      <trkpt lat="42.84985" lon="0.92128">
        <ele>1115.518</ele>
        <time>2021-03-13T09:12:45Z</time>
      </trkpt>
      <trkpt lat="42.84984" lon="0.92126">
        <ele>1114.816</ele>
        <time>2021-03-13T09:12:47Z</time>
      </trkpt>
      <trkpt lat="42.84985" lon="0.92124">
        <ele>1115.607</ele>
        <time>2021-03-13T09:12:49Z</time>
      </trkpt>
      <trkpt lat="42.84986" lon="0.92123">
        <ele>1117.107</ele>
        <time>2021-03-13T09:12:51Z</time>
      </trkpt>
      <trkpt lat="42.84988" lon="0.92122">
        <ele>1117.208</ele>
        <time>2021-03-13T09:12:53Z</time>
      </trkpt>
      <trkpt lat="42.84988" lon="0.92121">
        <ele>1116.77</ele>
        <time>2021-03-13T09:12:55Z</time>
      </trkpt>
      <trkpt lat="42.8499" lon="0.9212">
        <ele>1117.255</ele>
        <time>2021-03-13T09:12:57Z</time>
      </trkpt>
      <trkpt lat="42.84991" lon="0.9212">
        <ele>1117.249</ele>
        <time>2021-03-13T09:12:59Z</time>
      </trkpt>
      <trkpt lat="42.84992" lon="0.92119">
        <ele>1119.38</ele>
        <time>2021-03-13T09:13:01Z</time>
      </trkpt>
      <trkpt lat="42.84993" lon="0.92118">
        <ele>1119.936</ele>
        <time>2021-03-13T09:13:03Z</time>
      </trkpt>
      <trkpt lat="42.84993" lon="0.92116">
        <ele>1121.025</ele>
        <time>2021-03-13T09:13:05Z</time>
      </trkpt>
      <trkpt lat="42.84991" lon="0.92114">
        <ele>1121.553</ele>
        <time>2021-03-13T09:13:07Z</time>
      </trkpt>
      <trkpt lat="42.84991" lon="0.92112">
        <ele>1122.412</ele>
        <time>2021-03-13T09:13:09Z</time>
      </trkpt>
      <trkpt lat="42.8499" lon="0.9211">
        <ele>1123.078</ele>
        <time>2021-03-13T09:13:11Z</time>
      </trkpt>
      <trkpt lat="42.84989" lon="0.92108">
        <ele>1122.839</ele>
        <time>2021-03-13T09:13:13Z</time>
      </trkpt>
      <trkpt lat="42.84988" lon="0.92105">
        <ele>1123.04</ele>
        <time>2021-03-13T09:13:15Z</time>
      </trkpt>
      <trkpt lat="42.84988" lon="0.92103">
        <ele>1123.071</ele>
        <time>2021-03-13T09:13:17Z</time>
      </trkpt>
      <trkpt lat="42.84988" lon="0.92101">
        <ele>1125.225</ele>
        <time>2021-03-13T09:13:19Z</time>
      </trkpt>
      <trkpt lat="42.84987" lon="0.921">
        <ele>1123.857</ele>
        <time>2021-03-13T09:13:21Z</time>
      </trkpt>
      <trkpt lat="42.84987" lon="0.92098">
        <ele>1125.672</ele>
        <time>2021-03-13T09:13:23Z</time>
      </trkpt>
      <trkpt lat="42.84987" lon="0.92097">
        <ele>1124.478</ele>
        <time>2021-03-13T09:13:25Z</time>
      </trkpt>
      <trkpt lat="42.84987" lon="0.92095">
        <ele>1124.206</ele>
        <time>2021-03-13T09:13:27Z</time>
      </trkpt>
      <trkpt lat="42.84987" lon="0.92093">
        <ele>1124.127</ele>
        <time>2021-03-13T09:13:29Z</time>
      </trkpt>
      <trkpt lat="42.84987" lon="0.9209">
        <ele>1124.495</ele>
        <time>2021-03-13T09:13:31Z</time>
      </trkpt>
      <trkpt lat="42.84987" lon="0.92089">
        <ele>1124.279</ele>
        <time>2021-03-13T09:13:33Z</time>
      </trkpt>
      <trkpt lat="42.84987" lon="0.92087">
        <ele>1123.351</ele>
        <time>2021-03-13T09:13:35Z</time>
      </trkpt>
      <trkpt lat="42.84987" lon="0.92086">
        <ele>1124.07</ele>
        <time>2021-03-13T09:13:37Z</time>
      </trkpt>
      <trkpt lat="42.84987" lon="0.92084">
        <ele>1124.918</ele>
        <time>2021-03-13T09:13:39Z</time>
      </trkpt>
      <trkpt lat="42.84987" lon="0.92083">
        <ele>1124.953</ele>
        <time>2021-03-13T09:13:41Z</time>
      </trkpt>
      <trkpt lat="42.84986" lon="0.92081">
        <ele>1124.65</ele>
        <time>2021-03-13T09:13:43Z</time>
      </trkpt>
      <trkpt lat="42.84986" lon="0.9208">
        <ele>1125.065</ele>
        <time>2021-03-13T09:13:45Z</time>
      </trkpt>
      <trkpt lat="42.84986" lon="0.92078">
        <ele>1125.467</ele>
        <time>2021-03-13T09:13:47Z</time>
      </trkpt>
      <trkpt lat="42.84986" lon="0.92077">
        <ele>1125.868</ele>
        <time>2021-03-13T09:13:49Z</time>
      </trkpt>
      <trkpt lat="42.84985" lon="0.92076">
        <ele>1126.166</ele>
        <time>2021-03-13T09:13:51Z</time>
      </trkpt>
      <trkpt lat="42.84985" lon="0.92074">
        <ele>1126.607</ele>
        <time>2021-03-13T09:13:53Z</time>
      </trkpt>
      <trkpt lat="42.84985" lon="0.92072">
        <ele>1126.849</ele>
        <time>2021-03-13T09:13:55Z</time>
      </trkpt>
      <trkpt lat="42.84985" lon="0.92071">
        <ele>1127.126</ele>
        <time>2021-03-13T09:13:57Z</time>
      </trkpt>
      <trkpt lat="42.84985" lon="0.92069">
        <ele>1127.602</ele>
        <time>2021-03-13T09:13:59Z</time>
      </trkpt>
      <trkpt lat="42.84985" lon="0.92067">
        <ele>1126.927</ele>
        <time>2021-03-13T09:14:01Z</time>
      </trkpt>
      <trkpt lat="42.84984" lon="0.92066">
        <ele>1125.591</ele>
        <time>2021-03-13T09:14:03Z</time>
      </trkpt>
      <trkpt lat="42.84984" lon="0.92064">
        <ele>1125.512</ele>
        <time>2021-03-13T09:14:05Z</time>
      </trkpt>
      <trkpt lat="42.84983" lon="0.92063">
        <ele>1126.421</ele>
        <time>2021-03-13T09:14:07Z</time>
      </trkpt>
      <trkpt lat="42.84984" lon="0.92061">
        <ele>1127.967</ele>
        <time>2021-03-13T09:14:09Z</time>
      </trkpt>
      <trkpt lat="42.84984" lon="0.92059">
        <ele>1127.838</ele>
        <time>2021-03-13T09:14:11Z</time>
      </trkpt>
      <trkpt lat="42.84984" lon="0.92058">
        <ele>1128.651</ele>
        <time>2021-03-13T09:14:13Z</time>
      </trkpt>
      <trkpt lat="42.84984" lon="0.92056">
        <ele>1129.332</ele>
        <time>2021-03-13T09:14:15Z</time>
      </trkpt>
      <trkpt lat="42.84984" lon="0.92055">
        <ele>1129.668</ele>
        <time>2021-03-13T09:14:17Z</time>
      </trkpt>
      <trkpt lat="42.84984" lon="0.92053">
        <ele>1129.967</ele>
        <time>2021-03-13T09:14:19Z</time>
      </trkpt>
      <trkpt lat="42.84984" lon="0.92052">
        <ele>1130.811</ele>
        <time>2021-03-13T09:14:21Z</time>
      </trkpt>
      <trkpt lat="42.84984" lon="0.9205">
        <ele>1131.48</ele>
        <time>2021-03-13T09:14:23Z</time>
      </trkpt>
      <trkpt lat="42.84985" lon="0.92048">
        <ele>1132.073</ele>
        <time>2021-03-13T09:14:25Z</time>
      </trkpt>
      <trkpt lat="42.84985" lon="0.92047">
        <ele>1131.52</ele>
        <time>2021-03-13T09:14:27Z</time>
      </trkpt>
      <trkpt lat="42.84985" lon="0.92045">
        <ele>1132.416</ele>
        <time>2021-03-13T09:14:29Z</time>
      </trkpt>
      <trkpt lat="42.84986" lon="0.92044">
        <ele>1133.466</ele>
        <time>2021-03-13T09:14:31Z</time>
      </trkpt>
      <trkpt lat="42.84986" lon="0.92043">
        <ele>1133.53</ele>
        <time>2021-03-13T09:14:33Z</time>
      </trkpt>
      <trkpt lat="42.84986" lon="0.92041">
        <ele>1133.743</ele>
        <time>2021-03-13T09:14:35Z</time>
      </trkpt>
      <trkpt lat="42.84986" lon="0.9204">
        <ele>1134.87</ele>
        <time>2021-03-13T09:14:37Z</time>
      </trkpt>
      <trkpt lat="42.84985" lon="0.92039">
        <ele>1134.626</ele>
        <time>2021-03-13T09:14:39Z</time>
      </trkpt>
      <trkpt lat="42.84985" lon="0.92038">
        <ele>1134.483</ele>
        <time>2021-03-13T09:14:41Z</time>
      </trkpt>
      <trkpt lat="42.84984" lon="0.92036">
        <ele>1134.484</ele>
        <time>2021-03-13T09:14:43Z</time>
      </trkpt>
      <trkpt lat="42.84984" lon="0.92035">
        <ele>1134.691</ele>
        <time>2021-03-13T09:14:45Z</time>
      </trkpt>
      <trkpt lat="42.84984" lon="0.92034">
        <ele>1135.003</ele>
        <time>2021-03-13T09:14:47Z</time>
      </trkpt>
      <trkpt lat="42.84984" lon="0.92032">
        <ele>1135.134</ele>
        <time>2021-03-13T09:14:49Z</time>
      </trkpt>
      <trkpt lat="42.84983" lon="0.92031">
        <ele>1134.851</ele>
        <time>2021-03-13T09:14:51Z</time>
      </trkpt>
      <trkpt lat="42.84983" lon="0.92031">
        <ele>1135.551</ele>
        <time>2021-03-13T09:14:53Z</time>
      </trkpt>
      <trkpt lat="42.84983" lon="0.92029">
        <ele>1134.808</ele>
        <time>2021-03-13T09:14:55Z</time>
      </trkpt>
      <trkpt lat="42.84982" lon="0.92028">
        <ele>1134.91</ele>
        <time>2021-03-13T09:14:57Z</time>
      </trkpt>
      <trkpt lat="42.84982" lon="0.92028">
        <ele>1136.026</ele>
        <time>2021-03-13T09:14:59Z</time>
      </trkpt>
      <trkpt lat="42.84982" lon="0.92027">
        <ele>1134.711</ele>
        <time>2021-03-13T09:15:01Z</time>
      </trkpt>
      <trkpt lat="42.84982" lon="0.92026">
        <ele>1135.878</ele>
        <time>2021-03-13T09:15:03Z</time>
      </trkpt>
      <trkpt lat="42.84981" lon="0.92024">
        <ele>1135.883</ele>
        <time>2021-03-13T09:15:05Z</time>
      </trkpt>
      <trkpt lat="42.8498" lon="0.92023">
        <ele>1136.317</ele>
        <time>2021-03-13T09:15:07Z</time>
      </trkpt>
      <trkpt lat="42.84979" lon="0.92022">
        <ele>1137.056</ele>
        <time>2021-03-13T09:15:09Z</time>
      </trkpt>
      <trkpt lat="42.84979" lon="0.92021">
        <ele>1137.359</ele>
        <time>2021-03-13T09:15:11Z</time>
      </trkpt>
      <trkpt lat="42.84979" lon="0.92019">
        <ele>1138.346</ele>
        <time>2021-03-13T09:15:13Z</time>
      </trkpt>
      <trkpt lat="42.84979" lon="0.92018">
        <ele>1137.573</ele>
        <time>2021-03-13T09:15:15Z</time>
      </trkpt>
      <trkpt lat="42.84978" lon="0.92017">
        <ele>1137.9</ele>
        <time>2021-03-13T09:15:17Z</time>
      </trkpt>
      <trkpt lat="42.84978" lon="0.92016">
        <ele>1138.364</ele>
        <time>2021-03-13T09:15:19Z</time>
      </trkpt>
      <trkpt lat="42.84978" lon="0.92014">
        <ele>1138.806</ele>
        <time>2021-03-13T09:15:21Z</time>
      </trkpt>
      <trkpt lat="42.84977" lon="0.92013">
        <ele>1137.693</ele>
        <time>2021-03-13T09:15:23Z</time>
      </trkpt>
      <trkpt lat="42.84977" lon="0.92011">
        <ele>1138.075</ele>
        <time>2021-03-13T09:15:25Z</time>
      </trkpt>
      <trkpt lat="42.84977" lon="0.9201">
        <ele>1138.984</ele>
        <time>2021-03-13T09:15:27Z</time>
      </trkpt>
      <trkpt lat="42.84977" lon="0.92009">
        <ele>1141.055</ele>
        <time>2021-03-13T09:15:29Z</time>
      </trkpt>
      <trkpt lat="42.84977" lon="0.92008">
        <ele>1141.025</ele>
        <time>2021-03-13T09:15:31Z</time>
      </trkpt>
      <trkpt lat="42.84977" lon="0.92006">
        <ele>1139.512</ele>
        <time>2021-03-13T09:15:33Z</time>
      </trkpt>
      <trkpt lat="42.84977" lon="0.92004">
        <ele>1140.631</ele>
        <time>2021-03-13T09:15:35Z</time>
      </trkpt>
      <trkpt lat="42.84976" lon="0.92003">
        <ele>1142.078</ele>
        <time>2021-03-13T09:15:37Z</time>
      </trkpt>
      <trkpt lat="42.84975" lon="0.92002">
        <ele>1142.322</ele>
        <time>2021-03-13T09:15:39Z</time>
      </trkpt>
      <trkpt lat="42.84975" lon="0.92001">
        <ele>1142.968</ele>
        <time>2021-03-13T09:15:41Z</time>
      </trkpt>
      <trkpt lat="42.84975" lon="0.92">
        <ele>1144.09</ele>
        <time>2021-03-13T09:15:43Z</time>
      </trkpt>
      <trkpt lat="42.84974" lon="0.91999">
        <ele>1145.301</ele>
        <time>2021-03-13T09:15:45Z</time>
      </trkpt>
      <trkpt lat="42.84974" lon="0.91998">
        <ele>1145.707</ele>
        <time>2021-03-13T09:15:47Z</time>
      </trkpt>
      <trkpt lat="42.84974" lon="0.91997">
        <ele>1146.743</ele>
        <time>2021-03-13T09:15:49Z</time>
      </trkpt>
      <trkpt lat="42.84973" lon="0.91996">
        <ele>1148.259</ele>
        <time>2021-03-13T09:15:51Z</time>
      </trkpt>
      <trkpt lat="42.84973" lon="0.91995">
        <ele>1146.634</ele>
        <time>2021-03-13T09:15:53Z</time>
      </trkpt>
      <trkpt lat="42.84972" lon="0.91994">
        <ele>1147.939</ele>
        <time>2021-03-13T09:15:55Z</time>
      </trkpt>
      <trkpt lat="42.84972" lon="0.91992">
        <ele>1150.377</ele>
        <time>2021-03-13T09:15:57Z</time>
      </trkpt>
      <trkpt lat="42.84971" lon="0.91991">
        <ele>1148.414</ele>
        <time>2021-03-13T09:15:59Z</time>
      </trkpt>
      <trkpt lat="42.8497" lon="0.91989">
        <ele>1149.236</ele>
        <time>2021-03-13T09:16:01Z</time>
      </trkpt>
      <trkpt lat="42.8497" lon="0.91988">
        <ele>1149.512</ele>
        <time>2021-03-13T09:16:03Z</time>
      </trkpt>
      <trkpt lat="42.84969" lon="0.91986">
        <ele>1149.562</ele>
        <time>2021-03-13T09:16:05Z</time>
      </trkpt>
      <trkpt lat="42.84968" lon="0.91985">
        <ele>1150.183</ele>
        <time>2021-03-13T09:16:07Z</time>
      </trkpt>
      <trkpt lat="42.84968" lon="0.91983">
        <ele>1151.155</ele>
        <time>2021-03-13T09:16:09Z</time>
      </trkpt>
      <trkpt lat="42.84968" lon="0.91982">
        <ele>1150.016</ele>
        <time>2021-03-13T09:16:11Z</time>
      </trkpt>
      <trkpt lat="42.84967" lon="0.9198">
        <ele>1149.92</ele>
        <time>2021-03-13T09:16:13Z</time>
      </trkpt>
      <trkpt lat="42.84967" lon="0.91979">
        <ele>1149.722</ele>
        <time>2021-03-13T09:16:15Z</time>
      </trkpt>
      <trkpt lat="42.84966" lon="0.91978">
        <ele>1150.082</ele>
        <time>2021-03-13T09:16:17Z</time>
      </trkpt>
      <trkpt lat="42.84965" lon="0.91977">
        <ele>1149.924</ele>
        <time>2021-03-13T09:16:19Z</time>
      </trkpt>
      <trkpt lat="42.84965" lon="0.91975">
        <ele>1150.899</ele>
        <time>2021-03-13T09:16:21Z</time>
      </trkpt>
      <trkpt lat="42.84965" lon="0.91974">
        <ele>1151.76</ele>
        <time>2021-03-13T09:16:23Z</time>
      </trkpt>
      <trkpt lat="42.84965" lon="0.91972">
        <ele>1153.122</ele>
        <time>2021-03-13T09:16:25Z</time>
      </trkpt>
      <trkpt lat="42.84965" lon="0.91972">
        <ele>1153.281</ele>
        <time>2021-03-13T09:16:27Z</time>
      </trkpt>
      <trkpt lat="42.84965" lon="0.91972">
        <ele>1153.285</ele>
        <time>2021-03-13T09:16:29Z</time>
      </trkpt>
      <trkpt lat="42.84965" lon="0.91972">
        <ele>1153.282</ele>
        <time>2021-03-13T09:16:31Z</time>
      </trkpt>
      <trkpt lat="42.84965" lon="0.91972">
        <ele>1153.266</ele>
        <time>2021-03-13T09:16:33Z</time>
      </trkpt>
      <trkpt lat="42.84965" lon="0.91971">
        <ele>1153.648</ele>
        <time>2021-03-13T09:16:35Z</time>
      </trkpt>
      <trkpt lat="42.84964" lon="0.91971">
        <ele>1153.683</ele>
        <time>2021-03-13T09:16:37Z</time>
      </trkpt>
      <trkpt lat="42.84964" lon="0.91971">
        <ele>1154.023</ele>
        <time>2021-03-13T09:16:39Z</time>
      </trkpt>
      <trkpt lat="42.84964" lon="0.91971">
        <ele>1154.034</ele>
        <time>2021-03-13T09:16:41Z</time>
      </trkpt>
      <trkpt lat="42.84964" lon="0.91971">
        <ele>1154.041</ele>
        <time>2021-03-13T09:16:43Z</time>
      </trkpt>
      <trkpt lat="42.84964" lon="0.91971">
        <ele>1154.048</ele>
        <time>2021-03-13T09:16:45Z</time>
      </trkpt>
      <trkpt lat="42.84964" lon="0.91971">
        <ele>1154.061</ele>
        <time>2021-03-13T09:16:47Z</time>
      </trkpt>
      <trkpt lat="42.84964" lon="0.91971">
        <ele>1154.076</ele>
        <time>2021-03-13T09:16:49Z</time>
      </trkpt>
      <trkpt lat="42.84964" lon="0.91971">
        <ele>1154.085</ele>
        <time>2021-03-13T09:16:51Z</time>
      </trkpt>
      <trkpt lat="42.84964" lon="0.91971">
        <ele>1154.09</ele>
        <time>2021-03-13T09:16:53Z</time>
      </trkpt>
      <trkpt lat="42.84963" lon="0.9197">
        <ele>1153.981</ele>
        <time>2021-03-13T09:16:55Z</time>
      </trkpt>
      <trkpt lat="42.84963" lon="0.91969">
        <ele>1154.732</ele>
        <time>2021-03-13T09:16:57Z</time>
      </trkpt>
      <trkpt lat="42.84963" lon="0.91969">
        <ele>1154.699</ele>
        <time>2021-03-13T09:16:59Z</time>
      </trkpt>
      <trkpt lat="42.84963" lon="0.91969">
        <ele>1154.973</ele>
        <time>2021-03-13T09:17:01Z</time>
      </trkpt>
      <trkpt lat="42.84963" lon="0.91967">
        <ele>1155.178</ele>
        <time>2021-03-13T09:17:03Z</time>
      </trkpt>
      <trkpt lat="42.84963" lon="0.91967">
        <ele>1155.274</ele>
        <time>2021-03-13T09:17:05Z</time>
      </trkpt>
      <trkpt lat="42.84963" lon="0.91967">
        <ele>1156.425</ele>
        <time>2021-03-13T09:17:07Z</time>
      </trkpt>
      <trkpt lat="42.84964" lon="0.91967">
        <ele>1156.512</ele>
        <time>2021-03-13T09:17:09Z</time>
      </trkpt>
      <trkpt lat="42.84964" lon="0.91967">
        <ele>1156.508</ele>
        <time>2021-03-13T09:17:11Z</time>
      </trkpt>
      <trkpt lat="42.84964" lon="0.91967">
        <ele>1156.499</ele>
        <time>2021-03-13T09:17:13Z</time>
      </trkpt>
      <trkpt lat="42.84964" lon="0.91967">
        <ele>1156.508</ele>
        <time>2021-03-13T09:17:15Z</time>
      </trkpt>
      <trkpt lat="42.84964" lon="0.91967">
        <ele>1156.5</ele>
        <time>2021-03-13T09:17:17Z</time>
      </trkpt>
      <trkpt lat="42.84964" lon="0.91967">
        <ele>1156.497</ele>
        <time>2021-03-13T09:17:19Z</time>
      </trkpt>
      <trkpt lat="42.84964" lon="0.91967">
        <ele>1156.495</ele>
        <time>2021-03-13T09:17:21Z</time>
      </trkpt>
      <trkpt lat="42.84964" lon="0.91967">
        <ele>1156.494</ele>
        <time>2021-03-13T09:17:23Z</time>
      </trkpt>
      <trkpt lat="42.84964" lon="0.91967">
        <ele>1156.49</ele>
        <time>2021-03-13T09:17:25Z</time>
      </trkpt>
      <trkpt lat="42.84964" lon="0.91968">
        <ele>1156.881</ele>
        <time>2021-03-13T09:17:27Z</time>
      </trkpt>
      <trkpt lat="42.84964" lon="0.91968">
        <ele>1156.89</ele>
        <time>2021-03-13T09:17:29Z</time>
      </trkpt>
      <trkpt lat="42.84964" lon="0.91968">
        <ele>1156.893</ele>
        <time>2021-03-13T09:17:31Z</time>
      </trkpt>
      <trkpt lat="42.84964" lon="0.91968">
        <ele>1156.89</ele>
        <time>2021-03-13T09:17:33Z</time>
      </trkpt>
      <trkpt lat="42.84964" lon="0.91968">
        <ele>1156.899</ele>
        <time>2021-03-13T09:17:35Z</time>
      </trkpt>
      <trkpt lat="42.84964" lon="0.91968">
        <ele>1156.909</ele>
        <time>2021-03-13T09:17:37Z</time>
      </trkpt>
      <trkpt lat="42.84964" lon="0.91968">
        <ele>1156.91</ele>
        <time>2021-03-13T09:17:39Z</time>
      </trkpt>
      <trkpt lat="42.84964" lon="0.91968">
        <ele>1156.91</ele>
        <time>2021-03-13T09:17:41Z</time>
      </trkpt>
      <trkpt lat="42.84964" lon="0.91968">
        <ele>1156.91</ele>
        <time>2021-03-13T09:17:43Z</time>
      </trkpt>
      <trkpt lat="42.84964" lon="0.91968">
        <ele>1156.983</ele>
        <time>2021-03-13T09:17:45Z</time>
      </trkpt>
      <trkpt lat="42.84964" lon="0.91968">
        <ele>1157.242</ele>
        <time>2021-03-13T09:17:47Z</time>
      </trkpt>
      <trkpt lat="42.84964" lon="0.91968">
        <ele>1157.461</ele>
        <time>2021-03-13T09:17:49Z</time>
      </trkpt>
      <trkpt lat="42.84964" lon="0.91966">
        <ele>1157.214</ele>
        <time>2021-03-13T09:17:51Z</time>
      </trkpt>
      <trkpt lat="42.84964" lon="0.91965">
        <ele>1157.182</ele>
        <time>2021-03-13T09:17:53Z</time>
      </trkpt>
      <trkpt lat="42.84964" lon="0.91965">
        <ele>1157.176</ele>
        <time>2021-03-13T09:17:55Z</time>
      </trkpt>
      <trkpt lat="42.84964" lon="0.91965">
        <ele>1157.158</ele>
        <time>2021-03-13T09:17:57Z</time>
      </trkpt>
      <trkpt lat="42.84964" lon="0.91965">
        <ele>1157.123</ele>
        <time>2021-03-13T09:17:59Z</time>
      </trkpt>
      <trkpt lat="42.84964" lon="0.91965">
        <ele>1157.093</ele>
        <time>2021-03-13T09:18:01Z</time>
      </trkpt>
      <trkpt lat="42.84963" lon="0.91965">
        <ele>1157.097</ele>
        <time>2021-03-13T09:18:03Z</time>
      </trkpt>
      <trkpt lat="42.84963" lon="0.91965">
        <ele>1157.072</ele>
        <time>2021-03-13T09:18:05Z</time>
      </trkpt>
      <trkpt lat="42.84963" lon="0.91965">
        <ele>1157.034</ele>
        <time>2021-03-13T09:18:07Z</time>
      </trkpt>
      <trkpt lat="42.84964" lon="0.91965">
        <ele>1156.608</ele>
        <time>2021-03-13T09:18:09Z</time>
      </trkpt>
      <trkpt lat="42.84963" lon="0.91966">
        <ele>1156.133</ele>
        <time>2021-03-13T09:18:11Z</time>
      </trkpt>
      <trkpt lat="42.84963" lon="0.91966">
        <ele>1156.96</ele>
        <time>2021-03-13T09:18:13Z</time>
      </trkpt>
      <trkpt lat="42.84962" lon="0.91966">
        <ele>1156.944</ele>
        <time>2021-03-13T09:18:15Z</time>
      </trkpt>
      <trkpt lat="42.84962" lon="0.91966">
        <ele>1156.946</ele>
        <time>2021-03-13T09:18:17Z</time>
      </trkpt>
      <trkpt lat="42.84962" lon="0.91966">
        <ele>1156.935</ele>
        <time>2021-03-13T09:18:19Z</time>
      </trkpt>
      <trkpt lat="42.84962" lon="0.91966">
        <ele>1156.929</ele>
        <time>2021-03-13T09:18:21Z</time>
      </trkpt>
      <trkpt lat="42.84962" lon="0.91966">
        <ele>1156.925</ele>
        <time>2021-03-13T09:18:23Z</time>
      </trkpt>
      <trkpt lat="42.84962" lon="0.91966">
        <ele>1156.913</ele>
        <time>2021-03-13T09:18:25Z</time>
      </trkpt>
      <trkpt lat="42.84962" lon="0.91966">
        <ele>1156.903</ele>
        <time>2021-03-13T09:18:27Z</time>
      </trkpt>
      <trkpt lat="42.84962" lon="0.91966">
        <ele>1156.897</ele>
        <time>2021-03-13T09:18:29Z</time>
      </trkpt>
      <trkpt lat="42.84962" lon="0.91966">
        <ele>1156.885</ele>
        <time>2021-03-13T09:18:31Z</time>
      </trkpt>
      <trkpt lat="42.84962" lon="0.91966">
        <ele>1156.866</ele>
        <time>2021-03-13T09:18:33Z</time>
      </trkpt>
      <trkpt lat="42.84962" lon="0.91965">
        <ele>1157.389</ele>
        <time>2021-03-13T09:18:35Z</time>
      </trkpt>
      <trkpt lat="42.84963" lon="0.91965">
        <ele>1157.018</ele>
        <time>2021-03-13T09:18:37Z</time>
      </trkpt>
      <trkpt lat="42.84967" lon="0.91966">
        <ele>1156.24</ele>
        <time>2021-03-13T09:18:39Z</time>
      </trkpt>
      <trkpt lat="42.84971" lon="0.91966">
        <ele>1156.778</ele>
        <time>2021-03-13T09:18:41Z</time>
      </trkpt>
      <trkpt lat="42.84969" lon="0.91965">
        <ele>1156.691</ele>
        <time>2021-03-13T09:18:43Z</time>
      </trkpt>
      <trkpt lat="42.84968" lon="0.91966">
        <ele>1157.13</ele>
        <time>2021-03-13T09:18:45Z</time>
      </trkpt>
      <trkpt lat="42.84968" lon="0.91966">
        <ele>1157.138</ele>
        <time>2021-03-13T09:18:47Z</time>
      </trkpt>
      <trkpt lat="42.84968" lon="0.91966">
        <ele>1157.157</ele>
        <time>2021-03-13T09:18:49Z</time>
      </trkpt>
      <trkpt lat="42.84968" lon="0.91966">
        <ele>1157.159</ele>
        <time>2021-03-13T09:18:51Z</time>
      </trkpt>
      <trkpt lat="42.84968" lon="0.91966">
        <ele>1158.129</ele>
        <time>2021-03-13T09:18:53Z</time>
      </trkpt>
      <trkpt lat="42.84968" lon="0.91967">
        <ele>1158.204</ele>
        <time>2021-03-13T09:18:55Z</time>
      </trkpt>
      <trkpt lat="42.84968" lon="0.91967">
        <ele>1158.205</ele>
        <time>2021-03-13T09:18:57Z</time>
      </trkpt>
      <trkpt lat="42.84968" lon="0.91967">
        <ele>1158.217</ele>
        <time>2021-03-13T09:18:59Z</time>
      </trkpt>
      <trkpt lat="42.84968" lon="0.91967">
        <ele>1158.225</ele>
        <time>2021-03-13T09:19:01Z</time>
      </trkpt>
      <trkpt lat="42.84968" lon="0.91967">
        <ele>1158.226</ele>
        <time>2021-03-13T09:19:03Z</time>
      </trkpt>
      <trkpt lat="42.84968" lon="0.91967">
        <ele>1158.226</ele>
        <time>2021-03-13T09:19:05Z</time>
      </trkpt>
      <trkpt lat="42.84968" lon="0.91967">
        <ele>1158.217</ele>
        <time>2021-03-13T09:19:07Z</time>
      </trkpt>
      <trkpt lat="42.84968" lon="0.91967">
        <ele>1158.216</ele>
        <time>2021-03-13T09:19:09Z</time>
      </trkpt>
      <trkpt lat="42.84968" lon="0.91967">
        <ele>1158.204</ele>
        <time>2021-03-13T09:19:11Z</time>
      </trkpt>
      <trkpt lat="42.84968" lon="0.91967">
        <ele>1158.184</ele>
        <time>2021-03-13T09:19:13Z</time>
      </trkpt>
      <trkpt lat="42.84968" lon="0.91967">
        <ele>1158.182</ele>
        <time>2021-03-13T09:19:15Z</time>
      </trkpt>
      <trkpt lat="42.84968" lon="0.91967">
        <ele>1158.193</ele>
        <time>2021-03-13T09:19:17Z</time>
      </trkpt>
      <trkpt lat="42.84968" lon="0.91967">
        <ele>1158.197</ele>
        <time>2021-03-13T09:19:19Z</time>
      </trkpt>
      <trkpt lat="42.84968" lon="0.91967">
        <ele>1158.2</ele>
        <time>2021-03-13T09:19:21Z</time>
      </trkpt>
      <trkpt lat="42.84968" lon="0.91967">
        <ele>1158.21</ele>
        <time>2021-03-13T09:19:23Z</time>
      </trkpt>
      <trkpt lat="42.84968" lon="0.91966">
        <ele>1158.681</ele>
        <time>2021-03-13T09:19:25Z</time>
      </trkpt>
      <trkpt lat="42.84968" lon="0.91966">
        <ele>1158.357</ele>
        <time>2021-03-13T09:19:27Z</time>
      </trkpt>
      <trkpt lat="42.84968" lon="0.91966">
        <ele>1158.225</ele>
        <time>2021-03-13T09:19:29Z</time>
      </trkpt>
      <trkpt lat="42.84967" lon="0.91965">
        <ele>1157.508</ele>
        <time>2021-03-13T09:19:31Z</time>
      </trkpt>
      <trkpt lat="42.84967" lon="0.91962">
        <ele>1156.847</ele>
        <time>2021-03-13T09:19:33Z</time>
      </trkpt>
      <trkpt lat="42.84966" lon="0.9196">
        <ele>1157.773</ele>
        <time>2021-03-13T09:19:35Z</time>
      </trkpt>
      <trkpt lat="42.84965" lon="0.91959">
        <ele>1157.818</ele>
        <time>2021-03-13T09:19:37Z</time>
      </trkpt>
      <trkpt lat="42.84964" lon="0.91959">
        <ele>1157.353</ele>
        <time>2021-03-13T09:19:39Z</time>
      </trkpt>
      <trkpt lat="42.84963" lon="0.91958">
        <ele>1156.697</ele>
        <time>2021-03-13T09:19:41Z</time>
      </trkpt>
      <trkpt lat="42.84962" lon="0.91956">
        <ele>1156.982</ele>
        <time>2021-03-13T09:19:43Z</time>
      </trkpt>
      <trkpt lat="42.84962" lon="0.91955">
        <ele>1157.12</ele>
        <time>2021-03-13T09:19:45Z</time>
      </trkpt>
      <trkpt lat="42.84961" lon="0.91954">
        <ele>1156.009</ele>
        <time>2021-03-13T09:19:47Z</time>
      </trkpt>
      <trkpt lat="42.8496" lon="0.91952">
        <ele>1155.029</ele>
        <time>2021-03-13T09:19:49Z</time>
      </trkpt>
      <trkpt lat="42.84959" lon="0.9195">
        <ele>1155.715</ele>
        <time>2021-03-13T09:19:51Z</time>
      </trkpt>
      <trkpt lat="42.84958" lon="0.9195">
        <ele>1155.282</ele>
        <time>2021-03-13T09:19:53Z</time>
      </trkpt>
      <trkpt lat="42.84957" lon="0.91949">
        <ele>1156.799</ele>
        <time>2021-03-13T09:19:55Z</time>
      </trkpt>
      <trkpt lat="42.84956" lon="0.91948">
        <ele>1158.211</ele>
        <time>2021-03-13T09:19:57Z</time>
      </trkpt>
      <trkpt lat="42.84955" lon="0.91947">
        <ele>1157.841</ele>
        <time>2021-03-13T09:19:59Z</time>
      </trkpt>
      <trkpt lat="42.84954" lon="0.91946">
        <ele>1156.809</ele>
        <time>2021-03-13T09:20:01Z</time>
      </trkpt>
      <trkpt lat="42.84953" lon="0.91945">
        <ele>1157.675</ele>
        <time>2021-03-13T09:20:03Z</time>
      </trkpt>
      <trkpt lat="42.84952" lon="0.91943">
        <ele>1156.513</ele>
        <time>2021-03-13T09:20:05Z</time>
      </trkpt>
      <trkpt lat="42.84951" lon="0.91941">
        <ele>1155.674</ele>
        <time>2021-03-13T09:20:07Z</time>
      </trkpt>
      <trkpt lat="42.8495" lon="0.91939">
        <ele>1155.971</ele>
        <time>2021-03-13T09:20:09Z</time>
      </trkpt>
      <trkpt lat="42.8495" lon="0.91937">
        <ele>1157.917</ele>
        <time>2021-03-13T09:20:11Z</time>
      </trkpt>
      <trkpt lat="42.8495" lon="0.91936">
        <ele>1158.667</ele>
        <time>2021-03-13T09:20:13Z</time>
      </trkpt>
      <trkpt lat="42.84949" lon="0.91934">
        <ele>1158.008</ele>
        <time>2021-03-13T09:20:15Z</time>
      </trkpt>
      <trkpt lat="42.84949" lon="0.91932">
        <ele>1159.318</ele>
        <time>2021-03-13T09:20:17Z</time>
      </trkpt>
      <trkpt lat="42.84948" lon="0.9193">
        <ele>1159.75</ele>
        <time>2021-03-13T09:20:19Z</time>
      </trkpt>
      <trkpt lat="42.84947" lon="0.91928">
        <ele>1160.046</ele>
        <time>2021-03-13T09:20:21Z</time>
      </trkpt>
      <trkpt lat="42.84947" lon="0.91926">
        <ele>1160.663</ele>
        <time>2021-03-13T09:20:23Z</time>
      </trkpt>
      <trkpt lat="42.84947" lon="0.91924">
        <ele>1160.732</ele>
        <time>2021-03-13T09:20:25Z</time>
      </trkpt>
      <trkpt lat="42.84946" lon="0.91922">
        <ele>1160.218</ele>
        <time>2021-03-13T09:20:27Z</time>
      </trkpt>
      <trkpt lat="42.84946" lon="0.9192">
        <ele>1160.9</ele>
        <time>2021-03-13T09:20:29Z</time>
      </trkpt>
      <trkpt lat="42.84945" lon="0.91919">
        <ele>1161.737</ele>
        <time>2021-03-13T09:20:31Z</time>
      </trkpt>
      <trkpt lat="42.84944" lon="0.91917">
        <ele>1162.805</ele>
        <time>2021-03-13T09:20:33Z</time>
      </trkpt>
      <trkpt lat="42.84944" lon="0.91915">
        <ele>1164.143</ele>
        <time>2021-03-13T09:20:35Z</time>
      </trkpt>
      <trkpt lat="42.84944" lon="0.91913">
        <ele>1164.272</ele>
        <time>2021-03-13T09:20:37Z</time>
      </trkpt>
      <trkpt lat="42.84943" lon="0.91911">
        <ele>1165.158</ele>
        <time>2021-03-13T09:20:39Z</time>
      </trkpt>
      <trkpt lat="42.84942" lon="0.91909">
        <ele>1165.806</ele>
        <time>2021-03-13T09:20:41Z</time>
      </trkpt>
      <trkpt lat="42.84942" lon="0.91907">
        <ele>1166.133</ele>
        <time>2021-03-13T09:20:43Z</time>
      </trkpt>
      <trkpt lat="42.84941" lon="0.91905">
        <ele>1168.048</ele>
        <time>2021-03-13T09:20:45Z</time>
      </trkpt>
      <trkpt lat="42.84941" lon="0.91903">
        <ele>1168.514</ele>
        <time>2021-03-13T09:20:47Z</time>
      </trkpt>
      <trkpt lat="42.84941" lon="0.91901">
        <ele>1168.284</ele>
        <time>2021-03-13T09:20:49Z</time>
      </trkpt>
      <trkpt lat="42.8494" lon="0.91899">
        <ele>1168.804</ele>
        <time>2021-03-13T09:20:51Z</time>
      </trkpt>
      <trkpt lat="42.8494" lon="0.91898">
        <ele>1169.677</ele>
        <time>2021-03-13T09:20:53Z</time>
      </trkpt>
      <trkpt lat="42.84939" lon="0.91896">
        <ele>1169.094</ele>
        <time>2021-03-13T09:20:55Z</time>
      </trkpt>
      <trkpt lat="42.84939" lon="0.91894">
        <ele>1167.674</ele>
        <time>2021-03-13T09:20:57Z</time>
      </trkpt>
      <trkpt lat="42.84939" lon="0.91892">
        <ele>1166.611</ele>
        <time>2021-03-13T09:20:59Z</time>
      </trkpt>
      <trkpt lat="42.84939" lon="0.91891">
        <ele>1166.578</ele>
        <time>2021-03-13T09:21:01Z</time>
      </trkpt>
      <trkpt lat="42.84939" lon="0.9189">
        <ele>1167.803</ele>
        <time>2021-03-13T09:21:03Z</time>
      </trkpt>
      <trkpt lat="42.84939" lon="0.91889">
        <ele>1168.204</ele>
        <time>2021-03-13T09:21:05Z</time>
      </trkpt>
      <trkpt lat="42.84938" lon="0.91888">
        <ele>1167.945</ele>
        <time>2021-03-13T09:21:07Z</time>
      </trkpt>
      <trkpt lat="42.84937" lon="0.91886">
        <ele>1167.746</ele>
        <time>2021-03-13T09:21:09Z</time>
      </trkpt>
      <trkpt lat="42.84937" lon="0.91884">
        <ele>1167.108</ele>
        <time>2021-03-13T09:21:11Z</time>
      </trkpt>
      <trkpt lat="42.84938" lon="0.91882">
        <ele>1167.812</ele>
        <time>2021-03-13T09:21:13Z</time>
      </trkpt>
      <trkpt lat="42.84938" lon="0.91879">
        <ele>1167.708</ele>
        <time>2021-03-13T09:21:15Z</time>
      </trkpt>
      <trkpt lat="42.84938" lon="0.91878">
        <ele>1167.832</ele>
        <time>2021-03-13T09:21:17Z</time>
      </trkpt>
      <trkpt lat="42.84938" lon="0.91876">
        <ele>1170.209</ele>
        <time>2021-03-13T09:21:19Z</time>
      </trkpt>
      <trkpt lat="42.84938" lon="0.91874">
        <ele>1170.286</ele>
        <time>2021-03-13T09:21:21Z</time>
      </trkpt>
      <trkpt lat="42.84938" lon="0.91872">
        <ele>1170.023</ele>
        <time>2021-03-13T09:21:23Z</time>
      </trkpt>
      <trkpt lat="42.84938" lon="0.91871">
        <ele>1170.808</ele>
        <time>2021-03-13T09:21:25Z</time>
      </trkpt>
      <trkpt lat="42.84937" lon="0.91869">
        <ele>1171.091</ele>
        <time>2021-03-13T09:21:27Z</time>
      </trkpt>
      <trkpt lat="42.84937" lon="0.91868">
        <ele>1171.419</ele>
        <time>2021-03-13T09:21:29Z</time>
      </trkpt>
      <trkpt lat="42.84937" lon="0.91866">
        <ele>1172.658</ele>
        <time>2021-03-13T09:21:31Z</time>
      </trkpt>
      <trkpt lat="42.84937" lon="0.91865">
        <ele>1174.085</ele>
        <time>2021-03-13T09:21:33Z</time>
      </trkpt>
      <trkpt lat="42.84937" lon="0.91863">
        <ele>1174.341</ele>
        <time>2021-03-13T09:21:35Z</time>
      </trkpt>
      <trkpt lat="42.84937" lon="0.91861">
        <ele>1173.925</ele>
        <time>2021-03-13T09:21:37Z</time>
      </trkpt>
      <trkpt lat="42.84937" lon="0.9186">
        <ele>1174.645</ele>
        <time>2021-03-13T09:21:39Z</time>
      </trkpt>
      <trkpt lat="42.84937" lon="0.91858">
        <ele>1174.881</ele>
        <time>2021-03-13T09:21:41Z</time>
      </trkpt>
      <trkpt lat="42.84937" lon="0.91856">
        <ele>1173.894</ele>
        <time>2021-03-13T09:21:43Z</time>
      </trkpt>
      <trkpt lat="42.84937" lon="0.91854">
        <ele>1175.076</ele>
        <time>2021-03-13T09:21:45Z</time>
      </trkpt>
      <trkpt lat="42.84937" lon="0.91853">
        <ele>1176.371</ele>
        <time>2021-03-13T09:21:47Z</time>
      </trkpt>
      <trkpt lat="42.84937" lon="0.91851">
        <ele>1176.561</ele>
        <time>2021-03-13T09:21:49Z</time>
      </trkpt>
      <trkpt lat="42.84937" lon="0.91849">
        <ele>1177.959</ele>
        <time>2021-03-13T09:21:51Z</time>
      </trkpt>
      <trkpt lat="42.84937" lon="0.91848">
        <ele>1177.671</ele>
        <time>2021-03-13T09:21:53Z</time>
      </trkpt>
      <trkpt lat="42.84938" lon="0.91847">
        <ele>1179.675</ele>
        <time>2021-03-13T09:21:55Z</time>
      </trkpt>
      <trkpt lat="42.84939" lon="0.91846">
        <ele>1180.507</ele>
        <time>2021-03-13T09:21:57Z</time>
      </trkpt>
      <trkpt lat="42.84939" lon="0.91844">
        <ele>1179.658</ele>
        <time>2021-03-13T09:21:59Z</time>
      </trkpt>
      <trkpt lat="42.84939" lon="0.91843">
        <ele>1180.02</ele>
        <time>2021-03-13T09:22:01Z</time>
      </trkpt>
      <trkpt lat="42.8494" lon="0.91841">
        <ele>1180.345</ele>
        <time>2021-03-13T09:22:03Z</time>
      </trkpt>
      <trkpt lat="42.8494" lon="0.9184">
        <ele>1180.698</ele>
        <time>2021-03-13T09:22:05Z</time>
      </trkpt>
      <trkpt lat="42.8494" lon="0.91838">
        <ele>1180.152</ele>
        <time>2021-03-13T09:22:07Z</time>
      </trkpt>
      <trkpt lat="42.84941" lon="0.91837">
        <ele>1180.726</ele>
        <time>2021-03-13T09:22:09Z</time>
      </trkpt>
      <trkpt lat="42.84942" lon="0.91836">
        <ele>1181.438</ele>
        <time>2021-03-13T09:22:11Z</time>
      </trkpt>
      <trkpt lat="42.84942" lon="0.91835">
        <ele>1182.107</ele>
        <time>2021-03-13T09:22:13Z</time>
      </trkpt>
      <trkpt lat="42.84943" lon="0.91833">
        <ele>1182.806</ele>
        <time>2021-03-13T09:22:15Z</time>
      </trkpt>
      <trkpt lat="42.84944" lon="0.91832">
        <ele>1184.259</ele>
        <time>2021-03-13T09:22:17Z</time>
      </trkpt>
      <trkpt lat="42.84945" lon="0.91831">
        <ele>1184.522</ele>
        <time>2021-03-13T09:22:19Z</time>
      </trkpt>
      <trkpt lat="42.84946" lon="0.9183">
        <ele>1184.701</ele>
        <time>2021-03-13T09:22:21Z</time>
      </trkpt>
      <trkpt lat="42.84947" lon="0.91829">
        <ele>1186.06</ele>
        <time>2021-03-13T09:22:23Z</time>
      </trkpt>
      <trkpt lat="42.84947" lon="0.91828">
        <ele>1186.157</ele>
        <time>2021-03-13T09:22:25Z</time>
      </trkpt>
      <trkpt lat="42.84948" lon="0.91827">
        <ele>1186.309</ele>
        <time>2021-03-13T09:22:27Z</time>
      </trkpt>
      <trkpt lat="42.84948" lon="0.91826">
        <ele>1187.014</ele>
        <time>2021-03-13T09:22:29Z</time>
      </trkpt>
      <trkpt lat="42.84948" lon="0.91824">
        <ele>1186.802</ele>
        <time>2021-03-13T09:22:31Z</time>
      </trkpt>
      <trkpt lat="42.84948" lon="0.91823">
        <ele>1187.022</ele>
        <time>2021-03-13T09:22:33Z</time>
      </trkpt>
      <trkpt lat="42.84948" lon="0.91822">
        <ele>1186.853</ele>
        <time>2021-03-13T09:22:35Z</time>
      </trkpt>
      <trkpt lat="42.84948" lon="0.9182">
        <ele>1187.173</ele>
        <time>2021-03-13T09:22:37Z</time>
      </trkpt>
      <trkpt lat="42.84948" lon="0.91818">
        <ele>1185.078</ele>
        <time>2021-03-13T09:22:39Z</time>
      </trkpt>
      <trkpt lat="42.84948" lon="0.91817">
        <ele>1185.131</ele>
        <time>2021-03-13T09:22:41Z</time>
      </trkpt>
      <trkpt lat="42.84948" lon="0.91815">
        <ele>1184.956</ele>
        <time>2021-03-13T09:22:43Z</time>
      </trkpt>
      <trkpt lat="42.84948" lon="0.91814">
        <ele>1184.745</ele>
        <time>2021-03-13T09:22:45Z</time>
      </trkpt>
      <trkpt lat="42.84948" lon="0.91812">
        <ele>1185.314</ele>
        <time>2021-03-13T09:22:47Z</time>
      </trkpt>
      <trkpt lat="42.84949" lon="0.91811">
        <ele>1188.037</ele>
        <time>2021-03-13T09:22:49Z</time>
      </trkpt>
      <trkpt lat="42.84949" lon="0.9181">
        <ele>1187.886</ele>
        <time>2021-03-13T09:22:51Z</time>
      </trkpt>
      <trkpt lat="42.84949" lon="0.91809">
        <ele>1188.497</ele>
        <time>2021-03-13T09:22:53Z</time>
      </trkpt>
      <trkpt lat="42.84949" lon="0.91808">
        <ele>1188.881</ele>
        <time>2021-03-13T09:22:55Z</time>
      </trkpt>
      <trkpt lat="42.84949" lon="0.91807">
        <ele>1189.216</ele>
        <time>2021-03-13T09:22:57Z</time>
      </trkpt>
      <trkpt lat="42.8495" lon="0.91806">
        <ele>1189.556</ele>
        <time>2021-03-13T09:22:59Z</time>
      </trkpt>
      <trkpt lat="42.8495" lon="0.91804">
        <ele>1188.921</ele>
        <time>2021-03-13T09:23:01Z</time>
      </trkpt>
      <trkpt lat="42.8495" lon="0.91803">
        <ele>1189.558</ele>
        <time>2021-03-13T09:23:03Z</time>
      </trkpt>
      <trkpt lat="42.84951" lon="0.91802">
        <ele>1190.274</ele>
        <time>2021-03-13T09:23:05Z</time>
      </trkpt>
      <trkpt lat="42.84951" lon="0.918">
        <ele>1190.303</ele>
        <time>2021-03-13T09:23:07Z</time>
      </trkpt>
      <trkpt lat="42.84952" lon="0.91799">
        <ele>1190.955</ele>
        <time>2021-03-13T09:23:09Z</time>
      </trkpt>
      <trkpt lat="42.84953" lon="0.91798">
        <ele>1191.662</ele>
        <time>2021-03-13T09:23:11Z</time>
      </trkpt>
      <trkpt lat="42.84953" lon="0.91797">
        <ele>1192.807</ele>
        <time>2021-03-13T09:23:13Z</time>
      </trkpt>
      <trkpt lat="42.84953" lon="0.91796">
        <ele>1192.516</ele>
        <time>2021-03-13T09:23:15Z</time>
      </trkpt>
      <trkpt lat="42.84953" lon="0.91794">
        <ele>1192.829</ele>
        <time>2021-03-13T09:23:17Z</time>
      </trkpt>
      <trkpt lat="42.84953" lon="0.91793">
        <ele>1193.098</ele>
        <time>2021-03-13T09:23:19Z</time>
      </trkpt>
      <trkpt lat="42.84954" lon="0.91792">
        <ele>1193.192</ele>
        <time>2021-03-13T09:23:21Z</time>
      </trkpt>
      <trkpt lat="42.84954" lon="0.91791">
        <ele>1193.922</ele>
        <time>2021-03-13T09:23:23Z</time>
      </trkpt>
      <trkpt lat="42.84954" lon="0.9179">
        <ele>1193.452</ele>
        <time>2021-03-13T09:23:25Z</time>
      </trkpt>
      <trkpt lat="42.84954" lon="0.91788">
        <ele>1192.963</ele>
        <time>2021-03-13T09:23:27Z</time>
      </trkpt>
      <trkpt lat="42.84954" lon="0.91787">
        <ele>1192.718</ele>
        <time>2021-03-13T09:23:29Z</time>
      </trkpt>
      <trkpt lat="42.84954" lon="0.91786">
        <ele>1193.37</ele>
        <time>2021-03-13T09:23:31Z</time>
      </trkpt>
      <trkpt lat="42.84954" lon="0.91785">
        <ele>1193.052</ele>
        <time>2021-03-13T09:23:33Z</time>
      </trkpt>
      <trkpt lat="42.84954" lon="0.91784">
        <ele>1193.574</ele>
        <time>2021-03-13T09:23:35Z</time>
      </trkpt>
      <trkpt lat="42.84954" lon="0.91782">
        <ele>1194.318</ele>
        <time>2021-03-13T09:23:37Z</time>
      </trkpt>
      <trkpt lat="42.84954" lon="0.91782">
        <ele>1193.891</ele>
        <time>2021-03-13T09:23:39Z</time>
      </trkpt>
      <trkpt lat="42.84954" lon="0.9178">
        <ele>1194.009</ele>
        <time>2021-03-13T09:23:41Z</time>
      </trkpt>
      <trkpt lat="42.84954" lon="0.91779">
        <ele>1195.193</ele>
        <time>2021-03-13T09:23:43Z</time>
      </trkpt>
      <trkpt lat="42.84953" lon="0.91778">
        <ele>1195.673</ele>
        <time>2021-03-13T09:23:45Z</time>
      </trkpt>
      <trkpt lat="42.84952" lon="0.91776">
        <ele>1195.32</ele>
        <time>2021-03-13T09:23:47Z</time>
      </trkpt>
      <trkpt lat="42.84952" lon="0.91775">
        <ele>1194.382</ele>
        <time>2021-03-13T09:23:49Z</time>
      </trkpt>
      <trkpt lat="42.84951" lon="0.91774">
        <ele>1194.36</ele>
        <time>2021-03-13T09:23:51Z</time>
      </trkpt>
      <trkpt lat="42.84951" lon="0.91773">
        <ele>1194.996</ele>
        <time>2021-03-13T09:23:53Z</time>
      </trkpt>
      <trkpt lat="42.84951" lon="0.91771">
        <ele>1195.076</ele>
        <time>2021-03-13T09:23:55Z</time>
      </trkpt>
      <trkpt lat="42.84951" lon="0.9177">
        <ele>1195.887</ele>
        <time>2021-03-13T09:23:57Z</time>
      </trkpt>
      <trkpt lat="42.8495" lon="0.91768">
        <ele>1197.277</ele>
        <time>2021-03-13T09:23:59Z</time>
      </trkpt>
      <trkpt lat="42.8495" lon="0.91767">
        <ele>1197.867</ele>
        <time>2021-03-13T09:24:01Z</time>
      </trkpt>
      <trkpt lat="42.8495" lon="0.91765">
        <ele>1198.568</ele>
        <time>2021-03-13T09:24:03Z</time>
      </trkpt>
      <trkpt lat="42.8495" lon="0.91764">
        <ele>1198.722</ele>
        <time>2021-03-13T09:24:05Z</time>
      </trkpt>
      <trkpt lat="42.8495" lon="0.91763">
        <ele>1199.405</ele>
        <time>2021-03-13T09:24:07Z</time>
      </trkpt>
      <trkpt lat="42.84951" lon="0.91762">
        <ele>1200.536</ele>
        <time>2021-03-13T09:24:09Z</time>
      </trkpt>
      <trkpt lat="42.84951" lon="0.91761">
        <ele>1200.189</ele>
        <time>2021-03-13T09:24:11Z</time>
      </trkpt>
      <trkpt lat="42.84951" lon="0.9176">
        <ele>1201.254</ele>
        <time>2021-03-13T09:24:13Z</time>
      </trkpt>
      <trkpt lat="42.84951" lon="0.91759">
        <ele>1202.013</ele>
        <time>2021-03-13T09:24:15Z</time>
      </trkpt>
      <trkpt lat="42.84951" lon="0.91757">
        <ele>1202.612</ele>
        <time>2021-03-13T09:24:17Z</time>
      </trkpt>
      <trkpt lat="42.84952" lon="0.91756">
        <ele>1203.21</ele>
        <time>2021-03-13T09:24:19Z</time>
      </trkpt>
      <trkpt lat="42.84952" lon="0.91754">
        <ele>1204.908</ele>
        <time>2021-03-13T09:24:21Z</time>
      </trkpt>
      <trkpt lat="42.84952" lon="0.91752">
        <ele>1203.965</ele>
        <time>2021-03-13T09:24:23Z</time>
      </trkpt>
      <trkpt lat="42.84952" lon="0.91751">
        <ele>1204.251</ele>
        <time>2021-03-13T09:24:25Z</time>
      </trkpt>
      <trkpt lat="42.84952" lon="0.91748">
        <ele>1204.244</ele>
        <time>2021-03-13T09:24:27Z</time>
      </trkpt>
      <trkpt lat="42.84952" lon="0.91746">
        <ele>1204.619</ele>
        <time>2021-03-13T09:24:29Z</time>
      </trkpt>
      <trkpt lat="42.84952" lon="0.91745">
        <ele>1206.224</ele>
        <time>2021-03-13T09:24:31Z</time>
      </trkpt>
      <trkpt lat="42.84952" lon="0.91743">
        <ele>1206.345</ele>
        <time>2021-03-13T09:24:33Z</time>
      </trkpt>
      <trkpt lat="42.84952" lon="0.91742">
        <ele>1206.987</ele>
        <time>2021-03-13T09:24:35Z</time>
      </trkpt>
      <trkpt lat="42.84952" lon="0.9174">
        <ele>1207.741</ele>
        <time>2021-03-13T09:24:37Z</time>
      </trkpt>
      <trkpt lat="42.84952" lon="0.91738">
        <ele>1207.592</ele>
        <time>2021-03-13T09:24:39Z</time>
      </trkpt>
      <trkpt lat="42.84952" lon="0.91736">
        <ele>1207.608</ele>
        <time>2021-03-13T09:24:41Z</time>
      </trkpt>
      <trkpt lat="42.84952" lon="0.91735">
        <ele>1207.496</ele>
        <time>2021-03-13T09:24:43Z</time>
      </trkpt>
      <trkpt lat="42.84951" lon="0.91734">
        <ele>1210.38</ele>
        <time>2021-03-13T09:24:45Z</time>
      </trkpt>
      <trkpt lat="42.84951" lon="0.91732">
        <ele>1207.528</ele>
        <time>2021-03-13T09:24:47Z</time>
      </trkpt>
      <trkpt lat="42.84952" lon="0.91731">
        <ele>1206.954</ele>
        <time>2021-03-13T09:24:49Z</time>
      </trkpt>
      <trkpt lat="42.84952" lon="0.9173">
        <ele>1208.033</ele>
        <time>2021-03-13T09:24:51Z</time>
      </trkpt>
      <trkpt lat="42.84953" lon="0.91729">
        <ele>1207.988</ele>
        <time>2021-03-13T09:24:53Z</time>
      </trkpt>
      <trkpt lat="42.84954" lon="0.91727">
        <ele>1209.355</ele>
        <time>2021-03-13T09:24:55Z</time>
      </trkpt>
      <trkpt lat="42.84955" lon="0.91726">
        <ele>1209.433</ele>
        <time>2021-03-13T09:24:57Z</time>
      </trkpt>
      <trkpt lat="42.84955" lon="0.91724">
        <ele>1210.096</ele>
        <time>2021-03-13T09:24:59Z</time>
      </trkpt>
      <trkpt lat="42.84956" lon="0.91723">
        <ele>1210.395</ele>
        <time>2021-03-13T09:25:01Z</time>
      </trkpt>
      <trkpt lat="42.84956" lon="0.91721">
        <ele>1211.553</ele>
        <time>2021-03-13T09:25:03Z</time>
      </trkpt>
      <trkpt lat="42.84956" lon="0.9172">
        <ele>1212.346</ele>
        <time>2021-03-13T09:25:05Z</time>
      </trkpt>
      <trkpt lat="42.84957" lon="0.91719">
        <ele>1212.417</ele>
        <time>2021-03-13T09:25:07Z</time>
      </trkpt>
      <trkpt lat="42.84957" lon="0.91718">
        <ele>1212.447</ele>
        <time>2021-03-13T09:25:09Z</time>
      </trkpt>
      <trkpt lat="42.84957" lon="0.91717">
        <ele>1213.627</ele>
        <time>2021-03-13T09:25:11Z</time>
      </trkpt>
      <trkpt lat="42.84958" lon="0.91715">
        <ele>1214.871</ele>
        <time>2021-03-13T09:25:13Z</time>
      </trkpt>
      <trkpt lat="42.84958" lon="0.91714">
        <ele>1214.959</ele>
        <time>2021-03-13T09:25:15Z</time>
      </trkpt>
      <trkpt lat="42.84958" lon="0.91712">
        <ele>1213.279</ele>
        <time>2021-03-13T09:25:17Z</time>
      </trkpt>
      <trkpt lat="42.84958" lon="0.9171">
        <ele>1213.278</ele>
        <time>2021-03-13T09:25:19Z</time>
      </trkpt>
      <trkpt lat="42.84959" lon="0.91709">
        <ele>1212</ele>
        <time>2021-03-13T09:25:21Z</time>
      </trkpt>
      <trkpt lat="42.84959" lon="0.91707">
        <ele>1211.968</ele>
        <time>2021-03-13T09:25:23Z</time>
      </trkpt>
      <trkpt lat="42.8496" lon="0.91706">
        <ele>1213.499</ele>
        <time>2021-03-13T09:25:25Z</time>
      </trkpt>
      <trkpt lat="42.8496" lon="0.91705">
        <ele>1214.232</ele>
        <time>2021-03-13T09:25:27Z</time>
      </trkpt>
      <trkpt lat="42.8496" lon="0.91703">
        <ele>1213.72</ele>
        <time>2021-03-13T09:25:29Z</time>
      </trkpt>
      <trkpt lat="42.84961" lon="0.91701">
        <ele>1213.976</ele>
        <time>2021-03-13T09:25:31Z</time>
      </trkpt>
      <trkpt lat="42.84961" lon="0.917">
        <ele>1214.879</ele>
        <time>2021-03-13T09:25:33Z</time>
      </trkpt>
      <trkpt lat="42.84961" lon="0.91699">
        <ele>1213.233</ele>
        <time>2021-03-13T09:25:35Z</time>
      </trkpt>
      <trkpt lat="42.84961" lon="0.91698">
        <ele>1216.627</ele>
        <time>2021-03-13T09:25:37Z</time>
      </trkpt>
      <trkpt lat="42.84961" lon="0.91697">
        <ele>1216.822</ele>
        <time>2021-03-13T09:25:39Z</time>
      </trkpt>
      <trkpt lat="42.84961" lon="0.91696">
        <ele>1217.929</ele>
        <time>2021-03-13T09:25:41Z</time>
      </trkpt>
      <trkpt lat="42.84961" lon="0.91695">
        <ele>1217.817</ele>
        <time>2021-03-13T09:25:43Z</time>
      </trkpt>
      <trkpt lat="42.84961" lon="0.91694">
        <ele>1218.843</ele>
        <time>2021-03-13T09:25:45Z</time>
      </trkpt>
      <trkpt lat="42.8496" lon="0.91692">
        <ele>1219.609</ele>
        <time>2021-03-13T09:25:47Z</time>
      </trkpt>
      <trkpt lat="42.8496" lon="0.91691">
        <ele>1218.889</ele>
        <time>2021-03-13T09:25:49Z</time>
      </trkpt>
      <trkpt lat="42.84959" lon="0.9169">
        <ele>1218.486</ele>
        <time>2021-03-13T09:25:51Z</time>
      </trkpt>
      <trkpt lat="42.84959" lon="0.9169">
        <ele>1219.522</ele>
        <time>2021-03-13T09:25:53Z</time>
      </trkpt>
      <trkpt lat="42.84958" lon="0.91689">
        <ele>1219.704</ele>
        <time>2021-03-13T09:25:55Z</time>
      </trkpt>
      <trkpt lat="42.84958" lon="0.91688">
        <ele>1220.951</ele>
        <time>2021-03-13T09:25:57Z</time>
      </trkpt>
      <trkpt lat="42.84957" lon="0.91686">
        <ele>1219.741</ele>
        <time>2021-03-13T09:25:59Z</time>
      </trkpt>
      <trkpt lat="42.84957" lon="0.91685">
        <ele>1220.456</ele>
        <time>2021-03-13T09:26:01Z</time>
      </trkpt>
      <trkpt lat="42.84957" lon="0.91683">
        <ele>1220.461</ele>
        <time>2021-03-13T09:26:03Z</time>
      </trkpt>
      <trkpt lat="42.84957" lon="0.91683">
        <ele>1220.978</ele>
        <time>2021-03-13T09:26:05Z</time>
      </trkpt>
      <trkpt lat="42.84957" lon="0.91681">
        <ele>1222.043</ele>
        <time>2021-03-13T09:26:07Z</time>
      </trkpt>
      <trkpt lat="42.84957" lon="0.9168">
        <ele>1222.517</ele>
        <time>2021-03-13T09:26:09Z</time>
      </trkpt>
      <trkpt lat="42.84957" lon="0.91679">
        <ele>1224.33</ele>
        <time>2021-03-13T09:26:11Z</time>
      </trkpt>
      <trkpt lat="42.84957" lon="0.91679">
        <ele>1225.24</ele>
        <time>2021-03-13T09:26:13Z</time>
      </trkpt>
      <trkpt lat="42.84957" lon="0.91678">
        <ele>1225.412</ele>
        <time>2021-03-13T09:26:15Z</time>
      </trkpt>
      <trkpt lat="42.84957" lon="0.91677">
        <ele>1226.035</ele>
        <time>2021-03-13T09:26:17Z</time>
      </trkpt>
      <trkpt lat="42.84957" lon="0.91676">
        <ele>1227.68</ele>
        <time>2021-03-13T09:26:19Z</time>
      </trkpt>
      <trkpt lat="42.84957" lon="0.91675">
        <ele>1227.704</ele>
        <time>2021-03-13T09:26:21Z</time>
      </trkpt>
      <trkpt lat="42.84957" lon="0.91674">
        <ele>1228.441</ele>
        <time>2021-03-13T09:26:23Z</time>
      </trkpt>
      <trkpt lat="42.84956" lon="0.91672">
        <ele>1229.187</ele>
        <time>2021-03-13T09:26:25Z</time>
      </trkpt>
      <trkpt lat="42.84956" lon="0.91671">
        <ele>1229.792</ele>
        <time>2021-03-13T09:26:27Z</time>
      </trkpt>
      <trkpt lat="42.84956" lon="0.91671">
        <ele>1230.566</ele>
        <time>2021-03-13T09:26:29Z</time>
      </trkpt>
      <trkpt lat="42.84956" lon="0.9167">
        <ele>1231.051</ele>
        <time>2021-03-13T09:26:31Z</time>
      </trkpt>
      <trkpt lat="42.84956" lon="0.91669">
        <ele>1231.03</ele>
        <time>2021-03-13T09:26:33Z</time>
      </trkpt>
      <trkpt lat="42.84956" lon="0.91667">
        <ele>1229.915</ele>
        <time>2021-03-13T09:26:35Z</time>
      </trkpt>
      <trkpt lat="42.84956" lon="0.91665">
        <ele>1231.784</ele>
        <time>2021-03-13T09:26:37Z</time>
      </trkpt>
      <trkpt lat="42.84956" lon="0.91664">
        <ele>1231.444</ele>
        <time>2021-03-13T09:26:39Z</time>
      </trkpt>
      <trkpt lat="42.84956" lon="0.91663">
        <ele>1232.836</ele>
        <time>2021-03-13T09:26:41Z</time>
      </trkpt>
      <trkpt lat="42.84956" lon="0.91661">
        <ele>1232.997</ele>
        <time>2021-03-13T09:26:43Z</time>
      </trkpt>
      <trkpt lat="42.84955" lon="0.91659">
        <ele>1232.246</ele>
        <time>2021-03-13T09:26:45Z</time>
      </trkpt>
      <trkpt lat="42.84955" lon="0.91658">
        <ele>1232.887</ele>
        <time>2021-03-13T09:26:48Z</time>
      </trkpt>
      <trkpt lat="42.84955" lon="0.91656">
        <ele>1232.403</ele>
        <time>2021-03-13T09:26:50Z</time>
      </trkpt>
      <trkpt lat="42.84955" lon="0.91655">
        <ele>1231.886</ele>
        <time>2021-03-13T09:26:52Z</time>
      </trkpt>
      <trkpt lat="42.84956" lon="0.91654">
        <ele>1232.736</ele>
        <time>2021-03-13T09:26:54Z</time>
      </trkpt>
      <trkpt lat="42.84956" lon="0.91652">
        <ele>1232.764</ele>
        <time>2021-03-13T09:26:56Z</time>
      </trkpt>
      <trkpt lat="42.84956" lon="0.91651">
        <ele>1233.324</ele>
        <time>2021-03-13T09:26:58Z</time>
      </trkpt>
      <trkpt lat="42.84956" lon="0.91649">
        <ele>1232.282</ele>
        <time>2021-03-13T09:27:00Z</time>
      </trkpt>
      <trkpt lat="42.84956" lon="0.91648">
        <ele>1233.462</ele>
        <time>2021-03-13T09:27:02Z</time>
      </trkpt>
      <trkpt lat="42.84957" lon="0.91646">
        <ele>1233.556</ele>
        <time>2021-03-13T09:27:04Z</time>
      </trkpt>
      <trkpt lat="42.84957" lon="0.91645">
        <ele>1233.475</ele>
        <time>2021-03-13T09:27:06Z</time>
      </trkpt>
      <trkpt lat="42.84957" lon="0.91644">
        <ele>1234.221</ele>
        <time>2021-03-13T09:27:08Z</time>
      </trkpt>
      <trkpt lat="42.84958" lon="0.91643">
        <ele>1234.121</ele>
        <time>2021-03-13T09:27:10Z</time>
      </trkpt>
      <trkpt lat="42.84958" lon="0.91641">
        <ele>1234.624</ele>
        <time>2021-03-13T09:27:12Z</time>
      </trkpt>
      <trkpt lat="42.84957" lon="0.9164">
        <ele>1235.295</ele>
        <time>2021-03-13T09:27:14Z</time>
      </trkpt>
      <trkpt lat="42.84957" lon="0.91639">
        <ele>1235.869</ele>
        <time>2021-03-13T09:27:16Z</time>
      </trkpt>
      <trkpt lat="42.84957" lon="0.91638">
        <ele>1237.377</ele>
        <time>2021-03-13T09:27:18Z</time>
      </trkpt>
      <trkpt lat="42.84957" lon="0.91637">
        <ele>1238.316</ele>
        <time>2021-03-13T09:27:20Z</time>
      </trkpt>
      <trkpt lat="42.84958" lon="0.91635">
        <ele>1238.351</ele>
        <time>2021-03-13T09:27:22Z</time>
      </trkpt>
      <trkpt lat="42.84959" lon="0.91634">
        <ele>1238.679</ele>
        <time>2021-03-13T09:27:24Z</time>
      </trkpt>
      <trkpt lat="42.84959" lon="0.91633">
        <ele>1238.879</ele>
        <time>2021-03-13T09:27:26Z</time>
      </trkpt>
      <trkpt lat="42.8496" lon="0.91631">
        <ele>1239.199</ele>
        <time>2021-03-13T09:27:28Z</time>
      </trkpt>
      <trkpt lat="42.8496" lon="0.9163">
        <ele>1240.575</ele>
        <time>2021-03-13T09:27:30Z</time>
      </trkpt>
      <trkpt lat="42.84961" lon="0.91629">
        <ele>1241.734</ele>
        <time>2021-03-13T09:27:32Z</time>
      </trkpt>
      <trkpt lat="42.84961" lon="0.91628">
        <ele>1243.324</ele>
        <time>2021-03-13T09:27:34Z</time>
      </trkpt>
      <trkpt lat="42.84962" lon="0.91626">
        <ele>1243.91</ele>
        <time>2021-03-13T09:27:36Z</time>
      </trkpt>
      <trkpt lat="42.84962" lon="0.91626">
        <ele>1243.763</ele>
        <time>2021-03-13T09:27:38Z</time>
      </trkpt>
      <trkpt lat="42.84962" lon="0.91625">
        <ele>1243.025</ele>
        <time>2021-03-13T09:27:40Z</time>
      </trkpt>
      <trkpt lat="42.84961" lon="0.91624">
        <ele>1244.263</ele>
        <time>2021-03-13T09:27:42Z</time>
      </trkpt>
      <trkpt lat="42.84961" lon="0.91624">
        <ele>1244.246</ele>
        <time>2021-03-13T09:27:44Z</time>
      </trkpt>
      <trkpt lat="42.84961" lon="0.91624">
        <ele>1244.249</ele>
        <time>2021-03-13T09:27:46Z</time>
      </trkpt>
      <trkpt lat="42.84961" lon="0.91624">
        <ele>1244.246</ele>
        <time>2021-03-13T09:27:48Z</time>
      </trkpt>
      <trkpt lat="42.84961" lon="0.91624">
        <ele>1244.243</ele>
        <time>2021-03-13T09:27:50Z</time>
      </trkpt>
      <trkpt lat="42.84961" lon="0.91624">
        <ele>1243.631</ele>
        <time>2021-03-13T09:27:52Z</time>
      </trkpt>
      <trkpt lat="42.84961" lon="0.91622">
        <ele>1243.361</ele>
        <time>2021-03-13T09:27:54Z</time>
      </trkpt>
      <trkpt lat="42.84961" lon="0.9162">
        <ele>1243.809</ele>
        <time>2021-03-13T09:27:56Z</time>
      </trkpt>
      <trkpt lat="42.84961" lon="0.91618">
        <ele>1242.698</ele>
        <time>2021-03-13T09:27:58Z</time>
      </trkpt>
      <trkpt lat="42.84962" lon="0.91615">
        <ele>1243.136</ele>
        <time>2021-03-13T09:28:00Z</time>
      </trkpt>
      <trkpt lat="42.84962" lon="0.91613">
        <ele>1243.191</ele>
        <time>2021-03-13T09:28:02Z</time>
      </trkpt>
      <trkpt lat="42.84961" lon="0.91611">
        <ele>1242.664</ele>
        <time>2021-03-13T09:28:04Z</time>
      </trkpt>
      <trkpt lat="42.8496" lon="0.91611">
        <ele>1242.629</ele>
        <time>2021-03-13T09:28:06Z</time>
      </trkpt>
      <trkpt lat="42.8496" lon="0.9161">
        <ele>1243.342</ele>
        <time>2021-03-13T09:28:08Z</time>
      </trkpt>
      <trkpt lat="42.84961" lon="0.91608">
        <ele>1243.773</ele>
        <time>2021-03-13T09:28:10Z</time>
      </trkpt>
      <trkpt lat="42.84962" lon="0.91607">
        <ele>1243.562</ele>
        <time>2021-03-13T09:28:12Z</time>
      </trkpt>
      <trkpt lat="42.84961" lon="0.91605">
        <ele>1242.913</ele>
        <time>2021-03-13T09:28:14Z</time>
      </trkpt>
      <trkpt lat="42.84961" lon="0.91602">
        <ele>1242.739</ele>
        <time>2021-03-13T09:28:16Z</time>
      </trkpt>
      <trkpt lat="42.84961" lon="0.91601">
        <ele>1240.261</ele>
        <time>2021-03-13T09:28:18Z</time>
      </trkpt>
      <trkpt lat="42.84961" lon="0.91601">
        <ele>1240.171</ele>
        <time>2021-03-13T09:28:20Z</time>
      </trkpt>
      <trkpt lat="42.84961" lon="0.91599">
        <ele>1240.554</ele>
        <time>2021-03-13T09:28:22Z</time>
      </trkpt>
      <trkpt lat="42.84961" lon="0.91598">
        <ele>1239.388</ele>
        <time>2021-03-13T09:28:24Z</time>
      </trkpt>
      <trkpt lat="42.84961" lon="0.91598">
        <ele>1239.424</ele>
        <time>2021-03-13T09:28:26Z</time>
      </trkpt>
      <trkpt lat="42.84961" lon="0.91598">
        <ele>1239.428</ele>
        <time>2021-03-13T09:28:28Z</time>
      </trkpt>
      <trkpt lat="42.84961" lon="0.91598">
        <ele>1239.436</ele>
        <time>2021-03-13T09:28:30Z</time>
      </trkpt>
      <trkpt lat="42.84961" lon="0.91598">
        <ele>1239.423</ele>
        <time>2021-03-13T09:28:32Z</time>
      </trkpt>
      <trkpt lat="42.84961" lon="0.91598">
        <ele>1239.419</ele>
        <time>2021-03-13T09:28:34Z</time>
      </trkpt>
      <trkpt lat="42.84961" lon="0.91598">
        <ele>1239.437</ele>
        <time>2021-03-13T09:28:36Z</time>
      </trkpt>
      <trkpt lat="42.84961" lon="0.91598">
        <ele>1239.429</ele>
        <time>2021-03-13T09:28:38Z</time>
      </trkpt>
      <trkpt lat="42.84961" lon="0.91598">
        <ele>1239.433</ele>
        <time>2021-03-13T09:28:40Z</time>
      </trkpt>
      <trkpt lat="42.84961" lon="0.91598">
        <ele>1239.433</ele>
        <time>2021-03-13T09:28:42Z</time>
      </trkpt>
      <trkpt lat="42.84961" lon="0.91598">
        <ele>1240.074</ele>
        <time>2021-03-13T09:28:44Z</time>
      </trkpt>
      <trkpt lat="42.84961" lon="0.91598">
        <ele>1240.091</ele>
        <time>2021-03-13T09:28:46Z</time>
      </trkpt>
      <trkpt lat="42.84961" lon="0.91598">
        <ele>1240.222</ele>
        <time>2021-03-13T09:28:48Z</time>
      </trkpt>
      <trkpt lat="42.84961" lon="0.91598">
        <ele>1240.255</ele>
        <time>2021-03-13T09:28:50Z</time>
      </trkpt>
      <trkpt lat="42.84961" lon="0.91598">
        <ele>1240.773</ele>
        <time>2021-03-13T09:28:52Z</time>
      </trkpt>
      <trkpt lat="42.84961" lon="0.91598">
        <ele>1240.802</ele>
        <time>2021-03-13T09:28:54Z</time>
      </trkpt>
      <trkpt lat="42.84961" lon="0.91598">
        <ele>1240.82</ele>
        <time>2021-03-13T09:28:56Z</time>
      </trkpt>
      <trkpt lat="42.84961" lon="0.91598">
        <ele>1240.841</ele>
        <time>2021-03-13T09:28:58Z</time>
      </trkpt>
      <trkpt lat="42.84961" lon="0.91598">
        <ele>1241.179</ele>
        <time>2021-03-13T09:29:00Z</time>
      </trkpt>
      <trkpt lat="42.84961" lon="0.91598">
        <ele>1241.193</ele>
        <time>2021-03-13T09:29:02Z</time>
      </trkpt>
      <trkpt lat="42.84962" lon="0.91598">
        <ele>1240.893</ele>
        <time>2021-03-13T09:29:04Z</time>
      </trkpt>
      <trkpt lat="42.84962" lon="0.91598">
        <ele>1240.909</ele>
        <time>2021-03-13T09:29:06Z</time>
      </trkpt>
      <trkpt lat="42.84962" lon="0.91598">
        <ele>1240.929</ele>
        <time>2021-03-13T09:29:08Z</time>
      </trkpt>
      <trkpt lat="42.84962" lon="0.91598">
        <ele>1240.941</ele>
        <time>2021-03-13T09:29:10Z</time>
      </trkpt>
      <trkpt lat="42.84962" lon="0.91598">
        <ele>1240.94</ele>
        <time>2021-03-13T09:29:12Z</time>
      </trkpt>
      <trkpt lat="42.84962" lon="0.91598">
        <ele>1240.945</ele>
        <time>2021-03-13T09:29:14Z</time>
      </trkpt>
      <trkpt lat="42.84962" lon="0.91598">
        <ele>1240.958</ele>
        <time>2021-03-13T09:29:16Z</time>
      </trkpt>
      <trkpt lat="42.84962" lon="0.91598">
        <ele>1240.976</ele>
        <time>2021-03-13T09:29:18Z</time>
      </trkpt>
      <trkpt lat="42.84962" lon="0.91598">
        <ele>1240.982</ele>
        <time>2021-03-13T09:29:20Z</time>
      </trkpt>
      <trkpt lat="42.84962" lon="0.91598">
        <ele>1240.984</ele>
        <time>2021-03-13T09:29:22Z</time>
      </trkpt>
      <trkpt lat="42.84962" lon="0.91598">
        <ele>1241.008</ele>
        <time>2021-03-13T09:29:24Z</time>
      </trkpt>
      <trkpt lat="42.84961" lon="0.91598">
        <ele>1241.045</ele>
        <time>2021-03-13T09:29:26Z</time>
      </trkpt>
      <trkpt lat="42.84962" lon="0.91598">
        <ele>1241.579</ele>
        <time>2021-03-13T09:29:28Z</time>
      </trkpt>
      <trkpt lat="42.84962" lon="0.91598">
        <ele>1241.523</ele>
        <time>2021-03-13T09:29:30Z</time>
      </trkpt>
      <trkpt lat="42.84962" lon="0.91597">
        <ele>1241.572</ele>
        <time>2021-03-13T09:29:32Z</time>
      </trkpt>
      <trkpt lat="42.84962" lon="0.91598">
        <ele>1241.942</ele>
        <time>2021-03-13T09:29:34Z</time>
      </trkpt>
      <trkpt lat="42.84963" lon="0.91599">
        <ele>1241.428</ele>
        <time>2021-03-13T09:29:36Z</time>
      </trkpt>
      <trkpt lat="42.84964" lon="0.91598">
        <ele>1242.039</ele>
        <time>2021-03-13T09:29:38Z</time>
      </trkpt>
      <trkpt lat="42.84964" lon="0.91598">
        <ele>1242.07</ele>
        <time>2021-03-13T09:29:40Z</time>
      </trkpt>
      <trkpt lat="42.84964" lon="0.91598">
        <ele>1242.063</ele>
        <time>2021-03-13T09:29:42Z</time>
      </trkpt>
      <trkpt lat="42.84964" lon="0.91598">
        <ele>1242.074</ele>
        <time>2021-03-13T09:29:44Z</time>
      </trkpt>
      <trkpt lat="42.84964" lon="0.91598">
        <ele>1242.078</ele>
        <time>2021-03-13T09:29:46Z</time>
      </trkpt>
      <trkpt lat="42.84964" lon="0.91598">
        <ele>1242.071</ele>
        <time>2021-03-13T09:29:48Z</time>
      </trkpt>
      <trkpt lat="42.84964" lon="0.91598">
        <ele>1242.076</ele>
        <time>2021-03-13T09:29:50Z</time>
      </trkpt>
      <trkpt lat="42.84965" lon="0.91598">
        <ele>1242.75</ele>
        <time>2021-03-13T09:29:52Z</time>
      </trkpt>
      <trkpt lat="42.84966" lon="0.91598">
        <ele>1243.702</ele>
        <time>2021-03-13T09:29:54Z</time>
      </trkpt>
      <trkpt lat="42.84967" lon="0.91598">
        <ele>1243.74</ele>
        <time>2021-03-13T09:29:56Z</time>
      </trkpt>
      <trkpt lat="42.84967" lon="0.91598">
        <ele>1243.738</ele>
        <time>2021-03-13T09:29:58Z</time>
      </trkpt>
      <trkpt lat="42.84967" lon="0.91597">
        <ele>1244.234</ele>
        <time>2021-03-13T09:30:00Z</time>
      </trkpt>
      <trkpt lat="42.84968" lon="0.91597">
        <ele>1244.243</ele>
        <time>2021-03-13T09:30:02Z</time>
      </trkpt>
      <trkpt lat="42.84969" lon="0.91596">
        <ele>1244.557</ele>
        <time>2021-03-13T09:30:04Z</time>
      </trkpt>
      <trkpt lat="42.84969" lon="0.91595">
        <ele>1244.534</ele>
        <time>2021-03-13T09:30:06Z</time>
      </trkpt>
      <trkpt lat="42.84969" lon="0.91594">
        <ele>1244.64</ele>
        <time>2021-03-13T09:30:08Z</time>
      </trkpt>
      <trkpt lat="42.84969" lon="0.91592">
        <ele>1245.258</ele>
        <time>2021-03-13T09:30:10Z</time>
      </trkpt>
      <trkpt lat="42.84969" lon="0.91591">
        <ele>1244.705</ele>
        <time>2021-03-13T09:30:12Z</time>
      </trkpt>
      <trkpt lat="42.8497" lon="0.91591">
        <ele>1245.618</ele>
        <time>2021-03-13T09:30:14Z</time>
      </trkpt>
      <trkpt lat="42.84969" lon="0.91591">
        <ele>1246.574</ele>
        <time>2021-03-13T09:30:16Z</time>
      </trkpt>
      <trkpt lat="42.84969" lon="0.91592">
        <ele>1246.513</ele>
        <time>2021-03-13T09:30:18Z</time>
      </trkpt>
      <trkpt lat="42.84969" lon="0.91592">
        <ele>1246.537</ele>
        <time>2021-03-13T09:30:20Z</time>
      </trkpt>
      <trkpt lat="42.84969" lon="0.91592">
        <ele>1246.536</ele>
        <time>2021-03-13T09:30:22Z</time>
      </trkpt>
      <trkpt lat="42.84969" lon="0.91592">
        <ele>1246.519</ele>
        <time>2021-03-13T09:30:24Z</time>
      </trkpt>
      <trkpt lat="42.84969" lon="0.91592">
        <ele>1246.262</ele>
        <time>2021-03-13T09:30:26Z</time>
      </trkpt>
      <trkpt lat="42.84969" lon="0.91592">
        <ele>1246.145</ele>
        <time>2021-03-13T09:30:28Z</time>
      </trkpt>
      <trkpt lat="42.84968" lon="0.91592">
        <ele>1245.874</ele>
        <time>2021-03-13T09:30:30Z</time>
      </trkpt>
      <trkpt lat="42.84968" lon="0.91592">
        <ele>1245.746</ele>
        <time>2021-03-13T09:30:32Z</time>
      </trkpt>
      <trkpt lat="42.84968" lon="0.91592">
        <ele>1245.739</ele>
        <time>2021-03-13T09:30:34Z</time>
      </trkpt>
      <trkpt lat="42.84968" lon="0.91593">
        <ele>1246.212</ele>
        <time>2021-03-13T09:30:36Z</time>
      </trkpt>
      <trkpt lat="42.84968" lon="0.91592">
        <ele>1245.898</ele>
        <time>2021-03-13T09:30:38Z</time>
      </trkpt>
      <trkpt lat="42.84967" lon="0.91591">
        <ele>1244.531</ele>
        <time>2021-03-13T09:30:40Z</time>
      </trkpt>
      <trkpt lat="42.84967" lon="0.9159">
        <ele>1243.94</ele>
        <time>2021-03-13T09:30:42Z</time>
      </trkpt>
      <trkpt lat="42.84968" lon="0.9159">
        <ele>1244.048</ele>
        <time>2021-03-13T09:30:44Z</time>
      </trkpt>
      <trkpt lat="42.84968" lon="0.91588">
        <ele>1244.314</ele>
        <time>2021-03-13T09:30:46Z</time>
      </trkpt>
      <trkpt lat="42.84969" lon="0.91587">
        <ele>1245.356</ele>
        <time>2021-03-13T09:30:48Z</time>
      </trkpt>
      <trkpt lat="42.8497" lon="0.91585">
        <ele>1244.622</ele>
        <time>2021-03-13T09:30:50Z</time>
      </trkpt>
      <trkpt lat="42.8497" lon="0.91583">
        <ele>1245.651</ele>
        <time>2021-03-13T09:30:52Z</time>
      </trkpt>
      <trkpt lat="42.84971" lon="0.9158">
        <ele>1245.931</ele>
        <time>2021-03-13T09:30:54Z</time>
      </trkpt>
      <trkpt lat="42.84971" lon="0.91579">
        <ele>1246.416</ele>
        <time>2021-03-13T09:30:56Z</time>
      </trkpt>
      <trkpt lat="42.84973" lon="0.91577">
        <ele>1246.228</ele>
        <time>2021-03-13T09:30:58Z</time>
      </trkpt>
      <trkpt lat="42.84974" lon="0.91576">
        <ele>1247.446</ele>
        <time>2021-03-13T09:31:00Z</time>
      </trkpt>
      <trkpt lat="42.84975" lon="0.91574">
        <ele>1247.694</ele>
        <time>2021-03-13T09:31:02Z</time>
      </trkpt>
      <trkpt lat="42.84976" lon="0.91572">
        <ele>1247.72</ele>
        <time>2021-03-13T09:31:04Z</time>
      </trkpt>
      <trkpt lat="42.84976" lon="0.91572">
        <ele>1247.436</ele>
        <time>2021-03-13T09:31:06Z</time>
      </trkpt>
      <trkpt lat="42.84976" lon="0.91571">
        <ele>1247.809</ele>
        <time>2021-03-13T09:31:08Z</time>
      </trkpt>
      <trkpt lat="42.84977" lon="0.9157">
        <ele>1246.888</ele>
        <time>2021-03-13T09:31:10Z</time>
      </trkpt>
      <trkpt lat="42.84978" lon="0.91568">
        <ele>1246.067</ele>
        <time>2021-03-13T09:31:12Z</time>
      </trkpt>
      <trkpt lat="42.84979" lon="0.91567">
        <ele>1245.399</ele>
        <time>2021-03-13T09:31:14Z</time>
      </trkpt>
      <trkpt lat="42.84979" lon="0.91566">
        <ele>1246.298</ele>
        <time>2021-03-13T09:31:16Z</time>
      </trkpt>
      <trkpt lat="42.8498" lon="0.91565">
        <ele>1248.384</ele>
        <time>2021-03-13T09:31:18Z</time>
      </trkpt>
      <trkpt lat="42.8498" lon="0.91563">
        <ele>1248.303</ele>
        <time>2021-03-13T09:31:20Z</time>
      </trkpt>
      <trkpt lat="42.84981" lon="0.91562">
        <ele>1248.353</ele>
        <time>2021-03-13T09:31:22Z</time>
      </trkpt>
      <trkpt lat="42.84983" lon="0.9156">
        <ele>1249.372</ele>
        <time>2021-03-13T09:31:24Z</time>
      </trkpt>
      <trkpt lat="42.84984" lon="0.91558">
        <ele>1249.56</ele>
        <time>2021-03-13T09:31:26Z</time>
      </trkpt>
      <trkpt lat="42.84985" lon="0.91556">
        <ele>1250.506</ele>
        <time>2021-03-13T09:31:28Z</time>
      </trkpt>
      <trkpt lat="42.84986" lon="0.91553">
        <ele>1250.382</ele>
        <time>2021-03-13T09:31:30Z</time>
      </trkpt>
      <trkpt lat="42.84987" lon="0.9155">
        <ele>1250.733</ele>
        <time>2021-03-13T09:31:32Z</time>
      </trkpt>
      <trkpt lat="42.84988" lon="0.91547">
        <ele>1251.737</ele>
        <time>2021-03-13T09:31:34Z</time>
      </trkpt>
      <trkpt lat="42.84989" lon="0.91545">
        <ele>1251.947</ele>
        <time>2021-03-13T09:31:36Z</time>
      </trkpt>
      <trkpt lat="42.84989" lon="0.91542">
        <ele>1251.715</ele>
        <time>2021-03-13T09:31:38Z</time>
      </trkpt>
      <trkpt lat="42.84989" lon="0.91539">
        <ele>1251.383</ele>
        <time>2021-03-13T09:31:40Z</time>
      </trkpt>
      <trkpt lat="42.8499" lon="0.91536">
        <ele>1252.143</ele>
        <time>2021-03-13T09:31:42Z</time>
      </trkpt>
      <trkpt lat="42.8499" lon="0.91534">
        <ele>1251.742</ele>
        <time>2021-03-13T09:31:44Z</time>
      </trkpt>
      <trkpt lat="42.8499" lon="0.91532">
        <ele>1251.615</ele>
        <time>2021-03-13T09:31:46Z</time>
      </trkpt>
      <trkpt lat="42.84991" lon="0.9153">
        <ele>1251.934</ele>
        <time>2021-03-13T09:31:48Z</time>
      </trkpt>
      <trkpt lat="42.84992" lon="0.91528">
        <ele>1252.297</ele>
        <time>2021-03-13T09:31:50Z</time>
      </trkpt>
      <trkpt lat="42.84992" lon="0.91527">
        <ele>1252.579</ele>
        <time>2021-03-13T09:31:52Z</time>
      </trkpt>
      <trkpt lat="42.84993" lon="0.91525">
        <ele>1252.406</ele>
        <time>2021-03-13T09:31:54Z</time>
      </trkpt>
      <trkpt lat="42.84994" lon="0.91524">
        <ele>1253.612</ele>
        <time>2021-03-13T09:31:56Z</time>
      </trkpt>
      <trkpt lat="42.84995" lon="0.91524">
        <ele>1253.914</ele>
        <time>2021-03-13T09:31:58Z</time>
      </trkpt>
      <trkpt lat="42.84996" lon="0.91523">
        <ele>1254.034</ele>
        <time>2021-03-13T09:32:00Z</time>
      </trkpt>
      <trkpt lat="42.84998" lon="0.91522">
        <ele>1254.371</ele>
        <time>2021-03-13T09:32:02Z</time>
      </trkpt>
      <trkpt lat="42.85" lon="0.91522">
        <ele>1254.898</ele>
        <time>2021-03-13T09:32:04Z</time>
      </trkpt>
      <trkpt lat="42.85001" lon="0.91521">
        <ele>1255.331</ele>
        <time>2021-03-13T09:32:06Z</time>
      </trkpt>
      <trkpt lat="42.85002" lon="0.9152">
        <ele>1254.802</ele>
        <time>2021-03-13T09:32:08Z</time>
      </trkpt>
      <trkpt lat="42.85004" lon="0.91519">
        <ele>1254.668</ele>
        <time>2021-03-13T09:32:10Z</time>
      </trkpt>
      <trkpt lat="42.85005" lon="0.91518">
        <ele>1254.844</ele>
        <time>2021-03-13T09:32:12Z</time>
      </trkpt>
      <trkpt lat="42.85006" lon="0.91518">
        <ele>1256.323</ele>
        <time>2021-03-13T09:32:14Z</time>
      </trkpt>
      <trkpt lat="42.85007" lon="0.91518">
        <ele>1256.756</ele>
        <time>2021-03-13T09:32:16Z</time>
      </trkpt>
      <trkpt lat="42.85008" lon="0.91517">
        <ele>1256.744</ele>
        <time>2021-03-13T09:32:18Z</time>
      </trkpt>
      <trkpt lat="42.85009" lon="0.91518">
        <ele>1256.003</ele>
        <time>2021-03-13T09:32:20Z</time>
      </trkpt>
      <trkpt lat="42.85011" lon="0.91518">
        <ele>1256.259</ele>
        <time>2021-03-13T09:32:22Z</time>
      </trkpt>
      <trkpt lat="42.85012" lon="0.91518">
        <ele>1258.458</ele>
        <time>2021-03-13T09:32:24Z</time>
      </trkpt>
      <trkpt lat="42.85014" lon="0.91518">
        <ele>1258.781</ele>
        <time>2021-03-13T09:32:26Z</time>
      </trkpt>
      <trkpt lat="42.85015" lon="0.91518">
        <ele>1259.966</ele>
        <time>2021-03-13T09:32:28Z</time>
      </trkpt>
      <trkpt lat="42.85016" lon="0.91519">
        <ele>1261.174</ele>
        <time>2021-03-13T09:32:30Z</time>
      </trkpt>
      <trkpt lat="42.85018" lon="0.91519">
        <ele>1261.501</ele>
        <time>2021-03-13T09:32:32Z</time>
      </trkpt>
      <trkpt lat="42.85019" lon="0.91518">
        <ele>1261.943</ele>
        <time>2021-03-13T09:32:34Z</time>
      </trkpt>
      <trkpt lat="42.8502" lon="0.91518">
        <ele>1262.192</ele>
        <time>2021-03-13T09:32:36Z</time>
      </trkpt>
      <trkpt lat="42.85021" lon="0.91518">
        <ele>1262.882</ele>
        <time>2021-03-13T09:32:38Z</time>
      </trkpt>
      <trkpt lat="42.85021" lon="0.91517">
        <ele>1262.58</ele>
        <time>2021-03-13T09:32:40Z</time>
      </trkpt>
      <trkpt lat="42.85021" lon="0.91515">
        <ele>1261.999</ele>
        <time>2021-03-13T09:32:42Z</time>
      </trkpt>
      <trkpt lat="42.85021" lon="0.91513">
        <ele>1261.691</ele>
        <time>2021-03-13T09:32:44Z</time>
      </trkpt>
      <trkpt lat="42.85021" lon="0.91512">
        <ele>1262.165</ele>
        <time>2021-03-13T09:32:46Z</time>
      </trkpt>
      <trkpt lat="42.85021" lon="0.91511">
        <ele>1262.443</ele>
        <time>2021-03-13T09:32:48Z</time>
      </trkpt>
      <trkpt lat="42.85021" lon="0.91509">
        <ele>1263.502</ele>
        <time>2021-03-13T09:32:50Z</time>
      </trkpt>
      <trkpt lat="42.85021" lon="0.91508">
        <ele>1263.84</ele>
        <time>2021-03-13T09:32:52Z</time>
      </trkpt>
      <trkpt lat="42.85022" lon="0.91507">
        <ele>1263.143</ele>
        <time>2021-03-13T09:32:54Z</time>
      </trkpt>
      <trkpt lat="42.85022" lon="0.91506">
        <ele>1264.789</ele>
        <time>2021-03-13T09:32:56Z</time>
      </trkpt>
      <trkpt lat="42.85022" lon="0.91504">
        <ele>1264.095</ele>
        <time>2021-03-13T09:32:58Z</time>
      </trkpt>
      <trkpt lat="42.85022" lon="0.91502">
        <ele>1263.897</ele>
        <time>2021-03-13T09:33:00Z</time>
      </trkpt>
      <trkpt lat="42.85021" lon="0.915">
        <ele>1263.455</ele>
        <time>2021-03-13T09:33:02Z</time>
      </trkpt>
      <trkpt lat="42.85021" lon="0.91498">
        <ele>1262.876</ele>
        <time>2021-03-13T09:33:04Z</time>
      </trkpt>
      <trkpt lat="42.85022" lon="0.91497">
        <ele>1264.472</ele>
        <time>2021-03-13T09:33:06Z</time>
      </trkpt>
      <trkpt lat="42.85022" lon="0.91496">
        <ele>1264.69</ele>
        <time>2021-03-13T09:33:08Z</time>
      </trkpt>
      <trkpt lat="42.85022" lon="0.91496">
        <ele>1264.479</ele>
        <time>2021-03-13T09:33:10Z</time>
      </trkpt>
      <trkpt lat="42.85022" lon="0.91494">
        <ele>1264.036</ele>
        <time>2021-03-13T09:33:12Z</time>
      </trkpt>
      <trkpt lat="42.85022" lon="0.91492">
        <ele>1265.113</ele>
        <time>2021-03-13T09:33:14Z</time>
      </trkpt>
      <trkpt lat="42.85023" lon="0.91489">
        <ele>1264.841</ele>
        <time>2021-03-13T09:33:16Z</time>
      </trkpt>
      <trkpt lat="42.85023" lon="0.91488">
        <ele>1265.53</ele>
        <time>2021-03-13T09:33:18Z</time>
      </trkpt>
      <trkpt lat="42.85024" lon="0.91487">
        <ele>1265.124</ele>
        <time>2021-03-13T09:33:20Z</time>
      </trkpt>
      <trkpt lat="42.85025" lon="0.91486">
        <ele>1264.395</ele>
        <time>2021-03-13T09:33:22Z</time>
      </trkpt>
      <trkpt lat="42.85025" lon="0.91485">
        <ele>1263.473</ele>
        <time>2021-03-13T09:33:24Z</time>
      </trkpt>
      <trkpt lat="42.85025" lon="0.91483">
        <ele>1263.077</ele>
        <time>2021-03-13T09:33:26Z</time>
      </trkpt>
      <trkpt lat="42.85025" lon="0.91482">
        <ele>1264.037</ele>
        <time>2021-03-13T09:33:28Z</time>
      </trkpt>
      <trkpt lat="42.85025" lon="0.91482">
        <ele>1264.058</ele>
        <time>2021-03-13T09:33:30Z</time>
      </trkpt>
      <trkpt lat="42.85025" lon="0.91481">
        <ele>1264.16</ele>
        <time>2021-03-13T09:33:32Z</time>
      </trkpt>
      <trkpt lat="42.85026" lon="0.9148">
        <ele>1264.324</ele>
        <time>2021-03-13T09:33:34Z</time>
      </trkpt>
      <trkpt lat="42.85026" lon="0.91479">
        <ele>1263.972</ele>
        <time>2021-03-13T09:33:36Z</time>
      </trkpt>
      <trkpt lat="42.85026" lon="0.91478">
        <ele>1263.356</ele>
        <time>2021-03-13T09:33:38Z</time>
      </trkpt>
      <trkpt lat="42.85026" lon="0.91477">
        <ele>1262.804</ele>
        <time>2021-03-13T09:33:40Z</time>
      </trkpt>
      <trkpt lat="42.85027" lon="0.91476">
        <ele>1262.526</ele>
        <time>2021-03-13T09:33:42Z</time>
      </trkpt>
      <trkpt lat="42.85028" lon="0.91475">
        <ele>1262.103</ele>
        <time>2021-03-13T09:33:44Z</time>
      </trkpt>
      <trkpt lat="42.85028" lon="0.91473">
        <ele>1262.77</ele>
        <time>2021-03-13T09:33:46Z</time>
      </trkpt>
      <trkpt lat="42.85026" lon="0.91472">
        <ele>1262.845</ele>
        <time>2021-03-13T09:33:48Z</time>
      </trkpt>
      <trkpt lat="42.85026" lon="0.91471">
        <ele>1263.232</ele>
        <time>2021-03-13T09:33:50Z</time>
      </trkpt>
      <trkpt lat="42.85025" lon="0.91469">
        <ele>1263.864</ele>
        <time>2021-03-13T09:33:52Z</time>
      </trkpt>
      <trkpt lat="42.85024" lon="0.91467">
        <ele>1263.86</ele>
        <time>2021-03-13T09:33:54Z</time>
      </trkpt>
      <trkpt lat="42.85023" lon="0.91466">
        <ele>1264.709</ele>
        <time>2021-03-13T09:33:56Z</time>
      </trkpt>
      <trkpt lat="42.85022" lon="0.91463">
        <ele>1265.167</ele>
        <time>2021-03-13T09:33:58Z</time>
      </trkpt>
      <trkpt lat="42.85022" lon="0.91461">
        <ele>1265.187</ele>
        <time>2021-03-13T09:34:00Z</time>
      </trkpt>
      <trkpt lat="42.85022" lon="0.91459">
        <ele>1264.745</ele>
        <time>2021-03-13T09:34:02Z</time>
      </trkpt>
      <trkpt lat="42.85023" lon="0.91459">
        <ele>1265.617</ele>
        <time>2021-03-13T09:34:04Z</time>
      </trkpt>
      <trkpt lat="42.85025" lon="0.91459">
        <ele>1266.179</ele>
        <time>2021-03-13T09:34:06Z</time>
      </trkpt>
      <trkpt lat="42.85026" lon="0.91459">
        <ele>1265.203</ele>
        <time>2021-03-13T09:34:08Z</time>
      </trkpt>
      <trkpt lat="42.85028" lon="0.91459">
        <ele>1265.563</ele>
        <time>2021-03-13T09:34:10Z</time>
      </trkpt>
      <trkpt lat="42.85029" lon="0.91458">
        <ele>1266.032</ele>
        <time>2021-03-13T09:34:12Z</time>
      </trkpt>
      <trkpt lat="42.85028" lon="0.91458">
        <ele>1265.966</ele>
        <time>2021-03-13T09:34:14Z</time>
      </trkpt>
      <trkpt lat="42.85027" lon="0.91458">
        <ele>1266.094</ele>
        <time>2021-03-13T09:34:16Z</time>
      </trkpt>
      <trkpt lat="42.85026" lon="0.91458">
        <ele>1266.097</ele>
        <time>2021-03-13T09:34:18Z</time>
      </trkpt>
      <trkpt lat="42.85026" lon="0.91458">
        <ele>1266.089</ele>
        <time>2021-03-13T09:34:20Z</time>
      </trkpt>
      <trkpt lat="42.85026" lon="0.91457">
        <ele>1266.481</ele>
        <time>2021-03-13T09:34:22Z</time>
      </trkpt>
      <trkpt lat="42.85027" lon="0.91456">
        <ele>1266.901</ele>
        <time>2021-03-13T09:34:24Z</time>
      </trkpt>
      <trkpt lat="42.85029" lon="0.91455">
        <ele>1266.268</ele>
        <time>2021-03-13T09:34:26Z</time>
      </trkpt>
      <trkpt lat="42.85031" lon="0.91455">
        <ele>1266.512</ele>
        <time>2021-03-13T09:34:28Z</time>
      </trkpt>
      <trkpt lat="42.85033" lon="0.91454">
        <ele>1266.665</ele>
        <time>2021-03-13T09:34:30Z</time>
      </trkpt>
      <trkpt lat="42.85034" lon="0.91453">
        <ele>1267.055</ele>
        <time>2021-03-13T09:34:32Z</time>
      </trkpt>
      <trkpt lat="42.85035" lon="0.91452">
        <ele>1266.648</ele>
        <time>2021-03-13T09:34:34Z</time>
      </trkpt>
      <trkpt lat="42.85037" lon="0.91451">
        <ele>1267.063</ele>
        <time>2021-03-13T09:34:36Z</time>
      </trkpt>
      <trkpt lat="42.85038" lon="0.9145">
        <ele>1267.55</ele>
        <time>2021-03-13T09:34:38Z</time>
      </trkpt>
      <trkpt lat="42.85038" lon="0.91448">
        <ele>1267.436</ele>
        <time>2021-03-13T09:34:40Z</time>
      </trkpt>
      <trkpt lat="42.85038" lon="0.91449">
        <ele>1267.425</ele>
        <time>2021-03-13T09:34:42Z</time>
      </trkpt>
      <trkpt lat="42.85038" lon="0.91448">
        <ele>1267.433</ele>
        <time>2021-03-13T09:34:44Z</time>
      </trkpt>
      <trkpt lat="42.85039" lon="0.91447">
        <ele>1267.357</ele>
        <time>2021-03-13T09:34:46Z</time>
      </trkpt>
      <trkpt lat="42.85039" lon="0.91447">
        <ele>1267.331</ele>
        <time>2021-03-13T09:34:48Z</time>
      </trkpt>
      <trkpt lat="42.8504" lon="0.91446">
        <ele>1268.644</ele>
        <time>2021-03-13T09:34:50Z</time>
      </trkpt>
      <trkpt lat="42.85041" lon="0.91444">
        <ele>1267.069</ele>
        <time>2021-03-13T09:34:52Z</time>
      </trkpt>
      <trkpt lat="42.8504" lon="0.91442">
        <ele>1266.78</ele>
        <time>2021-03-13T09:34:54Z</time>
      </trkpt>
      <trkpt lat="42.8504" lon="0.9144">
        <ele>1267.291</ele>
        <time>2021-03-13T09:34:56Z</time>
      </trkpt>
      <trkpt lat="42.8504" lon="0.91439">
        <ele>1267.642</ele>
        <time>2021-03-13T09:34:58Z</time>
      </trkpt>
      <trkpt lat="42.85041" lon="0.91437">
        <ele>1269.048</ele>
        <time>2021-03-13T09:35:00Z</time>
      </trkpt>
      <trkpt lat="42.85041" lon="0.91435">
        <ele>1268.933</ele>
        <time>2021-03-13T09:35:02Z</time>
      </trkpt>
      <trkpt lat="42.85041" lon="0.91434">
        <ele>1268.329</ele>
        <time>2021-03-13T09:35:04Z</time>
      </trkpt>
      <trkpt lat="42.85042" lon="0.91432">
        <ele>1268.758</ele>
        <time>2021-03-13T09:35:06Z</time>
      </trkpt>
      <trkpt lat="42.85042" lon="0.91431">
        <ele>1269.245</ele>
        <time>2021-03-13T09:35:08Z</time>
      </trkpt>
      <trkpt lat="42.85042" lon="0.91429">
        <ele>1269.459</ele>
        <time>2021-03-13T09:35:10Z</time>
      </trkpt>
      <trkpt lat="42.85042" lon="0.91428">
        <ele>1269.19</ele>
        <time>2021-03-13T09:35:12Z</time>
      </trkpt>
      <trkpt lat="42.85042" lon="0.91426">
        <ele>1270.786</ele>
        <time>2021-03-13T09:35:14Z</time>
      </trkpt>
      <trkpt lat="42.85042" lon="0.91425">
        <ele>1270.988</ele>
        <time>2021-03-13T09:35:16Z</time>
      </trkpt>
      <trkpt lat="42.85041" lon="0.91424">
        <ele>1270.541</ele>
        <time>2021-03-13T09:35:18Z</time>
      </trkpt>
      <trkpt lat="42.85041" lon="0.91424">
        <ele>1270.54</ele>
        <time>2021-03-13T09:35:20Z</time>
      </trkpt>
      <trkpt lat="42.85041" lon="0.91424">
        <ele>1270.541</ele>
        <time>2021-03-13T09:35:22Z</time>
      </trkpt>
      <trkpt lat="42.85041" lon="0.91424">
        <ele>1270.013</ele>
        <time>2021-03-13T09:35:24Z</time>
      </trkpt>
      <trkpt lat="42.85042" lon="0.91423">
        <ele>1269.998</ele>
        <time>2021-03-13T09:35:26Z</time>
      </trkpt>
      <trkpt lat="42.85042" lon="0.91423">
        <ele>1270.499</ele>
        <time>2021-03-13T09:35:28Z</time>
      </trkpt>
      <trkpt lat="42.85042" lon="0.91422">
        <ele>1271.407</ele>
        <time>2021-03-13T09:35:30Z</time>
      </trkpt>
      <trkpt lat="42.85042" lon="0.91421">
        <ele>1272.27</ele>
        <time>2021-03-13T09:35:32Z</time>
      </trkpt>
      <trkpt lat="42.85042" lon="0.91422">
        <ele>1272.262</ele>
        <time>2021-03-13T09:35:34Z</time>
      </trkpt>
      <trkpt lat="42.85042" lon="0.91422">
        <ele>1272.267</ele>
        <time>2021-03-13T09:35:36Z</time>
      </trkpt>
      <trkpt lat="42.85042" lon="0.91422">
        <ele>1272.263</ele>
        <time>2021-03-13T09:35:38Z</time>
      </trkpt>
      <trkpt lat="42.85042" lon="0.91422">
        <ele>1272.252</ele>
        <time>2021-03-13T09:35:40Z</time>
      </trkpt>
      <trkpt lat="42.85042" lon="0.91422">
        <ele>1272.267</ele>
        <time>2021-03-13T09:35:42Z</time>
      </trkpt>
      <trkpt lat="42.85042" lon="0.91422">
        <ele>1272.262</ele>
        <time>2021-03-13T09:35:44Z</time>
      </trkpt>
      <trkpt lat="42.85042" lon="0.91422">
        <ele>1272.269</ele>
        <time>2021-03-13T09:35:46Z</time>
      </trkpt>
      <trkpt lat="42.85042" lon="0.91422">
        <ele>1272.273</ele>
        <time>2021-03-13T09:35:48Z</time>
      </trkpt>
      <trkpt lat="42.85042" lon="0.91422">
        <ele>1272.276</ele>
        <time>2021-03-13T09:35:50Z</time>
      </trkpt>
      <trkpt lat="42.85042" lon="0.91422">
        <ele>1272.261</ele>
        <time>2021-03-13T09:35:52Z</time>
      </trkpt>
      <trkpt lat="42.85042" lon="0.91422">
        <ele>1272.264</ele>
        <time>2021-03-13T09:35:54Z</time>
      </trkpt>
      <trkpt lat="42.85042" lon="0.91422">
        <ele>1272.276</ele>
        <time>2021-03-13T09:35:56Z</time>
      </trkpt>
      <trkpt lat="42.85042" lon="0.91422">
        <ele>1272.276</ele>
        <time>2021-03-13T09:35:58Z</time>
      </trkpt>
      <trkpt lat="42.85042" lon="0.91422">
        <ele>1272.259</ele>
        <time>2021-03-13T09:36:00Z</time>
      </trkpt>
      <trkpt lat="42.85042" lon="0.91422">
        <ele>1272.243</ele>
        <time>2021-03-13T09:36:02Z</time>
      </trkpt>
      <trkpt lat="42.85043" lon="0.91421">
        <ele>1272.318</ele>
        <time>2021-03-13T09:36:04Z</time>
      </trkpt>
      <trkpt lat="42.85043" lon="0.91421">
        <ele>1272.749</ele>
        <time>2021-03-13T09:36:06Z</time>
      </trkpt>
      <trkpt lat="42.85044" lon="0.9142">
        <ele>1272.016</ele>
        <time>2021-03-13T09:36:08Z</time>
      </trkpt>
      <trkpt lat="42.85044" lon="0.91419">
        <ele>1273.353</ele>
        <time>2021-03-13T09:36:10Z</time>
      </trkpt>
      <trkpt lat="42.85045" lon="0.91417">
        <ele>1273.101</ele>
        <time>2021-03-13T09:36:12Z</time>
      </trkpt>
      <trkpt lat="42.85044" lon="0.91417">
        <ele>1273.266</ele>
        <time>2021-03-13T09:36:14Z</time>
      </trkpt>
      <trkpt lat="42.85045" lon="0.91415">
        <ele>1273.382</ele>
        <time>2021-03-13T09:36:16Z</time>
      </trkpt>
      <trkpt lat="42.85046" lon="0.91414">
        <ele>1273.818</ele>
        <time>2021-03-13T09:36:18Z</time>
      </trkpt>
      <trkpt lat="42.85047" lon="0.91413">
        <ele>1273.917</ele>
        <time>2021-03-13T09:36:20Z</time>
      </trkpt>
      <trkpt lat="42.85048" lon="0.91411">
        <ele>1273.916</ele>
        <time>2021-03-13T09:36:22Z</time>
      </trkpt>
      <trkpt lat="42.85048" lon="0.9141">
        <ele>1274.241</ele>
        <time>2021-03-13T09:36:24Z</time>
      </trkpt>
      <trkpt lat="42.85048" lon="0.9141">
        <ele>1273.732</ele>
        <time>2021-03-13T09:36:26Z</time>
      </trkpt>
      <trkpt lat="42.85048" lon="0.91409">
        <ele>1274.487</ele>
        <time>2021-03-13T09:36:28Z</time>
      </trkpt>
      <trkpt lat="42.85049" lon="0.91407">
        <ele>1275.614</ele>
        <time>2021-03-13T09:36:30Z</time>
      </trkpt>
      <trkpt lat="42.85049" lon="0.91406">
        <ele>1276.517</ele>
        <time>2021-03-13T09:36:32Z</time>
      </trkpt>
      <trkpt lat="42.8505" lon="0.91405">
        <ele>1276.819</ele>
        <time>2021-03-13T09:36:34Z</time>
      </trkpt>
      <trkpt lat="42.85051" lon="0.91404">
        <ele>1277.827</ele>
        <time>2021-03-13T09:36:36Z</time>
      </trkpt>
      <trkpt lat="42.85052" lon="0.91402">
        <ele>1278.01</ele>
        <time>2021-03-13T09:36:38Z</time>
      </trkpt>
      <trkpt lat="42.85052" lon="0.91401">
        <ele>1277.841</ele>
        <time>2021-03-13T09:36:40Z</time>
      </trkpt>
      <trkpt lat="42.85053" lon="0.91399">
        <ele>1277.758</ele>
        <time>2021-03-13T09:36:42Z</time>
      </trkpt>
      <trkpt lat="42.85053" lon="0.91397">
        <ele>1278.236</ele>
        <time>2021-03-13T09:36:44Z</time>
      </trkpt>
      <trkpt lat="42.85053" lon="0.91396">
        <ele>1278.318</ele>
        <time>2021-03-13T09:36:46Z</time>
      </trkpt>
      <trkpt lat="42.85053" lon="0.91394">
        <ele>1278.398</ele>
        <time>2021-03-13T09:36:48Z</time>
      </trkpt>
      <trkpt lat="42.85053" lon="0.91393">
        <ele>1279.821</ele>
        <time>2021-03-13T09:36:50Z</time>
      </trkpt>
      <trkpt lat="42.85054" lon="0.91392">
        <ele>1280.608</ele>
        <time>2021-03-13T09:36:52Z</time>
      </trkpt>
      <trkpt lat="42.85055" lon="0.9139">
        <ele>1281.923</ele>
        <time>2021-03-13T09:36:54Z</time>
      </trkpt>
      <trkpt lat="42.85055" lon="0.91389">
        <ele>1282.025</ele>
        <time>2021-03-13T09:36:56Z</time>
      </trkpt>
      <trkpt lat="42.85055" lon="0.91387">
        <ele>1282.363</ele>
        <time>2021-03-13T09:36:58Z</time>
      </trkpt>
      <trkpt lat="42.85056" lon="0.91385">
        <ele>1282.742</ele>
        <time>2021-03-13T09:37:00Z</time>
      </trkpt>
      <trkpt lat="42.85057" lon="0.91383">
        <ele>1282.845</ele>
        <time>2021-03-13T09:37:02Z</time>
      </trkpt>
      <trkpt lat="42.85057" lon="0.91381">
        <ele>1283.336</ele>
        <time>2021-03-13T09:37:04Z</time>
      </trkpt>
      <trkpt lat="42.85057" lon="0.9138">
        <ele>1283.939</ele>
        <time>2021-03-13T09:37:06Z</time>
      </trkpt>
      <trkpt lat="42.85058" lon="0.91378">
        <ele>1283.675</ele>
        <time>2021-03-13T09:37:08Z</time>
      </trkpt>
      <trkpt lat="42.85058" lon="0.91376">
        <ele>1283.278</ele>
        <time>2021-03-13T09:37:10Z</time>
      </trkpt>
      <trkpt lat="42.85057" lon="0.91375">
        <ele>1283.948</ele>
        <time>2021-03-13T09:37:12Z</time>
      </trkpt>
      <trkpt lat="42.85057" lon="0.91373">
        <ele>1283.863</ele>
        <time>2021-03-13T09:37:14Z</time>
      </trkpt>
      <trkpt lat="42.85058" lon="0.91371">
        <ele>1284.388</ele>
        <time>2021-03-13T09:37:16Z</time>
      </trkpt>
      <trkpt lat="42.85059" lon="0.91369">
        <ele>1284.688</ele>
        <time>2021-03-13T09:37:18Z</time>
      </trkpt>
      <trkpt lat="42.85057" lon="0.91368">
        <ele>1283.419</ele>
        <time>2021-03-13T09:37:20Z</time>
      </trkpt>
      <trkpt lat="42.85057" lon="0.91367">
        <ele>1284.41</ele>
        <time>2021-03-13T09:37:22Z</time>
      </trkpt>
      <trkpt lat="42.85057" lon="0.91367">
        <ele>1284.426</ele>
        <time>2021-03-13T09:37:24Z</time>
      </trkpt>
      <trkpt lat="42.85057" lon="0.91367">
        <ele>1284.377</ele>
        <time>2021-03-13T09:37:26Z</time>
      </trkpt>
      <trkpt lat="42.85057" lon="0.91366">
        <ele>1283.952</ele>
        <time>2021-03-13T09:37:28Z</time>
      </trkpt>
      <trkpt lat="42.85057" lon="0.91366">
        <ele>1283.948</ele>
        <time>2021-03-13T09:37:30Z</time>
      </trkpt>
      <trkpt lat="42.85057" lon="0.91366">
        <ele>1283.958</ele>
        <time>2021-03-13T09:37:32Z</time>
      </trkpt>
      <trkpt lat="42.85057" lon="0.91366">
        <ele>1283.978</ele>
        <time>2021-03-13T09:37:34Z</time>
      </trkpt>
      <trkpt lat="42.85057" lon="0.91366">
        <ele>1283.463</ele>
        <time>2021-03-13T09:37:36Z</time>
      </trkpt>
      <trkpt lat="42.85057" lon="0.91365">
        <ele>1283.419</ele>
        <time>2021-03-13T09:37:38Z</time>
      </trkpt>
      <trkpt lat="42.85057" lon="0.91364">
        <ele>1283.961</ele>
        <time>2021-03-13T09:37:40Z</time>
      </trkpt>
      <trkpt lat="42.85057" lon="0.91362">
        <ele>1284.528</ele>
        <time>2021-03-13T09:37:42Z</time>
      </trkpt>
      <trkpt lat="42.85058" lon="0.91361">
        <ele>1285.822</ele>
        <time>2021-03-13T09:37:44Z</time>
      </trkpt>
      <trkpt lat="42.85058" lon="0.91359">
        <ele>1285.66</ele>
        <time>2021-03-13T09:37:46Z</time>
      </trkpt>
      <trkpt lat="42.85058" lon="0.91358">
        <ele>1285.405</ele>
        <time>2021-03-13T09:37:48Z</time>
      </trkpt>
      <trkpt lat="42.85059" lon="0.91356">
        <ele>1285.628</ele>
        <time>2021-03-13T09:37:50Z</time>
      </trkpt>
      <trkpt lat="42.85059" lon="0.91355">
        <ele>1286.831</ele>
        <time>2021-03-13T09:37:52Z</time>
      </trkpt>
      <trkpt lat="42.85059" lon="0.91355">
        <ele>1286.551</ele>
        <time>2021-03-13T09:37:54Z</time>
      </trkpt>
      <trkpt lat="42.85059" lon="0.91354">
        <ele>1286.158</ele>
        <time>2021-03-13T09:37:56Z</time>
      </trkpt>
      <trkpt lat="42.8506" lon="0.91353">
        <ele>1287.724</ele>
        <time>2021-03-13T09:37:58Z</time>
      </trkpt>
      <trkpt lat="42.8506" lon="0.91351">
        <ele>1288.302</ele>
        <time>2021-03-13T09:38:00Z</time>
      </trkpt>
      <trkpt lat="42.8506" lon="0.91349">
        <ele>1289.203</ele>
        <time>2021-03-13T09:38:02Z</time>
      </trkpt>
      <trkpt lat="42.8506" lon="0.91349">
        <ele>1289.088</ele>
        <time>2021-03-13T09:38:04Z</time>
      </trkpt>
      <trkpt lat="42.8506" lon="0.91349">
        <ele>1289.075</ele>
        <time>2021-03-13T09:38:06Z</time>
      </trkpt>
      <trkpt lat="42.8506" lon="0.91349">
        <ele>1289.058</ele>
        <time>2021-03-13T09:38:08Z</time>
      </trkpt>
      <trkpt lat="42.8506" lon="0.91349">
        <ele>1289.05</ele>
        <time>2021-03-13T09:38:10Z</time>
      </trkpt>
      <trkpt lat="42.8506" lon="0.91349">
        <ele>1289.062</ele>
        <time>2021-03-13T09:38:12Z</time>
      </trkpt>
      <trkpt lat="42.8506" lon="0.91349">
        <ele>1289.042</ele>
        <time>2021-03-13T09:38:14Z</time>
      </trkpt>
      <trkpt lat="42.8506" lon="0.91349">
        <ele>1289.039</ele>
        <time>2021-03-13T09:38:16Z</time>
      </trkpt>
      <trkpt lat="42.8506" lon="0.91349">
        <ele>1289.047</ele>
        <time>2021-03-13T09:38:18Z</time>
      </trkpt>
      <trkpt lat="42.8506" lon="0.91349">
        <ele>1289.037</ele>
        <time>2021-03-13T09:38:20Z</time>
      </trkpt>
      <trkpt lat="42.8506" lon="0.91349">
        <ele>1289.041</ele>
        <time>2021-03-13T09:38:22Z</time>
      </trkpt>
      <trkpt lat="42.8506" lon="0.91349">
        <ele>1289.064</ele>
        <time>2021-03-13T09:38:24Z</time>
      </trkpt>
      <trkpt lat="42.8506" lon="0.91349">
        <ele>1289.899</ele>
        <time>2021-03-13T09:38:26Z</time>
      </trkpt>
      <trkpt lat="42.8506" lon="0.91349">
        <ele>1289.898</ele>
        <time>2021-03-13T09:38:28Z</time>
      </trkpt>
      <trkpt lat="42.8506" lon="0.91349">
        <ele>1290.032</ele>
        <time>2021-03-13T09:38:30Z</time>
      </trkpt>
      <trkpt lat="42.8506" lon="0.91349">
        <ele>1290.049</ele>
        <time>2021-03-13T09:38:32Z</time>
      </trkpt>
      <trkpt lat="42.8506" lon="0.91349">
        <ele>1289.892</ele>
        <time>2021-03-13T09:38:34Z</time>
      </trkpt>
      <trkpt lat="42.8506" lon="0.91349">
        <ele>1289.976</ele>
        <time>2021-03-13T09:38:36Z</time>
      </trkpt>
      <trkpt lat="42.8506" lon="0.91349">
        <ele>1290.264</ele>
        <time>2021-03-13T09:38:38Z</time>
      </trkpt>
      <trkpt lat="42.8506" lon="0.91349">
        <ele>1290.247</ele>
        <time>2021-03-13T09:38:40Z</time>
      </trkpt>
      <trkpt lat="42.8506" lon="0.91349">
        <ele>1290.256</ele>
        <time>2021-03-13T09:38:42Z</time>
      </trkpt>
      <trkpt lat="42.8506" lon="0.91349">
        <ele>1290.253</ele>
        <time>2021-03-13T09:38:44Z</time>
      </trkpt>
      <trkpt lat="42.8506" lon="0.91349">
        <ele>1290.254</ele>
        <time>2021-03-13T09:38:46Z</time>
      </trkpt>
      <trkpt lat="42.85059" lon="0.91348">
        <ele>1290.757</ele>
        <time>2021-03-13T09:38:48Z</time>
      </trkpt>
      <trkpt lat="42.85059" lon="0.91347">
        <ele>1291.745</ele>
        <time>2021-03-13T09:38:50Z</time>
      </trkpt>
      <trkpt lat="42.8506" lon="0.91347">
        <ele>1291.512</ele>
        <time>2021-03-13T09:38:52Z</time>
      </trkpt>
      <trkpt lat="42.85061" lon="0.91346">
        <ele>1291.543</ele>
        <time>2021-03-13T09:38:54Z</time>
      </trkpt>
      <trkpt lat="42.85061" lon="0.91346">
        <ele>1292.214</ele>
        <time>2021-03-13T09:38:56Z</time>
      </trkpt>
      <trkpt lat="42.85062" lon="0.91347">
        <ele>1292.869</ele>
        <time>2021-03-13T09:38:58Z</time>
      </trkpt>
      <trkpt lat="42.85062" lon="0.91347">
        <ele>1292.88</ele>
        <time>2021-03-13T09:39:00Z</time>
      </trkpt>
      <trkpt lat="42.85062" lon="0.91347">
        <ele>1292.792</ele>
        <time>2021-03-13T09:39:02Z</time>
      </trkpt>
      <trkpt lat="42.85062" lon="0.91348">
        <ele>1292.766</ele>
        <time>2021-03-13T09:39:04Z</time>
      </trkpt>
      <trkpt lat="42.85062" lon="0.91348">
        <ele>1292.772</ele>
        <time>2021-03-13T09:39:06Z</time>
      </trkpt>
      <trkpt lat="42.85062" lon="0.91348">
        <ele>1292.772</ele>
        <time>2021-03-13T09:39:08Z</time>
      </trkpt>
      <trkpt lat="42.85062" lon="0.91347">
        <ele>1292.364</ele>
        <time>2021-03-13T09:39:10Z</time>
      </trkpt>
      <trkpt lat="42.85063" lon="0.91347">
        <ele>1292.316</ele>
        <time>2021-03-13T09:39:12Z</time>
      </trkpt>
      <trkpt lat="42.85063" lon="0.91347">
        <ele>1292.304</ele>
        <time>2021-03-13T09:39:14Z</time>
      </trkpt>
      <trkpt lat="42.85063" lon="0.91347">
        <ele>1291.705</ele>
        <time>2021-03-13T09:39:16Z</time>
      </trkpt>
      <trkpt lat="42.85064" lon="0.91347">
        <ele>1292.251</ele>
        <time>2021-03-13T09:39:18Z</time>
      </trkpt>
      <trkpt lat="42.85065" lon="0.91346">
        <ele>1292.1</ele>
        <time>2021-03-13T09:39:20Z</time>
      </trkpt>
      <trkpt lat="42.85066" lon="0.91344">
        <ele>1291.97</ele>
        <time>2021-03-13T09:39:22Z</time>
      </trkpt>
      <trkpt lat="42.85067" lon="0.91343">
        <ele>1291.008</ele>
        <time>2021-03-13T09:39:24Z</time>
      </trkpt>
      <trkpt lat="42.85069" lon="0.91342">
        <ele>1291.21</ele>
        <time>2021-03-13T09:39:26Z</time>
      </trkpt>
      <trkpt lat="42.8507" lon="0.91342">
        <ele>1290.981</ele>
        <time>2021-03-13T09:39:28Z</time>
      </trkpt>
      <trkpt lat="42.85071" lon="0.91342">
        <ele>1290.32</ele>
        <time>2021-03-13T09:39:30Z</time>
      </trkpt>
      <trkpt lat="42.85072" lon="0.91342">
        <ele>1289.47</ele>
        <time>2021-03-13T09:39:32Z</time>
      </trkpt>
      <trkpt lat="42.85073" lon="0.91342">
        <ele>1289.065</ele>
        <time>2021-03-13T09:39:34Z</time>
      </trkpt>
      <trkpt lat="42.85075" lon="0.91342">
        <ele>1289.095</ele>
        <time>2021-03-13T09:39:36Z</time>
      </trkpt>
      <trkpt lat="42.85076" lon="0.91342">
        <ele>1288.567</ele>
        <time>2021-03-13T09:39:38Z</time>
      </trkpt>
      <trkpt lat="42.85077" lon="0.9134">
        <ele>1288.234</ele>
        <time>2021-03-13T09:39:40Z</time>
      </trkpt>
      <trkpt lat="42.85078" lon="0.9134">
        <ele>1287.521</ele>
        <time>2021-03-13T09:39:42Z</time>
      </trkpt>
      <trkpt lat="42.85079" lon="0.91337">
        <ele>1287.515</ele>
        <time>2021-03-13T09:39:44Z</time>
      </trkpt>
      <trkpt lat="42.8508" lon="0.91335">
        <ele>1287.18</ele>
        <time>2021-03-13T09:39:46Z</time>
      </trkpt>
      <trkpt lat="42.8508" lon="0.91334">
        <ele>1286.877</ele>
        <time>2021-03-13T09:39:48Z</time>
      </trkpt>
      <trkpt lat="42.85079" lon="0.91333">
        <ele>1287.011</ele>
        <time>2021-03-13T09:39:50Z</time>
      </trkpt>
      <trkpt lat="42.85079" lon="0.91333">
        <ele>1286.674</ele>
        <time>2021-03-13T09:39:52Z</time>
      </trkpt>
      <trkpt lat="42.85079" lon="0.9133">
        <ele>1286.191</ele>
        <time>2021-03-13T09:39:54Z</time>
      </trkpt>
      <trkpt lat="42.85079" lon="0.91327">
        <ele>1286.278</ele>
        <time>2021-03-13T09:39:56Z</time>
      </trkpt>
      <trkpt lat="42.8508" lon="0.91326">
        <ele>1287.033</ele>
        <time>2021-03-13T09:39:58Z</time>
      </trkpt>
      <trkpt lat="42.8508" lon="0.91325">
        <ele>1286.942</ele>
        <time>2021-03-13T09:40:00Z</time>
      </trkpt>
      <trkpt lat="42.85081" lon="0.91324">
        <ele>1287.249</ele>
        <time>2021-03-13T09:40:02Z</time>
      </trkpt>
      <trkpt lat="42.85083" lon="0.91322">
        <ele>1286.107</ele>
        <time>2021-03-13T09:40:04Z</time>
      </trkpt>
      <trkpt lat="42.85084" lon="0.91321">
        <ele>1286.035</ele>
        <time>2021-03-13T09:40:06Z</time>
      </trkpt>
      <trkpt lat="42.85084" lon="0.9132">
        <ele>1285.834</ele>
        <time>2021-03-13T09:40:08Z</time>
      </trkpt>
      <trkpt lat="42.85084" lon="0.91318">
        <ele>1285.491</ele>
        <time>2021-03-13T09:40:10Z</time>
      </trkpt>
      <trkpt lat="42.85084" lon="0.91317">
        <ele>1285.411</ele>
        <time>2021-03-13T09:40:12Z</time>
      </trkpt>
      <trkpt lat="42.85085" lon="0.91316">
        <ele>1283.793</ele>
        <time>2021-03-13T09:40:14Z</time>
      </trkpt>
      <trkpt lat="42.85086" lon="0.91316">
        <ele>1284.177</ele>
        <time>2021-03-13T09:40:16Z</time>
      </trkpt>
      <trkpt lat="42.85088" lon="0.91315">
        <ele>1283.505</ele>
        <time>2021-03-13T09:40:18Z</time>
      </trkpt>
      <trkpt lat="42.8509" lon="0.91315">
        <ele>1283.318</ele>
        <time>2021-03-13T09:40:20Z</time>
      </trkpt>
      <trkpt lat="42.85089" lon="0.91315">
        <ele>1281.92</ele>
        <time>2021-03-13T09:40:22Z</time>
      </trkpt>
      <trkpt lat="42.8509" lon="0.91314">
        <ele>1281.768</ele>
        <time>2021-03-13T09:40:24Z</time>
      </trkpt>
      <trkpt lat="42.85091" lon="0.91313">
        <ele>1281.669</ele>
        <time>2021-03-13T09:40:26Z</time>
      </trkpt>
      <trkpt lat="42.85092" lon="0.91313">
        <ele>1281.435</ele>
        <time>2021-03-13T09:40:28Z</time>
      </trkpt>
      <trkpt lat="42.85093" lon="0.91312">
        <ele>1281.213</ele>
        <time>2021-03-13T09:40:30Z</time>
      </trkpt>
      <trkpt lat="42.85093" lon="0.91311">
        <ele>1280.428</ele>
        <time>2021-03-13T09:40:32Z</time>
      </trkpt>
      <trkpt lat="42.85095" lon="0.9131">
        <ele>1279.441</ele>
        <time>2021-03-13T09:40:34Z</time>
      </trkpt>
      <trkpt lat="42.85097" lon="0.91309">
        <ele>1280.332</ele>
        <time>2021-03-13T09:40:36Z</time>
      </trkpt>
      <trkpt lat="42.85097" lon="0.9131">
        <ele>1279.896</ele>
        <time>2021-03-13T09:40:38Z</time>
      </trkpt>
      <trkpt lat="42.85096" lon="0.91311">
        <ele>1279.889</ele>
        <time>2021-03-13T09:40:40Z</time>
      </trkpt>
      <trkpt lat="42.85098" lon="0.91312">
        <ele>1280.061</ele>
        <time>2021-03-13T09:40:42Z</time>
      </trkpt>
      <trkpt lat="42.851" lon="0.91313">
        <ele>1281.048</ele>
        <time>2021-03-13T09:40:44Z</time>
      </trkpt>
      <trkpt lat="42.85102" lon="0.91313">
        <ele>1281.365</ele>
        <time>2021-03-13T09:40:46Z</time>
      </trkpt>
      <trkpt lat="42.85103" lon="0.91313">
        <ele>1281.945</ele>
        <time>2021-03-13T09:40:48Z</time>
      </trkpt>
      <trkpt lat="42.85103" lon="0.91314">
        <ele>1282.597</ele>
        <time>2021-03-13T09:40:50Z</time>
      </trkpt>
      <trkpt lat="42.85104" lon="0.91315">
        <ele>1282.568</ele>
        <time>2021-03-13T09:40:52Z</time>
      </trkpt>
      <trkpt lat="42.85105" lon="0.91316">
        <ele>1283.17</ele>
        <time>2021-03-13T09:40:54Z</time>
      </trkpt>
      <trkpt lat="42.85106" lon="0.91314">
        <ele>1282.77</ele>
        <time>2021-03-13T09:40:56Z</time>
      </trkpt>
      <trkpt lat="42.85106" lon="0.91314">
        <ele>1282.64</ele>
        <time>2021-03-13T09:40:58Z</time>
      </trkpt>
      <trkpt lat="42.85106" lon="0.91313">
        <ele>1281.814</ele>
        <time>2021-03-13T09:41:00Z</time>
      </trkpt>
      <trkpt lat="42.85106" lon="0.91313">
        <ele>1281.805</ele>
        <time>2021-03-13T09:41:02Z</time>
      </trkpt>
      <trkpt lat="42.85106" lon="0.91313">
        <ele>1281.82</ele>
        <time>2021-03-13T09:41:04Z</time>
      </trkpt>
      <trkpt lat="42.85106" lon="0.91313">
        <ele>1281.793</ele>
        <time>2021-03-13T09:41:06Z</time>
      </trkpt>
      <trkpt lat="42.85106" lon="0.91313">
        <ele>1281.803</ele>
        <time>2021-03-13T09:41:08Z</time>
      </trkpt>
      <trkpt lat="42.85106" lon="0.91313">
        <ele>1282.574</ele>
        <time>2021-03-13T09:41:10Z</time>
      </trkpt>
      <trkpt lat="42.85107" lon="0.91312">
        <ele>1281.019</ele>
        <time>2021-03-13T09:41:12Z</time>
      </trkpt>
      <trkpt lat="42.85108" lon="0.91311">
        <ele>1280.661</ele>
        <time>2021-03-13T09:41:14Z</time>
      </trkpt>
      <trkpt lat="42.85108" lon="0.9131">
        <ele>1280.232</ele>
        <time>2021-03-13T09:41:16Z</time>
      </trkpt>
      <trkpt lat="42.85109" lon="0.9131">
        <ele>1280.678</ele>
        <time>2021-03-13T09:41:18Z</time>
      </trkpt>
      <trkpt lat="42.8511" lon="0.91308">
        <ele>1280.606</ele>
        <time>2021-03-13T09:41:20Z</time>
      </trkpt>
      <trkpt lat="42.8511" lon="0.91306">
        <ele>1280.304</ele>
        <time>2021-03-13T09:41:22Z</time>
      </trkpt>
      <trkpt lat="42.85109" lon="0.91304">
        <ele>1279.882</ele>
        <time>2021-03-13T09:41:24Z</time>
      </trkpt>
      <trkpt lat="42.85108" lon="0.91304">
        <ele>1279.772</ele>
        <time>2021-03-13T09:41:26Z</time>
      </trkpt>
      <trkpt lat="42.85108" lon="0.91304">
        <ele>1279.784</ele>
        <time>2021-03-13T09:41:28Z</time>
      </trkpt>
      <trkpt lat="42.85108" lon="0.91304">
        <ele>1279.779</ele>
        <time>2021-03-13T09:41:30Z</time>
      </trkpt>
      <trkpt lat="42.85108" lon="0.91304">
        <ele>1279.787</ele>
        <time>2021-03-13T09:41:32Z</time>
      </trkpt>
      <trkpt lat="42.85108" lon="0.91303">
        <ele>1279.476</ele>
        <time>2021-03-13T09:41:34Z</time>
      </trkpt>
      <trkpt lat="42.85108" lon="0.91302">
        <ele>1279.483</ele>
        <time>2021-03-13T09:41:36Z</time>
      </trkpt>
      <trkpt lat="42.85108" lon="0.91301">
        <ele>1279.341</ele>
        <time>2021-03-13T09:41:38Z</time>
      </trkpt>
      <trkpt lat="42.85108" lon="0.91301">
        <ele>1279.119</ele>
        <time>2021-03-13T09:41:40Z</time>
      </trkpt>
      <trkpt lat="42.85107" lon="0.91301">
        <ele>1278.581</ele>
        <time>2021-03-13T09:41:42Z</time>
      </trkpt>
      <trkpt lat="42.85107" lon="0.91299">
        <ele>1278.024</ele>
        <time>2021-03-13T09:41:44Z</time>
      </trkpt>
      <trkpt lat="42.85108" lon="0.913">
        <ele>1278.126</ele>
        <time>2021-03-13T09:41:46Z</time>
      </trkpt>
      <trkpt lat="42.8511" lon="0.913">
        <ele>1278.667</ele>
        <time>2021-03-13T09:41:48Z</time>
      </trkpt>
      <trkpt lat="42.85112" lon="0.913">
        <ele>1278.96</ele>
        <time>2021-03-13T09:41:50Z</time>
      </trkpt>
      <trkpt lat="42.85113" lon="0.91299">
        <ele>1278.685</ele>
        <time>2021-03-13T09:41:52Z</time>
      </trkpt>
      <trkpt lat="42.85113" lon="0.913">
        <ele>1278.747</ele>
        <time>2021-03-13T09:41:54Z</time>
      </trkpt>
      <trkpt lat="42.85115" lon="0.91299">
        <ele>1279.578</ele>
        <time>2021-03-13T09:41:56Z</time>
      </trkpt>
      <trkpt lat="42.85115" lon="0.91301">
        <ele>1280.687</ele>
        <time>2021-03-13T09:41:58Z</time>
      </trkpt>
      <trkpt lat="42.85116" lon="0.91304">
        <ele>1282.563</ele>
        <time>2021-03-13T09:42:00Z</time>
      </trkpt>
      <trkpt lat="42.85116" lon="0.91306">
        <ele>1284.351</ele>
        <time>2021-03-13T09:42:02Z</time>
      </trkpt>
      <trkpt lat="42.85117" lon="0.91307">
        <ele>1284.719</ele>
        <time>2021-03-13T09:42:04Z</time>
      </trkpt>
      <trkpt lat="42.85117" lon="0.9131">
        <ele>1286.081</ele>
        <time>2021-03-13T09:42:06Z</time>
      </trkpt>
      <trkpt lat="42.85118" lon="0.91312">
        <ele>1286.524</ele>
        <time>2021-03-13T09:42:08Z</time>
      </trkpt>
      <trkpt lat="42.85119" lon="0.91313">
        <ele>1286.634</ele>
        <time>2021-03-13T09:42:10Z</time>
      </trkpt>
      <trkpt lat="42.8512" lon="0.91314">
        <ele>1286.32</ele>
        <time>2021-03-13T09:42:12Z</time>
      </trkpt>
      <trkpt lat="42.85121" lon="0.91315">
        <ele>1286.379</ele>
        <time>2021-03-13T09:42:14Z</time>
      </trkpt>
      <trkpt lat="42.85122" lon="0.91317">
        <ele>1285.71</ele>
        <time>2021-03-13T09:42:16Z</time>
      </trkpt>
      <trkpt lat="42.85122" lon="0.91318">
        <ele>1285.805</ele>
        <time>2021-03-13T09:42:18Z</time>
      </trkpt>
      <trkpt lat="42.85123" lon="0.91318">
        <ele>1286.832</ele>
        <time>2021-03-13T09:42:20Z</time>
      </trkpt>
      <trkpt lat="42.85124" lon="0.91319">
        <ele>1287.095</ele>
        <time>2021-03-13T09:42:22Z</time>
      </trkpt>
      <trkpt lat="42.85125" lon="0.91319">
        <ele>1288.074</ele>
        <time>2021-03-13T09:42:24Z</time>
      </trkpt>
      <trkpt lat="42.85126" lon="0.91319">
        <ele>1288.159</ele>
        <time>2021-03-13T09:42:26Z</time>
      </trkpt>
      <trkpt lat="42.85127" lon="0.91319">
        <ele>1289.269</ele>
        <time>2021-03-13T09:42:28Z</time>
      </trkpt>
      <trkpt lat="42.85127" lon="0.91318">
        <ele>1287.786</ele>
        <time>2021-03-13T09:42:30Z</time>
      </trkpt>
      <trkpt lat="42.85127" lon="0.91318">
        <ele>1287.782</ele>
        <time>2021-03-13T09:42:32Z</time>
      </trkpt>
      <trkpt lat="42.85127" lon="0.91318">
        <ele>1287.254</ele>
        <time>2021-03-13T09:42:34Z</time>
      </trkpt>
      <trkpt lat="42.85128" lon="0.91318">
        <ele>1287.893</ele>
        <time>2021-03-13T09:42:36Z</time>
      </trkpt>
      <trkpt lat="42.85129" lon="0.91318">
        <ele>1287.299</ele>
        <time>2021-03-13T09:42:38Z</time>
      </trkpt>
      <trkpt lat="42.8513" lon="0.91318">
        <ele>1288.175</ele>
        <time>2021-03-13T09:42:40Z</time>
      </trkpt>
      <trkpt lat="42.85131" lon="0.91318">
        <ele>1288.89</ele>
        <time>2021-03-13T09:42:42Z</time>
      </trkpt>
      <trkpt lat="42.85131" lon="0.91317">
        <ele>1288.665</ele>
        <time>2021-03-13T09:42:44Z</time>
      </trkpt>
      <trkpt lat="42.85131" lon="0.91316">
        <ele>1287.936</ele>
        <time>2021-03-13T09:42:46Z</time>
      </trkpt>
      <trkpt lat="42.8513" lon="0.91314">
        <ele>1287.056</ele>
        <time>2021-03-13T09:42:48Z</time>
      </trkpt>
      <trkpt lat="42.8513" lon="0.91313">
        <ele>1287.471</ele>
        <time>2021-03-13T09:42:50Z</time>
      </trkpt>
      <trkpt lat="42.8513" lon="0.91312">
        <ele>1287.886</ele>
        <time>2021-03-13T09:42:52Z</time>
      </trkpt>
      <trkpt lat="42.8513" lon="0.9131">
        <ele>1288.376</ele>
        <time>2021-03-13T09:42:54Z</time>
      </trkpt>
      <trkpt lat="42.8513" lon="0.91308">
        <ele>1289.236</ele>
        <time>2021-03-13T09:42:56Z</time>
      </trkpt>
      <trkpt lat="42.8513" lon="0.91306">
        <ele>1288.412</ele>
        <time>2021-03-13T09:42:58Z</time>
      </trkpt>
      <trkpt lat="42.85131" lon="0.91305">
        <ele>1288.324</ele>
        <time>2021-03-13T09:43:00Z</time>
      </trkpt>
      <trkpt lat="42.85131" lon="0.91304">
        <ele>1287.393</ele>
        <time>2021-03-13T09:43:02Z</time>
      </trkpt>
      <trkpt lat="42.85131" lon="0.91303">
        <ele>1288.22</ele>
        <time>2021-03-13T09:43:04Z</time>
      </trkpt>
      <trkpt lat="42.85131" lon="0.91302">
        <ele>1289.357</ele>
        <time>2021-03-13T09:43:06Z</time>
      </trkpt>
      <trkpt lat="42.85131" lon="0.91302">
        <ele>1289.114</ele>
        <time>2021-03-13T09:43:08Z</time>
      </trkpt>
      <trkpt lat="42.85131" lon="0.91303">
        <ele>1289.102</ele>
        <time>2021-03-13T09:43:10Z</time>
      </trkpt>
      <trkpt lat="42.85131" lon="0.91303">
        <ele>1289.091</ele>
        <time>2021-03-13T09:43:12Z</time>
      </trkpt>
      <trkpt lat="42.85131" lon="0.91303">
        <ele>1289.08</ele>
        <time>2021-03-13T09:43:13Z</time>
      </trkpt>
      <trkpt lat="42.85131" lon="0.91302">
        <ele>1289.027</ele>
        <time>2021-03-13T09:43:19Z</time>
      </trkpt>
      <trkpt lat="42.85131" lon="0.91302">
        <ele>1289.009</ele>
        <time>2021-03-13T09:43:21Z</time>
      </trkpt>
      <trkpt lat="42.85131" lon="0.91302">
        <ele>1288.995</ele>
        <time>2021-03-13T09:43:23Z</time>
      </trkpt>
      <trkpt lat="42.85131" lon="0.91302">
        <ele>1289.362</ele>
        <time>2021-03-13T09:43:25Z</time>
      </trkpt>
      <trkpt lat="42.85132" lon="0.913">
        <ele>1289.624</ele>
        <time>2021-03-13T09:43:27Z</time>
      </trkpt>
      <trkpt lat="42.85133" lon="0.91299">
        <ele>1289.369</ele>
        <time>2021-03-13T09:43:29Z</time>
      </trkpt>
      <trkpt lat="42.85133" lon="0.91297">
        <ele>1289.336</ele>
        <time>2021-03-13T09:43:31Z</time>
      </trkpt>
      <trkpt lat="42.85133" lon="0.91295">
        <ele>1289.067</ele>
        <time>2021-03-13T09:43:33Z</time>
      </trkpt>
      <trkpt lat="42.85132" lon="0.91294">
        <ele>1289.866</ele>
        <time>2021-03-13T09:43:35Z</time>
      </trkpt>
      <trkpt lat="42.85131" lon="0.91292">
        <ele>1290.042</ele>
        <time>2021-03-13T09:43:37Z</time>
      </trkpt>
      <trkpt lat="42.8513" lon="0.91291">
        <ele>1289.485</ele>
        <time>2021-03-13T09:43:39Z</time>
      </trkpt>
      <trkpt lat="42.85129" lon="0.91289">
        <ele>1289.871</ele>
        <time>2021-03-13T09:43:41Z</time>
      </trkpt>
      <trkpt lat="42.85129" lon="0.91287">
        <ele>1290.584</ele>
        <time>2021-03-13T09:43:43Z</time>
      </trkpt>
      <trkpt lat="42.8513" lon="0.91285">
        <ele>1290.916</ele>
        <time>2021-03-13T09:43:45Z</time>
      </trkpt>
      <trkpt lat="42.85129" lon="0.91283">
        <ele>1291.588</ele>
        <time>2021-03-13T09:43:47Z</time>
      </trkpt>
      <trkpt lat="42.85129" lon="0.91281">
        <ele>1290.429</ele>
        <time>2021-03-13T09:43:49Z</time>
      </trkpt>
      <trkpt lat="42.85128" lon="0.91279">
        <ele>1291.095</ele>
        <time>2021-03-13T09:43:51Z</time>
      </trkpt>
      <trkpt lat="42.85127" lon="0.91278">
        <ele>1289.994</ele>
        <time>2021-03-13T09:43:53Z</time>
      </trkpt>
      <trkpt lat="42.85127" lon="0.91277">
        <ele>1290.219</ele>
        <time>2021-03-13T09:43:55Z</time>
      </trkpt>
      <trkpt lat="42.85129" lon="0.91275">
        <ele>1290.39</ele>
        <time>2021-03-13T09:43:57Z</time>
      </trkpt>
      <trkpt lat="42.8513" lon="0.91274">
        <ele>1291.219</ele>
        <time>2021-03-13T09:43:59Z</time>
      </trkpt>
      <trkpt lat="42.85132" lon="0.91274">
        <ele>1291.857</ele>
        <time>2021-03-13T09:44:01Z</time>
      </trkpt>
      <trkpt lat="42.85132" lon="0.91273">
        <ele>1292.866</ele>
        <time>2021-03-13T09:44:03Z</time>
      </trkpt>
      <trkpt lat="42.85133" lon="0.91272">
        <ele>1293.146</ele>
        <time>2021-03-13T09:44:05Z</time>
      </trkpt>
      <trkpt lat="42.85134" lon="0.91271">
        <ele>1293.71</ele>
        <time>2021-03-13T09:44:07Z</time>
      </trkpt>
      <trkpt lat="42.85134" lon="0.9127">
        <ele>1293.501</ele>
        <time>2021-03-13T09:44:09Z</time>
      </trkpt>
      <trkpt lat="42.85134" lon="0.91269">
        <ele>1292.189</ele>
        <time>2021-03-13T09:44:11Z</time>
      </trkpt>
      <trkpt lat="42.85134" lon="0.91267">
        <ele>1292.82</ele>
        <time>2021-03-13T09:44:13Z</time>
      </trkpt>
      <trkpt lat="42.85135" lon="0.91266">
        <ele>1293.31</ele>
        <time>2021-03-13T09:44:15Z</time>
      </trkpt>
      <trkpt lat="42.85135" lon="0.91265">
        <ele>1293.776</ele>
        <time>2021-03-13T09:44:17Z</time>
      </trkpt>
      <trkpt lat="42.85135" lon="0.91263">
        <ele>1294.205</ele>
        <time>2021-03-13T09:44:19Z</time>
      </trkpt>
      <trkpt lat="42.85134" lon="0.91262">
        <ele>1294.837</ele>
        <time>2021-03-13T09:44:21Z</time>
      </trkpt>
      <trkpt lat="42.85134" lon="0.9126">
        <ele>1295.434</ele>
        <time>2021-03-13T09:44:23Z</time>
      </trkpt>
      <trkpt lat="42.85135" lon="0.91259">
        <ele>1296.653</ele>
        <time>2021-03-13T09:44:25Z</time>
      </trkpt>
      <trkpt lat="42.85135" lon="0.91258">
        <ele>1296.946</ele>
        <time>2021-03-13T09:44:27Z</time>
      </trkpt>
      <trkpt lat="42.85136" lon="0.91257">
        <ele>1296.666</ele>
        <time>2021-03-13T09:44:29Z</time>
      </trkpt>
      <trkpt lat="42.85136" lon="0.91255">
        <ele>1296.945</ele>
        <time>2021-03-13T09:44:31Z</time>
      </trkpt>
      <trkpt lat="42.85137" lon="0.91255">
        <ele>1296.572</ele>
        <time>2021-03-13T09:44:33Z</time>
      </trkpt>
      <trkpt lat="42.85138" lon="0.91255">
        <ele>1296.64</ele>
        <time>2021-03-13T09:44:35Z</time>
      </trkpt>
      <trkpt lat="42.85139" lon="0.91256">
        <ele>1296.667</ele>
        <time>2021-03-13T09:44:37Z</time>
      </trkpt>
      <trkpt lat="42.85139" lon="0.91257">
        <ele>1296.847</ele>
        <time>2021-03-13T09:44:39Z</time>
      </trkpt>
      <trkpt lat="42.8514" lon="0.91258">
        <ele>1296.94</ele>
        <time>2021-03-13T09:44:41Z</time>
      </trkpt>
      <trkpt lat="42.85141" lon="0.91258">
        <ele>1297.279</ele>
        <time>2021-03-13T09:44:43Z</time>
      </trkpt>
      <trkpt lat="42.85142" lon="0.91259">
        <ele>1298.926</ele>
        <time>2021-03-13T09:44:45Z</time>
      </trkpt>
      <trkpt lat="42.85143" lon="0.91259">
        <ele>1299.181</ele>
        <time>2021-03-13T09:44:47Z</time>
      </trkpt>
      <trkpt lat="42.85145" lon="0.9126">
        <ele>1299.925</ele>
        <time>2021-03-13T09:44:49Z</time>
      </trkpt>
      <trkpt lat="42.85146" lon="0.9126">
        <ele>1300.376</ele>
        <time>2021-03-13T09:44:51Z</time>
      </trkpt>
      <trkpt lat="42.85147" lon="0.9126">
        <ele>1300.5</ele>
        <time>2021-03-13T09:44:53Z</time>
      </trkpt>
      <trkpt lat="42.85148" lon="0.91259">
        <ele>1301.002</ele>
        <time>2021-03-13T09:44:55Z</time>
      </trkpt>
      <trkpt lat="42.85148" lon="0.91258">
        <ele>1302.857</ele>
        <time>2021-03-13T09:44:57Z</time>
      </trkpt>
      <trkpt lat="42.85149" lon="0.91258">
        <ele>1303.018</ele>
        <time>2021-03-13T09:44:59Z</time>
      </trkpt>
      <trkpt lat="42.85149" lon="0.91258">
        <ele>1303.276</ele>
        <time>2021-03-13T09:45:01Z</time>
      </trkpt>
      <trkpt lat="42.85149" lon="0.91257">
        <ele>1303.546</ele>
        <time>2021-03-13T09:45:03Z</time>
      </trkpt>
      <trkpt lat="42.85149" lon="0.91257">
        <ele>1304.047</ele>
        <time>2021-03-13T09:45:05Z</time>
      </trkpt>
      <trkpt lat="42.8515" lon="0.91255">
        <ele>1303.112</ele>
        <time>2021-03-13T09:45:07Z</time>
      </trkpt>
      <trkpt lat="42.85151" lon="0.91254">
        <ele>1305.083</ele>
        <time>2021-03-13T09:45:09Z</time>
      </trkpt>
      <trkpt lat="42.85152" lon="0.91254">
        <ele>1304.984</ele>
        <time>2021-03-13T09:45:11Z</time>
      </trkpt>
      <trkpt lat="42.85152" lon="0.91252">
        <ele>1305.557</ele>
        <time>2021-03-13T09:45:13Z</time>
      </trkpt>
      <trkpt lat="42.85152" lon="0.91252">
        <ele>1305.341</ele>
        <time>2021-03-13T09:45:15Z</time>
      </trkpt>
      <trkpt lat="42.85152" lon="0.91252">
        <ele>1305.427</ele>
        <time>2021-03-13T09:45:17Z</time>
      </trkpt>
      <trkpt lat="42.85153" lon="0.91251">
        <ele>1306.268</ele>
        <time>2021-03-13T09:45:19Z</time>
      </trkpt>
      <trkpt lat="42.85154" lon="0.91251">
        <ele>1306.921</ele>
        <time>2021-03-13T09:45:21Z</time>
      </trkpt>
      <trkpt lat="42.85154" lon="0.91252">
        <ele>1308.508</ele>
        <time>2021-03-13T09:45:23Z</time>
      </trkpt>
      <trkpt lat="42.85155" lon="0.91251">
        <ele>1309.011</ele>
        <time>2021-03-13T09:45:25Z</time>
      </trkpt>
      <trkpt lat="42.85156" lon="0.91251">
        <ele>1309.873</ele>
        <time>2021-03-13T09:45:27Z</time>
      </trkpt>
      <trkpt lat="42.85156" lon="0.91251">
        <ele>1310.173</ele>
        <time>2021-03-13T09:45:29Z</time>
      </trkpt>
      <trkpt lat="42.85157" lon="0.91252">
        <ele>1310.353</ele>
        <time>2021-03-13T09:45:31Z</time>
      </trkpt>
      <trkpt lat="42.85157" lon="0.91252">
        <ele>1311.783</ele>
        <time>2021-03-13T09:45:33Z</time>
      </trkpt>
      <trkpt lat="42.85158" lon="0.91251">
        <ele>1312.664</ele>
        <time>2021-03-13T09:45:35Z</time>
      </trkpt>
      <trkpt lat="42.85159" lon="0.9125">
        <ele>1312.53</ele>
        <time>2021-03-13T09:45:37Z</time>
      </trkpt>
      <trkpt lat="42.8516" lon="0.9125">
        <ele>1313.983</ele>
        <time>2021-03-13T09:45:39Z</time>
      </trkpt>
      <trkpt lat="42.8516" lon="0.9125">
        <ele>1314.11</ele>
        <time>2021-03-13T09:45:41Z</time>
      </trkpt>
      <trkpt lat="42.8516" lon="0.91249">
        <ele>1314.7</ele>
        <time>2021-03-13T09:45:43Z</time>
      </trkpt>
      <trkpt lat="42.8516" lon="0.91249">
        <ele>1315.031</ele>
        <time>2021-03-13T09:45:45Z</time>
      </trkpt>
      <trkpt lat="42.8516" lon="0.91249">
        <ele>1315.028</ele>
        <time>2021-03-13T09:45:47Z</time>
      </trkpt>
      <trkpt lat="42.8516" lon="0.91249">
        <ele>1315.009</ele>
        <time>2021-03-13T09:45:49Z</time>
      </trkpt>
      <trkpt lat="42.8516" lon="0.91249">
        <ele>1314.974</ele>
        <time>2021-03-13T09:45:51Z</time>
      </trkpt>
      <trkpt lat="42.8516" lon="0.91249">
        <ele>1314.975</ele>
        <time>2021-03-13T09:45:53Z</time>
      </trkpt>
      <trkpt lat="42.8516" lon="0.91249">
        <ele>1315.25</ele>
        <time>2021-03-13T09:45:55Z</time>
      </trkpt>
      <trkpt lat="42.85161" lon="0.91248">
        <ele>1316.199</ele>
        <time>2021-03-13T09:45:57Z</time>
      </trkpt>
      <trkpt lat="42.85161" lon="0.91248">
        <ele>1316.876</ele>
        <time>2021-03-13T09:45:59Z</time>
      </trkpt>
      <trkpt lat="42.85162" lon="0.91248">
        <ele>1317.395</ele>
        <time>2021-03-13T09:46:01Z</time>
      </trkpt>
      <trkpt lat="42.85163" lon="0.91248">
        <ele>1317.508</ele>
        <time>2021-03-13T09:46:03Z</time>
      </trkpt>
      <trkpt lat="42.85163" lon="0.91247">
        <ele>1318.138</ele>
        <time>2021-03-13T09:46:05Z</time>
      </trkpt>
      <trkpt lat="42.85164" lon="0.91246">
        <ele>1318.436</ele>
        <time>2021-03-13T09:46:07Z</time>
      </trkpt>
      <trkpt lat="42.85165" lon="0.91245">
        <ele>1317.101</ele>
        <time>2021-03-13T09:46:09Z</time>
      </trkpt>
      <trkpt lat="42.85165" lon="0.91244">
        <ele>1317.444</ele>
        <time>2021-03-13T09:46:11Z</time>
      </trkpt>
      <trkpt lat="42.85165" lon="0.91244">
        <ele>1318.255</ele>
        <time>2021-03-13T09:46:13Z</time>
      </trkpt>
      <trkpt lat="42.85166" lon="0.91244">
        <ele>1319.083</ele>
        <time>2021-03-13T09:46:15Z</time>
      </trkpt>
      <trkpt lat="42.85167" lon="0.91244">
        <ele>1320.301</ele>
        <time>2021-03-13T09:46:17Z</time>
      </trkpt>
      <trkpt lat="42.85168" lon="0.91244">
        <ele>1321.627</ele>
        <time>2021-03-13T09:46:19Z</time>
      </trkpt>
      <trkpt lat="42.85168" lon="0.91243">
        <ele>1322.256</ele>
        <time>2021-03-13T09:46:21Z</time>
      </trkpt>
      <trkpt lat="42.85169" lon="0.91243">
        <ele>1322.72</ele>
        <time>2021-03-13T09:46:23Z</time>
      </trkpt>
      <trkpt lat="42.8517" lon="0.91244">
        <ele>1324.031</ele>
        <time>2021-03-13T09:46:25Z</time>
      </trkpt>
      <trkpt lat="42.85171" lon="0.91244">
        <ele>1325.203</ele>
        <time>2021-03-13T09:46:27Z</time>
      </trkpt>
      <trkpt lat="42.85172" lon="0.91243">
        <ele>1325.988</ele>
        <time>2021-03-13T09:46:29Z</time>
      </trkpt>
      <trkpt lat="42.85173" lon="0.91243">
        <ele>1326.51</ele>
        <time>2021-03-13T09:46:31Z</time>
      </trkpt>
      <trkpt lat="42.85173" lon="0.91243">
        <ele>1326.242</ele>
        <time>2021-03-13T09:46:33Z</time>
      </trkpt>
      <trkpt lat="42.85174" lon="0.91244">
        <ele>1325.271</ele>
        <time>2021-03-13T09:46:35Z</time>
      </trkpt>
      <trkpt lat="42.85175" lon="0.91245">
        <ele>1326.45</ele>
        <time>2021-03-13T09:46:37Z</time>
      </trkpt>
      <trkpt lat="42.85175" lon="0.91246">
        <ele>1327.011</ele>
        <time>2021-03-13T09:46:39Z</time>
      </trkpt>
      <trkpt lat="42.85176" lon="0.91248">
        <ele>1326.991</ele>
        <time>2021-03-13T09:46:41Z</time>
      </trkpt>
      <trkpt lat="42.85177" lon="0.91249">
        <ele>1327.141</ele>
        <time>2021-03-13T09:46:43Z</time>
      </trkpt>
      <trkpt lat="42.85178" lon="0.91251">
        <ele>1328.444</ele>
        <time>2021-03-13T09:46:45Z</time>
      </trkpt>
      <trkpt lat="42.85179" lon="0.91253">
        <ele>1328.017</ele>
        <time>2021-03-13T09:46:47Z</time>
      </trkpt>
      <trkpt lat="42.85181" lon="0.91255">
        <ele>1328.548</ele>
        <time>2021-03-13T09:46:49Z</time>
      </trkpt>
      <trkpt lat="42.85181" lon="0.91254">
        <ele>1326.683</ele>
        <time>2021-03-13T09:46:51Z</time>
      </trkpt>
      <trkpt lat="42.85181" lon="0.91254">
        <ele>1326.72</ele>
        <time>2021-03-13T09:46:53Z</time>
      </trkpt>
      <trkpt lat="42.85181" lon="0.91254">
        <ele>1326.747</ele>
        <time>2021-03-13T09:46:55Z</time>
      </trkpt>
      <trkpt lat="42.85181" lon="0.91254">
        <ele>1326.78</ele>
        <time>2021-03-13T09:46:57Z</time>
      </trkpt>
      <trkpt lat="42.85181" lon="0.91254">
        <ele>1327.253</ele>
        <time>2021-03-13T09:46:59Z</time>
      </trkpt>
      <trkpt lat="42.85182" lon="0.91256">
        <ele>1328.083</ele>
        <time>2021-03-13T09:47:01Z</time>
      </trkpt>
      <trkpt lat="42.85184" lon="0.91258">
        <ele>1329.386</ele>
        <time>2021-03-13T09:47:03Z</time>
      </trkpt>
      <trkpt lat="42.85185" lon="0.9126">
        <ele>1329.46</ele>
        <time>2021-03-13T09:47:05Z</time>
      </trkpt>
      <trkpt lat="42.85186" lon="0.91262">
        <ele>1329.631</ele>
        <time>2021-03-13T09:47:07Z</time>
      </trkpt>
      <trkpt lat="42.85186" lon="0.91264">
        <ele>1330.47</ele>
        <time>2021-03-13T09:47:09Z</time>
      </trkpt>
      <trkpt lat="42.85188" lon="0.91266">
        <ele>1331.637</ele>
        <time>2021-03-13T09:47:11Z</time>
      </trkpt>
      <trkpt lat="42.85188" lon="0.91267">
        <ele>1331.857</ele>
        <time>2021-03-13T09:47:13Z</time>
      </trkpt>
      <trkpt lat="42.85189" lon="0.91268">
        <ele>1332.397</ele>
        <time>2021-03-13T09:47:15Z</time>
      </trkpt>
      <trkpt lat="42.8519" lon="0.91269">
        <ele>1332.88</ele>
        <time>2021-03-13T09:47:17Z</time>
      </trkpt>
      <trkpt lat="42.85191" lon="0.9127">
        <ele>1334.71</ele>
        <time>2021-03-13T09:47:19Z</time>
      </trkpt>
      <trkpt lat="42.85192" lon="0.91272">
        <ele>1335.727</ele>
        <time>2021-03-13T09:47:21Z</time>
      </trkpt>
      <trkpt lat="42.85193" lon="0.91273">
        <ele>1335.941</ele>
        <time>2021-03-13T09:47:23Z</time>
      </trkpt>
      <trkpt lat="42.85194" lon="0.91274">
        <ele>1336.381</ele>
        <time>2021-03-13T09:47:25Z</time>
      </trkpt>
      <trkpt lat="42.85195" lon="0.91275">
        <ele>1336.476</ele>
        <time>2021-03-13T09:47:27Z</time>
      </trkpt>
      <trkpt lat="42.85196" lon="0.91276">
        <ele>1336.89</ele>
        <time>2021-03-13T09:47:29Z</time>
      </trkpt>
      <trkpt lat="42.85197" lon="0.91277">
        <ele>1336.736</ele>
        <time>2021-03-13T09:47:31Z</time>
      </trkpt>
      <trkpt lat="42.85198" lon="0.91278">
        <ele>1337.406</ele>
        <time>2021-03-13T09:47:33Z</time>
      </trkpt>
      <trkpt lat="42.85199" lon="0.9128">
        <ele>1337.426</ele>
        <time>2021-03-13T09:47:35Z</time>
      </trkpt>
      <trkpt lat="42.852" lon="0.91281">
        <ele>1337.824</ele>
        <time>2021-03-13T09:47:37Z</time>
      </trkpt>
      <trkpt lat="42.85201" lon="0.9128">
        <ele>1337.112</ele>
        <time>2021-03-13T09:47:39Z</time>
      </trkpt>
      <trkpt lat="42.85202" lon="0.91279">
        <ele>1337.537</ele>
        <time>2021-03-13T09:47:41Z</time>
      </trkpt>
      <trkpt lat="42.85201" lon="0.91278">
        <ele>1336.697</ele>
        <time>2021-03-13T09:47:43Z</time>
      </trkpt>
      <trkpt lat="42.85201" lon="0.91278">
        <ele>1336.678</ele>
        <time>2021-03-13T09:47:45Z</time>
      </trkpt>
      <trkpt lat="42.85201" lon="0.91277">
        <ele>1336.66</ele>
        <time>2021-03-13T09:47:47Z</time>
      </trkpt>
      <trkpt lat="42.85201" lon="0.91277">
        <ele>1336.634</ele>
        <time>2021-03-13T09:47:49Z</time>
      </trkpt>
      <trkpt lat="42.85201" lon="0.91277">
        <ele>1336.616</ele>
        <time>2021-03-13T09:47:51Z</time>
      </trkpt>
      <trkpt lat="42.85202" lon="0.91276">
        <ele>1335.401</ele>
        <time>2021-03-13T09:47:53Z</time>
      </trkpt>
      <trkpt lat="42.85202" lon="0.91276">
        <ele>1335.433</ele>
        <time>2021-03-13T09:47:55Z</time>
      </trkpt>
      <trkpt lat="42.85202" lon="0.91276">
        <ele>1335.375</ele>
        <time>2021-03-13T09:47:57Z</time>
      </trkpt>
      <trkpt lat="42.85202" lon="0.91276">
        <ele>1334.496</ele>
        <time>2021-03-13T09:47:58Z</time>
      </trkpt>
      <trkpt lat="42.85201" lon="0.91274">
        <ele>1332.967</ele>
        <time>2021-03-13T09:48:04Z</time>
      </trkpt>
      <trkpt lat="42.85201" lon="0.91274">
        <ele>1332.791</ele>
        <time>2021-03-13T09:48:06Z</time>
      </trkpt>
      <trkpt lat="42.85201" lon="0.91274">
        <ele>1332.616</ele>
        <time>2021-03-13T09:48:08Z</time>
      </trkpt>
      <trkpt lat="42.85201" lon="0.91274">
        <ele>1332.203</ele>
        <time>2021-03-13T09:48:10Z</time>
      </trkpt>
      <trkpt lat="42.85201" lon="0.91273">
        <ele>1331.913</ele>
        <time>2021-03-13T09:48:12Z</time>
      </trkpt>
      <trkpt lat="42.852" lon="0.91273">
        <ele>1332.004</ele>
        <time>2021-03-13T09:48:14Z</time>
      </trkpt>
      <trkpt lat="42.85201" lon="0.91273">
        <ele>1331.976</ele>
        <time>2021-03-13T09:48:16Z</time>
      </trkpt>
      <trkpt lat="42.85201" lon="0.91273">
        <ele>1331.936</ele>
        <time>2021-03-13T09:48:18Z</time>
      </trkpt>
      <trkpt lat="42.85201" lon="0.91273">
        <ele>1331.954</ele>
        <time>2021-03-13T09:48:20Z</time>
      </trkpt>
      <trkpt lat="42.85201" lon="0.91273">
        <ele>1331.96</ele>
        <time>2021-03-13T09:48:22Z</time>
      </trkpt>
      <trkpt lat="42.85201" lon="0.91272">
        <ele>1330.992</ele>
        <time>2021-03-13T09:48:24Z</time>
      </trkpt>
      <trkpt lat="42.852" lon="0.91272">
        <ele>1331.05</ele>
        <time>2021-03-13T09:48:26Z</time>
      </trkpt>
      <trkpt lat="42.85201" lon="0.91272">
        <ele>1331.001</ele>
        <time>2021-03-13T09:48:28Z</time>
      </trkpt>
      <trkpt lat="42.852" lon="0.91272">
        <ele>1331.069</ele>
        <time>2021-03-13T09:48:30Z</time>
      </trkpt>
      <trkpt lat="42.852" lon="0.91272">
        <ele>1331.068</ele>
        <time>2021-03-13T09:48:32Z</time>
      </trkpt>
      <trkpt lat="42.852" lon="0.91272">
        <ele>1331.066</ele>
        <time>2021-03-13T09:48:34Z</time>
      </trkpt>
      <trkpt lat="42.852" lon="0.91272">
        <ele>1331.045</ele>
        <time>2021-03-13T09:48:36Z</time>
      </trkpt>
      <trkpt lat="42.852" lon="0.91272">
        <ele>1331.03</ele>
        <time>2021-03-13T09:48:38Z</time>
      </trkpt>
      <trkpt lat="42.852" lon="0.91273">
        <ele>1330.644</ele>
        <time>2021-03-13T09:48:40Z</time>
      </trkpt>
      <trkpt lat="42.852" lon="0.91273">
        <ele>1330.611</ele>
        <time>2021-03-13T09:48:42Z</time>
      </trkpt>
      <trkpt lat="42.852" lon="0.91272">
        <ele>1330.59</ele>
        <time>2021-03-13T09:48:44Z</time>
      </trkpt>
      <trkpt lat="42.852" lon="0.91272">
        <ele>1330.592</ele>
        <time>2021-03-13T09:48:46Z</time>
      </trkpt>
      <trkpt lat="42.852" lon="0.91272">
        <ele>1330.455</ele>
        <time>2021-03-13T09:48:48Z</time>
      </trkpt>
      <trkpt lat="42.852" lon="0.91272">
        <ele>1330.452</ele>
        <time>2021-03-13T09:48:50Z</time>
      </trkpt>
      <trkpt lat="42.852" lon="0.91272">
        <ele>1330.442</ele>
        <time>2021-03-13T09:48:52Z</time>
      </trkpt>
      <trkpt lat="42.852" lon="0.91272">
        <ele>1330.414</ele>
        <time>2021-03-13T09:48:54Z</time>
      </trkpt>
      <trkpt lat="42.852" lon="0.91272">
        <ele>1330.397</ele>
        <time>2021-03-13T09:48:56Z</time>
      </trkpt>
      <trkpt lat="42.852" lon="0.91272">
        <ele>1330.627</ele>
        <time>2021-03-13T09:48:58Z</time>
      </trkpt>
      <trkpt lat="42.85201" lon="0.91273">
        <ele>1331.307</ele>
        <time>2021-03-13T09:49:00Z</time>
      </trkpt>
      <trkpt lat="42.85202" lon="0.91274">
        <ele>1331.604</ele>
        <time>2021-03-13T09:49:02Z</time>
      </trkpt>
      <trkpt lat="42.85202" lon="0.91273">
        <ele>1331.552</ele>
        <time>2021-03-13T09:49:04Z</time>
      </trkpt>
      <trkpt lat="42.85202" lon="0.91273">
        <ele>1331.571</ele>
        <time>2021-03-13T09:49:06Z</time>
      </trkpt>
      <trkpt lat="42.85202" lon="0.91273">
        <ele>1331.578</ele>
        <time>2021-03-13T09:49:08Z</time>
      </trkpt>
      <trkpt lat="42.85202" lon="0.91273">
        <ele>1331.587</ele>
        <time>2021-03-13T09:49:10Z</time>
      </trkpt>
      <trkpt lat="42.85202" lon="0.91273">
        <ele>1331.595</ele>
        <time>2021-03-13T09:49:12Z</time>
      </trkpt>
      <trkpt lat="42.85202" lon="0.91273">
        <ele>1331.599</ele>
        <time>2021-03-13T09:49:14Z</time>
      </trkpt>
      <trkpt lat="42.85202" lon="0.91273">
        <ele>1331.603</ele>
        <time>2021-03-13T09:49:16Z</time>
      </trkpt>
      <trkpt lat="42.85202" lon="0.91273">
        <ele>1331.605</ele>
        <time>2021-03-13T09:49:18Z</time>
      </trkpt>
      <trkpt lat="42.85202" lon="0.91273">
        <ele>1331.605</ele>
        <time>2021-03-13T09:49:20Z</time>
      </trkpt>
      <trkpt lat="42.85202" lon="0.91273">
        <ele>1331.551</ele>
        <time>2021-03-13T09:49:22Z</time>
      </trkpt>
      <trkpt lat="42.85202" lon="0.91273">
        <ele>1331.419</ele>
        <time>2021-03-13T09:49:24Z</time>
      </trkpt>
      <trkpt lat="42.85202" lon="0.91273">
        <ele>1331.41</ele>
        <time>2021-03-13T09:49:26Z</time>
      </trkpt>
      <trkpt lat="42.85202" lon="0.91273">
        <ele>1331.401</ele>
        <time>2021-03-13T09:49:28Z</time>
      </trkpt>
      <trkpt lat="42.85202" lon="0.91273">
        <ele>1331.403</ele>
        <time>2021-03-13T09:49:30Z</time>
      </trkpt>
      <trkpt lat="42.85202" lon="0.91273">
        <ele>1331.408</ele>
        <time>2021-03-13T09:49:32Z</time>
      </trkpt>
      <trkpt lat="42.85202" lon="0.91273">
        <ele>1331.414</ele>
        <time>2021-03-13T09:49:34Z</time>
      </trkpt>
      <trkpt lat="42.85202" lon="0.91273">
        <ele>1331.418</ele>
        <time>2021-03-13T09:49:36Z</time>
      </trkpt>
      <trkpt lat="42.85202" lon="0.91273">
        <ele>1331.419</ele>
        <time>2021-03-13T09:49:38Z</time>
      </trkpt>
      <trkpt lat="42.85202" lon="0.91273">
        <ele>1331.425</ele>
        <time>2021-03-13T09:49:40Z</time>
      </trkpt>
      <trkpt lat="42.85202" lon="0.91273">
        <ele>1331.429</ele>
        <time>2021-03-13T09:49:42Z</time>
      </trkpt>
      <trkpt lat="42.85202" lon="0.91273">
        <ele>1331.43</ele>
        <time>2021-03-13T09:49:44Z</time>
      </trkpt>
      <trkpt lat="42.85202" lon="0.91273">
        <ele>1331.429</ele>
        <time>2021-03-13T09:49:46Z</time>
      </trkpt>
      <trkpt lat="42.85202" lon="0.91273">
        <ele>1331.426</ele>
        <time>2021-03-13T09:49:48Z</time>
      </trkpt>
      <trkpt lat="42.85202" lon="0.91273">
        <ele>1331.432</ele>
        <time>2021-03-13T09:49:50Z</time>
      </trkpt>
      <trkpt lat="42.85202" lon="0.91273">
        <ele>1331.436</ele>
        <time>2021-03-13T09:49:52Z</time>
      </trkpt>
      <trkpt lat="42.85202" lon="0.91273">
        <ele>1331.436</ele>
        <time>2021-03-13T09:49:54Z</time>
      </trkpt>
      <trkpt lat="42.85202" lon="0.91273">
        <ele>1331.436</ele>
        <time>2021-03-13T09:49:56Z</time>
      </trkpt>
      <trkpt lat="42.85202" lon="0.91273">
        <ele>1331.436</ele>
        <time>2021-03-13T09:49:58Z</time>
      </trkpt>
      <trkpt lat="42.85202" lon="0.91273">
        <ele>1331.435</ele>
        <time>2021-03-13T09:50:00Z</time>
      </trkpt>
      <trkpt lat="42.85202" lon="0.91273">
        <ele>1331.442</ele>
        <time>2021-03-13T09:50:02Z</time>
      </trkpt>
      <trkpt lat="42.85202" lon="0.91273">
        <ele>1331.446</ele>
        <time>2021-03-13T09:50:04Z</time>
      </trkpt>
      <trkpt lat="42.85202" lon="0.91273">
        <ele>1331.451</ele>
        <time>2021-03-13T09:50:06Z</time>
      </trkpt>
      <trkpt lat="42.85202" lon="0.91273">
        <ele>1331.462</ele>
        <time>2021-03-13T09:50:08Z</time>
      </trkpt>
      <trkpt lat="42.85202" lon="0.91273">
        <ele>1331.47</ele>
        <time>2021-03-13T09:50:10Z</time>
      </trkpt>
      <trkpt lat="42.85202" lon="0.91273">
        <ele>1331.467</ele>
        <time>2021-03-13T09:50:12Z</time>
      </trkpt>
      <trkpt lat="42.85202" lon="0.91273">
        <ele>1331.468</ele>
        <time>2021-03-13T09:50:14Z</time>
      </trkpt>
      <trkpt lat="42.85202" lon="0.91273">
        <ele>1331.466</ele>
        <time>2021-03-13T09:50:16Z</time>
      </trkpt>
      <trkpt lat="42.85202" lon="0.91273">
        <ele>1331.244</ele>
        <time>2021-03-13T09:50:18Z</time>
      </trkpt>
      <trkpt lat="42.85202" lon="0.91273">
        <ele>1331.236</ele>
        <time>2021-03-13T09:50:20Z</time>
      </trkpt>
      <trkpt lat="42.85202" lon="0.91273">
        <ele>1331.243</ele>
        <time>2021-03-13T09:50:22Z</time>
      </trkpt>
      <trkpt lat="42.85202" lon="0.91272">
        <ele>1331.438</ele>
        <time>2021-03-13T09:50:24Z</time>
      </trkpt>
      <trkpt lat="42.85202" lon="0.91272">
        <ele>1331.982</ele>
        <time>2021-03-13T09:50:26Z</time>
      </trkpt>
      <trkpt lat="42.85203" lon="0.91272">
        <ele>1332.472</ele>
        <time>2021-03-13T09:50:28Z</time>
      </trkpt>
      <trkpt lat="42.85203" lon="0.91271">
        <ele>1333.023</ele>
        <time>2021-03-13T09:50:30Z</time>
      </trkpt>
      <trkpt lat="42.85204" lon="0.91271">
        <ele>1332.815</ele>
        <time>2021-03-13T09:50:32Z</time>
      </trkpt>
      <trkpt lat="42.85205" lon="0.91269">
        <ele>1332.726</ele>
        <time>2021-03-13T09:50:34Z</time>
      </trkpt>
      <trkpt lat="42.85205" lon="0.91268">
        <ele>1333.032</ele>
        <time>2021-03-13T09:50:36Z</time>
      </trkpt>
      <trkpt lat="42.85206" lon="0.91268">
        <ele>1333.442</ele>
        <time>2021-03-13T09:50:38Z</time>
      </trkpt>
      <trkpt lat="42.85206" lon="0.91267">
        <ele>1333.579</ele>
        <time>2021-03-13T09:50:40Z</time>
      </trkpt>
      <trkpt lat="42.85207" lon="0.91267">
        <ele>1334.635</ele>
        <time>2021-03-13T09:50:42Z</time>
      </trkpt>
      <trkpt lat="42.85208" lon="0.91268">
        <ele>1334.397</ele>
        <time>2021-03-13T09:50:44Z</time>
      </trkpt>
      <trkpt lat="42.85208" lon="0.91268">
        <ele>1335.737</ele>
        <time>2021-03-13T09:50:46Z</time>
      </trkpt>
      <trkpt lat="42.85209" lon="0.91268">
        <ele>1336.138</ele>
        <time>2021-03-13T09:50:48Z</time>
      </trkpt>
      <trkpt lat="42.8521" lon="0.91268">
        <ele>1336.775</ele>
        <time>2021-03-13T09:50:50Z</time>
      </trkpt>
      <trkpt lat="42.85211" lon="0.91267">
        <ele>1336.841</ele>
        <time>2021-03-13T09:50:52Z</time>
      </trkpt>
      <trkpt lat="42.85211" lon="0.91266">
        <ele>1337.411</ele>
        <time>2021-03-13T09:50:54Z</time>
      </trkpt>
      <trkpt lat="42.85212" lon="0.91265">
        <ele>1337.013</ele>
        <time>2021-03-13T09:50:56Z</time>
      </trkpt>
      <trkpt lat="42.85213" lon="0.91265">
        <ele>1337.946</ele>
        <time>2021-03-13T09:50:58Z</time>
      </trkpt>
      <trkpt lat="42.85214" lon="0.91264">
        <ele>1336.24</ele>
        <time>2021-03-13T09:51:00Z</time>
      </trkpt>
      <trkpt lat="42.85214" lon="0.91263">
        <ele>1336.796</ele>
        <time>2021-03-13T09:51:02Z</time>
      </trkpt>
      <trkpt lat="42.85214" lon="0.91261">
        <ele>1335.157</ele>
        <time>2021-03-13T09:51:04Z</time>
      </trkpt>
      <trkpt lat="42.85214" lon="0.91258">
        <ele>1334.872</ele>
        <time>2021-03-13T09:51:06Z</time>
      </trkpt>
      <trkpt lat="42.85214" lon="0.91256">
        <ele>1335.475</ele>
        <time>2021-03-13T09:51:08Z</time>
      </trkpt>
      <trkpt lat="42.85214" lon="0.91254">
        <ele>1335.86</ele>
        <time>2021-03-13T09:51:10Z</time>
      </trkpt>
      <trkpt lat="42.85214" lon="0.91253">
        <ele>1336.889</ele>
        <time>2021-03-13T09:51:12Z</time>
      </trkpt>
      <trkpt lat="42.85214" lon="0.91251">
        <ele>1337.811</ele>
        <time>2021-03-13T09:51:14Z</time>
      </trkpt>
      <trkpt lat="42.85214" lon="0.9125">
        <ele>1336.406</ele>
        <time>2021-03-13T09:51:16Z</time>
      </trkpt>
      <trkpt lat="42.85214" lon="0.91249">
        <ele>1336.489</ele>
        <time>2021-03-13T09:51:18Z</time>
      </trkpt>
      <trkpt lat="42.85215" lon="0.91247">
        <ele>1336.683</ele>
        <time>2021-03-13T09:51:20Z</time>
      </trkpt>
      <trkpt lat="42.85215" lon="0.91246">
        <ele>1336.96</ele>
        <time>2021-03-13T09:51:22Z</time>
      </trkpt>
      <trkpt lat="42.85217" lon="0.91246">
        <ele>1337.92</ele>
        <time>2021-03-13T09:51:24Z</time>
      </trkpt>
      <trkpt lat="42.85218" lon="0.91246">
        <ele>1337.661</ele>
        <time>2021-03-13T09:51:26Z</time>
      </trkpt>
      <trkpt lat="42.85219" lon="0.91247">
        <ele>1338.707</ele>
        <time>2021-03-13T09:51:28Z</time>
      </trkpt>
      <trkpt lat="42.8522" lon="0.91247">
        <ele>1339.036</ele>
        <time>2021-03-13T09:51:30Z</time>
      </trkpt>
      <trkpt lat="42.85221" lon="0.91248">
        <ele>1338.911</ele>
        <time>2021-03-13T09:51:32Z</time>
      </trkpt>
      <trkpt lat="42.85221" lon="0.91248">
        <ele>1338.465</ele>
        <time>2021-03-13T09:51:34Z</time>
      </trkpt>
      <trkpt lat="42.85222" lon="0.91249">
        <ele>1338.303</ele>
        <time>2021-03-13T09:51:36Z</time>
      </trkpt>
      <trkpt lat="42.85223" lon="0.9125">
        <ele>1338.461</ele>
        <time>2021-03-13T09:51:38Z</time>
      </trkpt>
      <trkpt lat="42.85224" lon="0.91249">
        <ele>1339.572</ele>
        <time>2021-03-13T09:51:40Z</time>
      </trkpt>
      <trkpt lat="42.85224" lon="0.91249">
        <ele>1339.63</ele>
        <time>2021-03-13T09:51:42Z</time>
      </trkpt>
      <trkpt lat="42.85225" lon="0.91248">
        <ele>1339.547</ele>
        <time>2021-03-13T09:51:44Z</time>
      </trkpt>
      <trkpt lat="42.85226" lon="0.91248">
        <ele>1341.784</ele>
        <time>2021-03-13T09:51:46Z</time>
      </trkpt>
      <trkpt lat="42.85226" lon="0.91248">
        <ele>1341.752</ele>
        <time>2021-03-13T09:51:48Z</time>
      </trkpt>
      <trkpt lat="42.85226" lon="0.91249">
        <ele>1341.968</ele>
        <time>2021-03-13T09:51:50Z</time>
      </trkpt>
      <trkpt lat="42.85226" lon="0.91249">
        <ele>1342</ele>
        <time>2021-03-13T09:51:52Z</time>
      </trkpt>
      <trkpt lat="42.85226" lon="0.91249">
        <ele>1342.06</ele>
        <time>2021-03-13T09:51:54Z</time>
      </trkpt>
      <trkpt lat="42.85226" lon="0.91249">
        <ele>1341.764</ele>
        <time>2021-03-13T09:51:56Z</time>
      </trkpt>
      <trkpt lat="42.85228" lon="0.91249">
        <ele>1342.251</ele>
        <time>2021-03-13T09:51:58Z</time>
      </trkpt>
      <trkpt lat="42.85228" lon="0.91248">
        <ele>1342.633</ele>
        <time>2021-03-13T09:52:00Z</time>
      </trkpt>
      <trkpt lat="42.85229" lon="0.91248">
        <ele>1345.346</ele>
        <time>2021-03-13T09:52:02Z</time>
      </trkpt>
      <trkpt lat="42.85229" lon="0.91247">
        <ele>1344.888</ele>
        <time>2021-03-13T09:52:04Z</time>
      </trkpt>
      <trkpt lat="42.8523" lon="0.91246">
        <ele>1344.156</ele>
        <time>2021-03-13T09:52:06Z</time>
      </trkpt>
      <trkpt lat="42.8523" lon="0.91245">
        <ele>1342.724</ele>
        <time>2021-03-13T09:52:08Z</time>
      </trkpt>
      <trkpt lat="42.8523" lon="0.91243">
        <ele>1342.978</ele>
        <time>2021-03-13T09:52:10Z</time>
      </trkpt>
      <trkpt lat="42.8523" lon="0.91243">
        <ele>1342.987</ele>
        <time>2021-03-13T09:52:12Z</time>
      </trkpt>
      <trkpt lat="42.8523" lon="0.91243">
        <ele>1342.979</ele>
        <time>2021-03-13T09:52:14Z</time>
      </trkpt>
      <trkpt lat="42.8523" lon="0.91243">
        <ele>1342.687</ele>
        <time>2021-03-13T09:52:16Z</time>
      </trkpt>
      <trkpt lat="42.85231" lon="0.91243">
        <ele>1342.302</ele>
        <time>2021-03-13T09:52:18Z</time>
      </trkpt>
      <trkpt lat="42.85232" lon="0.91243">
        <ele>1341.85</ele>
        <time>2021-03-13T09:52:20Z</time>
      </trkpt>
      <trkpt lat="42.85232" lon="0.91242">
        <ele>1341.951</ele>
        <time>2021-03-13T09:52:22Z</time>
      </trkpt>
      <trkpt lat="42.85233" lon="0.91242">
        <ele>1342.172</ele>
        <time>2021-03-13T09:52:24Z</time>
      </trkpt>
      <trkpt lat="42.85233" lon="0.91241">
        <ele>1342.488</ele>
        <time>2021-03-13T09:52:26Z</time>
      </trkpt>
      <trkpt lat="42.85234" lon="0.91241">
        <ele>1343.07</ele>
        <time>2021-03-13T09:52:28Z</time>
      </trkpt>
      <trkpt lat="42.85234" lon="0.91241">
        <ele>1343.941</ele>
        <time>2021-03-13T09:52:30Z</time>
      </trkpt>
      <trkpt lat="42.85235" lon="0.91241">
        <ele>1344.005</ele>
        <time>2021-03-13T09:52:32Z</time>
      </trkpt>
      <trkpt lat="42.85235" lon="0.91241">
        <ele>1345.589</ele>
        <time>2021-03-13T09:52:34Z</time>
      </trkpt>
      <trkpt lat="42.85236" lon="0.9124">
        <ele>1346.423</ele>
        <time>2021-03-13T09:52:36Z</time>
      </trkpt>
      <trkpt lat="42.85237" lon="0.9124">
        <ele>1346.124</ele>
        <time>2021-03-13T09:52:38Z</time>
      </trkpt>
      <trkpt lat="42.85237" lon="0.91239">
        <ele>1346.372</ele>
        <time>2021-03-13T09:52:40Z</time>
      </trkpt>
      <trkpt lat="42.85238" lon="0.91238">
        <ele>1346.547</ele>
        <time>2021-03-13T09:52:42Z</time>
      </trkpt>
      <trkpt lat="42.85238" lon="0.91237">
        <ele>1346.977</ele>
        <time>2021-03-13T09:52:44Z</time>
      </trkpt>
      <trkpt lat="42.85239" lon="0.91236">
        <ele>1348.075</ele>
        <time>2021-03-13T09:52:46Z</time>
      </trkpt>
      <trkpt lat="42.8524" lon="0.91235">
        <ele>1348.302</ele>
        <time>2021-03-13T09:52:48Z</time>
      </trkpt>
      <trkpt lat="42.8524" lon="0.91234">
        <ele>1349.114</ele>
        <time>2021-03-13T09:52:50Z</time>
      </trkpt>
      <trkpt lat="42.85241" lon="0.91233">
        <ele>1349.523</ele>
        <time>2021-03-13T09:52:52Z</time>
      </trkpt>
      <trkpt lat="42.85241" lon="0.91232">
        <ele>1350.001</ele>
        <time>2021-03-13T09:52:54Z</time>
      </trkpt>
      <trkpt lat="42.85242" lon="0.91231">
        <ele>1349.937</ele>
        <time>2021-03-13T09:52:56Z</time>
      </trkpt>
      <trkpt lat="42.85242" lon="0.9123">
        <ele>1351.199</ele>
        <time>2021-03-13T09:52:58Z</time>
      </trkpt>
      <trkpt lat="42.85242" lon="0.9123">
        <ele>1350.127</ele>
        <time>2021-03-13T09:53:00Z</time>
      </trkpt>
      <trkpt lat="42.85242" lon="0.91228">
        <ele>1352.306</ele>
        <time>2021-03-13T09:53:02Z</time>
      </trkpt>
      <trkpt lat="42.85242" lon="0.91227">
        <ele>1352.533</ele>
        <time>2021-03-13T09:53:04Z</time>
      </trkpt>
      <trkpt lat="42.85242" lon="0.91226">
        <ele>1353.453</ele>
        <time>2021-03-13T09:53:06Z</time>
      </trkpt>
      <trkpt lat="42.85242" lon="0.91225">
        <ele>1353.585</ele>
        <time>2021-03-13T09:53:08Z</time>
      </trkpt>
      <trkpt lat="42.85241" lon="0.91223">
        <ele>1352.817</ele>
        <time>2021-03-13T09:53:10Z</time>
      </trkpt>
      <trkpt lat="42.85241" lon="0.91222">
        <ele>1352.874</ele>
        <time>2021-03-13T09:53:12Z</time>
      </trkpt>
      <trkpt lat="42.85242" lon="0.91221">
        <ele>1352.727</ele>
        <time>2021-03-13T09:53:14Z</time>
      </trkpt>
      <trkpt lat="42.85242" lon="0.91222">
        <ele>1352.711</ele>
        <time>2021-03-13T09:53:16Z</time>
      </trkpt>
      <trkpt lat="42.85242" lon="0.91222">
        <ele>1352.713</ele>
        <time>2021-03-13T09:53:18Z</time>
      </trkpt>
      <trkpt lat="42.85242" lon="0.91221">
        <ele>1352.612</ele>
        <time>2021-03-13T09:53:20Z</time>
      </trkpt>
      <trkpt lat="42.85242" lon="0.9122">
        <ele>1352.83</ele>
        <time>2021-03-13T09:53:22Z</time>
      </trkpt>
      <trkpt lat="42.85243" lon="0.91218">
        <ele>1352.607</ele>
        <time>2021-03-13T09:53:24Z</time>
      </trkpt>
      <trkpt lat="42.85244" lon="0.91216">
        <ele>1351.949</ele>
        <time>2021-03-13T09:53:26Z</time>
      </trkpt>
      <trkpt lat="42.85245" lon="0.91215">
        <ele>1352.064</ele>
        <time>2021-03-13T09:53:28Z</time>
      </trkpt>
      <trkpt lat="42.85245" lon="0.91214">
        <ele>1353.023</ele>
        <time>2021-03-13T09:53:30Z</time>
      </trkpt>
      <trkpt lat="42.85245" lon="0.91213">
        <ele>1353.147</ele>
        <time>2021-03-13T09:53:32Z</time>
      </trkpt>
      <trkpt lat="42.85246" lon="0.91212">
        <ele>1353.306</ele>
        <time>2021-03-13T09:53:34Z</time>
      </trkpt>
      <trkpt lat="42.85248" lon="0.91213">
        <ele>1353.671</ele>
        <time>2021-03-13T09:53:36Z</time>
      </trkpt>
      <trkpt lat="42.85249" lon="0.91214">
        <ele>1354.475</ele>
        <time>2021-03-13T09:53:38Z</time>
      </trkpt>
      <trkpt lat="42.8525" lon="0.91214">
        <ele>1354.358</ele>
        <time>2021-03-13T09:53:40Z</time>
      </trkpt>
      <trkpt lat="42.8525" lon="0.91214">
        <ele>1356.542</ele>
        <time>2021-03-13T09:53:42Z</time>
      </trkpt>
      <trkpt lat="42.85251" lon="0.91214">
        <ele>1356.278</ele>
        <time>2021-03-13T09:53:44Z</time>
      </trkpt>
      <trkpt lat="42.85252" lon="0.91214">
        <ele>1357.886</ele>
        <time>2021-03-13T09:53:46Z</time>
      </trkpt>
      <trkpt lat="42.85252" lon="0.91214">
        <ele>1356.805</ele>
        <time>2021-03-13T09:53:48Z</time>
      </trkpt>
      <trkpt lat="42.85252" lon="0.91215">
        <ele>1356.531</ele>
        <time>2021-03-13T09:53:50Z</time>
      </trkpt>
      <trkpt lat="42.85253" lon="0.91215">
        <ele>1356.229</ele>
        <time>2021-03-13T09:53:52Z</time>
      </trkpt>
      <trkpt lat="42.85254" lon="0.91216">
        <ele>1355.771</ele>
        <time>2021-03-13T09:53:54Z</time>
      </trkpt>
      <trkpt lat="42.85255" lon="0.91216">
        <ele>1356.261</ele>
        <time>2021-03-13T09:53:56Z</time>
      </trkpt>
      <trkpt lat="42.85256" lon="0.91216">
        <ele>1355.871</ele>
        <time>2021-03-13T09:53:58Z</time>
      </trkpt>
      <trkpt lat="42.85257" lon="0.91217">
        <ele>1356.297</ele>
        <time>2021-03-13T09:54:00Z</time>
      </trkpt>
      <trkpt lat="42.85258" lon="0.91217">
        <ele>1357.317</ele>
        <time>2021-03-13T09:54:02Z</time>
      </trkpt>
      <trkpt lat="42.85259" lon="0.91216">
        <ele>1357.121</ele>
        <time>2021-03-13T09:54:04Z</time>
      </trkpt>
      <trkpt lat="42.85259" lon="0.91216">
        <ele>1357.118</ele>
        <time>2021-03-13T09:54:06Z</time>
      </trkpt>
      <trkpt lat="42.85259" lon="0.91216">
        <ele>1357.122</ele>
        <time>2021-03-13T09:54:08Z</time>
      </trkpt>
      <trkpt lat="42.85259" lon="0.91216">
        <ele>1357.066</ele>
        <time>2021-03-13T09:54:10Z</time>
      </trkpt>
      <trkpt lat="42.85259" lon="0.91216">
        <ele>1357.652</ele>
        <time>2021-03-13T09:54:12Z</time>
      </trkpt>
      <trkpt lat="42.8526" lon="0.91217">
        <ele>1358.098</ele>
        <time>2021-03-13T09:54:14Z</time>
      </trkpt>
      <trkpt lat="42.85261" lon="0.91217">
        <ele>1358.92</ele>
        <time>2021-03-13T09:54:16Z</time>
      </trkpt>
      <trkpt lat="42.85262" lon="0.91217">
        <ele>1359.237</ele>
        <time>2021-03-13T09:54:18Z</time>
      </trkpt>
      <trkpt lat="42.85262" lon="0.91217">
        <ele>1359.494</ele>
        <time>2021-03-13T09:54:20Z</time>
      </trkpt>
      <trkpt lat="42.85263" lon="0.91217">
        <ele>1360.512</ele>
        <time>2021-03-13T09:54:22Z</time>
      </trkpt>
      <trkpt lat="42.85264" lon="0.91218">
        <ele>1362.505</ele>
        <time>2021-03-13T09:54:24Z</time>
      </trkpt>
      <trkpt lat="42.85264" lon="0.91219">
        <ele>1362.771</ele>
        <time>2021-03-13T09:54:26Z</time>
      </trkpt>
      <trkpt lat="42.85264" lon="0.9122">
        <ele>1363.562</ele>
        <time>2021-03-13T09:54:28Z</time>
      </trkpt>
      <trkpt lat="42.85264" lon="0.91221">
        <ele>1364.711</ele>
        <time>2021-03-13T09:54:30Z</time>
      </trkpt>
      <trkpt lat="42.85263" lon="0.91223">
        <ele>1365.034</ele>
        <time>2021-03-13T09:54:32Z</time>
      </trkpt>
      <trkpt lat="42.85264" lon="0.91225">
        <ele>1364.132</ele>
        <time>2021-03-13T09:54:34Z</time>
      </trkpt>
      <trkpt lat="42.85263" lon="0.91225">
        <ele>1363.673</ele>
        <time>2021-03-13T09:54:36Z</time>
      </trkpt>
      <trkpt lat="42.85263" lon="0.91225">
        <ele>1363.675</ele>
        <time>2021-03-13T09:54:38Z</time>
      </trkpt>
      <trkpt lat="42.85263" lon="0.91225">
        <ele>1363.835</ele>
        <time>2021-03-13T09:54:41Z</time>
      </trkpt>
      <trkpt lat="42.85264" lon="0.91226">
        <ele>1364.705</ele>
        <time>2021-03-13T09:54:43Z</time>
      </trkpt>
      <trkpt lat="42.85265" lon="0.91227">
        <ele>1366.459</ele>
        <time>2021-03-13T09:54:45Z</time>
      </trkpt>
      <trkpt lat="42.85266" lon="0.91229">
        <ele>1367.599</ele>
        <time>2021-03-13T09:54:47Z</time>
      </trkpt>
      <trkpt lat="42.85267" lon="0.9123">
        <ele>1368.507</ele>
        <time>2021-03-13T09:54:49Z</time>
      </trkpt>
      <trkpt lat="42.85268" lon="0.9123">
        <ele>1368.994</ele>
        <time>2021-03-13T09:54:51Z</time>
      </trkpt>
      <trkpt lat="42.85268" lon="0.91231">
        <ele>1369.247</ele>
        <time>2021-03-13T09:54:53Z</time>
      </trkpt>
      <trkpt lat="42.85269" lon="0.91231">
        <ele>1369.241</ele>
        <time>2021-03-13T09:54:55Z</time>
      </trkpt>
      <trkpt lat="42.85268" lon="0.91231">
        <ele>1368.599</ele>
        <time>2021-03-13T09:54:57Z</time>
      </trkpt>
      <trkpt lat="42.85268" lon="0.91231">
        <ele>1368.594</ele>
        <time>2021-03-13T09:54:59Z</time>
      </trkpt>
      <trkpt lat="42.85268" lon="0.91231">
        <ele>1367.991</ele>
        <time>2021-03-13T09:55:01Z</time>
      </trkpt>
      <trkpt lat="42.85268" lon="0.91233">
        <ele>1366.843</ele>
        <time>2021-03-13T09:55:03Z</time>
      </trkpt>
      <trkpt lat="42.85269" lon="0.91236">
        <ele>1367.098</ele>
        <time>2021-03-13T09:55:05Z</time>
      </trkpt>
      <trkpt lat="42.8527" lon="0.91238">
        <ele>1368.187</ele>
        <time>2021-03-13T09:55:07Z</time>
      </trkpt>
      <trkpt lat="42.8527" lon="0.9124">
        <ele>1369.005</ele>
        <time>2021-03-13T09:55:09Z</time>
      </trkpt>
      <trkpt lat="42.8527" lon="0.91241">
        <ele>1368.921</ele>
        <time>2021-03-13T09:55:11Z</time>
      </trkpt>
      <trkpt lat="42.8527" lon="0.91243">
        <ele>1368.616</ele>
        <time>2021-03-13T09:55:13Z</time>
      </trkpt>
      <trkpt lat="42.85269" lon="0.91244">
        <ele>1367.785</ele>
        <time>2021-03-13T09:55:15Z</time>
      </trkpt>
      <trkpt lat="42.85269" lon="0.91246">
        <ele>1368.373</ele>
        <time>2021-03-13T09:55:17Z</time>
      </trkpt>
      <trkpt lat="42.8527" lon="0.91248">
        <ele>1368.112</ele>
        <time>2021-03-13T09:55:19Z</time>
      </trkpt>
      <trkpt lat="42.8527" lon="0.91249">
        <ele>1367.997</ele>
        <time>2021-03-13T09:55:21Z</time>
      </trkpt>
      <trkpt lat="42.8527" lon="0.91248">
        <ele>1367.988</ele>
        <time>2021-03-13T09:55:23Z</time>
      </trkpt>
      <trkpt lat="42.8527" lon="0.91248">
        <ele>1367.983</ele>
        <time>2021-03-13T09:55:25Z</time>
      </trkpt>
      <trkpt lat="42.8527" lon="0.91248">
        <ele>1367.991</ele>
        <time>2021-03-13T09:55:27Z</time>
      </trkpt>
      <trkpt lat="42.8527" lon="0.91248">
        <ele>1367.961</ele>
        <time>2021-03-13T09:55:29Z</time>
      </trkpt>
      <trkpt lat="42.8527" lon="0.91248">
        <ele>1367.785</ele>
        <time>2021-03-13T09:55:31Z</time>
      </trkpt>
      <trkpt lat="42.8527" lon="0.91248">
        <ele>1367.747</ele>
        <time>2021-03-13T09:55:33Z</time>
      </trkpt>
      <trkpt lat="42.8527" lon="0.91248">
        <ele>1367.74</ele>
        <time>2021-03-13T09:55:35Z</time>
      </trkpt>
      <trkpt lat="42.8527" lon="0.91248">
        <ele>1367.716</ele>
        <time>2021-03-13T09:55:37Z</time>
      </trkpt>
      <trkpt lat="42.8527" lon="0.91248">
        <ele>1367.674</ele>
        <time>2021-03-13T09:55:39Z</time>
      </trkpt>
      <trkpt lat="42.8527" lon="0.91248">
        <ele>1367.674</ele>
        <time>2021-03-13T09:55:41Z</time>
      </trkpt>
      <trkpt lat="42.8527" lon="0.91248">
        <ele>1367.651</ele>
        <time>2021-03-13T09:55:43Z</time>
      </trkpt>
      <trkpt lat="42.8527" lon="0.91248">
        <ele>1367.625</ele>
        <time>2021-03-13T09:55:45Z</time>
      </trkpt>
      <trkpt lat="42.8527" lon="0.91248">
        <ele>1367.63</ele>
        <time>2021-03-13T09:55:47Z</time>
      </trkpt>
      <trkpt lat="42.8527" lon="0.91248">
        <ele>1367.603</ele>
        <time>2021-03-13T09:55:49Z</time>
      </trkpt>
      <trkpt lat="42.8527" lon="0.91248">
        <ele>1367.603</ele>
        <time>2021-03-13T09:55:51Z</time>
      </trkpt>
      <trkpt lat="42.8527" lon="0.91248">
        <ele>1367.598</ele>
        <time>2021-03-13T09:55:53Z</time>
      </trkpt>
      <trkpt lat="42.8527" lon="0.91248">
        <ele>1367.584</ele>
        <time>2021-03-13T09:55:55Z</time>
      </trkpt>
      <trkpt lat="42.8527" lon="0.91248">
        <ele>1366.834</ele>
        <time>2021-03-13T09:55:57Z</time>
      </trkpt>
      <trkpt lat="42.85269" lon="0.91249">
        <ele>1366.952</ele>
        <time>2021-03-13T09:55:59Z</time>
      </trkpt>
      <trkpt lat="42.85269" lon="0.91249">
        <ele>1366.913</ele>
        <time>2021-03-13T09:56:01Z</time>
      </trkpt>
      <trkpt lat="42.85269" lon="0.91249">
        <ele>1366.885</ele>
        <time>2021-03-13T09:56:03Z</time>
      </trkpt>
      <trkpt lat="42.85269" lon="0.91249">
        <ele>1366.882</ele>
        <time>2021-03-13T09:56:05Z</time>
      </trkpt>
      <trkpt lat="42.85269" lon="0.91249">
        <ele>1366.839</ele>
        <time>2021-03-13T09:56:07Z</time>
      </trkpt>
      <trkpt lat="42.85269" lon="0.91249">
        <ele>1366.832</ele>
        <time>2021-03-13T09:56:09Z</time>
      </trkpt>
      <trkpt lat="42.85269" lon="0.91249">
        <ele>1366.831</ele>
        <time>2021-03-13T09:56:11Z</time>
      </trkpt>
      <trkpt lat="42.85269" lon="0.91249">
        <ele>1366.825</ele>
        <time>2021-03-13T09:56:13Z</time>
      </trkpt>
      <trkpt lat="42.85269" lon="0.91249">
        <ele>1366.847</ele>
        <time>2021-03-13T09:56:15Z</time>
      </trkpt>
      <trkpt lat="42.85269" lon="0.91249">
        <ele>1366.847</ele>
        <time>2021-03-13T09:56:17Z</time>
      </trkpt>
      <trkpt lat="42.85269" lon="0.91249">
        <ele>1366.822</ele>
        <time>2021-03-13T09:56:19Z</time>
      </trkpt>
      <trkpt lat="42.85269" lon="0.91249">
        <ele>1366.83</ele>
        <time>2021-03-13T09:56:21Z</time>
      </trkpt>
      <trkpt lat="42.85269" lon="0.91249">
        <ele>1366.855</ele>
        <time>2021-03-13T09:56:23Z</time>
      </trkpt>
      <trkpt lat="42.85269" lon="0.91249">
        <ele>1366.841</ele>
        <time>2021-03-13T09:56:25Z</time>
      </trkpt>
      <trkpt lat="42.85269" lon="0.91249">
        <ele>1366.818</ele>
        <time>2021-03-13T09:56:27Z</time>
      </trkpt>
      <trkpt lat="42.85269" lon="0.91249">
        <ele>1366.809</ele>
        <time>2021-03-13T09:56:29Z</time>
      </trkpt>
      <trkpt lat="42.85269" lon="0.91249">
        <ele>1366.793</ele>
        <time>2021-03-13T09:56:31Z</time>
      </trkpt>
      <trkpt lat="42.85269" lon="0.91249">
        <ele>1366.794</ele>
        <time>2021-03-13T09:56:33Z</time>
      </trkpt>
      <trkpt lat="42.85269" lon="0.91249">
        <ele>1366.779</ele>
        <time>2021-03-13T09:56:35Z</time>
      </trkpt>
      <trkpt lat="42.85269" lon="0.91249">
        <ele>1366.38</ele>
        <time>2021-03-13T09:56:37Z</time>
      </trkpt>
      <trkpt lat="42.85269" lon="0.9125">
        <ele>1366.236</ele>
        <time>2021-03-13T09:56:39Z</time>
      </trkpt>
      <trkpt lat="42.85269" lon="0.9125">
        <ele>1366.337</ele>
        <time>2021-03-13T09:56:41Z</time>
      </trkpt>
      <trkpt lat="42.85269" lon="0.9125">
        <ele>1366.608</ele>
        <time>2021-03-13T09:56:43Z</time>
      </trkpt>
      <trkpt lat="42.85269" lon="0.91251">
        <ele>1365.863</ele>
        <time>2021-03-13T09:56:45Z</time>
      </trkpt>
      <trkpt lat="42.85269" lon="0.91251">
        <ele>1365.868</ele>
        <time>2021-03-13T09:56:47Z</time>
      </trkpt>
      <trkpt lat="42.85269" lon="0.91251">
        <ele>1365.872</ele>
        <time>2021-03-13T09:56:49Z</time>
      </trkpt>
      <trkpt lat="42.85269" lon="0.91251">
        <ele>1365.876</ele>
        <time>2021-03-13T09:56:51Z</time>
      </trkpt>
      <trkpt lat="42.85269" lon="0.91251">
        <ele>1365.877</ele>
        <time>2021-03-13T09:56:53Z</time>
      </trkpt>
      <trkpt lat="42.85269" lon="0.91251">
        <ele>1365.872</ele>
        <time>2021-03-13T09:56:55Z</time>
      </trkpt>
      <trkpt lat="42.85269" lon="0.91251">
        <ele>1365.875</ele>
        <time>2021-03-13T09:56:57Z</time>
      </trkpt>
      <trkpt lat="42.85269" lon="0.91251">
        <ele>1366.206</ele>
        <time>2021-03-13T09:56:59Z</time>
      </trkpt>
      <trkpt lat="42.85269" lon="0.91251">
        <ele>1366.348</ele>
        <time>2021-03-13T09:57:01Z</time>
      </trkpt>
      <trkpt lat="42.85269" lon="0.91251">
        <ele>1366.346</ele>
        <time>2021-03-13T09:57:03Z</time>
      </trkpt>
      <trkpt lat="42.85269" lon="0.9125">
        <ele>1366.348</ele>
        <time>2021-03-13T09:57:05Z</time>
      </trkpt>
      <trkpt lat="42.85269" lon="0.9125">
        <ele>1366.36</ele>
        <time>2021-03-13T09:57:07Z</time>
      </trkpt>
      <trkpt lat="42.85269" lon="0.91251">
        <ele>1366.347</ele>
        <time>2021-03-13T09:57:09Z</time>
      </trkpt>
      <trkpt lat="42.85269" lon="0.91251">
        <ele>1366.33</ele>
        <time>2021-03-13T09:57:11Z</time>
      </trkpt>
      <trkpt lat="42.85269" lon="0.91251">
        <ele>1366.333</ele>
        <time>2021-03-13T09:57:13Z</time>
      </trkpt>
      <trkpt lat="42.85269" lon="0.91251">
        <ele>1366.343</ele>
        <time>2021-03-13T09:57:15Z</time>
      </trkpt>
      <trkpt lat="42.85269" lon="0.91251">
        <ele>1366.9</ele>
        <time>2021-03-13T09:57:17Z</time>
      </trkpt>
      <trkpt lat="42.85269" lon="0.9125">
        <ele>1366.904</ele>
        <time>2021-03-13T09:57:19Z</time>
      </trkpt>
      <trkpt lat="42.85269" lon="0.9125">
        <ele>1366.911</ele>
        <time>2021-03-13T09:57:21Z</time>
      </trkpt>
      <trkpt lat="42.85269" lon="0.9125">
        <ele>1366.91</ele>
        <time>2021-03-13T09:57:23Z</time>
      </trkpt>
      <trkpt lat="42.85269" lon="0.9125">
        <ele>1366.903</ele>
        <time>2021-03-13T09:57:25Z</time>
      </trkpt>
      <trkpt lat="42.85269" lon="0.9125">
        <ele>1366.91</ele>
        <time>2021-03-13T09:57:27Z</time>
      </trkpt>
      <trkpt lat="42.85269" lon="0.9125">
        <ele>1366.9</ele>
        <time>2021-03-13T09:57:29Z</time>
      </trkpt>
      <trkpt lat="42.85269" lon="0.9125">
        <ele>1366.898</ele>
        <time>2021-03-13T09:57:31Z</time>
      </trkpt>
      <trkpt lat="42.85269" lon="0.9125">
        <ele>1366.892</ele>
        <time>2021-03-13T09:57:33Z</time>
      </trkpt>
      <trkpt lat="42.85269" lon="0.9125">
        <ele>1366.891</ele>
        <time>2021-03-13T09:57:35Z</time>
      </trkpt>
      <trkpt lat="42.85269" lon="0.9125">
        <ele>1366.894</ele>
        <time>2021-03-13T09:57:37Z</time>
      </trkpt>
      <trkpt lat="42.85269" lon="0.9125">
        <ele>1366.886</ele>
        <time>2021-03-13T09:57:39Z</time>
      </trkpt>
      <trkpt lat="42.85269" lon="0.9125">
        <ele>1366.886</ele>
        <time>2021-03-13T09:57:41Z</time>
      </trkpt>
      <trkpt lat="42.85269" lon="0.9125">
        <ele>1366.884</ele>
        <time>2021-03-13T09:57:43Z</time>
      </trkpt>
      <trkpt lat="42.85269" lon="0.9125">
        <ele>1366.887</ele>
        <time>2021-03-13T09:57:45Z</time>
      </trkpt>
      <trkpt lat="42.85269" lon="0.9125">
        <ele>1366.892</ele>
        <time>2021-03-13T09:57:47Z</time>
      </trkpt>
      <trkpt lat="42.85269" lon="0.9125">
        <ele>1366.899</ele>
        <time>2021-03-13T09:57:49Z</time>
      </trkpt>
      <trkpt lat="42.85269" lon="0.9125">
        <ele>1366.912</ele>
        <time>2021-03-13T09:57:51Z</time>
      </trkpt>
      <trkpt lat="42.85269" lon="0.9125">
        <ele>1366.922</ele>
        <time>2021-03-13T09:57:53Z</time>
      </trkpt>
      <trkpt lat="42.85269" lon="0.9125">
        <ele>1366.919</ele>
        <time>2021-03-13T09:57:55Z</time>
      </trkpt>
      <trkpt lat="42.85269" lon="0.9125">
        <ele>1366.916</ele>
        <time>2021-03-13T09:57:57Z</time>
      </trkpt>
      <trkpt lat="42.85269" lon="0.9125">
        <ele>1366.914</ele>
        <time>2021-03-13T09:57:59Z</time>
      </trkpt>
      <trkpt lat="42.85269" lon="0.9125">
        <ele>1366.918</ele>
        <time>2021-03-13T09:58:01Z</time>
      </trkpt>
      <trkpt lat="42.85269" lon="0.9125">
        <ele>1366.92</ele>
        <time>2021-03-13T09:58:03Z</time>
      </trkpt>
      <trkpt lat="42.85269" lon="0.9125">
        <ele>1366.921</ele>
        <time>2021-03-13T09:58:05Z</time>
      </trkpt>
      <trkpt lat="42.85269" lon="0.9125">
        <ele>1366.933</ele>
        <time>2021-03-13T09:58:07Z</time>
      </trkpt>
      <trkpt lat="42.85269" lon="0.9125">
        <ele>1366.932</ele>
        <time>2021-03-13T09:58:09Z</time>
      </trkpt>
      <trkpt lat="42.85269" lon="0.9125">
        <ele>1366.927</ele>
        <time>2021-03-13T09:58:11Z</time>
      </trkpt>
      <trkpt lat="42.85269" lon="0.9125">
        <ele>1366.952</ele>
        <time>2021-03-13T09:58:13Z</time>
      </trkpt>
      <trkpt lat="42.85269" lon="0.9125">
        <ele>1366.95</ele>
        <time>2021-03-13T09:58:15Z</time>
      </trkpt>
      <trkpt lat="42.85269" lon="0.9125">
        <ele>1366.953</ele>
        <time>2021-03-13T09:58:17Z</time>
      </trkpt>
      <trkpt lat="42.85269" lon="0.9125">
        <ele>1366.965</ele>
        <time>2021-03-13T09:58:19Z</time>
      </trkpt>
      <trkpt lat="42.85269" lon="0.9125">
        <ele>1366.972</ele>
        <time>2021-03-13T09:58:21Z</time>
      </trkpt>
      <trkpt lat="42.85269" lon="0.9125">
        <ele>1366.972</ele>
        <time>2021-03-13T09:58:23Z</time>
      </trkpt>
      <trkpt lat="42.85269" lon="0.9125">
        <ele>1366.964</ele>
        <time>2021-03-13T09:58:25Z</time>
      </trkpt>
      <trkpt lat="42.85269" lon="0.9125">
        <ele>1366.975</ele>
        <time>2021-03-13T09:58:27Z</time>
      </trkpt>
      <trkpt lat="42.85269" lon="0.91251">
        <ele>1366.982</ele>
        <time>2021-03-13T09:58:29Z</time>
      </trkpt>
      <trkpt lat="42.85269" lon="0.91251">
        <ele>1366.987</ele>
        <time>2021-03-13T09:58:31Z</time>
      </trkpt>
      <trkpt lat="42.85269" lon="0.91251">
        <ele>1366.983</ele>
        <time>2021-03-13T09:58:33Z</time>
      </trkpt>
      <trkpt lat="42.85269" lon="0.9125">
        <ele>1366.981</ele>
        <time>2021-03-13T09:58:35Z</time>
      </trkpt>
      <trkpt lat="42.85269" lon="0.9125">
        <ele>1366.982</ele>
        <time>2021-03-13T09:58:37Z</time>
      </trkpt>
      <trkpt lat="42.85269" lon="0.9125">
        <ele>1367.598</ele>
        <time>2021-03-13T09:58:39Z</time>
      </trkpt>
      <trkpt lat="42.85269" lon="0.9125">
        <ele>1367.491</ele>
        <time>2021-03-13T09:58:41Z</time>
      </trkpt>
      <trkpt lat="42.85269" lon="0.9125">
        <ele>1366.097</ele>
        <time>2021-03-13T09:58:43Z</time>
      </trkpt>
      <trkpt lat="42.85269" lon="0.9125">
        <ele>1366.271</ele>
        <time>2021-03-13T09:58:45Z</time>
      </trkpt>
      <trkpt lat="42.85269" lon="0.9125">
        <ele>1365.293</ele>
        <time>2021-03-13T09:58:47Z</time>
      </trkpt>
      <trkpt lat="42.85269" lon="0.91251">
        <ele>1364.607</ele>
        <time>2021-03-13T09:58:49Z</time>
      </trkpt>
      <trkpt lat="42.8527" lon="0.91252">
        <ele>1364.356</ele>
        <time>2021-03-13T09:58:51Z</time>
      </trkpt>
      <trkpt lat="42.8527" lon="0.91254">
        <ele>1363.307</ele>
        <time>2021-03-13T09:58:53Z</time>
      </trkpt>
      <trkpt lat="42.85271" lon="0.91255">
        <ele>1363.556</ele>
        <time>2021-03-13T09:58:55Z</time>
      </trkpt>
      <trkpt lat="42.85272" lon="0.91257">
        <ele>1363.999</ele>
        <time>2021-03-13T09:58:57Z</time>
      </trkpt>
      <trkpt lat="42.85273" lon="0.91258">
        <ele>1364.767</ele>
        <time>2021-03-13T09:58:59Z</time>
      </trkpt>
      <trkpt lat="42.85274" lon="0.9126">
        <ele>1365.523</ele>
        <time>2021-03-13T09:59:01Z</time>
      </trkpt>
      <trkpt lat="42.85275" lon="0.91262">
        <ele>1365.554</ele>
        <time>2021-03-13T09:59:03Z</time>
      </trkpt>
      <trkpt lat="42.85275" lon="0.91263">
        <ele>1365.896</ele>
        <time>2021-03-13T09:59:05Z</time>
      </trkpt>
      <trkpt lat="42.85276" lon="0.91265">
        <ele>1366.91</ele>
        <time>2021-03-13T09:59:07Z</time>
      </trkpt>
      <trkpt lat="42.85277" lon="0.91267">
        <ele>1368.01</ele>
        <time>2021-03-13T09:59:09Z</time>
      </trkpt>
      <trkpt lat="42.85278" lon="0.91268">
        <ele>1369.005</ele>
        <time>2021-03-13T09:59:11Z</time>
      </trkpt>
      <trkpt lat="42.85278" lon="0.9127">
        <ele>1369.27</ele>
        <time>2021-03-13T09:59:13Z</time>
      </trkpt>
      <trkpt lat="42.85279" lon="0.91271">
        <ele>1369.613</ele>
        <time>2021-03-13T09:59:15Z</time>
      </trkpt>
      <trkpt lat="42.8528" lon="0.91271">
        <ele>1369.657</ele>
        <time>2021-03-13T09:59:17Z</time>
      </trkpt>
      <trkpt lat="42.8528" lon="0.91272">
        <ele>1369.442</ele>
        <time>2021-03-13T09:59:19Z</time>
      </trkpt>
      <trkpt lat="42.85281" lon="0.91273">
        <ele>1369.944</ele>
        <time>2021-03-13T09:59:21Z</time>
      </trkpt>
      <trkpt lat="42.85282" lon="0.91274">
        <ele>1370.784</ele>
        <time>2021-03-13T09:59:23Z</time>
      </trkpt>
      <trkpt lat="42.85283" lon="0.91274">
        <ele>1370.742</ele>
        <time>2021-03-13T09:59:25Z</time>
      </trkpt>
      <trkpt lat="42.85283" lon="0.91274">
        <ele>1370.745</ele>
        <time>2021-03-13T09:59:27Z</time>
      </trkpt>
      <trkpt lat="42.85283" lon="0.91274">
        <ele>1370.746</ele>
        <time>2021-03-13T09:59:29Z</time>
      </trkpt>
      <trkpt lat="42.85283" lon="0.91274">
        <ele>1370.745</ele>
        <time>2021-03-13T09:59:31Z</time>
      </trkpt>
      <trkpt lat="42.85284" lon="0.91276">
        <ele>1371.604</ele>
        <time>2021-03-13T09:59:33Z</time>
      </trkpt>
      <trkpt lat="42.85285" lon="0.91277">
        <ele>1371.592</ele>
        <time>2021-03-13T09:59:35Z</time>
      </trkpt>
      <trkpt lat="42.85286" lon="0.91278">
        <ele>1372.004</ele>
        <time>2021-03-13T09:59:37Z</time>
      </trkpt>
      <trkpt lat="42.85286" lon="0.91279">
        <ele>1371.063</ele>
        <time>2021-03-13T09:59:39Z</time>
      </trkpt>
      <trkpt lat="42.85287" lon="0.9128">
        <ele>1371.438</ele>
        <time>2021-03-13T09:59:41Z</time>
      </trkpt>
      <trkpt lat="42.85288" lon="0.91281">
        <ele>1372.002</ele>
        <time>2021-03-13T09:59:43Z</time>
      </trkpt>
      <trkpt lat="42.85289" lon="0.91281">
        <ele>1371.964</ele>
        <time>2021-03-13T09:59:45Z</time>
      </trkpt>
      <trkpt lat="42.85289" lon="0.91281">
        <ele>1371.959</ele>
        <time>2021-03-13T09:59:47Z</time>
      </trkpt>
      <trkpt lat="42.85289" lon="0.91281">
        <ele>1371.964</ele>
        <time>2021-03-13T09:59:49Z</time>
      </trkpt>
      <trkpt lat="42.85289" lon="0.91281">
        <ele>1371.972</ele>
        <time>2021-03-13T09:59:51Z</time>
      </trkpt>
      <trkpt lat="42.85289" lon="0.91281">
        <ele>1371.981</ele>
        <time>2021-03-13T09:59:53Z</time>
      </trkpt>
      <trkpt lat="42.85289" lon="0.91283">
        <ele>1372.173</ele>
        <time>2021-03-13T09:59:55Z</time>
      </trkpt>
      <trkpt lat="42.8529" lon="0.91285">
        <ele>1372.792</ele>
        <time>2021-03-13T09:59:57Z</time>
      </trkpt>
      <trkpt lat="42.8529" lon="0.91285">
        <ele>1373.282</ele>
        <time>2021-03-13T09:59:59Z</time>
      </trkpt>
      <trkpt lat="42.8529" lon="0.91285">
        <ele>1373.279</ele>
        <time>2021-03-13T10:00:01Z</time>
      </trkpt>
      <trkpt lat="42.8529" lon="0.91285">
        <ele>1373.281</ele>
        <time>2021-03-13T10:00:03Z</time>
      </trkpt>
      <trkpt lat="42.8529" lon="0.91285">
        <ele>1373.282</ele>
        <time>2021-03-13T10:00:05Z</time>
      </trkpt>
      <trkpt lat="42.8529" lon="0.91285">
        <ele>1373.127</ele>
        <time>2021-03-13T10:00:07Z</time>
      </trkpt>
      <trkpt lat="42.8529" lon="0.91285">
        <ele>1373.218</ele>
        <time>2021-03-13T10:00:09Z</time>
      </trkpt>
      <trkpt lat="42.85291" lon="0.91286">
        <ele>1373.845</ele>
        <time>2021-03-13T10:00:11Z</time>
      </trkpt>
      <trkpt lat="42.85292" lon="0.91288">
        <ele>1373.472</ele>
        <time>2021-03-13T10:00:13Z</time>
      </trkpt>
      <trkpt lat="42.85292" lon="0.91289">
        <ele>1373.189</ele>
        <time>2021-03-13T10:00:15Z</time>
      </trkpt>
      <trkpt lat="42.85293" lon="0.91291">
        <ele>1373.828</ele>
        <time>2021-03-13T10:00:17Z</time>
      </trkpt>
      <trkpt lat="42.85293" lon="0.91292">
        <ele>1375.058</ele>
        <time>2021-03-13T10:00:19Z</time>
      </trkpt>
      <trkpt lat="42.85293" lon="0.91293">
        <ele>1375.184</ele>
        <time>2021-03-13T10:00:21Z</time>
      </trkpt>
      <trkpt lat="42.85292" lon="0.91293">
        <ele>1374.98</ele>
        <time>2021-03-13T10:00:23Z</time>
      </trkpt>
      <trkpt lat="42.85292" lon="0.91294">
        <ele>1374.992</ele>
        <time>2021-03-13T10:00:25Z</time>
      </trkpt>
      <trkpt lat="42.85292" lon="0.91296">
        <ele>1374.752</ele>
        <time>2021-03-13T10:00:27Z</time>
      </trkpt>
      <trkpt lat="42.85293" lon="0.91298">
        <ele>1375.564</ele>
        <time>2021-03-13T10:00:29Z</time>
      </trkpt>
      <trkpt lat="42.85294" lon="0.913">
        <ele>1376.187</ele>
        <time>2021-03-13T10:00:31Z</time>
      </trkpt>
      <trkpt lat="42.85295" lon="0.91302">
        <ele>1376.875</ele>
        <time>2021-03-13T10:00:33Z</time>
      </trkpt>
      <trkpt lat="42.85296" lon="0.91303">
        <ele>1377.259</ele>
        <time>2021-03-13T10:00:35Z</time>
      </trkpt>
      <trkpt lat="42.85297" lon="0.91305">
        <ele>1377.477</ele>
        <time>2021-03-13T10:00:37Z</time>
      </trkpt>
      <trkpt lat="42.85297" lon="0.91307">
        <ele>1377.629</ele>
        <time>2021-03-13T10:00:39Z</time>
      </trkpt>
      <trkpt lat="42.85298" lon="0.91309">
        <ele>1378.817</ele>
        <time>2021-03-13T10:00:41Z</time>
      </trkpt>
      <trkpt lat="42.85299" lon="0.91311">
        <ele>1379.511</ele>
        <time>2021-03-13T10:00:43Z</time>
      </trkpt>
      <trkpt lat="42.85301" lon="0.91313">
        <ele>1380.169</ele>
        <time>2021-03-13T10:00:45Z</time>
      </trkpt>
      <trkpt lat="42.85301" lon="0.91315">
        <ele>1381.208</ele>
        <time>2021-03-13T10:00:47Z</time>
      </trkpt>
      <trkpt lat="42.85302" lon="0.91316">
        <ele>1380.936</ele>
        <time>2021-03-13T10:00:49Z</time>
      </trkpt>
      <trkpt lat="42.85303" lon="0.91318">
        <ele>1380.842</ele>
        <time>2021-03-13T10:00:51Z</time>
      </trkpt>
      <trkpt lat="42.85303" lon="0.91318">
        <ele>1381.163</ele>
        <time>2021-03-13T10:00:53Z</time>
      </trkpt>
      <trkpt lat="42.85303" lon="0.91318">
        <ele>1381.166</ele>
        <time>2021-03-13T10:00:55Z</time>
      </trkpt>
      <trkpt lat="42.85303" lon="0.91318">
        <ele>1381.375</ele>
        <time>2021-03-13T10:00:57Z</time>
      </trkpt>
      <trkpt lat="42.85303" lon="0.91319">
        <ele>1380.705</ele>
        <time>2021-03-13T10:00:59Z</time>
      </trkpt>
      <trkpt lat="42.85303" lon="0.91319">
        <ele>1381.01</ele>
        <time>2021-03-13T10:01:01Z</time>
      </trkpt>
      <trkpt lat="42.85303" lon="0.9132">
        <ele>1379.633</ele>
        <time>2021-03-13T10:01:03Z</time>
      </trkpt>
      <trkpt lat="42.85304" lon="0.91321">
        <ele>1380.284</ele>
        <time>2021-03-13T10:01:05Z</time>
      </trkpt>
      <trkpt lat="42.85305" lon="0.91321">
        <ele>1380.789</ele>
        <time>2021-03-13T10:01:07Z</time>
      </trkpt>
      <trkpt lat="42.85306" lon="0.9132">
        <ele>1381.088</ele>
        <time>2021-03-13T10:01:09Z</time>
      </trkpt>
      <trkpt lat="42.85307" lon="0.9132">
        <ele>1381.322</ele>
        <time>2021-03-13T10:01:11Z</time>
      </trkpt>
      <trkpt lat="42.85308" lon="0.91319">
        <ele>1382.211</ele>
        <time>2021-03-13T10:01:13Z</time>
      </trkpt>
      <trkpt lat="42.85308" lon="0.91319">
        <ele>1382.16</ele>
        <time>2021-03-13T10:01:15Z</time>
      </trkpt>
      <trkpt lat="42.85308" lon="0.91319">
        <ele>1382.163</ele>
        <time>2021-03-13T10:01:17Z</time>
      </trkpt>
      <trkpt lat="42.85308" lon="0.91319">
        <ele>1382.99</ele>
        <time>2021-03-13T10:01:19Z</time>
      </trkpt>
      <trkpt lat="42.85308" lon="0.91318">
        <ele>1383.889</ele>
        <time>2021-03-13T10:01:21Z</time>
      </trkpt>
      <trkpt lat="42.85309" lon="0.91318">
        <ele>1386.087</ele>
        <time>2021-03-13T10:01:23Z</time>
      </trkpt>
      <trkpt lat="42.85309" lon="0.91318">
        <ele>1385.347</ele>
        <time>2021-03-13T10:01:25Z</time>
      </trkpt>
      <trkpt lat="42.85309" lon="0.91319">
        <ele>1385.352</ele>
        <time>2021-03-13T10:01:27Z</time>
      </trkpt>
      <trkpt lat="42.8531" lon="0.91319">
        <ele>1386</ele>
        <time>2021-03-13T10:01:29Z</time>
      </trkpt>
      <trkpt lat="42.8531" lon="0.9132">
        <ele>1386.105</ele>
        <time>2021-03-13T10:01:31Z</time>
      </trkpt>
      <trkpt lat="42.8531" lon="0.9132">
        <ele>1386.101</ele>
        <time>2021-03-13T10:01:33Z</time>
      </trkpt>
      <trkpt lat="42.8531" lon="0.9132">
        <ele>1386.226</ele>
        <time>2021-03-13T10:01:35Z</time>
      </trkpt>
      <trkpt lat="42.85311" lon="0.91319">
        <ele>1386.697</ele>
        <time>2021-03-13T10:01:37Z</time>
      </trkpt>
      <trkpt lat="42.8531" lon="0.91318">
        <ele>1387.844</ele>
        <time>2021-03-13T10:01:39Z</time>
      </trkpt>
      <trkpt lat="42.8531" lon="0.91318">
        <ele>1387.841</ele>
        <time>2021-03-13T10:01:41Z</time>
      </trkpt>
      <trkpt lat="42.8531" lon="0.91318">
        <ele>1388.352</ele>
        <time>2021-03-13T10:01:43Z</time>
      </trkpt>
      <trkpt lat="42.85311" lon="0.91317">
        <ele>1387.414</ele>
        <time>2021-03-13T10:01:45Z</time>
      </trkpt>
      <trkpt lat="42.85311" lon="0.91316">
        <ele>1387.42</ele>
        <time>2021-03-13T10:01:47Z</time>
      </trkpt>
      <trkpt lat="42.85311" lon="0.91315">
        <ele>1389.002</ele>
        <time>2021-03-13T10:01:49Z</time>
      </trkpt>
      <trkpt lat="42.85311" lon="0.91315">
        <ele>1388.985</ele>
        <time>2021-03-13T10:01:51Z</time>
      </trkpt>
      <trkpt lat="42.85311" lon="0.91314">
        <ele>1388.252</ele>
        <time>2021-03-13T10:01:53Z</time>
      </trkpt>
      <trkpt lat="42.85311" lon="0.91313">
        <ele>1388.588</ele>
        <time>2021-03-13T10:01:55Z</time>
      </trkpt>
      <trkpt lat="42.85312" lon="0.91312">
        <ele>1388.081</ele>
        <time>2021-03-13T10:01:57Z</time>
      </trkpt>
      <trkpt lat="42.85313" lon="0.9131">
        <ele>1388.479</ele>
        <time>2021-03-13T10:01:59Z</time>
      </trkpt>
      <trkpt lat="42.85313" lon="0.9131">
        <ele>1388.457</ele>
        <time>2021-03-13T10:02:01Z</time>
      </trkpt>
      <trkpt lat="42.85313" lon="0.9131">
        <ele>1388.46</ele>
        <time>2021-03-13T10:02:03Z</time>
      </trkpt>
      <trkpt lat="42.85314" lon="0.9131">
        <ele>1388.047</ele>
        <time>2021-03-13T10:02:05Z</time>
      </trkpt>
      <trkpt lat="42.85314" lon="0.91308">
        <ele>1387.447</ele>
        <time>2021-03-13T10:02:07Z</time>
      </trkpt>
      <trkpt lat="42.85314" lon="0.91307">
        <ele>1387.787</ele>
        <time>2021-03-13T10:02:09Z</time>
      </trkpt>
      <trkpt lat="42.85314" lon="0.91304">
        <ele>1387.748</ele>
        <time>2021-03-13T10:02:11Z</time>
      </trkpt>
      <trkpt lat="42.85314" lon="0.91302">
        <ele>1388.34</ele>
        <time>2021-03-13T10:02:13Z</time>
      </trkpt>
      <trkpt lat="42.85314" lon="0.913">
        <ele>1387.855</ele>
        <time>2021-03-13T10:02:15Z</time>
      </trkpt>
      <trkpt lat="42.85315" lon="0.91298">
        <ele>1388.619</ele>
        <time>2021-03-13T10:02:17Z</time>
      </trkpt>
      <trkpt lat="42.85315" lon="0.91297">
        <ele>1389.967</ele>
        <time>2021-03-13T10:02:19Z</time>
      </trkpt>
      <trkpt lat="42.85315" lon="0.91295">
        <ele>1389.498</ele>
        <time>2021-03-13T10:02:21Z</time>
      </trkpt>
      <trkpt lat="42.85315" lon="0.91292">
        <ele>1389.202</ele>
        <time>2021-03-13T10:02:23Z</time>
      </trkpt>
      <trkpt lat="42.85315" lon="0.9129">
        <ele>1389.041</ele>
        <time>2021-03-13T10:02:25Z</time>
      </trkpt>
      <trkpt lat="42.85315" lon="0.91288">
        <ele>1389.038</ele>
        <time>2021-03-13T10:02:27Z</time>
      </trkpt>
      <trkpt lat="42.85315" lon="0.91286">
        <ele>1389.273</ele>
        <time>2021-03-13T10:02:29Z</time>
      </trkpt>
      <trkpt lat="42.85314" lon="0.91283">
        <ele>1389.503</ele>
        <time>2021-03-13T10:02:31Z</time>
      </trkpt>
      <trkpt lat="42.85314" lon="0.91281">
        <ele>1389.446</ele>
        <time>2021-03-13T10:02:33Z</time>
      </trkpt>
      <trkpt lat="42.85314" lon="0.91278">
        <ele>1389.313</ele>
        <time>2021-03-13T10:02:35Z</time>
      </trkpt>
      <trkpt lat="42.85314" lon="0.91275">
        <ele>1389.288</ele>
        <time>2021-03-13T10:02:37Z</time>
      </trkpt>
      <trkpt lat="42.85313" lon="0.91273">
        <ele>1390.763</ele>
        <time>2021-03-13T10:02:39Z</time>
      </trkpt>
      <trkpt lat="42.85313" lon="0.9127">
        <ele>1390.874</ele>
        <time>2021-03-13T10:02:41Z</time>
      </trkpt>
      <trkpt lat="42.85313" lon="0.91269">
        <ele>1391.134</ele>
        <time>2021-03-13T10:02:43Z</time>
      </trkpt>
      <trkpt lat="42.85313" lon="0.91268">
        <ele>1390.918</ele>
        <time>2021-03-13T10:02:45Z</time>
      </trkpt>
      <trkpt lat="42.85313" lon="0.91267">
        <ele>1390.57</ele>
        <time>2021-03-13T10:02:47Z</time>
      </trkpt>
      <trkpt lat="42.85313" lon="0.91266">
        <ele>1391.67</ele>
        <time>2021-03-13T10:02:49Z</time>
      </trkpt>
      <trkpt lat="42.85312" lon="0.91264">
        <ele>1391.676</ele>
        <time>2021-03-13T10:02:51Z</time>
      </trkpt>
      <trkpt lat="42.85312" lon="0.91262">
        <ele>1391.572</ele>
        <time>2021-03-13T10:02:53Z</time>
      </trkpt>
      <trkpt lat="42.85313" lon="0.9126">
        <ele>1390.66</ele>
        <time>2021-03-13T10:02:55Z</time>
      </trkpt>
      <trkpt lat="42.85313" lon="0.91259">
        <ele>1390.943</ele>
        <time>2021-03-13T10:02:57Z</time>
      </trkpt>
      <trkpt lat="42.85314" lon="0.91258">
        <ele>1390.316</ele>
        <time>2021-03-13T10:02:59Z</time>
      </trkpt>
      <trkpt lat="42.85314" lon="0.91257">
        <ele>1389.54</ele>
        <time>2021-03-13T10:03:01Z</time>
      </trkpt>
      <trkpt lat="42.85314" lon="0.91256">
        <ele>1390.075</ele>
        <time>2021-03-13T10:03:03Z</time>
      </trkpt>
      <trkpt lat="42.85315" lon="0.91256">
        <ele>1390.189</ele>
        <time>2021-03-13T10:03:05Z</time>
      </trkpt>
      <trkpt lat="42.85316" lon="0.91257">
        <ele>1390.669</ele>
        <time>2021-03-13T10:03:08Z</time>
      </trkpt>
      <trkpt lat="42.85316" lon="0.91257">
        <ele>1390.803</ele>
        <time>2021-03-13T10:03:10Z</time>
      </trkpt>
      <trkpt lat="42.85316" lon="0.91258">
        <ele>1391.757</ele>
        <time>2021-03-13T10:03:12Z</time>
      </trkpt>
      <trkpt lat="42.85316" lon="0.91258">
        <ele>1393.084</ele>
        <time>2021-03-13T10:03:14Z</time>
      </trkpt>
      <trkpt lat="42.85316" lon="0.91259">
        <ele>1393.059</ele>
        <time>2021-03-13T10:03:16Z</time>
      </trkpt>
      <trkpt lat="42.85316" lon="0.91259">
        <ele>1393.323</ele>
        <time>2021-03-13T10:03:18Z</time>
      </trkpt>
      <trkpt lat="42.85316" lon="0.91259">
        <ele>1394.475</ele>
        <time>2021-03-13T10:03:20Z</time>
      </trkpt>
      <trkpt lat="42.85317" lon="0.91259">
        <ele>1395.595</ele>
        <time>2021-03-13T10:03:22Z</time>
      </trkpt>
      <trkpt lat="42.85317" lon="0.91259">
        <ele>1396.53</ele>
        <time>2021-03-13T10:03:24Z</time>
      </trkpt>
      <trkpt lat="42.85318" lon="0.91259">
        <ele>1397.253</ele>
        <time>2021-03-13T10:03:26Z</time>
      </trkpt>
      <trkpt lat="42.85319" lon="0.9126">
        <ele>1398.462</ele>
        <time>2021-03-13T10:03:28Z</time>
      </trkpt>
      <trkpt lat="42.85319" lon="0.9126">
        <ele>1399.142</ele>
        <time>2021-03-13T10:03:30Z</time>
      </trkpt>
      <trkpt lat="42.85319" lon="0.9126">
        <ele>1399.148</ele>
        <time>2021-03-13T10:03:32Z</time>
      </trkpt>
      <trkpt lat="42.8532" lon="0.9126">
        <ele>1399.311</ele>
        <time>2021-03-13T10:03:34Z</time>
      </trkpt>
      <trkpt lat="42.85321" lon="0.91261">
        <ele>1399.459</ele>
        <time>2021-03-13T10:03:36Z</time>
      </trkpt>
      <trkpt lat="42.85322" lon="0.91261">
        <ele>1400.842</ele>
        <time>2021-03-13T10:03:38Z</time>
      </trkpt>
      <trkpt lat="42.85322" lon="0.91261">
        <ele>1402.048</ele>
        <time>2021-03-13T10:03:40Z</time>
      </trkpt>
      <trkpt lat="42.85323" lon="0.91261">
        <ele>1402.689</ele>
        <time>2021-03-13T10:03:42Z</time>
      </trkpt>
      <trkpt lat="42.85322" lon="0.91261">
        <ele>1402.7</ele>
        <time>2021-03-13T10:03:44Z</time>
      </trkpt>
      <trkpt lat="42.85323" lon="0.91261">
        <ele>1402.749</ele>
        <time>2021-03-13T10:03:46Z</time>
      </trkpt>
      <trkpt lat="42.85324" lon="0.9126">
        <ele>1403.335</ele>
        <time>2021-03-13T10:03:48Z</time>
      </trkpt>
      <trkpt lat="42.85324" lon="0.91261">
        <ele>1403.309</ele>
        <time>2021-03-13T10:03:50Z</time>
      </trkpt>
      <trkpt lat="42.85324" lon="0.91261">
        <ele>1403.32</ele>
        <time>2021-03-13T10:03:52Z</time>
      </trkpt>
      <trkpt lat="42.85324" lon="0.91261">
        <ele>1403.33</ele>
        <time>2021-03-13T10:03:54Z</time>
      </trkpt>
      <trkpt lat="42.85324" lon="0.91261">
        <ele>1403.342</ele>
        <time>2021-03-13T10:03:56Z</time>
      </trkpt>
      <trkpt lat="42.85324" lon="0.91261">
        <ele>1402.99</ele>
        <time>2021-03-13T10:03:58Z</time>
      </trkpt>
      <trkpt lat="42.85324" lon="0.91261">
        <ele>1403.384</ele>
        <time>2021-03-13T10:04:00Z</time>
      </trkpt>
      <trkpt lat="42.85324" lon="0.91262">
        <ele>1403.366</ele>
        <time>2021-03-13T10:04:02Z</time>
      </trkpt>
      <trkpt lat="42.85324" lon="0.91262">
        <ele>1403.887</ele>
        <time>2021-03-13T10:04:04Z</time>
      </trkpt>
      <trkpt lat="42.85324" lon="0.91262">
        <ele>1403.897</ele>
        <time>2021-03-13T10:04:06Z</time>
      </trkpt>
      <trkpt lat="42.85324" lon="0.91262">
        <ele>1403.893</ele>
        <time>2021-03-13T10:04:08Z</time>
      </trkpt>
      <trkpt lat="42.85324" lon="0.91262">
        <ele>1403.9</ele>
        <time>2021-03-13T10:04:10Z</time>
      </trkpt>
      <trkpt lat="42.85324" lon="0.91262">
        <ele>1403.899</ele>
        <time>2021-03-13T10:04:12Z</time>
      </trkpt>
      <trkpt lat="42.85324" lon="0.91262">
        <ele>1403.897</ele>
        <time>2021-03-13T10:04:14Z</time>
      </trkpt>
      <trkpt lat="42.85324" lon="0.91262">
        <ele>1403.917</ele>
        <time>2021-03-13T10:04:16Z</time>
      </trkpt>
      <trkpt lat="42.85324" lon="0.91262">
        <ele>1403.921</ele>
        <time>2021-03-13T10:04:18Z</time>
      </trkpt>
      <trkpt lat="42.85324" lon="0.91262">
        <ele>1403.805</ele>
        <time>2021-03-13T10:04:20Z</time>
      </trkpt>
      <trkpt lat="42.85324" lon="0.91262">
        <ele>1403.798</ele>
        <time>2021-03-13T10:04:22Z</time>
      </trkpt>
      <trkpt lat="42.85324" lon="0.91262">
        <ele>1403.791</ele>
        <time>2021-03-13T10:04:24Z</time>
      </trkpt>
      <trkpt lat="42.85324" lon="0.91262">
        <ele>1404.792</ele>
        <time>2021-03-13T10:04:26Z</time>
      </trkpt>
      <trkpt lat="42.85324" lon="0.91263">
        <ele>1404.25</ele>
        <time>2021-03-13T10:04:28Z</time>
      </trkpt>
      <trkpt lat="42.85324" lon="0.91264">
        <ele>1404.496</ele>
        <time>2021-03-13T10:04:30Z</time>
      </trkpt>
      <trkpt lat="42.85324" lon="0.91265">
        <ele>1404.823</ele>
        <time>2021-03-13T10:04:32Z</time>
      </trkpt>
      <trkpt lat="42.85323" lon="0.91265">
        <ele>1405.312</ele>
        <time>2021-03-13T10:04:34Z</time>
      </trkpt>
      <trkpt lat="42.85323" lon="0.91266">
        <ele>1405.698</ele>
        <time>2021-03-13T10:04:36Z</time>
      </trkpt>
      <trkpt lat="42.85324" lon="0.91266">
        <ele>1405.585</ele>
        <time>2021-03-13T10:04:38Z</time>
      </trkpt>
      <trkpt lat="42.85324" lon="0.91266">
        <ele>1407.104</ele>
        <time>2021-03-13T10:04:40Z</time>
      </trkpt>
      <trkpt lat="42.85324" lon="0.91266">
        <ele>1406.873</ele>
        <time>2021-03-13T10:04:42Z</time>
      </trkpt>
      <trkpt lat="42.85324" lon="0.91266">
        <ele>1406.876</ele>
        <time>2021-03-13T10:04:44Z</time>
      </trkpt>
      <trkpt lat="42.85324" lon="0.91266">
        <ele>1406.621</ele>
        <time>2021-03-13T10:04:46Z</time>
      </trkpt>
      <trkpt lat="42.85325" lon="0.91265">
        <ele>1406.128</ele>
        <time>2021-03-13T10:04:48Z</time>
      </trkpt>
      <trkpt lat="42.85326" lon="0.91265">
        <ele>1406.325</ele>
        <time>2021-03-13T10:04:50Z</time>
      </trkpt>
      <trkpt lat="42.85326" lon="0.91264">
        <ele>1406.399</ele>
        <time>2021-03-13T10:04:52Z</time>
      </trkpt>
      <trkpt lat="42.85327" lon="0.91264">
        <ele>1406.15</ele>
        <time>2021-03-13T10:04:54Z</time>
      </trkpt>
      <trkpt lat="42.85327" lon="0.91264">
        <ele>1406.159</ele>
        <time>2021-03-13T10:04:56Z</time>
      </trkpt>
      <trkpt lat="42.85327" lon="0.91264">
        <ele>1406.156</ele>
        <time>2021-03-13T10:04:58Z</time>
      </trkpt>
      <trkpt lat="42.85327" lon="0.91263">
        <ele>1406.154</ele>
        <time>2021-03-13T10:05:00Z</time>
      </trkpt>
      <trkpt lat="42.85327" lon="0.91264">
        <ele>1406.558</ele>
        <time>2021-03-13T10:05:02Z</time>
      </trkpt>
      <trkpt lat="42.85328" lon="0.91264">
        <ele>1407.973</ele>
        <time>2021-03-13T10:05:04Z</time>
      </trkpt>
      <trkpt lat="42.8533" lon="0.91265">
        <ele>1408.624</ele>
        <time>2021-03-13T10:05:06Z</time>
      </trkpt>
      <trkpt lat="42.85331" lon="0.91265">
        <ele>1409.38</ele>
        <time>2021-03-13T10:05:08Z</time>
      </trkpt>
      <trkpt lat="42.85331" lon="0.91264">
        <ele>1408.955</ele>
        <time>2021-03-13T10:05:10Z</time>
      </trkpt>
      <trkpt lat="42.85331" lon="0.91264">
        <ele>1408.826</ele>
        <time>2021-03-13T10:05:12Z</time>
      </trkpt>
      <trkpt lat="42.85331" lon="0.91264">
        <ele>1409.473</ele>
        <time>2021-03-13T10:05:14Z</time>
      </trkpt>
      <trkpt lat="42.85331" lon="0.91264">
        <ele>1410.112</ele>
        <time>2021-03-13T10:05:16Z</time>
      </trkpt>
      <trkpt lat="42.85332" lon="0.91264">
        <ele>1410.356</ele>
        <time>2021-03-13T10:05:18Z</time>
      </trkpt>
      <trkpt lat="42.85332" lon="0.91264">
        <ele>1410.385</ele>
        <time>2021-03-13T10:05:20Z</time>
      </trkpt>
      <trkpt lat="42.85332" lon="0.91265">
        <ele>1409.993</ele>
        <time>2021-03-13T10:05:22Z</time>
      </trkpt>
      <trkpt lat="42.85333" lon="0.91265">
        <ele>1409.903</ele>
        <time>2021-03-13T10:05:24Z</time>
      </trkpt>
      <trkpt lat="42.85333" lon="0.91265">
        <ele>1409.947</ele>
        <time>2021-03-13T10:05:26Z</time>
      </trkpt>
      <trkpt lat="42.85333" lon="0.91265">
        <ele>1410.102</ele>
        <time>2021-03-13T10:05:28Z</time>
      </trkpt>
      <trkpt lat="42.85333" lon="0.91264">
        <ele>1410.034</ele>
        <time>2021-03-13T10:05:30Z</time>
      </trkpt>
      <trkpt lat="42.85333" lon="0.91264">
        <ele>1410.241</ele>
        <time>2021-03-13T10:05:32Z</time>
      </trkpt>
      <trkpt lat="42.85334" lon="0.91263">
        <ele>1410.454</ele>
        <time>2021-03-13T10:05:34Z</time>
      </trkpt>
      <trkpt lat="42.85334" lon="0.91263">
        <ele>1410.663</ele>
        <time>2021-03-13T10:05:36Z</time>
      </trkpt>
      <trkpt lat="42.85334" lon="0.91262">
        <ele>1410.697</ele>
        <time>2021-03-13T10:05:38Z</time>
      </trkpt>
      <trkpt lat="42.85334" lon="0.91262">
        <ele>1411.112</ele>
        <time>2021-03-13T10:05:40Z</time>
      </trkpt>
      <trkpt lat="42.85335" lon="0.91262">
        <ele>1411.631</ele>
        <time>2021-03-13T10:05:42Z</time>
      </trkpt>
      <trkpt lat="42.85335" lon="0.91263">
        <ele>1411.954</ele>
        <time>2021-03-13T10:05:44Z</time>
      </trkpt>
      <trkpt lat="42.85336" lon="0.91263">
        <ele>1412.693</ele>
        <time>2021-03-13T10:05:46Z</time>
      </trkpt>
      <trkpt lat="42.85336" lon="0.91263">
        <ele>1412.717</ele>
        <time>2021-03-13T10:05:48Z</time>
      </trkpt>
      <trkpt lat="42.85336" lon="0.91264">
        <ele>1413.122</ele>
        <time>2021-03-13T10:05:50Z</time>
      </trkpt>
      <trkpt lat="42.85336" lon="0.91264">
        <ele>1413.122</ele>
        <time>2021-03-13T10:05:52Z</time>
      </trkpt>
      <trkpt lat="42.85336" lon="0.91264">
        <ele>1413.614</ele>
        <time>2021-03-13T10:05:54Z</time>
      </trkpt>
      <trkpt lat="42.85336" lon="0.91265">
        <ele>1413.613</ele>
        <time>2021-03-13T10:05:56Z</time>
      </trkpt>
      <trkpt lat="42.85336" lon="0.91265">
        <ele>1414.571</ele>
        <time>2021-03-13T10:05:58Z</time>
      </trkpt>
      <trkpt lat="42.85337" lon="0.91265">
        <ele>1414.253</ele>
        <time>2021-03-13T10:06:00Z</time>
      </trkpt>
      <trkpt lat="42.85338" lon="0.91266">
        <ele>1414.236</ele>
        <time>2021-03-13T10:06:02Z</time>
      </trkpt>
      <trkpt lat="42.85339" lon="0.91266">
        <ele>1415.17</ele>
        <time>2021-03-13T10:06:04Z</time>
      </trkpt>
      <trkpt lat="42.8534" lon="0.91266">
        <ele>1415.67</ele>
        <time>2021-03-13T10:06:06Z</time>
      </trkpt>
      <trkpt lat="42.8534" lon="0.91266">
        <ele>1416.751</ele>
        <time>2021-03-13T10:06:08Z</time>
      </trkpt>
      <trkpt lat="42.8534" lon="0.91265">
        <ele>1416.07</ele>
        <time>2021-03-13T10:06:10Z</time>
      </trkpt>
      <trkpt lat="42.85341" lon="0.91264">
        <ele>1416.252</ele>
        <time>2021-03-13T10:06:12Z</time>
      </trkpt>
      <trkpt lat="42.85341" lon="0.91263">
        <ele>1416.751</ele>
        <time>2021-03-13T10:06:14Z</time>
      </trkpt>
      <trkpt lat="42.85341" lon="0.91264">
        <ele>1416.74</ele>
        <time>2021-03-13T10:06:16Z</time>
      </trkpt>
      <trkpt lat="42.85341" lon="0.91264">
        <ele>1416.738</ele>
        <time>2021-03-13T10:06:18Z</time>
      </trkpt>
      <trkpt lat="42.85341" lon="0.91264">
        <ele>1416.734</ele>
        <time>2021-03-13T10:06:20Z</time>
      </trkpt>
      <trkpt lat="42.85341" lon="0.91264">
        <ele>1416.736</ele>
        <time>2021-03-13T10:06:22Z</time>
      </trkpt>
      <trkpt lat="42.85341" lon="0.91263">
        <ele>1416.504</ele>
        <time>2021-03-13T10:06:24Z</time>
      </trkpt>
      <trkpt lat="42.85342" lon="0.91263">
        <ele>1416.653</ele>
        <time>2021-03-13T10:06:26Z</time>
      </trkpt>
      <trkpt lat="42.85342" lon="0.91263">
        <ele>1417.902</ele>
        <time>2021-03-13T10:06:28Z</time>
      </trkpt>
      <trkpt lat="42.85342" lon="0.91263">
        <ele>1417.955</ele>
        <time>2021-03-13T10:06:30Z</time>
      </trkpt>
      <trkpt lat="42.85342" lon="0.91263">
        <ele>1417.971</ele>
        <time>2021-03-13T10:06:32Z</time>
      </trkpt>
      <trkpt lat="42.85342" lon="0.91264">
        <ele>1417.967</ele>
        <time>2021-03-13T10:06:34Z</time>
      </trkpt>
      <trkpt lat="42.85342" lon="0.91264">
        <ele>1417.973</ele>
        <time>2021-03-13T10:06:36Z</time>
      </trkpt>
      <trkpt lat="42.85342" lon="0.91264">
        <ele>1418.288</ele>
        <time>2021-03-13T10:06:38Z</time>
      </trkpt>
      <trkpt lat="42.85342" lon="0.91264">
        <ele>1418.603</ele>
        <time>2021-03-13T10:06:40Z</time>
      </trkpt>
      <trkpt lat="42.85342" lon="0.91264">
        <ele>1419.091</ele>
        <time>2021-03-13T10:06:42Z</time>
      </trkpt>
      <trkpt lat="42.85343" lon="0.91265">
        <ele>1419.875</ele>
        <time>2021-03-13T10:06:44Z</time>
      </trkpt>
      <trkpt lat="42.85344" lon="0.91265">
        <ele>1420.79</ele>
        <time>2021-03-13T10:06:46Z</time>
      </trkpt>
      <trkpt lat="42.85344" lon="0.91264">
        <ele>1419.814</ele>
        <time>2021-03-13T10:06:48Z</time>
      </trkpt>
      <trkpt lat="42.85344" lon="0.91265">
        <ele>1420.415</ele>
        <time>2021-03-13T10:06:50Z</time>
      </trkpt>
      <trkpt lat="42.85345" lon="0.91266">
        <ele>1420.959</ele>
        <time>2021-03-13T10:06:52Z</time>
      </trkpt>
      <trkpt lat="42.85346" lon="0.91265">
        <ele>1421.613</ele>
        <time>2021-03-13T10:06:54Z</time>
      </trkpt>
      <trkpt lat="42.85346" lon="0.91263">
        <ele>1421.394</ele>
        <time>2021-03-13T10:06:56Z</time>
      </trkpt>
      <trkpt lat="42.85347" lon="0.91262">
        <ele>1421.936</ele>
        <time>2021-03-13T10:06:58Z</time>
      </trkpt>
      <trkpt lat="42.85347" lon="0.91261">
        <ele>1423.06</ele>
        <time>2021-03-13T10:07:00Z</time>
      </trkpt>
      <trkpt lat="42.85348" lon="0.91261">
        <ele>1423.693</ele>
        <time>2021-03-13T10:07:02Z</time>
      </trkpt>
      <trkpt lat="42.85348" lon="0.9126">
        <ele>1424.092</ele>
        <time>2021-03-13T10:07:04Z</time>
      </trkpt>
      <trkpt lat="42.85348" lon="0.91259">
        <ele>1424.273</ele>
        <time>2021-03-13T10:07:06Z</time>
      </trkpt>
      <trkpt lat="42.85349" lon="0.91258">
        <ele>1423.606</ele>
        <time>2021-03-13T10:07:08Z</time>
      </trkpt>
      <trkpt lat="42.85349" lon="0.91256">
        <ele>1424.402</ele>
        <time>2021-03-13T10:07:10Z</time>
      </trkpt>
      <trkpt lat="42.85349" lon="0.91255">
        <ele>1424.743</ele>
        <time>2021-03-13T10:07:12Z</time>
      </trkpt>
      <trkpt lat="42.8535" lon="0.91255">
        <ele>1425.498</ele>
        <time>2021-03-13T10:07:14Z</time>
      </trkpt>
      <trkpt lat="42.8535" lon="0.91254">
        <ele>1425.776</ele>
        <time>2021-03-13T10:07:16Z</time>
      </trkpt>
      <trkpt lat="42.8535" lon="0.91253">
        <ele>1425.24</ele>
        <time>2021-03-13T10:07:18Z</time>
      </trkpt>
      <trkpt lat="42.85351" lon="0.91252">
        <ele>1426.169</ele>
        <time>2021-03-13T10:07:20Z</time>
      </trkpt>
      <trkpt lat="42.85351" lon="0.91251">
        <ele>1426.04</ele>
        <time>2021-03-13T10:07:22Z</time>
      </trkpt>
      <trkpt lat="42.85351" lon="0.91251">
        <ele>1425.932</ele>
        <time>2021-03-13T10:07:24Z</time>
      </trkpt>
      <trkpt lat="42.85351" lon="0.91251">
        <ele>1426.013</ele>
        <time>2021-03-13T10:07:26Z</time>
      </trkpt>
      <trkpt lat="42.85352" lon="0.91251">
        <ele>1425.539</ele>
        <time>2021-03-13T10:07:28Z</time>
      </trkpt>
      <trkpt lat="42.85352" lon="0.91251">
        <ele>1425.747</ele>
        <time>2021-03-13T10:07:30Z</time>
      </trkpt>
      <trkpt lat="42.85352" lon="0.91251">
        <ele>1426.102</ele>
        <time>2021-03-13T10:07:32Z</time>
      </trkpt>
      <trkpt lat="42.85353" lon="0.9125">
        <ele>1427.502</ele>
        <time>2021-03-13T10:07:34Z</time>
      </trkpt>
      <trkpt lat="42.85353" lon="0.91249">
        <ele>1428.457</ele>
        <time>2021-03-13T10:07:36Z</time>
      </trkpt>
      <trkpt lat="42.85353" lon="0.91248">
        <ele>1428.519</ele>
        <time>2021-03-13T10:07:38Z</time>
      </trkpt>
      <trkpt lat="42.85353" lon="0.91246">
        <ele>1428.627</ele>
        <time>2021-03-13T10:07:40Z</time>
      </trkpt>
      <trkpt lat="42.85353" lon="0.91245">
        <ele>1428.518</ele>
        <time>2021-03-13T10:07:42Z</time>
      </trkpt>
      <trkpt lat="42.85353" lon="0.91243">
        <ele>1428.384</ele>
        <time>2021-03-13T10:07:44Z</time>
      </trkpt>
      <trkpt lat="42.85354" lon="0.91242">
        <ele>1428.692</ele>
        <time>2021-03-13T10:07:46Z</time>
      </trkpt>
      <trkpt lat="42.85354" lon="0.91242">
        <ele>1428.697</ele>
        <time>2021-03-13T10:07:48Z</time>
      </trkpt>
      <trkpt lat="42.85354" lon="0.91241">
        <ele>1428.047</ele>
        <time>2021-03-13T10:07:50Z</time>
      </trkpt>
      <trkpt lat="42.85354" lon="0.9124">
        <ele>1428.696</ele>
        <time>2021-03-13T10:07:52Z</time>
      </trkpt>
      <trkpt lat="42.85354" lon="0.91238">
        <ele>1429.169</ele>
        <time>2021-03-13T10:07:54Z</time>
      </trkpt>
      <trkpt lat="42.85354" lon="0.91237">
        <ele>1429.21</ele>
        <time>2021-03-13T10:07:56Z</time>
      </trkpt>
      <trkpt lat="42.85354" lon="0.91236">
        <ele>1429.088</ele>
        <time>2021-03-13T10:07:58Z</time>
      </trkpt>
      <trkpt lat="42.85354" lon="0.91235">
        <ele>1429.483</ele>
        <time>2021-03-13T10:08:00Z</time>
      </trkpt>
      <trkpt lat="42.85354" lon="0.91234">
        <ele>1429.475</ele>
        <time>2021-03-13T10:08:02Z</time>
      </trkpt>
      <trkpt lat="42.85354" lon="0.91234">
        <ele>1429.498</ele>
        <time>2021-03-13T10:08:04Z</time>
      </trkpt>
      <trkpt lat="42.85355" lon="0.91234">
        <ele>1429.681</ele>
        <time>2021-03-13T10:08:06Z</time>
      </trkpt>
      <trkpt lat="42.85355" lon="0.91234">
        <ele>1429.681</ele>
        <time>2021-03-13T10:08:08Z</time>
      </trkpt>
      <trkpt lat="42.85355" lon="0.91234">
        <ele>1429.616</ele>
        <time>2021-03-13T10:08:10Z</time>
      </trkpt>
      <trkpt lat="42.85356" lon="0.91235">
        <ele>1430.323</ele>
        <time>2021-03-13T10:08:12Z</time>
      </trkpt>
      <trkpt lat="42.85356" lon="0.91235">
        <ele>1430.603</ele>
        <time>2021-03-13T10:08:14Z</time>
      </trkpt>
      <trkpt lat="42.85356" lon="0.91235">
        <ele>1431.315</ele>
        <time>2021-03-13T10:08:16Z</time>
      </trkpt>
      <trkpt lat="42.85357" lon="0.91235">
        <ele>1430.918</ele>
        <time>2021-03-13T10:08:18Z</time>
      </trkpt>
      <trkpt lat="42.85358" lon="0.91236">
        <ele>1431.674</ele>
        <time>2021-03-13T10:08:20Z</time>
      </trkpt>
      <trkpt lat="42.85359" lon="0.91236">
        <ele>1431.82</ele>
        <time>2021-03-13T10:08:22Z</time>
      </trkpt>
      <trkpt lat="42.8536" lon="0.91235">
        <ele>1432.732</ele>
        <time>2021-03-13T10:08:24Z</time>
      </trkpt>
      <trkpt lat="42.8536" lon="0.91235">
        <ele>1434.042</ele>
        <time>2021-03-13T10:08:26Z</time>
      </trkpt>
      <trkpt lat="42.85361" lon="0.91234">
        <ele>1433.652</ele>
        <time>2021-03-13T10:08:28Z</time>
      </trkpt>
      <trkpt lat="42.85361" lon="0.91234">
        <ele>1433.773</ele>
        <time>2021-03-13T10:08:30Z</time>
      </trkpt>
      <trkpt lat="42.85361" lon="0.91233">
        <ele>1434.139</ele>
        <time>2021-03-13T10:08:32Z</time>
      </trkpt>
      <trkpt lat="42.85362" lon="0.91233">
        <ele>1433.831</ele>
        <time>2021-03-13T10:08:34Z</time>
      </trkpt>
      <trkpt lat="42.85362" lon="0.91233">
        <ele>1433.838</ele>
        <time>2021-03-13T10:08:36Z</time>
      </trkpt>
      <trkpt lat="42.85362" lon="0.91233">
        <ele>1433.847</ele>
        <time>2021-03-13T10:08:38Z</time>
      </trkpt>
      <trkpt lat="42.85362" lon="0.91233">
        <ele>1434.134</ele>
        <time>2021-03-13T10:08:40Z</time>
      </trkpt>
      <trkpt lat="42.85363" lon="0.91233">
        <ele>1435.264</ele>
        <time>2021-03-13T10:08:42Z</time>
      </trkpt>
      <trkpt lat="42.85364" lon="0.91232">
        <ele>1436.57</ele>
        <time>2021-03-13T10:08:44Z</time>
      </trkpt>
      <trkpt lat="42.85364" lon="0.91231">
        <ele>1437.721</ele>
        <time>2021-03-13T10:08:46Z</time>
      </trkpt>
      <trkpt lat="42.85364" lon="0.91231">
        <ele>1437.725</ele>
        <time>2021-03-13T10:08:48Z</time>
      </trkpt>
      <trkpt lat="42.85365" lon="0.91231">
        <ele>1438.07</ele>
        <time>2021-03-13T10:08:50Z</time>
      </trkpt>
      <trkpt lat="42.85365" lon="0.91231">
        <ele>1438.349</ele>
        <time>2021-03-13T10:08:52Z</time>
      </trkpt>
      <trkpt lat="42.85366" lon="0.91231">
        <ele>1438.504</ele>
        <time>2021-03-13T10:08:54Z</time>
      </trkpt>
      <trkpt lat="42.85366" lon="0.9123">
        <ele>1438.955</ele>
        <time>2021-03-13T10:08:56Z</time>
      </trkpt>
      <trkpt lat="42.85366" lon="0.9123">
        <ele>1438.904</ele>
        <time>2021-03-13T10:08:58Z</time>
      </trkpt>
      <trkpt lat="42.85366" lon="0.9123">
        <ele>1438.916</ele>
        <time>2021-03-13T10:09:00Z</time>
      </trkpt>
      <trkpt lat="42.85366" lon="0.91229">
        <ele>1438.095</ele>
        <time>2021-03-13T10:09:02Z</time>
      </trkpt>
      <trkpt lat="42.85366" lon="0.91229">
        <ele>1438.294</ele>
        <time>2021-03-13T10:09:04Z</time>
      </trkpt>
      <trkpt lat="42.85366" lon="0.91228">
        <ele>1438.311</ele>
        <time>2021-03-13T10:09:06Z</time>
      </trkpt>
      <trkpt lat="42.85367" lon="0.91228">
        <ele>1439.315</ele>
        <time>2021-03-13T10:09:08Z</time>
      </trkpt>
      <trkpt lat="42.85367" lon="0.91228">
        <ele>1438.446</ele>
        <time>2021-03-13T10:09:10Z</time>
      </trkpt>
      <trkpt lat="42.85367" lon="0.91228">
        <ele>1439.143</ele>
        <time>2021-03-13T10:09:12Z</time>
      </trkpt>
      <trkpt lat="42.85367" lon="0.91228">
        <ele>1438.541</ele>
        <time>2021-03-13T10:09:14Z</time>
      </trkpt>
      <trkpt lat="42.85367" lon="0.91228">
        <ele>1439.012</ele>
        <time>2021-03-13T10:09:16Z</time>
      </trkpt>
      <trkpt lat="42.85367" lon="0.91227">
        <ele>1439.291</ele>
        <time>2021-03-13T10:09:18Z</time>
      </trkpt>
      <trkpt lat="42.85367" lon="0.91227">
        <ele>1439.287</ele>
        <time>2021-03-13T10:09:20Z</time>
      </trkpt>
      <trkpt lat="42.85367" lon="0.91227">
        <ele>1439.291</ele>
        <time>2021-03-13T10:09:22Z</time>
      </trkpt>
      <trkpt lat="42.85367" lon="0.91227">
        <ele>1439.3</ele>
        <time>2021-03-13T10:09:24Z</time>
      </trkpt>
      <trkpt lat="42.85367" lon="0.91227">
        <ele>1439.304</ele>
        <time>2021-03-13T10:09:26Z</time>
      </trkpt>
      <trkpt lat="42.85367" lon="0.91227">
        <ele>1439.307</ele>
        <time>2021-03-13T10:09:28Z</time>
      </trkpt>
      <trkpt lat="42.85367" lon="0.91227">
        <ele>1439.779</ele>
        <time>2021-03-13T10:09:30Z</time>
      </trkpt>
      <trkpt lat="42.85367" lon="0.91227">
        <ele>1439.788</ele>
        <time>2021-03-13T10:09:32Z</time>
      </trkpt>
      <trkpt lat="42.85367" lon="0.91227">
        <ele>1440.122</ele>
        <time>2021-03-13T10:09:34Z</time>
      </trkpt>
      <trkpt lat="42.85368" lon="0.91226">
        <ele>1440.928</ele>
        <time>2021-03-13T10:09:36Z</time>
      </trkpt>
      <trkpt lat="42.85369" lon="0.91225">
        <ele>1441.56</ele>
        <time>2021-03-13T10:09:38Z</time>
      </trkpt>
      <trkpt lat="42.85369" lon="0.91225">
        <ele>1443.192</ele>
        <time>2021-03-13T10:09:40Z</time>
      </trkpt>
      <trkpt lat="42.8537" lon="0.91224">
        <ele>1441.791</ele>
        <time>2021-03-13T10:09:42Z</time>
      </trkpt>
      <trkpt lat="42.8537" lon="0.91224">
        <ele>1441.555</ele>
        <time>2021-03-13T10:09:44Z</time>
      </trkpt>
      <trkpt lat="42.8537" lon="0.91223">
        <ele>1441.742</ele>
        <time>2021-03-13T10:09:46Z</time>
      </trkpt>
      <trkpt lat="42.8537" lon="0.91222">
        <ele>1441.429</ele>
        <time>2021-03-13T10:09:48Z</time>
      </trkpt>
      <trkpt lat="42.8537" lon="0.9122">
        <ele>1440.079</ele>
        <time>2021-03-13T10:09:50Z</time>
      </trkpt>
      <trkpt lat="42.8537" lon="0.9122">
        <ele>1441.859</ele>
        <time>2021-03-13T10:09:52Z</time>
      </trkpt>
      <trkpt lat="42.8537" lon="0.91219">
        <ele>1441.952</ele>
        <time>2021-03-13T10:09:54Z</time>
      </trkpt>
      <trkpt lat="42.8537" lon="0.91219">
        <ele>1442.391</ele>
        <time>2021-03-13T10:09:56Z</time>
      </trkpt>
      <trkpt lat="42.8537" lon="0.9122">
        <ele>1442.389</ele>
        <time>2021-03-13T10:09:58Z</time>
      </trkpt>
      <trkpt lat="42.8537" lon="0.9122">
        <ele>1442.399</ele>
        <time>2021-03-13T10:10:00Z</time>
      </trkpt>
      <trkpt lat="42.85371" lon="0.91219">
        <ele>1442.528</ele>
        <time>2021-03-13T10:10:02Z</time>
      </trkpt>
      <trkpt lat="42.85371" lon="0.91219">
        <ele>1442.126</ele>
        <time>2021-03-13T10:10:04Z</time>
      </trkpt>
      <trkpt lat="42.85371" lon="0.91219">
        <ele>1442.677</ele>
        <time>2021-03-13T10:10:06Z</time>
      </trkpt>
      <trkpt lat="42.85372" lon="0.91218">
        <ele>1443.374</ele>
        <time>2021-03-13T10:10:08Z</time>
      </trkpt>
      <trkpt lat="42.85372" lon="0.91218">
        <ele>1442.942</ele>
        <time>2021-03-13T10:10:10Z</time>
      </trkpt>
      <trkpt lat="42.85372" lon="0.91218">
        <ele>1443.058</ele>
        <time>2021-03-13T10:10:12Z</time>
      </trkpt>
      <trkpt lat="42.85372" lon="0.91216">
        <ele>1443.27</ele>
        <time>2021-03-13T10:10:14Z</time>
      </trkpt>
      <trkpt lat="42.85372" lon="0.91216">
        <ele>1442.998</ele>
        <time>2021-03-13T10:10:16Z</time>
      </trkpt>
      <trkpt lat="42.85372" lon="0.91215">
        <ele>1444.298</ele>
        <time>2021-03-13T10:10:18Z</time>
      </trkpt>
      <trkpt lat="42.85372" lon="0.91214">
        <ele>1444.18</ele>
        <time>2021-03-13T10:10:20Z</time>
      </trkpt>
      <trkpt lat="42.85372" lon="0.91213">
        <ele>1445.938</ele>
        <time>2021-03-13T10:10:22Z</time>
      </trkpt>
      <trkpt lat="42.85372" lon="0.91213">
        <ele>1448.172</ele>
        <time>2021-03-13T10:10:24Z</time>
      </trkpt>
      <trkpt lat="42.85371" lon="0.91213">
        <ele>1448.187</ele>
        <time>2021-03-13T10:10:26Z</time>
      </trkpt>
      <trkpt lat="42.85371" lon="0.91213">
        <ele>1448.083</ele>
        <time>2021-03-13T10:10:28Z</time>
      </trkpt>
      <trkpt lat="42.85371" lon="0.91213">
        <ele>1447.726</ele>
        <time>2021-03-13T10:10:30Z</time>
      </trkpt>
      <trkpt lat="42.85371" lon="0.91212">
        <ele>1447.994</ele>
        <time>2021-03-13T10:10:32Z</time>
      </trkpt>
      <trkpt lat="42.85372" lon="0.91211">
        <ele>1448.695</ele>
        <time>2021-03-13T10:10:34Z</time>
      </trkpt>
      <trkpt lat="42.85373" lon="0.9121">
        <ele>1449.281</ele>
        <time>2021-03-13T10:10:36Z</time>
      </trkpt>
      <trkpt lat="42.85373" lon="0.9121">
        <ele>1449.287</ele>
        <time>2021-03-13T10:10:38Z</time>
      </trkpt>
      <trkpt lat="42.85373" lon="0.9121">
        <ele>1449.289</ele>
        <time>2021-03-13T10:10:40Z</time>
      </trkpt>
      <trkpt lat="42.85373" lon="0.9121">
        <ele>1449.28</ele>
        <time>2021-03-13T10:10:42Z</time>
      </trkpt>
      <trkpt lat="42.85373" lon="0.91209">
        <ele>1449.415</ele>
        <time>2021-03-13T10:10:44Z</time>
      </trkpt>
      <trkpt lat="42.85373" lon="0.91209">
        <ele>1449.6</ele>
        <time>2021-03-13T10:10:46Z</time>
      </trkpt>
      <trkpt lat="42.85373" lon="0.91209">
        <ele>1449.482</ele>
        <time>2021-03-13T10:10:48Z</time>
      </trkpt>
      <trkpt lat="42.85373" lon="0.91209">
        <ele>1450.211</ele>
        <time>2021-03-13T10:10:50Z</time>
      </trkpt>
      <trkpt lat="42.85373" lon="0.91208">
        <ele>1451.393</ele>
        <time>2021-03-13T10:10:52Z</time>
      </trkpt>
      <trkpt lat="42.85374" lon="0.91207">
        <ele>1451.232</ele>
        <time>2021-03-13T10:10:54Z</time>
      </trkpt>
      <trkpt lat="42.85374" lon="0.91207">
        <ele>1451.5</ele>
        <time>2021-03-13T10:10:56Z</time>
      </trkpt>
      <trkpt lat="42.85374" lon="0.91206">
        <ele>1451.309</ele>
        <time>2021-03-13T10:10:58Z</time>
      </trkpt>
      <trkpt lat="42.85375" lon="0.91205">
        <ele>1451.449</ele>
        <time>2021-03-13T10:11:00Z</time>
      </trkpt>
      <trkpt lat="42.85375" lon="0.91204">
        <ele>1452.057</ele>
        <time>2021-03-13T10:11:02Z</time>
      </trkpt>
      <trkpt lat="42.85375" lon="0.91204">
        <ele>1452.515</ele>
        <time>2021-03-13T10:11:04Z</time>
      </trkpt>
      <trkpt lat="42.85376" lon="0.91204">
        <ele>1452.899</ele>
        <time>2021-03-13T10:11:06Z</time>
      </trkpt>
      <trkpt lat="42.85376" lon="0.91204">
        <ele>1452.167</ele>
        <time>2021-03-13T10:11:08Z</time>
      </trkpt>
      <trkpt lat="42.85377" lon="0.91203">
        <ele>1452.158</ele>
        <time>2021-03-13T10:11:10Z</time>
      </trkpt>
      <trkpt lat="42.85377" lon="0.91203">
        <ele>1451.874</ele>
        <time>2021-03-13T10:11:12Z</time>
      </trkpt>
      <trkpt lat="42.85377" lon="0.91203">
        <ele>1452.272</ele>
        <time>2021-03-13T10:11:14Z</time>
      </trkpt>
      <trkpt lat="42.85378" lon="0.91204">
        <ele>1452.496</ele>
        <time>2021-03-13T10:11:16Z</time>
      </trkpt>
      <trkpt lat="42.85378" lon="0.91204">
        <ele>1452.886</ele>
        <time>2021-03-13T10:11:18Z</time>
      </trkpt>
      <trkpt lat="42.85378" lon="0.91204">
        <ele>1452.727</ele>
        <time>2021-03-13T10:11:20Z</time>
      </trkpt>
      <trkpt lat="42.85378" lon="0.91204">
        <ele>1453.159</ele>
        <time>2021-03-13T10:11:22Z</time>
      </trkpt>
      <trkpt lat="42.85378" lon="0.91204">
        <ele>1453.435</ele>
        <time>2021-03-13T10:11:24Z</time>
      </trkpt>
      <trkpt lat="42.85378" lon="0.91204">
        <ele>1453.938</ele>
        <time>2021-03-13T10:11:26Z</time>
      </trkpt>
      <trkpt lat="42.85379" lon="0.91204">
        <ele>1452.874</ele>
        <time>2021-03-13T10:11:28Z</time>
      </trkpt>
      <trkpt lat="42.85379" lon="0.91204">
        <ele>1453.479</ele>
        <time>2021-03-13T10:11:30Z</time>
      </trkpt>
      <trkpt lat="42.8538" lon="0.91204">
        <ele>1454.438</ele>
        <time>2021-03-13T10:11:32Z</time>
      </trkpt>
      <trkpt lat="42.85381" lon="0.91203">
        <ele>1454.694</ele>
        <time>2021-03-13T10:11:34Z</time>
      </trkpt>
      <trkpt lat="42.85381" lon="0.91203">
        <ele>1454.693</ele>
        <time>2021-03-13T10:11:36Z</time>
      </trkpt>
      <trkpt lat="42.85381" lon="0.91203">
        <ele>1454.697</ele>
        <time>2021-03-13T10:11:38Z</time>
      </trkpt>
      <trkpt lat="42.85381" lon="0.91203">
        <ele>1454.699</ele>
        <time>2021-03-13T10:11:40Z</time>
      </trkpt>
      <trkpt lat="42.85381" lon="0.91203">
        <ele>1455.125</ele>
        <time>2021-03-13T10:11:42Z</time>
      </trkpt>
      <trkpt lat="42.85382" lon="0.91202">
        <ele>1456.069</ele>
        <time>2021-03-13T10:11:44Z</time>
      </trkpt>
      <trkpt lat="42.85382" lon="0.91202">
        <ele>1456.497</ele>
        <time>2021-03-13T10:11:46Z</time>
      </trkpt>
      <trkpt lat="42.85383" lon="0.91201">
        <ele>1455.993</ele>
        <time>2021-03-13T10:11:48Z</time>
      </trkpt>
      <trkpt lat="42.85383" lon="0.91201">
        <ele>1456.809</ele>
        <time>2021-03-13T10:11:50Z</time>
      </trkpt>
      <trkpt lat="42.85384" lon="0.91201">
        <ele>1457.732</ele>
        <time>2021-03-13T10:11:52Z</time>
      </trkpt>
      <trkpt lat="42.85384" lon="0.912">
        <ele>1458.179</ele>
        <time>2021-03-13T10:11:54Z</time>
      </trkpt>
      <trkpt lat="42.85384" lon="0.912">
        <ele>1458.194</ele>
        <time>2021-03-13T10:11:56Z</time>
      </trkpt>
      <trkpt lat="42.85384" lon="0.912">
        <ele>1459.069</ele>
        <time>2021-03-13T10:11:58Z</time>
      </trkpt>
      <trkpt lat="42.85385" lon="0.91199">
        <ele>1459.848</ele>
        <time>2021-03-13T10:12:00Z</time>
      </trkpt>
      <trkpt lat="42.85385" lon="0.91199">
        <ele>1459.573</ele>
        <time>2021-03-13T10:12:02Z</time>
      </trkpt>
      <trkpt lat="42.85385" lon="0.91199">
        <ele>1459.571</ele>
        <time>2021-03-13T10:12:04Z</time>
      </trkpt>
      <trkpt lat="42.85385" lon="0.91199">
        <ele>1459.149</ele>
        <time>2021-03-13T10:12:06Z</time>
      </trkpt>
      <trkpt lat="42.85385" lon="0.91199">
        <ele>1459.134</ele>
        <time>2021-03-13T10:12:08Z</time>
      </trkpt>
      <trkpt lat="42.85386" lon="0.91199">
        <ele>1459.786</ele>
        <time>2021-03-13T10:12:10Z</time>
      </trkpt>
      <trkpt lat="42.85386" lon="0.912">
        <ele>1460.151</ele>
        <time>2021-03-13T10:12:12Z</time>
      </trkpt>
      <trkpt lat="42.85387" lon="0.912">
        <ele>1461.043</ele>
        <time>2021-03-13T10:12:14Z</time>
      </trkpt>
      <trkpt lat="42.85388" lon="0.91199">
        <ele>1461.197</ele>
        <time>2021-03-13T10:12:16Z</time>
      </trkpt>
      <trkpt lat="42.85387" lon="0.91199">
        <ele>1461.938</ele>
        <time>2021-03-13T10:12:18Z</time>
      </trkpt>
      <trkpt lat="42.85388" lon="0.91198">
        <ele>1462.264</ele>
        <time>2021-03-13T10:12:20Z</time>
      </trkpt>
      <trkpt lat="42.85388" lon="0.91197">
        <ele>1461.946</ele>
        <time>2021-03-13T10:12:22Z</time>
      </trkpt>
      <trkpt lat="42.85389" lon="0.91196">
        <ele>1462.248</ele>
        <time>2021-03-13T10:12:24Z</time>
      </trkpt>
      <trkpt lat="42.85389" lon="0.91195">
        <ele>1462.04</ele>
        <time>2021-03-13T10:12:26Z</time>
      </trkpt>
      <trkpt lat="42.85389" lon="0.91195">
        <ele>1462.045</ele>
        <time>2021-03-13T10:12:28Z</time>
      </trkpt>
      <trkpt lat="42.85389" lon="0.91195">
        <ele>1462.459</ele>
        <time>2021-03-13T10:12:30Z</time>
      </trkpt>
      <trkpt lat="42.8539" lon="0.91193">
        <ele>1463.178</ele>
        <time>2021-03-13T10:12:32Z</time>
      </trkpt>
      <trkpt lat="42.8539" lon="0.91193">
        <ele>1463.165</ele>
        <time>2021-03-13T10:12:34Z</time>
      </trkpt>
      <trkpt lat="42.8539" lon="0.91192">
        <ele>1463.405</ele>
        <time>2021-03-13T10:12:36Z</time>
      </trkpt>
      <trkpt lat="42.85391" lon="0.91192">
        <ele>1463.828</ele>
        <time>2021-03-13T10:12:38Z</time>
      </trkpt>
      <trkpt lat="42.85392" lon="0.91192">
        <ele>1463.962</ele>
        <time>2021-03-13T10:12:40Z</time>
      </trkpt>
      <trkpt lat="42.85392" lon="0.91192">
        <ele>1463.975</ele>
        <time>2021-03-13T10:12:42Z</time>
      </trkpt>
      <trkpt lat="42.85392" lon="0.91192">
        <ele>1463.978</ele>
        <time>2021-03-13T10:12:44Z</time>
      </trkpt>
      <trkpt lat="42.85393" lon="0.91192">
        <ele>1464.819</ele>
        <time>2021-03-13T10:12:46Z</time>
      </trkpt>
      <trkpt lat="42.85393" lon="0.91192">
        <ele>1466.471</ele>
        <time>2021-03-13T10:12:48Z</time>
      </trkpt>
      <trkpt lat="42.85394" lon="0.91193">
        <ele>1466.411</ele>
        <time>2021-03-13T10:12:50Z</time>
      </trkpt>
      <trkpt lat="42.85395" lon="0.91193">
        <ele>1467.207</ele>
        <time>2021-03-13T10:12:52Z</time>
      </trkpt>
      <trkpt lat="42.85395" lon="0.91192">
        <ele>1467.173</ele>
        <time>2021-03-13T10:12:54Z</time>
      </trkpt>
      <trkpt lat="42.85395" lon="0.91191">
        <ele>1467.772</ele>
        <time>2021-03-13T10:12:56Z</time>
      </trkpt>
      <trkpt lat="42.85395" lon="0.91191">
        <ele>1468.41</ele>
        <time>2021-03-13T10:12:58Z</time>
      </trkpt>
      <trkpt lat="42.85395" lon="0.91191">
        <ele>1468.773</ele>
        <time>2021-03-13T10:13:00Z</time>
      </trkpt>
      <trkpt lat="42.85396" lon="0.91192">
        <ele>1469.07</ele>
        <time>2021-03-13T10:13:02Z</time>
      </trkpt>
      <trkpt lat="42.85396" lon="0.91193">
        <ele>1468.946</ele>
        <time>2021-03-13T10:13:04Z</time>
      </trkpt>
      <trkpt lat="42.85397" lon="0.91193">
        <ele>1469.895</ele>
        <time>2021-03-13T10:13:06Z</time>
      </trkpt>
      <trkpt lat="42.85398" lon="0.91194">
        <ele>1469.392</ele>
        <time>2021-03-13T10:13:08Z</time>
      </trkpt>
      <trkpt lat="42.85398" lon="0.91196">
        <ele>1469.717</ele>
        <time>2021-03-13T10:13:10Z</time>
      </trkpt>
      <trkpt lat="42.85399" lon="0.91196">
        <ele>1469.78</ele>
        <time>2021-03-13T10:13:12Z</time>
      </trkpt>
      <trkpt lat="42.85399" lon="0.91195">
        <ele>1470.201</ele>
        <time>2021-03-13T10:13:14Z</time>
      </trkpt>
      <trkpt lat="42.854" lon="0.91194">
        <ele>1471.224</ele>
        <time>2021-03-13T10:13:16Z</time>
      </trkpt>
      <trkpt lat="42.854" lon="0.91194">
        <ele>1471.268</ele>
        <time>2021-03-13T10:13:18Z</time>
      </trkpt>
      <trkpt lat="42.85401" lon="0.91193">
        <ele>1470.818</ele>
        <time>2021-03-13T10:13:20Z</time>
      </trkpt>
      <trkpt lat="42.85402" lon="0.91193">
        <ele>1471.424</ele>
        <time>2021-03-13T10:13:22Z</time>
      </trkpt>
      <trkpt lat="42.85402" lon="0.91192">
        <ele>1470.696</ele>
        <time>2021-03-13T10:13:24Z</time>
      </trkpt>
      <trkpt lat="42.85403" lon="0.91191">
        <ele>1471.396</ele>
        <time>2021-03-13T10:13:26Z</time>
      </trkpt>
      <trkpt lat="42.85404" lon="0.91189">
        <ele>1471.246</ele>
        <time>2021-03-13T10:13:28Z</time>
      </trkpt>
      <trkpt lat="42.85405" lon="0.91189">
        <ele>1472.295</ele>
        <time>2021-03-13T10:13:30Z</time>
      </trkpt>
      <trkpt lat="42.85406" lon="0.91189">
        <ele>1473.025</ele>
        <time>2021-03-13T10:13:32Z</time>
      </trkpt>
      <trkpt lat="42.85406" lon="0.91191">
        <ele>1473.503</ele>
        <time>2021-03-13T10:13:34Z</time>
      </trkpt>
      <trkpt lat="42.85407" lon="0.91192">
        <ele>1473.581</ele>
        <time>2021-03-13T10:13:36Z</time>
      </trkpt>
      <trkpt lat="42.85408" lon="0.91192">
        <ele>1473.671</ele>
        <time>2021-03-13T10:13:38Z</time>
      </trkpt>
      <trkpt lat="42.85409" lon="0.91193">
        <ele>1473.6</ele>
        <time>2021-03-13T10:13:40Z</time>
      </trkpt>
      <trkpt lat="42.85409" lon="0.91193">
        <ele>1473.994</ele>
        <time>2021-03-13T10:13:42Z</time>
      </trkpt>
      <trkpt lat="42.85409" lon="0.91193">
        <ele>1473.986</ele>
        <time>2021-03-13T10:13:44Z</time>
      </trkpt>
      <trkpt lat="42.85409" lon="0.91192">
        <ele>1473.404</ele>
        <time>2021-03-13T10:13:46Z</time>
      </trkpt>
      <trkpt lat="42.85409" lon="0.91192">
        <ele>1473.414</ele>
        <time>2021-03-13T10:13:48Z</time>
      </trkpt>
      <trkpt lat="42.85409" lon="0.91192">
        <ele>1473.403</ele>
        <time>2021-03-13T10:13:50Z</time>
      </trkpt>
      <trkpt lat="42.85409" lon="0.91192">
        <ele>1473.405</ele>
        <time>2021-03-13T10:13:52Z</time>
      </trkpt>
      <trkpt lat="42.85409" lon="0.91192">
        <ele>1474.383</ele>
        <time>2021-03-13T10:13:54Z</time>
      </trkpt>
      <trkpt lat="42.85409" lon="0.91191">
        <ele>1474.605</ele>
        <time>2021-03-13T10:13:56Z</time>
      </trkpt>
      <trkpt lat="42.85409" lon="0.91192">
        <ele>1474.599</ele>
        <time>2021-03-13T10:13:58Z</time>
      </trkpt>
      <trkpt lat="42.85409" lon="0.91192">
        <ele>1474.601</ele>
        <time>2021-03-13T10:14:00Z</time>
      </trkpt>
      <trkpt lat="42.85409" lon="0.91191">
        <ele>1474.929</ele>
        <time>2021-03-13T10:14:02Z</time>
      </trkpt>
      <trkpt lat="42.85409" lon="0.91192">
        <ele>1474.918</ele>
        <time>2021-03-13T10:14:04Z</time>
      </trkpt>
      <trkpt lat="42.85409" lon="0.91192">
        <ele>1474.92</ele>
        <time>2021-03-13T10:14:06Z</time>
      </trkpt>
      <trkpt lat="42.85409" lon="0.91192">
        <ele>1474.916</ele>
        <time>2021-03-13T10:14:08Z</time>
      </trkpt>
      <trkpt lat="42.85409" lon="0.91192">
        <ele>1474.896</ele>
        <time>2021-03-13T10:14:10Z</time>
      </trkpt>
      <trkpt lat="42.85409" lon="0.91192">
        <ele>1474.902</ele>
        <time>2021-03-13T10:14:12Z</time>
      </trkpt>
      <trkpt lat="42.85409" lon="0.91192">
        <ele>1474.889</ele>
        <time>2021-03-13T10:14:14Z</time>
      </trkpt>
      <trkpt lat="42.85409" lon="0.91191">
        <ele>1475.424</ele>
        <time>2021-03-13T10:14:16Z</time>
      </trkpt>
      <trkpt lat="42.85409" lon="0.91191">
        <ele>1475.401</ele>
        <time>2021-03-13T10:14:18Z</time>
      </trkpt>
      <trkpt lat="42.85409" lon="0.91191">
        <ele>1475.405</ele>
        <time>2021-03-13T10:14:20Z</time>
      </trkpt>
      <trkpt lat="42.85409" lon="0.91191">
        <ele>1475.39</ele>
        <time>2021-03-13T10:14:22Z</time>
      </trkpt>
      <trkpt lat="42.8541" lon="0.91191">
        <ele>1474.498</ele>
        <time>2021-03-13T10:14:24Z</time>
      </trkpt>
      <trkpt lat="42.8541" lon="0.91191">
        <ele>1474.485</ele>
        <time>2021-03-13T10:14:26Z</time>
      </trkpt>
      <trkpt lat="42.8541" lon="0.91191">
        <ele>1474.483</ele>
        <time>2021-03-13T10:14:28Z</time>
      </trkpt>
      <trkpt lat="42.8541" lon="0.91191">
        <ele>1473.733</ele>
        <time>2021-03-13T10:14:30Z</time>
      </trkpt>
      <trkpt lat="42.8541" lon="0.91191">
        <ele>1473.511</ele>
        <time>2021-03-13T10:14:32Z</time>
      </trkpt>
      <trkpt lat="42.8541" lon="0.91191">
        <ele>1473.494</ele>
        <time>2021-03-13T10:14:34Z</time>
      </trkpt>
      <trkpt lat="42.8541" lon="0.91191">
        <ele>1473.488</ele>
        <time>2021-03-13T10:14:36Z</time>
      </trkpt>
      <trkpt lat="42.8541" lon="0.91191">
        <ele>1473.477</ele>
        <time>2021-03-13T10:14:38Z</time>
      </trkpt>
      <trkpt lat="42.8541" lon="0.91191">
        <ele>1473.467</ele>
        <time>2021-03-13T10:14:40Z</time>
      </trkpt>
      <trkpt lat="42.8541" lon="0.91191">
        <ele>1473.455</ele>
        <time>2021-03-13T10:14:42Z</time>
      </trkpt>
      <trkpt lat="42.8541" lon="0.91191">
        <ele>1473.439</ele>
        <time>2021-03-13T10:14:44Z</time>
      </trkpt>
      <trkpt lat="42.8541" lon="0.91191">
        <ele>1473.427</ele>
        <time>2021-03-13T10:14:46Z</time>
      </trkpt>
      <trkpt lat="42.8541" lon="0.91191">
        <ele>1473.423</ele>
        <time>2021-03-13T10:14:48Z</time>
      </trkpt>
      <trkpt lat="42.8541" lon="0.91191">
        <ele>1473.415</ele>
        <time>2021-03-13T10:14:50Z</time>
      </trkpt>
      <trkpt lat="42.8541" lon="0.91191">
        <ele>1473.388</ele>
        <time>2021-03-13T10:14:52Z</time>
      </trkpt>
      <trkpt lat="42.85411" lon="0.91191">
        <ele>1473.382</ele>
        <time>2021-03-13T10:14:54Z</time>
      </trkpt>
      <trkpt lat="42.85411" lon="0.91191">
        <ele>1473.367</ele>
        <time>2021-03-13T10:14:56Z</time>
      </trkpt>
      <trkpt lat="42.85411" lon="0.91191">
        <ele>1473.352</ele>
        <time>2021-03-13T10:14:58Z</time>
      </trkpt>
      <trkpt lat="42.85411" lon="0.91191">
        <ele>1473.344</ele>
        <time>2021-03-13T10:15:00Z</time>
      </trkpt>
      <trkpt lat="42.85411" lon="0.91191">
        <ele>1473.324</ele>
        <time>2021-03-13T10:15:02Z</time>
      </trkpt>
      <trkpt lat="42.85411" lon="0.91191">
        <ele>1473.319</ele>
        <time>2021-03-13T10:15:04Z</time>
      </trkpt>
      <trkpt lat="42.85411" lon="0.91191">
        <ele>1473.303</ele>
        <time>2021-03-13T10:15:06Z</time>
      </trkpt>
      <trkpt lat="42.85411" lon="0.91191">
        <ele>1473.302</ele>
        <time>2021-03-13T10:15:08Z</time>
      </trkpt>
      <trkpt lat="42.85411" lon="0.91191">
        <ele>1473.443</ele>
        <time>2021-03-13T10:15:10Z</time>
      </trkpt>
      <trkpt lat="42.85411" lon="0.91191">
        <ele>1473.441</ele>
        <time>2021-03-13T10:15:12Z</time>
      </trkpt>
      <trkpt lat="42.85411" lon="0.91191">
        <ele>1473.448</ele>
        <time>2021-03-13T10:15:14Z</time>
      </trkpt>
      <trkpt lat="42.85411" lon="0.91191">
        <ele>1473.458</ele>
        <time>2021-03-13T10:15:16Z</time>
      </trkpt>
      <trkpt lat="42.85411" lon="0.91191">
        <ele>1473.466</ele>
        <time>2021-03-13T10:15:18Z</time>
      </trkpt>
      <trkpt lat="42.85411" lon="0.91191">
        <ele>1473.465</ele>
        <time>2021-03-13T10:15:20Z</time>
      </trkpt>
      <trkpt lat="42.85411" lon="0.91191">
        <ele>1473.469</ele>
        <time>2021-03-13T10:15:22Z</time>
      </trkpt>
      <trkpt lat="42.85411" lon="0.91191">
        <ele>1473.463</ele>
        <time>2021-03-13T10:15:24Z</time>
      </trkpt>
      <trkpt lat="42.85411" lon="0.91191">
        <ele>1473.465</ele>
        <time>2021-03-13T10:15:26Z</time>
      </trkpt>
      <trkpt lat="42.85411" lon="0.91191">
        <ele>1473.456</ele>
        <time>2021-03-13T10:15:28Z</time>
      </trkpt>
      <trkpt lat="42.85411" lon="0.91191">
        <ele>1473.453</ele>
        <time>2021-03-13T10:15:30Z</time>
      </trkpt>
      <trkpt lat="42.85411" lon="0.91191">
        <ele>1473.447</ele>
        <time>2021-03-13T10:15:32Z</time>
      </trkpt>
      <trkpt lat="42.85411" lon="0.91191">
        <ele>1473.449</ele>
        <time>2021-03-13T10:15:34Z</time>
      </trkpt>
      <trkpt lat="42.85411" lon="0.91191">
        <ele>1473.435</ele>
        <time>2021-03-13T10:15:36Z</time>
      </trkpt>
      <trkpt lat="42.85411" lon="0.91191">
        <ele>1473.422</ele>
        <time>2021-03-13T10:15:38Z</time>
      </trkpt>
      <trkpt lat="42.85411" lon="0.91191">
        <ele>1473.414</ele>
        <time>2021-03-13T10:15:40Z</time>
      </trkpt>
      <trkpt lat="42.85411" lon="0.91191">
        <ele>1473.415</ele>
        <time>2021-03-13T10:15:42Z</time>
      </trkpt>
      <trkpt lat="42.85411" lon="0.91191">
        <ele>1473.412</ele>
        <time>2021-03-13T10:15:44Z</time>
      </trkpt>
      <trkpt lat="42.85411" lon="0.91191">
        <ele>1473.42</ele>
        <time>2021-03-13T10:15:46Z</time>
      </trkpt>
      <trkpt lat="42.85411" lon="0.91191">
        <ele>1473.402</ele>
        <time>2021-03-13T10:15:48Z</time>
      </trkpt>
      <trkpt lat="42.85411" lon="0.91191">
        <ele>1473.403</ele>
        <time>2021-03-13T10:15:50Z</time>
      </trkpt>
      <trkpt lat="42.85411" lon="0.91191">
        <ele>1473.397</ele>
        <time>2021-03-13T10:15:52Z</time>
      </trkpt>
      <trkpt lat="42.85411" lon="0.91191">
        <ele>1473.392</ele>
        <time>2021-03-13T10:15:54Z</time>
      </trkpt>
      <trkpt lat="42.85411" lon="0.91191">
        <ele>1473.4</ele>
        <time>2021-03-13T10:15:56Z</time>
      </trkpt>
      <trkpt lat="42.85411" lon="0.91191">
        <ele>1473.393</ele>
        <time>2021-03-13T10:15:58Z</time>
      </trkpt>
      <trkpt lat="42.85411" lon="0.91191">
        <ele>1473.389</ele>
        <time>2021-03-13T10:16:00Z</time>
      </trkpt>
      <trkpt lat="42.85411" lon="0.91191">
        <ele>1473.377</ele>
        <time>2021-03-13T10:16:02Z</time>
      </trkpt>
      <trkpt lat="42.85411" lon="0.91191">
        <ele>1473.37</ele>
        <time>2021-03-13T10:16:04Z</time>
      </trkpt>
      <trkpt lat="42.85411" lon="0.91191">
        <ele>1473.358</ele>
        <time>2021-03-13T10:16:06Z</time>
      </trkpt>
      <trkpt lat="42.85411" lon="0.91191">
        <ele>1473.372</ele>
        <time>2021-03-13T10:16:08Z</time>
      </trkpt>
      <trkpt lat="42.85411" lon="0.91191">
        <ele>1473.359</ele>
        <time>2021-03-13T10:16:10Z</time>
      </trkpt>
      <trkpt lat="42.85411" lon="0.91191">
        <ele>1473.353</ele>
        <time>2021-03-13T10:16:12Z</time>
      </trkpt>
      <trkpt lat="42.85411" lon="0.91191">
        <ele>1473.352</ele>
        <time>2021-03-13T10:16:14Z</time>
      </trkpt>
      <trkpt lat="42.85411" lon="0.91191">
        <ele>1473.35</ele>
        <time>2021-03-13T10:16:16Z</time>
      </trkpt>
      <trkpt lat="42.85411" lon="0.91191">
        <ele>1473.347</ele>
        <time>2021-03-13T10:16:18Z</time>
      </trkpt>
      <trkpt lat="42.85411" lon="0.91191">
        <ele>1473.347</ele>
        <time>2021-03-13T10:16:20Z</time>
      </trkpt>
      <trkpt lat="42.85411" lon="0.91191">
        <ele>1473.35</ele>
        <time>2021-03-13T10:16:22Z</time>
      </trkpt>
      <trkpt lat="42.85411" lon="0.91191">
        <ele>1473.352</ele>
        <time>2021-03-13T10:16:24Z</time>
      </trkpt>
      <trkpt lat="42.85411" lon="0.91191">
        <ele>1473.348</ele>
        <time>2021-03-13T10:16:26Z</time>
      </trkpt>
      <trkpt lat="42.85411" lon="0.91191">
        <ele>1473.348</ele>
        <time>2021-03-13T10:16:28Z</time>
      </trkpt>
      <trkpt lat="42.85411" lon="0.91191">
        <ele>1473.346</ele>
        <time>2021-03-13T10:16:30Z</time>
      </trkpt>
      <trkpt lat="42.85411" lon="0.91191">
        <ele>1473.343</ele>
        <time>2021-03-13T10:16:32Z</time>
      </trkpt>
      <trkpt lat="42.85411" lon="0.91191">
        <ele>1473.129</ele>
        <time>2021-03-13T10:16:34Z</time>
      </trkpt>
      <trkpt lat="42.85411" lon="0.91191">
        <ele>1473.5</ele>
        <time>2021-03-13T10:16:36Z</time>
      </trkpt>
      <trkpt lat="42.85411" lon="0.91191">
        <ele>1473.5</ele>
        <time>2021-03-13T10:16:38Z</time>
      </trkpt>
      <trkpt lat="42.85411" lon="0.91191">
        <ele>1473.506</ele>
        <time>2021-03-13T10:16:40Z</time>
      </trkpt>
      <trkpt lat="42.85411" lon="0.91191">
        <ele>1473.507</ele>
        <time>2021-03-13T10:16:42Z</time>
      </trkpt>
      <trkpt lat="42.85411" lon="0.91191">
        <ele>1473.509</ele>
        <time>2021-03-13T10:16:44Z</time>
      </trkpt>
      <trkpt lat="42.85411" lon="0.91191">
        <ele>1473.614</ele>
        <time>2021-03-13T10:16:46Z</time>
      </trkpt>
      <trkpt lat="42.85411" lon="0.91191">
        <ele>1473.605</ele>
        <time>2021-03-13T10:16:48Z</time>
      </trkpt>
      <trkpt lat="42.85411" lon="0.91191">
        <ele>1473.611</ele>
        <time>2021-03-13T10:16:50Z</time>
      </trkpt>
      <trkpt lat="42.8541" lon="0.91192">
        <ele>1473.517</ele>
        <time>2021-03-13T10:16:52Z</time>
      </trkpt>
      <trkpt lat="42.8541" lon="0.91192">
        <ele>1473.513</ele>
        <time>2021-03-13T10:16:54Z</time>
      </trkpt>
      <trkpt lat="42.8541" lon="0.91192">
        <ele>1473.508</ele>
        <time>2021-03-13T10:16:56Z</time>
      </trkpt>
      <trkpt lat="42.8541" lon="0.91192">
        <ele>1473.506</ele>
        <time>2021-03-13T10:16:58Z</time>
      </trkpt>
      <trkpt lat="42.8541" lon="0.91192">
        <ele>1473.448</ele>
        <time>2021-03-13T10:17:00Z</time>
      </trkpt>
      <trkpt lat="42.8541" lon="0.91192">
        <ele>1473.44</ele>
        <time>2021-03-13T10:17:02Z</time>
      </trkpt>
      <trkpt lat="42.8541" lon="0.91192">
        <ele>1473.438</ele>
        <time>2021-03-13T10:17:04Z</time>
      </trkpt>
      <trkpt lat="42.8541" lon="0.91192">
        <ele>1473.442</ele>
        <time>2021-03-13T10:17:06Z</time>
      </trkpt>
      <trkpt lat="42.8541" lon="0.91192">
        <ele>1473.43</ele>
        <time>2021-03-13T10:17:08Z</time>
      </trkpt>
      <trkpt lat="42.8541" lon="0.91192">
        <ele>1473.426</ele>
        <time>2021-03-13T10:17:10Z</time>
      </trkpt>
      <trkpt lat="42.8541" lon="0.91192">
        <ele>1473.425</ele>
        <time>2021-03-13T10:17:12Z</time>
      </trkpt>
      <trkpt lat="42.8541" lon="0.91192">
        <ele>1473.429</ele>
        <time>2021-03-13T10:17:14Z</time>
      </trkpt>
      <trkpt lat="42.8541" lon="0.91192">
        <ele>1473.43</ele>
        <time>2021-03-13T10:17:16Z</time>
      </trkpt>
      <trkpt lat="42.8541" lon="0.91192">
        <ele>1473.44</ele>
        <time>2021-03-13T10:17:18Z</time>
      </trkpt>
      <trkpt lat="42.8541" lon="0.91192">
        <ele>1473.43</ele>
        <time>2021-03-13T10:17:20Z</time>
      </trkpt>
      <trkpt lat="42.8541" lon="0.91192">
        <ele>1473.431</ele>
        <time>2021-03-13T10:17:22Z</time>
      </trkpt>
      <trkpt lat="42.8541" lon="0.91192">
        <ele>1473.423</ele>
        <time>2021-03-13T10:17:24Z</time>
      </trkpt>
      <trkpt lat="42.8541" lon="0.91192">
        <ele>1473.421</ele>
        <time>2021-03-13T10:17:26Z</time>
      </trkpt>
      <trkpt lat="42.8541" lon="0.91192">
        <ele>1473.58</ele>
        <time>2021-03-13T10:17:28Z</time>
      </trkpt>
      <trkpt lat="42.8541" lon="0.91192">
        <ele>1474.82</ele>
        <time>2021-03-13T10:17:30Z</time>
      </trkpt>
      <trkpt lat="42.8541" lon="0.91191">
        <ele>1474.816</ele>
        <time>2021-03-13T10:17:32Z</time>
      </trkpt>
      <trkpt lat="42.8541" lon="0.91191">
        <ele>1474.811</ele>
        <time>2021-03-13T10:17:34Z</time>
      </trkpt>
      <trkpt lat="42.8541" lon="0.91191">
        <ele>1474.801</ele>
        <time>2021-03-13T10:17:36Z</time>
      </trkpt>
      <trkpt lat="42.8541" lon="0.91191">
        <ele>1474.784</ele>
        <time>2021-03-13T10:17:38Z</time>
      </trkpt>
      <trkpt lat="42.8541" lon="0.91192">
        <ele>1474.465</ele>
        <time>2021-03-13T10:17:40Z</time>
      </trkpt>
      <trkpt lat="42.8541" lon="0.91192">
        <ele>1474.463</ele>
        <time>2021-03-13T10:17:42Z</time>
      </trkpt>
      <trkpt lat="42.8541" lon="0.91192">
        <ele>1474.454</ele>
        <time>2021-03-13T10:17:44Z</time>
      </trkpt>
      <trkpt lat="42.8541" lon="0.91192">
        <ele>1474.447</ele>
        <time>2021-03-13T10:17:46Z</time>
      </trkpt>
      <trkpt lat="42.8541" lon="0.91191">
        <ele>1475.365</ele>
        <time>2021-03-13T10:17:48Z</time>
      </trkpt>
      <trkpt lat="42.8541" lon="0.91191">
        <ele>1475.358</ele>
        <time>2021-03-13T10:17:50Z</time>
      </trkpt>
      <trkpt lat="42.85409" lon="0.91191">
        <ele>1475.342</ele>
        <time>2021-03-13T10:17:52Z</time>
      </trkpt>
      <trkpt lat="42.85409" lon="0.91191">
        <ele>1475.332</ele>
        <time>2021-03-13T10:17:54Z</time>
      </trkpt>
      <trkpt lat="42.85409" lon="0.91191">
        <ele>1475.33</ele>
        <time>2021-03-13T10:17:56Z</time>
      </trkpt>
      <trkpt lat="42.85409" lon="0.91191">
        <ele>1475.328</ele>
        <time>2021-03-13T10:17:58Z</time>
      </trkpt>
      <trkpt lat="42.85409" lon="0.91191">
        <ele>1475.324</ele>
        <time>2021-03-13T10:18:00Z</time>
      </trkpt>
      <trkpt lat="42.85409" lon="0.91191">
        <ele>1475.316</ele>
        <time>2021-03-13T10:18:02Z</time>
      </trkpt>
      <trkpt lat="42.85409" lon="0.91191">
        <ele>1475.311</ele>
        <time>2021-03-13T10:18:04Z</time>
      </trkpt>
      <trkpt lat="42.85409" lon="0.91191">
        <ele>1475.317</ele>
        <time>2021-03-13T10:18:06Z</time>
      </trkpt>
      <trkpt lat="42.85409" lon="0.91191">
        <ele>1475.323</ele>
        <time>2021-03-13T10:18:08Z</time>
      </trkpt>
      <trkpt lat="42.85409" lon="0.91191">
        <ele>1475.323</ele>
        <time>2021-03-13T10:18:10Z</time>
      </trkpt>
      <trkpt lat="42.85409" lon="0.91191">
        <ele>1474.654</ele>
        <time>2021-03-13T10:18:12Z</time>
      </trkpt>
      <trkpt lat="42.85409" lon="0.91191">
        <ele>1474.646</ele>
        <time>2021-03-13T10:18:14Z</time>
      </trkpt>
      <trkpt lat="42.85409" lon="0.91191">
        <ele>1474.636</ele>
        <time>2021-03-13T10:18:16Z</time>
      </trkpt>
      <trkpt lat="42.85409" lon="0.91191">
        <ele>1474.645</ele>
        <time>2021-03-13T10:18:18Z</time>
      </trkpt>
      <trkpt lat="42.85409" lon="0.91191">
        <ele>1474.635</ele>
        <time>2021-03-13T10:18:20Z</time>
      </trkpt>
      <trkpt lat="42.85409" lon="0.91191">
        <ele>1474.708</ele>
        <time>2021-03-13T10:18:22Z</time>
      </trkpt>
      <trkpt lat="42.85409" lon="0.91191">
        <ele>1474.702</ele>
        <time>2021-03-13T10:18:24Z</time>
      </trkpt>
      <trkpt lat="42.85409" lon="0.91191">
        <ele>1474.699</ele>
        <time>2021-03-13T10:18:26Z</time>
      </trkpt>
      <trkpt lat="42.85409" lon="0.91191">
        <ele>1474.485</ele>
        <time>2021-03-13T10:18:28Z</time>
      </trkpt>
      <trkpt lat="42.85409" lon="0.91191">
        <ele>1474.485</ele>
        <time>2021-03-13T10:18:30Z</time>
      </trkpt>
      <trkpt lat="42.85409" lon="0.91191">
        <ele>1474.485</ele>
        <time>2021-03-13T10:18:32Z</time>
      </trkpt>
      <trkpt lat="42.85409" lon="0.91191">
        <ele>1474.484</ele>
        <time>2021-03-13T10:18:34Z</time>
      </trkpt>
      <trkpt lat="42.85409" lon="0.91191">
        <ele>1474.48</ele>
        <time>2021-03-13T10:18:36Z</time>
      </trkpt>
      <trkpt lat="42.85409" lon="0.91191">
        <ele>1474.474</ele>
        <time>2021-03-13T10:18:38Z</time>
      </trkpt>
      <trkpt lat="42.85409" lon="0.91191">
        <ele>1474.473</ele>
        <time>2021-03-13T10:18:40Z</time>
      </trkpt>
      <trkpt lat="42.85409" lon="0.91191">
        <ele>1474.473</ele>
        <time>2021-03-13T10:18:42Z</time>
      </trkpt>
      <trkpt lat="42.85409" lon="0.91191">
        <ele>1474.47</ele>
        <time>2021-03-13T10:18:44Z</time>
      </trkpt>
      <trkpt lat="42.85409" lon="0.91191">
        <ele>1474.476</ele>
        <time>2021-03-13T10:18:46Z</time>
      </trkpt>
      <trkpt lat="42.85409" lon="0.91191">
        <ele>1474.474</ele>
        <time>2021-03-13T10:18:48Z</time>
      </trkpt>
      <trkpt lat="42.85409" lon="0.91191">
        <ele>1474.47</ele>
        <time>2021-03-13T10:18:50Z</time>
      </trkpt>
      <trkpt lat="42.85409" lon="0.91191">
        <ele>1474.456</ele>
        <time>2021-03-13T10:18:52Z</time>
      </trkpt>
      <trkpt lat="42.85409" lon="0.91191">
        <ele>1474.454</ele>
        <time>2021-03-13T10:18:54Z</time>
      </trkpt>
      <trkpt lat="42.85409" lon="0.91191">
        <ele>1474.449</ele>
        <time>2021-03-13T10:18:56Z</time>
      </trkpt>
      <trkpt lat="42.85409" lon="0.91191">
        <ele>1474.451</ele>
        <time>2021-03-13T10:18:58Z</time>
      </trkpt>
      <trkpt lat="42.85409" lon="0.91191">
        <ele>1474.444</ele>
        <time>2021-03-13T10:19:00Z</time>
      </trkpt>
      <trkpt lat="42.85409" lon="0.91191">
        <ele>1474.439</ele>
        <time>2021-03-13T10:19:02Z</time>
      </trkpt>
      <trkpt lat="42.85409" lon="0.91191">
        <ele>1474.434</ele>
        <time>2021-03-13T10:19:04Z</time>
      </trkpt>
      <trkpt lat="42.85409" lon="0.91191">
        <ele>1474.435</ele>
        <time>2021-03-13T10:19:06Z</time>
      </trkpt>
      <trkpt lat="42.85409" lon="0.91191">
        <ele>1474.27</ele>
        <time>2021-03-13T10:19:08Z</time>
      </trkpt>
      <trkpt lat="42.85409" lon="0.91192">
        <ele>1474.067</ele>
        <time>2021-03-13T10:19:10Z</time>
      </trkpt>
      <trkpt lat="42.8541" lon="0.91193">
        <ele>1474.029</ele>
        <time>2021-03-13T10:19:12Z</time>
      </trkpt>
      <trkpt lat="42.85411" lon="0.91193">
        <ele>1473.812</ele>
        <time>2021-03-13T10:19:14Z</time>
      </trkpt>
      <trkpt lat="42.85411" lon="0.91194">
        <ele>1473.811</ele>
        <time>2021-03-13T10:19:16Z</time>
      </trkpt>
      <trkpt lat="42.85411" lon="0.91194">
        <ele>1473.782</ele>
        <time>2021-03-13T10:19:18Z</time>
      </trkpt>
      <trkpt lat="42.85411" lon="0.91194">
        <ele>1473.464</ele>
        <time>2021-03-13T10:19:20Z</time>
      </trkpt>
      <trkpt lat="42.85412" lon="0.91194">
        <ele>1473.363</ele>
        <time>2021-03-13T10:19:22Z</time>
      </trkpt>
      <trkpt lat="42.85412" lon="0.91194">
        <ele>1473.344</ele>
        <time>2021-03-13T10:19:24Z</time>
      </trkpt>
      <trkpt lat="42.85412" lon="0.91194">
        <ele>1473.361</ele>
        <time>2021-03-13T10:19:26Z</time>
      </trkpt>
      <trkpt lat="42.85412" lon="0.91194">
        <ele>1473.352</ele>
        <time>2021-03-13T10:19:28Z</time>
      </trkpt>
      <trkpt lat="42.85412" lon="0.91194">
        <ele>1473.519</ele>
        <time>2021-03-13T10:19:30Z</time>
      </trkpt>
      <trkpt lat="42.85413" lon="0.91193">
        <ele>1473.06</ele>
        <time>2021-03-13T10:19:32Z</time>
      </trkpt>
      <trkpt lat="42.85414" lon="0.91192">
        <ele>1472.268</ele>
        <time>2021-03-13T10:19:34Z</time>
      </trkpt>
      <trkpt lat="42.85414" lon="0.91191">
        <ele>1472.238</ele>
        <time>2021-03-13T10:19:36Z</time>
      </trkpt>
      <trkpt lat="42.85414" lon="0.9119">
        <ele>1472.953</ele>
        <time>2021-03-13T10:19:38Z</time>
      </trkpt>
      <trkpt lat="42.85414" lon="0.91189">
        <ele>1473.055</ele>
        <time>2021-03-13T10:19:40Z</time>
      </trkpt>
      <trkpt lat="42.85415" lon="0.91189">
        <ele>1472.773</ele>
        <time>2021-03-13T10:19:42Z</time>
      </trkpt>
      <trkpt lat="42.85416" lon="0.91189">
        <ele>1472.221</ele>
        <time>2021-03-13T10:19:44Z</time>
      </trkpt>
      <trkpt lat="42.85417" lon="0.91188">
        <ele>1471.619</ele>
        <time>2021-03-13T10:19:46Z</time>
      </trkpt>
      <trkpt lat="42.85417" lon="0.91187">
        <ele>1471.641</ele>
        <time>2021-03-13T10:19:48Z</time>
      </trkpt>
      <trkpt lat="42.85418" lon="0.91187">
        <ele>1471.917</ele>
        <time>2021-03-13T10:19:50Z</time>
      </trkpt>
      <trkpt lat="42.85419" lon="0.91187">
        <ele>1471.809</ele>
        <time>2021-03-13T10:19:52Z</time>
      </trkpt>
      <trkpt lat="42.85419" lon="0.91187">
        <ele>1471.936</ele>
        <time>2021-03-13T10:19:54Z</time>
      </trkpt>
      <trkpt lat="42.85419" lon="0.91186">
        <ele>1472.342</ele>
        <time>2021-03-13T10:19:56Z</time>
      </trkpt>
      <trkpt lat="42.8542" lon="0.91184">
        <ele>1473.387</ele>
        <time>2021-03-13T10:19:58Z</time>
      </trkpt>
      <trkpt lat="42.85421" lon="0.91182">
        <ele>1474.012</ele>
        <time>2021-03-13T10:20:00Z</time>
      </trkpt>
      <trkpt lat="42.85421" lon="0.91181">
        <ele>1474.013</ele>
        <time>2021-03-13T10:20:02Z</time>
      </trkpt>
      <trkpt lat="42.85421" lon="0.9118">
        <ele>1474.351</ele>
        <time>2021-03-13T10:20:04Z</time>
      </trkpt>
      <trkpt lat="42.85422" lon="0.91179">
        <ele>1474.654</ele>
        <time>2021-03-13T10:20:06Z</time>
      </trkpt>
      <trkpt lat="42.85423" lon="0.91179">
        <ele>1476.241</ele>
        <time>2021-03-13T10:20:08Z</time>
      </trkpt>
      <trkpt lat="42.85424" lon="0.91179">
        <ele>1476.703</ele>
        <time>2021-03-13T10:20:10Z</time>
      </trkpt>
      <trkpt lat="42.85425" lon="0.91179">
        <ele>1476.428</ele>
        <time>2021-03-13T10:20:12Z</time>
      </trkpt>
      <trkpt lat="42.85426" lon="0.91179">
        <ele>1476.322</ele>
        <time>2021-03-13T10:20:14Z</time>
      </trkpt>
      <trkpt lat="42.85427" lon="0.91179">
        <ele>1475.47</ele>
        <time>2021-03-13T10:20:16Z</time>
      </trkpt>
      <trkpt lat="42.85428" lon="0.9118">
        <ele>1476.29</ele>
        <time>2021-03-13T10:20:18Z</time>
      </trkpt>
      <trkpt lat="42.85429" lon="0.91179">
        <ele>1476.3</ele>
        <time>2021-03-13T10:20:20Z</time>
      </trkpt>
      <trkpt lat="42.85431" lon="0.91178">
        <ele>1475.6</ele>
        <time>2021-03-13T10:20:22Z</time>
      </trkpt>
      <trkpt lat="42.85433" lon="0.91176">
        <ele>1474.425</ele>
        <time>2021-03-13T10:20:24Z</time>
      </trkpt>
      <trkpt lat="42.85434" lon="0.91175">
        <ele>1474.175</ele>
        <time>2021-03-13T10:20:26Z</time>
      </trkpt>
      <trkpt lat="42.85435" lon="0.91174">
        <ele>1473.782</ele>
        <time>2021-03-13T10:20:28Z</time>
      </trkpt>
      <trkpt lat="42.85436" lon="0.91174">
        <ele>1473.269</ele>
        <time>2021-03-13T10:20:30Z</time>
      </trkpt>
      <trkpt lat="42.85437" lon="0.91172">
        <ele>1471.837</ele>
        <time>2021-03-13T10:20:32Z</time>
      </trkpt>
      <trkpt lat="42.85438" lon="0.9117">
        <ele>1469.887</ele>
        <time>2021-03-13T10:20:34Z</time>
      </trkpt>
      <trkpt lat="42.85439" lon="0.91168">
        <ele>1470.386</ele>
        <time>2021-03-13T10:20:36Z</time>
      </trkpt>
      <trkpt lat="42.8544" lon="0.91166">
        <ele>1469.197</ele>
        <time>2021-03-13T10:20:38Z</time>
      </trkpt>
      <trkpt lat="42.85441" lon="0.91164">
        <ele>1471.09</ele>
        <time>2021-03-13T10:20:40Z</time>
      </trkpt>
      <trkpt lat="42.85442" lon="0.91163">
        <ele>1471.235</ele>
        <time>2021-03-13T10:20:42Z</time>
      </trkpt>
      <trkpt lat="42.85443" lon="0.91161">
        <ele>1470.022</ele>
        <time>2021-03-13T10:20:44Z</time>
      </trkpt>
      <trkpt lat="42.85445" lon="0.91159">
        <ele>1470.647</ele>
        <time>2021-03-13T10:20:46Z</time>
      </trkpt>
      <trkpt lat="42.85446" lon="0.91159">
        <ele>1471.568</ele>
        <time>2021-03-13T10:20:48Z</time>
      </trkpt>
      <trkpt lat="42.85447" lon="0.91159">
        <ele>1471.16</ele>
        <time>2021-03-13T10:20:50Z</time>
      </trkpt>
      <trkpt lat="42.85447" lon="0.91158">
        <ele>1471.534</ele>
        <time>2021-03-13T10:20:52Z</time>
      </trkpt>
      <trkpt lat="42.85448" lon="0.91157">
        <ele>1472.301</ele>
        <time>2021-03-13T10:20:54Z</time>
      </trkpt>
      <trkpt lat="42.85448" lon="0.91156">
        <ele>1473.474</ele>
        <time>2021-03-13T10:20:56Z</time>
      </trkpt>
      <trkpt lat="42.85449" lon="0.91156">
        <ele>1473.236</ele>
        <time>2021-03-13T10:20:58Z</time>
      </trkpt>
      <trkpt lat="42.85451" lon="0.91154">
        <ele>1471.64</ele>
        <time>2021-03-13T10:21:00Z</time>
      </trkpt>
      <trkpt lat="42.85452" lon="0.91152">
        <ele>1470.134</ele>
        <time>2021-03-13T10:21:02Z</time>
      </trkpt>
      <trkpt lat="42.85453" lon="0.9115">
        <ele>1469.519</ele>
        <time>2021-03-13T10:21:04Z</time>
      </trkpt>
      <trkpt lat="42.85454" lon="0.91149">
        <ele>1471.171</ele>
        <time>2021-03-13T10:21:06Z</time>
      </trkpt>
      <trkpt lat="42.85455" lon="0.91149">
        <ele>1472.272</ele>
        <time>2021-03-13T10:21:08Z</time>
      </trkpt>
      <trkpt lat="42.85457" lon="0.91149">
        <ele>1472.793</ele>
        <time>2021-03-13T10:21:10Z</time>
      </trkpt>
      <trkpt lat="42.85457" lon="0.91148">
        <ele>1473.13</ele>
        <time>2021-03-13T10:21:12Z</time>
      </trkpt>
      <trkpt lat="42.85458" lon="0.91148">
        <ele>1474.856</ele>
        <time>2021-03-13T10:21:14Z</time>
      </trkpt>
      <trkpt lat="42.8546" lon="0.91147">
        <ele>1474.776</ele>
        <time>2021-03-13T10:21:16Z</time>
      </trkpt>
      <trkpt lat="42.8546" lon="0.91146">
        <ele>1476.466</ele>
        <time>2021-03-13T10:21:18Z</time>
      </trkpt>
      <trkpt lat="42.8546" lon="0.91145">
        <ele>1477.978</ele>
        <time>2021-03-13T10:21:20Z</time>
      </trkpt>
      <trkpt lat="42.8546" lon="0.91145">
        <ele>1478.898</ele>
        <time>2021-03-13T10:21:22Z</time>
      </trkpt>
      <trkpt lat="42.85461" lon="0.91145">
        <ele>1479.808</ele>
        <time>2021-03-13T10:21:24Z</time>
      </trkpt>
      <trkpt lat="42.85463" lon="0.91145">
        <ele>1481.159</ele>
        <time>2021-03-13T10:21:26Z</time>
      </trkpt>
      <trkpt lat="42.85463" lon="0.91144">
        <ele>1482.362</ele>
        <time>2021-03-13T10:21:28Z</time>
      </trkpt>
      <trkpt lat="42.85464" lon="0.91143">
        <ele>1482.531</ele>
        <time>2021-03-13T10:21:30Z</time>
      </trkpt>
      <trkpt lat="42.85465" lon="0.91142">
        <ele>1482.384</ele>
        <time>2021-03-13T10:21:32Z</time>
      </trkpt>
      <trkpt lat="42.85466" lon="0.91141">
        <ele>1483.447</ele>
        <time>2021-03-13T10:21:34Z</time>
      </trkpt>
      <trkpt lat="42.85467" lon="0.91139">
        <ele>1484.753</ele>
        <time>2021-03-13T10:21:36Z</time>
      </trkpt>
      <trkpt lat="42.85469" lon="0.91137">
        <ele>1484.618</ele>
        <time>2021-03-13T10:21:38Z</time>
      </trkpt>
      <trkpt lat="42.85471" lon="0.91135">
        <ele>1485.653</ele>
        <time>2021-03-13T10:21:40Z</time>
      </trkpt>
      <trkpt lat="42.85471" lon="0.91133">
        <ele>1486.713</ele>
        <time>2021-03-13T10:21:42Z</time>
      </trkpt>
      <trkpt lat="42.85472" lon="0.91132">
        <ele>1486.68</ele>
        <time>2021-03-13T10:21:44Z</time>
      </trkpt>
      <trkpt lat="42.85472" lon="0.9113">
        <ele>1485.958</ele>
        <time>2021-03-13T10:21:46Z</time>
      </trkpt>
      <trkpt lat="42.85473" lon="0.91129">
        <ele>1486.521</ele>
        <time>2021-03-13T10:21:48Z</time>
      </trkpt>
      <trkpt lat="42.85474" lon="0.91129">
        <ele>1486.561</ele>
        <time>2021-03-13T10:21:50Z</time>
      </trkpt>
      <trkpt lat="42.85475" lon="0.91128">
        <ele>1486.203</ele>
        <time>2021-03-13T10:21:52Z</time>
      </trkpt>
      <trkpt lat="42.85475" lon="0.91127">
        <ele>1483.842</ele>
        <time>2021-03-13T10:21:54Z</time>
      </trkpt>
      <trkpt lat="42.85476" lon="0.91126">
        <ele>1485.33</ele>
        <time>2021-03-13T10:21:56Z</time>
      </trkpt>
      <trkpt lat="42.85475" lon="0.91125">
        <ele>1486.35</ele>
        <time>2021-03-13T10:21:58Z</time>
      </trkpt>
      <trkpt lat="42.85475" lon="0.91124">
        <ele>1486.955</ele>
        <time>2021-03-13T10:22:00Z</time>
      </trkpt>
      <trkpt lat="42.85476" lon="0.91124">
        <ele>1487.156</ele>
        <time>2021-03-13T10:22:02Z</time>
      </trkpt>
      <trkpt lat="42.85477" lon="0.91122">
        <ele>1486.275</ele>
        <time>2021-03-13T10:22:04Z</time>
      </trkpt>
      <trkpt lat="42.85478" lon="0.9112">
        <ele>1486.482</ele>
        <time>2021-03-13T10:22:06Z</time>
      </trkpt>
      <trkpt lat="42.8548" lon="0.91116">
        <ele>1487.174</ele>
        <time>2021-03-13T10:22:13Z</time>
      </trkpt>
      <trkpt lat="42.85479" lon="0.91114">
        <ele>1485.319</ele>
        <time>2021-03-13T10:22:15Z</time>
      </trkpt>
      <trkpt lat="42.85479" lon="0.91113">
        <ele>1485.728</ele>
        <time>2021-03-13T10:22:17Z</time>
      </trkpt>
      <trkpt lat="42.8548" lon="0.91111">
        <ele>1487.825</ele>
        <time>2021-03-13T10:22:19Z</time>
      </trkpt>
      <trkpt lat="42.85481" lon="0.91109">
        <ele>1488.422</ele>
        <time>2021-03-13T10:22:21Z</time>
      </trkpt>
      <trkpt lat="42.85482" lon="0.91108">
        <ele>1490.235</ele>
        <time>2021-03-13T10:22:23Z</time>
      </trkpt>
      <trkpt lat="42.85483" lon="0.91107">
        <ele>1489.394</ele>
        <time>2021-03-13T10:22:25Z</time>
      </trkpt>
      <trkpt lat="42.85483" lon="0.91105">
        <ele>1489.462</ele>
        <time>2021-03-13T10:22:27Z</time>
      </trkpt>
      <trkpt lat="42.85483" lon="0.91103">
        <ele>1489.982</ele>
        <time>2021-03-13T10:22:29Z</time>
      </trkpt>
      <trkpt lat="42.85483" lon="0.91101">
        <ele>1491.402</ele>
        <time>2021-03-13T10:22:31Z</time>
      </trkpt>
      <trkpt lat="42.85483" lon="0.911">
        <ele>1492.968</ele>
        <time>2021-03-13T10:22:33Z</time>
      </trkpt>
      <trkpt lat="42.85483" lon="0.91098">
        <ele>1492.337</ele>
        <time>2021-03-13T10:22:35Z</time>
      </trkpt>
      <trkpt lat="42.85483" lon="0.91097">
        <ele>1492.578</ele>
        <time>2021-03-13T10:22:37Z</time>
      </trkpt>
      <trkpt lat="42.85483" lon="0.91097">
        <ele>1492.592</ele>
        <time>2021-03-13T10:22:39Z</time>
      </trkpt>
      <trkpt lat="42.85483" lon="0.91097">
        <ele>1492.6</ele>
        <time>2021-03-13T10:22:41Z</time>
      </trkpt>
      <trkpt lat="42.85484" lon="0.91096">
        <ele>1493.007</ele>
        <time>2021-03-13T10:22:43Z</time>
      </trkpt>
      <trkpt lat="42.85484" lon="0.91091">
        <ele>1495.549</ele>
        <time>2021-03-13T10:22:50Z</time>
      </trkpt>
      <trkpt lat="42.85485" lon="0.91089">
        <ele>1496.991</ele>
        <time>2021-03-13T10:22:52Z</time>
      </trkpt>
      <trkpt lat="42.85487" lon="0.91087">
        <ele>1498.88</ele>
        <time>2021-03-13T10:22:54Z</time>
      </trkpt>
      <trkpt lat="42.85488" lon="0.91085">
        <ele>1499.65</ele>
        <time>2021-03-13T10:22:56Z</time>
      </trkpt>
      <trkpt lat="42.85489" lon="0.91084">
        <ele>1499.345</ele>
        <time>2021-03-13T10:22:58Z</time>
      </trkpt>
      <trkpt lat="42.8549" lon="0.91083">
        <ele>1498.229</ele>
        <time>2021-03-13T10:23:00Z</time>
      </trkpt>
      <trkpt lat="42.8549" lon="0.91082">
        <ele>1498.341</ele>
        <time>2021-03-13T10:23:02Z</time>
      </trkpt>
      <trkpt lat="42.8549" lon="0.91081">
        <ele>1498.566</ele>
        <time>2021-03-13T10:23:04Z</time>
      </trkpt>
      <trkpt lat="42.85491" lon="0.91079">
        <ele>1500.581</ele>
        <time>2021-03-13T10:23:06Z</time>
      </trkpt>
      <trkpt lat="42.85491" lon="0.91078">
        <ele>1500.67</ele>
        <time>2021-03-13T10:23:08Z</time>
      </trkpt>
      <trkpt lat="42.85492" lon="0.91077">
        <ele>1500.749</ele>
        <time>2021-03-13T10:23:10Z</time>
      </trkpt>
      <trkpt lat="42.85493" lon="0.91076">
        <ele>1500.616</ele>
        <time>2021-03-13T10:23:12Z</time>
      </trkpt>
      <trkpt lat="42.85493" lon="0.91074">
        <ele>1501.958</ele>
        <time>2021-03-13T10:23:14Z</time>
      </trkpt>
      <trkpt lat="42.85493" lon="0.91073">
        <ele>1502.054</ele>
        <time>2021-03-13T10:23:16Z</time>
      </trkpt>
      <trkpt lat="42.85493" lon="0.91072">
        <ele>1501.512</ele>
        <time>2021-03-13T10:23:18Z</time>
      </trkpt>
      <trkpt lat="42.85493" lon="0.91071">
        <ele>1500.647</ele>
        <time>2021-03-13T10:23:20Z</time>
      </trkpt>
      <trkpt lat="42.85493" lon="0.9107">
        <ele>1502.016</ele>
        <time>2021-03-13T10:23:22Z</time>
      </trkpt>
      <trkpt lat="42.85493" lon="0.91069">
        <ele>1501.739</ele>
        <time>2021-03-13T10:23:24Z</time>
      </trkpt>
      <trkpt lat="42.85493" lon="0.91067">
        <ele>1501.679</ele>
        <time>2021-03-13T10:23:26Z</time>
      </trkpt>
      <trkpt lat="42.85493" lon="0.91067">
        <ele>1501.215</ele>
        <time>2021-03-13T10:23:27Z</time>
      </trkpt>
      <trkpt lat="42.85494" lon="0.91062">
        <ele>1504.257</ele>
        <time>2021-03-13T10:23:33Z</time>
      </trkpt>
      <trkpt lat="42.85495" lon="0.91061">
        <ele>1504.555</ele>
        <time>2021-03-13T10:23:35Z</time>
      </trkpt>
      <trkpt lat="42.85495" lon="0.9106">
        <ele>1506.268</ele>
        <time>2021-03-13T10:23:37Z</time>
      </trkpt>
      <trkpt lat="42.85496" lon="0.91058">
        <ele>1506.352</ele>
        <time>2021-03-13T10:23:39Z</time>
      </trkpt>
      <trkpt lat="42.85496" lon="0.91057">
        <ele>1508.314</ele>
        <time>2021-03-13T10:23:41Z</time>
      </trkpt>
      <trkpt lat="42.85497" lon="0.91056">
        <ele>1508.496</ele>
        <time>2021-03-13T10:23:43Z</time>
      </trkpt>
      <trkpt lat="42.85497" lon="0.91055">
        <ele>1509.363</ele>
        <time>2021-03-13T10:23:45Z</time>
      </trkpt>
      <trkpt lat="42.85498" lon="0.91054">
        <ele>1509.407</ele>
        <time>2021-03-13T10:23:47Z</time>
      </trkpt>
      <trkpt lat="42.85498" lon="0.91052">
        <ele>1508.302</ele>
        <time>2021-03-13T10:23:49Z</time>
      </trkpt>
      <trkpt lat="42.85498" lon="0.91051">
        <ele>1508.437</ele>
        <time>2021-03-13T10:23:51Z</time>
      </trkpt>
      <trkpt lat="42.85498" lon="0.91049">
        <ele>1508.408</ele>
        <time>2021-03-13T10:23:53Z</time>
      </trkpt>
      <trkpt lat="42.85498" lon="0.91048">
        <ele>1508.677</ele>
        <time>2021-03-13T10:23:55Z</time>
      </trkpt>
      <trkpt lat="42.85499" lon="0.91047">
        <ele>1509.56</ele>
        <time>2021-03-13T10:23:57Z</time>
      </trkpt>
      <trkpt lat="42.855" lon="0.91047">
        <ele>1510.37</ele>
        <time>2021-03-13T10:23:59Z</time>
      </trkpt>
      <trkpt lat="42.85501" lon="0.91046">
        <ele>1510.447</ele>
        <time>2021-03-13T10:24:01Z</time>
      </trkpt>
      <trkpt lat="42.85503" lon="0.91045">
        <ele>1510.973</ele>
        <time>2021-03-13T10:24:03Z</time>
      </trkpt>
      <trkpt lat="42.85504" lon="0.91045">
        <ele>1511.312</ele>
        <time>2021-03-13T10:24:05Z</time>
      </trkpt>
      <trkpt lat="42.85504" lon="0.91044">
        <ele>1510.645</ele>
        <time>2021-03-13T10:24:07Z</time>
      </trkpt>
      <trkpt lat="42.85506" lon="0.91044">
        <ele>1512.157</ele>
        <time>2021-03-13T10:24:09Z</time>
      </trkpt>
      <trkpt lat="42.85507" lon="0.91043">
        <ele>1511.727</ele>
        <time>2021-03-13T10:24:11Z</time>
      </trkpt>
      <trkpt lat="42.85507" lon="0.91043">
        <ele>1511.821</ele>
        <time>2021-03-13T10:24:13Z</time>
      </trkpt>
      <trkpt lat="42.85507" lon="0.91043">
        <ele>1511.836</ele>
        <time>2021-03-13T10:24:15Z</time>
      </trkpt>
      <trkpt lat="42.85507" lon="0.91042">
        <ele>1511.816</ele>
        <time>2021-03-13T10:24:17Z</time>
      </trkpt>
      <trkpt lat="42.85507" lon="0.91042">
        <ele>1511.785</ele>
        <time>2021-03-13T10:24:19Z</time>
      </trkpt>
      <trkpt lat="42.85507" lon="0.91041">
        <ele>1510.905</ele>
        <time>2021-03-13T10:24:23Z</time>
      </trkpt>
      <trkpt lat="42.85508" lon="0.91041">
        <ele>1510.207</ele>
        <time>2021-03-13T10:24:25Z</time>
      </trkpt>
      <trkpt lat="42.85508" lon="0.91041">
        <ele>1510.227</ele>
        <time>2021-03-13T10:24:27Z</time>
      </trkpt>
      <trkpt lat="42.85508" lon="0.91041">
        <ele>1510.198</ele>
        <time>2021-03-13T10:24:29Z</time>
      </trkpt>
      <trkpt lat="42.85508" lon="0.91041">
        <ele>1510.198</ele>
        <time>2021-03-13T10:24:31Z</time>
      </trkpt>
      <trkpt lat="42.85508" lon="0.91042">
        <ele>1510.44</ele>
        <time>2021-03-13T10:24:33Z</time>
      </trkpt>
      <trkpt lat="42.85509" lon="0.91043">
        <ele>1510.923</ele>
        <time>2021-03-13T10:24:35Z</time>
      </trkpt>
      <trkpt lat="42.85509" lon="0.91043">
        <ele>1510.937</ele>
        <time>2021-03-13T10:24:37Z</time>
      </trkpt>
      <trkpt lat="42.85509" lon="0.91043">
        <ele>1510.929</ele>
        <time>2021-03-13T10:24:39Z</time>
      </trkpt>
      <trkpt lat="42.85509" lon="0.91043">
        <ele>1510.918</ele>
        <time>2021-03-13T10:24:41Z</time>
      </trkpt>
      <trkpt lat="42.85509" lon="0.91043">
        <ele>1510.917</ele>
        <time>2021-03-13T10:24:43Z</time>
      </trkpt>
      <trkpt lat="42.85509" lon="0.91043">
        <ele>1510.918</ele>
        <time>2021-03-13T10:24:45Z</time>
      </trkpt>
      <trkpt lat="42.85509" lon="0.91043">
        <ele>1510.957</ele>
        <time>2021-03-13T10:24:51Z</time>
      </trkpt>
      <trkpt lat="42.85509" lon="0.91043">
        <ele>1510.977</ele>
        <time>2021-03-13T10:24:53Z</time>
      </trkpt>
      <trkpt lat="42.85509" lon="0.91043">
        <ele>1510.988</ele>
        <time>2021-03-13T10:24:55Z</time>
      </trkpt>
      <trkpt lat="42.85509" lon="0.91043">
        <ele>1511.007</ele>
        <time>2021-03-13T10:24:57Z</time>
      </trkpt>
      <trkpt lat="42.85509" lon="0.91043">
        <ele>1511.032</ele>
        <time>2021-03-13T10:24:59Z</time>
      </trkpt>
      <trkpt lat="42.85509" lon="0.91043">
        <ele>1511.035</ele>
        <time>2021-03-13T10:25:01Z</time>
      </trkpt>
      <trkpt lat="42.85509" lon="0.91043">
        <ele>1511.037</ele>
        <time>2021-03-13T10:25:03Z</time>
      </trkpt>
      <trkpt lat="42.85509" lon="0.91043">
        <ele>1511.043</ele>
        <time>2021-03-13T10:25:05Z</time>
      </trkpt>
      <trkpt lat="42.85509" lon="0.91043">
        <ele>1511.042</ele>
        <time>2021-03-13T10:25:07Z</time>
      </trkpt>
      <trkpt lat="42.85508" lon="0.91043">
        <ele>1511.427</ele>
        <time>2021-03-13T10:25:09Z</time>
      </trkpt>
      <trkpt lat="42.85508" lon="0.91043">
        <ele>1511.432</ele>
        <time>2021-03-13T10:25:11Z</time>
      </trkpt>
      <trkpt lat="42.85508" lon="0.91042">
        <ele>1511.434</ele>
        <time>2021-03-13T10:25:13Z</time>
      </trkpt>
      <trkpt lat="42.85508" lon="0.91042">
        <ele>1511.428</ele>
        <time>2021-03-13T10:25:15Z</time>
      </trkpt>
      <trkpt lat="42.85508" lon="0.91043">
        <ele>1511.372</ele>
        <time>2021-03-13T10:25:17Z</time>
      </trkpt>
      <trkpt lat="42.85508" lon="0.91043">
        <ele>1512.451</ele>
        <time>2021-03-13T10:25:19Z</time>
      </trkpt>
      <trkpt lat="42.85507" lon="0.91043">
        <ele>1512.065</ele>
        <time>2021-03-13T10:25:21Z</time>
      </trkpt>
      <trkpt lat="42.85507" lon="0.91042">
        <ele>1512.067</ele>
        <time>2021-03-13T10:25:23Z</time>
      </trkpt>
      <trkpt lat="42.85507" lon="0.91043">
        <ele>1512.306</ele>
        <time>2021-03-13T10:25:25Z</time>
      </trkpt>
      <trkpt lat="42.85507" lon="0.91042">
        <ele>1511.88</ele>
        <time>2021-03-13T10:25:27Z</time>
      </trkpt>
      <trkpt lat="42.85507" lon="0.91042">
        <ele>1511.407</ele>
        <time>2021-03-13T10:25:29Z</time>
      </trkpt>
      <trkpt lat="42.85507" lon="0.91043">
        <ele>1511.4</ele>
        <time>2021-03-13T10:25:31Z</time>
      </trkpt>
      <trkpt lat="42.85507" lon="0.91043">
        <ele>1511.394</ele>
        <time>2021-03-13T10:25:33Z</time>
      </trkpt>
      <trkpt lat="42.85507" lon="0.91043">
        <ele>1511.373</ele>
        <time>2021-03-13T10:25:35Z</time>
      </trkpt>
      <trkpt lat="42.85507" lon="0.91043">
        <ele>1511.358</ele>
        <time>2021-03-13T10:25:37Z</time>
      </trkpt>
      <trkpt lat="42.85507" lon="0.91043">
        <ele>1511.372</ele>
        <time>2021-03-13T10:25:39Z</time>
      </trkpt>
      <trkpt lat="42.85507" lon="0.91043">
        <ele>1511.378</ele>
        <time>2021-03-13T10:25:41Z</time>
      </trkpt>
      <trkpt lat="42.85507" lon="0.91043">
        <ele>1511.381</ele>
        <time>2021-03-13T10:25:43Z</time>
      </trkpt>
      <trkpt lat="42.85507" lon="0.91043">
        <ele>1511.385</ele>
        <time>2021-03-13T10:25:45Z</time>
      </trkpt>
      <trkpt lat="42.85507" lon="0.91043">
        <ele>1511.395</ele>
        <time>2021-03-13T10:25:47Z</time>
      </trkpt>
      <trkpt lat="42.85507" lon="0.91043">
        <ele>1511.396</ele>
        <time>2021-03-13T10:25:49Z</time>
      </trkpt>
      <trkpt lat="42.85507" lon="0.91043">
        <ele>1511.134</ele>
        <time>2021-03-13T10:25:51Z</time>
      </trkpt>
      <trkpt lat="42.85507" lon="0.91043">
        <ele>1511.127</ele>
        <time>2021-03-13T10:25:53Z</time>
      </trkpt>
      <trkpt lat="42.85508" lon="0.91042">
        <ele>1510.586</ele>
        <time>2021-03-13T10:25:55Z</time>
      </trkpt>
      <trkpt lat="42.85508" lon="0.91042">
        <ele>1510.554</ele>
        <time>2021-03-13T10:25:57Z</time>
      </trkpt>
      <trkpt lat="42.85508" lon="0.91042">
        <ele>1510.568</ele>
        <time>2021-03-13T10:25:59Z</time>
      </trkpt>
      <trkpt lat="42.85508" lon="0.91042">
        <ele>1510.581</ele>
        <time>2021-03-13T10:26:01Z</time>
      </trkpt>
      <trkpt lat="42.85508" lon="0.91042">
        <ele>1510.578</ele>
        <time>2021-03-13T10:26:03Z</time>
      </trkpt>
      <trkpt lat="42.85508" lon="0.91042">
        <ele>1511.166</ele>
        <time>2021-03-13T10:26:05Z</time>
      </trkpt>
      <trkpt lat="42.85508" lon="0.91041">
        <ele>1511.49</ele>
        <time>2021-03-13T10:26:07Z</time>
      </trkpt>
      <trkpt lat="42.85508" lon="0.91041">
        <ele>1511.486</ele>
        <time>2021-03-13T10:26:09Z</time>
      </trkpt>
      <trkpt lat="42.85508" lon="0.91041">
        <ele>1511.483</ele>
        <time>2021-03-13T10:26:11Z</time>
      </trkpt>
      <trkpt lat="42.85508" lon="0.91041">
        <ele>1511.476</ele>
        <time>2021-03-13T10:26:13Z</time>
      </trkpt>
      <trkpt lat="42.85508" lon="0.91041">
        <ele>1511.468</ele>
        <time>2021-03-13T10:26:15Z</time>
      </trkpt>
      <trkpt lat="42.85508" lon="0.91041">
        <ele>1511.467</ele>
        <time>2021-03-13T10:26:17Z</time>
      </trkpt>
      <trkpt lat="42.85508" lon="0.91041">
        <ele>1511.58</ele>
        <time>2021-03-13T10:26:19Z</time>
      </trkpt>
      <trkpt lat="42.85509" lon="0.91039">
        <ele>1511.833</ele>
        <time>2021-03-13T10:26:21Z</time>
      </trkpt>
      <trkpt lat="42.8551" lon="0.91038">
        <ele>1511.74</ele>
        <time>2021-03-13T10:26:23Z</time>
      </trkpt>
      <trkpt lat="42.85512" lon="0.91038">
        <ele>1511.612</ele>
        <time>2021-03-13T10:26:25Z</time>
      </trkpt>
      <trkpt lat="42.85514" lon="0.91037">
        <ele>1511.05</ele>
        <time>2021-03-13T10:26:27Z</time>
      </trkpt>
      <trkpt lat="42.85516" lon="0.91036">
        <ele>1511.428</ele>
        <time>2021-03-13T10:26:29Z</time>
      </trkpt>
      <trkpt lat="42.85518" lon="0.91035">
        <ele>1510.991</ele>
        <time>2021-03-13T10:26:31Z</time>
      </trkpt>
      <trkpt lat="42.85518" lon="0.91035">
        <ele>1511.607</ele>
        <time>2021-03-13T10:26:33Z</time>
      </trkpt>
      <trkpt lat="42.85518" lon="0.91035">
        <ele>1511.63</ele>
        <time>2021-03-13T10:26:35Z</time>
      </trkpt>
      <trkpt lat="42.85518" lon="0.91035">
        <ele>1511.634</ele>
        <time>2021-03-13T10:26:41Z</time>
      </trkpt>
      <trkpt lat="42.85518" lon="0.91035">
        <ele>1511.636</ele>
        <time>2021-03-13T10:26:43Z</time>
      </trkpt>
      <trkpt lat="42.85518" lon="0.91034">
        <ele>1511.452</ele>
        <time>2021-03-13T10:26:49Z</time>
      </trkpt>
      <trkpt lat="42.85519" lon="0.91034">
        <ele>1512.113</ele>
        <time>2021-03-13T10:26:51Z</time>
      </trkpt>
      <trkpt lat="42.85519" lon="0.91035">
        <ele>1512.111</ele>
        <time>2021-03-13T10:26:53Z</time>
      </trkpt>
      <trkpt lat="42.85518" lon="0.91035">
        <ele>1511.944</ele>
        <time>2021-03-13T10:26:55Z</time>
      </trkpt>
      <trkpt lat="42.85518" lon="0.91035">
        <ele>1511.95</ele>
        <time>2021-03-13T10:26:57Z</time>
      </trkpt>
      <trkpt lat="42.85518" lon="0.91035">
        <ele>1512.234</ele>
        <time>2021-03-13T10:26:59Z</time>
      </trkpt>
      <trkpt lat="42.85518" lon="0.91035">
        <ele>1512.208</ele>
        <time>2021-03-13T10:27:01Z</time>
      </trkpt>
      <trkpt lat="42.85518" lon="0.91035">
        <ele>1512.245</ele>
        <time>2021-03-13T10:27:03Z</time>
      </trkpt>
      <trkpt lat="42.85518" lon="0.91036">
        <ele>1512.497</ele>
        <time>2021-03-13T10:27:05Z</time>
      </trkpt>
      <trkpt lat="42.85518" lon="0.91035">
        <ele>1512.587</ele>
        <time>2021-03-13T10:27:07Z</time>
      </trkpt>
      <trkpt lat="42.85517" lon="0.91035">
        <ele>1512.285</ele>
        <time>2021-03-13T10:27:09Z</time>
      </trkpt>
      <trkpt lat="42.85517" lon="0.91035">
        <ele>1512.287</ele>
        <time>2021-03-13T10:27:10Z</time>
      </trkpt>
      <trkpt lat="42.85515" lon="0.91038">
        <ele>1511.55</ele>
        <time>2021-03-13T10:27:16Z</time>
      </trkpt>
      <trkpt lat="42.85515" lon="0.91039">
        <ele>1511.618</ele>
        <time>2021-03-13T10:27:18Z</time>
      </trkpt>
      <trkpt lat="42.85515" lon="0.91039">
        <ele>1511.634</ele>
        <time>2021-03-13T10:27:20Z</time>
      </trkpt>
      <trkpt lat="42.85515" lon="0.9104">
        <ele>1511.891</ele>
        <time>2021-03-13T10:27:22Z</time>
      </trkpt>
      <trkpt lat="42.85515" lon="0.9104">
        <ele>1511.756</ele>
        <time>2021-03-13T10:27:24Z</time>
      </trkpt>
      <trkpt lat="42.85516" lon="0.9104">
        <ele>1511.773</ele>
        <time>2021-03-13T10:27:26Z</time>
      </trkpt>
      <trkpt lat="42.85516" lon="0.9104">
        <ele>1511.77</ele>
        <time>2021-03-13T10:27:28Z</time>
      </trkpt>
      <trkpt lat="42.85516" lon="0.9104">
        <ele>1511.767</ele>
        <time>2021-03-13T10:27:30Z</time>
      </trkpt>
      <trkpt lat="42.85516" lon="0.9104">
        <ele>1511.765</ele>
        <time>2021-03-13T10:27:32Z</time>
      </trkpt>
      <trkpt lat="42.85516" lon="0.9104">
        <ele>1511.772</ele>
        <time>2021-03-13T10:27:34Z</time>
      </trkpt>
      <trkpt lat="42.85515" lon="0.9104">
        <ele>1511.563</ele>
        <time>2021-03-13T10:27:36Z</time>
      </trkpt>
      <trkpt lat="42.85515" lon="0.91041">
        <ele>1511.344</ele>
        <time>2021-03-13T10:27:38Z</time>
      </trkpt>
      <trkpt lat="42.85515" lon="0.91042">
        <ele>1511.561</ele>
        <time>2021-03-13T10:27:40Z</time>
      </trkpt>
      <trkpt lat="42.85516" lon="0.91042">
        <ele>1511.549</ele>
        <time>2021-03-13T10:27:42Z</time>
      </trkpt>
      <trkpt lat="42.85516" lon="0.91042">
        <ele>1511.482</ele>
        <time>2021-03-13T10:27:44Z</time>
      </trkpt>
      <trkpt lat="42.85516" lon="0.91042">
        <ele>1511.366</ele>
        <time>2021-03-13T10:27:46Z</time>
      </trkpt>
      <trkpt lat="42.85516" lon="0.91042">
        <ele>1511.373</ele>
        <time>2021-03-13T10:27:48Z</time>
      </trkpt>
      <trkpt lat="42.85516" lon="0.91042">
        <ele>1511.37</ele>
        <time>2021-03-13T10:27:50Z</time>
      </trkpt>
      <trkpt lat="42.85516" lon="0.91042">
        <ele>1511.365</ele>
        <time>2021-03-13T10:27:52Z</time>
      </trkpt>
      <trkpt lat="42.85516" lon="0.91042">
        <ele>1511.355</ele>
        <time>2021-03-13T10:27:54Z</time>
      </trkpt>
      <trkpt lat="42.85516" lon="0.91042">
        <ele>1511.348</ele>
        <time>2021-03-13T10:27:56Z</time>
      </trkpt>
      <trkpt lat="42.85516" lon="0.91042">
        <ele>1511.342</ele>
        <time>2021-03-13T10:27:58Z</time>
      </trkpt>
      <trkpt lat="42.85515" lon="0.91042">
        <ele>1511.163</ele>
        <time>2021-03-13T10:28:00Z</time>
      </trkpt>
      <trkpt lat="42.85515" lon="0.91042">
        <ele>1511.439</ele>
        <time>2021-03-13T10:28:02Z</time>
      </trkpt>
      <trkpt lat="42.85514" lon="0.91044">
        <ele>1511.593</ele>
        <time>2021-03-13T10:28:04Z</time>
      </trkpt>
      <trkpt lat="42.85514" lon="0.91045">
        <ele>1511.369</ele>
        <time>2021-03-13T10:28:06Z</time>
      </trkpt>
      <trkpt lat="42.85514" lon="0.91046">
        <ele>1511.65</ele>
        <time>2021-03-13T10:28:08Z</time>
      </trkpt>
      <trkpt lat="42.85514" lon="0.91051">
        <ele>1511.752</ele>
        <time>2021-03-13T10:28:14Z</time>
      </trkpt>
      <trkpt lat="42.85514" lon="0.91052">
        <ele>1511.662</ele>
        <time>2021-03-13T10:28:16Z</time>
      </trkpt>
      <trkpt lat="42.85515" lon="0.91054">
        <ele>1511.75</ele>
        <time>2021-03-13T10:28:18Z</time>
      </trkpt>
      <trkpt lat="42.85515" lon="0.91055">
        <ele>1511.713</ele>
        <time>2021-03-13T10:28:20Z</time>
      </trkpt>
      <trkpt lat="42.85516" lon="0.91057">
        <ele>1512.019</ele>
        <time>2021-03-13T10:28:22Z</time>
      </trkpt>
      <trkpt lat="42.85517" lon="0.91058">
        <ele>1512.129</ele>
        <time>2021-03-13T10:28:24Z</time>
      </trkpt>
      <trkpt lat="42.85518" lon="0.9106">
        <ele>1512.163</ele>
        <time>2021-03-13T10:28:26Z</time>
      </trkpt>
      <trkpt lat="42.85518" lon="0.91061">
        <ele>1511.435</ele>
        <time>2021-03-13T10:28:28Z</time>
      </trkpt>
      <trkpt lat="42.85519" lon="0.9106">
        <ele>1510.742</ele>
        <time>2021-03-13T10:28:30Z</time>
      </trkpt>
      <trkpt lat="42.85519" lon="0.9106">
        <ele>1510.744</ele>
        <time>2021-03-13T10:28:32Z</time>
      </trkpt>
      <trkpt lat="42.85519" lon="0.9106">
        <ele>1510.752</ele>
        <time>2021-03-13T10:28:35Z</time>
      </trkpt>
      <trkpt lat="42.85519" lon="0.9106">
        <ele>1510.755</ele>
        <time>2021-03-13T10:28:37Z</time>
      </trkpt>
      <trkpt lat="42.85519" lon="0.9106">
        <ele>1510.756</ele>
        <time>2021-03-13T10:28:39Z</time>
      </trkpt>
      <trkpt lat="42.85519" lon="0.9106">
        <ele>1510.753</ele>
        <time>2021-03-13T10:28:41Z</time>
      </trkpt>
      <trkpt lat="42.85519" lon="0.9106">
        <ele>1510.752</ele>
        <time>2021-03-13T10:28:43Z</time>
      </trkpt>
      <trkpt lat="42.85519" lon="0.9106">
        <ele>1510.75</ele>
        <time>2021-03-13T10:28:45Z</time>
      </trkpt>
      <trkpt lat="42.85519" lon="0.9106">
        <ele>1510.76</ele>
        <time>2021-03-13T10:28:47Z</time>
      </trkpt>
      <trkpt lat="42.85519" lon="0.9106">
        <ele>1510.769</ele>
        <time>2021-03-13T10:28:49Z</time>
      </trkpt>
      <trkpt lat="42.85519" lon="0.91059">
        <ele>1511.154</ele>
        <time>2021-03-13T10:28:51Z</time>
      </trkpt>
      <trkpt lat="42.85521" lon="0.91059">
        <ele>1511.141</ele>
        <time>2021-03-13T10:28:53Z</time>
      </trkpt>
      <trkpt lat="42.85522" lon="0.91059">
        <ele>1512.039</ele>
        <time>2021-03-13T10:28:55Z</time>
      </trkpt>
      <trkpt lat="42.85523" lon="0.91059">
        <ele>1512.032</ele>
        <time>2021-03-13T10:28:57Z</time>
      </trkpt>
      <trkpt lat="42.85524" lon="0.9106">
        <ele>1512.527</ele>
        <time>2021-03-13T10:28:59Z</time>
      </trkpt>
      <trkpt lat="42.85526" lon="0.9106">
        <ele>1512.814</ele>
        <time>2021-03-13T10:29:01Z</time>
      </trkpt>
      <trkpt lat="42.85527" lon="0.9106">
        <ele>1512.732</ele>
        <time>2021-03-13T10:29:03Z</time>
      </trkpt>
      <trkpt lat="42.85528" lon="0.9106">
        <ele>1512.784</ele>
        <time>2021-03-13T10:29:05Z</time>
      </trkpt>
      <trkpt lat="42.85529" lon="0.91061">
        <ele>1513.259</ele>
        <time>2021-03-13T10:29:07Z</time>
      </trkpt>
      <trkpt lat="42.8553" lon="0.91062">
        <ele>1513.649</ele>
        <time>2021-03-13T10:29:09Z</time>
      </trkpt>
      <trkpt lat="42.85532" lon="0.91063">
        <ele>1513.635</ele>
        <time>2021-03-13T10:29:11Z</time>
      </trkpt>
      <trkpt lat="42.85534" lon="0.91064">
        <ele>1513.68</ele>
        <time>2021-03-13T10:29:13Z</time>
      </trkpt>
      <trkpt lat="42.85535" lon="0.91065">
        <ele>1513.854</ele>
        <time>2021-03-13T10:29:15Z</time>
      </trkpt>
      <trkpt lat="42.85536" lon="0.91065">
        <ele>1514.291</ele>
        <time>2021-03-13T10:29:17Z</time>
      </trkpt>
      <trkpt lat="42.85537" lon="0.91066">
        <ele>1515.025</ele>
        <time>2021-03-13T10:29:19Z</time>
      </trkpt>
      <trkpt lat="42.85539" lon="0.91066">
        <ele>1515.169</ele>
        <time>2021-03-13T10:29:21Z</time>
      </trkpt>
      <trkpt lat="42.8554" lon="0.91066">
        <ele>1515.644</ele>
        <time>2021-03-13T10:29:23Z</time>
      </trkpt>
      <trkpt lat="42.85541" lon="0.91067">
        <ele>1516.605</ele>
        <time>2021-03-13T10:29:25Z</time>
      </trkpt>
      <trkpt lat="42.85542" lon="0.91068">
        <ele>1517.61</ele>
        <time>2021-03-13T10:29:27Z</time>
      </trkpt>
      <trkpt lat="42.85543" lon="0.91068">
        <ele>1517.892</ele>
        <time>2021-03-13T10:29:29Z</time>
      </trkpt>
      <trkpt lat="42.85544" lon="0.9107">
        <ele>1518.983</ele>
        <time>2021-03-13T10:29:31Z</time>
      </trkpt>
      <trkpt lat="42.85545" lon="0.9107">
        <ele>1519.776</ele>
        <time>2021-03-13T10:29:33Z</time>
      </trkpt>
      <trkpt lat="42.85546" lon="0.91071">
        <ele>1520.445</ele>
        <time>2021-03-13T10:29:35Z</time>
      </trkpt>
      <trkpt lat="42.85548" lon="0.9107">
        <ele>1520.19</ele>
        <time>2021-03-13T10:29:37Z</time>
      </trkpt>
      <trkpt lat="42.85549" lon="0.91071">
        <ele>1520.343</ele>
        <time>2021-03-13T10:29:39Z</time>
      </trkpt>
      <trkpt lat="42.8555" lon="0.91072">
        <ele>1520.591</ele>
        <time>2021-03-13T10:29:41Z</time>
      </trkpt>
      <trkpt lat="42.85551" lon="0.91072">
        <ele>1520.273</ele>
        <time>2021-03-13T10:29:43Z</time>
      </trkpt>
      <trkpt lat="42.85553" lon="0.91072">
        <ele>1520.466</ele>
        <time>2021-03-13T10:29:45Z</time>
      </trkpt>
      <trkpt lat="42.85554" lon="0.91072">
        <ele>1520.772</ele>
        <time>2021-03-13T10:29:47Z</time>
      </trkpt>
      <trkpt lat="42.85555" lon="0.91072">
        <ele>1519.841</ele>
        <time>2021-03-13T10:29:49Z</time>
      </trkpt>
      <trkpt lat="42.85556" lon="0.91074">
        <ele>1520.529</ele>
        <time>2021-03-13T10:29:51Z</time>
      </trkpt>
      <trkpt lat="42.85557" lon="0.91075">
        <ele>1520.529</ele>
        <time>2021-03-13T10:29:53Z</time>
      </trkpt>
      <trkpt lat="42.85559" lon="0.91077">
        <ele>1521.559</ele>
        <time>2021-03-13T10:29:55Z</time>
      </trkpt>
      <trkpt lat="42.8556" lon="0.91074">
        <ele>1521.824</ele>
        <time>2021-03-13T10:29:57Z</time>
      </trkpt>
      <trkpt lat="42.8556" lon="0.91073">
        <ele>1522.03</ele>
        <time>2021-03-13T10:29:59Z</time>
      </trkpt>
      <trkpt lat="42.8556" lon="0.91074">
        <ele>1522.122</ele>
        <time>2021-03-13T10:30:01Z</time>
      </trkpt>
      <trkpt lat="42.85561" lon="0.91075">
        <ele>1521.912</ele>
        <time>2021-03-13T10:30:03Z</time>
      </trkpt>
      <trkpt lat="42.85562" lon="0.91076">
        <ele>1521.316</ele>
        <time>2021-03-13T10:30:05Z</time>
      </trkpt>
      <trkpt lat="42.85563" lon="0.91076">
        <ele>1520.552</ele>
        <time>2021-03-13T10:30:07Z</time>
      </trkpt>
      <trkpt lat="42.85564" lon="0.91077">
        <ele>1520.718</ele>
        <time>2021-03-13T10:30:09Z</time>
      </trkpt>
      <trkpt lat="42.85565" lon="0.91076">
        <ele>1520.595</ele>
        <time>2021-03-13T10:30:11Z</time>
      </trkpt>
      <trkpt lat="42.85566" lon="0.91076">
        <ele>1521.229</ele>
        <time>2021-03-13T10:30:13Z</time>
      </trkpt>
      <trkpt lat="42.85567" lon="0.91077">
        <ele>1521.446</ele>
        <time>2021-03-13T10:30:15Z</time>
      </trkpt>
      <trkpt lat="42.85568" lon="0.91077">
        <ele>1520.985</ele>
        <time>2021-03-13T10:30:17Z</time>
      </trkpt>
      <trkpt lat="42.85569" lon="0.91078">
        <ele>1521.654</ele>
        <time>2021-03-13T10:30:19Z</time>
      </trkpt>
      <trkpt lat="42.85569" lon="0.91079">
        <ele>1522.787</ele>
        <time>2021-03-13T10:30:21Z</time>
      </trkpt>
      <trkpt lat="42.8557" lon="0.9108">
        <ele>1523.571</ele>
        <time>2021-03-13T10:30:23Z</time>
      </trkpt>
      <trkpt lat="42.8557" lon="0.91082">
        <ele>1525.555</ele>
        <time>2021-03-13T10:30:26Z</time>
      </trkpt>
      <trkpt lat="42.85571" lon="0.91083">
        <ele>1526.514</ele>
        <time>2021-03-13T10:30:28Z</time>
      </trkpt>
      <trkpt lat="42.85572" lon="0.91084">
        <ele>1528.203</ele>
        <time>2021-03-13T10:30:30Z</time>
      </trkpt>
      <trkpt lat="42.85572" lon="0.91085">
        <ele>1529.366</ele>
        <time>2021-03-13T10:30:32Z</time>
      </trkpt>
      <trkpt lat="42.85572" lon="0.91086">
        <ele>1530.452</ele>
        <time>2021-03-13T10:30:34Z</time>
      </trkpt>
      <trkpt lat="42.85572" lon="0.91088">
        <ele>1531.894</ele>
        <time>2021-03-13T10:30:36Z</time>
      </trkpt>
      <trkpt lat="42.85572" lon="0.91088">
        <ele>1531.942</ele>
        <time>2021-03-13T10:30:38Z</time>
      </trkpt>
      <trkpt lat="42.85573" lon="0.91088">
        <ele>1531.944</ele>
        <time>2021-03-13T10:30:40Z</time>
      </trkpt>
      <trkpt lat="42.85573" lon="0.91088">
        <ele>1531.063</ele>
        <time>2021-03-13T10:30:42Z</time>
      </trkpt>
      <trkpt lat="42.85573" lon="0.9109">
        <ele>1532.31</ele>
        <time>2021-03-13T10:30:44Z</time>
      </trkpt>
      <trkpt lat="42.85574" lon="0.9109">
        <ele>1532.751</ele>
        <time>2021-03-13T10:30:46Z</time>
      </trkpt>
      <trkpt lat="42.85575" lon="0.91091">
        <ele>1532.757</ele>
        <time>2021-03-13T10:30:48Z</time>
      </trkpt>
      <trkpt lat="42.85575" lon="0.91092">
        <ele>1533.209</ele>
        <time>2021-03-13T10:30:50Z</time>
      </trkpt>
      <trkpt lat="42.85576" lon="0.91093">
        <ele>1533.016</ele>
        <time>2021-03-13T10:30:52Z</time>
      </trkpt>
      <trkpt lat="42.85576" lon="0.91093">
        <ele>1534.078</ele>
        <time>2021-03-13T10:30:54Z</time>
      </trkpt>
      <trkpt lat="42.85577" lon="0.91094">
        <ele>1534.139</ele>
        <time>2021-03-13T10:30:56Z</time>
      </trkpt>
      <trkpt lat="42.85577" lon="0.91095">
        <ele>1533.634</ele>
        <time>2021-03-13T10:30:58Z</time>
      </trkpt>
      <trkpt lat="42.85577" lon="0.91096">
        <ele>1533.617</ele>
        <time>2021-03-13T10:31:00Z</time>
      </trkpt>
      <trkpt lat="42.85578" lon="0.91097">
        <ele>1535.221</ele>
        <time>2021-03-13T10:31:02Z</time>
      </trkpt>
      <trkpt lat="42.85579" lon="0.91098">
        <ele>1534.519</ele>
        <time>2021-03-13T10:31:04Z</time>
      </trkpt>
      <trkpt lat="42.8558" lon="0.91097">
        <ele>1533.634</ele>
        <time>2021-03-13T10:31:06Z</time>
      </trkpt>
      <trkpt lat="42.85581" lon="0.91096">
        <ele>1533.25</ele>
        <time>2021-03-13T10:31:08Z</time>
      </trkpt>
      <trkpt lat="42.85582" lon="0.91095">
        <ele>1533.093</ele>
        <time>2021-03-13T10:31:10Z</time>
      </trkpt>
      <trkpt lat="42.85583" lon="0.91094">
        <ele>1533.631</ele>
        <time>2021-03-13T10:31:12Z</time>
      </trkpt>
      <trkpt lat="42.85584" lon="0.91094">
        <ele>1532.475</ele>
        <time>2021-03-13T10:31:14Z</time>
      </trkpt>
      <trkpt lat="42.85585" lon="0.91095">
        <ele>1531.655</ele>
        <time>2021-03-13T10:31:16Z</time>
      </trkpt>
      <trkpt lat="42.85585" lon="0.91095">
        <ele>1531.667</ele>
        <time>2021-03-13T10:31:18Z</time>
      </trkpt>
      <trkpt lat="42.85586" lon="0.91097">
        <ele>1532.441</ele>
        <time>2021-03-13T10:31:20Z</time>
      </trkpt>
      <trkpt lat="42.85586" lon="0.91098">
        <ele>1532.919</ele>
        <time>2021-03-13T10:31:22Z</time>
      </trkpt>
      <trkpt lat="42.85586" lon="0.91099">
        <ele>1534.646</ele>
        <time>2021-03-13T10:31:24Z</time>
      </trkpt>
      <trkpt lat="42.85586" lon="0.91099">
        <ele>1534.76</ele>
        <time>2021-03-13T10:31:26Z</time>
      </trkpt>
      <trkpt lat="42.85586" lon="0.911">
        <ele>1535.617</ele>
        <time>2021-03-13T10:31:28Z</time>
      </trkpt>
      <trkpt lat="42.85587" lon="0.91101">
        <ele>1535.496</ele>
        <time>2021-03-13T10:31:30Z</time>
      </trkpt>
      <trkpt lat="42.85587" lon="0.91102">
        <ele>1536.456</ele>
        <time>2021-03-13T10:31:32Z</time>
      </trkpt>
      <trkpt lat="42.85587" lon="0.91103">
        <ele>1537.914</ele>
        <time>2021-03-13T10:31:34Z</time>
      </trkpt>
      <trkpt lat="42.85587" lon="0.91105">
        <ele>1539.063</ele>
        <time>2021-03-13T10:31:36Z</time>
      </trkpt>
      <trkpt lat="42.85588" lon="0.91106">
        <ele>1540.37</ele>
        <time>2021-03-13T10:31:38Z</time>
      </trkpt>
      <trkpt lat="42.85588" lon="0.91107">
        <ele>1540.706</ele>
        <time>2021-03-13T10:31:40Z</time>
      </trkpt>
      <trkpt lat="42.85588" lon="0.91108">
        <ele>1540.731</ele>
        <time>2021-03-13T10:31:42Z</time>
      </trkpt>
      <trkpt lat="42.85588" lon="0.9111">
        <ele>1541.496</ele>
        <time>2021-03-13T10:31:44Z</time>
      </trkpt>
      <trkpt lat="42.85588" lon="0.91111">
        <ele>1542.216</ele>
        <time>2021-03-13T10:31:46Z</time>
      </trkpt>
      <trkpt lat="42.85588" lon="0.91112">
        <ele>1543.819</ele>
        <time>2021-03-13T10:31:48Z</time>
      </trkpt>
      <trkpt lat="42.85589" lon="0.91113">
        <ele>1544.285</ele>
        <time>2021-03-13T10:31:50Z</time>
      </trkpt>
      <trkpt lat="42.85589" lon="0.91114">
        <ele>1545.32</ele>
        <time>2021-03-13T10:31:52Z</time>
      </trkpt>
      <trkpt lat="42.8559" lon="0.91115">
        <ele>1546.395</ele>
        <time>2021-03-13T10:31:54Z</time>
      </trkpt>
      <trkpt lat="42.8559" lon="0.91116">
        <ele>1546.867</ele>
        <time>2021-03-13T10:31:56Z</time>
      </trkpt>
      <trkpt lat="42.8559" lon="0.91117">
        <ele>1547.355</ele>
        <time>2021-03-13T10:31:58Z</time>
      </trkpt>
      <trkpt lat="42.8559" lon="0.91118">
        <ele>1546.821</ele>
        <time>2021-03-13T10:32:00Z</time>
      </trkpt>
      <trkpt lat="42.85591" lon="0.91119">
        <ele>1547.618</ele>
        <time>2021-03-13T10:32:02Z</time>
      </trkpt>
      <trkpt lat="42.85592" lon="0.9112">
        <ele>1547.863</ele>
        <time>2021-03-13T10:32:04Z</time>
      </trkpt>
      <trkpt lat="42.85592" lon="0.91122">
        <ele>1548.686</ele>
        <time>2021-03-13T10:32:06Z</time>
      </trkpt>
      <trkpt lat="42.85592" lon="0.91123">
        <ele>1548.721</ele>
        <time>2021-03-13T10:32:08Z</time>
      </trkpt>
      <trkpt lat="42.85592" lon="0.91124">
        <ele>1549.475</ele>
        <time>2021-03-13T10:32:10Z</time>
      </trkpt>
      <trkpt lat="42.85592" lon="0.91126">
        <ele>1551.073</ele>
        <time>2021-03-13T10:32:12Z</time>
      </trkpt>
      <trkpt lat="42.85592" lon="0.91127">
        <ele>1551.5</ele>
        <time>2021-03-13T10:32:14Z</time>
      </trkpt>
      <trkpt lat="42.85592" lon="0.91128">
        <ele>1552.606</ele>
        <time>2021-03-13T10:32:16Z</time>
      </trkpt>
      <trkpt lat="42.85592" lon="0.9113">
        <ele>1552.487</ele>
        <time>2021-03-13T10:32:18Z</time>
      </trkpt>
      <trkpt lat="42.85593" lon="0.9113">
        <ele>1552.34</ele>
        <time>2021-03-13T10:32:20Z</time>
      </trkpt>
      <trkpt lat="42.85593" lon="0.91131">
        <ele>1551.909</ele>
        <time>2021-03-13T10:32:22Z</time>
      </trkpt>
      <trkpt lat="42.85594" lon="0.91133">
        <ele>1552.085</ele>
        <time>2021-03-13T10:32:24Z</time>
      </trkpt>
      <trkpt lat="42.85594" lon="0.91134">
        <ele>1553.519</ele>
        <time>2021-03-13T10:32:26Z</time>
      </trkpt>
      <trkpt lat="42.85594" lon="0.91136">
        <ele>1555.53</ele>
        <time>2021-03-13T10:32:28Z</time>
      </trkpt>
      <trkpt lat="42.85594" lon="0.91138">
        <ele>1556.408</ele>
        <time>2021-03-13T10:32:30Z</time>
      </trkpt>
      <trkpt lat="42.85595" lon="0.91139">
        <ele>1557.635</ele>
        <time>2021-03-13T10:32:32Z</time>
      </trkpt>
      <trkpt lat="42.85596" lon="0.9114">
        <ele>1557.607</ele>
        <time>2021-03-13T10:32:35Z</time>
      </trkpt>
      <trkpt lat="42.85597" lon="0.9114">
        <ele>1558.508</ele>
        <time>2021-03-13T10:32:37Z</time>
      </trkpt>
      <trkpt lat="42.85597" lon="0.91141">
        <ele>1558.683</ele>
        <time>2021-03-13T10:32:39Z</time>
      </trkpt>
      <trkpt lat="42.85597" lon="0.91141">
        <ele>1558.679</ele>
        <time>2021-03-13T10:32:41Z</time>
      </trkpt>
      <trkpt lat="42.85597" lon="0.91141">
        <ele>1558.682</ele>
        <time>2021-03-13T10:32:42Z</time>
      </trkpt>
      <trkpt lat="42.85598" lon="0.91141">
        <ele>1558.354</ele>
        <time>2021-03-13T10:32:45Z</time>
      </trkpt>
      <trkpt lat="42.85599" lon="0.91142">
        <ele>1558.073</ele>
        <time>2021-03-13T10:32:47Z</time>
      </trkpt>
      <trkpt lat="42.85599" lon="0.91143">
        <ele>1558.641</ele>
        <time>2021-03-13T10:32:49Z</time>
      </trkpt>
      <trkpt lat="42.856" lon="0.91143">
        <ele>1558.416</ele>
        <time>2021-03-13T10:32:51Z</time>
      </trkpt>
      <trkpt lat="42.85601" lon="0.91144">
        <ele>1558.694</ele>
        <time>2021-03-13T10:32:53Z</time>
      </trkpt>
      <trkpt lat="42.85601" lon="0.91144">
        <ele>1558.636</ele>
        <time>2021-03-13T10:32:55Z</time>
      </trkpt>
      <trkpt lat="42.85601" lon="0.91144">
        <ele>1558.726</ele>
        <time>2021-03-13T10:32:57Z</time>
      </trkpt>
      <trkpt lat="42.85601" lon="0.91144">
        <ele>1558.474</ele>
        <time>2021-03-13T10:32:59Z</time>
      </trkpt>
      <trkpt lat="42.85602" lon="0.91144">
        <ele>1559.45</ele>
        <time>2021-03-13T10:33:01Z</time>
      </trkpt>
      <trkpt lat="42.85603" lon="0.91144">
        <ele>1559.909</ele>
        <time>2021-03-13T10:33:03Z</time>
      </trkpt>
      <trkpt lat="42.85604" lon="0.91143">
        <ele>1559.536</ele>
        <time>2021-03-13T10:33:05Z</time>
      </trkpt>
      <trkpt lat="42.85605" lon="0.91143">
        <ele>1559.684</ele>
        <time>2021-03-13T10:33:07Z</time>
      </trkpt>
      <trkpt lat="42.85605" lon="0.91142">
        <ele>1559.348</ele>
        <time>2021-03-13T10:33:09Z</time>
      </trkpt>
      <trkpt lat="42.85606" lon="0.91141">
        <ele>1559.203</ele>
        <time>2021-03-13T10:33:11Z</time>
      </trkpt>
      <trkpt lat="42.85606" lon="0.9114">
        <ele>1559.211</ele>
        <time>2021-03-13T10:33:13Z</time>
      </trkpt>
      <trkpt lat="42.85606" lon="0.9114">
        <ele>1559.198</ele>
        <time>2021-03-13T10:33:15Z</time>
      </trkpt>
      <trkpt lat="42.85606" lon="0.9114">
        <ele>1559.198</ele>
        <time>2021-03-13T10:33:17Z</time>
      </trkpt>
      <trkpt lat="42.85606" lon="0.9114">
        <ele>1559.209</ele>
        <time>2021-03-13T10:33:19Z</time>
      </trkpt>
      <trkpt lat="42.85606" lon="0.9114">
        <ele>1559.549</ele>
        <time>2021-03-13T10:33:21Z</time>
      </trkpt>
      <trkpt lat="42.85606" lon="0.9114">
        <ele>1559.944</ele>
        <time>2021-03-13T10:33:23Z</time>
      </trkpt>
      <trkpt lat="42.85606" lon="0.9114">
        <ele>1559.958</ele>
        <time>2021-03-13T10:33:25Z</time>
      </trkpt>
      <trkpt lat="42.85606" lon="0.9114">
        <ele>1559.959</ele>
        <time>2021-03-13T10:33:27Z</time>
      </trkpt>
      <trkpt lat="42.85606" lon="0.9114">
        <ele>1559.973</ele>
        <time>2021-03-13T10:33:29Z</time>
      </trkpt>
      <trkpt lat="42.85606" lon="0.9114">
        <ele>1559.974</ele>
        <time>2021-03-13T10:33:31Z</time>
      </trkpt>
      <trkpt lat="42.85606" lon="0.9114">
        <ele>1559.969</ele>
        <time>2021-03-13T10:33:33Z</time>
      </trkpt>
      <trkpt lat="42.85607" lon="0.91141">
        <ele>1560.289</ele>
        <time>2021-03-13T10:33:35Z</time>
      </trkpt>
      <trkpt lat="42.85606" lon="0.91142">
        <ele>1559.62</ele>
        <time>2021-03-13T10:33:37Z</time>
      </trkpt>
      <trkpt lat="42.85607" lon="0.91144">
        <ele>1560.176</ele>
        <time>2021-03-13T10:33:39Z</time>
      </trkpt>
      <trkpt lat="42.85607" lon="0.91145">
        <ele>1560.344</ele>
        <time>2021-03-13T10:33:41Z</time>
      </trkpt>
      <trkpt lat="42.85607" lon="0.91146">
        <ele>1560.333</ele>
        <time>2021-03-13T10:33:43Z</time>
      </trkpt>
      <trkpt lat="42.85608" lon="0.91147">
        <ele>1560.482</ele>
        <time>2021-03-13T10:33:45Z</time>
      </trkpt>
      <trkpt lat="42.85608" lon="0.91147">
        <ele>1560.808</ele>
        <time>2021-03-13T10:33:47Z</time>
      </trkpt>
      <trkpt lat="42.85609" lon="0.91147">
        <ele>1560.667</ele>
        <time>2021-03-13T10:33:49Z</time>
      </trkpt>
      <trkpt lat="42.85609" lon="0.91147">
        <ele>1560.803</ele>
        <time>2021-03-13T10:33:51Z</time>
      </trkpt>
      <trkpt lat="42.8561" lon="0.91147">
        <ele>1561.181</ele>
        <time>2021-03-13T10:33:53Z</time>
      </trkpt>
      <trkpt lat="42.85611" lon="0.91147">
        <ele>1561.027</ele>
        <time>2021-03-13T10:33:55Z</time>
      </trkpt>
      <trkpt lat="42.85612" lon="0.91147">
        <ele>1562.014</ele>
        <time>2021-03-13T10:33:57Z</time>
      </trkpt>
      <trkpt lat="42.85613" lon="0.91148">
        <ele>1562.149</ele>
        <time>2021-03-13T10:33:59Z</time>
      </trkpt>
      <trkpt lat="42.85613" lon="0.91149">
        <ele>1562.813</ele>
        <time>2021-03-13T10:34:01Z</time>
      </trkpt>
      <trkpt lat="42.85614" lon="0.91149">
        <ele>1563.916</ele>
        <time>2021-03-13T10:34:03Z</time>
      </trkpt>
      <trkpt lat="42.85615" lon="0.91148">
        <ele>1563.719</ele>
        <time>2021-03-13T10:34:05Z</time>
      </trkpt>
      <trkpt lat="42.85616" lon="0.91148">
        <ele>1564.369</ele>
        <time>2021-03-13T10:34:07Z</time>
      </trkpt>
      <trkpt lat="42.85616" lon="0.91148">
        <ele>1564.766</ele>
        <time>2021-03-13T10:34:09Z</time>
      </trkpt>
      <trkpt lat="42.85617" lon="0.91148">
        <ele>1566.221</ele>
        <time>2021-03-13T10:34:11Z</time>
      </trkpt>
      <trkpt lat="42.85618" lon="0.91148">
        <ele>1566.609</ele>
        <time>2021-03-13T10:34:13Z</time>
      </trkpt>
      <trkpt lat="42.85618" lon="0.91147">
        <ele>1567.352</ele>
        <time>2021-03-13T10:34:14Z</time>
      </trkpt>
      <trkpt lat="42.85619" lon="0.91146">
        <ele>1568.086</ele>
        <time>2021-03-13T10:34:17Z</time>
      </trkpt>
      <trkpt lat="42.8562" lon="0.91145">
        <ele>1568.311</ele>
        <time>2021-03-13T10:34:19Z</time>
      </trkpt>
      <trkpt lat="42.8562" lon="0.91144">
        <ele>1569.037</ele>
        <time>2021-03-13T10:34:21Z</time>
      </trkpt>
      <trkpt lat="42.85621" lon="0.91143">
        <ele>1569.166</ele>
        <time>2021-03-13T10:34:23Z</time>
      </trkpt>
      <trkpt lat="42.85621" lon="0.91142">
        <ele>1568.527</ele>
        <time>2021-03-13T10:34:25Z</time>
      </trkpt>
      <trkpt lat="42.85622" lon="0.91142">
        <ele>1567.792</ele>
        <time>2021-03-13T10:34:27Z</time>
      </trkpt>
      <trkpt lat="42.85623" lon="0.91141">
        <ele>1566.31</ele>
        <time>2021-03-13T10:34:29Z</time>
      </trkpt>
      <trkpt lat="42.85623" lon="0.91142">
        <ele>1566.918</ele>
        <time>2021-03-13T10:34:31Z</time>
      </trkpt>
      <trkpt lat="42.85624" lon="0.91141">
        <ele>1567.592</ele>
        <time>2021-03-13T10:34:33Z</time>
      </trkpt>
      <trkpt lat="42.85624" lon="0.91141">
        <ele>1567.312</ele>
        <time>2021-03-13T10:34:35Z</time>
      </trkpt>
      <trkpt lat="42.85625" lon="0.91142">
        <ele>1567.242</ele>
        <time>2021-03-13T10:34:37Z</time>
      </trkpt>
      <trkpt lat="42.85625" lon="0.91142">
        <ele>1567.253</ele>
        <time>2021-03-13T10:34:39Z</time>
      </trkpt>
      <trkpt lat="42.85625" lon="0.91142">
        <ele>1567.253</ele>
        <time>2021-03-13T10:34:41Z</time>
      </trkpt>
      <trkpt lat="42.85625" lon="0.91142">
        <ele>1567.243</ele>
        <time>2021-03-13T10:34:43Z</time>
      </trkpt>
      <trkpt lat="42.85625" lon="0.91142">
        <ele>1567.487</ele>
        <time>2021-03-13T10:34:45Z</time>
      </trkpt>
      <trkpt lat="42.85626" lon="0.91143">
        <ele>1567.906</ele>
        <time>2021-03-13T10:34:47Z</time>
      </trkpt>
      <trkpt lat="42.85626" lon="0.91143">
        <ele>1568.01</ele>
        <time>2021-03-13T10:34:49Z</time>
      </trkpt>
      <trkpt lat="42.85627" lon="0.91145">
        <ele>1568.255</ele>
        <time>2021-03-13T10:34:51Z</time>
      </trkpt>
      <trkpt lat="42.85628" lon="0.91144">
        <ele>1568.68</ele>
        <time>2021-03-13T10:34:53Z</time>
      </trkpt>
      <trkpt lat="42.85629" lon="0.91144">
        <ele>1568.738</ele>
        <time>2021-03-13T10:34:55Z</time>
      </trkpt>
      <trkpt lat="42.85629" lon="0.91145">
        <ele>1569.743</ele>
        <time>2021-03-13T10:34:57Z</time>
      </trkpt>
      <trkpt lat="42.8563" lon="0.91145">
        <ele>1570.063</ele>
        <time>2021-03-13T10:34:59Z</time>
      </trkpt>
      <trkpt lat="42.8563" lon="0.91144">
        <ele>1570.131</ele>
        <time>2021-03-13T10:35:01Z</time>
      </trkpt>
      <trkpt lat="42.85631" lon="0.91143">
        <ele>1571.365</ele>
        <time>2021-03-13T10:35:03Z</time>
      </trkpt>
      <trkpt lat="42.85632" lon="0.91143">
        <ele>1570.645</ele>
        <time>2021-03-13T10:35:05Z</time>
      </trkpt>
      <trkpt lat="42.85632" lon="0.91143">
        <ele>1571.961</ele>
        <time>2021-03-13T10:35:07Z</time>
      </trkpt>
      <trkpt lat="42.85633" lon="0.91143">
        <ele>1571.972</ele>
        <time>2021-03-13T10:35:09Z</time>
      </trkpt>
      <trkpt lat="42.85634" lon="0.91143">
        <ele>1572.334</ele>
        <time>2021-03-13T10:35:11Z</time>
      </trkpt>
      <trkpt lat="42.85634" lon="0.91144">
        <ele>1572.905</ele>
        <time>2021-03-13T10:35:13Z</time>
      </trkpt>
      <trkpt lat="42.85635" lon="0.91144">
        <ele>1572.996</ele>
        <time>2021-03-13T10:35:15Z</time>
      </trkpt>
      <trkpt lat="42.85636" lon="0.91145">
        <ele>1573.66</ele>
        <time>2021-03-13T10:35:17Z</time>
      </trkpt>
      <trkpt lat="42.85636" lon="0.91147">
        <ele>1573.989</ele>
        <time>2021-03-13T10:35:19Z</time>
      </trkpt>
      <trkpt lat="42.85636" lon="0.91147">
        <ele>1575.498</ele>
        <time>2021-03-13T10:35:21Z</time>
      </trkpt>
      <trkpt lat="42.85637" lon="0.91149">
        <ele>1576.43</ele>
        <time>2021-03-13T10:35:23Z</time>
      </trkpt>
      <trkpt lat="42.85638" lon="0.91148">
        <ele>1576.519</ele>
        <time>2021-03-13T10:35:25Z</time>
      </trkpt>
      <trkpt lat="42.85638" lon="0.91148">
        <ele>1576.555</ele>
        <time>2021-03-13T10:35:27Z</time>
      </trkpt>
      <trkpt lat="42.85638" lon="0.91148">
        <ele>1576.721</ele>
        <time>2021-03-13T10:35:29Z</time>
      </trkpt>
      <trkpt lat="42.85638" lon="0.91148">
        <ele>1576.851</ele>
        <time>2021-03-13T10:35:31Z</time>
      </trkpt>
      <trkpt lat="42.85638" lon="0.91148">
        <ele>1577.864</ele>
        <time>2021-03-13T10:35:33Z</time>
      </trkpt>
      <trkpt lat="42.85639" lon="0.91148">
        <ele>1577.61</ele>
        <time>2021-03-13T10:35:35Z</time>
      </trkpt>
      <trkpt lat="42.85639" lon="0.91148">
        <ele>1577.71</ele>
        <time>2021-03-13T10:35:37Z</time>
      </trkpt>
      <trkpt lat="42.85639" lon="0.91148">
        <ele>1577.97</ele>
        <time>2021-03-13T10:35:39Z</time>
      </trkpt>
      <trkpt lat="42.85639" lon="0.91149">
        <ele>1577.925</ele>
        <time>2021-03-13T10:35:41Z</time>
      </trkpt>
      <trkpt lat="42.8564" lon="0.91149">
        <ele>1578.102</ele>
        <time>2021-03-13T10:35:43Z</time>
      </trkpt>
      <trkpt lat="42.8564" lon="0.91149">
        <ele>1578.433</ele>
        <time>2021-03-13T10:35:45Z</time>
      </trkpt>
      <trkpt lat="42.8564" lon="0.91149">
        <ele>1578.788</ele>
        <time>2021-03-13T10:35:47Z</time>
      </trkpt>
      <trkpt lat="42.85641" lon="0.91149">
        <ele>1579.598</ele>
        <time>2021-03-13T10:35:49Z</time>
      </trkpt>
      <trkpt lat="42.85641" lon="0.91149">
        <ele>1580</ele>
        <time>2021-03-13T10:35:51Z</time>
      </trkpt>
      <trkpt lat="42.85642" lon="0.9115">
        <ele>1580.747</ele>
        <time>2021-03-13T10:35:53Z</time>
      </trkpt>
      <trkpt lat="42.85643" lon="0.9115">
        <ele>1580.999</ele>
        <time>2021-03-13T10:35:55Z</time>
      </trkpt>
      <trkpt lat="42.85644" lon="0.9115">
        <ele>1581.156</ele>
        <time>2021-03-13T10:35:57Z</time>
      </trkpt>
      <trkpt lat="42.85645" lon="0.91152">
        <ele>1582.067</ele>
        <time>2021-03-13T10:35:59Z</time>
      </trkpt>
      <trkpt lat="42.85645" lon="0.91152">
        <ele>1582.234</ele>
        <time>2021-03-13T10:36:01Z</time>
      </trkpt>
      <trkpt lat="42.85646" lon="0.91152">
        <ele>1582.191</ele>
        <time>2021-03-13T10:36:03Z</time>
      </trkpt>
      <trkpt lat="42.85647" lon="0.91153">
        <ele>1583.954</ele>
        <time>2021-03-13T10:36:05Z</time>
      </trkpt>
      <trkpt lat="42.85648" lon="0.91153">
        <ele>1584.591</ele>
        <time>2021-03-13T10:36:07Z</time>
      </trkpt>
      <trkpt lat="42.85648" lon="0.91153">
        <ele>1585.342</ele>
        <time>2021-03-13T10:36:09Z</time>
      </trkpt>
      <trkpt lat="42.85649" lon="0.91154">
        <ele>1585.582</ele>
        <time>2021-03-13T10:36:11Z</time>
      </trkpt>
      <trkpt lat="42.85649" lon="0.91154">
        <ele>1586.021</ele>
        <time>2021-03-13T10:36:13Z</time>
      </trkpt>
      <trkpt lat="42.8565" lon="0.91154">
        <ele>1585.722</ele>
        <time>2021-03-13T10:36:15Z</time>
      </trkpt>
      <trkpt lat="42.85651" lon="0.91155">
        <ele>1586.603</ele>
        <time>2021-03-13T10:36:17Z</time>
      </trkpt>
      <trkpt lat="42.85651" lon="0.91156">
        <ele>1586.68</ele>
        <time>2021-03-13T10:36:19Z</time>
      </trkpt>
      <trkpt lat="42.85652" lon="0.91156">
        <ele>1586.092</ele>
        <time>2021-03-13T10:36:21Z</time>
      </trkpt>
      <trkpt lat="42.85652" lon="0.91157">
        <ele>1586.587</ele>
        <time>2021-03-13T10:36:23Z</time>
      </trkpt>
      <trkpt lat="42.85652" lon="0.91156">
        <ele>1586.335</ele>
        <time>2021-03-13T10:36:25Z</time>
      </trkpt>
      <trkpt lat="42.85652" lon="0.91156">
        <ele>1586.333</ele>
        <time>2021-03-13T10:36:27Z</time>
      </trkpt>
      <trkpt lat="42.85653" lon="0.91157">
        <ele>1586.195</ele>
        <time>2021-03-13T10:36:29Z</time>
      </trkpt>
      <trkpt lat="42.85654" lon="0.91159">
        <ele>1586.954</ele>
        <time>2021-03-13T10:36:31Z</time>
      </trkpt>
      <trkpt lat="42.85655" lon="0.91161">
        <ele>1588.73</ele>
        <time>2021-03-13T10:36:33Z</time>
      </trkpt>
      <trkpt lat="42.85656" lon="0.91162">
        <ele>1589.1</ele>
        <time>2021-03-13T10:36:35Z</time>
      </trkpt>
      <trkpt lat="42.85656" lon="0.91163">
        <ele>1589.378</ele>
        <time>2021-03-13T10:36:37Z</time>
      </trkpt>
      <trkpt lat="42.85657" lon="0.91164">
        <ele>1589.435</ele>
        <time>2021-03-13T10:36:39Z</time>
      </trkpt>
      <trkpt lat="42.85657" lon="0.91166">
        <ele>1589.379</ele>
        <time>2021-03-13T10:36:41Z</time>
      </trkpt>
      <trkpt lat="42.85658" lon="0.91167">
        <ele>1589.968</ele>
        <time>2021-03-13T10:36:43Z</time>
      </trkpt>
      <trkpt lat="42.85658" lon="0.91169">
        <ele>1590.627</ele>
        <time>2021-03-13T10:36:45Z</time>
      </trkpt>
      <trkpt lat="42.85659" lon="0.91169">
        <ele>1591.546</ele>
        <time>2021-03-13T10:36:47Z</time>
      </trkpt>
      <trkpt lat="42.8566" lon="0.9117">
        <ele>1591.759</ele>
        <time>2021-03-13T10:36:49Z</time>
      </trkpt>
      <trkpt lat="42.8566" lon="0.91171">
        <ele>1591.193</ele>
        <time>2021-03-13T10:36:51Z</time>
      </trkpt>
      <trkpt lat="42.85661" lon="0.91171">
        <ele>1591.223</ele>
        <time>2021-03-13T10:36:53Z</time>
      </trkpt>
      <trkpt lat="42.85661" lon="0.91171">
        <ele>1591.321</ele>
        <time>2021-03-13T10:36:55Z</time>
      </trkpt>
      <trkpt lat="42.85662" lon="0.91172">
        <ele>1591.658</ele>
        <time>2021-03-13T10:36:57Z</time>
      </trkpt>
      <trkpt lat="42.85663" lon="0.91173">
        <ele>1592.553</ele>
        <time>2021-03-13T10:36:59Z</time>
      </trkpt>
      <trkpt lat="42.85663" lon="0.91174">
        <ele>1593.454</ele>
        <time>2021-03-13T10:37:01Z</time>
      </trkpt>
      <trkpt lat="42.85664" lon="0.91175">
        <ele>1593.927</ele>
        <time>2021-03-13T10:37:03Z</time>
      </trkpt>
      <trkpt lat="42.85664" lon="0.91176">
        <ele>1594.572</ele>
        <time>2021-03-13T10:37:05Z</time>
      </trkpt>
      <trkpt lat="42.85665" lon="0.91177">
        <ele>1595.522</ele>
        <time>2021-03-13T10:37:07Z</time>
      </trkpt>
      <trkpt lat="42.85666" lon="0.91178">
        <ele>1595.327</ele>
        <time>2021-03-13T10:37:09Z</time>
      </trkpt>
      <trkpt lat="42.85667" lon="0.91178">
        <ele>1595.955</ele>
        <time>2021-03-13T10:37:11Z</time>
      </trkpt>
      <trkpt lat="42.85668" lon="0.91178">
        <ele>1596.615</ele>
        <time>2021-03-13T10:37:13Z</time>
      </trkpt>
      <trkpt lat="42.85669" lon="0.91177">
        <ele>1596.682</ele>
        <time>2021-03-13T10:37:15Z</time>
      </trkpt>
      <trkpt lat="42.8567" lon="0.91176">
        <ele>1597.029</ele>
        <time>2021-03-13T10:37:17Z</time>
      </trkpt>
      <trkpt lat="42.85671" lon="0.91176">
        <ele>1596.903</ele>
        <time>2021-03-13T10:37:19Z</time>
      </trkpt>
      <trkpt lat="42.85672" lon="0.91177">
        <ele>1597.123</ele>
        <time>2021-03-13T10:37:21Z</time>
      </trkpt>
      <trkpt lat="42.85672" lon="0.91178">
        <ele>1596.979</ele>
        <time>2021-03-13T10:37:23Z</time>
      </trkpt>
      <trkpt lat="42.85673" lon="0.91179">
        <ele>1597.109</ele>
        <time>2021-03-13T10:37:25Z</time>
      </trkpt>
      <trkpt lat="42.85674" lon="0.9118">
        <ele>1597.899</ele>
        <time>2021-03-13T10:37:27Z</time>
      </trkpt>
      <trkpt lat="42.85675" lon="0.91179">
        <ele>1597.883</ele>
        <time>2021-03-13T10:37:29Z</time>
      </trkpt>
      <trkpt lat="42.85675" lon="0.91181">
        <ele>1598.074</ele>
        <time>2021-03-13T10:37:31Z</time>
      </trkpt>
      <trkpt lat="42.85676" lon="0.9118">
        <ele>1597.878</ele>
        <time>2021-03-13T10:37:33Z</time>
      </trkpt>
      <trkpt lat="42.85677" lon="0.91181">
        <ele>1597.184</ele>
        <time>2021-03-13T10:37:35Z</time>
      </trkpt>
      <trkpt lat="42.85678" lon="0.91181">
        <ele>1597.64</ele>
        <time>2021-03-13T10:37:37Z</time>
      </trkpt>
      <trkpt lat="42.85679" lon="0.91181">
        <ele>1597.988</ele>
        <time>2021-03-13T10:37:39Z</time>
      </trkpt>
      <trkpt lat="42.8568" lon="0.9118">
        <ele>1598.393</ele>
        <time>2021-03-13T10:37:41Z</time>
      </trkpt>
      <trkpt lat="42.85681" lon="0.91179">
        <ele>1598.324</ele>
        <time>2021-03-13T10:37:43Z</time>
      </trkpt>
      <trkpt lat="42.85682" lon="0.91179">
        <ele>1598.531</ele>
        <time>2021-03-13T10:37:45Z</time>
      </trkpt>
      <trkpt lat="42.85683" lon="0.91179">
        <ele>1599.244</ele>
        <time>2021-03-13T10:37:47Z</time>
      </trkpt>
      <trkpt lat="42.85683" lon="0.91178">
        <ele>1598.917</ele>
        <time>2021-03-13T10:37:49Z</time>
      </trkpt>
      <trkpt lat="42.85684" lon="0.91177">
        <ele>1599.847</ele>
        <time>2021-03-13T10:37:51Z</time>
      </trkpt>
      <trkpt lat="42.85684" lon="0.91177">
        <ele>1599.995</ele>
        <time>2021-03-13T10:37:53Z</time>
      </trkpt>
      <trkpt lat="42.85684" lon="0.91176">
        <ele>1600.967</ele>
        <time>2021-03-13T10:37:55Z</time>
      </trkpt>
      <trkpt lat="42.85684" lon="0.91176">
        <ele>1600.943</ele>
        <time>2021-03-13T10:37:57Z</time>
      </trkpt>
      <trkpt lat="42.85683" lon="0.91176">
        <ele>1600.949</ele>
        <time>2021-03-13T10:37:59Z</time>
      </trkpt>
      <trkpt lat="42.85683" lon="0.91176">
        <ele>1600.949</ele>
        <time>2021-03-13T10:38:01Z</time>
      </trkpt>
      <trkpt lat="42.85683" lon="0.91176">
        <ele>1600.957</ele>
        <time>2021-03-13T10:38:02Z</time>
      </trkpt>
      <trkpt lat="42.85684" lon="0.91176">
        <ele>1601.229</ele>
        <time>2021-03-13T10:38:05Z</time>
      </trkpt>
      <trkpt lat="42.85684" lon="0.91176">
        <ele>1601.23</ele>
        <time>2021-03-13T10:38:07Z</time>
      </trkpt>
      <trkpt lat="42.85684" lon="0.91176">
        <ele>1601.325</ele>
        <time>2021-03-13T10:38:09Z</time>
      </trkpt>
      <trkpt lat="42.85684" lon="0.91176">
        <ele>1601.329</ele>
        <time>2021-03-13T10:38:11Z</time>
      </trkpt>
      <trkpt lat="42.85684" lon="0.91176">
        <ele>1601.33</ele>
        <time>2021-03-13T10:38:13Z</time>
      </trkpt>
      <trkpt lat="42.85684" lon="0.91176">
        <ele>1601.329</ele>
        <time>2021-03-13T10:38:15Z</time>
      </trkpt>
      <trkpt lat="42.85684" lon="0.91176">
        <ele>1601.328</ele>
        <time>2021-03-13T10:38:17Z</time>
      </trkpt>
      <trkpt lat="42.85684" lon="0.91176">
        <ele>1601.327</ele>
        <time>2021-03-13T10:38:19Z</time>
      </trkpt>
      <trkpt lat="42.85684" lon="0.91176">
        <ele>1601.33</ele>
        <time>2021-03-13T10:38:21Z</time>
      </trkpt>
      <trkpt lat="42.85684" lon="0.91176">
        <ele>1601.332</ele>
        <time>2021-03-13T10:38:23Z</time>
      </trkpt>
      <trkpt lat="42.85684" lon="0.91176">
        <ele>1601.68</ele>
        <time>2021-03-13T10:38:25Z</time>
      </trkpt>
      <trkpt lat="42.85684" lon="0.91176">
        <ele>1601.671</ele>
        <time>2021-03-13T10:38:28Z</time>
      </trkpt>
      <trkpt lat="42.85684" lon="0.91176">
        <ele>1601.68</ele>
        <time>2021-03-13T10:38:30Z</time>
      </trkpt>
      <trkpt lat="42.85684" lon="0.91176">
        <ele>1601.682</ele>
        <time>2021-03-13T10:38:32Z</time>
      </trkpt>
      <trkpt lat="42.85684" lon="0.91176">
        <ele>1601.668</ele>
        <time>2021-03-13T10:38:34Z</time>
      </trkpt>
      <trkpt lat="42.85684" lon="0.91176">
        <ele>1601.665</ele>
        <time>2021-03-13T10:38:36Z</time>
      </trkpt>
      <trkpt lat="42.85684" lon="0.91176">
        <ele>1601.668</ele>
        <time>2021-03-13T10:38:38Z</time>
      </trkpt>
      <trkpt lat="42.85684" lon="0.91176">
        <ele>1601.304</ele>
        <time>2021-03-13T10:38:40Z</time>
      </trkpt>
      <trkpt lat="42.85684" lon="0.91176">
        <ele>1601.315</ele>
        <time>2021-03-13T10:38:42Z</time>
      </trkpt>
      <trkpt lat="42.85684" lon="0.91176">
        <ele>1601.32</ele>
        <time>2021-03-13T10:38:44Z</time>
      </trkpt>
      <trkpt lat="42.85688" lon="0.91179">
        <ele>1605.888</ele>
        <time>2021-03-13T10:38:45Z</time>
      </trkpt>
      <trkpt lat="42.85684" lon="0.91176">
        <ele>1601.334</ele>
        <time>2021-03-13T10:38:48Z</time>
      </trkpt>
      <trkpt lat="42.85684" lon="0.91176">
        <ele>1601.339</ele>
        <time>2021-03-13T10:38:50Z</time>
      </trkpt>
      <trkpt lat="42.85684" lon="0.91176">
        <ele>1601.342</ele>
        <time>2021-03-13T10:38:52Z</time>
      </trkpt>
      <trkpt lat="42.85684" lon="0.91176">
        <ele>1601.348</ele>
        <time>2021-03-13T10:38:54Z</time>
      </trkpt>
      <trkpt lat="42.85683" lon="0.91177">
        <ele>1601.764</ele>
        <time>2021-03-13T10:38:56Z</time>
      </trkpt>
      <trkpt lat="42.85683" lon="0.91177">
        <ele>1601.763</ele>
        <time>2021-03-13T10:38:58Z</time>
      </trkpt>
      <trkpt lat="42.85683" lon="0.91177">
        <ele>1601.771</ele>
        <time>2021-03-13T10:39:00Z</time>
      </trkpt>
      <trkpt lat="42.85683" lon="0.91177">
        <ele>1601.775</ele>
        <time>2021-03-13T10:39:02Z</time>
      </trkpt>
      <trkpt lat="42.85683" lon="0.91177">
        <ele>1601.773</ele>
        <time>2021-03-13T10:39:04Z</time>
      </trkpt>
      <trkpt lat="42.85683" lon="0.91177">
        <ele>1601.773</ele>
        <time>2021-03-13T10:39:06Z</time>
      </trkpt>
      <trkpt lat="42.85683" lon="0.91177">
        <ele>1601.776</ele>
        <time>2021-03-13T10:39:08Z</time>
      </trkpt>
      <trkpt lat="42.85683" lon="0.91177">
        <ele>1601.774</ele>
        <time>2021-03-13T10:39:10Z</time>
      </trkpt>
      <trkpt lat="42.85683" lon="0.91177">
        <ele>1601.78</ele>
        <time>2021-03-13T10:39:12Z</time>
      </trkpt>
      <trkpt lat="42.85683" lon="0.91177">
        <ele>1601.779</ele>
        <time>2021-03-13T10:39:14Z</time>
      </trkpt>
      <trkpt lat="42.85683" lon="0.91177">
        <ele>1601.772</ele>
        <time>2021-03-13T10:39:16Z</time>
      </trkpt>
      <trkpt lat="42.85683" lon="0.91177">
        <ele>1601.778</ele>
        <time>2021-03-13T10:39:18Z</time>
      </trkpt>
      <trkpt lat="42.85683" lon="0.91177">
        <ele>1601.781</ele>
        <time>2021-03-13T10:39:20Z</time>
      </trkpt>
      <trkpt lat="42.85683" lon="0.91177">
        <ele>1601.783</ele>
        <time>2021-03-13T10:39:22Z</time>
      </trkpt>
      <trkpt lat="42.85683" lon="0.91177">
        <ele>1601.78</ele>
        <time>2021-03-13T10:39:24Z</time>
      </trkpt>
      <trkpt lat="42.85683" lon="0.91177">
        <ele>1601.781</ele>
        <time>2021-03-13T10:39:26Z</time>
      </trkpt>
      <trkpt lat="42.85683" lon="0.91177">
        <ele>1601.783</ele>
        <time>2021-03-13T10:39:28Z</time>
      </trkpt>
      <trkpt lat="42.85683" lon="0.91177">
        <ele>1601.779</ele>
        <time>2021-03-13T10:39:30Z</time>
      </trkpt>
      <trkpt lat="42.85683" lon="0.91177">
        <ele>1601.784</ele>
        <time>2021-03-13T10:39:32Z</time>
      </trkpt>
      <trkpt lat="42.85683" lon="0.91177">
        <ele>1601.784</ele>
        <time>2021-03-13T10:39:34Z</time>
      </trkpt>
      <trkpt lat="42.85683" lon="0.91177">
        <ele>1601.786</ele>
        <time>2021-03-13T10:39:36Z</time>
      </trkpt>
      <trkpt lat="42.85683" lon="0.91177">
        <ele>1601.783</ele>
        <time>2021-03-13T10:39:38Z</time>
      </trkpt>
      <trkpt lat="42.85683" lon="0.91177">
        <ele>1601.776</ele>
        <time>2021-03-13T10:39:40Z</time>
      </trkpt>
      <trkpt lat="42.85683" lon="0.91177">
        <ele>1601.784</ele>
        <time>2021-03-13T10:39:42Z</time>
      </trkpt>
      <trkpt lat="42.85683" lon="0.91177">
        <ele>1601.786</ele>
        <time>2021-03-13T10:39:44Z</time>
      </trkpt>
      <trkpt lat="42.85683" lon="0.91177">
        <ele>1601.79</ele>
        <time>2021-03-13T10:39:46Z</time>
      </trkpt>
      <trkpt lat="42.85683" lon="0.91177">
        <ele>1601.798</ele>
        <time>2021-03-13T10:39:48Z</time>
      </trkpt>
      <trkpt lat="42.85683" lon="0.91177">
        <ele>1601.8</ele>
        <time>2021-03-13T10:39:50Z</time>
      </trkpt>
      <trkpt lat="42.85683" lon="0.91177">
        <ele>1601.794</ele>
        <time>2021-03-13T10:39:52Z</time>
      </trkpt>
      <trkpt lat="42.85683" lon="0.91177">
        <ele>1601.787</ele>
        <time>2021-03-13T10:39:54Z</time>
      </trkpt>
      <trkpt lat="42.85683" lon="0.91177">
        <ele>1601.785</ele>
        <time>2021-03-13T10:39:56Z</time>
      </trkpt>
      <trkpt lat="42.85683" lon="0.91177">
        <ele>1601.782</ele>
        <time>2021-03-13T10:39:58Z</time>
      </trkpt>
      <trkpt lat="42.85683" lon="0.91177">
        <ele>1601.788</ele>
        <time>2021-03-13T10:40:00Z</time>
      </trkpt>
      <trkpt lat="42.85683" lon="0.91177">
        <ele>1601.788</ele>
        <time>2021-03-13T10:40:02Z</time>
      </trkpt>
      <trkpt lat="42.85683" lon="0.91177">
        <ele>1601.786</ele>
        <time>2021-03-13T10:40:04Z</time>
      </trkpt>
      <trkpt lat="42.85683" lon="0.91177">
        <ele>1601.78</ele>
        <time>2021-03-13T10:40:06Z</time>
      </trkpt>
      <trkpt lat="42.85683" lon="0.91177">
        <ele>1601.791</ele>
        <time>2021-03-13T10:40:08Z</time>
      </trkpt>
      <trkpt lat="42.85683" lon="0.91177">
        <ele>1601.793</ele>
        <time>2021-03-13T10:40:10Z</time>
      </trkpt>
      <trkpt lat="42.85683" lon="0.91178">
        <ele>1602.012</ele>
        <time>2021-03-13T10:40:12Z</time>
      </trkpt>
      <trkpt lat="42.85684" lon="0.91178">
        <ele>1601.962</ele>
        <time>2021-03-13T10:40:14Z</time>
      </trkpt>
      <trkpt lat="42.85684" lon="0.91178">
        <ele>1601.965</ele>
        <time>2021-03-13T10:40:16Z</time>
      </trkpt>
      <trkpt lat="42.85684" lon="0.91178">
        <ele>1601.96</ele>
        <time>2021-03-13T10:40:18Z</time>
      </trkpt>
      <trkpt lat="42.85684" lon="0.91178">
        <ele>1601.957</ele>
        <time>2021-03-13T10:40:20Z</time>
      </trkpt>
      <trkpt lat="42.85684" lon="0.91178">
        <ele>1601.957</ele>
        <time>2021-03-13T10:40:22Z</time>
      </trkpt>
      <trkpt lat="42.85684" lon="0.91178">
        <ele>1601.954</ele>
        <time>2021-03-13T10:40:24Z</time>
      </trkpt>
      <trkpt lat="42.85684" lon="0.91178">
        <ele>1601.957</ele>
        <time>2021-03-13T10:40:26Z</time>
      </trkpt>
      <trkpt lat="42.85684" lon="0.91178">
        <ele>1601.952</ele>
        <time>2021-03-13T10:40:28Z</time>
      </trkpt>
      <trkpt lat="42.85684" lon="0.91178">
        <ele>1602.022</ele>
        <time>2021-03-13T10:40:30Z</time>
      </trkpt>
      <trkpt lat="42.85684" lon="0.91178">
        <ele>1601.91</ele>
        <time>2021-03-13T10:40:32Z</time>
      </trkpt>
      <trkpt lat="42.85684" lon="0.91178">
        <ele>1601.913</ele>
        <time>2021-03-13T10:40:34Z</time>
      </trkpt>
      <trkpt lat="42.85684" lon="0.91178">
        <ele>1601.916</ele>
        <time>2021-03-13T10:40:36Z</time>
      </trkpt>
      <trkpt lat="42.85684" lon="0.91178">
        <ele>1601.914</ele>
        <time>2021-03-13T10:40:38Z</time>
      </trkpt>
      <trkpt lat="42.85684" lon="0.91178">
        <ele>1601.915</ele>
        <time>2021-03-13T10:40:40Z</time>
      </trkpt>
      <trkpt lat="42.85684" lon="0.91178">
        <ele>1601.905</ele>
        <time>2021-03-13T10:40:42Z</time>
      </trkpt>
      <trkpt lat="42.85684" lon="0.91178">
        <ele>1601.904</ele>
        <time>2021-03-13T10:40:44Z</time>
      </trkpt>
      <trkpt lat="42.85684" lon="0.91178">
        <ele>1601.895</ele>
        <time>2021-03-13T10:40:46Z</time>
      </trkpt>
      <trkpt lat="42.85684" lon="0.91178">
        <ele>1601.886</ele>
        <time>2021-03-13T10:40:48Z</time>
      </trkpt>
      <trkpt lat="42.85684" lon="0.91178">
        <ele>1601.881</ele>
        <time>2021-03-13T10:40:50Z</time>
      </trkpt>
      <trkpt lat="42.85684" lon="0.91178">
        <ele>1601.896</ele>
        <time>2021-03-13T10:40:52Z</time>
      </trkpt>
      <trkpt lat="42.85684" lon="0.91178">
        <ele>1601.9</ele>
        <time>2021-03-13T10:40:54Z</time>
      </trkpt>
      <trkpt lat="42.85684" lon="0.91178">
        <ele>1601.891</ele>
        <time>2021-03-13T10:40:56Z</time>
      </trkpt>
      <trkpt lat="42.85684" lon="0.91178">
        <ele>1601.906</ele>
        <time>2021-03-13T10:40:58Z</time>
      </trkpt>
      <trkpt lat="42.85684" lon="0.91178">
        <ele>1601.907</ele>
        <time>2021-03-13T10:41:00Z</time>
      </trkpt>
      <trkpt lat="42.85684" lon="0.91178">
        <ele>1601.911</ele>
        <time>2021-03-13T10:41:02Z</time>
      </trkpt>
      <trkpt lat="42.85684" lon="0.91178">
        <ele>1601.905</ele>
        <time>2021-03-13T10:41:04Z</time>
      </trkpt>
      <trkpt lat="42.85684" lon="0.91178">
        <ele>1601.902</ele>
        <time>2021-03-13T10:41:06Z</time>
      </trkpt>
      <trkpt lat="42.85684" lon="0.91178">
        <ele>1601.896</ele>
        <time>2021-03-13T10:41:08Z</time>
      </trkpt>
      <trkpt lat="42.85684" lon="0.91178">
        <ele>1601.902</ele>
        <time>2021-03-13T10:41:10Z</time>
      </trkpt>
      <trkpt lat="42.85684" lon="0.91178">
        <ele>1601.896</ele>
        <time>2021-03-13T10:41:12Z</time>
      </trkpt>
      <trkpt lat="42.85684" lon="0.91178">
        <ele>1601.893</ele>
        <time>2021-03-13T10:41:14Z</time>
      </trkpt>
      <trkpt lat="42.85684" lon="0.91178">
        <ele>1601.895</ele>
        <time>2021-03-13T10:41:16Z</time>
      </trkpt>
      <trkpt lat="42.85684" lon="0.91178">
        <ele>1601.897</ele>
        <time>2021-03-13T10:41:18Z</time>
      </trkpt>
      <trkpt lat="42.85684" lon="0.91178">
        <ele>1601.902</ele>
        <time>2021-03-13T10:41:20Z</time>
      </trkpt>
      <trkpt lat="42.85684" lon="0.91178">
        <ele>1601.915</ele>
        <time>2021-03-13T10:41:22Z</time>
      </trkpt>
      <trkpt lat="42.85684" lon="0.91178">
        <ele>1601.916</ele>
        <time>2021-03-13T10:41:24Z</time>
      </trkpt>
      <trkpt lat="42.85684" lon="0.91178">
        <ele>1601.91</ele>
        <time>2021-03-13T10:41:26Z</time>
      </trkpt>
      <trkpt lat="42.85684" lon="0.91178">
        <ele>1601.904</ele>
        <time>2021-03-13T10:41:28Z</time>
      </trkpt>
      <trkpt lat="42.85684" lon="0.91178">
        <ele>1601.909</ele>
        <time>2021-03-13T10:41:30Z</time>
      </trkpt>
      <trkpt lat="42.85684" lon="0.91178">
        <ele>1601.91</ele>
        <time>2021-03-13T10:41:32Z</time>
      </trkpt>
      <trkpt lat="42.85684" lon="0.91178">
        <ele>1601.917</ele>
        <time>2021-03-13T10:41:34Z</time>
      </trkpt>
      <trkpt lat="42.85684" lon="0.91178">
        <ele>1601.918</ele>
        <time>2021-03-13T10:41:36Z</time>
      </trkpt>
      <trkpt lat="42.85684" lon="0.91178">
        <ele>1601.923</ele>
        <time>2021-03-13T10:41:38Z</time>
      </trkpt>
      <trkpt lat="42.85684" lon="0.91178">
        <ele>1601.921</ele>
        <time>2021-03-13T10:41:40Z</time>
      </trkpt>
      <trkpt lat="42.85684" lon="0.91178">
        <ele>1601.927</ele>
        <time>2021-03-13T10:41:42Z</time>
      </trkpt>
      <trkpt lat="42.85684" lon="0.91178">
        <ele>1601.926</ele>
        <time>2021-03-13T10:41:44Z</time>
      </trkpt>
      <trkpt lat="42.85684" lon="0.91178">
        <ele>1601.934</ele>
        <time>2021-03-13T10:41:46Z</time>
      </trkpt>
      <trkpt lat="42.85684" lon="0.91178">
        <ele>1601.949</ele>
        <time>2021-03-13T10:41:48Z</time>
      </trkpt>
      <trkpt lat="42.85684" lon="0.91178">
        <ele>1601.959</ele>
        <time>2021-03-13T10:41:50Z</time>
      </trkpt>
      <trkpt lat="42.85684" lon="0.91178">
        <ele>1601.961</ele>
        <time>2021-03-13T10:41:52Z</time>
      </trkpt>
      <trkpt lat="42.85684" lon="0.91178">
        <ele>1601.963</ele>
        <time>2021-03-13T10:41:54Z</time>
      </trkpt>
      <trkpt lat="42.85684" lon="0.91178">
        <ele>1601.964</ele>
        <time>2021-03-13T10:41:56Z</time>
      </trkpt>
      <trkpt lat="42.85684" lon="0.91178">
        <ele>1601.968</ele>
        <time>2021-03-13T10:41:58Z</time>
      </trkpt>
      <trkpt lat="42.85684" lon="0.91178">
        <ele>1601.972</ele>
        <time>2021-03-13T10:42:00Z</time>
      </trkpt>
      <trkpt lat="42.85684" lon="0.91178">
        <ele>1601.975</ele>
        <time>2021-03-13T10:42:02Z</time>
      </trkpt>
      <trkpt lat="42.85684" lon="0.91178">
        <ele>1601.983</ele>
        <time>2021-03-13T10:42:04Z</time>
      </trkpt>
      <trkpt lat="42.85684" lon="0.91178">
        <ele>1601.987</ele>
        <time>2021-03-13T10:42:06Z</time>
      </trkpt>
      <trkpt lat="42.85684" lon="0.91178">
        <ele>1601.989</ele>
        <time>2021-03-13T10:42:08Z</time>
      </trkpt>
      <trkpt lat="42.85684" lon="0.91178">
        <ele>1601.992</ele>
        <time>2021-03-13T10:42:10Z</time>
      </trkpt>
      <trkpt lat="42.85684" lon="0.91178">
        <ele>1601.993</ele>
        <time>2021-03-13T10:42:12Z</time>
      </trkpt>
      <trkpt lat="42.85684" lon="0.91178">
        <ele>1601.992</ele>
        <time>2021-03-13T10:42:14Z</time>
      </trkpt>
      <trkpt lat="42.85684" lon="0.91178">
        <ele>1601.984</ele>
        <time>2021-03-13T10:42:16Z</time>
      </trkpt>
      <trkpt lat="42.85684" lon="0.91178">
        <ele>1601.982</ele>
        <time>2021-03-13T10:42:18Z</time>
      </trkpt>
      <trkpt lat="42.85684" lon="0.91178">
        <ele>1601.992</ele>
        <time>2021-03-13T10:42:20Z</time>
      </trkpt>
      <trkpt lat="42.85684" lon="0.91178">
        <ele>1602</ele>
        <time>2021-03-13T10:42:22Z</time>
      </trkpt>
      <trkpt lat="42.85684" lon="0.91178">
        <ele>1602.005</ele>
        <time>2021-03-13T10:42:24Z</time>
      </trkpt>
      <trkpt lat="42.85684" lon="0.91178">
        <ele>1602.01</ele>
        <time>2021-03-13T10:42:26Z</time>
      </trkpt>
      <trkpt lat="42.85684" lon="0.91178">
        <ele>1602.011</ele>
        <time>2021-03-13T10:42:28Z</time>
      </trkpt>
      <trkpt lat="42.85684" lon="0.91178">
        <ele>1602.016</ele>
        <time>2021-03-13T10:42:30Z</time>
      </trkpt>
      <trkpt lat="42.85684" lon="0.91178">
        <ele>1602.019</ele>
        <time>2021-03-13T10:42:32Z</time>
      </trkpt>
      <trkpt lat="42.85684" lon="0.91178">
        <ele>1602.017</ele>
        <time>2021-03-13T10:42:34Z</time>
      </trkpt>
      <trkpt lat="42.85684" lon="0.91178">
        <ele>1602.026</ele>
        <time>2021-03-13T10:42:36Z</time>
      </trkpt>
      <trkpt lat="42.85684" lon="0.91178">
        <ele>1602.026</ele>
        <time>2021-03-13T10:42:38Z</time>
      </trkpt>
      <trkpt lat="42.85684" lon="0.91178">
        <ele>1602.031</ele>
        <time>2021-03-13T10:42:40Z</time>
      </trkpt>
      <trkpt lat="42.85684" lon="0.91178">
        <ele>1602.033</ele>
        <time>2021-03-13T10:42:42Z</time>
      </trkpt>
      <trkpt lat="42.85684" lon="0.91178">
        <ele>1602.035</ele>
        <time>2021-03-13T10:42:44Z</time>
      </trkpt>
      <trkpt lat="42.85684" lon="0.91178">
        <ele>1602.032</ele>
        <time>2021-03-13T10:42:46Z</time>
      </trkpt>
      <trkpt lat="42.85684" lon="0.91178">
        <ele>1602.029</ele>
        <time>2021-03-13T10:42:48Z</time>
      </trkpt>
      <trkpt lat="42.85684" lon="0.91178">
        <ele>1602.032</ele>
        <time>2021-03-13T10:42:50Z</time>
      </trkpt>
      <trkpt lat="42.85684" lon="0.91178">
        <ele>1602.207</ele>
        <time>2021-03-13T10:42:52Z</time>
      </trkpt>
      <trkpt lat="42.85684" lon="0.91178">
        <ele>1602.209</ele>
        <time>2021-03-13T10:42:54Z</time>
      </trkpt>
      <trkpt lat="42.85684" lon="0.91178">
        <ele>1602.21</ele>
        <time>2021-03-13T10:42:56Z</time>
      </trkpt>
      <trkpt lat="42.85684" lon="0.91178">
        <ele>1602.21</ele>
        <time>2021-03-13T10:42:58Z</time>
      </trkpt>
      <trkpt lat="42.85684" lon="0.91178">
        <ele>1602.213</ele>
        <time>2021-03-13T10:43:00Z</time>
      </trkpt>
      <trkpt lat="42.85684" lon="0.91178">
        <ele>1602.21</ele>
        <time>2021-03-13T10:43:02Z</time>
      </trkpt>
      <trkpt lat="42.85684" lon="0.91178">
        <ele>1602.215</ele>
        <time>2021-03-13T10:43:04Z</time>
      </trkpt>
      <trkpt lat="42.85684" lon="0.91178">
        <ele>1602.215</ele>
        <time>2021-03-13T10:43:06Z</time>
      </trkpt>
      <trkpt lat="42.85684" lon="0.91178">
        <ele>1602.213</ele>
        <time>2021-03-13T10:43:08Z</time>
      </trkpt>
      <trkpt lat="42.85684" lon="0.91178">
        <ele>1602.213</ele>
        <time>2021-03-13T10:43:10Z</time>
      </trkpt>
      <trkpt lat="42.85684" lon="0.91178">
        <ele>1602.437</ele>
        <time>2021-03-13T10:43:12Z</time>
      </trkpt>
      <trkpt lat="42.85684" lon="0.91178">
        <ele>1602.439</ele>
        <time>2021-03-13T10:43:14Z</time>
      </trkpt>
      <trkpt lat="42.85684" lon="0.91178">
        <ele>1602.433</ele>
        <time>2021-03-13T10:43:16Z</time>
      </trkpt>
      <trkpt lat="42.85684" lon="0.91178">
        <ele>1602.438</ele>
        <time>2021-03-13T10:43:18Z</time>
      </trkpt>
      <trkpt lat="42.85684" lon="0.91178">
        <ele>1602.445</ele>
        <time>2021-03-13T10:43:20Z</time>
      </trkpt>
      <trkpt lat="42.85684" lon="0.91178">
        <ele>1602.45</ele>
        <time>2021-03-13T10:43:22Z</time>
      </trkpt>
      <trkpt lat="42.85684" lon="0.91178">
        <ele>1602.452</ele>
        <time>2021-03-13T10:43:24Z</time>
      </trkpt>
      <trkpt lat="42.85684" lon="0.91178">
        <ele>1602.456</ele>
        <time>2021-03-13T10:43:25Z</time>
      </trkpt>
      <trkpt lat="42.85684" lon="0.91178">
        <ele>1602.463</ele>
        <time>2021-03-13T10:43:28Z</time>
      </trkpt>
      <trkpt lat="42.85684" lon="0.91178">
        <ele>1602.47</ele>
        <time>2021-03-13T10:43:30Z</time>
      </trkpt>
      <trkpt lat="42.85684" lon="0.91178">
        <ele>1602.471</ele>
        <time>2021-03-13T10:43:32Z</time>
      </trkpt>
      <trkpt lat="42.85684" lon="0.91178">
        <ele>1602.476</ele>
        <time>2021-03-13T10:43:34Z</time>
      </trkpt>
      <trkpt lat="42.85684" lon="0.91178">
        <ele>1602.468</ele>
        <time>2021-03-13T10:43:36Z</time>
      </trkpt>
      <trkpt lat="42.85684" lon="0.91178">
        <ele>1602.473</ele>
        <time>2021-03-13T10:43:38Z</time>
      </trkpt>
      <trkpt lat="42.85684" lon="0.91178">
        <ele>1602.475</ele>
        <time>2021-03-13T10:43:40Z</time>
      </trkpt>
      <trkpt lat="42.85684" lon="0.91178">
        <ele>1602.471</ele>
        <time>2021-03-13T10:43:42Z</time>
      </trkpt>
      <trkpt lat="42.85684" lon="0.91178">
        <ele>1602.475</ele>
        <time>2021-03-13T10:43:44Z</time>
      </trkpt>
      <trkpt lat="42.85684" lon="0.91178">
        <ele>1602.477</ele>
        <time>2021-03-13T10:43:46Z</time>
      </trkpt>
      <trkpt lat="42.85684" lon="0.91178">
        <ele>1602.473</ele>
        <time>2021-03-13T10:43:48Z</time>
      </trkpt>
      <trkpt lat="42.85684" lon="0.91178">
        <ele>1602.476</ele>
        <time>2021-03-13T10:43:50Z</time>
      </trkpt>
      <trkpt lat="42.85684" lon="0.91178">
        <ele>1602.468</ele>
        <time>2021-03-13T10:43:52Z</time>
      </trkpt>
      <trkpt lat="42.85684" lon="0.91178">
        <ele>1602.468</ele>
        <time>2021-03-13T10:43:54Z</time>
      </trkpt>
      <trkpt lat="42.85684" lon="0.91178">
        <ele>1602.468</ele>
        <time>2021-03-13T10:43:56Z</time>
      </trkpt>
      <trkpt lat="42.85684" lon="0.91178">
        <ele>1602.463</ele>
        <time>2021-03-13T10:43:58Z</time>
      </trkpt>
      <trkpt lat="42.85684" lon="0.91178">
        <ele>1602.463</ele>
        <time>2021-03-13T10:44:00Z</time>
      </trkpt>
      <trkpt lat="42.85684" lon="0.91178">
        <ele>1602.268</ele>
        <time>2021-03-13T10:44:02Z</time>
      </trkpt>
      <trkpt lat="42.85684" lon="0.91179">
        <ele>1602.498</ele>
        <time>2021-03-13T10:44:04Z</time>
      </trkpt>
      <trkpt lat="42.85685" lon="0.9118">
        <ele>1603.004</ele>
        <time>2021-03-13T10:44:06Z</time>
      </trkpt>
      <trkpt lat="42.85686" lon="0.91181">
        <ele>1602.692</ele>
        <time>2021-03-13T10:44:08Z</time>
      </trkpt>
      <trkpt lat="42.85687" lon="0.91182">
        <ele>1602.979</ele>
        <time>2021-03-13T10:44:10Z</time>
      </trkpt>
      <trkpt lat="42.85688" lon="0.91183">
        <ele>1602.668</ele>
        <time>2021-03-13T10:44:12Z</time>
      </trkpt>
      <trkpt lat="42.85689" lon="0.91183">
        <ele>1603.161</ele>
        <time>2021-03-13T10:44:14Z</time>
      </trkpt>
      <trkpt lat="42.8569" lon="0.91185">
        <ele>1603.338</ele>
        <time>2021-03-13T10:44:16Z</time>
      </trkpt>
      <trkpt lat="42.85691" lon="0.91186">
        <ele>1603.528</ele>
        <time>2021-03-13T10:44:18Z</time>
      </trkpt>
      <trkpt lat="42.85692" lon="0.91187">
        <ele>1603.803</ele>
        <time>2021-03-13T10:44:20Z</time>
      </trkpt>
      <trkpt lat="42.85693" lon="0.91189">
        <ele>1603.727</ele>
        <time>2021-03-13T10:44:22Z</time>
      </trkpt>
      <trkpt lat="42.85694" lon="0.9119">
        <ele>1604.033</ele>
        <time>2021-03-13T10:44:24Z</time>
      </trkpt>
      <trkpt lat="42.85695" lon="0.91191">
        <ele>1604.309</ele>
        <time>2021-03-13T10:44:26Z</time>
      </trkpt>
      <trkpt lat="42.85696" lon="0.91191">
        <ele>1603.898</ele>
        <time>2021-03-13T10:44:28Z</time>
      </trkpt>
      <trkpt lat="42.85697" lon="0.91192">
        <ele>1604.041</ele>
        <time>2021-03-13T10:44:30Z</time>
      </trkpt>
      <trkpt lat="42.85697" lon="0.91193">
        <ele>1604.202</ele>
        <time>2021-03-13T10:44:32Z</time>
      </trkpt>
      <trkpt lat="42.85698" lon="0.91194">
        <ele>1604.436</ele>
        <time>2021-03-13T10:44:34Z</time>
      </trkpt>
      <trkpt lat="42.85699" lon="0.91196">
        <ele>1604.705</ele>
        <time>2021-03-13T10:44:36Z</time>
      </trkpt>
      <trkpt lat="42.857" lon="0.91197">
        <ele>1605.037</ele>
        <time>2021-03-13T10:44:38Z</time>
      </trkpt>
      <trkpt lat="42.85701" lon="0.91197">
        <ele>1604.57</ele>
        <time>2021-03-13T10:44:40Z</time>
      </trkpt>
      <trkpt lat="42.85702" lon="0.91198">
        <ele>1605.723</ele>
        <time>2021-03-13T10:44:42Z</time>
      </trkpt>
      <trkpt lat="42.85703" lon="0.91199">
        <ele>1605.958</ele>
        <time>2021-03-13T10:44:44Z</time>
      </trkpt>
      <trkpt lat="42.85704" lon="0.912">
        <ele>1606.034</ele>
        <time>2021-03-13T10:44:46Z</time>
      </trkpt>
      <trkpt lat="42.85704" lon="0.91202">
        <ele>1606.418</ele>
        <time>2021-03-13T10:44:48Z</time>
      </trkpt>
      <trkpt lat="42.85705" lon="0.91203">
        <ele>1607.45</ele>
        <time>2021-03-13T10:44:50Z</time>
      </trkpt>
      <trkpt lat="42.85705" lon="0.91204">
        <ele>1607.375</ele>
        <time>2021-03-13T10:44:52Z</time>
      </trkpt>
      <trkpt lat="42.85707" lon="0.91204">
        <ele>1607.246</ele>
        <time>2021-03-13T10:44:54Z</time>
      </trkpt>
      <trkpt lat="42.85707" lon="0.91205">
        <ele>1607.909</ele>
        <time>2021-03-13T10:44:56Z</time>
      </trkpt>
      <trkpt lat="42.85708" lon="0.91206">
        <ele>1608.161</ele>
        <time>2021-03-13T10:44:58Z</time>
      </trkpt>
      <trkpt lat="42.85709" lon="0.91207">
        <ele>1608.034</ele>
        <time>2021-03-13T10:45:00Z</time>
      </trkpt>
      <trkpt lat="42.8571" lon="0.91209">
        <ele>1608.176</ele>
        <time>2021-03-13T10:45:02Z</time>
      </trkpt>
      <trkpt lat="42.8571" lon="0.9121">
        <ele>1608.556</ele>
        <time>2021-03-13T10:45:04Z</time>
      </trkpt>
      <trkpt lat="42.85711" lon="0.91211">
        <ele>1608.839</ele>
        <time>2021-03-13T10:45:06Z</time>
      </trkpt>
      <trkpt lat="42.85711" lon="0.91212">
        <ele>1609.744</ele>
        <time>2021-03-13T10:45:08Z</time>
      </trkpt>
      <trkpt lat="42.85712" lon="0.91213">
        <ele>1610.269</ele>
        <time>2021-03-13T10:45:10Z</time>
      </trkpt>
      <trkpt lat="42.85712" lon="0.91214">
        <ele>1610.994</ele>
        <time>2021-03-13T10:45:12Z</time>
      </trkpt>
      <trkpt lat="42.85713" lon="0.91216">
        <ele>1611.098</ele>
        <time>2021-03-13T10:45:14Z</time>
      </trkpt>
      <trkpt lat="42.85713" lon="0.91217">
        <ele>1611.397</ele>
        <time>2021-03-13T10:45:16Z</time>
      </trkpt>
      <trkpt lat="42.85714" lon="0.91217">
        <ele>1611.694</ele>
        <time>2021-03-13T10:45:18Z</time>
      </trkpt>
      <trkpt lat="42.85714" lon="0.91219">
        <ele>1612.606</ele>
        <time>2021-03-13T10:45:20Z</time>
      </trkpt>
      <trkpt lat="42.85715" lon="0.91221">
        <ele>1613.217</ele>
        <time>2021-03-13T10:45:22Z</time>
      </trkpt>
      <trkpt lat="42.85715" lon="0.91222">
        <ele>1613.278</ele>
        <time>2021-03-13T10:45:24Z</time>
      </trkpt>
      <trkpt lat="42.85716" lon="0.91223">
        <ele>1613.724</ele>
        <time>2021-03-13T10:45:26Z</time>
      </trkpt>
      <trkpt lat="42.85717" lon="0.91224">
        <ele>1613.728</ele>
        <time>2021-03-13T10:45:28Z</time>
      </trkpt>
      <trkpt lat="42.85718" lon="0.91225">
        <ele>1613.75</ele>
        <time>2021-03-13T10:45:30Z</time>
      </trkpt>
      <trkpt lat="42.85718" lon="0.91226">
        <ele>1614.312</ele>
        <time>2021-03-13T10:45:32Z</time>
      </trkpt>
      <trkpt lat="42.85719" lon="0.91227">
        <ele>1614.73</ele>
        <time>2021-03-13T10:45:34Z</time>
      </trkpt>
      <trkpt lat="42.85719" lon="0.91227">
        <ele>1614.837</ele>
        <time>2021-03-13T10:45:36Z</time>
      </trkpt>
      <trkpt lat="42.8572" lon="0.91228">
        <ele>1615.2</ele>
        <time>2021-03-13T10:45:38Z</time>
      </trkpt>
      <trkpt lat="42.8572" lon="0.91229">
        <ele>1615.644</ele>
        <time>2021-03-13T10:45:40Z</time>
      </trkpt>
      <trkpt lat="42.85721" lon="0.91229">
        <ele>1615.524</ele>
        <time>2021-03-13T10:45:42Z</time>
      </trkpt>
      <trkpt lat="42.85722" lon="0.91231">
        <ele>1615.925</ele>
        <time>2021-03-13T10:45:44Z</time>
      </trkpt>
      <trkpt lat="42.85722" lon="0.91231">
        <ele>1616.209</ele>
        <time>2021-03-13T10:45:46Z</time>
      </trkpt>
      <trkpt lat="42.85723" lon="0.91232">
        <ele>1616.639</ele>
        <time>2021-03-13T10:45:48Z</time>
      </trkpt>
      <trkpt lat="42.85723" lon="0.91233">
        <ele>1616.856</ele>
        <time>2021-03-13T10:45:50Z</time>
      </trkpt>
      <trkpt lat="42.85724" lon="0.91233">
        <ele>1617.597</ele>
        <time>2021-03-13T10:45:52Z</time>
      </trkpt>
      <trkpt lat="42.85724" lon="0.91234">
        <ele>1618.203</ele>
        <time>2021-03-13T10:45:54Z</time>
      </trkpt>
      <trkpt lat="42.85725" lon="0.91235">
        <ele>1618.643</ele>
        <time>2021-03-13T10:45:56Z</time>
      </trkpt>
      <trkpt lat="42.85725" lon="0.91235">
        <ele>1619.277</ele>
        <time>2021-03-13T10:45:58Z</time>
      </trkpt>
      <trkpt lat="42.85726" lon="0.91236">
        <ele>1619.396</ele>
        <time>2021-03-13T10:46:00Z</time>
      </trkpt>
      <trkpt lat="42.85726" lon="0.91237">
        <ele>1620.105</ele>
        <time>2021-03-13T10:46:02Z</time>
      </trkpt>
      <trkpt lat="42.85727" lon="0.91238">
        <ele>1620.42</ele>
        <time>2021-03-13T10:46:04Z</time>
      </trkpt>
      <trkpt lat="42.85727" lon="0.91239">
        <ele>1621.533</ele>
        <time>2021-03-13T10:46:06Z</time>
      </trkpt>
      <trkpt lat="42.85728" lon="0.9124">
        <ele>1621.778</ele>
        <time>2021-03-13T10:46:08Z</time>
      </trkpt>
      <trkpt lat="42.85729" lon="0.9124">
        <ele>1622.328</ele>
        <time>2021-03-13T10:46:10Z</time>
      </trkpt>
      <trkpt lat="42.85729" lon="0.91241">
        <ele>1622.834</ele>
        <time>2021-03-13T10:46:12Z</time>
      </trkpt>
      <trkpt lat="42.8573" lon="0.91241">
        <ele>1622.445</ele>
        <time>2021-03-13T10:46:14Z</time>
      </trkpt>
      <trkpt lat="42.85731" lon="0.91242">
        <ele>1623.291</ele>
        <time>2021-03-13T10:46:16Z</time>
      </trkpt>
      <trkpt lat="42.85731" lon="0.91243">
        <ele>1623.746</ele>
        <time>2021-03-13T10:46:18Z</time>
      </trkpt>
      <trkpt lat="42.85732" lon="0.91244">
        <ele>1624.41</ele>
        <time>2021-03-13T10:46:20Z</time>
      </trkpt>
      <trkpt lat="42.85733" lon="0.91245">
        <ele>1624.859</ele>
        <time>2021-03-13T10:46:22Z</time>
      </trkpt>
      <trkpt lat="42.85733" lon="0.91246">
        <ele>1625.28</ele>
        <time>2021-03-13T10:46:24Z</time>
      </trkpt>
      <trkpt lat="42.85734" lon="0.91247">
        <ele>1625.262</ele>
        <time>2021-03-13T10:46:26Z</time>
      </trkpt>
      <trkpt lat="42.85734" lon="0.91249">
        <ele>1625.398</ele>
        <time>2021-03-13T10:46:28Z</time>
      </trkpt>
      <trkpt lat="42.85735" lon="0.9125">
        <ele>1625.133</ele>
        <time>2021-03-13T10:46:30Z</time>
      </trkpt>
      <trkpt lat="42.85735" lon="0.91251">
        <ele>1626.068</ele>
        <time>2021-03-13T10:46:32Z</time>
      </trkpt>
      <trkpt lat="42.85735" lon="0.91253">
        <ele>1626.601</ele>
        <time>2021-03-13T10:46:34Z</time>
      </trkpt>
      <trkpt lat="42.85736" lon="0.91254">
        <ele>1626.877</ele>
        <time>2021-03-13T10:46:36Z</time>
      </trkpt>
      <trkpt lat="42.85736" lon="0.91256">
        <ele>1627.513</ele>
        <time>2021-03-13T10:46:38Z</time>
      </trkpt>
      <trkpt lat="42.85737" lon="0.91257">
        <ele>1627.757</ele>
        <time>2021-03-13T10:46:40Z</time>
      </trkpt>
      <trkpt lat="42.85738" lon="0.91258">
        <ele>1628.201</ele>
        <time>2021-03-13T10:46:42Z</time>
      </trkpt>
      <trkpt lat="42.85738" lon="0.91259">
        <ele>1628.865</ele>
        <time>2021-03-13T10:46:44Z</time>
      </trkpt>
      <trkpt lat="42.85739" lon="0.9126">
        <ele>1629.961</ele>
        <time>2021-03-13T10:46:46Z</time>
      </trkpt>
      <trkpt lat="42.85739" lon="0.91261">
        <ele>1630.257</ele>
        <time>2021-03-13T10:46:48Z</time>
      </trkpt>
      <trkpt lat="42.8574" lon="0.91261">
        <ele>1631.118</ele>
        <time>2021-03-13T10:46:50Z</time>
      </trkpt>
      <trkpt lat="42.85741" lon="0.91262">
        <ele>1631.749</ele>
        <time>2021-03-13T10:46:52Z</time>
      </trkpt>
      <trkpt lat="42.85741" lon="0.91263">
        <ele>1631.885</ele>
        <time>2021-03-13T10:46:54Z</time>
      </trkpt>
      <trkpt lat="42.85742" lon="0.91262">
        <ele>1631.755</ele>
        <time>2021-03-13T10:46:56Z</time>
      </trkpt>
      <trkpt lat="42.85743" lon="0.91263">
        <ele>1631.689</ele>
        <time>2021-03-13T10:46:58Z</time>
      </trkpt>
      <trkpt lat="42.85744" lon="0.91264">
        <ele>1632.074</ele>
        <time>2021-03-13T10:47:00Z</time>
      </trkpt>
      <trkpt lat="42.85744" lon="0.91265">
        <ele>1632.637</ele>
        <time>2021-03-13T10:47:02Z</time>
      </trkpt>
      <trkpt lat="42.85745" lon="0.91266">
        <ele>1633.434</ele>
        <time>2021-03-13T10:47:04Z</time>
      </trkpt>
      <trkpt lat="42.85745" lon="0.91267">
        <ele>1633.759</ele>
        <time>2021-03-13T10:47:06Z</time>
      </trkpt>
      <trkpt lat="42.85746" lon="0.91268">
        <ele>1634.564</ele>
        <time>2021-03-13T10:47:08Z</time>
      </trkpt>
      <trkpt lat="42.85746" lon="0.91269">
        <ele>1635.134</ele>
        <time>2021-03-13T10:47:10Z</time>
      </trkpt>
      <trkpt lat="42.85746" lon="0.91269">
        <ele>1635.698</ele>
        <time>2021-03-13T10:47:12Z</time>
      </trkpt>
      <trkpt lat="42.85747" lon="0.9127">
        <ele>1636.359</ele>
        <time>2021-03-13T10:47:14Z</time>
      </trkpt>
      <trkpt lat="42.85747" lon="0.91271">
        <ele>1637.177</ele>
        <time>2021-03-13T10:47:16Z</time>
      </trkpt>
      <trkpt lat="42.85748" lon="0.91271">
        <ele>1637.406</ele>
        <time>2021-03-13T10:47:18Z</time>
      </trkpt>
      <trkpt lat="42.85748" lon="0.91272">
        <ele>1638.325</ele>
        <time>2021-03-13T10:47:20Z</time>
      </trkpt>
      <trkpt lat="42.85749" lon="0.91272">
        <ele>1638.468</ele>
        <time>2021-03-13T10:47:22Z</time>
      </trkpt>
      <trkpt lat="42.8575" lon="0.91273">
        <ele>1639.118</ele>
        <time>2021-03-13T10:47:24Z</time>
      </trkpt>
      <trkpt lat="42.8575" lon="0.91273">
        <ele>1638.641</ele>
        <time>2021-03-13T10:47:26Z</time>
      </trkpt>
      <trkpt lat="42.85751" lon="0.91273">
        <ele>1638.763</ele>
        <time>2021-03-13T10:47:28Z</time>
      </trkpt>
      <trkpt lat="42.85751" lon="0.91274">
        <ele>1639.095</ele>
        <time>2021-03-13T10:47:30Z</time>
      </trkpt>
      <trkpt lat="42.85752" lon="0.91275">
        <ele>1638.844</ele>
        <time>2021-03-13T10:47:32Z</time>
      </trkpt>
      <trkpt lat="42.85752" lon="0.91276">
        <ele>1639.001</ele>
        <time>2021-03-13T10:47:34Z</time>
      </trkpt>
      <trkpt lat="42.85752" lon="0.91276">
        <ele>1638.868</ele>
        <time>2021-03-13T10:47:36Z</time>
      </trkpt>
      <trkpt lat="42.85753" lon="0.91277">
        <ele>1638.652</ele>
        <time>2021-03-13T10:47:38Z</time>
      </trkpt>
      <trkpt lat="42.85753" lon="0.91278">
        <ele>1638.378</ele>
        <time>2021-03-13T10:47:40Z</time>
      </trkpt>
      <trkpt lat="42.85754" lon="0.91279">
        <ele>1638.445</ele>
        <time>2021-03-13T10:47:42Z</time>
      </trkpt>
      <trkpt lat="42.85754" lon="0.91279">
        <ele>1638.666</ele>
        <time>2021-03-13T10:47:44Z</time>
      </trkpt>
      <trkpt lat="42.85755" lon="0.91279">
        <ele>1638.887</ele>
        <time>2021-03-13T10:47:46Z</time>
      </trkpt>
      <trkpt lat="42.85756" lon="0.9128">
        <ele>1638.802</ele>
        <time>2021-03-13T10:47:48Z</time>
      </trkpt>
      <trkpt lat="42.85756" lon="0.91281">
        <ele>1639.037</ele>
        <time>2021-03-13T10:47:50Z</time>
      </trkpt>
      <trkpt lat="42.85757" lon="0.91282">
        <ele>1639.762</ele>
        <time>2021-03-13T10:47:52Z</time>
      </trkpt>
      <trkpt lat="42.85758" lon="0.91282">
        <ele>1640.643</ele>
        <time>2021-03-13T10:47:54Z</time>
      </trkpt>
      <trkpt lat="42.85759" lon="0.91282">
        <ele>1641.366</ele>
        <time>2021-03-13T10:47:56Z</time>
      </trkpt>
      <trkpt lat="42.8576" lon="0.91283">
        <ele>1641.951</ele>
        <time>2021-03-13T10:47:58Z</time>
      </trkpt>
      <trkpt lat="42.85761" lon="0.91282">
        <ele>1641.468</ele>
        <time>2021-03-13T10:48:00Z</time>
      </trkpt>
      <trkpt lat="42.85761" lon="0.91283">
        <ele>1642.413</ele>
        <time>2021-03-13T10:48:02Z</time>
      </trkpt>
      <trkpt lat="42.85762" lon="0.91283">
        <ele>1643.038</ele>
        <time>2021-03-13T10:48:04Z</time>
      </trkpt>
      <trkpt lat="42.85762" lon="0.91283">
        <ele>1643.27</ele>
        <time>2021-03-13T10:48:06Z</time>
      </trkpt>
      <trkpt lat="42.85763" lon="0.91284">
        <ele>1642.929</ele>
        <time>2021-03-13T10:48:08Z</time>
      </trkpt>
      <trkpt lat="42.85763" lon="0.91284">
        <ele>1643.012</ele>
        <time>2021-03-13T10:48:10Z</time>
      </trkpt>
      <trkpt lat="42.85764" lon="0.91284">
        <ele>1643.544</ele>
        <time>2021-03-13T10:48:12Z</time>
      </trkpt>
      <trkpt lat="42.85764" lon="0.91284">
        <ele>1643.69</ele>
        <time>2021-03-13T10:48:14Z</time>
      </trkpt>
      <trkpt lat="42.85764" lon="0.91284">
        <ele>1643.693</ele>
        <time>2021-03-13T10:48:16Z</time>
      </trkpt>
      <trkpt lat="42.85764" lon="0.91284">
        <ele>1643.698</ele>
        <time>2021-03-13T10:48:18Z</time>
      </trkpt>
      <trkpt lat="42.85764" lon="0.91284">
        <ele>1643.703</ele>
        <time>2021-03-13T10:48:20Z</time>
      </trkpt>
      <trkpt lat="42.85764" lon="0.91284">
        <ele>1644.035</ele>
        <time>2021-03-13T10:48:22Z</time>
      </trkpt>
      <trkpt lat="42.85765" lon="0.91285">
        <ele>1644.004</ele>
        <time>2021-03-13T10:48:24Z</time>
      </trkpt>
      <trkpt lat="42.85766" lon="0.91283">
        <ele>1643.125</ele>
        <time>2021-03-13T10:48:26Z</time>
      </trkpt>
      <trkpt lat="42.85767" lon="0.91282">
        <ele>1643.633</ele>
        <time>2021-03-13T10:48:28Z</time>
      </trkpt>
      <trkpt lat="42.85767" lon="0.91281">
        <ele>1644.802</ele>
        <time>2021-03-13T10:48:30Z</time>
      </trkpt>
      <trkpt lat="42.85768" lon="0.91279">
        <ele>1645.56</ele>
        <time>2021-03-13T10:48:32Z</time>
      </trkpt>
      <trkpt lat="42.85769" lon="0.91278">
        <ele>1645.656</ele>
        <time>2021-03-13T10:48:34Z</time>
      </trkpt>
      <trkpt lat="42.85768" lon="0.91277">
        <ele>1645.929</ele>
        <time>2021-03-13T10:48:36Z</time>
      </trkpt>
      <trkpt lat="42.85768" lon="0.91275">
        <ele>1645.991</ele>
        <time>2021-03-13T10:48:38Z</time>
      </trkpt>
      <trkpt lat="42.85768" lon="0.91275">
        <ele>1647.462</ele>
        <time>2021-03-13T10:48:40Z</time>
      </trkpt>
      <trkpt lat="42.85767" lon="0.91274">
        <ele>1647.716</ele>
        <time>2021-03-13T10:48:42Z</time>
      </trkpt>
      <trkpt lat="42.85767" lon="0.91273">
        <ele>1647.652</ele>
        <time>2021-03-13T10:48:44Z</time>
      </trkpt>
      <trkpt lat="42.85767" lon="0.91272">
        <ele>1647.364</ele>
        <time>2021-03-13T10:48:46Z</time>
      </trkpt>
      <trkpt lat="42.85767" lon="0.91271">
        <ele>1647.35</ele>
        <time>2021-03-13T10:48:48Z</time>
      </trkpt>
      <trkpt lat="42.85767" lon="0.91269">
        <ele>1647.489</ele>
        <time>2021-03-13T10:48:50Z</time>
      </trkpt>
      <trkpt lat="42.85767" lon="0.91267">
        <ele>1647.916</ele>
        <time>2021-03-13T10:48:52Z</time>
      </trkpt>
      <trkpt lat="42.85767" lon="0.91266">
        <ele>1647.941</ele>
        <time>2021-03-13T10:48:54Z</time>
      </trkpt>
      <trkpt lat="42.85767" lon="0.91265">
        <ele>1648.707</ele>
        <time>2021-03-13T10:48:56Z</time>
      </trkpt>
      <trkpt lat="42.85767" lon="0.91266">
        <ele>1648.609</ele>
        <time>2021-03-13T10:48:58Z</time>
      </trkpt>
      <trkpt lat="42.85768" lon="0.91265">
        <ele>1648.999</ele>
        <time>2021-03-13T10:49:00Z</time>
      </trkpt>
      <trkpt lat="42.85768" lon="0.91263">
        <ele>1649.213</ele>
        <time>2021-03-13T10:49:02Z</time>
      </trkpt>
      <trkpt lat="42.85768" lon="0.91262">
        <ele>1649.507</ele>
        <time>2021-03-13T10:49:04Z</time>
      </trkpt>
      <trkpt lat="42.85768" lon="0.9126">
        <ele>1649.183</ele>
        <time>2021-03-13T10:49:06Z</time>
      </trkpt>
      <trkpt lat="42.85768" lon="0.91259">
        <ele>1649.931</ele>
        <time>2021-03-13T10:49:08Z</time>
      </trkpt>
      <trkpt lat="42.85767" lon="0.91258">
        <ele>1649.648</ele>
        <time>2021-03-13T10:49:10Z</time>
      </trkpt>
      <trkpt lat="42.85767" lon="0.91257">
        <ele>1650.5</ele>
        <time>2021-03-13T10:49:12Z</time>
      </trkpt>
      <trkpt lat="42.85767" lon="0.91255">
        <ele>1651.237</ele>
        <time>2021-03-13T10:49:14Z</time>
      </trkpt>
      <trkpt lat="42.85768" lon="0.91253">
        <ele>1651.718</ele>
        <time>2021-03-13T10:49:16Z</time>
      </trkpt>
      <trkpt lat="42.85768" lon="0.91252">
        <ele>1653.004</ele>
        <time>2021-03-13T10:49:18Z</time>
      </trkpt>
      <trkpt lat="42.85768" lon="0.91251">
        <ele>1652.769</ele>
        <time>2021-03-13T10:49:20Z</time>
      </trkpt>
      <trkpt lat="42.85768" lon="0.91249">
        <ele>1652.499</ele>
        <time>2021-03-13T10:49:22Z</time>
      </trkpt>
      <trkpt lat="42.85768" lon="0.91248">
        <ele>1653.185</ele>
        <time>2021-03-13T10:49:24Z</time>
      </trkpt>
      <trkpt lat="42.85768" lon="0.91248">
        <ele>1654.261</ele>
        <time>2021-03-13T10:49:26Z</time>
      </trkpt>
      <trkpt lat="42.85768" lon="0.91247">
        <ele>1654.588</ele>
        <time>2021-03-13T10:49:28Z</time>
      </trkpt>
      <trkpt lat="42.85768" lon="0.91246">
        <ele>1654.87</ele>
        <time>2021-03-13T10:49:30Z</time>
      </trkpt>
      <trkpt lat="42.85769" lon="0.91245">
        <ele>1655.18</ele>
        <time>2021-03-13T10:49:32Z</time>
      </trkpt>
      <trkpt lat="42.85769" lon="0.91244">
        <ele>1655.207</ele>
        <time>2021-03-13T10:49:34Z</time>
      </trkpt>
      <trkpt lat="42.85769" lon="0.91243">
        <ele>1656.066</ele>
        <time>2021-03-13T10:49:36Z</time>
      </trkpt>
      <trkpt lat="42.85769" lon="0.91241">
        <ele>1656.583</ele>
        <time>2021-03-13T10:49:38Z</time>
      </trkpt>
      <trkpt lat="42.85769" lon="0.9124">
        <ele>1657.196</ele>
        <time>2021-03-13T10:49:40Z</time>
      </trkpt>
      <trkpt lat="42.85769" lon="0.91238">
        <ele>1657.435</ele>
        <time>2021-03-13T10:49:42Z</time>
      </trkpt>
      <trkpt lat="42.8577" lon="0.91236">
        <ele>1658</ele>
        <time>2021-03-13T10:49:44Z</time>
      </trkpt>
      <trkpt lat="42.8577" lon="0.91235">
        <ele>1658.943</ele>
        <time>2021-03-13T10:49:46Z</time>
      </trkpt>
      <trkpt lat="42.8577" lon="0.91234">
        <ele>1658.818</ele>
        <time>2021-03-13T10:49:48Z</time>
      </trkpt>
      <trkpt lat="42.8577" lon="0.91232">
        <ele>1658.748</ele>
        <time>2021-03-13T10:49:50Z</time>
      </trkpt>
      <trkpt lat="42.85771" lon="0.91232">
        <ele>1658.725</ele>
        <time>2021-03-13T10:49:52Z</time>
      </trkpt>
      <trkpt lat="42.85772" lon="0.91233">
        <ele>1659.272</ele>
        <time>2021-03-13T10:49:54Z</time>
      </trkpt>
      <trkpt lat="42.85773" lon="0.91234">
        <ele>1659.259</ele>
        <time>2021-03-13T10:49:56Z</time>
      </trkpt>
      <trkpt lat="42.85774" lon="0.91235">
        <ele>1659.49</ele>
        <time>2021-03-13T10:49:58Z</time>
      </trkpt>
      <trkpt lat="42.85775" lon="0.91236">
        <ele>1660.154</ele>
        <time>2021-03-13T10:50:00Z</time>
      </trkpt>
      <trkpt lat="42.85775" lon="0.91237">
        <ele>1660.246</ele>
        <time>2021-03-13T10:50:02Z</time>
      </trkpt>
      <trkpt lat="42.85776" lon="0.91237">
        <ele>1659.923</ele>
        <time>2021-03-13T10:50:04Z</time>
      </trkpt>
      <trkpt lat="42.85777" lon="0.91238">
        <ele>1660.179</ele>
        <time>2021-03-13T10:50:06Z</time>
      </trkpt>
      <trkpt lat="42.85778" lon="0.91239">
        <ele>1660.732</ele>
        <time>2021-03-13T10:50:08Z</time>
      </trkpt>
      <trkpt lat="42.85778" lon="0.9124">
        <ele>1660.942</ele>
        <time>2021-03-13T10:50:10Z</time>
      </trkpt>
      <trkpt lat="42.85779" lon="0.91241">
        <ele>1661.225</ele>
        <time>2021-03-13T10:50:12Z</time>
      </trkpt>
      <trkpt lat="42.85779" lon="0.91242">
        <ele>1661.512</ele>
        <time>2021-03-13T10:50:14Z</time>
      </trkpt>
      <trkpt lat="42.8578" lon="0.91243">
        <ele>1661.579</ele>
        <time>2021-03-13T10:50:16Z</time>
      </trkpt>
      <trkpt lat="42.85781" lon="0.91244">
        <ele>1661.714</ele>
        <time>2021-03-13T10:50:18Z</time>
      </trkpt>
      <trkpt lat="42.85781" lon="0.91245">
        <ele>1662.185</ele>
        <time>2021-03-13T10:50:20Z</time>
      </trkpt>
      <trkpt lat="42.85782" lon="0.91245">
        <ele>1662.389</ele>
        <time>2021-03-13T10:50:22Z</time>
      </trkpt>
      <trkpt lat="42.85783" lon="0.91246">
        <ele>1662.772</ele>
        <time>2021-03-13T10:50:24Z</time>
      </trkpt>
      <trkpt lat="42.85784" lon="0.91247">
        <ele>1663.428</ele>
        <time>2021-03-13T10:50:26Z</time>
      </trkpt>
      <trkpt lat="42.85784" lon="0.91247">
        <ele>1663.255</ele>
        <time>2021-03-13T10:50:28Z</time>
      </trkpt>
      <trkpt lat="42.85785" lon="0.91247">
        <ele>1663.402</ele>
        <time>2021-03-13T10:50:30Z</time>
      </trkpt>
      <trkpt lat="42.85786" lon="0.91248">
        <ele>1664.175</ele>
        <time>2021-03-13T10:50:32Z</time>
      </trkpt>
      <trkpt lat="42.85787" lon="0.91249">
        <ele>1665.063</ele>
        <time>2021-03-13T10:50:34Z</time>
      </trkpt>
      <trkpt lat="42.85787" lon="0.9125">
        <ele>1665.191</ele>
        <time>2021-03-13T10:50:36Z</time>
      </trkpt>
      <trkpt lat="42.85788" lon="0.91251">
        <ele>1665.74</ele>
        <time>2021-03-13T10:50:38Z</time>
      </trkpt>
      <trkpt lat="42.85789" lon="0.91252">
        <ele>1666.169</ele>
        <time>2021-03-13T10:50:40Z</time>
      </trkpt>
      <trkpt lat="42.8579" lon="0.91253">
        <ele>1666.727</ele>
        <time>2021-03-13T10:50:42Z</time>
      </trkpt>
      <trkpt lat="42.8579" lon="0.91253">
        <ele>1667.189</ele>
        <time>2021-03-13T10:50:44Z</time>
      </trkpt>
      <trkpt lat="42.85791" lon="0.91254">
        <ele>1667.938</ele>
        <time>2021-03-13T10:50:46Z</time>
      </trkpt>
      <trkpt lat="42.85792" lon="0.91255">
        <ele>1668.306</ele>
        <time>2021-03-13T10:50:48Z</time>
      </trkpt>
      <trkpt lat="42.85792" lon="0.91256">
        <ele>1669.078</ele>
        <time>2021-03-13T10:50:50Z</time>
      </trkpt>
      <trkpt lat="42.85793" lon="0.91257">
        <ele>1669.26</ele>
        <time>2021-03-13T10:50:52Z</time>
      </trkpt>
      <trkpt lat="42.85794" lon="0.91258">
        <ele>1669.8</ele>
        <time>2021-03-13T10:50:54Z</time>
      </trkpt>
      <trkpt lat="42.85795" lon="0.91259">
        <ele>1669.738</ele>
        <time>2021-03-13T10:50:56Z</time>
      </trkpt>
      <trkpt lat="42.85795" lon="0.9126">
        <ele>1670.46</ele>
        <time>2021-03-13T10:50:58Z</time>
      </trkpt>
      <trkpt lat="42.85796" lon="0.91261">
        <ele>1670.675</ele>
        <time>2021-03-13T10:51:00Z</time>
      </trkpt>
      <trkpt lat="42.85797" lon="0.91261">
        <ele>1670.983</ele>
        <time>2021-03-13T10:51:02Z</time>
      </trkpt>
      <trkpt lat="42.85798" lon="0.91261">
        <ele>1671.091</ele>
        <time>2021-03-13T10:51:04Z</time>
      </trkpt>
      <trkpt lat="42.85799" lon="0.91262">
        <ele>1671.766</ele>
        <time>2021-03-13T10:51:06Z</time>
      </trkpt>
      <trkpt lat="42.858" lon="0.91262">
        <ele>1672.125</ele>
        <time>2021-03-13T10:51:08Z</time>
      </trkpt>
      <trkpt lat="42.85801" lon="0.91263">
        <ele>1672.41</ele>
        <time>2021-03-13T10:51:10Z</time>
      </trkpt>
      <trkpt lat="42.85802" lon="0.91263">
        <ele>1672.696</ele>
        <time>2021-03-13T10:51:12Z</time>
      </trkpt>
      <trkpt lat="42.85803" lon="0.91263">
        <ele>1673.275</ele>
        <time>2021-03-13T10:51:14Z</time>
      </trkpt>
      <trkpt lat="42.85804" lon="0.91263">
        <ele>1674.098</ele>
        <time>2021-03-13T10:51:16Z</time>
      </trkpt>
      <trkpt lat="42.85805" lon="0.91264">
        <ele>1674.354</ele>
        <time>2021-03-13T10:51:18Z</time>
      </trkpt>
      <trkpt lat="42.85806" lon="0.91264">
        <ele>1674.611</ele>
        <time>2021-03-13T10:51:20Z</time>
      </trkpt>
      <trkpt lat="42.85807" lon="0.91264">
        <ele>1675.175</ele>
        <time>2021-03-13T10:51:22Z</time>
      </trkpt>
      <trkpt lat="42.85807" lon="0.91264">
        <ele>1675.427</ele>
        <time>2021-03-13T10:51:24Z</time>
      </trkpt>
      <trkpt lat="42.85808" lon="0.91264">
        <ele>1676.298</ele>
        <time>2021-03-13T10:51:26Z</time>
      </trkpt>
      <trkpt lat="42.85809" lon="0.91265">
        <ele>1676.767</ele>
        <time>2021-03-13T10:51:28Z</time>
      </trkpt>
      <trkpt lat="42.8581" lon="0.91266">
        <ele>1677.197</ele>
        <time>2021-03-13T10:51:30Z</time>
      </trkpt>
      <trkpt lat="42.85811" lon="0.91266">
        <ele>1677.65</ele>
        <time>2021-03-13T10:51:32Z</time>
      </trkpt>
      <trkpt lat="42.85812" lon="0.91266">
        <ele>1677.974</ele>
        <time>2021-03-13T10:51:34Z</time>
      </trkpt>
      <trkpt lat="42.85813" lon="0.91266">
        <ele>1678.481</ele>
        <time>2021-03-13T10:51:36Z</time>
      </trkpt>
      <trkpt lat="42.85814" lon="0.91266">
        <ele>1678.941</ele>
        <time>2021-03-13T10:51:38Z</time>
      </trkpt>
      <trkpt lat="42.85815" lon="0.91266">
        <ele>1679.433</ele>
        <time>2021-03-13T10:51:40Z</time>
      </trkpt>
      <trkpt lat="42.85816" lon="0.91266">
        <ele>1679.497</ele>
        <time>2021-03-13T10:51:42Z</time>
      </trkpt>
      <trkpt lat="42.85817" lon="0.91266">
        <ele>1679.769</ele>
        <time>2021-03-13T10:51:44Z</time>
      </trkpt>
      <trkpt lat="42.85818" lon="0.91266">
        <ele>1680.072</ele>
        <time>2021-03-13T10:51:46Z</time>
      </trkpt>
      <trkpt lat="42.85819" lon="0.91266">
        <ele>1680.07</ele>
        <time>2021-03-13T10:51:48Z</time>
      </trkpt>
      <trkpt lat="42.8582" lon="0.91266">
        <ele>1679.846</ele>
        <time>2021-03-13T10:51:50Z</time>
      </trkpt>
      <trkpt lat="42.8582" lon="0.91266">
        <ele>1679.867</ele>
        <time>2021-03-13T10:51:52Z</time>
      </trkpt>
      <trkpt lat="42.85821" lon="0.91264">
        <ele>1680.46</ele>
        <time>2021-03-13T10:51:54Z</time>
      </trkpt>
      <trkpt lat="42.85821" lon="0.91263">
        <ele>1680.689</ele>
        <time>2021-03-13T10:51:56Z</time>
      </trkpt>
      <trkpt lat="42.85821" lon="0.91262">
        <ele>1681.192</ele>
        <time>2021-03-13T10:51:58Z</time>
      </trkpt>
      <trkpt lat="42.85822" lon="0.9126">
        <ele>1681.617</ele>
        <time>2021-03-13T10:52:00Z</time>
      </trkpt>
      <trkpt lat="42.85822" lon="0.91259">
        <ele>1681.754</ele>
        <time>2021-03-13T10:52:02Z</time>
      </trkpt>
      <trkpt lat="42.85823" lon="0.91258">
        <ele>1681.926</ele>
        <time>2021-03-13T10:52:04Z</time>
      </trkpt>
      <trkpt lat="42.85823" lon="0.91257">
        <ele>1682.104</ele>
        <time>2021-03-13T10:52:06Z</time>
      </trkpt>
      <trkpt lat="42.85823" lon="0.91256">
        <ele>1682.518</ele>
        <time>2021-03-13T10:52:08Z</time>
      </trkpt>
      <trkpt lat="42.85823" lon="0.91255">
        <ele>1682.462</ele>
        <time>2021-03-13T10:52:10Z</time>
      </trkpt>
      <trkpt lat="42.85823" lon="0.91254">
        <ele>1683.043</ele>
        <time>2021-03-13T10:52:12Z</time>
      </trkpt>
      <trkpt lat="42.85823" lon="0.91254">
        <ele>1683.781</ele>
        <time>2021-03-13T10:52:14Z</time>
      </trkpt>
      <trkpt lat="42.85823" lon="0.91253">
        <ele>1683.671</ele>
        <time>2021-03-13T10:52:16Z</time>
      </trkpt>
      <trkpt lat="42.85823" lon="0.91252">
        <ele>1683.689</ele>
        <time>2021-03-13T10:52:18Z</time>
      </trkpt>
      <trkpt lat="42.85823" lon="0.9125">
        <ele>1683.561</ele>
        <time>2021-03-13T10:52:20Z</time>
      </trkpt>
      <trkpt lat="42.85823" lon="0.91249">
        <ele>1683.676</ele>
        <time>2021-03-13T10:52:22Z</time>
      </trkpt>
      <trkpt lat="42.85823" lon="0.91248">
        <ele>1684.156</ele>
        <time>2021-03-13T10:52:24Z</time>
      </trkpt>
      <trkpt lat="42.85824" lon="0.91247">
        <ele>1684.451</ele>
        <time>2021-03-13T10:52:26Z</time>
      </trkpt>
      <trkpt lat="42.85825" lon="0.91247">
        <ele>1684.937</ele>
        <time>2021-03-13T10:52:28Z</time>
      </trkpt>
      <trkpt lat="42.85826" lon="0.91246">
        <ele>1685.105</ele>
        <time>2021-03-13T10:52:30Z</time>
      </trkpt>
      <trkpt lat="42.85826" lon="0.91244">
        <ele>1686.447</ele>
        <time>2021-03-13T10:52:32Z</time>
      </trkpt>
      <trkpt lat="42.85826" lon="0.91243">
        <ele>1686.789</ele>
        <time>2021-03-13T10:52:34Z</time>
      </trkpt>
      <trkpt lat="42.85825" lon="0.91242">
        <ele>1686.692</ele>
        <time>2021-03-13T10:52:36Z</time>
      </trkpt>
      <trkpt lat="42.85825" lon="0.91241">
        <ele>1687.314</ele>
        <time>2021-03-13T10:52:38Z</time>
      </trkpt>
      <trkpt lat="42.85826" lon="0.9124">
        <ele>1688.639</ele>
        <time>2021-03-13T10:52:40Z</time>
      </trkpt>
      <trkpt lat="42.85826" lon="0.91239">
        <ele>1688.095</ele>
        <time>2021-03-13T10:52:42Z</time>
      </trkpt>
      <trkpt lat="42.85825" lon="0.91238">
        <ele>1688.635</ele>
        <time>2021-03-13T10:52:44Z</time>
      </trkpt>
      <trkpt lat="42.85824" lon="0.91238">
        <ele>1688.541</ele>
        <time>2021-03-13T10:52:46Z</time>
      </trkpt>
      <trkpt lat="42.85823" lon="0.91237">
        <ele>1689.352</ele>
        <time>2021-03-13T10:52:48Z</time>
      </trkpt>
      <trkpt lat="42.85823" lon="0.91236">
        <ele>1688.789</ele>
        <time>2021-03-13T10:52:50Z</time>
      </trkpt>
      <trkpt lat="42.85823" lon="0.91235">
        <ele>1688.867</ele>
        <time>2021-03-13T10:52:52Z</time>
      </trkpt>
      <trkpt lat="42.85823" lon="0.91234">
        <ele>1688.437</ele>
        <time>2021-03-13T10:52:54Z</time>
      </trkpt>
      <trkpt lat="42.85823" lon="0.91232">
        <ele>1688.979</ele>
        <time>2021-03-13T10:52:56Z</time>
      </trkpt>
      <trkpt lat="42.85824" lon="0.91231">
        <ele>1689.638</ele>
        <time>2021-03-13T10:52:58Z</time>
      </trkpt>
      <trkpt lat="42.85824" lon="0.91231">
        <ele>1690.417</ele>
        <time>2021-03-13T10:53:00Z</time>
      </trkpt>
      <trkpt lat="42.85824" lon="0.9123">
        <ele>1691.863</ele>
        <time>2021-03-13T10:53:02Z</time>
      </trkpt>
      <trkpt lat="42.85824" lon="0.91228">
        <ele>1692.274</ele>
        <time>2021-03-13T10:53:04Z</time>
      </trkpt>
      <trkpt lat="42.85824" lon="0.91227">
        <ele>1693.485</ele>
        <time>2021-03-13T10:53:06Z</time>
      </trkpt>
      <trkpt lat="42.85824" lon="0.91226">
        <ele>1693.399</ele>
        <time>2021-03-13T10:53:08Z</time>
      </trkpt>
      <trkpt lat="42.85824" lon="0.91225">
        <ele>1694.424</ele>
        <time>2021-03-13T10:53:10Z</time>
      </trkpt>
      <trkpt lat="42.85824" lon="0.91224">
        <ele>1695.016</ele>
        <time>2021-03-13T10:53:12Z</time>
      </trkpt>
      <trkpt lat="42.85824" lon="0.91223">
        <ele>1694.96</ele>
        <time>2021-03-13T10:53:14Z</time>
      </trkpt>
      <trkpt lat="42.85824" lon="0.91222">
        <ele>1694.769</ele>
        <time>2021-03-13T10:53:16Z</time>
      </trkpt>
      <trkpt lat="42.85824" lon="0.91221">
        <ele>1695.131</ele>
        <time>2021-03-13T10:53:18Z</time>
      </trkpt>
      <trkpt lat="42.85824" lon="0.91219">
        <ele>1695.081</ele>
        <time>2021-03-13T10:53:20Z</time>
      </trkpt>
      <trkpt lat="42.85824" lon="0.91218">
        <ele>1695.978</ele>
        <time>2021-03-13T10:53:22Z</time>
      </trkpt>
      <trkpt lat="42.85824" lon="0.91217">
        <ele>1696.005</ele>
        <time>2021-03-13T10:53:24Z</time>
      </trkpt>
      <trkpt lat="42.85824" lon="0.91216">
        <ele>1695.824</ele>
        <time>2021-03-13T10:53:26Z</time>
      </trkpt>
      <trkpt lat="42.85824" lon="0.91215">
        <ele>1696.127</ele>
        <time>2021-03-13T10:53:28Z</time>
      </trkpt>
      <trkpt lat="42.85824" lon="0.91215">
        <ele>1696.56</ele>
        <time>2021-03-13T10:53:30Z</time>
      </trkpt>
      <trkpt lat="42.85823" lon="0.91215">
        <ele>1695.881</ele>
        <time>2021-03-13T10:53:32Z</time>
      </trkpt>
      <trkpt lat="42.85822" lon="0.91215">
        <ele>1696.174</ele>
        <time>2021-03-13T10:53:34Z</time>
      </trkpt>
      <trkpt lat="42.85821" lon="0.91215">
        <ele>1695.913</ele>
        <time>2021-03-13T10:53:36Z</time>
      </trkpt>
      <trkpt lat="42.8582" lon="0.91214">
        <ele>1696.471</ele>
        <time>2021-03-13T10:53:38Z</time>
      </trkpt>
      <trkpt lat="42.85819" lon="0.91214">
        <ele>1696.47</ele>
        <time>2021-03-13T10:53:40Z</time>
      </trkpt>
      <trkpt lat="42.85819" lon="0.91214">
        <ele>1696.492</ele>
        <time>2021-03-13T10:53:42Z</time>
      </trkpt>
      <trkpt lat="42.85819" lon="0.91214">
        <ele>1696.505</ele>
        <time>2021-03-13T10:53:44Z</time>
      </trkpt>
      <trkpt lat="42.85819" lon="0.91214">
        <ele>1696.502</ele>
        <time>2021-03-13T10:53:46Z</time>
      </trkpt>
      <trkpt lat="42.85818" lon="0.91212">
        <ele>1696.094</ele>
        <time>2021-03-13T10:53:48Z</time>
      </trkpt>
      <trkpt lat="42.85818" lon="0.91212">
        <ele>1695.917</ele>
        <time>2021-03-13T10:53:50Z</time>
      </trkpt>
      <trkpt lat="42.85818" lon="0.91212">
        <ele>1695.801</ele>
        <time>2021-03-13T10:53:52Z</time>
      </trkpt>
      <trkpt lat="42.85818" lon="0.91212">
        <ele>1695.803</ele>
        <time>2021-03-13T10:53:54Z</time>
      </trkpt>
      <trkpt lat="42.85818" lon="0.91211">
        <ele>1696.021</ele>
        <time>2021-03-13T10:53:56Z</time>
      </trkpt>
      <trkpt lat="42.85818" lon="0.9121">
        <ele>1696.019</ele>
        <time>2021-03-13T10:53:58Z</time>
      </trkpt>
      <trkpt lat="42.85818" lon="0.9121">
        <ele>1696.017</ele>
        <time>2021-03-13T10:54:00Z</time>
      </trkpt>
      <trkpt lat="42.85818" lon="0.9121">
        <ele>1695.713</ele>
        <time>2021-03-13T10:54:02Z</time>
      </trkpt>
      <trkpt lat="42.85817" lon="0.9121">
        <ele>1696.178</ele>
        <time>2021-03-13T10:54:04Z</time>
      </trkpt>
      <trkpt lat="42.85817" lon="0.91209">
        <ele>1696.955</ele>
        <time>2021-03-13T10:54:06Z</time>
      </trkpt>
      <trkpt lat="42.85817" lon="0.91209">
        <ele>1697.407</ele>
        <time>2021-03-13T10:54:08Z</time>
      </trkpt>
      <trkpt lat="42.85817" lon="0.91209">
        <ele>1697.729</ele>
        <time>2021-03-13T10:54:10Z</time>
      </trkpt>
      <trkpt lat="42.85817" lon="0.91209">
        <ele>1697.305</ele>
        <time>2021-03-13T10:54:12Z</time>
      </trkpt>
      <trkpt lat="42.85817" lon="0.91209">
        <ele>1697.304</ele>
        <time>2021-03-13T10:54:14Z</time>
      </trkpt>
      <trkpt lat="42.85817" lon="0.91209">
        <ele>1697.293</ele>
        <time>2021-03-13T10:54:16Z</time>
      </trkpt>
      <trkpt lat="42.85817" lon="0.91209">
        <ele>1697.288</ele>
        <time>2021-03-13T10:54:18Z</time>
      </trkpt>
      <trkpt lat="42.85817" lon="0.91209">
        <ele>1697.284</ele>
        <time>2021-03-13T10:54:20Z</time>
      </trkpt>
      <trkpt lat="42.85817" lon="0.91209">
        <ele>1697.288</ele>
        <time>2021-03-13T10:54:22Z</time>
      </trkpt>
      <trkpt lat="42.85817" lon="0.91209">
        <ele>1696.7</ele>
        <time>2021-03-13T10:54:24Z</time>
      </trkpt>
      <trkpt lat="42.85817" lon="0.91209">
        <ele>1696.705</ele>
        <time>2021-03-13T10:54:26Z</time>
      </trkpt>
      <trkpt lat="42.85817" lon="0.91209">
        <ele>1696.679</ele>
        <time>2021-03-13T10:54:28Z</time>
      </trkpt>
      <trkpt lat="42.85817" lon="0.91209">
        <ele>1696.668</ele>
        <time>2021-03-13T10:54:30Z</time>
      </trkpt>
      <trkpt lat="42.85817" lon="0.91209">
        <ele>1696.66</ele>
        <time>2021-03-13T10:54:32Z</time>
      </trkpt>
      <trkpt lat="42.85817" lon="0.91209">
        <ele>1696.653</ele>
        <time>2021-03-13T10:54:34Z</time>
      </trkpt>
      <trkpt lat="42.85817" lon="0.91209">
        <ele>1696.649</ele>
        <time>2021-03-13T10:54:36Z</time>
      </trkpt>
      <trkpt lat="42.85816" lon="0.91209">
        <ele>1696.218</ele>
        <time>2021-03-13T10:54:38Z</time>
      </trkpt>
      <trkpt lat="42.85816" lon="0.91209">
        <ele>1696.219</ele>
        <time>2021-03-13T10:54:40Z</time>
      </trkpt>
      <trkpt lat="42.85816" lon="0.91209">
        <ele>1696.455</ele>
        <time>2021-03-13T10:54:42Z</time>
      </trkpt>
      <trkpt lat="42.85816" lon="0.91208">
        <ele>1696.469</ele>
        <time>2021-03-13T10:54:44Z</time>
      </trkpt>
      <trkpt lat="42.85816" lon="0.91208">
        <ele>1696.479</ele>
        <time>2021-03-13T10:54:46Z</time>
      </trkpt>
      <trkpt lat="42.85816" lon="0.91208">
        <ele>1696.484</ele>
        <time>2021-03-13T10:54:48Z</time>
      </trkpt>
      <trkpt lat="42.85816" lon="0.91208">
        <ele>1696.484</ele>
        <time>2021-03-13T10:54:50Z</time>
      </trkpt>
      <trkpt lat="42.85816" lon="0.91209">
        <ele>1696.823</ele>
        <time>2021-03-13T10:54:52Z</time>
      </trkpt>
      <trkpt lat="42.85816" lon="0.91209">
        <ele>1696.271</ele>
        <time>2021-03-13T10:54:54Z</time>
      </trkpt>
      <trkpt lat="42.85816" lon="0.91209">
        <ele>1697.031</ele>
        <time>2021-03-13T10:55:01Z</time>
      </trkpt>
      <trkpt lat="42.85816" lon="0.9121">
        <ele>1697.615</ele>
        <time>2021-03-13T10:55:03Z</time>
      </trkpt>
      <trkpt lat="42.85816" lon="0.91209">
        <ele>1697.622</ele>
        <time>2021-03-13T10:55:05Z</time>
      </trkpt>
      <trkpt lat="42.85816" lon="0.91209">
        <ele>1697.625</ele>
        <time>2021-03-13T10:55:07Z</time>
      </trkpt>
      <trkpt lat="42.85816" lon="0.91209">
        <ele>1697.631</ele>
        <time>2021-03-13T10:55:09Z</time>
      </trkpt>
      <trkpt lat="42.85816" lon="0.91209">
        <ele>1697.626</ele>
        <time>2021-03-13T10:55:11Z</time>
      </trkpt>
      <trkpt lat="42.85816" lon="0.91209">
        <ele>1697.629</ele>
        <time>2021-03-13T10:55:13Z</time>
      </trkpt>
      <trkpt lat="42.85816" lon="0.9121">
        <ele>1697.906</ele>
        <time>2021-03-13T10:55:15Z</time>
      </trkpt>
      <trkpt lat="42.85816" lon="0.9121">
        <ele>1697.902</ele>
        <time>2021-03-13T10:55:17Z</time>
      </trkpt>
      <trkpt lat="42.85816" lon="0.9121">
        <ele>1697.901</ele>
        <time>2021-03-13T10:55:19Z</time>
      </trkpt>
      <trkpt lat="42.85815" lon="0.9121">
        <ele>1697.873</ele>
        <time>2021-03-13T10:55:21Z</time>
      </trkpt>
      <trkpt lat="42.85815" lon="0.91209">
        <ele>1697.943</ele>
        <time>2021-03-13T10:55:23Z</time>
      </trkpt>
      <trkpt lat="42.85815" lon="0.91209">
        <ele>1697.835</ele>
        <time>2021-03-13T10:55:25Z</time>
      </trkpt>
      <trkpt lat="42.85815" lon="0.91209">
        <ele>1697.83</ele>
        <time>2021-03-13T10:55:27Z</time>
      </trkpt>
      <trkpt lat="42.85815" lon="0.91209">
        <ele>1697.696</ele>
        <time>2021-03-13T10:55:29Z</time>
      </trkpt>
      <trkpt lat="42.85816" lon="0.9121">
        <ele>1697.802</ele>
        <time>2021-03-13T10:55:31Z</time>
      </trkpt>
      <trkpt lat="42.85816" lon="0.9121">
        <ele>1697.9</ele>
        <time>2021-03-13T10:55:33Z</time>
      </trkpt>
      <trkpt lat="42.85816" lon="0.9121">
        <ele>1697.897</ele>
        <time>2021-03-13T10:55:35Z</time>
      </trkpt>
      <trkpt lat="42.85816" lon="0.9121">
        <ele>1697.896</ele>
        <time>2021-03-13T10:55:37Z</time>
      </trkpt>
      <trkpt lat="42.85816" lon="0.9121">
        <ele>1697.905</ele>
        <time>2021-03-13T10:55:39Z</time>
      </trkpt>
      <trkpt lat="42.85816" lon="0.9121">
        <ele>1697.968</ele>
        <time>2021-03-13T10:55:41Z</time>
      </trkpt>
      <trkpt lat="42.85816" lon="0.91211">
        <ele>1697.307</ele>
        <time>2021-03-13T10:55:43Z</time>
      </trkpt>
      <trkpt lat="42.85817" lon="0.91212">
        <ele>1697.315</ele>
        <time>2021-03-13T10:55:45Z</time>
      </trkpt>
      <trkpt lat="42.85816" lon="0.91213">
        <ele>1697.333</ele>
        <time>2021-03-13T10:55:47Z</time>
      </trkpt>
      <trkpt lat="42.85816" lon="0.91214">
        <ele>1698.208</ele>
        <time>2021-03-13T10:55:49Z</time>
      </trkpt>
      <trkpt lat="42.85816" lon="0.91214">
        <ele>1698.022</ele>
        <time>2021-03-13T10:55:51Z</time>
      </trkpt>
      <trkpt lat="42.85816" lon="0.91216">
        <ele>1699.176</ele>
        <time>2021-03-13T10:55:53Z</time>
      </trkpt>
      <trkpt lat="42.85816" lon="0.91216">
        <ele>1698.967</ele>
        <time>2021-03-13T10:55:55Z</time>
      </trkpt>
      <trkpt lat="42.85816" lon="0.91218">
        <ele>1700.177</ele>
        <time>2021-03-13T10:55:57Z</time>
      </trkpt>
      <trkpt lat="42.85817" lon="0.91218">
        <ele>1700.297</ele>
        <time>2021-03-13T10:55:59Z</time>
      </trkpt>
      <trkpt lat="42.85818" lon="0.91217">
        <ele>1699.222</ele>
        <time>2021-03-13T10:56:01Z</time>
      </trkpt>
      <trkpt lat="42.85817" lon="0.91219">
        <ele>1700.014</ele>
        <time>2021-03-13T10:56:03Z</time>
      </trkpt>
      <trkpt lat="42.85817" lon="0.9122">
        <ele>1700.705</ele>
        <time>2021-03-13T10:56:05Z</time>
      </trkpt>
      <trkpt lat="42.85817" lon="0.9122">
        <ele>1700.635</ele>
        <time>2021-03-13T10:56:07Z</time>
      </trkpt>
      <trkpt lat="42.85817" lon="0.91221">
        <ele>1700.576</ele>
        <time>2021-03-13T10:56:09Z</time>
      </trkpt>
      <trkpt lat="42.85817" lon="0.9122">
        <ele>1700.742</ele>
        <time>2021-03-13T10:56:11Z</time>
      </trkpt>
      <trkpt lat="42.85817" lon="0.9122">
        <ele>1700.704</ele>
        <time>2021-03-13T10:56:13Z</time>
      </trkpt>
      <trkpt lat="42.85818" lon="0.91221">
        <ele>1700.778</ele>
        <time>2021-03-13T10:56:15Z</time>
      </trkpt>
      <trkpt lat="42.85818" lon="0.91221">
        <ele>1700.772</ele>
        <time>2021-03-13T10:56:17Z</time>
      </trkpt>
      <trkpt lat="42.85818" lon="0.91221">
        <ele>1700.766</ele>
        <time>2021-03-13T10:56:19Z</time>
      </trkpt>
      <trkpt lat="42.85818" lon="0.91221">
        <ele>1700.767</ele>
        <time>2021-03-13T10:56:21Z</time>
      </trkpt>
      <trkpt lat="42.85818" lon="0.91221">
        <ele>1700.669</ele>
        <time>2021-03-13T10:56:23Z</time>
      </trkpt>
      <trkpt lat="42.85818" lon="0.91221">
        <ele>1699.747</ele>
        <time>2021-03-13T10:56:25Z</time>
      </trkpt>
      <trkpt lat="42.85817" lon="0.91223">
        <ele>1699.341</ele>
        <time>2021-03-13T10:56:27Z</time>
      </trkpt>
      <trkpt lat="42.85816" lon="0.91224">
        <ele>1700.374</ele>
        <time>2021-03-13T10:56:29Z</time>
      </trkpt>
      <trkpt lat="42.85816" lon="0.91223">
        <ele>1699.057</ele>
        <time>2021-03-13T10:56:31Z</time>
      </trkpt>
      <trkpt lat="42.85816" lon="0.91223">
        <ele>1699.067</ele>
        <time>2021-03-13T10:56:33Z</time>
      </trkpt>
      <trkpt lat="42.85816" lon="0.91223">
        <ele>1699.074</ele>
        <time>2021-03-13T10:56:35Z</time>
      </trkpt>
      <trkpt lat="42.85816" lon="0.91223">
        <ele>1699.077</ele>
        <time>2021-03-13T10:56:37Z</time>
      </trkpt>
      <trkpt lat="42.85816" lon="0.91223">
        <ele>1699.263</ele>
        <time>2021-03-13T10:56:39Z</time>
      </trkpt>
      <trkpt lat="42.85816" lon="0.91224">
        <ele>1699.276</ele>
        <time>2021-03-13T10:56:41Z</time>
      </trkpt>
      <trkpt lat="42.85817" lon="0.91224">
        <ele>1698.975</ele>
        <time>2021-03-13T10:56:43Z</time>
      </trkpt>
      <trkpt lat="42.85817" lon="0.91224">
        <ele>1699.22</ele>
        <time>2021-03-13T10:56:45Z</time>
      </trkpt>
      <trkpt lat="42.85818" lon="0.91225">
        <ele>1699.235</ele>
        <time>2021-03-13T10:56:47Z</time>
      </trkpt>
      <trkpt lat="42.85817" lon="0.91227">
        <ele>1699.712</ele>
        <time>2021-03-13T10:56:49Z</time>
      </trkpt>
      <trkpt lat="42.85817" lon="0.91227">
        <ele>1699.787</ele>
        <time>2021-03-13T10:56:51Z</time>
      </trkpt>
      <trkpt lat="42.85817" lon="0.91227">
        <ele>1699.788</ele>
        <time>2021-03-13T10:56:53Z</time>
      </trkpt>
      <trkpt lat="42.85817" lon="0.91227">
        <ele>1699.489</ele>
        <time>2021-03-13T10:56:55Z</time>
      </trkpt>
      <trkpt lat="42.85817" lon="0.91228">
        <ele>1697.594</ele>
        <time>2021-03-13T10:56:57Z</time>
      </trkpt>
      <trkpt lat="42.85817" lon="0.91228">
        <ele>1696.744</ele>
        <time>2021-03-13T10:56:59Z</time>
      </trkpt>
      <trkpt lat="42.85817" lon="0.91228">
        <ele>1696.384</ele>
        <time>2021-03-13T10:57:01Z</time>
      </trkpt>
      <trkpt lat="42.85817" lon="0.91229">
        <ele>1696.534</ele>
        <time>2021-03-13T10:57:03Z</time>
      </trkpt>
      <trkpt lat="42.85817" lon="0.9123">
        <ele>1696.466</ele>
        <time>2021-03-13T10:57:05Z</time>
      </trkpt>
      <trkpt lat="42.85818" lon="0.9123">
        <ele>1695.847</ele>
        <time>2021-03-13T10:57:07Z</time>
      </trkpt>
      <trkpt lat="42.85818" lon="0.9123">
        <ele>1696.008</ele>
        <time>2021-03-13T10:57:09Z</time>
      </trkpt>
      <trkpt lat="42.85818" lon="0.9123">
        <ele>1694.781</ele>
        <time>2021-03-13T10:57:11Z</time>
      </trkpt>
      <trkpt lat="42.85819" lon="0.9123">
        <ele>1694.763</ele>
        <time>2021-03-13T10:57:13Z</time>
      </trkpt>
      <trkpt lat="42.85819" lon="0.9123">
        <ele>1694.806</ele>
        <time>2021-03-13T10:57:15Z</time>
      </trkpt>
      <trkpt lat="42.85819" lon="0.91232">
        <ele>1695.869</ele>
        <time>2021-03-13T10:57:17Z</time>
      </trkpt>
      <trkpt lat="42.85819" lon="0.91232">
        <ele>1695.757</ele>
        <time>2021-03-13T10:57:19Z</time>
      </trkpt>
      <trkpt lat="42.85819" lon="0.91232">
        <ele>1695.751</ele>
        <time>2021-03-13T10:57:21Z</time>
      </trkpt>
      <trkpt lat="42.85819" lon="0.91233">
        <ele>1696.167</ele>
        <time>2021-03-13T10:57:23Z</time>
      </trkpt>
      <trkpt lat="42.85819" lon="0.91233">
        <ele>1696.13</ele>
        <time>2021-03-13T10:57:25Z</time>
      </trkpt>
      <trkpt lat="42.85818" lon="0.91232">
        <ele>1695.532</ele>
        <time>2021-03-13T10:57:27Z</time>
      </trkpt>
      <trkpt lat="42.85818" lon="0.91233">
        <ele>1696.558</ele>
        <time>2021-03-13T10:57:29Z</time>
      </trkpt>
      <trkpt lat="42.85818" lon="0.91235">
        <ele>1697.4</ele>
        <time>2021-03-13T10:57:31Z</time>
      </trkpt>
      <trkpt lat="42.85817" lon="0.91237">
        <ele>1697.488</ele>
        <time>2021-03-13T10:57:33Z</time>
      </trkpt>
      <trkpt lat="42.85818" lon="0.91235">
        <ele>1695.592</ele>
        <time>2021-03-13T10:57:35Z</time>
      </trkpt>
      <trkpt lat="42.85818" lon="0.91236">
        <ele>1695.541</ele>
        <time>2021-03-13T10:57:37Z</time>
      </trkpt>
      <trkpt lat="42.85818" lon="0.91238">
        <ele>1695.444</ele>
        <time>2021-03-13T10:57:39Z</time>
      </trkpt>
      <trkpt lat="42.85818" lon="0.91238">
        <ele>1695.215</ele>
        <time>2021-03-13T10:57:41Z</time>
      </trkpt>
      <trkpt lat="42.85819" lon="0.91238">
        <ele>1694.486</ele>
        <time>2021-03-13T10:57:43Z</time>
      </trkpt>
      <trkpt lat="42.85819" lon="0.91238">
        <ele>1694.254</ele>
        <time>2021-03-13T10:57:45Z</time>
      </trkpt>
      <trkpt lat="42.85819" lon="0.91238">
        <ele>1694.238</ele>
        <time>2021-03-13T10:57:47Z</time>
      </trkpt>
      <trkpt lat="42.85819" lon="0.91238">
        <ele>1694.22</ele>
        <time>2021-03-13T10:57:49Z</time>
      </trkpt>
      <trkpt lat="42.85819" lon="0.91238">
        <ele>1694.215</ele>
        <time>2021-03-13T10:57:51Z</time>
      </trkpt>
      <trkpt lat="42.85819" lon="0.91238">
        <ele>1694.193</ele>
        <time>2021-03-13T10:57:53Z</time>
      </trkpt>
      <trkpt lat="42.85819" lon="0.91238">
        <ele>1694.196</ele>
        <time>2021-03-13T10:57:55Z</time>
      </trkpt>
      <trkpt lat="42.85819" lon="0.91238">
        <ele>1694.179</ele>
        <time>2021-03-13T10:57:57Z</time>
      </trkpt>
      <trkpt lat="42.85819" lon="0.91238">
        <ele>1694.148</ele>
        <time>2021-03-13T10:57:59Z</time>
      </trkpt>
      <trkpt lat="42.85819" lon="0.91238">
        <ele>1694.141</ele>
        <time>2021-03-13T10:58:01Z</time>
      </trkpt>
      <trkpt lat="42.85819" lon="0.91238">
        <ele>1694.141</ele>
        <time>2021-03-13T10:58:03Z</time>
      </trkpt>
      <trkpt lat="42.85819" lon="0.91238">
        <ele>1694.133</ele>
        <time>2021-03-13T10:58:05Z</time>
      </trkpt>
      <trkpt lat="42.85819" lon="0.91238">
        <ele>1694.109</ele>
        <time>2021-03-13T10:58:07Z</time>
      </trkpt>
      <trkpt lat="42.85819" lon="0.91238">
        <ele>1694.092</ele>
        <time>2021-03-13T10:58:09Z</time>
      </trkpt>
      <trkpt lat="42.85819" lon="0.91238">
        <ele>1694.089</ele>
        <time>2021-03-13T10:58:11Z</time>
      </trkpt>
      <trkpt lat="42.85819" lon="0.91238">
        <ele>1694.087</ele>
        <time>2021-03-13T10:58:13Z</time>
      </trkpt>
      <trkpt lat="42.85819" lon="0.91238">
        <ele>1694.087</ele>
        <time>2021-03-13T10:58:15Z</time>
      </trkpt>
      <trkpt lat="42.85819" lon="0.91238">
        <ele>1694.089</ele>
        <time>2021-03-13T10:58:17Z</time>
      </trkpt>
      <trkpt lat="42.85819" lon="0.91238">
        <ele>1694.092</ele>
        <time>2021-03-13T10:58:19Z</time>
      </trkpt>
      <trkpt lat="42.85819" lon="0.91238">
        <ele>1694.092</ele>
        <time>2021-03-13T10:58:21Z</time>
      </trkpt>
      <trkpt lat="42.85819" lon="0.91238">
        <ele>1694.094</ele>
        <time>2021-03-13T10:58:23Z</time>
      </trkpt>
      <trkpt lat="42.85819" lon="0.91238">
        <ele>1694.096</ele>
        <time>2021-03-13T10:58:25Z</time>
      </trkpt>
      <trkpt lat="42.85819" lon="0.91238">
        <ele>1694.327</ele>
        <time>2021-03-13T10:58:27Z</time>
      </trkpt>
      <trkpt lat="42.85819" lon="0.91238">
        <ele>1694.144</ele>
        <time>2021-03-13T10:58:29Z</time>
      </trkpt>
      <trkpt lat="42.85819" lon="0.91238">
        <ele>1694.082</ele>
        <time>2021-03-13T10:58:31Z</time>
      </trkpt>
      <trkpt lat="42.85819" lon="0.91238">
        <ele>1694.101</ele>
        <time>2021-03-13T10:58:33Z</time>
      </trkpt>
      <trkpt lat="42.85819" lon="0.91238">
        <ele>1694.1</ele>
        <time>2021-03-13T10:58:35Z</time>
      </trkpt>
      <trkpt lat="42.85818" lon="0.91238">
        <ele>1694.199</ele>
        <time>2021-03-13T10:58:37Z</time>
      </trkpt>
      <trkpt lat="42.85818" lon="0.91239">
        <ele>1693.559</ele>
        <time>2021-03-13T10:58:39Z</time>
      </trkpt>
      <trkpt lat="42.85818" lon="0.91239">
        <ele>1693.294</ele>
        <time>2021-03-13T10:58:41Z</time>
      </trkpt>
      <trkpt lat="42.85818" lon="0.91239">
        <ele>1693.13</ele>
        <time>2021-03-13T10:58:43Z</time>
      </trkpt>
      <trkpt lat="42.85818" lon="0.91239">
        <ele>1693.144</ele>
        <time>2021-03-13T10:58:45Z</time>
      </trkpt>
      <trkpt lat="42.85818" lon="0.91239">
        <ele>1693.139</ele>
        <time>2021-03-13T10:58:47Z</time>
      </trkpt>
      <trkpt lat="42.85818" lon="0.91239">
        <ele>1693.134</ele>
        <time>2021-03-13T10:58:49Z</time>
      </trkpt>
      <trkpt lat="42.85818" lon="0.91239">
        <ele>1693.135</ele>
        <time>2021-03-13T10:58:51Z</time>
      </trkpt>
      <trkpt lat="42.85818" lon="0.91239">
        <ele>1693.129</ele>
        <time>2021-03-13T10:58:53Z</time>
      </trkpt>
      <trkpt lat="42.85818" lon="0.91239">
        <ele>1693.131</ele>
        <time>2021-03-13T10:58:55Z</time>
      </trkpt>
      <trkpt lat="42.85818" lon="0.91239">
        <ele>1693.139</ele>
        <time>2021-03-13T10:58:57Z</time>
      </trkpt>
      <trkpt lat="42.85818" lon="0.91239">
        <ele>1692.763</ele>
        <time>2021-03-13T10:58:59Z</time>
      </trkpt>
      <trkpt lat="42.85818" lon="0.9124">
        <ele>1692.965</ele>
        <time>2021-03-13T10:59:01Z</time>
      </trkpt>
      <trkpt lat="42.85818" lon="0.9124">
        <ele>1692.828</ele>
        <time>2021-03-13T10:59:03Z</time>
      </trkpt>
      <trkpt lat="42.85817" lon="0.9124">
        <ele>1693.102</ele>
        <time>2021-03-13T10:59:05Z</time>
      </trkpt>
      <trkpt lat="42.85817" lon="0.91241">
        <ele>1693.657</ele>
        <time>2021-03-13T10:59:07Z</time>
      </trkpt>
      <trkpt lat="42.85818" lon="0.91242">
        <ele>1694.198</ele>
        <time>2021-03-13T10:59:09Z</time>
      </trkpt>
      <trkpt lat="42.85819" lon="0.91243">
        <ele>1693.942</ele>
        <time>2021-03-13T10:59:11Z</time>
      </trkpt>
      <trkpt lat="42.8582" lon="0.91244">
        <ele>1694.445</ele>
        <time>2021-03-13T10:59:13Z</time>
      </trkpt>
      <trkpt lat="42.8582" lon="0.91245">
        <ele>1694.036</ele>
        <time>2021-03-13T10:59:15Z</time>
      </trkpt>
      <trkpt lat="42.85821" lon="0.91245">
        <ele>1693.893</ele>
        <time>2021-03-13T10:59:17Z</time>
      </trkpt>
      <trkpt lat="42.85822" lon="0.91246">
        <ele>1694.195</ele>
        <time>2021-03-13T10:59:19Z</time>
      </trkpt>
      <trkpt lat="42.85822" lon="0.91248">
        <ele>1694.429</ele>
        <time>2021-03-13T10:59:21Z</time>
      </trkpt>
      <trkpt lat="42.85822" lon="0.91248">
        <ele>1693.773</ele>
        <time>2021-03-13T10:59:23Z</time>
      </trkpt>
      <trkpt lat="42.85823" lon="0.91249">
        <ele>1693.345</ele>
        <time>2021-03-13T10:59:25Z</time>
      </trkpt>
      <trkpt lat="42.85823" lon="0.9125">
        <ele>1693.171</ele>
        <time>2021-03-13T10:59:27Z</time>
      </trkpt>
      <trkpt lat="42.85824" lon="0.91251">
        <ele>1692.852</ele>
        <time>2021-03-13T10:59:29Z</time>
      </trkpt>
      <trkpt lat="42.85824" lon="0.91252">
        <ele>1692.588</ele>
        <time>2021-03-13T10:59:31Z</time>
      </trkpt>
      <trkpt lat="42.85823" lon="0.91254">
        <ele>1692.757</ele>
        <time>2021-03-13T10:59:33Z</time>
      </trkpt>
      <trkpt lat="42.85823" lon="0.91255">
        <ele>1693.037</ele>
        <time>2021-03-13T10:59:35Z</time>
      </trkpt>
      <trkpt lat="42.85823" lon="0.91255">
        <ele>1691.329</ele>
        <time>2021-03-13T10:59:37Z</time>
      </trkpt>
      <trkpt lat="42.85822" lon="0.91257">
        <ele>1691.828</ele>
        <time>2021-03-13T10:59:39Z</time>
      </trkpt>
      <trkpt lat="42.85823" lon="0.91258">
        <ele>1690.707</ele>
        <time>2021-03-13T10:59:41Z</time>
      </trkpt>
      <trkpt lat="42.85823" lon="0.91259">
        <ele>1690.524</ele>
        <time>2021-03-13T10:59:43Z</time>
      </trkpt>
      <trkpt lat="42.85824" lon="0.91261">
        <ele>1689.531</ele>
        <time>2021-03-13T10:59:45Z</time>
      </trkpt>
      <trkpt lat="42.85826" lon="0.91262">
        <ele>1688.037</ele>
        <time>2021-03-13T10:59:47Z</time>
      </trkpt>
      <trkpt lat="42.85827" lon="0.91263">
        <ele>1687.539</ele>
        <time>2021-03-13T10:59:49Z</time>
      </trkpt>
      <trkpt lat="42.85829" lon="0.91264">
        <ele>1686.797</ele>
        <time>2021-03-13T10:59:51Z</time>
      </trkpt>
      <trkpt lat="42.8583" lon="0.91265">
        <ele>1686.02</ele>
        <time>2021-03-13T10:59:53Z</time>
      </trkpt>
      <trkpt lat="42.85832" lon="0.91265">
        <ele>1685.627</ele>
        <time>2021-03-13T10:59:55Z</time>
      </trkpt>
      <trkpt lat="42.85833" lon="0.91266">
        <ele>1685.692</ele>
        <time>2021-03-13T10:59:57Z</time>
      </trkpt>
      <trkpt lat="42.85834" lon="0.91267">
        <ele>1685.441</ele>
        <time>2021-03-13T10:59:59Z</time>
      </trkpt>
      <trkpt lat="42.85836" lon="0.91269">
        <ele>1685.197</ele>
        <time>2021-03-13T11:00:01Z</time>
      </trkpt>
      <trkpt lat="42.85836" lon="0.91271">
        <ele>1685.515</ele>
        <time>2021-03-13T11:00:03Z</time>
      </trkpt>
      <trkpt lat="42.85837" lon="0.91274">
        <ele>1685.757</ele>
        <time>2021-03-13T11:00:05Z</time>
      </trkpt>
      <trkpt lat="42.85838" lon="0.91275">
        <ele>1685.492</ele>
        <time>2021-03-13T11:00:07Z</time>
      </trkpt>
      <trkpt lat="42.85839" lon="0.91276">
        <ele>1685.421</ele>
        <time>2021-03-13T11:00:09Z</time>
      </trkpt>
      <trkpt lat="42.8584" lon="0.91277">
        <ele>1685.016</ele>
        <time>2021-03-13T11:00:11Z</time>
      </trkpt>
      <trkpt lat="42.85841" lon="0.91278">
        <ele>1684.654</ele>
        <time>2021-03-13T11:00:13Z</time>
      </trkpt>
      <trkpt lat="42.85842" lon="0.91277">
        <ele>1683.892</ele>
        <time>2021-03-13T11:00:15Z</time>
      </trkpt>
      <trkpt lat="42.85843" lon="0.91278">
        <ele>1683.187</ele>
        <time>2021-03-13T11:00:17Z</time>
      </trkpt>
      <trkpt lat="42.85844" lon="0.91279">
        <ele>1683.277</ele>
        <time>2021-03-13T11:00:19Z</time>
      </trkpt>
      <trkpt lat="42.85844" lon="0.91279">
        <ele>1681.615</ele>
        <time>2021-03-13T11:00:21Z</time>
      </trkpt>
      <trkpt lat="42.85842" lon="0.9128">
        <ele>1681.957</ele>
        <time>2021-03-13T11:00:23Z</time>
      </trkpt>
      <trkpt lat="42.8584" lon="0.9128">
        <ele>1682.08</ele>
        <time>2021-03-13T11:00:25Z</time>
      </trkpt>
      <trkpt lat="42.85839" lon="0.9128">
        <ele>1681.531</ele>
        <time>2021-03-13T11:00:27Z</time>
      </trkpt>
      <trkpt lat="42.85838" lon="0.9128">
        <ele>1681.724</ele>
        <time>2021-03-13T11:00:29Z</time>
      </trkpt>
      <trkpt lat="42.85837" lon="0.91281">
        <ele>1680.465</ele>
        <time>2021-03-13T11:00:31Z</time>
      </trkpt>
      <trkpt lat="42.85836" lon="0.91281">
        <ele>1680.407</ele>
        <time>2021-03-13T11:00:33Z</time>
      </trkpt>
      <trkpt lat="42.85835" lon="0.91281">
        <ele>1680.151</ele>
        <time>2021-03-13T11:00:35Z</time>
      </trkpt>
      <trkpt lat="42.85834" lon="0.91281">
        <ele>1678.872</ele>
        <time>2021-03-13T11:00:37Z</time>
      </trkpt>
      <trkpt lat="42.85833" lon="0.91281">
        <ele>1678.695</ele>
        <time>2021-03-13T11:00:39Z</time>
      </trkpt>
      <trkpt lat="42.85832" lon="0.91281">
        <ele>1678.249</ele>
        <time>2021-03-13T11:00:41Z</time>
      </trkpt>
      <trkpt lat="42.8583" lon="0.9128">
        <ele>1678.024</ele>
        <time>2021-03-13T11:00:43Z</time>
      </trkpt>
      <trkpt lat="42.85829" lon="0.91281">
        <ele>1677.297</ele>
        <time>2021-03-13T11:00:45Z</time>
      </trkpt>
      <trkpt lat="42.85828" lon="0.9128">
        <ele>1677.43</ele>
        <time>2021-03-13T11:00:47Z</time>
      </trkpt>
      <trkpt lat="42.85827" lon="0.91279">
        <ele>1676.47</ele>
        <time>2021-03-13T11:00:49Z</time>
      </trkpt>
      <trkpt lat="42.85826" lon="0.91278">
        <ele>1677.199</ele>
        <time>2021-03-13T11:00:51Z</time>
      </trkpt>
      <trkpt lat="42.85824" lon="0.91277">
        <ele>1676.865</ele>
        <time>2021-03-13T11:00:53Z</time>
      </trkpt>
      <trkpt lat="42.85823" lon="0.91278">
        <ele>1677.005</ele>
        <time>2021-03-13T11:00:55Z</time>
      </trkpt>
      <trkpt lat="42.85823" lon="0.91277">
        <ele>1676.881</ele>
        <time>2021-03-13T11:00:57Z</time>
      </trkpt>
      <trkpt lat="42.85823" lon="0.91277">
        <ele>1676.849</ele>
        <time>2021-03-13T11:00:59Z</time>
      </trkpt>
      <trkpt lat="42.85823" lon="0.91277">
        <ele>1676.825</ele>
        <time>2021-03-13T11:01:01Z</time>
      </trkpt>
      <trkpt lat="42.85823" lon="0.91277">
        <ele>1676.862</ele>
        <time>2021-03-13T11:01:03Z</time>
      </trkpt>
      <trkpt lat="42.85823" lon="0.91277">
        <ele>1676.896</ele>
        <time>2021-03-13T11:01:05Z</time>
      </trkpt>
      <trkpt lat="42.85823" lon="0.91277">
        <ele>1676.911</ele>
        <time>2021-03-13T11:01:07Z</time>
      </trkpt>
      <trkpt lat="42.85823" lon="0.91277">
        <ele>1676.913</ele>
        <time>2021-03-13T11:01:09Z</time>
      </trkpt>
      <trkpt lat="42.85823" lon="0.91278">
        <ele>1677.053</ele>
        <time>2021-03-13T11:01:12Z</time>
      </trkpt>
      <trkpt lat="42.85823" lon="0.91278">
        <ele>1677.041</ele>
        <time>2021-03-13T11:01:14Z</time>
      </trkpt>
      <trkpt lat="42.85823" lon="0.91278">
        <ele>1677.033</ele>
        <time>2021-03-13T11:01:16Z</time>
      </trkpt>
      <trkpt lat="42.85823" lon="0.91278">
        <ele>1677.052</ele>
        <time>2021-03-13T11:01:18Z</time>
      </trkpt>
      <trkpt lat="42.85823" lon="0.91278">
        <ele>1677.052</ele>
        <time>2021-03-13T11:01:20Z</time>
      </trkpt>
      <trkpt lat="42.85823" lon="0.91278">
        <ele>1677.069</ele>
        <time>2021-03-13T11:01:22Z</time>
      </trkpt>
      <trkpt lat="42.85823" lon="0.91277">
        <ele>1677.865</ele>
        <time>2021-03-13T11:01:24Z</time>
      </trkpt>
      <trkpt lat="42.85822" lon="0.91277">
        <ele>1678.274</ele>
        <time>2021-03-13T11:01:26Z</time>
      </trkpt>
      <trkpt lat="42.85822" lon="0.91277">
        <ele>1678.294</ele>
        <time>2021-03-13T11:01:28Z</time>
      </trkpt>
      <trkpt lat="42.85822" lon="0.91277">
        <ele>1678.32</ele>
        <time>2021-03-13T11:01:30Z</time>
      </trkpt>
      <trkpt lat="42.85821" lon="0.91277">
        <ele>1678.334</ele>
        <time>2021-03-13T11:01:32Z</time>
      </trkpt>
      <trkpt lat="42.85821" lon="0.91277">
        <ele>1678.329</ele>
        <time>2021-03-13T11:01:34Z</time>
      </trkpt>
      <trkpt lat="42.85821" lon="0.91277">
        <ele>1678.33</ele>
        <time>2021-03-13T11:01:36Z</time>
      </trkpt>
      <trkpt lat="42.85821" lon="0.91277">
        <ele>1678.331</ele>
        <time>2021-03-13T11:01:38Z</time>
      </trkpt>
      <trkpt lat="42.85821" lon="0.91277">
        <ele>1678.329</ele>
        <time>2021-03-13T11:01:40Z</time>
      </trkpt>
      <trkpt lat="42.85821" lon="0.91277">
        <ele>1678.329</ele>
        <time>2021-03-13T11:01:42Z</time>
      </trkpt>
      <trkpt lat="42.85821" lon="0.91277">
        <ele>1678.332</ele>
        <time>2021-03-13T11:01:44Z</time>
      </trkpt>
      <trkpt lat="42.85821" lon="0.91277">
        <ele>1678.333</ele>
        <time>2021-03-13T11:01:46Z</time>
      </trkpt>
      <trkpt lat="42.85822" lon="0.91276">
        <ele>1677.972</ele>
        <time>2021-03-13T11:01:48Z</time>
      </trkpt>
      <trkpt lat="42.85822" lon="0.91276">
        <ele>1677.989</ele>
        <time>2021-03-13T11:01:50Z</time>
      </trkpt>
      <trkpt lat="42.85822" lon="0.91276">
        <ele>1677.995</ele>
        <time>2021-03-13T11:01:52Z</time>
      </trkpt>
      <trkpt lat="42.85822" lon="0.91276">
        <ele>1678.003</ele>
        <time>2021-03-13T11:01:54Z</time>
      </trkpt>
      <trkpt lat="42.85822" lon="0.91277">
        <ele>1678.349</ele>
        <time>2021-03-13T11:01:56Z</time>
      </trkpt>
      <trkpt lat="42.85822" lon="0.91278">
        <ele>1678.972</ele>
        <time>2021-03-13T11:01:58Z</time>
      </trkpt>
      <trkpt lat="42.85823" lon="0.91279">
        <ele>1678.617</ele>
        <time>2021-03-13T11:02:00Z</time>
      </trkpt>
      <trkpt lat="42.85825" lon="0.9128">
        <ele>1679.253</ele>
        <time>2021-03-13T11:02:02Z</time>
      </trkpt>
      <trkpt lat="42.85826" lon="0.91283">
        <ele>1679.474</ele>
        <time>2021-03-13T11:02:04Z</time>
      </trkpt>
      <trkpt lat="42.85826" lon="0.91285">
        <ele>1679.604</ele>
        <time>2021-03-13T11:02:06Z</time>
      </trkpt>
      <trkpt lat="42.85827" lon="0.91287">
        <ele>1679.163</ele>
        <time>2021-03-13T11:02:08Z</time>
      </trkpt>
      <trkpt lat="42.85827" lon="0.91289">
        <ele>1678.768</ele>
        <time>2021-03-13T11:02:10Z</time>
      </trkpt>
      <trkpt lat="42.85827" lon="0.91291">
        <ele>1678.164</ele>
        <time>2021-03-13T11:02:12Z</time>
      </trkpt>
      <trkpt lat="42.85828" lon="0.91294">
        <ele>1678.143</ele>
        <time>2021-03-13T11:02:14Z</time>
      </trkpt>
      <trkpt lat="42.85827" lon="0.91297">
        <ele>1678.503</ele>
        <time>2021-03-13T11:02:16Z</time>
      </trkpt>
      <trkpt lat="42.85826" lon="0.91299">
        <ele>1678.56</ele>
        <time>2021-03-13T11:02:18Z</time>
      </trkpt>
      <trkpt lat="42.85827" lon="0.91303">
        <ele>1675.728</ele>
        <time>2021-03-13T11:02:20Z</time>
      </trkpt>
      <trkpt lat="42.85825" lon="0.91303">
        <ele>1675.404</ele>
        <time>2021-03-13T11:02:22Z</time>
      </trkpt>
      <trkpt lat="42.85825" lon="0.91302">
        <ele>1675.413</ele>
        <time>2021-03-13T11:02:24Z</time>
      </trkpt>
      <trkpt lat="42.85824" lon="0.91302">
        <ele>1675.322</ele>
        <time>2021-03-13T11:02:26Z</time>
      </trkpt>
      <trkpt lat="42.85821" lon="0.91302">
        <ele>1676.011</ele>
        <time>2021-03-13T11:02:28Z</time>
      </trkpt>
      <trkpt lat="42.85821" lon="0.91302">
        <ele>1675.945</ele>
        <time>2021-03-13T11:02:30Z</time>
      </trkpt>
      <trkpt lat="42.85821" lon="0.91302">
        <ele>1675.953</ele>
        <time>2021-03-13T11:02:32Z</time>
      </trkpt>
      <trkpt lat="42.85822" lon="0.91302">
        <ele>1676.256</ele>
        <time>2021-03-13T11:02:34Z</time>
      </trkpt>
      <trkpt lat="42.85821" lon="0.91302">
        <ele>1676.599</ele>
        <time>2021-03-13T11:02:36Z</time>
      </trkpt>
      <trkpt lat="42.85818" lon="0.91302">
        <ele>1677.033</ele>
        <time>2021-03-13T11:02:38Z</time>
      </trkpt>
      <trkpt lat="42.85818" lon="0.91302">
        <ele>1677.043</ele>
        <time>2021-03-13T11:02:40Z</time>
      </trkpt>
      <trkpt lat="42.85818" lon="0.91302">
        <ele>1677.049</ele>
        <time>2021-03-13T11:02:42Z</time>
      </trkpt>
      <trkpt lat="42.85818" lon="0.91302">
        <ele>1677.051</ele>
        <time>2021-03-13T11:02:44Z</time>
      </trkpt>
      <trkpt lat="42.85818" lon="0.91302">
        <ele>1676.968</ele>
        <time>2021-03-13T11:02:46Z</time>
      </trkpt>
      <trkpt lat="42.85818" lon="0.91304">
        <ele>1677.11</ele>
        <time>2021-03-13T11:02:48Z</time>
      </trkpt>
      <trkpt lat="42.85819" lon="0.91306">
        <ele>1677.203</ele>
        <time>2021-03-13T11:02:50Z</time>
      </trkpt>
      <trkpt lat="42.8582" lon="0.91309">
        <ele>1676.901</ele>
        <time>2021-03-13T11:02:52Z</time>
      </trkpt>
      <trkpt lat="42.85822" lon="0.91311">
        <ele>1676.938</ele>
        <time>2021-03-13T11:02:54Z</time>
      </trkpt>
      <trkpt lat="42.85823" lon="0.91313">
        <ele>1676.694</ele>
        <time>2021-03-13T11:02:56Z</time>
      </trkpt>
      <trkpt lat="42.85823" lon="0.91315">
        <ele>1676.371</ele>
        <time>2021-03-13T11:02:58Z</time>
      </trkpt>
      <trkpt lat="42.85824" lon="0.91317">
        <ele>1675.888</ele>
        <time>2021-03-13T11:03:00Z</time>
      </trkpt>
      <trkpt lat="42.85825" lon="0.9132">
        <ele>1675.57</ele>
        <time>2021-03-13T11:03:02Z</time>
      </trkpt>
      <trkpt lat="42.85825" lon="0.91323">
        <ele>1675.018</ele>
        <time>2021-03-13T11:03:04Z</time>
      </trkpt>
      <trkpt lat="42.85827" lon="0.91326">
        <ele>1674.611</ele>
        <time>2021-03-13T11:03:06Z</time>
      </trkpt>
      <trkpt lat="42.85827" lon="0.91329">
        <ele>1674.815</ele>
        <time>2021-03-13T11:03:08Z</time>
      </trkpt>
      <trkpt lat="42.85828" lon="0.91332">
        <ele>1674.668</ele>
        <time>2021-03-13T11:03:10Z</time>
      </trkpt>
      <trkpt lat="42.85829" lon="0.91334">
        <ele>1674.045</ele>
        <time>2021-03-13T11:03:12Z</time>
      </trkpt>
      <trkpt lat="42.85831" lon="0.91338">
        <ele>1673.646</ele>
        <time>2021-03-13T11:03:15Z</time>
      </trkpt>
      <trkpt lat="42.85833" lon="0.9134">
        <ele>1673.555</ele>
        <time>2021-03-13T11:03:17Z</time>
      </trkpt>
      <trkpt lat="42.85834" lon="0.91343">
        <ele>1673.68</ele>
        <time>2021-03-13T11:03:19Z</time>
      </trkpt>
      <trkpt lat="42.85835" lon="0.91346">
        <ele>1673.845</ele>
        <time>2021-03-13T11:03:21Z</time>
      </trkpt>
      <trkpt lat="42.85836" lon="0.91349">
        <ele>1674.176</ele>
        <time>2021-03-13T11:03:23Z</time>
      </trkpt>
      <trkpt lat="42.85837" lon="0.91352">
        <ele>1674.302</ele>
        <time>2021-03-13T11:03:25Z</time>
      </trkpt>
      <trkpt lat="42.85837" lon="0.91354">
        <ele>1674.897</ele>
        <time>2021-03-13T11:03:27Z</time>
      </trkpt>
      <trkpt lat="42.85837" lon="0.91355">
        <ele>1675.529</ele>
        <time>2021-03-13T11:03:29Z</time>
      </trkpt>
      <trkpt lat="42.85838" lon="0.91357">
        <ele>1675.088</ele>
        <time>2021-03-13T11:03:31Z</time>
      </trkpt>
      <trkpt lat="42.85838" lon="0.91359">
        <ele>1675.472</ele>
        <time>2021-03-13T11:03:33Z</time>
      </trkpt>
      <trkpt lat="42.85838" lon="0.9136">
        <ele>1676.37</ele>
        <time>2021-03-13T11:03:35Z</time>
      </trkpt>
      <trkpt lat="42.85838" lon="0.91362">
        <ele>1676.817</ele>
        <time>2021-03-13T11:03:37Z</time>
      </trkpt>
      <trkpt lat="42.85838" lon="0.91364">
        <ele>1676.834</ele>
        <time>2021-03-13T11:03:39Z</time>
      </trkpt>
      <trkpt lat="42.85837" lon="0.91366">
        <ele>1676.785</ele>
        <time>2021-03-13T11:03:41Z</time>
      </trkpt>
      <trkpt lat="42.85837" lon="0.91367">
        <ele>1676.916</ele>
        <time>2021-03-13T11:03:43Z</time>
      </trkpt>
      <trkpt lat="42.85837" lon="0.91367">
        <ele>1676.975</ele>
        <time>2021-03-13T11:03:45Z</time>
      </trkpt>
      <trkpt lat="42.85837" lon="0.91369">
        <ele>1675.013</ele>
        <time>2021-03-13T11:03:47Z</time>
      </trkpt>
      <trkpt lat="42.85837" lon="0.91369">
        <ele>1675.014</ele>
        <time>2021-03-13T11:03:49Z</time>
      </trkpt>
      <trkpt lat="42.85837" lon="0.91368">
        <ele>1674.69</ele>
        <time>2021-03-13T11:03:51Z</time>
      </trkpt>
      <trkpt lat="42.85836" lon="0.91367">
        <ele>1674.679</ele>
        <time>2021-03-13T11:03:53Z</time>
      </trkpt>
      <trkpt lat="42.85836" lon="0.91366">
        <ele>1674.452</ele>
        <time>2021-03-13T11:03:55Z</time>
      </trkpt>
      <trkpt lat="42.85835" lon="0.91366">
        <ele>1674.441</ele>
        <time>2021-03-13T11:03:57Z</time>
      </trkpt>
      <trkpt lat="42.85835" lon="0.91366">
        <ele>1674.447</ele>
        <time>2021-03-13T11:03:59Z</time>
      </trkpt>
      <trkpt lat="42.85835" lon="0.91366">
        <ele>1674.223</ele>
        <time>2021-03-13T11:04:01Z</time>
      </trkpt>
      <trkpt lat="42.85835" lon="0.91366">
        <ele>1674.262</ele>
        <time>2021-03-13T11:04:03Z</time>
      </trkpt>
      <trkpt lat="42.85835" lon="0.91366">
        <ele>1673.759</ele>
        <time>2021-03-13T11:04:05Z</time>
      </trkpt>
      <trkpt lat="42.85835" lon="0.91366">
        <ele>1673.75</ele>
        <time>2021-03-13T11:04:07Z</time>
      </trkpt>
      <trkpt lat="42.85835" lon="0.91366">
        <ele>1673.75</ele>
        <time>2021-03-13T11:04:09Z</time>
      </trkpt>
      <trkpt lat="42.85835" lon="0.91366">
        <ele>1673.756</ele>
        <time>2021-03-13T11:04:11Z</time>
      </trkpt>
      <trkpt lat="42.85835" lon="0.91366">
        <ele>1673.766</ele>
        <time>2021-03-13T11:04:13Z</time>
      </trkpt>
      <trkpt lat="42.85835" lon="0.91366">
        <ele>1673.927</ele>
        <time>2021-03-13T11:04:15Z</time>
      </trkpt>
      <trkpt lat="42.85835" lon="0.91366">
        <ele>1673.937</ele>
        <time>2021-03-13T11:04:17Z</time>
      </trkpt>
      <trkpt lat="42.85835" lon="0.91366">
        <ele>1673.868</ele>
        <time>2021-03-13T11:04:19Z</time>
      </trkpt>
      <trkpt lat="42.85835" lon="0.91365">
        <ele>1673.869</ele>
        <time>2021-03-13T11:04:21Z</time>
      </trkpt>
      <trkpt lat="42.85835" lon="0.91365">
        <ele>1673.878</ele>
        <time>2021-03-13T11:04:23Z</time>
      </trkpt>
      <trkpt lat="42.85835" lon="0.91366">
        <ele>1673.566</ele>
        <time>2021-03-13T11:04:25Z</time>
      </trkpt>
      <trkpt lat="42.85835" lon="0.91366">
        <ele>1673.571</ele>
        <time>2021-03-13T11:04:27Z</time>
      </trkpt>
      <trkpt lat="42.85835" lon="0.91366">
        <ele>1673.57</ele>
        <time>2021-03-13T11:04:29Z</time>
      </trkpt>
      <trkpt lat="42.85835" lon="0.91365">
        <ele>1674.206</ele>
        <time>2021-03-13T11:04:31Z</time>
      </trkpt>
      <trkpt lat="42.85835" lon="0.91365">
        <ele>1674.214</ele>
        <time>2021-03-13T11:04:33Z</time>
      </trkpt>
      <trkpt lat="42.85835" lon="0.91365">
        <ele>1674.224</ele>
        <time>2021-03-13T11:04:35Z</time>
      </trkpt>
      <trkpt lat="42.85835" lon="0.91365">
        <ele>1674.632</ele>
        <time>2021-03-13T11:04:37Z</time>
      </trkpt>
      <trkpt lat="42.85836" lon="0.91365">
        <ele>1674.495</ele>
        <time>2021-03-13T11:04:39Z</time>
      </trkpt>
      <trkpt lat="42.85836" lon="0.91365">
        <ele>1674.488</ele>
        <time>2021-03-13T11:04:41Z</time>
      </trkpt>
      <trkpt lat="42.85836" lon="0.91365">
        <ele>1674.495</ele>
        <time>2021-03-13T11:04:43Z</time>
      </trkpt>
      <trkpt lat="42.85836" lon="0.91365">
        <ele>1674.54</ele>
        <time>2021-03-13T11:04:45Z</time>
      </trkpt>
      <trkpt lat="42.85835" lon="0.91365">
        <ele>1674.563</ele>
        <time>2021-03-13T11:04:47Z</time>
      </trkpt>
      <trkpt lat="42.85835" lon="0.91365">
        <ele>1674.564</ele>
        <time>2021-03-13T11:04:49Z</time>
      </trkpt>
      <trkpt lat="42.85835" lon="0.91365">
        <ele>1674.569</ele>
        <time>2021-03-13T11:04:51Z</time>
      </trkpt>
      <trkpt lat="42.85835" lon="0.91365">
        <ele>1674.581</ele>
        <time>2021-03-13T11:04:53Z</time>
      </trkpt>
      <trkpt lat="42.85835" lon="0.91365">
        <ele>1674.579</ele>
        <time>2021-03-13T11:04:55Z</time>
      </trkpt>
      <trkpt lat="42.85835" lon="0.91365">
        <ele>1674.583</ele>
        <time>2021-03-13T11:04:57Z</time>
      </trkpt>
      <trkpt lat="42.85835" lon="0.91365">
        <ele>1674.586</ele>
        <time>2021-03-13T11:04:59Z</time>
      </trkpt>
      <trkpt lat="42.85835" lon="0.91365">
        <ele>1674.594</ele>
        <time>2021-03-13T11:05:01Z</time>
      </trkpt>
      <trkpt lat="42.85835" lon="0.91365">
        <ele>1674.596</ele>
        <time>2021-03-13T11:05:03Z</time>
      </trkpt>
      <trkpt lat="42.85835" lon="0.91365">
        <ele>1674.596</ele>
        <time>2021-03-13T11:05:05Z</time>
      </trkpt>
      <trkpt lat="42.85835" lon="0.91365">
        <ele>1674.594</ele>
        <time>2021-03-13T11:05:07Z</time>
      </trkpt>
      <trkpt lat="42.85835" lon="0.91365">
        <ele>1674.587</ele>
        <time>2021-03-13T11:05:09Z</time>
      </trkpt>
      <trkpt lat="42.85835" lon="0.91365">
        <ele>1674.583</ele>
        <time>2021-03-13T11:05:11Z</time>
      </trkpt>
      <trkpt lat="42.85835" lon="0.91365">
        <ele>1674.586</ele>
        <time>2021-03-13T11:05:13Z</time>
      </trkpt>
      <trkpt lat="42.85835" lon="0.91365">
        <ele>1674.588</ele>
        <time>2021-03-13T11:05:15Z</time>
      </trkpt>
      <trkpt lat="42.85835" lon="0.91365">
        <ele>1675.029</ele>
        <time>2021-03-13T11:05:17Z</time>
      </trkpt>
      <trkpt lat="42.85835" lon="0.91365">
        <ele>1674.972</ele>
        <time>2021-03-13T11:05:19Z</time>
      </trkpt>
      <trkpt lat="42.85835" lon="0.91365">
        <ele>1674.974</ele>
        <time>2021-03-13T11:05:21Z</time>
      </trkpt>
      <trkpt lat="42.85835" lon="0.91365">
        <ele>1674.982</ele>
        <time>2021-03-13T11:05:23Z</time>
      </trkpt>
      <trkpt lat="42.85835" lon="0.91364">
        <ele>1675.177</ele>
        <time>2021-03-13T11:05:25Z</time>
      </trkpt>
      <trkpt lat="42.85835" lon="0.91363">
        <ele>1675.31</ele>
        <time>2021-03-13T11:05:27Z</time>
      </trkpt>
      <trkpt lat="42.85835" lon="0.91361">
        <ele>1674.92</ele>
        <time>2021-03-13T11:05:29Z</time>
      </trkpt>
      <trkpt lat="42.85835" lon="0.91358">
        <ele>1675.387</ele>
        <time>2021-03-13T11:05:31Z</time>
      </trkpt>
      <trkpt lat="42.85835" lon="0.91356">
        <ele>1675.175</ele>
        <time>2021-03-13T11:05:33Z</time>
      </trkpt>
      <trkpt lat="42.85835" lon="0.91354">
        <ele>1674.619</ele>
        <time>2021-03-13T11:05:35Z</time>
      </trkpt>
      <trkpt lat="42.85835" lon="0.91352">
        <ele>1674.417</ele>
        <time>2021-03-13T11:05:37Z</time>
      </trkpt>
      <trkpt lat="42.85835" lon="0.9135">
        <ele>1674.296</ele>
        <time>2021-03-13T11:05:39Z</time>
      </trkpt>
      <trkpt lat="42.85835" lon="0.91348">
        <ele>1674.575</ele>
        <time>2021-03-13T11:05:41Z</time>
      </trkpt>
      <trkpt lat="42.85835" lon="0.91346">
        <ele>1674.885</ele>
        <time>2021-03-13T11:05:43Z</time>
      </trkpt>
      <trkpt lat="42.85836" lon="0.91344">
        <ele>1674.218</ele>
        <time>2021-03-13T11:05:45Z</time>
      </trkpt>
      <trkpt lat="42.85835" lon="0.91342">
        <ele>1674.286</ele>
        <time>2021-03-13T11:05:47Z</time>
      </trkpt>
      <trkpt lat="42.85835" lon="0.9134">
        <ele>1674.036</ele>
        <time>2021-03-13T11:05:49Z</time>
      </trkpt>
      <trkpt lat="42.85836" lon="0.91338">
        <ele>1674.144</ele>
        <time>2021-03-13T11:05:51Z</time>
      </trkpt>
      <trkpt lat="42.85836" lon="0.91336">
        <ele>1674.123</ele>
        <time>2021-03-13T11:05:53Z</time>
      </trkpt>
      <trkpt lat="42.85836" lon="0.91333">
        <ele>1674.394</ele>
        <time>2021-03-13T11:05:55Z</time>
      </trkpt>
      <trkpt lat="42.85835" lon="0.91332">
        <ele>1674.015</ele>
        <time>2021-03-13T11:05:57Z</time>
      </trkpt>
      <trkpt lat="42.85835" lon="0.91332">
        <ele>1673.941</ele>
        <time>2021-03-13T11:05:59Z</time>
      </trkpt>
      <trkpt lat="42.85835" lon="0.91332">
        <ele>1673.933</ele>
        <time>2021-03-13T11:06:01Z</time>
      </trkpt>
      <trkpt lat="42.85835" lon="0.91332">
        <ele>1673.606</ele>
        <time>2021-03-13T11:06:03Z</time>
      </trkpt>
      <trkpt lat="42.85835" lon="0.9133">
        <ele>1673.889</ele>
        <time>2021-03-13T11:06:05Z</time>
      </trkpt>
      <trkpt lat="42.85834" lon="0.91328">
        <ele>1673.663</ele>
        <time>2021-03-13T11:06:07Z</time>
      </trkpt>
      <trkpt lat="42.85834" lon="0.91326">
        <ele>1673.54</ele>
        <time>2021-03-13T11:06:09Z</time>
      </trkpt>
      <trkpt lat="42.85835" lon="0.91323">
        <ele>1673.802</ele>
        <time>2021-03-13T11:06:11Z</time>
      </trkpt>
      <trkpt lat="42.85835" lon="0.91322">
        <ele>1674.097</ele>
        <time>2021-03-13T11:06:13Z</time>
      </trkpt>
      <trkpt lat="42.85836" lon="0.9132">
        <ele>1674.384</ele>
        <time>2021-03-13T11:06:15Z</time>
      </trkpt>
      <trkpt lat="42.85836" lon="0.91318">
        <ele>1674.527</ele>
        <time>2021-03-13T11:06:17Z</time>
      </trkpt>
      <trkpt lat="42.85837" lon="0.91317">
        <ele>1674.898</ele>
        <time>2021-03-13T11:06:19Z</time>
      </trkpt>
      <trkpt lat="42.85838" lon="0.91315">
        <ele>1675.15</ele>
        <time>2021-03-13T11:06:21Z</time>
      </trkpt>
      <trkpt lat="42.85839" lon="0.91314">
        <ele>1675.171</ele>
        <time>2021-03-13T11:06:23Z</time>
      </trkpt>
      <trkpt lat="42.85839" lon="0.91315">
        <ele>1675.081</ele>
        <time>2021-03-13T11:06:25Z</time>
      </trkpt>
      <trkpt lat="42.8584" lon="0.91314">
        <ele>1674.704</ele>
        <time>2021-03-13T11:06:27Z</time>
      </trkpt>
      <trkpt lat="42.8584" lon="0.91313">
        <ele>1674.517</ele>
        <time>2021-03-13T11:06:29Z</time>
      </trkpt>
      <trkpt lat="42.8584" lon="0.91313">
        <ele>1674.51</ele>
        <time>2021-03-13T11:06:31Z</time>
      </trkpt>
      <trkpt lat="42.8584" lon="0.91313">
        <ele>1674.511</ele>
        <time>2021-03-13T11:06:33Z</time>
      </trkpt>
      <trkpt lat="42.8584" lon="0.91313">
        <ele>1674.495</ele>
        <time>2021-03-13T11:06:35Z</time>
      </trkpt>
      <trkpt lat="42.8584" lon="0.91313">
        <ele>1674.479</ele>
        <time>2021-03-13T11:06:37Z</time>
      </trkpt>
      <trkpt lat="42.8584" lon="0.91313">
        <ele>1674.462</ele>
        <time>2021-03-13T11:06:39Z</time>
      </trkpt>
      <trkpt lat="42.8584" lon="0.91313">
        <ele>1674.441</ele>
        <time>2021-03-13T11:06:41Z</time>
      </trkpt>
      <trkpt lat="42.8584" lon="0.91313">
        <ele>1674.423</ele>
        <time>2021-03-13T11:06:43Z</time>
      </trkpt>
      <trkpt lat="42.8584" lon="0.91313">
        <ele>1674.409</ele>
        <time>2021-03-13T11:06:45Z</time>
      </trkpt>
      <trkpt lat="42.8584" lon="0.91313">
        <ele>1674.401</ele>
        <time>2021-03-13T11:06:47Z</time>
      </trkpt>
      <trkpt lat="42.8584" lon="0.91313">
        <ele>1674.4</ele>
        <time>2021-03-13T11:06:49Z</time>
      </trkpt>
      <trkpt lat="42.8584" lon="0.91313">
        <ele>1674.52</ele>
        <time>2021-03-13T11:06:51Z</time>
      </trkpt>
      <trkpt lat="42.85839" lon="0.91313">
        <ele>1674.576</ele>
        <time>2021-03-13T11:06:53Z</time>
      </trkpt>
      <trkpt lat="42.85837" lon="0.91314">
        <ele>1673.983</ele>
        <time>2021-03-13T11:06:55Z</time>
      </trkpt>
      <trkpt lat="42.85836" lon="0.91316">
        <ele>1673.5</ele>
        <time>2021-03-13T11:06:57Z</time>
      </trkpt>
      <trkpt lat="42.85834" lon="0.91315">
        <ele>1674.979</ele>
        <time>2021-03-13T11:06:59Z</time>
      </trkpt>
      <trkpt lat="42.85833" lon="0.91314">
        <ele>1674.484</ele>
        <time>2021-03-13T11:07:01Z</time>
      </trkpt>
      <trkpt lat="42.85832" lon="0.91312">
        <ele>1674.692</ele>
        <time>2021-03-13T11:07:04Z</time>
      </trkpt>
      <trkpt lat="42.85832" lon="0.91312">
        <ele>1674.802</ele>
        <time>2021-03-13T11:07:06Z</time>
      </trkpt>
      <trkpt lat="42.85833" lon="0.91311">
        <ele>1674.811</ele>
        <time>2021-03-13T11:07:08Z</time>
      </trkpt>
      <trkpt lat="42.85833" lon="0.91311">
        <ele>1674.817</ele>
        <time>2021-03-13T11:07:10Z</time>
      </trkpt>
      <trkpt lat="42.85833" lon="0.91311">
        <ele>1674.816</ele>
        <time>2021-03-13T11:07:12Z</time>
      </trkpt>
      <trkpt lat="42.85833" lon="0.91311">
        <ele>1674.815</ele>
        <time>2021-03-13T11:07:14Z</time>
      </trkpt>
      <trkpt lat="42.85833" lon="0.91311">
        <ele>1674.812</ele>
        <time>2021-03-13T11:07:16Z</time>
      </trkpt>
      <trkpt lat="42.85833" lon="0.91311">
        <ele>1674.802</ele>
        <time>2021-03-13T11:07:18Z</time>
      </trkpt>
      <trkpt lat="42.85833" lon="0.91311">
        <ele>1674.795</ele>
        <time>2021-03-13T11:07:20Z</time>
      </trkpt>
      <trkpt lat="42.85833" lon="0.91311">
        <ele>1674.787</ele>
        <time>2021-03-13T11:07:22Z</time>
      </trkpt>
      <trkpt lat="42.85833" lon="0.91311">
        <ele>1674.777</ele>
        <time>2021-03-13T11:07:24Z</time>
      </trkpt>
      <trkpt lat="42.85833" lon="0.91311">
        <ele>1674.77</ele>
        <time>2021-03-13T11:07:26Z</time>
      </trkpt>
      <trkpt lat="42.85833" lon="0.91311">
        <ele>1674.761</ele>
        <time>2021-03-13T11:07:28Z</time>
      </trkpt>
      <trkpt lat="42.85833" lon="0.91311">
        <ele>1674.761</ele>
        <time>2021-03-13T11:07:30Z</time>
      </trkpt>
      <trkpt lat="42.85833" lon="0.91311">
        <ele>1674.758</ele>
        <time>2021-03-13T11:07:32Z</time>
      </trkpt>
      <trkpt lat="42.85833" lon="0.91311">
        <ele>1674.764</ele>
        <time>2021-03-13T11:07:34Z</time>
      </trkpt>
      <trkpt lat="42.85833" lon="0.91311">
        <ele>1674.771</ele>
        <time>2021-03-13T11:07:36Z</time>
      </trkpt>
      <trkpt lat="42.85833" lon="0.91311">
        <ele>1674.772</ele>
        <time>2021-03-13T11:07:38Z</time>
      </trkpt>
      <trkpt lat="42.85832" lon="0.91311">
        <ele>1674.564</ele>
        <time>2021-03-13T11:07:40Z</time>
      </trkpt>
      <trkpt lat="42.85832" lon="0.9131">
        <ele>1674.541</ele>
        <time>2021-03-13T11:07:42Z</time>
      </trkpt>
      <trkpt lat="42.85831" lon="0.91308">
        <ele>1674.51</ele>
        <time>2021-03-13T11:07:44Z</time>
      </trkpt>
      <trkpt lat="42.85831" lon="0.91307">
        <ele>1675.232</ele>
        <time>2021-03-13T11:07:46Z</time>
      </trkpt>
      <trkpt lat="42.8583" lon="0.91306">
        <ele>1673.71</ele>
        <time>2021-03-13T11:07:48Z</time>
      </trkpt>
      <trkpt lat="42.85831" lon="0.91305">
        <ele>1673.278</ele>
        <time>2021-03-13T11:07:50Z</time>
      </trkpt>
      <trkpt lat="42.85831" lon="0.91305">
        <ele>1673.277</ele>
        <time>2021-03-13T11:07:52Z</time>
      </trkpt>
      <trkpt lat="42.85831" lon="0.91305">
        <ele>1673.279</ele>
        <time>2021-03-13T11:07:54Z</time>
      </trkpt>
      <trkpt lat="42.85831" lon="0.91305">
        <ele>1673.282</ele>
        <time>2021-03-13T11:07:56Z</time>
      </trkpt>
      <trkpt lat="42.85831" lon="0.91305">
        <ele>1673.287</ele>
        <time>2021-03-13T11:07:58Z</time>
      </trkpt>
      <trkpt lat="42.85831" lon="0.91305">
        <ele>1673.293</ele>
        <time>2021-03-13T11:08:00Z</time>
      </trkpt>
      <trkpt lat="42.85831" lon="0.91305">
        <ele>1673.3</ele>
        <time>2021-03-13T11:08:02Z</time>
      </trkpt>
      <trkpt lat="42.85831" lon="0.91305">
        <ele>1673.308</ele>
        <time>2021-03-13T11:08:04Z</time>
      </trkpt>
      <trkpt lat="42.85831" lon="0.91305">
        <ele>1673.316</ele>
        <time>2021-03-13T11:08:06Z</time>
      </trkpt>
      <trkpt lat="42.85831" lon="0.91305">
        <ele>1673.322</ele>
        <time>2021-03-13T11:08:08Z</time>
      </trkpt>
      <trkpt lat="42.85831" lon="0.91305">
        <ele>1673.319</ele>
        <time>2021-03-13T11:08:10Z</time>
      </trkpt>
      <trkpt lat="42.85831" lon="0.91305">
        <ele>1673.316</ele>
        <time>2021-03-13T11:08:12Z</time>
      </trkpt>
      <trkpt lat="42.85831" lon="0.91305">
        <ele>1673.311</ele>
        <time>2021-03-13T11:08:14Z</time>
      </trkpt>
      <trkpt lat="42.85831" lon="0.91305">
        <ele>1673.305</ele>
        <time>2021-03-13T11:08:16Z</time>
      </trkpt>
      <trkpt lat="42.85831" lon="0.91306">
        <ele>1672.742</ele>
        <time>2021-03-13T11:08:18Z</time>
      </trkpt>
      <trkpt lat="42.85831" lon="0.91307">
        <ele>1672.171</ele>
        <time>2021-03-13T11:08:20Z</time>
      </trkpt>
      <trkpt lat="42.85834" lon="0.91305">
        <ele>1671.417</ele>
        <time>2021-03-13T11:08:22Z</time>
      </trkpt>
      <trkpt lat="42.85835" lon="0.91305">
        <ele>1671.608</ele>
        <time>2021-03-13T11:08:24Z</time>
      </trkpt>
      <trkpt lat="42.85835" lon="0.91303">
        <ele>1671.413</ele>
        <time>2021-03-13T11:08:26Z</time>
      </trkpt>
      <trkpt lat="42.85836" lon="0.91304">
        <ele>1671.388</ele>
        <time>2021-03-13T11:08:28Z</time>
      </trkpt>
      <trkpt lat="42.85837" lon="0.91305">
        <ele>1671.765</ele>
        <time>2021-03-13T11:08:30Z</time>
      </trkpt>
      <trkpt lat="42.85838" lon="0.91306">
        <ele>1672.302</ele>
        <time>2021-03-13T11:08:32Z</time>
      </trkpt>
      <trkpt lat="42.85841" lon="0.91307">
        <ele>1671.932</ele>
        <time>2021-03-13T11:08:34Z</time>
      </trkpt>
      <trkpt lat="42.85843" lon="0.91308">
        <ele>1673.527</ele>
        <time>2021-03-13T11:08:35Z</time>
      </trkpt>
      <trkpt lat="42.8584" lon="0.91307">
        <ele>1669.156</ele>
        <time>2021-03-13T11:08:38Z</time>
      </trkpt>
      <trkpt lat="42.8584" lon="0.91305">
        <ele>1669.433</ele>
        <time>2021-03-13T11:08:40Z</time>
      </trkpt>
      <trkpt lat="42.85839" lon="0.91305">
        <ele>1669.485</ele>
        <time>2021-03-13T11:08:42Z</time>
      </trkpt>
      <trkpt lat="42.85839" lon="0.91305">
        <ele>1669.496</ele>
        <time>2021-03-13T11:08:44Z</time>
      </trkpt>
      <trkpt lat="42.85839" lon="0.91305">
        <ele>1669.503</ele>
        <time>2021-03-13T11:08:46Z</time>
      </trkpt>
      <trkpt lat="42.85839" lon="0.91306">
        <ele>1669.475</ele>
        <time>2021-03-13T11:08:48Z</time>
      </trkpt>
      <trkpt lat="42.85839" lon="0.91307">
        <ele>1669.228</ele>
        <time>2021-03-13T11:08:50Z</time>
      </trkpt>
      <trkpt lat="42.8584" lon="0.91307">
        <ele>1669.238</ele>
        <time>2021-03-13T11:08:52Z</time>
      </trkpt>
      <trkpt lat="42.85839" lon="0.91307">
        <ele>1669.424</ele>
        <time>2021-03-13T11:08:54Z</time>
      </trkpt>
      <trkpt lat="42.85839" lon="0.91308">
        <ele>1669.425</ele>
        <time>2021-03-13T11:08:56Z</time>
      </trkpt>
      <trkpt lat="42.85839" lon="0.91308">
        <ele>1669.432</ele>
        <time>2021-03-13T11:08:58Z</time>
      </trkpt>
      <trkpt lat="42.85839" lon="0.91308">
        <ele>1669.43</ele>
        <time>2021-03-13T11:09:00Z</time>
      </trkpt>
      <trkpt lat="42.85839" lon="0.91308">
        <ele>1669.43</ele>
        <time>2021-03-13T11:09:02Z</time>
      </trkpt>
      <trkpt lat="42.85839" lon="0.91308">
        <ele>1669.434</ele>
        <time>2021-03-13T11:09:04Z</time>
      </trkpt>
      <trkpt lat="42.85839" lon="0.91308">
        <ele>1669.447</ele>
        <time>2021-03-13T11:09:06Z</time>
      </trkpt>
      <trkpt lat="42.85839" lon="0.91308">
        <ele>1669.449</ele>
        <time>2021-03-13T11:09:08Z</time>
      </trkpt>
      <trkpt lat="42.85839" lon="0.91308">
        <ele>1669.456</ele>
        <time>2021-03-13T11:09:10Z</time>
      </trkpt>
      <trkpt lat="42.85839" lon="0.91308">
        <ele>1669.455</ele>
        <time>2021-03-13T11:09:12Z</time>
      </trkpt>
      <trkpt lat="42.85839" lon="0.91308">
        <ele>1669.466</ele>
        <time>2021-03-13T11:09:14Z</time>
      </trkpt>
      <trkpt lat="42.85839" lon="0.91308">
        <ele>1669.477</ele>
        <time>2021-03-13T11:09:16Z</time>
      </trkpt>
      <trkpt lat="42.85839" lon="0.91308">
        <ele>1669.48</ele>
        <time>2021-03-13T11:09:18Z</time>
      </trkpt>
      <trkpt lat="42.85839" lon="0.91308">
        <ele>1669.486</ele>
        <time>2021-03-13T11:09:20Z</time>
      </trkpt>
      <trkpt lat="42.85839" lon="0.91308">
        <ele>1669.313</ele>
        <time>2021-03-13T11:09:22Z</time>
      </trkpt>
      <trkpt lat="42.8584" lon="0.91307">
        <ele>1669.083</ele>
        <time>2021-03-13T11:09:24Z</time>
      </trkpt>
      <trkpt lat="42.8584" lon="0.91307">
        <ele>1669.091</ele>
        <time>2021-03-13T11:09:26Z</time>
      </trkpt>
      <trkpt lat="42.8584" lon="0.91307">
        <ele>1669.182</ele>
        <time>2021-03-13T11:09:28Z</time>
      </trkpt>
      <trkpt lat="42.8584" lon="0.91307">
        <ele>1669.175</ele>
        <time>2021-03-13T11:09:30Z</time>
      </trkpt>
      <trkpt lat="42.8584" lon="0.91307">
        <ele>1669.175</ele>
        <time>2021-03-13T11:09:32Z</time>
      </trkpt>
      <trkpt lat="42.8584" lon="0.91307">
        <ele>1669.182</ele>
        <time>2021-03-13T11:09:34Z</time>
      </trkpt>
      <trkpt lat="42.8584" lon="0.91307">
        <ele>1669.187</ele>
        <time>2021-03-13T11:09:36Z</time>
      </trkpt>
      <trkpt lat="42.8584" lon="0.91307">
        <ele>1669.193</ele>
        <time>2021-03-13T11:09:38Z</time>
      </trkpt>
      <trkpt lat="42.8584" lon="0.91307">
        <ele>1669.197</ele>
        <time>2021-03-13T11:09:40Z</time>
      </trkpt>
      <trkpt lat="42.8584" lon="0.91307">
        <ele>1669.198</ele>
        <time>2021-03-13T11:09:42Z</time>
      </trkpt>
      <trkpt lat="42.8584" lon="0.91307">
        <ele>1669.2</ele>
        <time>2021-03-13T11:09:44Z</time>
      </trkpt>
      <trkpt lat="42.8584" lon="0.91307">
        <ele>1669.686</ele>
        <time>2021-03-13T11:09:46Z</time>
      </trkpt>
      <trkpt lat="42.8584" lon="0.91308">
        <ele>1669.716</ele>
        <time>2021-03-13T11:09:48Z</time>
      </trkpt>
      <trkpt lat="42.8584" lon="0.91308">
        <ele>1669.732</ele>
        <time>2021-03-13T11:09:50Z</time>
      </trkpt>
      <trkpt lat="42.85839" lon="0.91308">
        <ele>1669.652</ele>
        <time>2021-03-13T11:09:52Z</time>
      </trkpt>
      <trkpt lat="42.85839" lon="0.91308">
        <ele>1669.649</ele>
        <time>2021-03-13T11:09:54Z</time>
      </trkpt>
      <trkpt lat="42.85839" lon="0.91308">
        <ele>1669.652</ele>
        <time>2021-03-13T11:09:56Z</time>
      </trkpt>
      <trkpt lat="42.85839" lon="0.91308">
        <ele>1669.666</ele>
        <time>2021-03-13T11:09:58Z</time>
      </trkpt>
      <trkpt lat="42.85839" lon="0.91308">
        <ele>1669.676</ele>
        <time>2021-03-13T11:10:00Z</time>
      </trkpt>
      <trkpt lat="42.85839" lon="0.91309">
        <ele>1669.682</ele>
        <time>2021-03-13T11:10:02Z</time>
      </trkpt>
      <trkpt lat="42.85839" lon="0.91309">
        <ele>1669.68</ele>
        <time>2021-03-13T11:10:04Z</time>
      </trkpt>
      <trkpt lat="42.85839" lon="0.91309">
        <ele>1669.682</ele>
        <time>2021-03-13T11:10:06Z</time>
      </trkpt>
      <trkpt lat="42.85839" lon="0.91309">
        <ele>1669.68</ele>
        <time>2021-03-13T11:10:08Z</time>
      </trkpt>
      <trkpt lat="42.85839" lon="0.91309">
        <ele>1669.68</ele>
        <time>2021-03-13T11:10:10Z</time>
      </trkpt>
      <trkpt lat="42.85839" lon="0.91309">
        <ele>1669.678</ele>
        <time>2021-03-13T11:10:12Z</time>
      </trkpt>
      <trkpt lat="42.85839" lon="0.91309">
        <ele>1669.671</ele>
        <time>2021-03-13T11:10:14Z</time>
      </trkpt>
      <trkpt lat="42.85839" lon="0.91309">
        <ele>1669.665</ele>
        <time>2021-03-13T11:10:16Z</time>
      </trkpt>
      <trkpt lat="42.85839" lon="0.91309">
        <ele>1669.659</ele>
        <time>2021-03-13T11:10:18Z</time>
      </trkpt>
      <trkpt lat="42.85839" lon="0.91309">
        <ele>1669.654</ele>
        <time>2021-03-13T11:10:20Z</time>
      </trkpt>
      <trkpt lat="42.85839" lon="0.91309">
        <ele>1669.65</ele>
        <time>2021-03-13T11:10:22Z</time>
      </trkpt>
      <trkpt lat="42.85839" lon="0.91309">
        <ele>1669.653</ele>
        <time>2021-03-13T11:10:24Z</time>
      </trkpt>
      <trkpt lat="42.85839" lon="0.91309">
        <ele>1669.656</ele>
        <time>2021-03-13T11:10:26Z</time>
      </trkpt>
      <trkpt lat="42.85839" lon="0.91309">
        <ele>1669.66</ele>
        <time>2021-03-13T11:10:28Z</time>
      </trkpt>
      <trkpt lat="42.85839" lon="0.91309">
        <ele>1669.676</ele>
        <time>2021-03-13T11:10:30Z</time>
      </trkpt>
      <trkpt lat="42.85839" lon="0.91309">
        <ele>1669.689</ele>
        <time>2021-03-13T11:10:32Z</time>
      </trkpt>
      <trkpt lat="42.85839" lon="0.91309">
        <ele>1669.691</ele>
        <time>2021-03-13T11:10:34Z</time>
      </trkpt>
      <trkpt lat="42.85839" lon="0.91309">
        <ele>1669.7</ele>
        <time>2021-03-13T11:10:36Z</time>
      </trkpt>
      <trkpt lat="42.85839" lon="0.91309">
        <ele>1669.711</ele>
        <time>2021-03-13T11:10:38Z</time>
      </trkpt>
      <trkpt lat="42.85839" lon="0.91309">
        <ele>1669.715</ele>
        <time>2021-03-13T11:10:40Z</time>
      </trkpt>
      <trkpt lat="42.85839" lon="0.91309">
        <ele>1669.716</ele>
        <time>2021-03-13T11:10:42Z</time>
      </trkpt>
      <trkpt lat="42.85839" lon="0.91309">
        <ele>1669.723</ele>
        <time>2021-03-13T11:10:44Z</time>
      </trkpt>
      <trkpt lat="42.85839" lon="0.91309">
        <ele>1669.729</ele>
        <time>2021-03-13T11:10:46Z</time>
      </trkpt>
      <trkpt lat="42.85839" lon="0.91309">
        <ele>1669.731</ele>
        <time>2021-03-13T11:10:48Z</time>
      </trkpt>
      <trkpt lat="42.85839" lon="0.91309">
        <ele>1669.731</ele>
        <time>2021-03-13T11:10:50Z</time>
      </trkpt>
      <trkpt lat="42.85839" lon="0.91309">
        <ele>1670.2</ele>
        <time>2021-03-13T11:10:52Z</time>
      </trkpt>
      <trkpt lat="42.85839" lon="0.91309">
        <ele>1670.223</ele>
        <time>2021-03-13T11:10:54Z</time>
      </trkpt>
      <trkpt lat="42.85839" lon="0.91309">
        <ele>1670.569</ele>
        <time>2021-03-13T11:10:56Z</time>
      </trkpt>
      <trkpt lat="42.85839" lon="0.91309">
        <ele>1670.572</ele>
        <time>2021-03-13T11:10:58Z</time>
      </trkpt>
      <trkpt lat="42.85839" lon="0.91309">
        <ele>1670.575</ele>
        <time>2021-03-13T11:11:00Z</time>
      </trkpt>
      <trkpt lat="42.85839" lon="0.91309">
        <ele>1670.582</ele>
        <time>2021-03-13T11:11:02Z</time>
      </trkpt>
      <trkpt lat="42.85839" lon="0.91309">
        <ele>1670.585</ele>
        <time>2021-03-13T11:11:04Z</time>
      </trkpt>
      <trkpt lat="42.85839" lon="0.91309">
        <ele>1670.59</ele>
        <time>2021-03-13T11:11:06Z</time>
      </trkpt>
      <trkpt lat="42.85839" lon="0.91309">
        <ele>1670.594</ele>
        <time>2021-03-13T11:11:08Z</time>
      </trkpt>
      <trkpt lat="42.85839" lon="0.91309">
        <ele>1670.595</ele>
        <time>2021-03-13T11:11:10Z</time>
      </trkpt>
      <trkpt lat="42.85839" lon="0.9131">
        <ele>1670.223</ele>
        <time>2021-03-13T11:11:12Z</time>
      </trkpt>
      <trkpt lat="42.85838" lon="0.9131">
        <ele>1670.213</ele>
        <time>2021-03-13T11:11:14Z</time>
      </trkpt>
      <trkpt lat="42.85838" lon="0.9131">
        <ele>1670.073</ele>
        <time>2021-03-13T11:11:16Z</time>
      </trkpt>
      <trkpt lat="42.85837" lon="0.9131">
        <ele>1670.202</ele>
        <time>2021-03-13T11:11:18Z</time>
      </trkpt>
      <trkpt lat="42.85837" lon="0.91311">
        <ele>1670.375</ele>
        <time>2021-03-13T11:11:20Z</time>
      </trkpt>
      <trkpt lat="42.85836" lon="0.91312">
        <ele>1670.616</ele>
        <time>2021-03-13T11:11:22Z</time>
      </trkpt>
      <trkpt lat="42.85836" lon="0.91313">
        <ele>1671.301</ele>
        <time>2021-03-13T11:11:24Z</time>
      </trkpt>
      <trkpt lat="42.85836" lon="0.91313">
        <ele>1671.298</ele>
        <time>2021-03-13T11:11:26Z</time>
      </trkpt>
      <trkpt lat="42.85836" lon="0.91313">
        <ele>1671.306</ele>
        <time>2021-03-13T11:11:28Z</time>
      </trkpt>
      <trkpt lat="42.85836" lon="0.91313">
        <ele>1671.64</ele>
        <time>2021-03-13T11:11:30Z</time>
      </trkpt>
      <trkpt lat="42.85837" lon="0.91319">
        <ele>1672.803</ele>
        <time>2021-03-13T11:11:32Z</time>
      </trkpt>
      <trkpt lat="42.85837" lon="0.9132">
        <ele>1673.138</ele>
        <time>2021-03-13T11:11:34Z</time>
      </trkpt>
      <trkpt lat="42.85837" lon="0.91319">
        <ele>1673.366</ele>
        <time>2021-03-13T11:11:36Z</time>
      </trkpt>
      <trkpt lat="42.8584" lon="0.91313">
        <ele>1677.931</ele>
        <time>2021-03-13T11:11:38Z</time>
      </trkpt>
      <trkpt lat="42.85839" lon="0.91311">
        <ele>1677.516</ele>
        <time>2021-03-13T11:11:40Z</time>
      </trkpt>
      <trkpt lat="42.85837" lon="0.91311">
        <ele>1677.335</ele>
        <time>2021-03-13T11:11:42Z</time>
      </trkpt>
      <trkpt lat="42.85835" lon="0.91312">
        <ele>1677.3</ele>
        <time>2021-03-13T11:11:44Z</time>
      </trkpt>
      <trkpt lat="42.85833" lon="0.91311">
        <ele>1676.631</ele>
        <time>2021-03-13T11:11:46Z</time>
      </trkpt>
      <trkpt lat="42.85832" lon="0.91312">
        <ele>1676.35</ele>
        <time>2021-03-13T11:11:48Z</time>
      </trkpt>
      <trkpt lat="42.85833" lon="0.91313">
        <ele>1675.927</ele>
        <time>2021-03-13T11:11:50Z</time>
      </trkpt>
      <trkpt lat="42.85833" lon="0.91313">
        <ele>1675.927</ele>
        <time>2021-03-13T11:11:52Z</time>
      </trkpt>
      <trkpt lat="42.85833" lon="0.91313">
        <ele>1676.131</ele>
        <time>2021-03-13T11:11:54Z</time>
      </trkpt>
      <trkpt lat="42.85833" lon="0.91315">
        <ele>1675.749</ele>
        <time>2021-03-13T11:11:56Z</time>
      </trkpt>
      <trkpt lat="42.85833" lon="0.91316">
        <ele>1675.066</ele>
        <time>2021-03-13T11:11:58Z</time>
      </trkpt>
      <trkpt lat="42.85833" lon="0.91317">
        <ele>1674.973</ele>
        <time>2021-03-13T11:12:00Z</time>
      </trkpt>
      <trkpt lat="42.85832" lon="0.91317">
        <ele>1674.737</ele>
        <time>2021-03-13T11:12:02Z</time>
      </trkpt>
      <trkpt lat="42.85832" lon="0.91317">
        <ele>1674.732</ele>
        <time>2021-03-13T11:12:04Z</time>
      </trkpt>
      <trkpt lat="42.85833" lon="0.91319">
        <ele>1674.286</ele>
        <time>2021-03-13T11:12:06Z</time>
      </trkpt>
      <trkpt lat="42.85833" lon="0.91322">
        <ele>1674.255</ele>
        <time>2021-03-13T11:12:08Z</time>
      </trkpt>
      <trkpt lat="42.85834" lon="0.91325">
        <ele>1674.156</ele>
        <time>2021-03-13T11:12:10Z</time>
      </trkpt>
      <trkpt lat="42.85835" lon="0.91328">
        <ele>1674.048</ele>
        <time>2021-03-13T11:12:12Z</time>
      </trkpt>
      <trkpt lat="42.85836" lon="0.9133">
        <ele>1673.975</ele>
        <time>2021-03-13T11:12:14Z</time>
      </trkpt>
      <trkpt lat="42.85837" lon="0.91332">
        <ele>1673.75</ele>
        <time>2021-03-13T11:12:16Z</time>
      </trkpt>
      <trkpt lat="42.85838" lon="0.91335">
        <ele>1673.847</ele>
        <time>2021-03-13T11:12:18Z</time>
      </trkpt>
      <trkpt lat="42.85839" lon="0.91338">
        <ele>1672.905</ele>
        <time>2021-03-13T11:12:20Z</time>
      </trkpt>
      <trkpt lat="42.8584" lon="0.91339">
        <ele>1672.763</ele>
        <time>2021-03-13T11:12:22Z</time>
      </trkpt>
      <trkpt lat="42.85841" lon="0.91342">
        <ele>1673.771</ele>
        <time>2021-03-13T11:12:24Z</time>
      </trkpt>
      <trkpt lat="42.85841" lon="0.91343">
        <ele>1674.096</ele>
        <time>2021-03-13T11:12:26Z</time>
      </trkpt>
      <trkpt lat="42.8584" lon="0.91342">
        <ele>1674.368</ele>
        <time>2021-03-13T11:12:28Z</time>
      </trkpt>
      <trkpt lat="42.8584" lon="0.91342">
        <ele>1674.367</ele>
        <time>2021-03-13T11:12:30Z</time>
      </trkpt>
      <trkpt lat="42.8584" lon="0.91342">
        <ele>1674.366</ele>
        <time>2021-03-13T11:12:32Z</time>
      </trkpt>
      <trkpt lat="42.8584" lon="0.91342">
        <ele>1674.364</ele>
        <time>2021-03-13T11:12:34Z</time>
      </trkpt>
      <trkpt lat="42.8584" lon="0.91342">
        <ele>1674.364</ele>
        <time>2021-03-13T11:12:36Z</time>
      </trkpt>
      <trkpt lat="42.8584" lon="0.91342">
        <ele>1674.364</ele>
        <time>2021-03-13T11:12:38Z</time>
      </trkpt>
      <trkpt lat="42.8584" lon="0.91342">
        <ele>1674.373</ele>
        <time>2021-03-13T11:12:40Z</time>
      </trkpt>
      <trkpt lat="42.8584" lon="0.91342">
        <ele>1674.374</ele>
        <time>2021-03-13T11:12:42Z</time>
      </trkpt>
      <trkpt lat="42.8584" lon="0.91342">
        <ele>1674.372</ele>
        <time>2021-03-13T11:12:44Z</time>
      </trkpt>
      <trkpt lat="42.8584" lon="0.91342">
        <ele>1674.377</ele>
        <time>2021-03-13T11:12:46Z</time>
      </trkpt>
      <trkpt lat="42.8584" lon="0.91342">
        <ele>1674.376</ele>
        <time>2021-03-13T11:12:48Z</time>
      </trkpt>
      <trkpt lat="42.8584" lon="0.91342">
        <ele>1674.373</ele>
        <time>2021-03-13T11:12:50Z</time>
      </trkpt>
      <trkpt lat="42.8584" lon="0.91342">
        <ele>1674.366</ele>
        <time>2021-03-13T11:12:52Z</time>
      </trkpt>
      <trkpt lat="42.8584" lon="0.91342">
        <ele>1674.36</ele>
        <time>2021-03-13T11:12:54Z</time>
      </trkpt>
      <trkpt lat="42.8584" lon="0.91342">
        <ele>1674.358</ele>
        <time>2021-03-13T11:12:56Z</time>
      </trkpt>
      <trkpt lat="42.8584" lon="0.91342">
        <ele>1674.358</ele>
        <time>2021-03-13T11:12:58Z</time>
      </trkpt>
      <trkpt lat="42.8584" lon="0.91342">
        <ele>1674.362</ele>
        <time>2021-03-13T11:13:00Z</time>
      </trkpt>
      <trkpt lat="42.8584" lon="0.91342">
        <ele>1674.366</ele>
        <time>2021-03-13T11:13:02Z</time>
      </trkpt>
      <trkpt lat="42.8584" lon="0.91342">
        <ele>1674.37</ele>
        <time>2021-03-13T11:13:04Z</time>
      </trkpt>
      <trkpt lat="42.8584" lon="0.91342">
        <ele>1674.377</ele>
        <time>2021-03-13T11:13:06Z</time>
      </trkpt>
      <trkpt lat="42.8584" lon="0.91342">
        <ele>1674.384</ele>
        <time>2021-03-13T11:13:08Z</time>
      </trkpt>
      <trkpt lat="42.8584" lon="0.91342">
        <ele>1674.384</ele>
        <time>2021-03-13T11:13:10Z</time>
      </trkpt>
      <trkpt lat="42.8584" lon="0.91342">
        <ele>1674.385</ele>
        <time>2021-03-13T11:13:12Z</time>
      </trkpt>
      <trkpt lat="42.8584" lon="0.91342">
        <ele>1674.382</ele>
        <time>2021-03-13T11:13:14Z</time>
      </trkpt>
      <trkpt lat="42.8584" lon="0.91342">
        <ele>1674.375</ele>
        <time>2021-03-13T11:13:16Z</time>
      </trkpt>
      <trkpt lat="42.8584" lon="0.91342">
        <ele>1674.367</ele>
        <time>2021-03-13T11:13:18Z</time>
      </trkpt>
      <trkpt lat="42.8584" lon="0.91342">
        <ele>1674.256</ele>
        <time>2021-03-13T11:13:20Z</time>
      </trkpt>
      <trkpt lat="42.8584" lon="0.91342">
        <ele>1674.36</ele>
        <time>2021-03-13T11:13:22Z</time>
      </trkpt>
      <trkpt lat="42.85839" lon="0.91342">
        <ele>1674.492</ele>
        <time>2021-03-13T11:13:24Z</time>
      </trkpt>
      <trkpt lat="42.85838" lon="0.91341">
        <ele>1674.301</ele>
        <time>2021-03-13T11:13:26Z</time>
      </trkpt>
      <trkpt lat="42.85837" lon="0.91339">
        <ele>1674.649</ele>
        <time>2021-03-13T11:13:28Z</time>
      </trkpt>
      <trkpt lat="42.85836" lon="0.91337">
        <ele>1674.765</ele>
        <time>2021-03-13T11:13:30Z</time>
      </trkpt>
      <trkpt lat="42.85835" lon="0.91335">
        <ele>1674.734</ele>
        <time>2021-03-13T11:13:32Z</time>
      </trkpt>
      <trkpt lat="42.85833" lon="0.91333">
        <ele>1675.048</ele>
        <time>2021-03-13T11:13:34Z</time>
      </trkpt>
      <trkpt lat="42.85832" lon="0.91331">
        <ele>1675.178</ele>
        <time>2021-03-13T11:13:36Z</time>
      </trkpt>
      <trkpt lat="42.85831" lon="0.9133">
        <ele>1675.287</ele>
        <time>2021-03-13T11:13:38Z</time>
      </trkpt>
      <trkpt lat="42.85831" lon="0.91328">
        <ele>1675.261</ele>
        <time>2021-03-13T11:13:40Z</time>
      </trkpt>
      <trkpt lat="42.8583" lon="0.91326">
        <ele>1675.37</ele>
        <time>2021-03-13T11:13:42Z</time>
      </trkpt>
      <trkpt lat="42.85828" lon="0.91324">
        <ele>1675.674</ele>
        <time>2021-03-13T11:13:44Z</time>
      </trkpt>
      <trkpt lat="42.85827" lon="0.91322">
        <ele>1675.85</ele>
        <time>2021-03-13T11:13:46Z</time>
      </trkpt>
      <trkpt lat="42.85826" lon="0.9132">
        <ele>1676.161</ele>
        <time>2021-03-13T11:13:48Z</time>
      </trkpt>
      <trkpt lat="42.85825" lon="0.91318">
        <ele>1677.218</ele>
        <time>2021-03-13T11:13:50Z</time>
      </trkpt>
      <trkpt lat="42.85824" lon="0.91316">
        <ele>1677.347</ele>
        <time>2021-03-13T11:13:52Z</time>
      </trkpt>
      <trkpt lat="42.85824" lon="0.91314">
        <ele>1677.591</ele>
        <time>2021-03-13T11:13:54Z</time>
      </trkpt>
      <trkpt lat="42.85823" lon="0.91313">
        <ele>1677.942</ele>
        <time>2021-03-13T11:13:56Z</time>
      </trkpt>
      <trkpt lat="42.85823" lon="0.91311">
        <ele>1677.685</ele>
        <time>2021-03-13T11:13:58Z</time>
      </trkpt>
      <trkpt lat="42.85822" lon="0.9131">
        <ele>1677.915</ele>
        <time>2021-03-13T11:14:00Z</time>
      </trkpt>
      <trkpt lat="42.85821" lon="0.91308">
        <ele>1678.195</ele>
        <time>2021-03-13T11:14:02Z</time>
      </trkpt>
      <trkpt lat="42.85821" lon="0.91307">
        <ele>1678.32</ele>
        <time>2021-03-13T11:14:04Z</time>
      </trkpt>
      <trkpt lat="42.8582" lon="0.91305">
        <ele>1678.446</ele>
        <time>2021-03-13T11:14:06Z</time>
      </trkpt>
      <trkpt lat="42.8582" lon="0.91304">
        <ele>1679.126</ele>
        <time>2021-03-13T11:14:08Z</time>
      </trkpt>
      <trkpt lat="42.85821" lon="0.91303">
        <ele>1679.354</ele>
        <time>2021-03-13T11:14:10Z</time>
      </trkpt>
      <trkpt lat="42.85821" lon="0.91303">
        <ele>1679.357</ele>
        <time>2021-03-13T11:14:12Z</time>
      </trkpt>
      <trkpt lat="42.85821" lon="0.91303">
        <ele>1679.358</ele>
        <time>2021-03-13T11:14:14Z</time>
      </trkpt>
      <trkpt lat="42.85821" lon="0.91303">
        <ele>1679.357</ele>
        <time>2021-03-13T11:14:16Z</time>
      </trkpt>
      <trkpt lat="42.85821" lon="0.91302">
        <ele>1679.346</ele>
        <time>2021-03-13T11:14:18Z</time>
      </trkpt>
      <trkpt lat="42.85821" lon="0.91301">
        <ele>1678.89</ele>
        <time>2021-03-13T11:14:20Z</time>
      </trkpt>
      <trkpt lat="42.8582" lon="0.913">
        <ele>1678.918</ele>
        <time>2021-03-13T11:14:22Z</time>
      </trkpt>
      <trkpt lat="42.8582" lon="0.91299">
        <ele>1678.669</ele>
        <time>2021-03-13T11:14:24Z</time>
      </trkpt>
      <trkpt lat="42.8582" lon="0.91298">
        <ele>1678.849</ele>
        <time>2021-03-13T11:14:26Z</time>
      </trkpt>
      <trkpt lat="42.8582" lon="0.91298">
        <ele>1678.851</ele>
        <time>2021-03-13T11:14:28Z</time>
      </trkpt>
      <trkpt lat="42.8582" lon="0.91298">
        <ele>1678.851</ele>
        <time>2021-03-13T11:14:30Z</time>
      </trkpt>
      <trkpt lat="42.8582" lon="0.91298">
        <ele>1678.852</ele>
        <time>2021-03-13T11:14:32Z</time>
      </trkpt>
      <trkpt lat="42.8582" lon="0.91298">
        <ele>1678.854</ele>
        <time>2021-03-13T11:14:34Z</time>
      </trkpt>
      <trkpt lat="42.8582" lon="0.91298">
        <ele>1678.853</ele>
        <time>2021-03-13T11:14:36Z</time>
      </trkpt>
      <trkpt lat="42.8582" lon="0.91298">
        <ele>1678.853</ele>
        <time>2021-03-13T11:14:38Z</time>
      </trkpt>
      <trkpt lat="42.8582" lon="0.91298">
        <ele>1678.845</ele>
        <time>2021-03-13T11:14:40Z</time>
      </trkpt>
      <trkpt lat="42.8582" lon="0.91298">
        <ele>1678.843</ele>
        <time>2021-03-13T11:14:42Z</time>
      </trkpt>
      <trkpt lat="42.8582" lon="0.913">
        <ele>1678.463</ele>
        <time>2021-03-13T11:14:44Z</time>
      </trkpt>
      <trkpt lat="42.8582" lon="0.91301">
        <ele>1677.728</ele>
        <time>2021-03-13T11:14:46Z</time>
      </trkpt>
      <trkpt lat="42.8582" lon="0.91303">
        <ele>1677.07</ele>
        <time>2021-03-13T11:14:48Z</time>
      </trkpt>
      <trkpt lat="42.8582" lon="0.91305">
        <ele>1676.76</ele>
        <time>2021-03-13T11:14:50Z</time>
      </trkpt>
      <trkpt lat="42.85819" lon="0.91307">
        <ele>1676.724</ele>
        <time>2021-03-13T11:14:52Z</time>
      </trkpt>
      <trkpt lat="42.85819" lon="0.91309">
        <ele>1676.569</ele>
        <time>2021-03-13T11:14:54Z</time>
      </trkpt>
      <trkpt lat="42.85818" lon="0.91311">
        <ele>1676.132</ele>
        <time>2021-03-13T11:14:56Z</time>
      </trkpt>
      <trkpt lat="42.85817" lon="0.91313">
        <ele>1676.092</ele>
        <time>2021-03-13T11:14:58Z</time>
      </trkpt>
      <trkpt lat="42.85817" lon="0.91313">
        <ele>1676.257</ele>
        <time>2021-03-13T11:15:00Z</time>
      </trkpt>
      <trkpt lat="42.85817" lon="0.91313">
        <ele>1676.255</ele>
        <time>2021-03-13T11:15:02Z</time>
      </trkpt>
      <trkpt lat="42.85817" lon="0.91313">
        <ele>1676.265</ele>
        <time>2021-03-13T11:15:04Z</time>
      </trkpt>
      <trkpt lat="42.85818" lon="0.91314">
        <ele>1675.985</ele>
        <time>2021-03-13T11:15:06Z</time>
      </trkpt>
      <trkpt lat="42.85819" lon="0.91315">
        <ele>1675.474</ele>
        <time>2021-03-13T11:15:08Z</time>
      </trkpt>
      <trkpt lat="42.85819" lon="0.91315">
        <ele>1675.451</ele>
        <time>2021-03-13T11:15:10Z</time>
      </trkpt>
      <trkpt lat="42.85819" lon="0.91315">
        <ele>1675.443</ele>
        <time>2021-03-13T11:15:12Z</time>
      </trkpt>
      <trkpt lat="42.85819" lon="0.91315">
        <ele>1675.436</ele>
        <time>2021-03-13T11:15:14Z</time>
      </trkpt>
      <trkpt lat="42.85819" lon="0.91315">
        <ele>1675.43</ele>
        <time>2021-03-13T11:15:16Z</time>
      </trkpt>
      <trkpt lat="42.85819" lon="0.91315">
        <ele>1675.422</ele>
        <time>2021-03-13T11:15:18Z</time>
      </trkpt>
      <trkpt lat="42.85819" lon="0.91315">
        <ele>1675.421</ele>
        <time>2021-03-13T11:15:20Z</time>
      </trkpt>
      <trkpt lat="42.85819" lon="0.91315">
        <ele>1675.421</ele>
        <time>2021-03-13T11:15:22Z</time>
      </trkpt>
      <trkpt lat="42.85819" lon="0.91315">
        <ele>1675.418</ele>
        <time>2021-03-13T11:15:24Z</time>
      </trkpt>
      <trkpt lat="42.85819" lon="0.91315">
        <ele>1675.419</ele>
        <time>2021-03-13T11:15:26Z</time>
      </trkpt>
      <trkpt lat="42.85819" lon="0.91315">
        <ele>1675.417</ele>
        <time>2021-03-13T11:15:28Z</time>
      </trkpt>
      <trkpt lat="42.85819" lon="0.91315">
        <ele>1675.408</ele>
        <time>2021-03-13T11:15:30Z</time>
      </trkpt>
      <trkpt lat="42.85819" lon="0.91315">
        <ele>1675.403</ele>
        <time>2021-03-13T11:15:32Z</time>
      </trkpt>
      <trkpt lat="42.85819" lon="0.91315">
        <ele>1675.396</ele>
        <time>2021-03-13T11:15:34Z</time>
      </trkpt>
      <trkpt lat="42.85819" lon="0.91314">
        <ele>1675.442</ele>
        <time>2021-03-13T11:15:36Z</time>
      </trkpt>
      <trkpt lat="42.85819" lon="0.91313">
        <ele>1675.81</ele>
        <time>2021-03-13T11:15:38Z</time>
      </trkpt>
      <trkpt lat="42.85819" lon="0.91312">
        <ele>1675.812</ele>
        <time>2021-03-13T11:15:40Z</time>
      </trkpt>
      <trkpt lat="42.85819" lon="0.91312">
        <ele>1675.813</ele>
        <time>2021-03-13T11:15:42Z</time>
      </trkpt>
      <trkpt lat="42.85819" lon="0.91312">
        <ele>1675.812</ele>
        <time>2021-03-13T11:15:44Z</time>
      </trkpt>
      <trkpt lat="42.85819" lon="0.91312">
        <ele>1675.812</ele>
        <time>2021-03-13T11:15:46Z</time>
      </trkpt>
      <trkpt lat="42.85819" lon="0.91312">
        <ele>1675.813</ele>
        <time>2021-03-13T11:15:48Z</time>
      </trkpt>
      <trkpt lat="42.85819" lon="0.91312">
        <ele>1675.813</ele>
        <time>2021-03-13T11:15:50Z</time>
      </trkpt>
      <trkpt lat="42.85819" lon="0.91312">
        <ele>1675.811</ele>
        <time>2021-03-13T11:15:52Z</time>
      </trkpt>
      <trkpt lat="42.85819" lon="0.91312">
        <ele>1675.812</ele>
        <time>2021-03-13T11:15:54Z</time>
      </trkpt>
      <trkpt lat="42.85819" lon="0.91312">
        <ele>1675.813</ele>
        <time>2021-03-13T11:15:56Z</time>
      </trkpt>
      <trkpt lat="42.85819" lon="0.91312">
        <ele>1675.811</ele>
        <time>2021-03-13T11:15:58Z</time>
      </trkpt>
      <trkpt lat="42.85819" lon="0.91312">
        <ele>1675.81</ele>
        <time>2021-03-13T11:16:00Z</time>
      </trkpt>
      <trkpt lat="42.85819" lon="0.91312">
        <ele>1675.813</ele>
        <time>2021-03-13T11:16:02Z</time>
      </trkpt>
      <trkpt lat="42.85819" lon="0.91312">
        <ele>1675.814</ele>
        <time>2021-03-13T11:16:04Z</time>
      </trkpt>
      <trkpt lat="42.85819" lon="0.91312">
        <ele>1675.815</ele>
        <time>2021-03-13T11:16:06Z</time>
      </trkpt>
      <trkpt lat="42.85819" lon="0.91312">
        <ele>1675.816</ele>
        <time>2021-03-13T11:16:08Z</time>
      </trkpt>
      <trkpt lat="42.85819" lon="0.91312">
        <ele>1675.816</ele>
        <time>2021-03-13T11:16:10Z</time>
      </trkpt>
      <trkpt lat="42.85819" lon="0.91312">
        <ele>1675.817</ele>
        <time>2021-03-13T11:16:12Z</time>
      </trkpt>
      <trkpt lat="42.85819" lon="0.91312">
        <ele>1675.817</ele>
        <time>2021-03-13T11:16:14Z</time>
      </trkpt>
      <trkpt lat="42.85819" lon="0.91312">
        <ele>1675.818</ele>
        <time>2021-03-13T11:16:16Z</time>
      </trkpt>
      <trkpt lat="42.85819" lon="0.91312">
        <ele>1675.818</ele>
        <time>2021-03-13T11:16:18Z</time>
      </trkpt>
      <trkpt lat="42.85819" lon="0.91312">
        <ele>1675.817</ele>
        <time>2021-03-13T11:16:20Z</time>
      </trkpt>
      <trkpt lat="42.85819" lon="0.91312">
        <ele>1675.818</ele>
        <time>2021-03-13T11:16:22Z</time>
      </trkpt>
      <trkpt lat="42.85819" lon="0.91312">
        <ele>1675.817</ele>
        <time>2021-03-13T11:16:24Z</time>
      </trkpt>
      <trkpt lat="42.85819" lon="0.91312">
        <ele>1675.819</ele>
        <time>2021-03-13T11:16:26Z</time>
      </trkpt>
      <trkpt lat="42.85819" lon="0.91312">
        <ele>1675.818</ele>
        <time>2021-03-13T11:16:28Z</time>
      </trkpt>
      <trkpt lat="42.85819" lon="0.91312">
        <ele>1675.817</ele>
        <time>2021-03-13T11:16:30Z</time>
      </trkpt>
      <trkpt lat="42.85819" lon="0.91312">
        <ele>1675.815</ele>
        <time>2021-03-13T11:16:32Z</time>
      </trkpt>
      <trkpt lat="42.85819" lon="0.91312">
        <ele>1675.815</ele>
        <time>2021-03-13T11:16:34Z</time>
      </trkpt>
      <trkpt lat="42.85819" lon="0.91312">
        <ele>1675.816</ele>
        <time>2021-03-13T11:16:36Z</time>
      </trkpt>
      <trkpt lat="42.85819" lon="0.91312">
        <ele>1675.817</ele>
        <time>2021-03-13T11:16:38Z</time>
      </trkpt>
      <trkpt lat="42.85819" lon="0.91312">
        <ele>1675.815</ele>
        <time>2021-03-13T11:16:40Z</time>
      </trkpt>
      <trkpt lat="42.85819" lon="0.91312">
        <ele>1675.813</ele>
        <time>2021-03-13T11:16:42Z</time>
      </trkpt>
      <trkpt lat="42.85819" lon="0.91312">
        <ele>1675.814</ele>
        <time>2021-03-13T11:16:44Z</time>
      </trkpt>
      <trkpt lat="42.85819" lon="0.91312">
        <ele>1675.765</ele>
        <time>2021-03-13T11:16:46Z</time>
      </trkpt>
      <trkpt lat="42.85819" lon="0.91311">
        <ele>1675.651</ele>
        <time>2021-03-13T11:16:48Z</time>
      </trkpt>
      <trkpt lat="42.85819" lon="0.91311">
        <ele>1675.641</ele>
        <time>2021-03-13T11:16:50Z</time>
      </trkpt>
      <trkpt lat="42.85819" lon="0.91311">
        <ele>1675.639</ele>
        <time>2021-03-13T11:16:52Z</time>
      </trkpt>
      <trkpt lat="42.85819" lon="0.91311">
        <ele>1675.636</ele>
        <time>2021-03-13T11:16:54Z</time>
      </trkpt>
      <trkpt lat="42.85819" lon="0.91311">
        <ele>1675.633</ele>
        <time>2021-03-13T11:16:56Z</time>
      </trkpt>
      <trkpt lat="42.85819" lon="0.91311">
        <ele>1675.632</ele>
        <time>2021-03-13T11:16:58Z</time>
      </trkpt>
      <trkpt lat="42.85819" lon="0.91311">
        <ele>1675.631</ele>
        <time>2021-03-13T11:17:00Z</time>
      </trkpt>
      <trkpt lat="42.85819" lon="0.91311">
        <ele>1675.63</ele>
        <time>2021-03-13T11:17:02Z</time>
      </trkpt>
      <trkpt lat="42.85819" lon="0.91311">
        <ele>1675.63</ele>
        <time>2021-03-13T11:17:04Z</time>
      </trkpt>
      <trkpt lat="42.85819" lon="0.91311">
        <ele>1675.628</ele>
        <time>2021-03-13T11:17:06Z</time>
      </trkpt>
      <trkpt lat="42.85819" lon="0.91311">
        <ele>1675.629</ele>
        <time>2021-03-13T11:17:08Z</time>
      </trkpt>
      <trkpt lat="42.85819" lon="0.91311">
        <ele>1675.629</ele>
        <time>2021-03-13T11:17:10Z</time>
      </trkpt>
      <trkpt lat="42.85819" lon="0.91311">
        <ele>1675.627</ele>
        <time>2021-03-13T11:17:12Z</time>
      </trkpt>
      <trkpt lat="42.85819" lon="0.91311">
        <ele>1675.628</ele>
        <time>2021-03-13T11:17:14Z</time>
      </trkpt>
      <trkpt lat="42.85819" lon="0.91311">
        <ele>1675.626</ele>
        <time>2021-03-13T11:17:16Z</time>
      </trkpt>
      <trkpt lat="42.85819" lon="0.91311">
        <ele>1675.628</ele>
        <time>2021-03-13T11:17:18Z</time>
      </trkpt>
      <trkpt lat="42.85819" lon="0.91311">
        <ele>1675.627</ele>
        <time>2021-03-13T11:17:20Z</time>
      </trkpt>
      <trkpt lat="42.85819" lon="0.91311">
        <ele>1675.625</ele>
        <time>2021-03-13T11:17:22Z</time>
      </trkpt>
      <trkpt lat="42.85819" lon="0.91311">
        <ele>1675.625</ele>
        <time>2021-03-13T11:17:24Z</time>
      </trkpt>
      <trkpt lat="42.85819" lon="0.91311">
        <ele>1675.627</ele>
        <time>2021-03-13T11:17:26Z</time>
      </trkpt>
      <trkpt lat="42.85819" lon="0.91311">
        <ele>1675.623</ele>
        <time>2021-03-13T11:17:28Z</time>
      </trkpt>
      <trkpt lat="42.85817" lon="0.9131">
        <ele>1675.892</ele>
        <time>2021-03-13T11:17:30Z</time>
      </trkpt>
      <trkpt lat="42.85816" lon="0.9131">
        <ele>1677.077</ele>
        <time>2021-03-13T11:17:32Z</time>
      </trkpt>
      <trkpt lat="42.85816" lon="0.91309">
        <ele>1676.858</ele>
        <time>2021-03-13T11:17:34Z</time>
      </trkpt>
      <trkpt lat="42.85816" lon="0.91309">
        <ele>1676.854</ele>
        <time>2021-03-13T11:17:36Z</time>
      </trkpt>
      <trkpt lat="42.85816" lon="0.91309">
        <ele>1676.853</ele>
        <time>2021-03-13T11:17:38Z</time>
      </trkpt>
      <trkpt lat="42.85816" lon="0.91309">
        <ele>1676.849</ele>
        <time>2021-03-13T11:17:40Z</time>
      </trkpt>
      <trkpt lat="42.85816" lon="0.91309">
        <ele>1676.854</ele>
        <time>2021-03-13T11:17:42Z</time>
      </trkpt>
      <trkpt lat="42.85816" lon="0.91309">
        <ele>1676.859</ele>
        <time>2021-03-13T11:17:44Z</time>
      </trkpt>
      <trkpt lat="42.85816" lon="0.91309">
        <ele>1676.777</ele>
        <time>2021-03-13T11:17:46Z</time>
      </trkpt>
      <trkpt lat="42.85816" lon="0.91309">
        <ele>1676.773</ele>
        <time>2021-03-13T11:17:48Z</time>
      </trkpt>
      <trkpt lat="42.85816" lon="0.91309">
        <ele>1676.773</ele>
        <time>2021-03-13T11:17:50Z</time>
      </trkpt>
      <trkpt lat="42.85816" lon="0.91309">
        <ele>1676.773</ele>
        <time>2021-03-13T11:17:52Z</time>
      </trkpt>
      <trkpt lat="42.85816" lon="0.91309">
        <ele>1676.775</ele>
        <time>2021-03-13T11:17:54Z</time>
      </trkpt>
      <trkpt lat="42.85816" lon="0.91309">
        <ele>1676.778</ele>
        <time>2021-03-13T11:17:56Z</time>
      </trkpt>
      <trkpt lat="42.85816" lon="0.91309">
        <ele>1676.781</ele>
        <time>2021-03-13T11:17:58Z</time>
      </trkpt>
      <trkpt lat="42.85816" lon="0.91309">
        <ele>1676.782</ele>
        <time>2021-03-13T11:18:00Z</time>
      </trkpt>
      <trkpt lat="42.85816" lon="0.91309">
        <ele>1676.785</ele>
        <time>2021-03-13T11:18:02Z</time>
      </trkpt>
      <trkpt lat="42.85816" lon="0.91309">
        <ele>1676.785</ele>
        <time>2021-03-13T11:18:04Z</time>
      </trkpt>
      <trkpt lat="42.85816" lon="0.91309">
        <ele>1676.783</ele>
        <time>2021-03-13T11:18:06Z</time>
      </trkpt>
      <trkpt lat="42.85816" lon="0.91309">
        <ele>1676.783</ele>
        <time>2021-03-13T11:18:08Z</time>
      </trkpt>
      <trkpt lat="42.85816" lon="0.91309">
        <ele>1676.781</ele>
        <time>2021-03-13T11:18:10Z</time>
      </trkpt>
      <trkpt lat="42.85816" lon="0.91309">
        <ele>1676.78</ele>
        <time>2021-03-13T11:18:12Z</time>
      </trkpt>
      <trkpt lat="42.85816" lon="0.91309">
        <ele>1676.776</ele>
        <time>2021-03-13T11:18:14Z</time>
      </trkpt>
      <trkpt lat="42.85816" lon="0.91309">
        <ele>1676.778</ele>
        <time>2021-03-13T11:18:16Z</time>
      </trkpt>
      <trkpt lat="42.85816" lon="0.91309">
        <ele>1676.781</ele>
        <time>2021-03-13T11:18:18Z</time>
      </trkpt>
      <trkpt lat="42.85816" lon="0.91309">
        <ele>1676.783</ele>
        <time>2021-03-13T11:18:20Z</time>
      </trkpt>
      <trkpt lat="42.85816" lon="0.91309">
        <ele>1676.781</ele>
        <time>2021-03-13T11:18:22Z</time>
      </trkpt>
      <trkpt lat="42.85816" lon="0.91309">
        <ele>1676.778</ele>
        <time>2021-03-13T11:18:24Z</time>
      </trkpt>
      <trkpt lat="42.85817" lon="0.9131">
        <ele>1676.385</ele>
        <time>2021-03-13T11:18:26Z</time>
      </trkpt>
      <trkpt lat="42.85818" lon="0.9131">
        <ele>1676.498</ele>
        <time>2021-03-13T11:18:28Z</time>
      </trkpt>
      <trkpt lat="42.85819" lon="0.9131">
        <ele>1676.494</ele>
        <time>2021-03-13T11:18:30Z</time>
      </trkpt>
      <trkpt lat="42.8582" lon="0.91309">
        <ele>1676.537</ele>
        <time>2021-03-13T11:18:32Z</time>
      </trkpt>
      <trkpt lat="42.8582" lon="0.91309">
        <ele>1676.536</ele>
        <time>2021-03-13T11:18:34Z</time>
      </trkpt>
      <trkpt lat="42.8582" lon="0.91309">
        <ele>1676.534</ele>
        <time>2021-03-13T11:18:36Z</time>
      </trkpt>
      <trkpt lat="42.8582" lon="0.91309">
        <ele>1676.528</ele>
        <time>2021-03-13T11:18:38Z</time>
      </trkpt>
      <trkpt lat="42.8582" lon="0.91309">
        <ele>1676.522</ele>
        <time>2021-03-13T11:18:40Z</time>
      </trkpt>
      <trkpt lat="42.8582" lon="0.91309">
        <ele>1676.516</ele>
        <time>2021-03-13T11:18:42Z</time>
      </trkpt>
      <trkpt lat="42.8582" lon="0.91309">
        <ele>1676.509</ele>
        <time>2021-03-13T11:18:44Z</time>
      </trkpt>
      <trkpt lat="42.8582" lon="0.91309">
        <ele>1676.503</ele>
        <time>2021-03-13T11:18:46Z</time>
      </trkpt>
      <trkpt lat="42.8582" lon="0.91309">
        <ele>1676.496</ele>
        <time>2021-03-13T11:18:48Z</time>
      </trkpt>
      <trkpt lat="42.8582" lon="0.91309">
        <ele>1676.498</ele>
        <time>2021-03-13T11:18:50Z</time>
      </trkpt>
      <trkpt lat="42.8582" lon="0.91309">
        <ele>1676.499</ele>
        <time>2021-03-13T11:18:52Z</time>
      </trkpt>
      <trkpt lat="42.8582" lon="0.91309">
        <ele>1676.5</ele>
        <time>2021-03-13T11:18:54Z</time>
      </trkpt>
      <trkpt lat="42.8582" lon="0.91309">
        <ele>1676.391</ele>
        <time>2021-03-13T11:18:56Z</time>
      </trkpt>
      <trkpt lat="42.8582" lon="0.9131">
        <ele>1676.253</ele>
        <time>2021-03-13T11:18:58Z</time>
      </trkpt>
      <trkpt lat="42.8582" lon="0.9131">
        <ele>1676.25</ele>
        <time>2021-03-13T11:19:00Z</time>
      </trkpt>
      <trkpt lat="42.8582" lon="0.9131">
        <ele>1676.263</ele>
        <time>2021-03-13T11:19:02Z</time>
      </trkpt>
      <trkpt lat="42.8582" lon="0.9131">
        <ele>1676.258</ele>
        <time>2021-03-13T11:19:04Z</time>
      </trkpt>
      <trkpt lat="42.8582" lon="0.9131">
        <ele>1676.257</ele>
        <time>2021-03-13T11:19:06Z</time>
      </trkpt>
      <trkpt lat="42.8582" lon="0.9131">
        <ele>1676.257</ele>
        <time>2021-03-13T11:19:08Z</time>
      </trkpt>
      <trkpt lat="42.8582" lon="0.9131">
        <ele>1676.256</ele>
        <time>2021-03-13T11:19:10Z</time>
      </trkpt>
      <trkpt lat="42.8582" lon="0.9131">
        <ele>1676.253</ele>
        <time>2021-03-13T11:19:12Z</time>
      </trkpt>
      <trkpt lat="42.8582" lon="0.9131">
        <ele>1676.25</ele>
        <time>2021-03-13T11:19:14Z</time>
      </trkpt>
      <trkpt lat="42.8582" lon="0.9131">
        <ele>1676.248</ele>
        <time>2021-03-13T11:19:16Z</time>
      </trkpt>
      <trkpt lat="42.8582" lon="0.9131">
        <ele>1676.246</ele>
        <time>2021-03-13T11:19:18Z</time>
      </trkpt>
      <trkpt lat="42.8582" lon="0.9131">
        <ele>1676.243</ele>
        <time>2021-03-13T11:19:20Z</time>
      </trkpt>
      <trkpt lat="42.8582" lon="0.9131">
        <ele>1676.239</ele>
        <time>2021-03-13T11:19:22Z</time>
      </trkpt>
      <trkpt lat="42.8582" lon="0.9131">
        <ele>1676.238</ele>
        <time>2021-03-13T11:19:24Z</time>
      </trkpt>
      <trkpt lat="42.8582" lon="0.9131">
        <ele>1676.238</ele>
        <time>2021-03-13T11:19:26Z</time>
      </trkpt>
      <trkpt lat="42.8582" lon="0.9131">
        <ele>1676.238</ele>
        <time>2021-03-13T11:19:28Z</time>
      </trkpt>
      <trkpt lat="42.8582" lon="0.9131">
        <ele>1675.808</ele>
        <time>2021-03-13T11:19:30Z</time>
      </trkpt>
      <trkpt lat="42.8582" lon="0.9131">
        <ele>1675.799</ele>
        <time>2021-03-13T11:19:32Z</time>
      </trkpt>
      <trkpt lat="42.8582" lon="0.9131">
        <ele>1675.704</ele>
        <time>2021-03-13T11:19:34Z</time>
      </trkpt>
      <trkpt lat="42.8582" lon="0.9131">
        <ele>1675.697</ele>
        <time>2021-03-13T11:19:36Z</time>
      </trkpt>
      <trkpt lat="42.8582" lon="0.9131">
        <ele>1675.696</ele>
        <time>2021-03-13T11:19:38Z</time>
      </trkpt>
      <trkpt lat="42.8582" lon="0.9131">
        <ele>1675.692</ele>
        <time>2021-03-13T11:19:40Z</time>
      </trkpt>
      <trkpt lat="42.8582" lon="0.9131">
        <ele>1675.69</ele>
        <time>2021-03-13T11:19:42Z</time>
      </trkpt>
      <trkpt lat="42.8582" lon="0.9131">
        <ele>1675.688</ele>
        <time>2021-03-13T11:19:44Z</time>
      </trkpt>
      <trkpt lat="42.8582" lon="0.9131">
        <ele>1675.688</ele>
        <time>2021-03-13T11:19:46Z</time>
      </trkpt>
      <trkpt lat="42.8582" lon="0.9131">
        <ele>1675.687</ele>
        <time>2021-03-13T11:19:48Z</time>
      </trkpt>
      <trkpt lat="42.8582" lon="0.9131">
        <ele>1675.684</ele>
        <time>2021-03-13T11:19:50Z</time>
      </trkpt>
      <trkpt lat="42.8582" lon="0.9131">
        <ele>1675.68</ele>
        <time>2021-03-13T11:19:52Z</time>
      </trkpt>
      <trkpt lat="42.8582" lon="0.9131">
        <ele>1675.677</ele>
        <time>2021-03-13T11:19:54Z</time>
      </trkpt>
      <trkpt lat="42.8582" lon="0.9131">
        <ele>1675.241</ele>
        <time>2021-03-13T11:19:56Z</time>
      </trkpt>
      <trkpt lat="42.85821" lon="0.91311">
        <ele>1675.238</ele>
        <time>2021-03-13T11:19:58Z</time>
      </trkpt>
      <trkpt lat="42.85821" lon="0.91311">
        <ele>1675.236</ele>
        <time>2021-03-13T11:20:00Z</time>
      </trkpt>
      <trkpt lat="42.85821" lon="0.91311">
        <ele>1675.233</ele>
        <time>2021-03-13T11:20:02Z</time>
      </trkpt>
      <trkpt lat="42.85821" lon="0.91311">
        <ele>1675.232</ele>
        <time>2021-03-13T11:20:04Z</time>
      </trkpt>
      <trkpt lat="42.85821" lon="0.91311">
        <ele>1675.227</ele>
        <time>2021-03-13T11:20:06Z</time>
      </trkpt>
      <trkpt lat="42.85821" lon="0.91312">
        <ele>1674.968</ele>
        <time>2021-03-13T11:20:08Z</time>
      </trkpt>
      <trkpt lat="42.85821" lon="0.91312">
        <ele>1674.919</ele>
        <time>2021-03-13T11:20:10Z</time>
      </trkpt>
      <trkpt lat="42.85821" lon="0.91313">
        <ele>1674.017</ele>
        <time>2021-03-13T11:20:12Z</time>
      </trkpt>
      <trkpt lat="42.8582" lon="0.91315">
        <ele>1673.636</ele>
        <time>2021-03-13T11:20:14Z</time>
      </trkpt>
      <trkpt lat="42.8582" lon="0.91317">
        <ele>1673.141</ele>
        <time>2021-03-13T11:20:16Z</time>
      </trkpt>
      <trkpt lat="42.85819" lon="0.91319">
        <ele>1672.559</ele>
        <time>2021-03-13T11:20:18Z</time>
      </trkpt>
      <trkpt lat="42.85819" lon="0.91321">
        <ele>1672.422</ele>
        <time>2021-03-13T11:20:20Z</time>
      </trkpt>
      <trkpt lat="42.85819" lon="0.91322">
        <ele>1671.802</ele>
        <time>2021-03-13T11:20:22Z</time>
      </trkpt>
      <trkpt lat="42.85819" lon="0.91324">
        <ele>1671.543</ele>
        <time>2021-03-13T11:20:24Z</time>
      </trkpt>
      <trkpt lat="42.85818" lon="0.91325">
        <ele>1671.167</ele>
        <time>2021-03-13T11:20:26Z</time>
      </trkpt>
      <trkpt lat="42.85818" lon="0.91326">
        <ele>1670.841</ele>
        <time>2021-03-13T11:20:28Z</time>
      </trkpt>
      <trkpt lat="42.85818" lon="0.91327">
        <ele>1670.914</ele>
        <time>2021-03-13T11:20:30Z</time>
      </trkpt>
      <trkpt lat="42.85818" lon="0.91329">
        <ele>1670.91</ele>
        <time>2021-03-13T11:20:32Z</time>
      </trkpt>
      <trkpt lat="42.85818" lon="0.9133">
        <ele>1670.425</ele>
        <time>2021-03-13T11:20:34Z</time>
      </trkpt>
      <trkpt lat="42.85817" lon="0.91331">
        <ele>1670.373</ele>
        <time>2021-03-13T11:20:36Z</time>
      </trkpt>
      <trkpt lat="42.85817" lon="0.91332">
        <ele>1670.091</ele>
        <time>2021-03-13T11:20:38Z</time>
      </trkpt>
      <trkpt lat="42.85817" lon="0.91333">
        <ele>1670.157</ele>
        <time>2021-03-13T11:20:40Z</time>
      </trkpt>
      <trkpt lat="42.85817" lon="0.91334">
        <ele>1670.28</ele>
        <time>2021-03-13T11:20:42Z</time>
      </trkpt>
      <trkpt lat="42.85816" lon="0.91336">
        <ele>1670.379</ele>
        <time>2021-03-13T11:20:44Z</time>
      </trkpt>
      <trkpt lat="42.85817" lon="0.91337">
        <ele>1670.496</ele>
        <time>2021-03-13T11:20:46Z</time>
      </trkpt>
      <trkpt lat="42.85817" lon="0.91339">
        <ele>1670.072</ele>
        <time>2021-03-13T11:20:48Z</time>
      </trkpt>
      <trkpt lat="42.85816" lon="0.91339">
        <ele>1669.98</ele>
        <time>2021-03-13T11:20:50Z</time>
      </trkpt>
      <trkpt lat="42.85816" lon="0.9134">
        <ele>1669.794</ele>
        <time>2021-03-13T11:20:52Z</time>
      </trkpt>
      <trkpt lat="42.85815" lon="0.9134">
        <ele>1669.929</ele>
        <time>2021-03-13T11:20:54Z</time>
      </trkpt>
      <trkpt lat="42.85815" lon="0.91341">
        <ele>1669.324</ele>
        <time>2021-03-13T11:20:56Z</time>
      </trkpt>
      <trkpt lat="42.85815" lon="0.91341">
        <ele>1669.103</ele>
        <time>2021-03-13T11:20:58Z</time>
      </trkpt>
      <trkpt lat="42.85815" lon="0.91341">
        <ele>1668.69</ele>
        <time>2021-03-13T11:21:00Z</time>
      </trkpt>
      <trkpt lat="42.85813" lon="0.91342">
        <ele>1669.724</ele>
        <time>2021-03-13T11:21:02Z</time>
      </trkpt>
      <trkpt lat="42.85813" lon="0.91342">
        <ele>1669.719</ele>
        <time>2021-03-13T11:21:04Z</time>
      </trkpt>
      <trkpt lat="42.85813" lon="0.91343">
        <ele>1669.461</ele>
        <time>2021-03-13T11:21:06Z</time>
      </trkpt>
      <trkpt lat="42.85813" lon="0.91344">
        <ele>1669.373</ele>
        <time>2021-03-13T11:21:08Z</time>
      </trkpt>
      <trkpt lat="42.85813" lon="0.91344">
        <ele>1668.968</ele>
        <time>2021-03-13T11:21:10Z</time>
      </trkpt>
      <trkpt lat="42.85813" lon="0.91345">
        <ele>1668.817</ele>
        <time>2021-03-13T11:21:12Z</time>
      </trkpt>
      <trkpt lat="42.85813" lon="0.91347">
        <ele>1668.24</ele>
        <time>2021-03-13T11:21:14Z</time>
      </trkpt>
      <trkpt lat="42.85813" lon="0.91348">
        <ele>1667.913</ele>
        <time>2021-03-13T11:21:16Z</time>
      </trkpt>
      <trkpt lat="42.85813" lon="0.91348">
        <ele>1667.279</ele>
        <time>2021-03-13T11:21:18Z</time>
      </trkpt>
      <trkpt lat="42.85812" lon="0.91349">
        <ele>1667.04</ele>
        <time>2021-03-13T11:21:20Z</time>
      </trkpt>
      <trkpt lat="42.85811" lon="0.91348">
        <ele>1667.182</ele>
        <time>2021-03-13T11:21:22Z</time>
      </trkpt>
      <trkpt lat="42.85811" lon="0.91347">
        <ele>1667.658</ele>
        <time>2021-03-13T11:21:24Z</time>
      </trkpt>
      <trkpt lat="42.85811" lon="0.91347">
        <ele>1666.751</ele>
        <time>2021-03-13T11:21:26Z</time>
      </trkpt>
      <trkpt lat="42.8581" lon="0.91346">
        <ele>1665.883</ele>
        <time>2021-03-13T11:21:28Z</time>
      </trkpt>
      <trkpt lat="42.8581" lon="0.91345">
        <ele>1665.714</ele>
        <time>2021-03-13T11:21:30Z</time>
      </trkpt>
      <trkpt lat="42.85809" lon="0.91343">
        <ele>1665.091</ele>
        <time>2021-03-13T11:21:32Z</time>
      </trkpt>
      <trkpt lat="42.85809" lon="0.91342">
        <ele>1664.66</ele>
        <time>2021-03-13T11:21:34Z</time>
      </trkpt>
      <trkpt lat="42.85808" lon="0.91341">
        <ele>1663.884</ele>
        <time>2021-03-13T11:21:36Z</time>
      </trkpt>
      <trkpt lat="42.85807" lon="0.9134">
        <ele>1663.468</ele>
        <time>2021-03-13T11:21:38Z</time>
      </trkpt>
      <trkpt lat="42.85807" lon="0.91339">
        <ele>1663.066</ele>
        <time>2021-03-13T11:21:40Z</time>
      </trkpt>
      <trkpt lat="42.85806" lon="0.91337">
        <ele>1662.165</ele>
        <time>2021-03-13T11:21:42Z</time>
      </trkpt>
      <trkpt lat="42.85805" lon="0.91336">
        <ele>1661.521</ele>
        <time>2021-03-13T11:21:44Z</time>
      </trkpt>
      <trkpt lat="42.85805" lon="0.91335">
        <ele>1661.246</ele>
        <time>2021-03-13T11:21:46Z</time>
      </trkpt>
      <trkpt lat="42.85804" lon="0.91333">
        <ele>1661.09</ele>
        <time>2021-03-13T11:21:48Z</time>
      </trkpt>
      <trkpt lat="42.85803" lon="0.91333">
        <ele>1660.603</ele>
        <time>2021-03-13T11:21:50Z</time>
      </trkpt>
      <trkpt lat="42.85802" lon="0.91333">
        <ele>1659.909</ele>
        <time>2021-03-13T11:21:52Z</time>
      </trkpt>
      <trkpt lat="42.85801" lon="0.91332">
        <ele>1659.253</ele>
        <time>2021-03-13T11:21:54Z</time>
      </trkpt>
      <trkpt lat="42.858" lon="0.91332">
        <ele>1659.365</ele>
        <time>2021-03-13T11:21:56Z</time>
      </trkpt>
      <trkpt lat="42.85799" lon="0.91331">
        <ele>1659.87</ele>
        <time>2021-03-13T11:21:58Z</time>
      </trkpt>
      <trkpt lat="42.85798" lon="0.91331">
        <ele>1659.555</ele>
        <time>2021-03-13T11:22:00Z</time>
      </trkpt>
      <trkpt lat="42.85797" lon="0.9133">
        <ele>1660.38</ele>
        <time>2021-03-13T11:22:02Z</time>
      </trkpt>
      <trkpt lat="42.85796" lon="0.91329">
        <ele>1660.738</ele>
        <time>2021-03-13T11:22:04Z</time>
      </trkpt>
      <trkpt lat="42.85796" lon="0.91329">
        <ele>1660.294</ele>
        <time>2021-03-13T11:22:06Z</time>
      </trkpt>
      <trkpt lat="42.85795" lon="0.91328">
        <ele>1659.866</ele>
        <time>2021-03-13T11:22:08Z</time>
      </trkpt>
      <trkpt lat="42.85794" lon="0.91326">
        <ele>1659.426</ele>
        <time>2021-03-13T11:22:10Z</time>
      </trkpt>
      <trkpt lat="42.85794" lon="0.91327">
        <ele>1659.341</ele>
        <time>2021-03-13T11:22:12Z</time>
      </trkpt>
      <trkpt lat="42.85793" lon="0.91327">
        <ele>1659.813</ele>
        <time>2021-03-13T11:22:14Z</time>
      </trkpt>
      <trkpt lat="42.85794" lon="0.91328">
        <ele>1657.661</ele>
        <time>2021-03-13T11:22:16Z</time>
      </trkpt>
      <trkpt lat="42.85793" lon="0.91328">
        <ele>1658.334</ele>
        <time>2021-03-13T11:22:18Z</time>
      </trkpt>
      <trkpt lat="42.85792" lon="0.91328">
        <ele>1658.201</ele>
        <time>2021-03-13T11:22:20Z</time>
      </trkpt>
      <trkpt lat="42.85792" lon="0.91327">
        <ele>1658.637</ele>
        <time>2021-03-13T11:22:22Z</time>
      </trkpt>
      <trkpt lat="42.85791" lon="0.91327">
        <ele>1658.133</ele>
        <time>2021-03-13T11:22:24Z</time>
      </trkpt>
      <trkpt lat="42.85791" lon="0.91327">
        <ele>1657.936</ele>
        <time>2021-03-13T11:22:26Z</time>
      </trkpt>
      <trkpt lat="42.8579" lon="0.91326">
        <ele>1658.869</ele>
        <time>2021-03-13T11:22:28Z</time>
      </trkpt>
      <trkpt lat="42.85789" lon="0.91326">
        <ele>1659.178</ele>
        <time>2021-03-13T11:22:30Z</time>
      </trkpt>
      <trkpt lat="42.85789" lon="0.91326">
        <ele>1659.083</ele>
        <time>2021-03-13T11:22:32Z</time>
      </trkpt>
      <trkpt lat="42.85789" lon="0.91325">
        <ele>1659.609</ele>
        <time>2021-03-13T11:22:34Z</time>
      </trkpt>
      <trkpt lat="42.85788" lon="0.91324">
        <ele>1658.504</ele>
        <time>2021-03-13T11:22:36Z</time>
      </trkpt>
      <trkpt lat="42.85787" lon="0.91323">
        <ele>1658.121</ele>
        <time>2021-03-13T11:22:38Z</time>
      </trkpt>
      <trkpt lat="42.85787" lon="0.91321">
        <ele>1657.81</ele>
        <time>2021-03-13T11:22:40Z</time>
      </trkpt>
      <trkpt lat="42.85786" lon="0.91321">
        <ele>1657.457</ele>
        <time>2021-03-13T11:22:42Z</time>
      </trkpt>
      <trkpt lat="42.85785" lon="0.9132">
        <ele>1657.038</ele>
        <time>2021-03-13T11:22:44Z</time>
      </trkpt>
      <trkpt lat="42.85784" lon="0.9132">
        <ele>1656.221</ele>
        <time>2021-03-13T11:22:46Z</time>
      </trkpt>
      <trkpt lat="42.85784" lon="0.9132">
        <ele>1655.727</ele>
        <time>2021-03-13T11:22:48Z</time>
      </trkpt>
      <trkpt lat="42.85783" lon="0.91319">
        <ele>1655.604</ele>
        <time>2021-03-13T11:22:50Z</time>
      </trkpt>
      <trkpt lat="42.85782" lon="0.91318">
        <ele>1655.677</ele>
        <time>2021-03-13T11:22:52Z</time>
      </trkpt>
      <trkpt lat="42.85782" lon="0.91317">
        <ele>1654.663</ele>
        <time>2021-03-13T11:22:54Z</time>
      </trkpt>
      <trkpt lat="42.85781" lon="0.91316">
        <ele>1653.122</ele>
        <time>2021-03-13T11:22:56Z</time>
      </trkpt>
      <trkpt lat="42.8578" lon="0.91315">
        <ele>1652.89</ele>
        <time>2021-03-13T11:22:58Z</time>
      </trkpt>
      <trkpt lat="42.85779" lon="0.91315">
        <ele>1652.447</ele>
        <time>2021-03-13T11:23:00Z</time>
      </trkpt>
      <trkpt lat="42.85779" lon="0.91314">
        <ele>1650.758</ele>
        <time>2021-03-13T11:23:02Z</time>
      </trkpt>
      <trkpt lat="42.85778" lon="0.91313">
        <ele>1650.571</ele>
        <time>2021-03-13T11:23:04Z</time>
      </trkpt>
      <trkpt lat="42.85778" lon="0.91312">
        <ele>1651.19</ele>
        <time>2021-03-13T11:23:06Z</time>
      </trkpt>
      <trkpt lat="42.85777" lon="0.91311">
        <ele>1651.679</ele>
        <time>2021-03-13T11:23:08Z</time>
      </trkpt>
      <trkpt lat="42.85777" lon="0.91312">
        <ele>1650.367</ele>
        <time>2021-03-13T11:23:10Z</time>
      </trkpt>
      <trkpt lat="42.85777" lon="0.91313">
        <ele>1649.823</ele>
        <time>2021-03-13T11:23:11Z</time>
      </trkpt>
      <trkpt lat="42.85777" lon="0.91315">
        <ele>1648.942</ele>
        <time>2021-03-13T11:23:14Z</time>
      </trkpt>
      <trkpt lat="42.85777" lon="0.91315">
        <ele>1648.896</ele>
        <time>2021-03-13T11:23:16Z</time>
      </trkpt>
      <trkpt lat="42.85776" lon="0.91315">
        <ele>1648.891</ele>
        <time>2021-03-13T11:23:18Z</time>
      </trkpt>
      <trkpt lat="42.85776" lon="0.91315">
        <ele>1648.715</ele>
        <time>2021-03-13T11:23:20Z</time>
      </trkpt>
      <trkpt lat="42.85774" lon="0.91316">
        <ele>1648.006</ele>
        <time>2021-03-13T11:23:22Z</time>
      </trkpt>
      <trkpt lat="42.85774" lon="0.91316">
        <ele>1647.916</ele>
        <time>2021-03-13T11:23:24Z</time>
      </trkpt>
      <trkpt lat="42.85774" lon="0.91316">
        <ele>1648.189</ele>
        <time>2021-03-13T11:23:26Z</time>
      </trkpt>
      <trkpt lat="42.85773" lon="0.91315">
        <ele>1648.502</ele>
        <time>2021-03-13T11:23:28Z</time>
      </trkpt>
      <trkpt lat="42.85773" lon="0.91315">
        <ele>1648.226</ele>
        <time>2021-03-13T11:23:30Z</time>
      </trkpt>
      <trkpt lat="42.85773" lon="0.91315">
        <ele>1647.604</ele>
        <time>2021-03-13T11:23:32Z</time>
      </trkpt>
      <trkpt lat="42.85773" lon="0.91315">
        <ele>1646.992</ele>
        <time>2021-03-13T11:23:34Z</time>
      </trkpt>
      <trkpt lat="42.85772" lon="0.91314">
        <ele>1646.493</ele>
        <time>2021-03-13T11:23:36Z</time>
      </trkpt>
      <trkpt lat="42.85771" lon="0.91314">
        <ele>1644.676</ele>
        <time>2021-03-13T11:23:38Z</time>
      </trkpt>
      <trkpt lat="42.8577" lon="0.91313">
        <ele>1644.224</ele>
        <time>2021-03-13T11:23:40Z</time>
      </trkpt>
      <trkpt lat="42.8577" lon="0.91312">
        <ele>1643.97</ele>
        <time>2021-03-13T11:23:42Z</time>
      </trkpt>
      <trkpt lat="42.85769" lon="0.91312">
        <ele>1643.524</ele>
        <time>2021-03-13T11:23:44Z</time>
      </trkpt>
      <trkpt lat="42.85769" lon="0.91311">
        <ele>1643.141</ele>
        <time>2021-03-13T11:23:46Z</time>
      </trkpt>
      <trkpt lat="42.85769" lon="0.91309">
        <ele>1642.306</ele>
        <time>2021-03-13T11:23:48Z</time>
      </trkpt>
      <trkpt lat="42.85768" lon="0.91308">
        <ele>1641.864</ele>
        <time>2021-03-13T11:23:50Z</time>
      </trkpt>
      <trkpt lat="42.85767" lon="0.91307">
        <ele>1641.619</ele>
        <time>2021-03-13T11:23:52Z</time>
      </trkpt>
      <trkpt lat="42.85766" lon="0.91306">
        <ele>1642.309</ele>
        <time>2021-03-13T11:23:54Z</time>
      </trkpt>
      <trkpt lat="42.85766" lon="0.91306">
        <ele>1642.354</ele>
        <time>2021-03-13T11:23:56Z</time>
      </trkpt>
      <trkpt lat="42.85765" lon="0.91307">
        <ele>1641.572</ele>
        <time>2021-03-13T11:23:58Z</time>
      </trkpt>
      <trkpt lat="42.85766" lon="0.91307">
        <ele>1641.569</ele>
        <time>2021-03-13T11:24:00Z</time>
      </trkpt>
      <trkpt lat="42.85765" lon="0.91307">
        <ele>1641.338</ele>
        <time>2021-03-13T11:24:02Z</time>
      </trkpt>
      <trkpt lat="42.85765" lon="0.91307">
        <ele>1640.969</ele>
        <time>2021-03-13T11:24:04Z</time>
      </trkpt>
      <trkpt lat="42.85764" lon="0.91308">
        <ele>1640.021</ele>
        <time>2021-03-13T11:24:06Z</time>
      </trkpt>
      <trkpt lat="42.85764" lon="0.91309">
        <ele>1640.075</ele>
        <time>2021-03-13T11:24:08Z</time>
      </trkpt>
      <trkpt lat="42.85764" lon="0.91309">
        <ele>1640.073</ele>
        <time>2021-03-13T11:24:10Z</time>
      </trkpt>
      <trkpt lat="42.85764" lon="0.91309">
        <ele>1640.066</ele>
        <time>2021-03-13T11:24:12Z</time>
      </trkpt>
      <trkpt lat="42.85764" lon="0.91309">
        <ele>1639.854</ele>
        <time>2021-03-13T11:24:14Z</time>
      </trkpt>
      <trkpt lat="42.85764" lon="0.91309">
        <ele>1639.465</ele>
        <time>2021-03-13T11:24:16Z</time>
      </trkpt>
      <trkpt lat="42.85764" lon="0.9131">
        <ele>1638.768</ele>
        <time>2021-03-13T11:24:18Z</time>
      </trkpt>
      <trkpt lat="42.85764" lon="0.9131">
        <ele>1638.284</ele>
        <time>2021-03-13T11:24:20Z</time>
      </trkpt>
      <trkpt lat="42.85764" lon="0.91311">
        <ele>1637.931</ele>
        <time>2021-03-13T11:24:22Z</time>
      </trkpt>
      <trkpt lat="42.85763" lon="0.91312">
        <ele>1637.613</ele>
        <time>2021-03-13T11:24:24Z</time>
      </trkpt>
      <trkpt lat="42.85762" lon="0.91312">
        <ele>1637.454</ele>
        <time>2021-03-13T11:24:26Z</time>
      </trkpt>
      <trkpt lat="42.85762" lon="0.91311">
        <ele>1636.788</ele>
        <time>2021-03-13T11:24:28Z</time>
      </trkpt>
      <trkpt lat="42.85762" lon="0.91311">
        <ele>1636.5</ele>
        <time>2021-03-13T11:24:30Z</time>
      </trkpt>
      <trkpt lat="42.85761" lon="0.9131">
        <ele>1636.855</ele>
        <time>2021-03-13T11:24:32Z</time>
      </trkpt>
      <trkpt lat="42.85761" lon="0.91309">
        <ele>1636.69</ele>
        <time>2021-03-13T11:24:34Z</time>
      </trkpt>
      <trkpt lat="42.8576" lon="0.91309">
        <ele>1636.704</ele>
        <time>2021-03-13T11:24:36Z</time>
      </trkpt>
      <trkpt lat="42.8576" lon="0.91309">
        <ele>1636.536</ele>
        <time>2021-03-13T11:24:38Z</time>
      </trkpt>
      <trkpt lat="42.8576" lon="0.91308">
        <ele>1636.476</ele>
        <time>2021-03-13T11:24:40Z</time>
      </trkpt>
      <trkpt lat="42.85758" lon="0.91308">
        <ele>1636.76</ele>
        <time>2021-03-13T11:24:42Z</time>
      </trkpt>
      <trkpt lat="42.85758" lon="0.91307">
        <ele>1636.482</ele>
        <time>2021-03-13T11:24:44Z</time>
      </trkpt>
      <trkpt lat="42.85757" lon="0.91308">
        <ele>1635.157</ele>
        <time>2021-03-13T11:24:46Z</time>
      </trkpt>
      <trkpt lat="42.85756" lon="0.91308">
        <ele>1635.195</ele>
        <time>2021-03-13T11:24:48Z</time>
      </trkpt>
      <trkpt lat="42.85755" lon="0.91307">
        <ele>1634.977</ele>
        <time>2021-03-13T11:24:50Z</time>
      </trkpt>
      <trkpt lat="42.85755" lon="0.91307">
        <ele>1634.572</ele>
        <time>2021-03-13T11:24:52Z</time>
      </trkpt>
      <trkpt lat="42.85754" lon="0.91306">
        <ele>1634.671</ele>
        <time>2021-03-13T11:24:54Z</time>
      </trkpt>
      <trkpt lat="42.85754" lon="0.91305">
        <ele>1635.237</ele>
        <time>2021-03-13T11:24:56Z</time>
      </trkpt>
      <trkpt lat="42.85753" lon="0.91305">
        <ele>1634.948</ele>
        <time>2021-03-13T11:24:58Z</time>
      </trkpt>
      <trkpt lat="42.85752" lon="0.91304">
        <ele>1634.802</ele>
        <time>2021-03-13T11:25:00Z</time>
      </trkpt>
      <trkpt lat="42.85752" lon="0.91303">
        <ele>1634.732</ele>
        <time>2021-03-13T11:25:02Z</time>
      </trkpt>
      <trkpt lat="42.85751" lon="0.91302">
        <ele>1634.113</ele>
        <time>2021-03-13T11:25:04Z</time>
      </trkpt>
      <trkpt lat="42.8575" lon="0.91301">
        <ele>1633.617</ele>
        <time>2021-03-13T11:25:06Z</time>
      </trkpt>
      <trkpt lat="42.85749" lon="0.91299">
        <ele>1633.747</ele>
        <time>2021-03-13T11:25:08Z</time>
      </trkpt>
      <trkpt lat="42.85749" lon="0.91298">
        <ele>1633.478</ele>
        <time>2021-03-13T11:25:10Z</time>
      </trkpt>
      <trkpt lat="42.85748" lon="0.91297">
        <ele>1633.153</ele>
        <time>2021-03-13T11:25:12Z</time>
      </trkpt>
      <trkpt lat="42.85747" lon="0.91296">
        <ele>1633.033</ele>
        <time>2021-03-13T11:25:14Z</time>
      </trkpt>
      <trkpt lat="42.85746" lon="0.91295">
        <ele>1632.184</ele>
        <time>2021-03-13T11:25:16Z</time>
      </trkpt>
      <trkpt lat="42.85745" lon="0.91293">
        <ele>1631.513</ele>
        <time>2021-03-13T11:25:18Z</time>
      </trkpt>
      <trkpt lat="42.85745" lon="0.91292">
        <ele>1631.415</ele>
        <time>2021-03-13T11:25:20Z</time>
      </trkpt>
      <trkpt lat="42.85744" lon="0.9129">
        <ele>1631.407</ele>
        <time>2021-03-13T11:25:22Z</time>
      </trkpt>
      <trkpt lat="42.85742" lon="0.91289">
        <ele>1631.562</ele>
        <time>2021-03-13T11:25:24Z</time>
      </trkpt>
      <trkpt lat="42.85741" lon="0.91289">
        <ele>1631.19</ele>
        <time>2021-03-13T11:25:26Z</time>
      </trkpt>
      <trkpt lat="42.8574" lon="0.9129">
        <ele>1629.536</ele>
        <time>2021-03-13T11:25:28Z</time>
      </trkpt>
      <trkpt lat="42.85739" lon="0.91288">
        <ele>1632.018</ele>
        <time>2021-03-13T11:25:30Z</time>
      </trkpt>
      <trkpt lat="42.85738" lon="0.91287">
        <ele>1632.118</ele>
        <time>2021-03-13T11:25:32Z</time>
      </trkpt>
      <trkpt lat="42.85737" lon="0.91287">
        <ele>1631.219</ele>
        <time>2021-03-13T11:25:34Z</time>
      </trkpt>
      <trkpt lat="42.85736" lon="0.91287">
        <ele>1631.061</ele>
        <time>2021-03-13T11:25:36Z</time>
      </trkpt>
      <trkpt lat="42.85735" lon="0.91285">
        <ele>1630.705</ele>
        <time>2021-03-13T11:25:38Z</time>
      </trkpt>
      <trkpt lat="42.85735" lon="0.91284">
        <ele>1630.454</ele>
        <time>2021-03-13T11:25:40Z</time>
      </trkpt>
      <trkpt lat="42.85734" lon="0.91283">
        <ele>1630.18</ele>
        <time>2021-03-13T11:25:42Z</time>
      </trkpt>
      <trkpt lat="42.85733" lon="0.91283">
        <ele>1629.296</ele>
        <time>2021-03-13T11:25:44Z</time>
      </trkpt>
      <trkpt lat="42.85733" lon="0.91283">
        <ele>1628.41</ele>
        <time>2021-03-13T11:25:46Z</time>
      </trkpt>
      <trkpt lat="42.85732" lon="0.91282">
        <ele>1627.943</ele>
        <time>2021-03-13T11:25:48Z</time>
      </trkpt>
      <trkpt lat="42.85732" lon="0.91281">
        <ele>1627.317</ele>
        <time>2021-03-13T11:25:50Z</time>
      </trkpt>
      <trkpt lat="42.85731" lon="0.9128">
        <ele>1627.068</ele>
        <time>2021-03-13T11:25:53Z</time>
      </trkpt>
      <trkpt lat="42.8573" lon="0.91279">
        <ele>1626.352</ele>
        <time>2021-03-13T11:25:55Z</time>
      </trkpt>
      <trkpt lat="42.8573" lon="0.91279">
        <ele>1624.904</ele>
        <time>2021-03-13T11:25:57Z</time>
      </trkpt>
      <trkpt lat="42.85729" lon="0.91278">
        <ele>1625.074</ele>
        <time>2021-03-13T11:25:59Z</time>
      </trkpt>
      <trkpt lat="42.85729" lon="0.91276">
        <ele>1624.78</ele>
        <time>2021-03-13T11:26:01Z</time>
      </trkpt>
      <trkpt lat="42.85728" lon="0.91275">
        <ele>1624.576</ele>
        <time>2021-03-13T11:26:03Z</time>
      </trkpt>
      <trkpt lat="42.85728" lon="0.91274">
        <ele>1624.158</ele>
        <time>2021-03-13T11:26:05Z</time>
      </trkpt>
      <trkpt lat="42.85727" lon="0.91273">
        <ele>1624.227</ele>
        <time>2021-03-13T11:26:07Z</time>
      </trkpt>
      <trkpt lat="42.85726" lon="0.91272">
        <ele>1623.395</ele>
        <time>2021-03-13T11:26:09Z</time>
      </trkpt>
      <trkpt lat="42.85725" lon="0.91271">
        <ele>1622.421</ele>
        <time>2021-03-13T11:26:11Z</time>
      </trkpt>
      <trkpt lat="42.85724" lon="0.9127">
        <ele>1622.384</ele>
        <time>2021-03-13T11:26:13Z</time>
      </trkpt>
      <trkpt lat="42.85723" lon="0.91269">
        <ele>1621.848</ele>
        <time>2021-03-13T11:26:15Z</time>
      </trkpt>
      <trkpt lat="42.85723" lon="0.91267">
        <ele>1621.757</ele>
        <time>2021-03-13T11:26:17Z</time>
      </trkpt>
      <trkpt lat="42.85722" lon="0.91266">
        <ele>1621.805</ele>
        <time>2021-03-13T11:26:19Z</time>
      </trkpt>
      <trkpt lat="42.85721" lon="0.91265">
        <ele>1621.239</ele>
        <time>2021-03-13T11:26:21Z</time>
      </trkpt>
      <trkpt lat="42.8572" lon="0.91264">
        <ele>1621.291</ele>
        <time>2021-03-13T11:26:23Z</time>
      </trkpt>
      <trkpt lat="42.8572" lon="0.91263">
        <ele>1621.199</ele>
        <time>2021-03-13T11:26:25Z</time>
      </trkpt>
      <trkpt lat="42.85719" lon="0.91262">
        <ele>1620.906</ele>
        <time>2021-03-13T11:26:27Z</time>
      </trkpt>
      <trkpt lat="42.85719" lon="0.91261">
        <ele>1620.397</ele>
        <time>2021-03-13T11:26:29Z</time>
      </trkpt>
      <trkpt lat="42.85718" lon="0.9126">
        <ele>1619.535</ele>
        <time>2021-03-13T11:26:31Z</time>
      </trkpt>
      <trkpt lat="42.85717" lon="0.9126">
        <ele>1619.249</ele>
        <time>2021-03-13T11:26:33Z</time>
      </trkpt>
      <trkpt lat="42.85716" lon="0.91259">
        <ele>1618.779</ele>
        <time>2021-03-13T11:26:35Z</time>
      </trkpt>
      <trkpt lat="42.85716" lon="0.91257">
        <ele>1618.29</ele>
        <time>2021-03-13T11:26:37Z</time>
      </trkpt>
      <trkpt lat="42.85715" lon="0.91256">
        <ele>1617.763</ele>
        <time>2021-03-13T11:26:39Z</time>
      </trkpt>
      <trkpt lat="42.85714" lon="0.91255">
        <ele>1617.572</ele>
        <time>2021-03-13T11:26:41Z</time>
      </trkpt>
      <trkpt lat="42.85714" lon="0.91254">
        <ele>1616.872</ele>
        <time>2021-03-13T11:26:43Z</time>
      </trkpt>
      <trkpt lat="42.85713" lon="0.91253">
        <ele>1616.387</ele>
        <time>2021-03-13T11:26:45Z</time>
      </trkpt>
      <trkpt lat="42.85712" lon="0.91252">
        <ele>1615.783</ele>
        <time>2021-03-13T11:26:47Z</time>
      </trkpt>
      <trkpt lat="42.85711" lon="0.9125">
        <ele>1614.655</ele>
        <time>2021-03-13T11:26:49Z</time>
      </trkpt>
      <trkpt lat="42.8571" lon="0.91249">
        <ele>1613.939</ele>
        <time>2021-03-13T11:26:51Z</time>
      </trkpt>
      <trkpt lat="42.85709" lon="0.91247">
        <ele>1612.844</ele>
        <time>2021-03-13T11:26:53Z</time>
      </trkpt>
      <trkpt lat="42.85708" lon="0.91245">
        <ele>1612.067</ele>
        <time>2021-03-13T11:26:55Z</time>
      </trkpt>
      <trkpt lat="42.85707" lon="0.91243">
        <ele>1611.817</ele>
        <time>2021-03-13T11:26:57Z</time>
      </trkpt>
      <trkpt lat="42.85707" lon="0.9124">
        <ele>1612.009</ele>
        <time>2021-03-13T11:26:59Z</time>
      </trkpt>
      <trkpt lat="42.85706" lon="0.91238">
        <ele>1612.369</ele>
        <time>2021-03-13T11:27:01Z</time>
      </trkpt>
      <trkpt lat="42.85704" lon="0.91237">
        <ele>1612.48</ele>
        <time>2021-03-13T11:27:03Z</time>
      </trkpt>
      <trkpt lat="42.85702" lon="0.91237">
        <ele>1611.459</ele>
        <time>2021-03-13T11:27:05Z</time>
      </trkpt>
      <trkpt lat="42.85701" lon="0.91236">
        <ele>1610.388</ele>
        <time>2021-03-13T11:27:07Z</time>
      </trkpt>
      <trkpt lat="42.85701" lon="0.91235">
        <ele>1609.843</ele>
        <time>2021-03-13T11:27:09Z</time>
      </trkpt>
      <trkpt lat="42.857" lon="0.91233">
        <ele>1609.55</ele>
        <time>2021-03-13T11:27:11Z</time>
      </trkpt>
      <trkpt lat="42.857" lon="0.91232">
        <ele>1608.951</ele>
        <time>2021-03-13T11:27:13Z</time>
      </trkpt>
      <trkpt lat="42.85699" lon="0.9123">
        <ele>1608.557</ele>
        <time>2021-03-13T11:27:15Z</time>
      </trkpt>
      <trkpt lat="42.85698" lon="0.91229">
        <ele>1608.105</ele>
        <time>2021-03-13T11:27:17Z</time>
      </trkpt>
      <trkpt lat="42.85698" lon="0.91228">
        <ele>1607.913</ele>
        <time>2021-03-13T11:27:19Z</time>
      </trkpt>
      <trkpt lat="42.85697" lon="0.91227">
        <ele>1607.682</ele>
        <time>2021-03-13T11:27:21Z</time>
      </trkpt>
      <trkpt lat="42.85697" lon="0.91225">
        <ele>1607.359</ele>
        <time>2021-03-13T11:27:23Z</time>
      </trkpt>
      <trkpt lat="42.85696" lon="0.91224">
        <ele>1606.325</ele>
        <time>2021-03-13T11:27:25Z</time>
      </trkpt>
      <trkpt lat="42.85695" lon="0.91221">
        <ele>1606.304</ele>
        <time>2021-03-13T11:27:27Z</time>
      </trkpt>
      <trkpt lat="42.85694" lon="0.91217">
        <ele>1607.309</ele>
        <time>2021-03-13T11:27:29Z</time>
      </trkpt>
      <trkpt lat="42.85691" lon="0.91215">
        <ele>1607.97</ele>
        <time>2021-03-13T11:27:31Z</time>
      </trkpt>
      <trkpt lat="42.8569" lon="0.91212">
        <ele>1608.849</ele>
        <time>2021-03-13T11:27:33Z</time>
      </trkpt>
      <trkpt lat="42.85689" lon="0.9121">
        <ele>1608.943</ele>
        <time>2021-03-13T11:27:35Z</time>
      </trkpt>
      <trkpt lat="42.85687" lon="0.91208">
        <ele>1607.815</ele>
        <time>2021-03-13T11:27:37Z</time>
      </trkpt>
      <trkpt lat="42.85686" lon="0.91207">
        <ele>1606.221</ele>
        <time>2021-03-13T11:27:39Z</time>
      </trkpt>
      <trkpt lat="42.85685" lon="0.91206">
        <ele>1605.192</ele>
        <time>2021-03-13T11:27:41Z</time>
      </trkpt>
      <trkpt lat="42.85683" lon="0.91205">
        <ele>1604.208</ele>
        <time>2021-03-13T11:27:43Z</time>
      </trkpt>
      <trkpt lat="42.85682" lon="0.91203">
        <ele>1603.066</ele>
        <time>2021-03-13T11:27:45Z</time>
      </trkpt>
      <trkpt lat="42.85681" lon="0.91202">
        <ele>1601.949</ele>
        <time>2021-03-13T11:27:47Z</time>
      </trkpt>
      <trkpt lat="42.8568" lon="0.912">
        <ele>1601.841</ele>
        <time>2021-03-13T11:27:49Z</time>
      </trkpt>
      <trkpt lat="42.85679" lon="0.91198">
        <ele>1601.258</ele>
        <time>2021-03-13T11:27:51Z</time>
      </trkpt>
      <trkpt lat="42.85678" lon="0.91197">
        <ele>1600.836</ele>
        <time>2021-03-13T11:27:53Z</time>
      </trkpt>
      <trkpt lat="42.85677" lon="0.91195">
        <ele>1600.947</ele>
        <time>2021-03-13T11:27:55Z</time>
      </trkpt>
      <trkpt lat="42.85676" lon="0.91193">
        <ele>1600.8</ele>
        <time>2021-03-13T11:27:57Z</time>
      </trkpt>
      <trkpt lat="42.85675" lon="0.91192">
        <ele>1599.975</ele>
        <time>2021-03-13T11:27:59Z</time>
      </trkpt>
      <trkpt lat="42.85674" lon="0.91192">
        <ele>1599.651</ele>
        <time>2021-03-13T11:28:01Z</time>
      </trkpt>
      <trkpt lat="42.85674" lon="0.91191">
        <ele>1599.695</ele>
        <time>2021-03-13T11:28:03Z</time>
      </trkpt>
      <trkpt lat="42.85673" lon="0.9119">
        <ele>1599.734</ele>
        <time>2021-03-13T11:28:05Z</time>
      </trkpt>
      <trkpt lat="42.85672" lon="0.91189">
        <ele>1599.451</ele>
        <time>2021-03-13T11:28:07Z</time>
      </trkpt>
      <trkpt lat="42.85671" lon="0.91189">
        <ele>1599.534</ele>
        <time>2021-03-13T11:28:09Z</time>
      </trkpt>
      <trkpt lat="42.85671" lon="0.91188">
        <ele>1599.285</ele>
        <time>2021-03-13T11:28:11Z</time>
      </trkpt>
      <trkpt lat="42.8567" lon="0.91186">
        <ele>1598.467</ele>
        <time>2021-03-13T11:28:13Z</time>
      </trkpt>
      <trkpt lat="42.8567" lon="0.91185">
        <ele>1598.313</ele>
        <time>2021-03-13T11:28:15Z</time>
      </trkpt>
      <trkpt lat="42.85669" lon="0.91184">
        <ele>1597.497</ele>
        <time>2021-03-13T11:28:17Z</time>
      </trkpt>
      <trkpt lat="42.85668" lon="0.91183">
        <ele>1597.208</ele>
        <time>2021-03-13T11:28:19Z</time>
      </trkpt>
      <trkpt lat="42.85667" lon="0.91181">
        <ele>1596.897</ele>
        <time>2021-03-13T11:28:21Z</time>
      </trkpt>
      <trkpt lat="42.85667" lon="0.9118">
        <ele>1596.348</ele>
        <time>2021-03-13T11:28:23Z</time>
      </trkpt>
      <trkpt lat="42.85666" lon="0.91179">
        <ele>1596.295</ele>
        <time>2021-03-13T11:28:25Z</time>
      </trkpt>
      <trkpt lat="42.85665" lon="0.91178">
        <ele>1595.814</ele>
        <time>2021-03-13T11:28:27Z</time>
      </trkpt>
      <trkpt lat="42.85664" lon="0.91177">
        <ele>1595.034</ele>
        <time>2021-03-13T11:28:29Z</time>
      </trkpt>
      <trkpt lat="42.85663" lon="0.91177">
        <ele>1595.038</ele>
        <time>2021-03-13T11:28:31Z</time>
      </trkpt>
      <trkpt lat="42.85662" lon="0.91176">
        <ele>1594.416</ele>
        <time>2021-03-13T11:28:33Z</time>
      </trkpt>
      <trkpt lat="42.85661" lon="0.91176">
        <ele>1594.676</ele>
        <time>2021-03-13T11:28:35Z</time>
      </trkpt>
      <trkpt lat="42.8566" lon="0.91175">
        <ele>1594.839</ele>
        <time>2021-03-13T11:28:37Z</time>
      </trkpt>
      <trkpt lat="42.8566" lon="0.91174">
        <ele>1595.116</ele>
        <time>2021-03-13T11:28:39Z</time>
      </trkpt>
      <trkpt lat="42.85659" lon="0.91173">
        <ele>1595.208</ele>
        <time>2021-03-13T11:28:41Z</time>
      </trkpt>
      <trkpt lat="42.85659" lon="0.91172">
        <ele>1595.273</ele>
        <time>2021-03-13T11:28:43Z</time>
      </trkpt>
      <trkpt lat="42.85658" lon="0.9117">
        <ele>1595.465</ele>
        <time>2021-03-13T11:28:45Z</time>
      </trkpt>
      <trkpt lat="42.85658" lon="0.91169">
        <ele>1595.158</ele>
        <time>2021-03-13T11:28:47Z</time>
      </trkpt>
      <trkpt lat="42.85657" lon="0.91168">
        <ele>1594.839</ele>
        <time>2021-03-13T11:28:49Z</time>
      </trkpt>
      <trkpt lat="42.85656" lon="0.91167">
        <ele>1595.087</ele>
        <time>2021-03-13T11:28:51Z</time>
      </trkpt>
      <trkpt lat="42.85655" lon="0.91166">
        <ele>1594.825</ele>
        <time>2021-03-13T11:28:53Z</time>
      </trkpt>
      <trkpt lat="42.85654" lon="0.91166">
        <ele>1594.688</ele>
        <time>2021-03-13T11:28:55Z</time>
      </trkpt>
      <trkpt lat="42.85654" lon="0.91166">
        <ele>1594.805</ele>
        <time>2021-03-13T11:28:57Z</time>
      </trkpt>
      <trkpt lat="42.85654" lon="0.91165">
        <ele>1594.872</ele>
        <time>2021-03-13T11:28:59Z</time>
      </trkpt>
      <trkpt lat="42.85653" lon="0.91164">
        <ele>1594.818</ele>
        <time>2021-03-13T11:29:01Z</time>
      </trkpt>
      <trkpt lat="42.85653" lon="0.91164">
        <ele>1593.714</ele>
        <time>2021-03-13T11:29:03Z</time>
      </trkpt>
      <trkpt lat="42.85652" lon="0.91164">
        <ele>1593.604</ele>
        <time>2021-03-13T11:29:05Z</time>
      </trkpt>
      <trkpt lat="42.85651" lon="0.91164">
        <ele>1593.494</ele>
        <time>2021-03-13T11:29:07Z</time>
      </trkpt>
      <trkpt lat="42.85651" lon="0.91163">
        <ele>1593.279</ele>
        <time>2021-03-13T11:29:09Z</time>
      </trkpt>
      <trkpt lat="42.8565" lon="0.91163">
        <ele>1593.203</ele>
        <time>2021-03-13T11:29:11Z</time>
      </trkpt>
      <trkpt lat="42.8565" lon="0.91161">
        <ele>1593.491</ele>
        <time>2021-03-13T11:29:13Z</time>
      </trkpt>
      <trkpt lat="42.8565" lon="0.91161">
        <ele>1593.184</ele>
        <time>2021-03-13T11:29:15Z</time>
      </trkpt>
      <trkpt lat="42.85649" lon="0.9116">
        <ele>1592.679</ele>
        <time>2021-03-13T11:29:17Z</time>
      </trkpt>
      <trkpt lat="42.85649" lon="0.9116">
        <ele>1592.027</ele>
        <time>2021-03-13T11:29:19Z</time>
      </trkpt>
      <trkpt lat="42.85648" lon="0.91159">
        <ele>1591.318</ele>
        <time>2021-03-13T11:29:21Z</time>
      </trkpt>
      <trkpt lat="42.85648" lon="0.91159">
        <ele>1590.997</ele>
        <time>2021-03-13T11:29:23Z</time>
      </trkpt>
      <trkpt lat="42.85647" lon="0.91159">
        <ele>1589.96</ele>
        <time>2021-03-13T11:29:25Z</time>
      </trkpt>
      <trkpt lat="42.85647" lon="0.91158">
        <ele>1589.733</ele>
        <time>2021-03-13T11:29:27Z</time>
      </trkpt>
      <trkpt lat="42.85646" lon="0.91157">
        <ele>1589.134</ele>
        <time>2021-03-13T11:29:29Z</time>
      </trkpt>
      <trkpt lat="42.85645" lon="0.91156">
        <ele>1588.561</ele>
        <time>2021-03-13T11:29:31Z</time>
      </trkpt>
      <trkpt lat="42.85644" lon="0.91158">
        <ele>1587.743</ele>
        <time>2021-03-13T11:29:33Z</time>
      </trkpt>
      <trkpt lat="42.85643" lon="0.91159">
        <ele>1587.073</ele>
        <time>2021-03-13T11:29:35Z</time>
      </trkpt>
      <trkpt lat="42.85642" lon="0.9116">
        <ele>1586.473</ele>
        <time>2021-03-13T11:29:37Z</time>
      </trkpt>
      <trkpt lat="42.85641" lon="0.91161">
        <ele>1586.23</ele>
        <time>2021-03-13T11:29:39Z</time>
      </trkpt>
      <trkpt lat="42.85641" lon="0.91163">
        <ele>1585.691</ele>
        <time>2021-03-13T11:29:41Z</time>
      </trkpt>
      <trkpt lat="42.85641" lon="0.91164">
        <ele>1584.57</ele>
        <time>2021-03-13T11:29:43Z</time>
      </trkpt>
      <trkpt lat="42.85641" lon="0.91166">
        <ele>1584.526</ele>
        <time>2021-03-13T11:29:45Z</time>
      </trkpt>
      <trkpt lat="42.8564" lon="0.91167">
        <ele>1583.868</ele>
        <time>2021-03-13T11:29:47Z</time>
      </trkpt>
      <trkpt lat="42.85639" lon="0.91168">
        <ele>1582.64</ele>
        <time>2021-03-13T11:29:49Z</time>
      </trkpt>
      <trkpt lat="42.85639" lon="0.91169">
        <ele>1581.817</ele>
        <time>2021-03-13T11:29:51Z</time>
      </trkpt>
      <trkpt lat="42.85639" lon="0.91171">
        <ele>1581.542</ele>
        <time>2021-03-13T11:29:53Z</time>
      </trkpt>
      <trkpt lat="42.85639" lon="0.91173">
        <ele>1581.182</ele>
        <time>2021-03-13T11:29:55Z</time>
      </trkpt>
      <trkpt lat="42.85639" lon="0.91174">
        <ele>1580.766</ele>
        <time>2021-03-13T11:29:57Z</time>
      </trkpt>
      <trkpt lat="42.85639" lon="0.91176">
        <ele>1580.57</ele>
        <time>2021-03-13T11:29:59Z</time>
      </trkpt>
      <trkpt lat="42.85639" lon="0.91177">
        <ele>1580.142</ele>
        <time>2021-03-13T11:30:01Z</time>
      </trkpt>
      <trkpt lat="42.85638" lon="0.91179">
        <ele>1579.864</ele>
        <time>2021-03-13T11:30:03Z</time>
      </trkpt>
      <trkpt lat="42.85638" lon="0.9118">
        <ele>1579.332</ele>
        <time>2021-03-13T11:30:05Z</time>
      </trkpt>
      <trkpt lat="42.85638" lon="0.91181">
        <ele>1578.871</ele>
        <time>2021-03-13T11:30:07Z</time>
      </trkpt>
      <trkpt lat="42.85638" lon="0.91182">
        <ele>1578.739</ele>
        <time>2021-03-13T11:30:09Z</time>
      </trkpt>
      <trkpt lat="42.85638" lon="0.91183">
        <ele>1578.201</ele>
        <time>2021-03-13T11:30:11Z</time>
      </trkpt>
      <trkpt lat="42.85638" lon="0.91185">
        <ele>1577.595</ele>
        <time>2021-03-13T11:30:13Z</time>
      </trkpt>
      <trkpt lat="42.85638" lon="0.91185">
        <ele>1577.589</ele>
        <time>2021-03-13T11:30:15Z</time>
      </trkpt>
      <trkpt lat="42.85637" lon="0.91187">
        <ele>1577.479</ele>
        <time>2021-03-13T11:30:17Z</time>
      </trkpt>
      <trkpt lat="42.85637" lon="0.91187">
        <ele>1577.622</ele>
        <time>2021-03-13T11:30:19Z</time>
      </trkpt>
      <trkpt lat="42.85637" lon="0.91188">
        <ele>1577.336</ele>
        <time>2021-03-13T11:30:21Z</time>
      </trkpt>
      <trkpt lat="42.85637" lon="0.91188">
        <ele>1577.321</ele>
        <time>2021-03-13T11:30:23Z</time>
      </trkpt>
      <trkpt lat="42.85635" lon="0.91187">
        <ele>1577.971</ele>
        <time>2021-03-13T11:30:25Z</time>
      </trkpt>
      <trkpt lat="42.85635" lon="0.91186">
        <ele>1578.103</ele>
        <time>2021-03-13T11:30:27Z</time>
      </trkpt>
      <trkpt lat="42.85635" lon="0.91184">
        <ele>1578.614</ele>
        <time>2021-03-13T11:30:29Z</time>
      </trkpt>
      <trkpt lat="42.85634" lon="0.91182">
        <ele>1578.47</ele>
        <time>2021-03-13T11:30:31Z</time>
      </trkpt>
      <trkpt lat="42.85633" lon="0.91181">
        <ele>1579.017</ele>
        <time>2021-03-13T11:30:33Z</time>
      </trkpt>
      <trkpt lat="42.85633" lon="0.91181">
        <ele>1579.158</ele>
        <time>2021-03-13T11:30:35Z</time>
      </trkpt>
      <trkpt lat="42.85633" lon="0.91181">
        <ele>1579.044</ele>
        <time>2021-03-13T11:30:37Z</time>
      </trkpt>
      <trkpt lat="42.85633" lon="0.91181">
        <ele>1579.029</ele>
        <time>2021-03-13T11:30:39Z</time>
      </trkpt>
      <trkpt lat="42.85633" lon="0.91182">
        <ele>1578.945</ele>
        <time>2021-03-13T11:30:41Z</time>
      </trkpt>
      <trkpt lat="42.85633" lon="0.91182">
        <ele>1578.454</ele>
        <time>2021-03-13T11:30:43Z</time>
      </trkpt>
      <trkpt lat="42.85633" lon="0.91181">
        <ele>1578.155</ele>
        <time>2021-03-13T11:30:45Z</time>
      </trkpt>
      <trkpt lat="42.85633" lon="0.91181">
        <ele>1578.448</ele>
        <time>2021-03-13T11:30:47Z</time>
      </trkpt>
      <trkpt lat="42.85632" lon="0.9118">
        <ele>1578.717</ele>
        <time>2021-03-13T11:30:49Z</time>
      </trkpt>
      <trkpt lat="42.85633" lon="0.9118">
        <ele>1578.707</ele>
        <time>2021-03-13T11:30:51Z</time>
      </trkpt>
      <trkpt lat="42.85633" lon="0.9118">
        <ele>1578.297</ele>
        <time>2021-03-13T11:30:53Z</time>
      </trkpt>
      <trkpt lat="42.85632" lon="0.9118">
        <ele>1577.761</ele>
        <time>2021-03-13T11:30:55Z</time>
      </trkpt>
      <trkpt lat="42.85632" lon="0.91179">
        <ele>1577.977</ele>
        <time>2021-03-13T11:30:57Z</time>
      </trkpt>
      <trkpt lat="42.85632" lon="0.91178">
        <ele>1577.883</ele>
        <time>2021-03-13T11:30:59Z</time>
      </trkpt>
      <trkpt lat="42.85631" lon="0.91178">
        <ele>1577.32</ele>
        <time>2021-03-13T11:31:01Z</time>
      </trkpt>
      <trkpt lat="42.8563" lon="0.91179">
        <ele>1576.684</ele>
        <time>2021-03-13T11:31:03Z</time>
      </trkpt>
      <trkpt lat="42.8563" lon="0.91179">
        <ele>1576.448</ele>
        <time>2021-03-13T11:31:05Z</time>
      </trkpt>
      <trkpt lat="42.85629" lon="0.91179">
        <ele>1575.124</ele>
        <time>2021-03-13T11:31:07Z</time>
      </trkpt>
      <trkpt lat="42.85628" lon="0.91178">
        <ele>1574.745</ele>
        <time>2021-03-13T11:31:09Z</time>
      </trkpt>
      <trkpt lat="42.85628" lon="0.91177">
        <ele>1574.063</ele>
        <time>2021-03-13T11:31:11Z</time>
      </trkpt>
      <trkpt lat="42.85627" lon="0.91176">
        <ele>1573.381</ele>
        <time>2021-03-13T11:31:13Z</time>
      </trkpt>
      <trkpt lat="42.85626" lon="0.91175">
        <ele>1572.655</ele>
        <time>2021-03-13T11:31:15Z</time>
      </trkpt>
      <trkpt lat="42.85625" lon="0.91174">
        <ele>1572.14</ele>
        <time>2021-03-13T11:31:17Z</time>
      </trkpt>
      <trkpt lat="42.85624" lon="0.91173">
        <ele>1571.991</ele>
        <time>2021-03-13T11:31:19Z</time>
      </trkpt>
      <trkpt lat="42.85623" lon="0.91171">
        <ele>1571.736</ele>
        <time>2021-03-13T11:31:21Z</time>
      </trkpt>
      <trkpt lat="42.85623" lon="0.9117">
        <ele>1571.37</ele>
        <time>2021-03-13T11:31:23Z</time>
      </trkpt>
      <trkpt lat="42.85622" lon="0.9117">
        <ele>1571.404</ele>
        <time>2021-03-13T11:31:25Z</time>
      </trkpt>
      <trkpt lat="42.85621" lon="0.91169">
        <ele>1571.082</ele>
        <time>2021-03-13T11:31:27Z</time>
      </trkpt>
      <trkpt lat="42.85621" lon="0.91168">
        <ele>1571.084</ele>
        <time>2021-03-13T11:31:29Z</time>
      </trkpt>
      <trkpt lat="42.8562" lon="0.91167">
        <ele>1570.964</ele>
        <time>2021-03-13T11:31:31Z</time>
      </trkpt>
      <trkpt lat="42.85619" lon="0.91166">
        <ele>1569.882</ele>
        <time>2021-03-13T11:31:33Z</time>
      </trkpt>
      <trkpt lat="42.85619" lon="0.91165">
        <ele>1569.81</ele>
        <time>2021-03-13T11:31:35Z</time>
      </trkpt>
      <trkpt lat="42.85618" lon="0.91164">
        <ele>1569.746</ele>
        <time>2021-03-13T11:31:37Z</time>
      </trkpt>
      <trkpt lat="42.85618" lon="0.91163">
        <ele>1569.203</ele>
        <time>2021-03-13T11:31:39Z</time>
      </trkpt>
      <trkpt lat="42.85617" lon="0.91162">
        <ele>1569.054</ele>
        <time>2021-03-13T11:31:41Z</time>
      </trkpt>
      <trkpt lat="42.85616" lon="0.91161">
        <ele>1568.415</ele>
        <time>2021-03-13T11:31:43Z</time>
      </trkpt>
      <trkpt lat="42.85616" lon="0.9116">
        <ele>1568.75</ele>
        <time>2021-03-13T11:31:45Z</time>
      </trkpt>
      <trkpt lat="42.85615" lon="0.91159">
        <ele>1568.542</ele>
        <time>2021-03-13T11:31:47Z</time>
      </trkpt>
      <trkpt lat="42.85613" lon="0.9116">
        <ele>1567.927</ele>
        <time>2021-03-13T11:31:49Z</time>
      </trkpt>
      <trkpt lat="42.85612" lon="0.9116">
        <ele>1567.915</ele>
        <time>2021-03-13T11:31:51Z</time>
      </trkpt>
      <trkpt lat="42.85612" lon="0.9116">
        <ele>1567.835</ele>
        <time>2021-03-13T11:31:53Z</time>
      </trkpt>
      <trkpt lat="42.85611" lon="0.91159">
        <ele>1567.611</ele>
        <time>2021-03-13T11:31:55Z</time>
      </trkpt>
      <trkpt lat="42.85611" lon="0.91158">
        <ele>1567.697</ele>
        <time>2021-03-13T11:31:57Z</time>
      </trkpt>
      <trkpt lat="42.8561" lon="0.91157">
        <ele>1568.002</ele>
        <time>2021-03-13T11:31:59Z</time>
      </trkpt>
      <trkpt lat="42.8561" lon="0.91157">
        <ele>1567.854</ele>
        <time>2021-03-13T11:32:01Z</time>
      </trkpt>
      <trkpt lat="42.8561" lon="0.91156">
        <ele>1568.022</ele>
        <time>2021-03-13T11:32:03Z</time>
      </trkpt>
      <trkpt lat="42.85609" lon="0.91155">
        <ele>1567.556</ele>
        <time>2021-03-13T11:32:05Z</time>
      </trkpt>
      <trkpt lat="42.85609" lon="0.91154">
        <ele>1566.764</ele>
        <time>2021-03-13T11:32:07Z</time>
      </trkpt>
      <trkpt lat="42.85609" lon="0.91153">
        <ele>1566.036</ele>
        <time>2021-03-13T11:32:09Z</time>
      </trkpt>
      <trkpt lat="42.85609" lon="0.91153">
        <ele>1565.415</ele>
        <time>2021-03-13T11:32:11Z</time>
      </trkpt>
      <trkpt lat="42.85608" lon="0.91152">
        <ele>1564.838</ele>
        <time>2021-03-13T11:32:13Z</time>
      </trkpt>
      <trkpt lat="42.85607" lon="0.91152">
        <ele>1563.956</ele>
        <time>2021-03-13T11:32:15Z</time>
      </trkpt>
      <trkpt lat="42.85607" lon="0.91151">
        <ele>1563.133</ele>
        <time>2021-03-13T11:32:17Z</time>
      </trkpt>
      <trkpt lat="42.85606" lon="0.91151">
        <ele>1562.69</ele>
        <time>2021-03-13T11:32:19Z</time>
      </trkpt>
      <trkpt lat="42.85605" lon="0.9115">
        <ele>1562.448</ele>
        <time>2021-03-13T11:32:21Z</time>
      </trkpt>
      <trkpt lat="42.85604" lon="0.9115">
        <ele>1562.157</ele>
        <time>2021-03-13T11:32:23Z</time>
      </trkpt>
      <trkpt lat="42.85604" lon="0.91149">
        <ele>1562.194</ele>
        <time>2021-03-13T11:32:25Z</time>
      </trkpt>
      <trkpt lat="42.85603" lon="0.91148">
        <ele>1561.709</ele>
        <time>2021-03-13T11:32:27Z</time>
      </trkpt>
      <trkpt lat="42.85603" lon="0.91148">
        <ele>1561.165</ele>
        <time>2021-03-13T11:32:29Z</time>
      </trkpt>
      <trkpt lat="42.85603" lon="0.91147">
        <ele>1561.105</ele>
        <time>2021-03-13T11:32:31Z</time>
      </trkpt>
      <trkpt lat="42.85604" lon="0.91146">
        <ele>1561.494</ele>
        <time>2021-03-13T11:32:33Z</time>
      </trkpt>
      <trkpt lat="42.85604" lon="0.91145">
        <ele>1561.049</ele>
        <time>2021-03-13T11:32:35Z</time>
      </trkpt>
      <trkpt lat="42.85603" lon="0.91145">
        <ele>1561.398</ele>
        <time>2021-03-13T11:32:37Z</time>
      </trkpt>
      <trkpt lat="42.85603" lon="0.91144">
        <ele>1560.166</ele>
        <time>2021-03-13T11:32:39Z</time>
      </trkpt>
      <trkpt lat="42.85603" lon="0.91143">
        <ele>1559.844</ele>
        <time>2021-03-13T11:32:41Z</time>
      </trkpt>
      <trkpt lat="42.85602" lon="0.91142">
        <ele>1559.777</ele>
        <time>2021-03-13T11:32:43Z</time>
      </trkpt>
      <trkpt lat="42.85601" lon="0.91142">
        <ele>1559.249</ele>
        <time>2021-03-13T11:32:45Z</time>
      </trkpt>
      <trkpt lat="42.856" lon="0.91141">
        <ele>1558.254</ele>
        <time>2021-03-13T11:32:47Z</time>
      </trkpt>
      <trkpt lat="42.856" lon="0.9114">
        <ele>1558.002</ele>
        <time>2021-03-13T11:32:49Z</time>
      </trkpt>
      <trkpt lat="42.856" lon="0.91139">
        <ele>1558.102</ele>
        <time>2021-03-13T11:32:51Z</time>
      </trkpt>
      <trkpt lat="42.856" lon="0.91139">
        <ele>1557.312</ele>
        <time>2021-03-13T11:32:53Z</time>
      </trkpt>
      <trkpt lat="42.856" lon="0.91138">
        <ele>1556.861</ele>
        <time>2021-03-13T11:32:55Z</time>
      </trkpt>
      <trkpt lat="42.856" lon="0.91137">
        <ele>1556.436</ele>
        <time>2021-03-13T11:32:57Z</time>
      </trkpt>
      <trkpt lat="42.856" lon="0.91135">
        <ele>1556.908</ele>
        <time>2021-03-13T11:32:59Z</time>
      </trkpt>
      <trkpt lat="42.85599" lon="0.91134">
        <ele>1556.653</ele>
        <time>2021-03-13T11:33:01Z</time>
      </trkpt>
      <trkpt lat="42.85598" lon="0.91133">
        <ele>1555.675</ele>
        <time>2021-03-13T11:33:03Z</time>
      </trkpt>
      <trkpt lat="42.85598" lon="0.91132">
        <ele>1554.926</ele>
        <time>2021-03-13T11:33:05Z</time>
      </trkpt>
      <trkpt lat="42.85598" lon="0.91131">
        <ele>1554.287</ele>
        <time>2021-03-13T11:33:07Z</time>
      </trkpt>
      <trkpt lat="42.85598" lon="0.91132">
        <ele>1553.147</ele>
        <time>2021-03-13T11:33:09Z</time>
      </trkpt>
      <trkpt lat="42.85597" lon="0.9113">
        <ele>1553.469</ele>
        <time>2021-03-13T11:33:11Z</time>
      </trkpt>
      <trkpt lat="42.85597" lon="0.91129">
        <ele>1553.627</ele>
        <time>2021-03-13T11:33:13Z</time>
      </trkpt>
      <trkpt lat="42.85596" lon="0.91128">
        <ele>1553.313</ele>
        <time>2021-03-13T11:33:15Z</time>
      </trkpt>
      <trkpt lat="42.85596" lon="0.91126">
        <ele>1552.746</ele>
        <time>2021-03-13T11:33:17Z</time>
      </trkpt>
      <trkpt lat="42.85596" lon="0.91126">
        <ele>1551.727</ele>
        <time>2021-03-13T11:33:19Z</time>
      </trkpt>
      <trkpt lat="42.85596" lon="0.91125">
        <ele>1551.293</ele>
        <time>2021-03-13T11:33:21Z</time>
      </trkpt>
      <trkpt lat="42.85595" lon="0.91124">
        <ele>1551.487</ele>
        <time>2021-03-13T11:33:23Z</time>
      </trkpt>
      <trkpt lat="42.85595" lon="0.91123">
        <ele>1551.572</ele>
        <time>2021-03-13T11:33:25Z</time>
      </trkpt>
      <trkpt lat="42.85595" lon="0.91122">
        <ele>1550.759</ele>
        <time>2021-03-13T11:33:27Z</time>
      </trkpt>
      <trkpt lat="42.85595" lon="0.9112">
        <ele>1550.079</ele>
        <time>2021-03-13T11:33:29Z</time>
      </trkpt>
      <trkpt lat="42.85595" lon="0.91119">
        <ele>1549.997</ele>
        <time>2021-03-13T11:33:31Z</time>
      </trkpt>
      <trkpt lat="42.85595" lon="0.91117">
        <ele>1549.815</ele>
        <time>2021-03-13T11:33:33Z</time>
      </trkpt>
      <trkpt lat="42.85594" lon="0.91116">
        <ele>1549.418</ele>
        <time>2021-03-13T11:33:35Z</time>
      </trkpt>
      <trkpt lat="42.85594" lon="0.91115">
        <ele>1549.268</ele>
        <time>2021-03-13T11:33:37Z</time>
      </trkpt>
      <trkpt lat="42.85594" lon="0.91114">
        <ele>1549.399</ele>
        <time>2021-03-13T11:33:39Z</time>
      </trkpt>
      <trkpt lat="42.85593" lon="0.91112">
        <ele>1549.069</ele>
        <time>2021-03-13T11:33:41Z</time>
      </trkpt>
      <trkpt lat="42.85592" lon="0.91112">
        <ele>1548.185</ele>
        <time>2021-03-13T11:33:43Z</time>
      </trkpt>
      <trkpt lat="42.85591" lon="0.91111">
        <ele>1548.071</ele>
        <time>2021-03-13T11:33:45Z</time>
      </trkpt>
      <trkpt lat="42.85591" lon="0.9111">
        <ele>1547.484</ele>
        <time>2021-03-13T11:33:47Z</time>
      </trkpt>
      <trkpt lat="42.8559" lon="0.91109">
        <ele>1547.208</ele>
        <time>2021-03-13T11:33:49Z</time>
      </trkpt>
      <trkpt lat="42.85589" lon="0.91109">
        <ele>1546.093</ele>
        <time>2021-03-13T11:33:51Z</time>
      </trkpt>
      <trkpt lat="42.85588" lon="0.91107">
        <ele>1545.756</ele>
        <time>2021-03-13T11:33:53Z</time>
      </trkpt>
      <trkpt lat="42.85588" lon="0.91105">
        <ele>1545.224</ele>
        <time>2021-03-13T11:33:55Z</time>
      </trkpt>
      <trkpt lat="42.85587" lon="0.91103">
        <ele>1544.956</ele>
        <time>2021-03-13T11:33:57Z</time>
      </trkpt>
      <trkpt lat="42.85586" lon="0.91101">
        <ele>1544.433</ele>
        <time>2021-03-13T11:33:59Z</time>
      </trkpt>
      <trkpt lat="42.85585" lon="0.91099">
        <ele>1543.886</ele>
        <time>2021-03-13T11:34:01Z</time>
      </trkpt>
      <trkpt lat="42.85585" lon="0.91097">
        <ele>1543.468</ele>
        <time>2021-03-13T11:34:03Z</time>
      </trkpt>
      <trkpt lat="42.85584" lon="0.91095">
        <ele>1543.773</ele>
        <time>2021-03-13T11:34:05Z</time>
      </trkpt>
      <trkpt lat="42.85584" lon="0.91093">
        <ele>1544.128</ele>
        <time>2021-03-13T11:34:07Z</time>
      </trkpt>
      <trkpt lat="42.85583" lon="0.91091">
        <ele>1544.535</ele>
        <time>2021-03-13T11:34:09Z</time>
      </trkpt>
      <trkpt lat="42.85582" lon="0.91089">
        <ele>1544.328</ele>
        <time>2021-03-13T11:34:11Z</time>
      </trkpt>
      <trkpt lat="42.85581" lon="0.91088">
        <ele>1544.424</ele>
        <time>2021-03-13T11:34:13Z</time>
      </trkpt>
      <trkpt lat="42.8558" lon="0.91087">
        <ele>1544.555</ele>
        <time>2021-03-13T11:34:15Z</time>
      </trkpt>
      <trkpt lat="42.85578" lon="0.91086">
        <ele>1543.846</ele>
        <time>2021-03-13T11:34:17Z</time>
      </trkpt>
      <trkpt lat="42.85576" lon="0.91089">
        <ele>1542.275</ele>
        <time>2021-03-13T11:34:19Z</time>
      </trkpt>
      <trkpt lat="42.85574" lon="0.9109">
        <ele>1541.406</ele>
        <time>2021-03-13T11:34:21Z</time>
      </trkpt>
      <trkpt lat="42.85573" lon="0.91088">
        <ele>1541.358</ele>
        <time>2021-03-13T11:34:23Z</time>
      </trkpt>
      <trkpt lat="42.85573" lon="0.91087">
        <ele>1540.855</ele>
        <time>2021-03-13T11:34:25Z</time>
      </trkpt>
      <trkpt lat="42.85572" lon="0.91087">
        <ele>1540.754</ele>
        <time>2021-03-13T11:34:27Z</time>
      </trkpt>
      <trkpt lat="42.85571" lon="0.91085">
        <ele>1539.742</ele>
        <time>2021-03-13T11:34:29Z</time>
      </trkpt>
      <trkpt lat="42.85569" lon="0.91085">
        <ele>1538.591</ele>
        <time>2021-03-13T11:34:31Z</time>
      </trkpt>
      <trkpt lat="42.85568" lon="0.91084">
        <ele>1537.897</ele>
        <time>2021-03-13T11:34:33Z</time>
      </trkpt>
      <trkpt lat="42.85567" lon="0.91083">
        <ele>1537.691</ele>
        <time>2021-03-13T11:34:35Z</time>
      </trkpt>
      <trkpt lat="42.85565" lon="0.91082">
        <ele>1536.55</ele>
        <time>2021-03-13T11:34:37Z</time>
      </trkpt>
      <trkpt lat="42.85564" lon="0.91082">
        <ele>1535.769</ele>
        <time>2021-03-13T11:34:39Z</time>
      </trkpt>
      <trkpt lat="42.85563" lon="0.91081">
        <ele>1535.871</ele>
        <time>2021-03-13T11:34:41Z</time>
      </trkpt>
      <trkpt lat="42.85562" lon="0.9108">
        <ele>1535.444</ele>
        <time>2021-03-13T11:34:43Z</time>
      </trkpt>
      <trkpt lat="42.85561" lon="0.91078">
        <ele>1535.309</ele>
        <time>2021-03-13T11:34:45Z</time>
      </trkpt>
      <trkpt lat="42.8556" lon="0.91077">
        <ele>1534.75</ele>
        <time>2021-03-13T11:34:47Z</time>
      </trkpt>
      <trkpt lat="42.85559" lon="0.91077">
        <ele>1534.377</ele>
        <time>2021-03-13T11:34:49Z</time>
      </trkpt>
      <trkpt lat="42.85558" lon="0.91076">
        <ele>1534.227</ele>
        <time>2021-03-13T11:34:51Z</time>
      </trkpt>
      <trkpt lat="42.85557" lon="0.91077">
        <ele>1533.448</ele>
        <time>2021-03-13T11:34:53Z</time>
      </trkpt>
      <trkpt lat="42.85555" lon="0.91076">
        <ele>1533.274</ele>
        <time>2021-03-13T11:34:55Z</time>
      </trkpt>
      <trkpt lat="42.85554" lon="0.91074">
        <ele>1532.935</ele>
        <time>2021-03-13T11:34:57Z</time>
      </trkpt>
      <trkpt lat="42.85552" lon="0.91073">
        <ele>1532.101</ele>
        <time>2021-03-13T11:34:59Z</time>
      </trkpt>
      <trkpt lat="42.85554" lon="0.91075">
        <ele>1530.633</ele>
        <time>2021-03-13T11:35:01Z</time>
      </trkpt>
      <trkpt lat="42.85554" lon="0.91075">
        <ele>1530.64</ele>
        <time>2021-03-13T11:35:03Z</time>
      </trkpt>
      <trkpt lat="42.85553" lon="0.91068">
        <ele>1533.467</ele>
        <time>2021-03-13T11:35:05Z</time>
      </trkpt>
      <trkpt lat="42.8555" lon="0.91068">
        <ele>1532.298</ele>
        <time>2021-03-13T11:35:07Z</time>
      </trkpt>
      <trkpt lat="42.85547" lon="0.91068">
        <ele>1531.469</ele>
        <time>2021-03-13T11:35:09Z</time>
      </trkpt>
      <trkpt lat="42.85545" lon="0.91067">
        <ele>1531.684</ele>
        <time>2021-03-13T11:35:11Z</time>
      </trkpt>
      <trkpt lat="42.85543" lon="0.91066">
        <ele>1531.938</ele>
        <time>2021-03-13T11:35:13Z</time>
      </trkpt>
      <trkpt lat="42.85542" lon="0.91065">
        <ele>1532.157</ele>
        <time>2021-03-13T11:35:15Z</time>
      </trkpt>
      <trkpt lat="42.8554" lon="0.91065">
        <ele>1531.143</ele>
        <time>2021-03-13T11:35:17Z</time>
      </trkpt>
      <trkpt lat="42.85539" lon="0.91064">
        <ele>1530.019</ele>
        <time>2021-03-13T11:35:19Z</time>
      </trkpt>
      <trkpt lat="42.85537" lon="0.91064">
        <ele>1529.537</ele>
        <time>2021-03-13T11:35:21Z</time>
      </trkpt>
      <trkpt lat="42.85535" lon="0.91064">
        <ele>1529.125</ele>
        <time>2021-03-13T11:35:23Z</time>
      </trkpt>
      <trkpt lat="42.85533" lon="0.91063">
        <ele>1528.525</ele>
        <time>2021-03-13T11:35:25Z</time>
      </trkpt>
      <trkpt lat="42.85532" lon="0.91062">
        <ele>1528.214</ele>
        <time>2021-03-13T11:35:27Z</time>
      </trkpt>
      <trkpt lat="42.8553" lon="0.91061">
        <ele>1527.597</ele>
        <time>2021-03-13T11:35:29Z</time>
      </trkpt>
      <trkpt lat="42.85529" lon="0.91061">
        <ele>1526.964</ele>
        <time>2021-03-13T11:35:31Z</time>
      </trkpt>
      <trkpt lat="42.85527" lon="0.9106">
        <ele>1526.879</ele>
        <time>2021-03-13T11:35:33Z</time>
      </trkpt>
      <trkpt lat="42.85525" lon="0.91059">
        <ele>1525.885</ele>
        <time>2021-03-13T11:35:35Z</time>
      </trkpt>
      <trkpt lat="42.85524" lon="0.91059">
        <ele>1524.605</ele>
        <time>2021-03-13T11:35:37Z</time>
      </trkpt>
      <trkpt lat="42.85523" lon="0.91058">
        <ele>1524.569</ele>
        <time>2021-03-13T11:35:39Z</time>
      </trkpt>
      <trkpt lat="42.85521" lon="0.91059">
        <ele>1524.837</ele>
        <time>2021-03-13T11:35:41Z</time>
      </trkpt>
      <trkpt lat="42.85519" lon="0.91059">
        <ele>1525.257</ele>
        <time>2021-03-13T11:35:43Z</time>
      </trkpt>
      <trkpt lat="42.85517" lon="0.91058">
        <ele>1523.938</ele>
        <time>2021-03-13T11:35:45Z</time>
      </trkpt>
      <trkpt lat="42.85516" lon="0.91057">
        <ele>1523.122</ele>
        <time>2021-03-13T11:35:47Z</time>
      </trkpt>
      <trkpt lat="42.85514" lon="0.91055">
        <ele>1522.583</ele>
        <time>2021-03-13T11:35:49Z</time>
      </trkpt>
      <trkpt lat="42.85513" lon="0.91054">
        <ele>1522.075</ele>
        <time>2021-03-13T11:35:51Z</time>
      </trkpt>
      <trkpt lat="42.85512" lon="0.91052">
        <ele>1521.286</ele>
        <time>2021-03-13T11:35:53Z</time>
      </trkpt>
      <trkpt lat="42.8551" lon="0.91051">
        <ele>1521.597</ele>
        <time>2021-03-13T11:35:55Z</time>
      </trkpt>
      <trkpt lat="42.8551" lon="0.91049">
        <ele>1521.693</ele>
        <time>2021-03-13T11:35:57Z</time>
      </trkpt>
      <trkpt lat="42.85509" lon="0.91048">
        <ele>1520.642</ele>
        <time>2021-03-13T11:35:59Z</time>
      </trkpt>
      <trkpt lat="42.85509" lon="0.91046">
        <ele>1519.934</ele>
        <time>2021-03-13T11:36:01Z</time>
      </trkpt>
      <trkpt lat="42.85508" lon="0.91045">
        <ele>1519.59</ele>
        <time>2021-03-13T11:36:03Z</time>
      </trkpt>
      <trkpt lat="42.85507" lon="0.91043">
        <ele>1519.765</ele>
        <time>2021-03-13T11:36:05Z</time>
      </trkpt>
      <trkpt lat="42.85507" lon="0.91043">
        <ele>1519.261</ele>
        <time>2021-03-13T11:36:07Z</time>
      </trkpt>
      <trkpt lat="42.85507" lon="0.91044">
        <ele>1519.257</ele>
        <time>2021-03-13T11:36:09Z</time>
      </trkpt>
      <trkpt lat="42.85507" lon="0.91044">
        <ele>1518.517</ele>
        <time>2021-03-13T11:36:11Z</time>
      </trkpt>
      <trkpt lat="42.85507" lon="0.91045">
        <ele>1517.871</ele>
        <time>2021-03-13T11:36:13Z</time>
      </trkpt>
      <trkpt lat="42.85507" lon="0.91045">
        <ele>1517.103</ele>
        <time>2021-03-13T11:36:15Z</time>
      </trkpt>
      <trkpt lat="42.85507" lon="0.91045">
        <ele>1517.089</ele>
        <time>2021-03-13T11:36:17Z</time>
      </trkpt>
      <trkpt lat="42.85507" lon="0.91045">
        <ele>1517.065</ele>
        <time>2021-03-13T11:36:19Z</time>
      </trkpt>
      <trkpt lat="42.85507" lon="0.91046">
        <ele>1517.073</ele>
        <time>2021-03-13T11:36:21Z</time>
      </trkpt>
      <trkpt lat="42.85507" lon="0.91045">
        <ele>1517.463</ele>
        <time>2021-03-13T11:36:23Z</time>
      </trkpt>
      <trkpt lat="42.85507" lon="0.91045">
        <ele>1517.035</ele>
        <time>2021-03-13T11:36:25Z</time>
      </trkpt>
      <trkpt lat="42.85507" lon="0.91046">
        <ele>1516.531</ele>
        <time>2021-03-13T11:36:27Z</time>
      </trkpt>
      <trkpt lat="42.85508" lon="0.91046">
        <ele>1516.715</ele>
        <time>2021-03-13T11:36:29Z</time>
      </trkpt>
      <trkpt lat="42.85508" lon="0.91046">
        <ele>1516.215</ele>
        <time>2021-03-13T11:36:31Z</time>
      </trkpt>
      <trkpt lat="42.85507" lon="0.91045">
        <ele>1516.614</ele>
        <time>2021-03-13T11:36:33Z</time>
      </trkpt>
      <trkpt lat="42.85507" lon="0.91045">
        <ele>1516.603</ele>
        <time>2021-03-13T11:36:35Z</time>
      </trkpt>
      <trkpt lat="42.85507" lon="0.91045">
        <ele>1516.596</ele>
        <time>2021-03-13T11:36:37Z</time>
      </trkpt>
      <trkpt lat="42.85507" lon="0.91045">
        <ele>1516.592</ele>
        <time>2021-03-13T11:36:39Z</time>
      </trkpt>
      <trkpt lat="42.85507" lon="0.91045">
        <ele>1516.586</ele>
        <time>2021-03-13T11:36:41Z</time>
      </trkpt>
      <trkpt lat="42.85507" lon="0.91045">
        <ele>1516.577</ele>
        <time>2021-03-13T11:36:43Z</time>
      </trkpt>
      <trkpt lat="42.85507" lon="0.91045">
        <ele>1516.576</ele>
        <time>2021-03-13T11:36:45Z</time>
      </trkpt>
      <trkpt lat="42.85507" lon="0.91045">
        <ele>1516.584</ele>
        <time>2021-03-13T11:36:47Z</time>
      </trkpt>
      <trkpt lat="42.85507" lon="0.91045">
        <ele>1516.588</ele>
        <time>2021-03-13T11:36:49Z</time>
      </trkpt>
      <trkpt lat="42.85507" lon="0.91045">
        <ele>1516.591</ele>
        <time>2021-03-13T11:36:51Z</time>
      </trkpt>
      <trkpt lat="42.85507" lon="0.91045">
        <ele>1516.584</ele>
        <time>2021-03-13T11:36:53Z</time>
      </trkpt>
      <trkpt lat="42.85507" lon="0.91045">
        <ele>1516.58</ele>
        <time>2021-03-13T11:36:55Z</time>
      </trkpt>
      <trkpt lat="42.85507" lon="0.91045">
        <ele>1516.571</ele>
        <time>2021-03-13T11:36:57Z</time>
      </trkpt>
      <trkpt lat="42.85507" lon="0.91045">
        <ele>1516.572</ele>
        <time>2021-03-13T11:36:59Z</time>
      </trkpt>
      <trkpt lat="42.85507" lon="0.91045">
        <ele>1516.565</ele>
        <time>2021-03-13T11:37:01Z</time>
      </trkpt>
      <trkpt lat="42.85507" lon="0.91045">
        <ele>1516.556</ele>
        <time>2021-03-13T11:37:03Z</time>
      </trkpt>
      <trkpt lat="42.85507" lon="0.91045">
        <ele>1516.554</ele>
        <time>2021-03-13T11:37:05Z</time>
      </trkpt>
      <trkpt lat="42.85507" lon="0.91045">
        <ele>1516.555</ele>
        <time>2021-03-13T11:37:07Z</time>
      </trkpt>
      <trkpt lat="42.85507" lon="0.91045">
        <ele>1516.553</ele>
        <time>2021-03-13T11:37:09Z</time>
      </trkpt>
      <trkpt lat="42.85507" lon="0.91045">
        <ele>1516.553</ele>
        <time>2021-03-13T11:37:11Z</time>
      </trkpt>
      <trkpt lat="42.85507" lon="0.91045">
        <ele>1516.555</ele>
        <time>2021-03-13T11:37:13Z</time>
      </trkpt>
      <trkpt lat="42.85507" lon="0.91045">
        <ele>1516.557</ele>
        <time>2021-03-13T11:37:15Z</time>
      </trkpt>
      <trkpt lat="42.85507" lon="0.91045">
        <ele>1516.554</ele>
        <time>2021-03-13T11:37:17Z</time>
      </trkpt>
      <trkpt lat="42.85507" lon="0.91045">
        <ele>1516.568</ele>
        <time>2021-03-13T11:37:19Z</time>
      </trkpt>
      <trkpt lat="42.85507" lon="0.91045">
        <ele>1516.574</ele>
        <time>2021-03-13T11:37:21Z</time>
      </trkpt>
      <trkpt lat="42.85507" lon="0.91045">
        <ele>1516.79</ele>
        <time>2021-03-13T11:37:23Z</time>
      </trkpt>
      <trkpt lat="42.85507" lon="0.91045">
        <ele>1516.364</ele>
        <time>2021-03-13T11:37:25Z</time>
      </trkpt>
      <trkpt lat="42.85507" lon="0.91045">
        <ele>1516.362</ele>
        <time>2021-03-13T11:37:27Z</time>
      </trkpt>
      <trkpt lat="42.85507" lon="0.91045">
        <ele>1516.359</ele>
        <time>2021-03-13T11:37:29Z</time>
      </trkpt>
      <trkpt lat="42.85507" lon="0.91045">
        <ele>1516.02</ele>
        <time>2021-03-13T11:37:31Z</time>
      </trkpt>
      <trkpt lat="42.85507" lon="0.91045">
        <ele>1515.309</ele>
        <time>2021-03-13T11:37:33Z</time>
      </trkpt>
      <trkpt lat="42.85508" lon="0.91045">
        <ele>1515.502</ele>
        <time>2021-03-13T11:37:35Z</time>
      </trkpt>
      <trkpt lat="42.85508" lon="0.91045">
        <ele>1515.498</ele>
        <time>2021-03-13T11:37:37Z</time>
      </trkpt>
      <trkpt lat="42.85508" lon="0.91045">
        <ele>1516.026</ele>
        <time>2021-03-13T11:37:39Z</time>
      </trkpt>
      <trkpt lat="42.85508" lon="0.91045">
        <ele>1516.075</ele>
        <time>2021-03-13T11:37:41Z</time>
      </trkpt>
      <trkpt lat="42.85508" lon="0.91045">
        <ele>1516.061</ele>
        <time>2021-03-13T11:37:43Z</time>
      </trkpt>
      <trkpt lat="42.85508" lon="0.91045">
        <ele>1516.061</ele>
        <time>2021-03-13T11:37:45Z</time>
      </trkpt>
      <trkpt lat="42.85508" lon="0.91045">
        <ele>1516.058</ele>
        <time>2021-03-13T11:37:47Z</time>
      </trkpt>
      <trkpt lat="42.85508" lon="0.91045">
        <ele>1516.225</ele>
        <time>2021-03-13T11:37:49Z</time>
      </trkpt>
      <trkpt lat="42.85508" lon="0.91044">
        <ele>1516.298</ele>
        <time>2021-03-13T11:37:51Z</time>
      </trkpt>
      <trkpt lat="42.85508" lon="0.91045">
        <ele>1516.463</ele>
        <time>2021-03-13T11:37:53Z</time>
      </trkpt>
      <trkpt lat="42.85507" lon="0.91044">
        <ele>1516.494</ele>
        <time>2021-03-13T11:37:55Z</time>
      </trkpt>
      <trkpt lat="42.85507" lon="0.91044">
        <ele>1517.047</ele>
        <time>2021-03-13T11:37:57Z</time>
      </trkpt>
      <trkpt lat="42.85506" lon="0.91043">
        <ele>1517.389</ele>
        <time>2021-03-13T11:37:59Z</time>
      </trkpt>
      <trkpt lat="42.85506" lon="0.91041">
        <ele>1517.132</ele>
        <time>2021-03-13T11:38:01Z</time>
      </trkpt>
      <trkpt lat="42.85505" lon="0.91039">
        <ele>1516.902</ele>
        <time>2021-03-13T11:38:03Z</time>
      </trkpt>
      <trkpt lat="42.85504" lon="0.91037">
        <ele>1516.44</ele>
        <time>2021-03-13T11:38:05Z</time>
      </trkpt>
      <trkpt lat="42.85503" lon="0.91034">
        <ele>1516.598</ele>
        <time>2021-03-13T11:38:07Z</time>
      </trkpt>
      <trkpt lat="42.85502" lon="0.91032">
        <ele>1515.977</ele>
        <time>2021-03-13T11:38:09Z</time>
      </trkpt>
      <trkpt lat="42.85502" lon="0.91029">
        <ele>1515.414</ele>
        <time>2021-03-13T11:38:11Z</time>
      </trkpt>
      <trkpt lat="42.85501" lon="0.91027">
        <ele>1515.675</ele>
        <time>2021-03-13T11:38:13Z</time>
      </trkpt>
      <trkpt lat="42.85501" lon="0.91024">
        <ele>1515.453</ele>
        <time>2021-03-13T11:38:15Z</time>
      </trkpt>
      <trkpt lat="42.85501" lon="0.91021">
        <ele>1515.162</ele>
        <time>2021-03-13T11:38:17Z</time>
      </trkpt>
      <trkpt lat="42.855" lon="0.91018">
        <ele>1515.065</ele>
        <time>2021-03-13T11:38:19Z</time>
      </trkpt>
      <trkpt lat="42.855" lon="0.91017">
        <ele>1514.227</ele>
        <time>2021-03-13T11:38:21Z</time>
      </trkpt>
      <trkpt lat="42.85501" lon="0.91015">
        <ele>1513.559</ele>
        <time>2021-03-13T11:38:23Z</time>
      </trkpt>
      <trkpt lat="42.85501" lon="0.91013">
        <ele>1513.612</ele>
        <time>2021-03-13T11:38:25Z</time>
      </trkpt>
      <trkpt lat="42.85501" lon="0.91011">
        <ele>1513.633</ele>
        <time>2021-03-13T11:38:27Z</time>
      </trkpt>
      <trkpt lat="42.85501" lon="0.91009">
        <ele>1513.289</ele>
        <time>2021-03-13T11:38:29Z</time>
      </trkpt>
      <trkpt lat="42.855" lon="0.91007">
        <ele>1512.851</ele>
        <time>2021-03-13T11:38:31Z</time>
      </trkpt>
      <trkpt lat="42.85502" lon="0.91004">
        <ele>1512.398</ele>
        <time>2021-03-13T11:38:33Z</time>
      </trkpt>
      <trkpt lat="42.85502" lon="0.91004">
        <ele>1512.358</ele>
        <time>2021-03-13T11:38:35Z</time>
      </trkpt>
      <trkpt lat="42.85502" lon="0.91004">
        <ele>1512.363</ele>
        <time>2021-03-13T11:38:37Z</time>
      </trkpt>
      <trkpt lat="42.85502" lon="0.91004">
        <ele>1512.367</ele>
        <time>2021-03-13T11:38:39Z</time>
      </trkpt>
      <trkpt lat="42.85503" lon="0.91004">
        <ele>1512.357</ele>
        <time>2021-03-13T11:38:41Z</time>
      </trkpt>
      <trkpt lat="42.85503" lon="0.91004">
        <ele>1512.345</ele>
        <time>2021-03-13T11:38:43Z</time>
      </trkpt>
      <trkpt lat="42.85503" lon="0.91004">
        <ele>1512.333</ele>
        <time>2021-03-13T11:38:45Z</time>
      </trkpt>
      <trkpt lat="42.85502" lon="0.91003">
        <ele>1511.906</ele>
        <time>2021-03-13T11:38:47Z</time>
      </trkpt>
      <trkpt lat="42.85503" lon="0.91">
        <ele>1511.715</ele>
        <time>2021-03-13T11:38:49Z</time>
      </trkpt>
      <trkpt lat="42.85503" lon="0.90997">
        <ele>1512.193</ele>
        <time>2021-03-13T11:38:51Z</time>
      </trkpt>
      <trkpt lat="42.85502" lon="0.90994">
        <ele>1511.564</ele>
        <time>2021-03-13T11:38:53Z</time>
      </trkpt>
      <trkpt lat="42.85502" lon="0.90992">
        <ele>1511.422</ele>
        <time>2021-03-13T11:38:55Z</time>
      </trkpt>
      <trkpt lat="42.85502" lon="0.9099">
        <ele>1511.36</ele>
        <time>2021-03-13T11:38:57Z</time>
      </trkpt>
      <trkpt lat="42.85502" lon="0.90989">
        <ele>1510.7</ele>
        <time>2021-03-13T11:38:59Z</time>
      </trkpt>
      <trkpt lat="42.85502" lon="0.90987">
        <ele>1510.506</ele>
        <time>2021-03-13T11:39:01Z</time>
      </trkpt>
      <trkpt lat="42.85501" lon="0.90985">
        <ele>1510.346</ele>
        <time>2021-03-13T11:39:03Z</time>
      </trkpt>
      <trkpt lat="42.85501" lon="0.90982">
        <ele>1510.621</ele>
        <time>2021-03-13T11:39:05Z</time>
      </trkpt>
      <trkpt lat="42.855" lon="0.9098">
        <ele>1509.94</ele>
        <time>2021-03-13T11:39:07Z</time>
      </trkpt>
      <trkpt lat="42.855" lon="0.90977">
        <ele>1509.595</ele>
        <time>2021-03-13T11:39:09Z</time>
      </trkpt>
      <trkpt lat="42.85499" lon="0.90975">
        <ele>1509.068</ele>
        <time>2021-03-13T11:39:11Z</time>
      </trkpt>
      <trkpt lat="42.85499" lon="0.90972">
        <ele>1508.745</ele>
        <time>2021-03-13T11:39:13Z</time>
      </trkpt>
      <trkpt lat="42.85498" lon="0.90969">
        <ele>1508.75</ele>
        <time>2021-03-13T11:39:15Z</time>
      </trkpt>
      <trkpt lat="42.85497" lon="0.90967">
        <ele>1508.615</ele>
        <time>2021-03-13T11:39:17Z</time>
      </trkpt>
      <trkpt lat="42.85496" lon="0.90964">
        <ele>1507.851</ele>
        <time>2021-03-13T11:39:19Z</time>
      </trkpt>
      <trkpt lat="42.85495" lon="0.90961">
        <ele>1507.084</ele>
        <time>2021-03-13T11:39:21Z</time>
      </trkpt>
      <trkpt lat="42.85495" lon="0.90959">
        <ele>1506.842</ele>
        <time>2021-03-13T11:39:23Z</time>
      </trkpt>
      <trkpt lat="42.85494" lon="0.90956">
        <ele>1507.217</ele>
        <time>2021-03-13T11:39:25Z</time>
      </trkpt>
      <trkpt lat="42.85494" lon="0.90953">
        <ele>1507.003</ele>
        <time>2021-03-13T11:39:27Z</time>
      </trkpt>
      <trkpt lat="42.85493" lon="0.9095">
        <ele>1506.537</ele>
        <time>2021-03-13T11:39:29Z</time>
      </trkpt>
      <trkpt lat="42.85493" lon="0.90947">
        <ele>1506.075</ele>
        <time>2021-03-13T11:39:31Z</time>
      </trkpt>
      <trkpt lat="42.85493" lon="0.90944">
        <ele>1505.97</ele>
        <time>2021-03-13T11:39:33Z</time>
      </trkpt>
      <trkpt lat="42.85493" lon="0.90941">
        <ele>1505.747</ele>
        <time>2021-03-13T11:39:35Z</time>
      </trkpt>
      <trkpt lat="42.85493" lon="0.90939">
        <ele>1505.701</ele>
        <time>2021-03-13T11:39:37Z</time>
      </trkpt>
      <trkpt lat="42.85492" lon="0.90936">
        <ele>1505.504</ele>
        <time>2021-03-13T11:39:39Z</time>
      </trkpt>
      <trkpt lat="42.85491" lon="0.90934">
        <ele>1504.935</ele>
        <time>2021-03-13T11:39:41Z</time>
      </trkpt>
      <trkpt lat="42.85491" lon="0.90931">
        <ele>1504.107</ele>
        <time>2021-03-13T11:39:43Z</time>
      </trkpt>
      <trkpt lat="42.85491" lon="0.90928">
        <ele>1504.211</ele>
        <time>2021-03-13T11:39:45Z</time>
      </trkpt>
      <trkpt lat="42.85491" lon="0.90925">
        <ele>1504.163</ele>
        <time>2021-03-13T11:39:47Z</time>
      </trkpt>
      <trkpt lat="42.8549" lon="0.90922">
        <ele>1503.764</ele>
        <time>2021-03-13T11:39:49Z</time>
      </trkpt>
      <trkpt lat="42.8549" lon="0.90919">
        <ele>1503.62</ele>
        <time>2021-03-13T11:39:51Z</time>
      </trkpt>
      <trkpt lat="42.8549" lon="0.90916">
        <ele>1502.832</ele>
        <time>2021-03-13T11:39:53Z</time>
      </trkpt>
      <trkpt lat="42.85489" lon="0.90913">
        <ele>1502.751</ele>
        <time>2021-03-13T11:39:55Z</time>
      </trkpt>
      <trkpt lat="42.85489" lon="0.9091">
        <ele>1502.632</ele>
        <time>2021-03-13T11:39:57Z</time>
      </trkpt>
      <trkpt lat="42.85488" lon="0.90906">
        <ele>1502.362</ele>
        <time>2021-03-13T11:39:59Z</time>
      </trkpt>
      <trkpt lat="42.85488" lon="0.90904">
        <ele>1501.753</ele>
        <time>2021-03-13T11:40:01Z</time>
      </trkpt>
      <trkpt lat="42.85487" lon="0.90901">
        <ele>1501.316</ele>
        <time>2021-03-13T11:40:03Z</time>
      </trkpt>
      <trkpt lat="42.85487" lon="0.90897">
        <ele>1501.129</ele>
        <time>2021-03-13T11:40:05Z</time>
      </trkpt>
      <trkpt lat="42.85486" lon="0.90894">
        <ele>1501.238</ele>
        <time>2021-03-13T11:40:07Z</time>
      </trkpt>
      <trkpt lat="42.85486" lon="0.90891">
        <ele>1501.622</ele>
        <time>2021-03-13T11:40:09Z</time>
      </trkpt>
      <trkpt lat="42.85485" lon="0.90889">
        <ele>1502.685</ele>
        <time>2021-03-13T11:40:11Z</time>
      </trkpt>
      <trkpt lat="42.85484" lon="0.90886">
        <ele>1503.406</ele>
        <time>2021-03-13T11:40:13Z</time>
      </trkpt>
      <trkpt lat="42.85483" lon="0.90883">
        <ele>1502.48</ele>
        <time>2021-03-13T11:40:15Z</time>
      </trkpt>
      <trkpt lat="42.85482" lon="0.9088">
        <ele>1501.683</ele>
        <time>2021-03-13T11:40:17Z</time>
      </trkpt>
      <trkpt lat="42.85481" lon="0.90878">
        <ele>1499.168</ele>
        <time>2021-03-13T11:40:19Z</time>
      </trkpt>
      <trkpt lat="42.8548" lon="0.90875">
        <ele>1500.136</ele>
        <time>2021-03-13T11:40:21Z</time>
      </trkpt>
      <trkpt lat="42.85479" lon="0.90873">
        <ele>1500.121</ele>
        <time>2021-03-13T11:40:23Z</time>
      </trkpt>
      <trkpt lat="42.85479" lon="0.9087">
        <ele>1499.398</ele>
        <time>2021-03-13T11:40:25Z</time>
      </trkpt>
      <trkpt lat="42.85479" lon="0.90867">
        <ele>1499.759</ele>
        <time>2021-03-13T11:40:27Z</time>
      </trkpt>
      <trkpt lat="42.85478" lon="0.90865">
        <ele>1499.096</ele>
        <time>2021-03-13T11:40:29Z</time>
      </trkpt>
      <trkpt lat="42.85477" lon="0.90862">
        <ele>1498.158</ele>
        <time>2021-03-13T11:40:31Z</time>
      </trkpt>
      <trkpt lat="42.85475" lon="0.9086">
        <ele>1497.763</ele>
        <time>2021-03-13T11:40:33Z</time>
      </trkpt>
      <trkpt lat="42.85475" lon="0.90857">
        <ele>1497.224</ele>
        <time>2021-03-13T11:40:35Z</time>
      </trkpt>
      <trkpt lat="42.85474" lon="0.90854">
        <ele>1496.23</ele>
        <time>2021-03-13T11:40:37Z</time>
      </trkpt>
      <trkpt lat="42.85472" lon="0.9085">
        <ele>1495.864</ele>
        <time>2021-03-13T11:40:40Z</time>
      </trkpt>
      <trkpt lat="42.85471" lon="0.90848">
        <ele>1496.365</ele>
        <time>2021-03-13T11:40:42Z</time>
      </trkpt>
      <trkpt lat="42.8547" lon="0.90845">
        <ele>1496.313</ele>
        <time>2021-03-13T11:40:44Z</time>
      </trkpt>
      <trkpt lat="42.85469" lon="0.90842">
        <ele>1496.735</ele>
        <time>2021-03-13T11:40:46Z</time>
      </trkpt>
      <trkpt lat="42.85468" lon="0.90839">
        <ele>1498.313</ele>
        <time>2021-03-13T11:40:48Z</time>
      </trkpt>
      <trkpt lat="42.85467" lon="0.90837">
        <ele>1497.656</ele>
        <time>2021-03-13T11:40:50Z</time>
      </trkpt>
      <trkpt lat="42.85467" lon="0.90834">
        <ele>1498.164</ele>
        <time>2021-03-13T11:40:52Z</time>
      </trkpt>
      <trkpt lat="42.85466" lon="0.90832">
        <ele>1498.466</ele>
        <time>2021-03-13T11:40:54Z</time>
      </trkpt>
      <trkpt lat="42.85466" lon="0.90829">
        <ele>1498.432</ele>
        <time>2021-03-13T11:40:56Z</time>
      </trkpt>
      <trkpt lat="42.85465" lon="0.90827">
        <ele>1497.324</ele>
        <time>2021-03-13T11:40:58Z</time>
      </trkpt>
      <trkpt lat="42.85464" lon="0.90824">
        <ele>1497.431</ele>
        <time>2021-03-13T11:41:00Z</time>
      </trkpt>
      <trkpt lat="42.85463" lon="0.90821">
        <ele>1498.177</ele>
        <time>2021-03-13T11:41:02Z</time>
      </trkpt>
      <trkpt lat="42.85462" lon="0.90817">
        <ele>1498.016</ele>
        <time>2021-03-13T11:41:04Z</time>
      </trkpt>
      <trkpt lat="42.85462" lon="0.90815">
        <ele>1497.945</ele>
        <time>2021-03-13T11:41:06Z</time>
      </trkpt>
      <trkpt lat="42.85461" lon="0.90812">
        <ele>1497.968</ele>
        <time>2021-03-13T11:41:08Z</time>
      </trkpt>
      <trkpt lat="42.8546" lon="0.90809">
        <ele>1499.225</ele>
        <time>2021-03-13T11:41:10Z</time>
      </trkpt>
      <trkpt lat="42.8546" lon="0.90806">
        <ele>1498.657</ele>
        <time>2021-03-13T11:41:12Z</time>
      </trkpt>
      <trkpt lat="42.85459" lon="0.90803">
        <ele>1498.867</ele>
        <time>2021-03-13T11:41:14Z</time>
      </trkpt>
      <trkpt lat="42.85459" lon="0.90801">
        <ele>1498.969</ele>
        <time>2021-03-13T11:41:16Z</time>
      </trkpt>
      <trkpt lat="42.85459" lon="0.90798">
        <ele>1498.49</ele>
        <time>2021-03-13T11:41:18Z</time>
      </trkpt>
      <trkpt lat="42.85459" lon="0.90796">
        <ele>1497.118</ele>
        <time>2021-03-13T11:41:20Z</time>
      </trkpt>
      <trkpt lat="42.8546" lon="0.90793">
        <ele>1498.314</ele>
        <time>2021-03-13T11:41:22Z</time>
      </trkpt>
      <trkpt lat="42.85459" lon="0.9079">
        <ele>1497.495</ele>
        <time>2021-03-13T11:41:24Z</time>
      </trkpt>
      <trkpt lat="42.8546" lon="0.90788">
        <ele>1497.077</ele>
        <time>2021-03-13T11:41:26Z</time>
      </trkpt>
      <trkpt lat="42.8546" lon="0.90786">
        <ele>1497.965</ele>
        <time>2021-03-13T11:41:28Z</time>
      </trkpt>
      <trkpt lat="42.8546" lon="0.90783">
        <ele>1498.034</ele>
        <time>2021-03-13T11:41:30Z</time>
      </trkpt>
      <trkpt lat="42.85459" lon="0.90781">
        <ele>1498.376</ele>
        <time>2021-03-13T11:41:32Z</time>
      </trkpt>
      <trkpt lat="42.85459" lon="0.90778">
        <ele>1498.561</ele>
        <time>2021-03-13T11:41:34Z</time>
      </trkpt>
      <trkpt lat="42.85458" lon="0.90776">
        <ele>1497.581</ele>
        <time>2021-03-13T11:41:36Z</time>
      </trkpt>
      <trkpt lat="42.85457" lon="0.90773">
        <ele>1497.642</ele>
        <time>2021-03-13T11:41:38Z</time>
      </trkpt>
      <trkpt lat="42.85457" lon="0.90771">
        <ele>1496.854</ele>
        <time>2021-03-13T11:41:40Z</time>
      </trkpt>
      <trkpt lat="42.85457" lon="0.90769">
        <ele>1497.039</ele>
        <time>2021-03-13T11:41:42Z</time>
      </trkpt>
      <trkpt lat="42.85456" lon="0.90767">
        <ele>1496.727</ele>
        <time>2021-03-13T11:41:44Z</time>
      </trkpt>
      <trkpt lat="42.85455" lon="0.90765">
        <ele>1495.176</ele>
        <time>2021-03-13T11:41:46Z</time>
      </trkpt>
      <trkpt lat="42.85455" lon="0.90762">
        <ele>1494.368</ele>
        <time>2021-03-13T11:41:48Z</time>
      </trkpt>
      <trkpt lat="42.85454" lon="0.9076">
        <ele>1495.068</ele>
        <time>2021-03-13T11:41:50Z</time>
      </trkpt>
      <trkpt lat="42.85454" lon="0.90758">
        <ele>1495.318</ele>
        <time>2021-03-13T11:41:52Z</time>
      </trkpt>
      <trkpt lat="42.85453" lon="0.90756">
        <ele>1495.412</ele>
        <time>2021-03-13T11:41:54Z</time>
      </trkpt>
      <trkpt lat="42.85453" lon="0.90754">
        <ele>1494.473</ele>
        <time>2021-03-13T11:41:56Z</time>
      </trkpt>
      <trkpt lat="42.85452" lon="0.90751">
        <ele>1494.999</ele>
        <time>2021-03-13T11:41:58Z</time>
      </trkpt>
      <trkpt lat="42.85451" lon="0.90748">
        <ele>1496.068</ele>
        <time>2021-03-13T11:42:00Z</time>
      </trkpt>
      <trkpt lat="42.85451" lon="0.90745">
        <ele>1495.585</ele>
        <time>2021-03-13T11:42:02Z</time>
      </trkpt>
      <trkpt lat="42.8545" lon="0.90742">
        <ele>1497.039</ele>
        <time>2021-03-13T11:42:04Z</time>
      </trkpt>
      <trkpt lat="42.8545" lon="0.90739">
        <ele>1497.036</ele>
        <time>2021-03-13T11:42:06Z</time>
      </trkpt>
      <trkpt lat="42.85449" lon="0.90737">
        <ele>1497.229</ele>
        <time>2021-03-13T11:42:08Z</time>
      </trkpt>
      <trkpt lat="42.85449" lon="0.90734">
        <ele>1496.845</ele>
        <time>2021-03-13T11:42:10Z</time>
      </trkpt>
      <trkpt lat="42.85448" lon="0.90732">
        <ele>1496.205</ele>
        <time>2021-03-13T11:42:12Z</time>
      </trkpt>
      <trkpt lat="42.85447" lon="0.90729">
        <ele>1497.201</ele>
        <time>2021-03-13T11:42:14Z</time>
      </trkpt>
      <trkpt lat="42.85446" lon="0.90727">
        <ele>1497.014</ele>
        <time>2021-03-13T11:42:16Z</time>
      </trkpt>
      <trkpt lat="42.85445" lon="0.90725">
        <ele>1496.034</ele>
        <time>2021-03-13T11:42:18Z</time>
      </trkpt>
      <trkpt lat="42.85445" lon="0.90723">
        <ele>1495.29</ele>
        <time>2021-03-13T11:42:20Z</time>
      </trkpt>
      <trkpt lat="42.85444" lon="0.90721">
        <ele>1494.051</ele>
        <time>2021-03-13T11:42:22Z</time>
      </trkpt>
      <trkpt lat="42.85442" lon="0.9072">
        <ele>1493.761</ele>
        <time>2021-03-13T11:42:24Z</time>
      </trkpt>
      <trkpt lat="42.85441" lon="0.90719">
        <ele>1493.609</ele>
        <time>2021-03-13T11:42:26Z</time>
      </trkpt>
      <trkpt lat="42.8544" lon="0.90717">
        <ele>1493.416</ele>
        <time>2021-03-13T11:42:28Z</time>
      </trkpt>
      <trkpt lat="42.85439" lon="0.90715">
        <ele>1492.159</ele>
        <time>2021-03-13T11:42:30Z</time>
      </trkpt>
      <trkpt lat="42.85438" lon="0.90712">
        <ele>1492.17</ele>
        <time>2021-03-13T11:42:32Z</time>
      </trkpt>
      <trkpt lat="42.85437" lon="0.90709">
        <ele>1493.588</ele>
        <time>2021-03-13T11:42:34Z</time>
      </trkpt>
      <trkpt lat="42.85436" lon="0.90706">
        <ele>1492.329</ele>
        <time>2021-03-13T11:42:36Z</time>
      </trkpt>
      <trkpt lat="42.85436" lon="0.90702">
        <ele>1494.321</ele>
        <time>2021-03-13T11:42:38Z</time>
      </trkpt>
      <trkpt lat="42.85435" lon="0.90699">
        <ele>1494.437</ele>
        <time>2021-03-13T11:42:40Z</time>
      </trkpt>
      <trkpt lat="42.85435" lon="0.90697">
        <ele>1493.186</ele>
        <time>2021-03-13T11:42:42Z</time>
      </trkpt>
      <trkpt lat="42.85434" lon="0.90696">
        <ele>1493.618</ele>
        <time>2021-03-13T11:42:43Z</time>
      </trkpt>
      <trkpt lat="42.85432" lon="0.90692">
        <ele>1496.148</ele>
        <time>2021-03-13T11:42:46Z</time>
      </trkpt>
      <trkpt lat="42.85432" lon="0.90688">
        <ele>1496.349</ele>
        <time>2021-03-13T11:42:48Z</time>
      </trkpt>
      <trkpt lat="42.85431" lon="0.90685">
        <ele>1497.245</ele>
        <time>2021-03-13T11:42:50Z</time>
      </trkpt>
      <trkpt lat="42.85431" lon="0.90682">
        <ele>1496.96</ele>
        <time>2021-03-13T11:42:52Z</time>
      </trkpt>
      <trkpt lat="42.85431" lon="0.90681">
        <ele>1496.903</ele>
        <time>2021-03-13T11:42:53Z</time>
      </trkpt>
      <trkpt lat="42.85429" lon="0.90677">
        <ele>1496.411</ele>
        <time>2021-03-13T11:42:56Z</time>
      </trkpt>
      <trkpt lat="42.85428" lon="0.90675">
        <ele>1495.403</ele>
        <time>2021-03-13T11:42:58Z</time>
      </trkpt>
      <trkpt lat="42.85427" lon="0.90673">
        <ele>1493.754</ele>
        <time>2021-03-13T11:43:00Z</time>
      </trkpt>
      <trkpt lat="42.85425" lon="0.90671">
        <ele>1494.466</ele>
        <time>2021-03-13T11:43:02Z</time>
      </trkpt>
      <trkpt lat="42.85424" lon="0.90668">
        <ele>1494.949</ele>
        <time>2021-03-13T11:43:04Z</time>
      </trkpt>
      <trkpt lat="42.85423" lon="0.90666">
        <ele>1494.618</ele>
        <time>2021-03-13T11:43:06Z</time>
      </trkpt>
      <trkpt lat="42.85422" lon="0.90665">
        <ele>1494.649</ele>
        <time>2021-03-13T11:43:08Z</time>
      </trkpt>
      <trkpt lat="42.85421" lon="0.90663">
        <ele>1494.175</ele>
        <time>2021-03-13T11:43:10Z</time>
      </trkpt>
      <trkpt lat="42.85419" lon="0.90661">
        <ele>1494.074</ele>
        <time>2021-03-13T11:43:12Z</time>
      </trkpt>
      <trkpt lat="42.85418" lon="0.90659">
        <ele>1493.918</ele>
        <time>2021-03-13T11:43:14Z</time>
      </trkpt>
      <trkpt lat="42.85417" lon="0.90657">
        <ele>1494.631</ele>
        <time>2021-03-13T11:43:16Z</time>
      </trkpt>
      <trkpt lat="42.85415" lon="0.90653">
        <ele>1496.974</ele>
        <time>2021-03-13T11:43:18Z</time>
      </trkpt>
      <trkpt lat="42.85413" lon="0.9065">
        <ele>1497.232</ele>
        <time>2021-03-13T11:43:20Z</time>
      </trkpt>
      <trkpt lat="42.85413" lon="0.90647">
        <ele>1496.196</ele>
        <time>2021-03-13T11:43:22Z</time>
      </trkpt>
      <trkpt lat="42.85412" lon="0.90645">
        <ele>1496.42</ele>
        <time>2021-03-13T11:43:24Z</time>
      </trkpt>
      <trkpt lat="42.85412" lon="0.90643">
        <ele>1496.477</ele>
        <time>2021-03-13T11:43:26Z</time>
      </trkpt>
      <trkpt lat="42.85411" lon="0.90641">
        <ele>1497.73</ele>
        <time>2021-03-13T11:43:28Z</time>
      </trkpt>
      <trkpt lat="42.8541" lon="0.90638">
        <ele>1497.47</ele>
        <time>2021-03-13T11:43:30Z</time>
      </trkpt>
      <trkpt lat="42.85409" lon="0.90635">
        <ele>1498.083</ele>
        <time>2021-03-13T11:43:32Z</time>
      </trkpt>
      <trkpt lat="42.85409" lon="0.90633">
        <ele>1497.732</ele>
        <time>2021-03-13T11:43:34Z</time>
      </trkpt>
      <trkpt lat="42.85407" lon="0.90631">
        <ele>1498.979</ele>
        <time>2021-03-13T11:43:36Z</time>
      </trkpt>
      <trkpt lat="42.85406" lon="0.90631">
        <ele>1499.185</ele>
        <time>2021-03-13T11:43:38Z</time>
      </trkpt>
      <trkpt lat="42.85406" lon="0.90631">
        <ele>1499.178</ele>
        <time>2021-03-13T11:43:40Z</time>
      </trkpt>
      <trkpt lat="42.85406" lon="0.90631">
        <ele>1498.851</ele>
        <time>2021-03-13T11:43:42Z</time>
      </trkpt>
      <trkpt lat="42.85406" lon="0.90631">
        <ele>1498.839</ele>
        <time>2021-03-13T11:43:44Z</time>
      </trkpt>
      <trkpt lat="42.85406" lon="0.90631">
        <ele>1498.821</ele>
        <time>2021-03-13T11:43:46Z</time>
      </trkpt>
      <trkpt lat="42.85406" lon="0.9063">
        <ele>1498.636</ele>
        <time>2021-03-13T11:43:48Z</time>
      </trkpt>
      <trkpt lat="42.85404" lon="0.90629">
        <ele>1498.676</ele>
        <time>2021-03-13T11:43:50Z</time>
      </trkpt>
      <trkpt lat="42.85404" lon="0.90627">
        <ele>1497.32</ele>
        <time>2021-03-13T11:43:52Z</time>
      </trkpt>
      <trkpt lat="42.85403" lon="0.90626">
        <ele>1496.099</ele>
        <time>2021-03-13T11:43:54Z</time>
      </trkpt>
      <trkpt lat="42.85402" lon="0.90625">
        <ele>1495.983</ele>
        <time>2021-03-13T11:43:56Z</time>
      </trkpt>
      <trkpt lat="42.85401" lon="0.90623">
        <ele>1496.985</ele>
        <time>2021-03-13T11:43:58Z</time>
      </trkpt>
      <trkpt lat="42.85401" lon="0.90621">
        <ele>1496.392</ele>
        <time>2021-03-13T11:44:00Z</time>
      </trkpt>
      <trkpt lat="42.854" lon="0.90619">
        <ele>1496.217</ele>
        <time>2021-03-13T11:44:02Z</time>
      </trkpt>
      <trkpt lat="42.85399" lon="0.90617">
        <ele>1496.259</ele>
        <time>2021-03-13T11:44:04Z</time>
      </trkpt>
      <trkpt lat="42.85398" lon="0.90616">
        <ele>1496.283</ele>
        <time>2021-03-13T11:44:06Z</time>
      </trkpt>
      <trkpt lat="42.85397" lon="0.90614">
        <ele>1497.031</ele>
        <time>2021-03-13T11:44:08Z</time>
      </trkpt>
      <trkpt lat="42.85396" lon="0.90613">
        <ele>1497.858</ele>
        <time>2021-03-13T11:44:10Z</time>
      </trkpt>
      <trkpt lat="42.85396" lon="0.90612">
        <ele>1498.068</ele>
        <time>2021-03-13T11:44:12Z</time>
      </trkpt>
      <trkpt lat="42.85395" lon="0.90611">
        <ele>1498.269</ele>
        <time>2021-03-13T11:44:14Z</time>
      </trkpt>
      <trkpt lat="42.85395" lon="0.9061">
        <ele>1497.769</ele>
        <time>2021-03-13T11:44:16Z</time>
      </trkpt>
      <trkpt lat="42.85393" lon="0.9061">
        <ele>1499.183</ele>
        <time>2021-03-13T11:44:18Z</time>
      </trkpt>
      <trkpt lat="42.85393" lon="0.90608">
        <ele>1500.517</ele>
        <time>2021-03-13T11:44:20Z</time>
      </trkpt>
      <trkpt lat="42.85393" lon="0.90608">
        <ele>1499.922</ele>
        <time>2021-03-13T11:44:22Z</time>
      </trkpt>
      <trkpt lat="42.85392" lon="0.90608">
        <ele>1500.553</ele>
        <time>2021-03-13T11:44:24Z</time>
      </trkpt>
      <trkpt lat="42.85392" lon="0.90607">
        <ele>1499.712</ele>
        <time>2021-03-13T11:44:26Z</time>
      </trkpt>
      <trkpt lat="42.85392" lon="0.90606">
        <ele>1498.597</ele>
        <time>2021-03-13T11:44:28Z</time>
      </trkpt>
      <trkpt lat="42.85391" lon="0.90605">
        <ele>1497.725</ele>
        <time>2021-03-13T11:44:30Z</time>
      </trkpt>
      <trkpt lat="42.85391" lon="0.90604">
        <ele>1497.352</ele>
        <time>2021-03-13T11:44:32Z</time>
      </trkpt>
      <trkpt lat="42.85391" lon="0.90602">
        <ele>1498.756</ele>
        <time>2021-03-13T11:44:34Z</time>
      </trkpt>
      <trkpt lat="42.8539" lon="0.90601">
        <ele>1498.304</ele>
        <time>2021-03-13T11:44:36Z</time>
      </trkpt>
      <trkpt lat="42.85389" lon="0.90599">
        <ele>1497.311</ele>
        <time>2021-03-13T11:44:38Z</time>
      </trkpt>
      <trkpt lat="42.85389" lon="0.90596">
        <ele>1496.246</ele>
        <time>2021-03-13T11:44:40Z</time>
      </trkpt>
      <trkpt lat="42.85388" lon="0.90593">
        <ele>1495.829</ele>
        <time>2021-03-13T11:44:42Z</time>
      </trkpt>
      <trkpt lat="42.85387" lon="0.9059">
        <ele>1495.852</ele>
        <time>2021-03-13T11:44:44Z</time>
      </trkpt>
      <trkpt lat="42.85385" lon="0.90587">
        <ele>1495.48</ele>
        <time>2021-03-13T11:44:46Z</time>
      </trkpt>
      <trkpt lat="42.85384" lon="0.90584">
        <ele>1495.477</ele>
        <time>2021-03-13T11:44:48Z</time>
      </trkpt>
      <trkpt lat="42.85383" lon="0.90583">
        <ele>1494.72</ele>
        <time>2021-03-13T11:44:50Z</time>
      </trkpt>
      <trkpt lat="42.85382" lon="0.90581">
        <ele>1494.502</ele>
        <time>2021-03-13T11:44:52Z</time>
      </trkpt>
      <trkpt lat="42.8538" lon="0.90578">
        <ele>1494.452</ele>
        <time>2021-03-13T11:44:54Z</time>
      </trkpt>
      <trkpt lat="42.85379" lon="0.90575">
        <ele>1494.464</ele>
        <time>2021-03-13T11:44:56Z</time>
      </trkpt>
      <trkpt lat="42.85378" lon="0.90573">
        <ele>1496.348</ele>
        <time>2021-03-13T11:44:58Z</time>
      </trkpt>
      <trkpt lat="42.85377" lon="0.90574">
        <ele>1495.614</ele>
        <time>2021-03-13T11:45:00Z</time>
      </trkpt>
      <trkpt lat="42.85377" lon="0.90574">
        <ele>1494.542</ele>
        <time>2021-03-13T11:45:02Z</time>
      </trkpt>
      <trkpt lat="42.85376" lon="0.90574">
        <ele>1494.735</ele>
        <time>2021-03-13T11:45:04Z</time>
      </trkpt>
      <trkpt lat="42.85376" lon="0.90574">
        <ele>1493.287</ele>
        <time>2021-03-13T11:45:06Z</time>
      </trkpt>
      <trkpt lat="42.85377" lon="0.90574">
        <ele>1493.299</ele>
        <time>2021-03-13T11:45:08Z</time>
      </trkpt>
      <trkpt lat="42.85376" lon="0.90573">
        <ele>1493.376</ele>
        <time>2021-03-13T11:45:10Z</time>
      </trkpt>
      <trkpt lat="42.85376" lon="0.90572">
        <ele>1493.605</ele>
        <time>2021-03-13T11:45:12Z</time>
      </trkpt>
      <trkpt lat="42.85376" lon="0.90572">
        <ele>1493.752</ele>
        <time>2021-03-13T11:45:14Z</time>
      </trkpt>
      <trkpt lat="42.85376" lon="0.90572">
        <ele>1493.789</ele>
        <time>2021-03-13T11:45:16Z</time>
      </trkpt>
      <trkpt lat="42.85376" lon="0.90572">
        <ele>1493.9</ele>
        <time>2021-03-13T11:45:18Z</time>
      </trkpt>
      <trkpt lat="42.85376" lon="0.90573">
        <ele>1495.617</ele>
        <time>2021-03-13T11:45:20Z</time>
      </trkpt>
      <trkpt lat="42.85376" lon="0.90573">
        <ele>1496.582</ele>
        <time>2021-03-13T11:45:22Z</time>
      </trkpt>
      <trkpt lat="42.85376" lon="0.90572">
        <ele>1496.251</ele>
        <time>2021-03-13T11:45:24Z</time>
      </trkpt>
      <trkpt lat="42.85376" lon="0.90571">
        <ele>1496.498</ele>
        <time>2021-03-13T11:45:26Z</time>
      </trkpt>
      <trkpt lat="42.85376" lon="0.90571">
        <ele>1496.871</ele>
        <time>2021-03-13T11:45:28Z</time>
      </trkpt>
      <trkpt lat="42.85376" lon="0.90571">
        <ele>1497.442</ele>
        <time>2021-03-13T11:45:30Z</time>
      </trkpt>
      <trkpt lat="42.85375" lon="0.90571">
        <ele>1497.799</ele>
        <time>2021-03-13T11:45:32Z</time>
      </trkpt>
      <trkpt lat="42.85374" lon="0.9057">
        <ele>1497.235</ele>
        <time>2021-03-13T11:45:34Z</time>
      </trkpt>
      <trkpt lat="42.85374" lon="0.90569">
        <ele>1497.581</ele>
        <time>2021-03-13T11:45:36Z</time>
      </trkpt>
      <trkpt lat="42.85374" lon="0.90568">
        <ele>1497.067</ele>
        <time>2021-03-13T11:45:38Z</time>
      </trkpt>
      <trkpt lat="42.85373" lon="0.90567">
        <ele>1495.88</ele>
        <time>2021-03-13T11:45:40Z</time>
      </trkpt>
      <trkpt lat="42.85373" lon="0.90566">
        <ele>1495.812</ele>
        <time>2021-03-13T11:45:42Z</time>
      </trkpt>
      <trkpt lat="42.85372" lon="0.90565">
        <ele>1496.328</ele>
        <time>2021-03-13T11:45:44Z</time>
      </trkpt>
      <trkpt lat="42.85371" lon="0.90564">
        <ele>1495.407</ele>
        <time>2021-03-13T11:45:46Z</time>
      </trkpt>
      <trkpt lat="42.85371" lon="0.90561">
        <ele>1496.504</ele>
        <time>2021-03-13T11:45:48Z</time>
      </trkpt>
      <trkpt lat="42.8537" lon="0.9056">
        <ele>1496.341</ele>
        <time>2021-03-13T11:45:50Z</time>
      </trkpt>
      <trkpt lat="42.8537" lon="0.90558">
        <ele>1497.26</ele>
        <time>2021-03-13T11:45:52Z</time>
      </trkpt>
      <trkpt lat="42.8537" lon="0.90555">
        <ele>1497.647</ele>
        <time>2021-03-13T11:45:54Z</time>
      </trkpt>
      <trkpt lat="42.85371" lon="0.90555">
        <ele>1497.454</ele>
        <time>2021-03-13T11:45:56Z</time>
      </trkpt>
      <trkpt lat="42.85371" lon="0.90555">
        <ele>1497.456</ele>
        <time>2021-03-13T11:45:58Z</time>
      </trkpt>
      <trkpt lat="42.85371" lon="0.90554">
        <ele>1497.139</ele>
        <time>2021-03-13T11:46:00Z</time>
      </trkpt>
      <trkpt lat="42.85371" lon="0.90552">
        <ele>1496.894</ele>
        <time>2021-03-13T11:46:02Z</time>
      </trkpt>
      <trkpt lat="42.85372" lon="0.9055">
        <ele>1497.397</ele>
        <time>2021-03-13T11:46:04Z</time>
      </trkpt>
      <trkpt lat="42.85372" lon="0.90548">
        <ele>1497.941</ele>
        <time>2021-03-13T11:46:06Z</time>
      </trkpt>
      <trkpt lat="42.85372" lon="0.90545">
        <ele>1498.32</ele>
        <time>2021-03-13T11:46:08Z</time>
      </trkpt>
      <trkpt lat="42.8537" lon="0.90544">
        <ele>1499.01</ele>
        <time>2021-03-13T11:46:10Z</time>
      </trkpt>
      <trkpt lat="42.8537" lon="0.90542">
        <ele>1498.645</ele>
        <time>2021-03-13T11:46:12Z</time>
      </trkpt>
      <trkpt lat="42.85369" lon="0.9054">
        <ele>1499.15</ele>
        <time>2021-03-13T11:46:14Z</time>
      </trkpt>
      <trkpt lat="42.85369" lon="0.90538">
        <ele>1499.32</ele>
        <time>2021-03-13T11:46:16Z</time>
      </trkpt>
      <trkpt lat="42.85368" lon="0.90536">
        <ele>1499.442</ele>
        <time>2021-03-13T11:46:18Z</time>
      </trkpt>
      <trkpt lat="42.85367" lon="0.90534">
        <ele>1498.853</ele>
        <time>2021-03-13T11:46:20Z</time>
      </trkpt>
      <trkpt lat="42.85367" lon="0.90532">
        <ele>1499.264</ele>
        <time>2021-03-13T11:46:22Z</time>
      </trkpt>
      <trkpt lat="42.85366" lon="0.9053">
        <ele>1499.332</ele>
        <time>2021-03-13T11:46:24Z</time>
      </trkpt>
      <trkpt lat="42.85366" lon="0.90528">
        <ele>1498.534</ele>
        <time>2021-03-13T11:46:26Z</time>
      </trkpt>
      <trkpt lat="42.85365" lon="0.90526">
        <ele>1497.542</ele>
        <time>2021-03-13T11:46:28Z</time>
      </trkpt>
      <trkpt lat="42.85365" lon="0.90524">
        <ele>1497.646</ele>
        <time>2021-03-13T11:46:30Z</time>
      </trkpt>
      <trkpt lat="42.85364" lon="0.90522">
        <ele>1498.478</ele>
        <time>2021-03-13T11:46:32Z</time>
      </trkpt>
      <trkpt lat="42.85363" lon="0.90521">
        <ele>1497.161</ele>
        <time>2021-03-13T11:46:34Z</time>
      </trkpt>
      <trkpt lat="42.85362" lon="0.90519">
        <ele>1497.393</ele>
        <time>2021-03-13T11:46:36Z</time>
      </trkpt>
      <trkpt lat="42.8536" lon="0.90517">
        <ele>1497.724</ele>
        <time>2021-03-13T11:46:38Z</time>
      </trkpt>
      <trkpt lat="42.85359" lon="0.90516">
        <ele>1498.567</ele>
        <time>2021-03-13T11:46:40Z</time>
      </trkpt>
      <trkpt lat="42.85358" lon="0.90516">
        <ele>1498.636</ele>
        <time>2021-03-13T11:46:42Z</time>
      </trkpt>
      <trkpt lat="42.85356" lon="0.90515">
        <ele>1499.026</ele>
        <time>2021-03-13T11:46:44Z</time>
      </trkpt>
      <trkpt lat="42.85355" lon="0.90513">
        <ele>1499.204</ele>
        <time>2021-03-13T11:46:46Z</time>
      </trkpt>
      <trkpt lat="42.85354" lon="0.90511">
        <ele>1499.35</ele>
        <time>2021-03-13T11:46:48Z</time>
      </trkpt>
      <trkpt lat="42.85353" lon="0.90511">
        <ele>1498.526</ele>
        <time>2021-03-13T11:46:50Z</time>
      </trkpt>
      <trkpt lat="42.85351" lon="0.9051">
        <ele>1500.334</ele>
        <time>2021-03-13T11:46:52Z</time>
      </trkpt>
      <trkpt lat="42.8535" lon="0.9051">
        <ele>1500.235</ele>
        <time>2021-03-13T11:46:54Z</time>
      </trkpt>
      <trkpt lat="42.85349" lon="0.90509">
        <ele>1501.078</ele>
        <time>2021-03-13T11:46:56Z</time>
      </trkpt>
      <trkpt lat="42.85347" lon="0.90509">
        <ele>1501.398</ele>
        <time>2021-03-13T11:46:58Z</time>
      </trkpt>
      <trkpt lat="42.85346" lon="0.90509">
        <ele>1501.87</ele>
        <time>2021-03-13T11:47:00Z</time>
      </trkpt>
      <trkpt lat="42.85345" lon="0.90508">
        <ele>1501.561</ele>
        <time>2021-03-13T11:47:02Z</time>
      </trkpt>
      <trkpt lat="42.85344" lon="0.90509">
        <ele>1501.121</ele>
        <time>2021-03-13T11:47:04Z</time>
      </trkpt>
      <trkpt lat="42.85343" lon="0.90508">
        <ele>1500.691</ele>
        <time>2021-03-13T11:47:06Z</time>
      </trkpt>
      <trkpt lat="42.85341" lon="0.90508">
        <ele>1500.986</ele>
        <time>2021-03-13T11:47:08Z</time>
      </trkpt>
      <trkpt lat="42.8534" lon="0.90509">
        <ele>1501.962</ele>
        <time>2021-03-13T11:47:10Z</time>
      </trkpt>
      <trkpt lat="42.85339" lon="0.90508">
        <ele>1501.9</ele>
        <time>2021-03-13T11:47:12Z</time>
      </trkpt>
      <trkpt lat="42.85338" lon="0.90508">
        <ele>1501.648</ele>
        <time>2021-03-13T11:47:14Z</time>
      </trkpt>
      <trkpt lat="42.85337" lon="0.90508">
        <ele>1501.417</ele>
        <time>2021-03-13T11:47:16Z</time>
      </trkpt>
      <trkpt lat="42.85335" lon="0.90508">
        <ele>1502.221</ele>
        <time>2021-03-13T11:47:18Z</time>
      </trkpt>
      <trkpt lat="42.85334" lon="0.90509">
        <ele>1502.221</ele>
        <time>2021-03-13T11:47:20Z</time>
      </trkpt>
      <trkpt lat="42.85332" lon="0.90509">
        <ele>1502.025</ele>
        <time>2021-03-13T11:47:22Z</time>
      </trkpt>
      <trkpt lat="42.85331" lon="0.90509">
        <ele>1501.727</ele>
        <time>2021-03-13T11:47:24Z</time>
      </trkpt>
      <trkpt lat="42.85329" lon="0.9051">
        <ele>1501.649</ele>
        <time>2021-03-13T11:47:26Z</time>
      </trkpt>
      <trkpt lat="42.85328" lon="0.9051">
        <ele>1501.499</ele>
        <time>2021-03-13T11:47:28Z</time>
      </trkpt>
      <trkpt lat="42.85326" lon="0.90509">
        <ele>1501.341</ele>
        <time>2021-03-13T11:47:30Z</time>
      </trkpt>
      <trkpt lat="42.85325" lon="0.90509">
        <ele>1500.346</ele>
        <time>2021-03-13T11:47:32Z</time>
      </trkpt>
      <trkpt lat="42.85323" lon="0.90508">
        <ele>1499.961</ele>
        <time>2021-03-13T11:47:34Z</time>
      </trkpt>
      <trkpt lat="42.85321" lon="0.90507">
        <ele>1499.699</ele>
        <time>2021-03-13T11:47:36Z</time>
      </trkpt>
      <trkpt lat="42.85319" lon="0.90507">
        <ele>1499.701</ele>
        <time>2021-03-13T11:47:38Z</time>
      </trkpt>
      <trkpt lat="42.85317" lon="0.90506">
        <ele>1499.229</ele>
        <time>2021-03-13T11:47:40Z</time>
      </trkpt>
      <trkpt lat="42.85315" lon="0.90505">
        <ele>1499.315</ele>
        <time>2021-03-13T11:47:42Z</time>
      </trkpt>
      <trkpt lat="42.85314" lon="0.90503">
        <ele>1498.909</ele>
        <time>2021-03-13T11:47:44Z</time>
      </trkpt>
      <trkpt lat="42.85312" lon="0.90502">
        <ele>1498.878</ele>
        <time>2021-03-13T11:47:46Z</time>
      </trkpt>
      <trkpt lat="42.8531" lon="0.905">
        <ele>1497.745</ele>
        <time>2021-03-13T11:47:48Z</time>
      </trkpt>
      <trkpt lat="42.85308" lon="0.905">
        <ele>1496.417</ele>
        <time>2021-03-13T11:47:50Z</time>
      </trkpt>
      <trkpt lat="42.85306" lon="0.90499">
        <ele>1496.522</ele>
        <time>2021-03-13T11:47:52Z</time>
      </trkpt>
      <trkpt lat="42.85304" lon="0.90498">
        <ele>1496.469</ele>
        <time>2021-03-13T11:47:54Z</time>
      </trkpt>
      <trkpt lat="42.85302" lon="0.90497">
        <ele>1496.845</ele>
        <time>2021-03-13T11:47:56Z</time>
      </trkpt>
      <trkpt lat="42.853" lon="0.90497">
        <ele>1497.19</ele>
        <time>2021-03-13T11:47:58Z</time>
      </trkpt>
      <trkpt lat="42.85298" lon="0.90496">
        <ele>1496.693</ele>
        <time>2021-03-13T11:48:00Z</time>
      </trkpt>
      <trkpt lat="42.85297" lon="0.90494">
        <ele>1496.537</ele>
        <time>2021-03-13T11:48:02Z</time>
      </trkpt>
      <trkpt lat="42.85295" lon="0.90493">
        <ele>1496.047</ele>
        <time>2021-03-13T11:48:04Z</time>
      </trkpt>
      <trkpt lat="42.85294" lon="0.90491">
        <ele>1497.061</ele>
        <time>2021-03-13T11:48:06Z</time>
      </trkpt>
      <trkpt lat="42.85292" lon="0.90491">
        <ele>1497.179</ele>
        <time>2021-03-13T11:48:08Z</time>
      </trkpt>
      <trkpt lat="42.85291" lon="0.9049">
        <ele>1497.39</ele>
        <time>2021-03-13T11:48:10Z</time>
      </trkpt>
      <trkpt lat="42.85291" lon="0.9049">
        <ele>1497.285</ele>
        <time>2021-03-13T11:48:12Z</time>
      </trkpt>
      <trkpt lat="42.8529" lon="0.90489">
        <ele>1497.645</ele>
        <time>2021-03-13T11:48:14Z</time>
      </trkpt>
      <trkpt lat="42.85289" lon="0.90488">
        <ele>1497.699</ele>
        <time>2021-03-13T11:48:16Z</time>
      </trkpt>
      <trkpt lat="42.85288" lon="0.90488">
        <ele>1498.001</ele>
        <time>2021-03-13T11:48:18Z</time>
      </trkpt>
      <trkpt lat="42.85288" lon="0.90488">
        <ele>1497.359</ele>
        <time>2021-03-13T11:48:20Z</time>
      </trkpt>
      <trkpt lat="42.85288" lon="0.90488">
        <ele>1497.041</ele>
        <time>2021-03-13T11:48:22Z</time>
      </trkpt>
      <trkpt lat="42.85288" lon="0.90488">
        <ele>1496.665</ele>
        <time>2021-03-13T11:48:24Z</time>
      </trkpt>
      <trkpt lat="42.85288" lon="0.90487">
        <ele>1496.675</ele>
        <time>2021-03-13T11:48:26Z</time>
      </trkpt>
      <trkpt lat="42.85288" lon="0.90487">
        <ele>1496.682</ele>
        <time>2021-03-13T11:48:28Z</time>
      </trkpt>
      <trkpt lat="42.85288" lon="0.90487">
        <ele>1496.691</ele>
        <time>2021-03-13T11:48:30Z</time>
      </trkpt>
      <trkpt lat="42.85288" lon="0.90487">
        <ele>1496.688</ele>
        <time>2021-03-13T11:48:32Z</time>
      </trkpt>
      <trkpt lat="42.85288" lon="0.90487">
        <ele>1496.694</ele>
        <time>2021-03-13T11:48:34Z</time>
      </trkpt>
      <trkpt lat="42.85288" lon="0.90487">
        <ele>1496.689</ele>
        <time>2021-03-13T11:48:36Z</time>
      </trkpt>
      <trkpt lat="42.85288" lon="0.90487">
        <ele>1496.69</ele>
        <time>2021-03-13T11:48:38Z</time>
      </trkpt>
      <trkpt lat="42.85288" lon="0.90487">
        <ele>1496.682</ele>
        <time>2021-03-13T11:48:40Z</time>
      </trkpt>
      <trkpt lat="42.85288" lon="0.90487">
        <ele>1496.68</ele>
        <time>2021-03-13T11:48:42Z</time>
      </trkpt>
      <trkpt lat="42.85288" lon="0.90487">
        <ele>1496.678</ele>
        <time>2021-03-13T11:48:44Z</time>
      </trkpt>
      <trkpt lat="42.85286" lon="0.90487">
        <ele>1496.606</ele>
        <time>2021-03-13T11:48:46Z</time>
      </trkpt>
      <trkpt lat="42.85285" lon="0.90487">
        <ele>1496.173</ele>
        <time>2021-03-13T11:48:48Z</time>
      </trkpt>
      <trkpt lat="42.85284" lon="0.90486">
        <ele>1496.61</ele>
        <time>2021-03-13T11:48:50Z</time>
      </trkpt>
      <trkpt lat="42.85282" lon="0.90485">
        <ele>1495.92</ele>
        <time>2021-03-13T11:48:52Z</time>
      </trkpt>
      <trkpt lat="42.8528" lon="0.90486">
        <ele>1495.784</ele>
        <time>2021-03-13T11:48:54Z</time>
      </trkpt>
      <trkpt lat="42.85279" lon="0.90486">
        <ele>1496.095</ele>
        <time>2021-03-13T11:48:56Z</time>
      </trkpt>
      <trkpt lat="42.85277" lon="0.90487">
        <ele>1495.942</ele>
        <time>2021-03-13T11:48:58Z</time>
      </trkpt>
      <trkpt lat="42.85275" lon="0.90486">
        <ele>1495.989</ele>
        <time>2021-03-13T11:49:00Z</time>
      </trkpt>
      <trkpt lat="42.85273" lon="0.90485">
        <ele>1496.354</ele>
        <time>2021-03-13T11:49:02Z</time>
      </trkpt>
      <trkpt lat="42.85272" lon="0.90484">
        <ele>1496.02</ele>
        <time>2021-03-13T11:49:04Z</time>
      </trkpt>
      <trkpt lat="42.8527" lon="0.90483">
        <ele>1496.264</ele>
        <time>2021-03-13T11:49:06Z</time>
      </trkpt>
      <trkpt lat="42.85268" lon="0.90482">
        <ele>1496.542</ele>
        <time>2021-03-13T11:49:08Z</time>
      </trkpt>
      <trkpt lat="42.85267" lon="0.90481">
        <ele>1497.055</ele>
        <time>2021-03-13T11:49:10Z</time>
      </trkpt>
      <trkpt lat="42.85265" lon="0.9048">
        <ele>1497.895</ele>
        <time>2021-03-13T11:49:12Z</time>
      </trkpt>
      <trkpt lat="42.85264" lon="0.90478">
        <ele>1498.319</ele>
        <time>2021-03-13T11:49:14Z</time>
      </trkpt>
      <trkpt lat="42.85262" lon="0.90477">
        <ele>1498.863</ele>
        <time>2021-03-13T11:49:16Z</time>
      </trkpt>
      <trkpt lat="42.85261" lon="0.90476">
        <ele>1498.609</ele>
        <time>2021-03-13T11:49:18Z</time>
      </trkpt>
      <trkpt lat="42.85259" lon="0.90476">
        <ele>1498.821</ele>
        <time>2021-03-13T11:49:20Z</time>
      </trkpt>
      <trkpt lat="42.85258" lon="0.90476">
        <ele>1497.912</ele>
        <time>2021-03-13T11:49:22Z</time>
      </trkpt>
      <trkpt lat="42.85256" lon="0.90476">
        <ele>1497.448</ele>
        <time>2021-03-13T11:49:24Z</time>
      </trkpt>
      <trkpt lat="42.85255" lon="0.90475">
        <ele>1497.667</ele>
        <time>2021-03-13T11:49:26Z</time>
      </trkpt>
      <trkpt lat="42.85253" lon="0.90476">
        <ele>1498.56</ele>
        <time>2021-03-13T11:49:28Z</time>
      </trkpt>
      <trkpt lat="42.85252" lon="0.90476">
        <ele>1499.177</ele>
        <time>2021-03-13T11:49:30Z</time>
      </trkpt>
      <trkpt lat="42.8525" lon="0.90477">
        <ele>1499.868</ele>
        <time>2021-03-13T11:49:32Z</time>
      </trkpt>
      <trkpt lat="42.85248" lon="0.90478">
        <ele>1500.909</ele>
        <time>2021-03-13T11:49:34Z</time>
      </trkpt>
      <trkpt lat="42.85247" lon="0.9048">
        <ele>1501.559</ele>
        <time>2021-03-13T11:49:36Z</time>
      </trkpt>
      <trkpt lat="42.85244" lon="0.9048">
        <ele>1502.001</ele>
        <time>2021-03-13T11:49:38Z</time>
      </trkpt>
      <trkpt lat="42.85242" lon="0.9048">
        <ele>1502.206</ele>
        <time>2021-03-13T11:49:40Z</time>
      </trkpt>
      <trkpt lat="42.85241" lon="0.9048">
        <ele>1501.953</ele>
        <time>2021-03-13T11:49:42Z</time>
      </trkpt>
      <trkpt lat="42.85239" lon="0.9048">
        <ele>1501.576</ele>
        <time>2021-03-13T11:49:44Z</time>
      </trkpt>
      <trkpt lat="42.85237" lon="0.9048">
        <ele>1501.599</ele>
        <time>2021-03-13T11:49:46Z</time>
      </trkpt>
      <trkpt lat="42.85235" lon="0.9048">
        <ele>1501.442</ele>
        <time>2021-03-13T11:49:48Z</time>
      </trkpt>
      <trkpt lat="42.85233" lon="0.90479">
        <ele>1502.831</ele>
        <time>2021-03-13T11:49:50Z</time>
      </trkpt>
      <trkpt lat="42.85232" lon="0.90479">
        <ele>1502.846</ele>
        <time>2021-03-13T11:49:52Z</time>
      </trkpt>
      <trkpt lat="42.8523" lon="0.90479">
        <ele>1502.777</ele>
        <time>2021-03-13T11:49:54Z</time>
      </trkpt>
      <trkpt lat="42.85228" lon="0.9048">
        <ele>1502.825</ele>
        <time>2021-03-13T11:49:56Z</time>
      </trkpt>
      <trkpt lat="42.85226" lon="0.90481">
        <ele>1501.887</ele>
        <time>2021-03-13T11:49:58Z</time>
      </trkpt>
      <trkpt lat="42.85225" lon="0.90482">
        <ele>1502.326</ele>
        <time>2021-03-13T11:50:00Z</time>
      </trkpt>
      <trkpt lat="42.85224" lon="0.90483">
        <ele>1501.659</ele>
        <time>2021-03-13T11:50:02Z</time>
      </trkpt>
      <trkpt lat="42.85223" lon="0.90483">
        <ele>1501.718</ele>
        <time>2021-03-13T11:50:04Z</time>
      </trkpt>
      <trkpt lat="42.85223" lon="0.90483">
        <ele>1501.184</ele>
        <time>2021-03-13T11:50:06Z</time>
      </trkpt>
      <trkpt lat="42.85223" lon="0.90484">
        <ele>1501.592</ele>
        <time>2021-03-13T11:50:08Z</time>
      </trkpt>
      <trkpt lat="42.85223" lon="0.90484">
        <ele>1502.822</ele>
        <time>2021-03-13T11:50:10Z</time>
      </trkpt>
      <trkpt lat="42.85223" lon="0.90484">
        <ele>1502.793</ele>
        <time>2021-03-13T11:50:12Z</time>
      </trkpt>
      <trkpt lat="42.85222" lon="0.90485">
        <ele>1503.226</ele>
        <time>2021-03-13T11:50:14Z</time>
      </trkpt>
      <trkpt lat="42.85222" lon="0.90487">
        <ele>1503.511</ele>
        <time>2021-03-13T11:50:16Z</time>
      </trkpt>
      <trkpt lat="42.8522" lon="0.9049">
        <ele>1503.937</ele>
        <time>2021-03-13T11:50:18Z</time>
      </trkpt>
      <trkpt lat="42.85219" lon="0.90492">
        <ele>1504.628</ele>
        <time>2021-03-13T11:50:20Z</time>
      </trkpt>
      <trkpt lat="42.85219" lon="0.90494">
        <ele>1504.637</ele>
        <time>2021-03-13T11:50:22Z</time>
      </trkpt>
      <trkpt lat="42.85219" lon="0.90494">
        <ele>1504.642</ele>
        <time>2021-03-13T11:50:24Z</time>
      </trkpt>
      <trkpt lat="42.85219" lon="0.90494">
        <ele>1504.641</ele>
        <time>2021-03-13T11:50:26Z</time>
      </trkpt>
      <trkpt lat="42.85219" lon="0.90493">
        <ele>1504.761</ele>
        <time>2021-03-13T11:50:28Z</time>
      </trkpt>
      <trkpt lat="42.85218" lon="0.90494">
        <ele>1504.439</ele>
        <time>2021-03-13T11:50:30Z</time>
      </trkpt>
      <trkpt lat="42.85219" lon="0.90494">
        <ele>1504.035</ele>
        <time>2021-03-13T11:50:32Z</time>
      </trkpt>
      <trkpt lat="42.85219" lon="0.90494">
        <ele>1504.026</ele>
        <time>2021-03-13T11:50:34Z</time>
      </trkpt>
      <trkpt lat="42.85218" lon="0.90495">
        <ele>1504.096</ele>
        <time>2021-03-13T11:50:36Z</time>
      </trkpt>
      <trkpt lat="42.85218" lon="0.90496">
        <ele>1504.142</ele>
        <time>2021-03-13T11:50:38Z</time>
      </trkpt>
      <trkpt lat="42.85218" lon="0.90497">
        <ele>1504.132</ele>
        <time>2021-03-13T11:50:40Z</time>
      </trkpt>
      <trkpt lat="42.85218" lon="0.90497">
        <ele>1504.126</ele>
        <time>2021-03-13T11:50:42Z</time>
      </trkpt>
      <trkpt lat="42.85218" lon="0.90497">
        <ele>1504.128</ele>
        <time>2021-03-13T11:50:44Z</time>
      </trkpt>
      <trkpt lat="42.85218" lon="0.90497">
        <ele>1504.13</ele>
        <time>2021-03-13T11:50:46Z</time>
      </trkpt>
      <trkpt lat="42.85218" lon="0.90497">
        <ele>1504.132</ele>
        <time>2021-03-13T11:50:48Z</time>
      </trkpt>
      <trkpt lat="42.85218" lon="0.90496">
        <ele>1503.9</ele>
        <time>2021-03-13T11:50:50Z</time>
      </trkpt>
      <trkpt lat="42.85218" lon="0.90497">
        <ele>1504.286</ele>
        <time>2021-03-13T11:50:52Z</time>
      </trkpt>
      <trkpt lat="42.85218" lon="0.90496">
        <ele>1504.903</ele>
        <time>2021-03-13T11:50:54Z</time>
      </trkpt>
      <trkpt lat="42.85217" lon="0.90495">
        <ele>1504.853</ele>
        <time>2021-03-13T11:50:56Z</time>
      </trkpt>
      <trkpt lat="42.85216" lon="0.90495">
        <ele>1505.449</ele>
        <time>2021-03-13T11:50:58Z</time>
      </trkpt>
      <trkpt lat="42.85215" lon="0.90495">
        <ele>1505.5</ele>
        <time>2021-03-13T11:51:00Z</time>
      </trkpt>
      <trkpt lat="42.85216" lon="0.90495">
        <ele>1504.872</ele>
        <time>2021-03-13T11:51:02Z</time>
      </trkpt>
      <trkpt lat="42.85216" lon="0.90495">
        <ele>1504.876</ele>
        <time>2021-03-13T11:51:04Z</time>
      </trkpt>
      <trkpt lat="42.85216" lon="0.90495">
        <ele>1504.88</ele>
        <time>2021-03-13T11:51:06Z</time>
      </trkpt>
      <trkpt lat="42.85216" lon="0.90495">
        <ele>1504.88</ele>
        <time>2021-03-13T11:51:08Z</time>
      </trkpt>
      <trkpt lat="42.85216" lon="0.90495">
        <ele>1504.777</ele>
        <time>2021-03-13T11:51:10Z</time>
      </trkpt>
      <trkpt lat="42.85216" lon="0.90495">
        <ele>1504.776</ele>
        <time>2021-03-13T11:51:12Z</time>
      </trkpt>
      <trkpt lat="42.85216" lon="0.90495">
        <ele>1504.772</ele>
        <time>2021-03-13T11:51:14Z</time>
      </trkpt>
      <trkpt lat="42.85216" lon="0.90495">
        <ele>1504.771</ele>
        <time>2021-03-13T11:51:16Z</time>
      </trkpt>
      <trkpt lat="42.85216" lon="0.90495">
        <ele>1504.771</ele>
        <time>2021-03-13T11:51:18Z</time>
      </trkpt>
      <trkpt lat="42.85216" lon="0.90495">
        <ele>1504.775</ele>
        <time>2021-03-13T11:51:20Z</time>
      </trkpt>
      <trkpt lat="42.85216" lon="0.90495">
        <ele>1504.777</ele>
        <time>2021-03-13T11:51:22Z</time>
      </trkpt>
      <trkpt lat="42.85216" lon="0.90493">
        <ele>1505.191</ele>
        <time>2021-03-13T11:51:24Z</time>
      </trkpt>
      <trkpt lat="42.85214" lon="0.90493">
        <ele>1504.199</ele>
        <time>2021-03-13T11:51:26Z</time>
      </trkpt>
      <trkpt lat="42.85213" lon="0.90493">
        <ele>1503.806</ele>
        <time>2021-03-13T11:51:28Z</time>
      </trkpt>
      <trkpt lat="42.85214" lon="0.90491">
        <ele>1504.585</ele>
        <time>2021-03-13T11:51:30Z</time>
      </trkpt>
      <trkpt lat="42.85215" lon="0.90489">
        <ele>1504.115</ele>
        <time>2021-03-13T11:51:32Z</time>
      </trkpt>
      <trkpt lat="42.85215" lon="0.90486">
        <ele>1504.293</ele>
        <time>2021-03-13T11:51:34Z</time>
      </trkpt>
      <trkpt lat="42.85215" lon="0.90483">
        <ele>1504.16</ele>
        <time>2021-03-13T11:51:36Z</time>
      </trkpt>
      <trkpt lat="42.85214" lon="0.90481">
        <ele>1503.74</ele>
        <time>2021-03-13T11:51:38Z</time>
      </trkpt>
      <trkpt lat="42.85214" lon="0.90479">
        <ele>1503.667</ele>
        <time>2021-03-13T11:51:40Z</time>
      </trkpt>
      <trkpt lat="42.85213" lon="0.90479">
        <ele>1502.96</ele>
        <time>2021-03-13T11:51:42Z</time>
      </trkpt>
      <trkpt lat="42.85214" lon="0.90479">
        <ele>1502.94</ele>
        <time>2021-03-13T11:51:44Z</time>
      </trkpt>
      <trkpt lat="42.85214" lon="0.90479">
        <ele>1503.037</ele>
        <time>2021-03-13T11:51:46Z</time>
      </trkpt>
      <trkpt lat="42.85214" lon="0.90479">
        <ele>1503.033</ele>
        <time>2021-03-13T11:51:48Z</time>
      </trkpt>
      <trkpt lat="42.85213" lon="0.90479">
        <ele>1502.879</ele>
        <time>2021-03-13T11:51:50Z</time>
      </trkpt>
      <trkpt lat="42.85213" lon="0.90479">
        <ele>1503.081</ele>
        <time>2021-03-13T11:51:51Z</time>
      </trkpt>
      <trkpt lat="42.85211" lon="0.90472">
        <ele>1502.272</ele>
        <time>2021-03-13T11:51:59Z</time>
      </trkpt>
      <trkpt lat="42.85211" lon="0.90471">
        <ele>1502.128</ele>
        <time>2021-03-13T11:52:00Z</time>
      </trkpt>
      <trkpt lat="42.8521" lon="0.90469">
        <ele>1501.356</ele>
        <time>2021-03-13T11:52:03Z</time>
      </trkpt>
      <trkpt lat="42.85209" lon="0.90467">
        <ele>1501.54</ele>
        <time>2021-03-13T11:52:05Z</time>
      </trkpt>
      <trkpt lat="42.85208" lon="0.90466">
        <ele>1501.548</ele>
        <time>2021-03-13T11:52:07Z</time>
      </trkpt>
      <trkpt lat="42.85207" lon="0.90464">
        <ele>1501.944</ele>
        <time>2021-03-13T11:52:09Z</time>
      </trkpt>
      <trkpt lat="42.85206" lon="0.90463">
        <ele>1502.094</ele>
        <time>2021-03-13T11:52:11Z</time>
      </trkpt>
      <trkpt lat="42.85205" lon="0.90461">
        <ele>1502.055</ele>
        <time>2021-03-13T11:52:13Z</time>
      </trkpt>
      <trkpt lat="42.85204" lon="0.90459">
        <ele>1502.947</ele>
        <time>2021-03-13T11:52:15Z</time>
      </trkpt>
      <trkpt lat="42.85204" lon="0.90458">
        <ele>1503.45</ele>
        <time>2021-03-13T11:52:17Z</time>
      </trkpt>
      <trkpt lat="42.85203" lon="0.90456">
        <ele>1503.469</ele>
        <time>2021-03-13T11:52:19Z</time>
      </trkpt>
      <trkpt lat="42.85202" lon="0.90456">
        <ele>1503.944</ele>
        <time>2021-03-13T11:52:21Z</time>
      </trkpt>
      <trkpt lat="42.85201" lon="0.90455">
        <ele>1504.101</ele>
        <time>2021-03-13T11:52:23Z</time>
      </trkpt>
      <trkpt lat="42.85201" lon="0.90455">
        <ele>1504.107</ele>
        <time>2021-03-13T11:52:25Z</time>
      </trkpt>
      <trkpt lat="42.852" lon="0.90453">
        <ele>1504.432</ele>
        <time>2021-03-13T11:52:27Z</time>
      </trkpt>
      <trkpt lat="42.852" lon="0.90452">
        <ele>1504.841</ele>
        <time>2021-03-13T11:52:29Z</time>
      </trkpt>
      <trkpt lat="42.85198" lon="0.90451">
        <ele>1505.22</ele>
        <time>2021-03-13T11:52:31Z</time>
      </trkpt>
      <trkpt lat="42.85198" lon="0.90449">
        <ele>1505.315</ele>
        <time>2021-03-13T11:52:33Z</time>
      </trkpt>
      <trkpt lat="42.85198" lon="0.90447">
        <ele>1504.966</ele>
        <time>2021-03-13T11:52:35Z</time>
      </trkpt>
      <trkpt lat="42.85197" lon="0.90445">
        <ele>1505.368</ele>
        <time>2021-03-13T11:52:37Z</time>
      </trkpt>
      <trkpt lat="42.85196" lon="0.90443">
        <ele>1505.296</ele>
        <time>2021-03-13T11:52:39Z</time>
      </trkpt>
      <trkpt lat="42.85196" lon="0.90441">
        <ele>1504.708</ele>
        <time>2021-03-13T11:52:41Z</time>
      </trkpt>
      <trkpt lat="42.85196" lon="0.90439">
        <ele>1505.241</ele>
        <time>2021-03-13T11:52:43Z</time>
      </trkpt>
      <trkpt lat="42.85196" lon="0.90437">
        <ele>1505.901</ele>
        <time>2021-03-13T11:52:45Z</time>
      </trkpt>
      <trkpt lat="42.85194" lon="0.90436">
        <ele>1505.885</ele>
        <time>2021-03-13T11:52:47Z</time>
      </trkpt>
      <trkpt lat="42.85193" lon="0.90435">
        <ele>1506.336</ele>
        <time>2021-03-13T11:52:49Z</time>
      </trkpt>
      <trkpt lat="42.85192" lon="0.90434">
        <ele>1506.648</ele>
        <time>2021-03-13T11:52:51Z</time>
      </trkpt>
      <trkpt lat="42.85191" lon="0.90433">
        <ele>1505.99</ele>
        <time>2021-03-13T11:52:53Z</time>
      </trkpt>
      <trkpt lat="42.85191" lon="0.9043">
        <ele>1506.552</ele>
        <time>2021-03-13T11:52:55Z</time>
      </trkpt>
      <trkpt lat="42.8519" lon="0.90429">
        <ele>1507.286</ele>
        <time>2021-03-13T11:52:57Z</time>
      </trkpt>
      <trkpt lat="42.8519" lon="0.90428">
        <ele>1507.056</ele>
        <time>2021-03-13T11:52:59Z</time>
      </trkpt>
      <trkpt lat="42.85189" lon="0.90426">
        <ele>1506.988</ele>
        <time>2021-03-13T11:53:01Z</time>
      </trkpt>
      <trkpt lat="42.85188" lon="0.90424">
        <ele>1506.993</ele>
        <time>2021-03-13T11:53:03Z</time>
      </trkpt>
      <trkpt lat="42.85188" lon="0.90423">
        <ele>1507.354</ele>
        <time>2021-03-13T11:53:05Z</time>
      </trkpt>
      <trkpt lat="42.85187" lon="0.90422">
        <ele>1507.102</ele>
        <time>2021-03-13T11:53:07Z</time>
      </trkpt>
      <trkpt lat="42.85186" lon="0.90421">
        <ele>1507.831</ele>
        <time>2021-03-13T11:53:09Z</time>
      </trkpt>
      <trkpt lat="42.85186" lon="0.9042">
        <ele>1507.524</ele>
        <time>2021-03-13T11:53:11Z</time>
      </trkpt>
      <trkpt lat="42.85185" lon="0.90419">
        <ele>1507.832</ele>
        <time>2021-03-13T11:53:13Z</time>
      </trkpt>
      <trkpt lat="42.85183" lon="0.90417">
        <ele>1508.515</ele>
        <time>2021-03-13T11:53:15Z</time>
      </trkpt>
      <trkpt lat="42.85183" lon="0.90415">
        <ele>1508.574</ele>
        <time>2021-03-13T11:53:17Z</time>
      </trkpt>
      <trkpt lat="42.85182" lon="0.90413">
        <ele>1508.578</ele>
        <time>2021-03-13T11:53:19Z</time>
      </trkpt>
      <trkpt lat="42.85182" lon="0.90412">
        <ele>1507.859</ele>
        <time>2021-03-13T11:53:21Z</time>
      </trkpt>
      <trkpt lat="42.8518" lon="0.90411">
        <ele>1508.011</ele>
        <time>2021-03-13T11:53:23Z</time>
      </trkpt>
      <trkpt lat="42.85179" lon="0.90409">
        <ele>1508.586</ele>
        <time>2021-03-13T11:53:25Z</time>
      </trkpt>
      <trkpt lat="42.85179" lon="0.90407">
        <ele>1509.097</ele>
        <time>2021-03-13T11:53:27Z</time>
      </trkpt>
      <trkpt lat="42.85179" lon="0.90405">
        <ele>1508.162</ele>
        <time>2021-03-13T11:53:29Z</time>
      </trkpt>
      <trkpt lat="42.85178" lon="0.90403">
        <ele>1507.888</ele>
        <time>2021-03-13T11:53:31Z</time>
      </trkpt>
      <trkpt lat="42.85177" lon="0.90401">
        <ele>1507.601</ele>
        <time>2021-03-13T11:53:33Z</time>
      </trkpt>
      <trkpt lat="42.85176" lon="0.904">
        <ele>1507.93</ele>
        <time>2021-03-13T11:53:35Z</time>
      </trkpt>
      <trkpt lat="42.85176" lon="0.90397">
        <ele>1508.387</ele>
        <time>2021-03-13T11:53:37Z</time>
      </trkpt>
      <trkpt lat="42.85174" lon="0.90395">
        <ele>1508.734</ele>
        <time>2021-03-13T11:53:39Z</time>
      </trkpt>
      <trkpt lat="42.85173" lon="0.90393">
        <ele>1508.345</ele>
        <time>2021-03-13T11:53:41Z</time>
      </trkpt>
      <trkpt lat="42.85173" lon="0.90391">
        <ele>1508.257</ele>
        <time>2021-03-13T11:53:43Z</time>
      </trkpt>
      <trkpt lat="42.85172" lon="0.9039">
        <ele>1507.965</ele>
        <time>2021-03-13T11:53:45Z</time>
      </trkpt>
      <trkpt lat="42.85171" lon="0.90389">
        <ele>1507.87</ele>
        <time>2021-03-13T11:53:47Z</time>
      </trkpt>
      <trkpt lat="42.8517" lon="0.90388">
        <ele>1507.264</ele>
        <time>2021-03-13T11:53:49Z</time>
      </trkpt>
      <trkpt lat="42.85169" lon="0.90386">
        <ele>1506.823</ele>
        <time>2021-03-13T11:53:51Z</time>
      </trkpt>
      <trkpt lat="42.85169" lon="0.90384">
        <ele>1506.456</ele>
        <time>2021-03-13T11:53:53Z</time>
      </trkpt>
      <trkpt lat="42.85168" lon="0.90381">
        <ele>1506.558</ele>
        <time>2021-03-13T11:53:55Z</time>
      </trkpt>
      <trkpt lat="42.85167" lon="0.90379">
        <ele>1506.709</ele>
        <time>2021-03-13T11:53:57Z</time>
      </trkpt>
      <trkpt lat="42.85166" lon="0.90377">
        <ele>1507.796</ele>
        <time>2021-03-13T11:53:59Z</time>
      </trkpt>
      <trkpt lat="42.85165" lon="0.90375">
        <ele>1508.492</ele>
        <time>2021-03-13T11:54:01Z</time>
      </trkpt>
      <trkpt lat="42.85165" lon="0.90374">
        <ele>1509.127</ele>
        <time>2021-03-13T11:54:03Z</time>
      </trkpt>
      <trkpt lat="42.85164" lon="0.90372">
        <ele>1508.829</ele>
        <time>2021-03-13T11:54:05Z</time>
      </trkpt>
      <trkpt lat="42.85163" lon="0.90371">
        <ele>1509.72</ele>
        <time>2021-03-13T11:54:07Z</time>
      </trkpt>
      <trkpt lat="42.85163" lon="0.90369">
        <ele>1509.815</ele>
        <time>2021-03-13T11:54:09Z</time>
      </trkpt>
      <trkpt lat="42.85162" lon="0.90367">
        <ele>1509.829</ele>
        <time>2021-03-13T11:54:11Z</time>
      </trkpt>
      <trkpt lat="42.85161" lon="0.90365">
        <ele>1510.004</ele>
        <time>2021-03-13T11:54:13Z</time>
      </trkpt>
      <trkpt lat="42.8516" lon="0.90362">
        <ele>1509.686</ele>
        <time>2021-03-13T11:54:15Z</time>
      </trkpt>
      <trkpt lat="42.85159" lon="0.90361">
        <ele>1509.838</ele>
        <time>2021-03-13T11:54:17Z</time>
      </trkpt>
      <trkpt lat="42.85157" lon="0.9036">
        <ele>1509.575</ele>
        <time>2021-03-13T11:54:19Z</time>
      </trkpt>
      <trkpt lat="42.85157" lon="0.90357">
        <ele>1510.085</ele>
        <time>2021-03-13T11:54:21Z</time>
      </trkpt>
      <trkpt lat="42.85156" lon="0.90355">
        <ele>1510.293</ele>
        <time>2021-03-13T11:54:23Z</time>
      </trkpt>
      <trkpt lat="42.85155" lon="0.90353">
        <ele>1511.1</ele>
        <time>2021-03-13T11:54:25Z</time>
      </trkpt>
      <trkpt lat="42.85154" lon="0.90352">
        <ele>1510.567</ele>
        <time>2021-03-13T11:54:27Z</time>
      </trkpt>
      <trkpt lat="42.85152" lon="0.90351">
        <ele>1510.537</ele>
        <time>2021-03-13T11:54:29Z</time>
      </trkpt>
      <trkpt lat="42.85151" lon="0.90349">
        <ele>1510.268</ele>
        <time>2021-03-13T11:54:31Z</time>
      </trkpt>
      <trkpt lat="42.85149" lon="0.90348">
        <ele>1510.458</ele>
        <time>2021-03-13T11:54:33Z</time>
      </trkpt>
      <trkpt lat="42.85148" lon="0.90347">
        <ele>1510.242</ele>
        <time>2021-03-13T11:54:35Z</time>
      </trkpt>
      <trkpt lat="42.85147" lon="0.90346">
        <ele>1510.922</ele>
        <time>2021-03-13T11:54:37Z</time>
      </trkpt>
      <trkpt lat="42.85145" lon="0.90345">
        <ele>1510.865</ele>
        <time>2021-03-13T11:54:39Z</time>
      </trkpt>
      <trkpt lat="42.85143" lon="0.90344">
        <ele>1511.221</ele>
        <time>2021-03-13T11:54:41Z</time>
      </trkpt>
      <trkpt lat="42.85142" lon="0.90343">
        <ele>1511.871</ele>
        <time>2021-03-13T11:54:43Z</time>
      </trkpt>
      <trkpt lat="42.85141" lon="0.90342">
        <ele>1512.223</ele>
        <time>2021-03-13T11:54:45Z</time>
      </trkpt>
      <trkpt lat="42.8514" lon="0.9034">
        <ele>1512.491</ele>
        <time>2021-03-13T11:54:47Z</time>
      </trkpt>
      <trkpt lat="42.85138" lon="0.90339">
        <ele>1512.116</ele>
        <time>2021-03-13T11:54:49Z</time>
      </trkpt>
      <trkpt lat="42.85137" lon="0.90338">
        <ele>1512.148</ele>
        <time>2021-03-13T11:54:51Z</time>
      </trkpt>
      <trkpt lat="42.85136" lon="0.90336">
        <ele>1511.782</ele>
        <time>2021-03-13T11:54:53Z</time>
      </trkpt>
      <trkpt lat="42.85135" lon="0.90334">
        <ele>1511.874</ele>
        <time>2021-03-13T11:54:55Z</time>
      </trkpt>
      <trkpt lat="42.85133" lon="0.90332">
        <ele>1512.723</ele>
        <time>2021-03-13T11:54:57Z</time>
      </trkpt>
      <trkpt lat="42.85132" lon="0.90331">
        <ele>1512.147</ele>
        <time>2021-03-13T11:54:59Z</time>
      </trkpt>
      <trkpt lat="42.8513" lon="0.90329">
        <ele>1512.531</ele>
        <time>2021-03-13T11:55:01Z</time>
      </trkpt>
      <trkpt lat="42.8513" lon="0.90329">
        <ele>1512.033</ele>
        <time>2021-03-13T11:55:03Z</time>
      </trkpt>
      <trkpt lat="42.8513" lon="0.90329">
        <ele>1512.037</ele>
        <time>2021-03-13T11:55:05Z</time>
      </trkpt>
      <trkpt lat="42.8513" lon="0.90329">
        <ele>1512.084</ele>
        <time>2021-03-13T11:55:07Z</time>
      </trkpt>
      <trkpt lat="42.85129" lon="0.90328">
        <ele>1511.423</ele>
        <time>2021-03-13T11:55:09Z</time>
      </trkpt>
      <trkpt lat="42.85128" lon="0.90328">
        <ele>1511.432</ele>
        <time>2021-03-13T11:55:11Z</time>
      </trkpt>
      <trkpt lat="42.85126" lon="0.90327">
        <ele>1513.405</ele>
        <time>2021-03-13T11:55:13Z</time>
      </trkpt>
      <trkpt lat="42.85125" lon="0.90328">
        <ele>1512.497</ele>
        <time>2021-03-13T11:55:15Z</time>
      </trkpt>
      <trkpt lat="42.85123" lon="0.90327">
        <ele>1512.633</ele>
        <time>2021-03-13T11:55:17Z</time>
      </trkpt>
      <trkpt lat="42.85121" lon="0.90326">
        <ele>1512.557</ele>
        <time>2021-03-13T11:55:19Z</time>
      </trkpt>
      <trkpt lat="42.8512" lon="0.90325">
        <ele>1513.053</ele>
        <time>2021-03-13T11:55:21Z</time>
      </trkpt>
      <trkpt lat="42.85118" lon="0.90325">
        <ele>1513.052</ele>
        <time>2021-03-13T11:55:23Z</time>
      </trkpt>
      <trkpt lat="42.85117" lon="0.90325">
        <ele>1513.952</ele>
        <time>2021-03-13T11:55:25Z</time>
      </trkpt>
      <trkpt lat="42.85116" lon="0.90325">
        <ele>1513.954</ele>
        <time>2021-03-13T11:55:27Z</time>
      </trkpt>
      <trkpt lat="42.85115" lon="0.90324">
        <ele>1514.569</ele>
        <time>2021-03-13T11:55:29Z</time>
      </trkpt>
      <trkpt lat="42.85113" lon="0.90323">
        <ele>1514.827</ele>
        <time>2021-03-13T11:55:31Z</time>
      </trkpt>
      <trkpt lat="42.85112" lon="0.90322">
        <ele>1514.723</ele>
        <time>2021-03-13T11:55:33Z</time>
      </trkpt>
      <trkpt lat="42.85111" lon="0.9032">
        <ele>1515.683</ele>
        <time>2021-03-13T11:55:35Z</time>
      </trkpt>
      <trkpt lat="42.85109" lon="0.90319">
        <ele>1516.708</ele>
        <time>2021-03-13T11:55:37Z</time>
      </trkpt>
      <trkpt lat="42.85107" lon="0.90318">
        <ele>1517.44</ele>
        <time>2021-03-13T11:55:39Z</time>
      </trkpt>
      <trkpt lat="42.85107" lon="0.90318">
        <ele>1517.706</ele>
        <time>2021-03-13T11:55:41Z</time>
      </trkpt>
      <trkpt lat="42.85107" lon="0.90318">
        <ele>1517.701</ele>
        <time>2021-03-13T11:55:43Z</time>
      </trkpt>
      <trkpt lat="42.85107" lon="0.90318">
        <ele>1517.712</ele>
        <time>2021-03-13T11:55:45Z</time>
      </trkpt>
      <trkpt lat="42.85107" lon="0.90317">
        <ele>1519.953</ele>
        <time>2021-03-13T11:55:47Z</time>
      </trkpt>
      <trkpt lat="42.85106" lon="0.90317">
        <ele>1520.217</ele>
        <time>2021-03-13T11:55:49Z</time>
      </trkpt>
      <trkpt lat="42.85106" lon="0.90317">
        <ele>1520.226</ele>
        <time>2021-03-13T11:55:51Z</time>
      </trkpt>
      <trkpt lat="42.85106" lon="0.90317">
        <ele>1520.247</ele>
        <time>2021-03-13T11:55:53Z</time>
      </trkpt>
      <trkpt lat="42.85106" lon="0.90317">
        <ele>1520.246</ele>
        <time>2021-03-13T11:55:55Z</time>
      </trkpt>
      <trkpt lat="42.85106" lon="0.90317">
        <ele>1520.578</ele>
        <time>2021-03-13T11:55:57Z</time>
      </trkpt>
      <trkpt lat="42.85106" lon="0.90317">
        <ele>1520.574</ele>
        <time>2021-03-13T11:55:59Z</time>
      </trkpt>
      <trkpt lat="42.85106" lon="0.90317">
        <ele>1520.552</ele>
        <time>2021-03-13T11:56:01Z</time>
      </trkpt>
      <trkpt lat="42.85106" lon="0.90317">
        <ele>1520.554</ele>
        <time>2021-03-13T11:56:03Z</time>
      </trkpt>
      <trkpt lat="42.85106" lon="0.90317">
        <ele>1520.539</ele>
        <time>2021-03-13T11:56:10Z</time>
      </trkpt>
      <trkpt lat="42.85106" lon="0.90317">
        <ele>1520.542</ele>
        <time>2021-03-13T11:56:12Z</time>
      </trkpt>
      <trkpt lat="42.85106" lon="0.90317">
        <ele>1520.544</ele>
        <time>2021-03-13T11:56:14Z</time>
      </trkpt>
      <trkpt lat="42.85106" lon="0.90316">
        <ele>1520.793</ele>
        <time>2021-03-13T11:56:16Z</time>
      </trkpt>
      <trkpt lat="42.85104" lon="0.90316">
        <ele>1520.901</ele>
        <time>2021-03-13T11:56:18Z</time>
      </trkpt>
      <trkpt lat="42.85103" lon="0.90316">
        <ele>1521.413</ele>
        <time>2021-03-13T11:56:20Z</time>
      </trkpt>
      <trkpt lat="42.85101" lon="0.90316">
        <ele>1522.607</ele>
        <time>2021-03-13T11:56:22Z</time>
      </trkpt>
      <trkpt lat="42.851" lon="0.90317">
        <ele>1522.554</ele>
        <time>2021-03-13T11:56:24Z</time>
      </trkpt>
      <trkpt lat="42.85099" lon="0.90318">
        <ele>1522.945</ele>
        <time>2021-03-13T11:56:26Z</time>
      </trkpt>
      <trkpt lat="42.85098" lon="0.90318">
        <ele>1522.503</ele>
        <time>2021-03-13T11:56:28Z</time>
      </trkpt>
      <trkpt lat="42.85097" lon="0.90319">
        <ele>1522.133</ele>
        <time>2021-03-13T11:56:30Z</time>
      </trkpt>
      <trkpt lat="42.85095" lon="0.90321">
        <ele>1522.565</ele>
        <time>2021-03-13T11:56:32Z</time>
      </trkpt>
      <trkpt lat="42.85094" lon="0.90322">
        <ele>1522.346</ele>
        <time>2021-03-13T11:56:34Z</time>
      </trkpt>
      <trkpt lat="42.85092" lon="0.90323">
        <ele>1522.757</ele>
        <time>2021-03-13T11:56:36Z</time>
      </trkpt>
      <trkpt lat="42.85091" lon="0.90324">
        <ele>1523.617</ele>
        <time>2021-03-13T11:56:38Z</time>
      </trkpt>
      <trkpt lat="42.8509" lon="0.90324">
        <ele>1522.839</ele>
        <time>2021-03-13T11:56:40Z</time>
      </trkpt>
      <trkpt lat="42.8509" lon="0.90324">
        <ele>1522.852</ele>
        <time>2021-03-13T11:56:42Z</time>
      </trkpt>
      <trkpt lat="42.8509" lon="0.90324">
        <ele>1522.876</ele>
        <time>2021-03-13T11:56:44Z</time>
      </trkpt>
      <trkpt lat="42.8509" lon="0.90325">
        <ele>1522.732</ele>
        <time>2021-03-13T11:56:46Z</time>
      </trkpt>
      <trkpt lat="42.85089" lon="0.90326">
        <ele>1522.504</ele>
        <time>2021-03-13T11:56:48Z</time>
      </trkpt>
      <trkpt lat="42.85087" lon="0.90327">
        <ele>1522.175</ele>
        <time>2021-03-13T11:56:50Z</time>
      </trkpt>
      <trkpt lat="42.85086" lon="0.90329">
        <ele>1522.852</ele>
        <time>2021-03-13T11:56:52Z</time>
      </trkpt>
      <trkpt lat="42.85084" lon="0.90331">
        <ele>1522.797</ele>
        <time>2021-03-13T11:56:54Z</time>
      </trkpt>
      <trkpt lat="42.85083" lon="0.90333">
        <ele>1522.985</ele>
        <time>2021-03-13T11:56:56Z</time>
      </trkpt>
      <trkpt lat="42.85082" lon="0.90335">
        <ele>1523.855</ele>
        <time>2021-03-13T11:56:58Z</time>
      </trkpt>
      <trkpt lat="42.85081" lon="0.90337">
        <ele>1524.24</ele>
        <time>2021-03-13T11:57:00Z</time>
      </trkpt>
      <trkpt lat="42.8508" lon="0.90339">
        <ele>1523.885</ele>
        <time>2021-03-13T11:57:02Z</time>
      </trkpt>
      <trkpt lat="42.85079" lon="0.90341">
        <ele>1524.461</ele>
        <time>2021-03-13T11:57:04Z</time>
      </trkpt>
      <trkpt lat="42.85078" lon="0.90343">
        <ele>1525.188</ele>
        <time>2021-03-13T11:57:06Z</time>
      </trkpt>
      <trkpt lat="42.85076" lon="0.90345">
        <ele>1523.729</ele>
        <time>2021-03-13T11:57:08Z</time>
      </trkpt>
      <trkpt lat="42.85075" lon="0.90347">
        <ele>1523.609</ele>
        <time>2021-03-13T11:57:10Z</time>
      </trkpt>
      <trkpt lat="42.85073" lon="0.9035">
        <ele>1523.224</ele>
        <time>2021-03-13T11:57:12Z</time>
      </trkpt>
      <trkpt lat="42.85072" lon="0.90352">
        <ele>1522.194</ele>
        <time>2021-03-13T11:57:14Z</time>
      </trkpt>
      <trkpt lat="42.85071" lon="0.90355">
        <ele>1522.223</ele>
        <time>2021-03-13T11:57:16Z</time>
      </trkpt>
      <trkpt lat="42.8507" lon="0.90357">
        <ele>1522.047</ele>
        <time>2021-03-13T11:57:18Z</time>
      </trkpt>
      <trkpt lat="42.85069" lon="0.9036">
        <ele>1521.637</ele>
        <time>2021-03-13T11:57:20Z</time>
      </trkpt>
      <trkpt lat="42.85067" lon="0.90362">
        <ele>1522.188</ele>
        <time>2021-03-13T11:57:22Z</time>
      </trkpt>
      <trkpt lat="42.85066" lon="0.90363">
        <ele>1522.114</ele>
        <time>2021-03-13T11:57:24Z</time>
      </trkpt>
      <trkpt lat="42.85065" lon="0.90365">
        <ele>1522.827</ele>
        <time>2021-03-13T11:57:26Z</time>
      </trkpt>
      <trkpt lat="42.85063" lon="0.90366">
        <ele>1523.848</ele>
        <time>2021-03-13T11:57:28Z</time>
      </trkpt>
      <trkpt lat="42.85062" lon="0.90368">
        <ele>1523.933</ele>
        <time>2021-03-13T11:57:30Z</time>
      </trkpt>
      <trkpt lat="42.8506" lon="0.9037">
        <ele>1523.548</ele>
        <time>2021-03-13T11:57:32Z</time>
      </trkpt>
      <trkpt lat="42.85059" lon="0.90373">
        <ele>1523.224</ele>
        <time>2021-03-13T11:57:34Z</time>
      </trkpt>
      <trkpt lat="42.85058" lon="0.90375">
        <ele>1523.529</ele>
        <time>2021-03-13T11:57:36Z</time>
      </trkpt>
      <trkpt lat="42.85057" lon="0.90377">
        <ele>1523.985</ele>
        <time>2021-03-13T11:57:38Z</time>
      </trkpt>
      <trkpt lat="42.85056" lon="0.9038">
        <ele>1524.896</ele>
        <time>2021-03-13T11:57:40Z</time>
      </trkpt>
      <trkpt lat="42.85055" lon="0.90381">
        <ele>1524.518</ele>
        <time>2021-03-13T11:57:42Z</time>
      </trkpt>
      <trkpt lat="42.85053" lon="0.90383">
        <ele>1524.754</ele>
        <time>2021-03-13T11:57:44Z</time>
      </trkpt>
      <trkpt lat="42.85052" lon="0.90385">
        <ele>1525.432</ele>
        <time>2021-03-13T11:57:46Z</time>
      </trkpt>
      <trkpt lat="42.85051" lon="0.90388">
        <ele>1525.863</ele>
        <time>2021-03-13T11:57:48Z</time>
      </trkpt>
      <trkpt lat="42.85049" lon="0.90389">
        <ele>1526.039</ele>
        <time>2021-03-13T11:57:50Z</time>
      </trkpt>
      <trkpt lat="42.85048" lon="0.90391">
        <ele>1526.037</ele>
        <time>2021-03-13T11:57:52Z</time>
      </trkpt>
      <trkpt lat="42.85047" lon="0.90394">
        <ele>1526.58</ele>
        <time>2021-03-13T11:57:54Z</time>
      </trkpt>
      <trkpt lat="42.85044" lon="0.90395">
        <ele>1527.218</ele>
        <time>2021-03-13T11:57:56Z</time>
      </trkpt>
      <trkpt lat="42.85043" lon="0.90398">
        <ele>1527.202</ele>
        <time>2021-03-13T11:57:58Z</time>
      </trkpt>
      <trkpt lat="42.85041" lon="0.904">
        <ele>1526.979</ele>
        <time>2021-03-13T11:58:00Z</time>
      </trkpt>
      <trkpt lat="42.8504" lon="0.90403">
        <ele>1526.806</ele>
        <time>2021-03-13T11:58:02Z</time>
      </trkpt>
      <trkpt lat="42.85039" lon="0.90406">
        <ele>1527.094</ele>
        <time>2021-03-13T11:58:04Z</time>
      </trkpt>
      <trkpt lat="42.85038" lon="0.90408">
        <ele>1526.833</ele>
        <time>2021-03-13T11:58:06Z</time>
      </trkpt>
      <trkpt lat="42.85038" lon="0.90411">
        <ele>1526.492</ele>
        <time>2021-03-13T11:58:08Z</time>
      </trkpt>
      <trkpt lat="42.85037" lon="0.90413">
        <ele>1525.648</ele>
        <time>2021-03-13T11:58:10Z</time>
      </trkpt>
      <trkpt lat="42.85037" lon="0.90416">
        <ele>1526.382</ele>
        <time>2021-03-13T11:58:12Z</time>
      </trkpt>
      <trkpt lat="42.85036" lon="0.90418">
        <ele>1526.927</ele>
        <time>2021-03-13T11:58:14Z</time>
      </trkpt>
      <trkpt lat="42.85036" lon="0.90421">
        <ele>1526.537</ele>
        <time>2021-03-13T11:58:16Z</time>
      </trkpt>
      <trkpt lat="42.85035" lon="0.90423">
        <ele>1526.366</ele>
        <time>2021-03-13T11:58:18Z</time>
      </trkpt>
      <trkpt lat="42.85035" lon="0.90425">
        <ele>1526.015</ele>
        <time>2021-03-13T11:58:20Z</time>
      </trkpt>
      <trkpt lat="42.85034" lon="0.90428">
        <ele>1526.28</ele>
        <time>2021-03-13T11:58:22Z</time>
      </trkpt>
      <trkpt lat="42.85034" lon="0.90431">
        <ele>1526.119</ele>
        <time>2021-03-13T11:58:24Z</time>
      </trkpt>
      <trkpt lat="42.85033" lon="0.90434">
        <ele>1526.898</ele>
        <time>2021-03-13T11:58:26Z</time>
      </trkpt>
      <trkpt lat="42.85032" lon="0.90437">
        <ele>1527.024</ele>
        <time>2021-03-13T11:58:28Z</time>
      </trkpt>
      <trkpt lat="42.85032" lon="0.90441">
        <ele>1527.348</ele>
        <time>2021-03-13T11:58:30Z</time>
      </trkpt>
      <trkpt lat="42.85031" lon="0.90445">
        <ele>1527.363</ele>
        <time>2021-03-13T11:58:32Z</time>
      </trkpt>
      <trkpt lat="42.85031" lon="0.90448">
        <ele>1527.581</ele>
        <time>2021-03-13T11:58:34Z</time>
      </trkpt>
      <trkpt lat="42.8503" lon="0.9045">
        <ele>1528.326</ele>
        <time>2021-03-13T11:58:36Z</time>
      </trkpt>
      <trkpt lat="42.85029" lon="0.90453">
        <ele>1528.818</ele>
        <time>2021-03-13T11:58:38Z</time>
      </trkpt>
      <trkpt lat="42.85028" lon="0.90456">
        <ele>1528.281</ele>
        <time>2021-03-13T11:58:40Z</time>
      </trkpt>
      <trkpt lat="42.85028" lon="0.90459">
        <ele>1528.087</ele>
        <time>2021-03-13T11:58:42Z</time>
      </trkpt>
      <trkpt lat="42.85028" lon="0.90461">
        <ele>1527.849</ele>
        <time>2021-03-13T11:58:44Z</time>
      </trkpt>
      <trkpt lat="42.85028" lon="0.90464">
        <ele>1526.869</ele>
        <time>2021-03-13T11:58:46Z</time>
      </trkpt>
      <trkpt lat="42.85027" lon="0.90466">
        <ele>1526.28</ele>
        <time>2021-03-13T11:58:48Z</time>
      </trkpt>
      <trkpt lat="42.85026" lon="0.90469">
        <ele>1526.135</ele>
        <time>2021-03-13T11:58:50Z</time>
      </trkpt>
      <trkpt lat="42.85025" lon="0.90472">
        <ele>1525.715</ele>
        <time>2021-03-13T11:58:52Z</time>
      </trkpt>
      <trkpt lat="42.85024" lon="0.90475">
        <ele>1526.228</ele>
        <time>2021-03-13T11:58:54Z</time>
      </trkpt>
      <trkpt lat="42.85023" lon="0.90478">
        <ele>1526.657</ele>
        <time>2021-03-13T11:58:56Z</time>
      </trkpt>
      <trkpt lat="42.85021" lon="0.90481">
        <ele>1526.375</ele>
        <time>2021-03-13T11:58:58Z</time>
      </trkpt>
      <trkpt lat="42.8502" lon="0.90484">
        <ele>1526.053</ele>
        <time>2021-03-13T11:59:00Z</time>
      </trkpt>
      <trkpt lat="42.85019" lon="0.90487">
        <ele>1525.399</ele>
        <time>2021-03-13T11:59:02Z</time>
      </trkpt>
      <trkpt lat="42.85019" lon="0.9049">
        <ele>1525.525</ele>
        <time>2021-03-13T11:59:04Z</time>
      </trkpt>
      <trkpt lat="42.85019" lon="0.90493">
        <ele>1524.645</ele>
        <time>2021-03-13T11:59:06Z</time>
      </trkpt>
      <trkpt lat="42.85018" lon="0.90496">
        <ele>1524.214</ele>
        <time>2021-03-13T11:59:08Z</time>
      </trkpt>
      <trkpt lat="42.85018" lon="0.90499">
        <ele>1524.17</ele>
        <time>2021-03-13T11:59:10Z</time>
      </trkpt>
      <trkpt lat="42.85017" lon="0.90502">
        <ele>1524.336</ele>
        <time>2021-03-13T11:59:12Z</time>
      </trkpt>
      <trkpt lat="42.85016" lon="0.90504">
        <ele>1522.938</ele>
        <time>2021-03-13T11:59:14Z</time>
      </trkpt>
      <trkpt lat="42.85016" lon="0.90507">
        <ele>1522.227</ele>
        <time>2021-03-13T11:59:16Z</time>
      </trkpt>
      <trkpt lat="42.85016" lon="0.90509">
        <ele>1521.408</ele>
        <time>2021-03-13T11:59:18Z</time>
      </trkpt>
      <trkpt lat="42.85016" lon="0.90512">
        <ele>1520.668</ele>
        <time>2021-03-13T11:59:20Z</time>
      </trkpt>
      <trkpt lat="42.85015" lon="0.90515">
        <ele>1520.214</ele>
        <time>2021-03-13T11:59:22Z</time>
      </trkpt>
      <trkpt lat="42.85016" lon="0.90518">
        <ele>1519.497</ele>
        <time>2021-03-13T11:59:24Z</time>
      </trkpt>
      <trkpt lat="42.85015" lon="0.90523">
        <ele>1518.849</ele>
        <time>2021-03-13T11:59:26Z</time>
      </trkpt>
      <trkpt lat="42.85016" lon="0.90526">
        <ele>1518.293</ele>
        <time>2021-03-13T11:59:28Z</time>
      </trkpt>
      <trkpt lat="42.85016" lon="0.90529">
        <ele>1517.784</ele>
        <time>2021-03-13T11:59:30Z</time>
      </trkpt>
      <trkpt lat="42.85016" lon="0.90532">
        <ele>1517.562</ele>
        <time>2021-03-13T11:59:32Z</time>
      </trkpt>
      <trkpt lat="42.85017" lon="0.90535">
        <ele>1516.892</ele>
        <time>2021-03-13T11:59:34Z</time>
      </trkpt>
      <trkpt lat="42.85018" lon="0.90539">
        <ele>1516.879</ele>
        <time>2021-03-13T11:59:36Z</time>
      </trkpt>
      <trkpt lat="42.85018" lon="0.90542">
        <ele>1515.754</ele>
        <time>2021-03-13T11:59:38Z</time>
      </trkpt>
      <trkpt lat="42.85018" lon="0.90544">
        <ele>1515.51</ele>
        <time>2021-03-13T11:59:40Z</time>
      </trkpt>
      <trkpt lat="42.85018" lon="0.90548">
        <ele>1514.386</ele>
        <time>2021-03-13T11:59:42Z</time>
      </trkpt>
      <trkpt lat="42.85018" lon="0.90551">
        <ele>1513.663</ele>
        <time>2021-03-13T11:59:44Z</time>
      </trkpt>
      <trkpt lat="42.85019" lon="0.90554">
        <ele>1513.673</ele>
        <time>2021-03-13T11:59:46Z</time>
      </trkpt>
      <trkpt lat="42.85019" lon="0.90557">
        <ele>1513.33</ele>
        <time>2021-03-13T11:59:48Z</time>
      </trkpt>
      <trkpt lat="42.85019" lon="0.9056">
        <ele>1513.312</ele>
        <time>2021-03-13T11:59:50Z</time>
      </trkpt>
      <trkpt lat="42.8502" lon="0.90564">
        <ele>1512.654</ele>
        <time>2021-03-13T11:59:52Z</time>
      </trkpt>
      <trkpt lat="42.8502" lon="0.90567">
        <ele>1512.356</ele>
        <time>2021-03-13T11:59:54Z</time>
      </trkpt>
      <trkpt lat="42.8502" lon="0.9057">
        <ele>1511.323</ele>
        <time>2021-03-13T11:59:56Z</time>
      </trkpt>
      <trkpt lat="42.8502" lon="0.90573">
        <ele>1510.487</ele>
        <time>2021-03-13T11:59:58Z</time>
      </trkpt>
      <trkpt lat="42.85021" lon="0.90575">
        <ele>1510.469</ele>
        <time>2021-03-13T12:00:00Z</time>
      </trkpt>
      <trkpt lat="42.85021" lon="0.90579">
        <ele>1510.015</ele>
        <time>2021-03-13T12:00:02Z</time>
      </trkpt>
      <trkpt lat="42.85022" lon="0.90582">
        <ele>1509.843</ele>
        <time>2021-03-13T12:00:04Z</time>
      </trkpt>
      <trkpt lat="42.85022" lon="0.90584">
        <ele>1510.095</ele>
        <time>2021-03-13T12:00:06Z</time>
      </trkpt>
      <trkpt lat="42.85022" lon="0.90588">
        <ele>1510.228</ele>
        <time>2021-03-13T12:00:08Z</time>
      </trkpt>
      <trkpt lat="42.85022" lon="0.90591">
        <ele>1509.676</ele>
        <time>2021-03-13T12:00:10Z</time>
      </trkpt>
      <trkpt lat="42.85023" lon="0.90595">
        <ele>1509.446</ele>
        <time>2021-03-13T12:00:12Z</time>
      </trkpt>
      <trkpt lat="42.85024" lon="0.90598">
        <ele>1510.79</ele>
        <time>2021-03-13T12:00:14Z</time>
      </trkpt>
      <trkpt lat="42.85026" lon="0.906">
        <ele>1512.073</ele>
        <time>2021-03-13T12:00:16Z</time>
      </trkpt>
      <trkpt lat="42.85027" lon="0.90601">
        <ele>1513.306</ele>
        <time>2021-03-13T12:00:18Z</time>
      </trkpt>
      <trkpt lat="42.85028" lon="0.90603">
        <ele>1513.95</ele>
        <time>2021-03-13T12:00:20Z</time>
      </trkpt>
      <trkpt lat="42.8503" lon="0.90604">
        <ele>1515.763</ele>
        <time>2021-03-13T12:00:22Z</time>
      </trkpt>
      <trkpt lat="42.85031" lon="0.90604">
        <ele>1515.829</ele>
        <time>2021-03-13T12:00:24Z</time>
      </trkpt>
      <trkpt lat="42.85031" lon="0.90604">
        <ele>1515.829</ele>
        <time>2021-03-13T12:00:26Z</time>
      </trkpt>
      <trkpt lat="42.85031" lon="0.90604">
        <ele>1515.826</ele>
        <time>2021-03-13T12:00:28Z</time>
      </trkpt>
      <trkpt lat="42.85031" lon="0.90604">
        <ele>1515.827</ele>
        <time>2021-03-13T12:00:30Z</time>
      </trkpt>
      <trkpt lat="42.85031" lon="0.90604">
        <ele>1515.826</ele>
        <time>2021-03-13T12:00:32Z</time>
      </trkpt>
      <trkpt lat="42.85031" lon="0.90604">
        <ele>1515.825</ele>
        <time>2021-03-13T12:00:34Z</time>
      </trkpt>
      <trkpt lat="42.85031" lon="0.90604">
        <ele>1515.823</ele>
        <time>2021-03-13T12:00:36Z</time>
      </trkpt>
      <trkpt lat="42.85031" lon="0.90604">
        <ele>1515.822</ele>
        <time>2021-03-13T12:00:38Z</time>
      </trkpt>
      <trkpt lat="42.85031" lon="0.90604">
        <ele>1515.824</ele>
        <time>2021-03-13T12:00:40Z</time>
      </trkpt>
      <trkpt lat="42.85031" lon="0.90604">
        <ele>1515.823</ele>
        <time>2021-03-13T12:00:42Z</time>
      </trkpt>
      <trkpt lat="42.85031" lon="0.90604">
        <ele>1516.13</ele>
        <time>2021-03-13T12:00:44Z</time>
      </trkpt>
      <trkpt lat="42.85031" lon="0.90604">
        <ele>1516.109</ele>
        <time>2021-03-13T12:00:46Z</time>
      </trkpt>
      <trkpt lat="42.85032" lon="0.90603">
        <ele>1516.217</ele>
        <time>2021-03-13T12:00:48Z</time>
      </trkpt>
      <trkpt lat="42.85034" lon="0.90602">
        <ele>1516.238</ele>
        <time>2021-03-13T12:00:50Z</time>
      </trkpt>
      <trkpt lat="42.85035" lon="0.90601">
        <ele>1516.544</ele>
        <time>2021-03-13T12:00:52Z</time>
      </trkpt>
      <trkpt lat="42.85035" lon="0.90601">
        <ele>1516.406</ele>
        <time>2021-03-13T12:00:54Z</time>
      </trkpt>
      <trkpt lat="42.85033" lon="0.90602">
        <ele>1516.465</ele>
        <time>2021-03-13T12:00:56Z</time>
      </trkpt>
      <trkpt lat="42.85033" lon="0.90602">
        <ele>1516.25</ele>
        <time>2021-03-13T12:00:58Z</time>
      </trkpt>
      <trkpt lat="42.85034" lon="0.90603">
        <ele>1515.962</ele>
        <time>2021-03-13T12:01:00Z</time>
      </trkpt>
      <trkpt lat="42.8504" lon="0.90605">
        <ele>1516.973</ele>
        <time>2021-03-13T12:01:02Z</time>
      </trkpt>
      <trkpt lat="42.8504" lon="0.90606">
        <ele>1516.973</ele>
        <time>2021-03-13T12:01:04Z</time>
      </trkpt>
      <trkpt lat="42.8504" lon="0.90604">
        <ele>1516.75</ele>
        <time>2021-03-13T12:01:05Z</time>
      </trkpt>
      <trkpt lat="42.85035" lon="0.90604">
        <ele>1517.789</ele>
        <time>2021-03-13T12:01:08Z</time>
      </trkpt>
      <trkpt lat="42.85032" lon="0.90609">
        <ele>1516.045</ele>
        <time>2021-03-13T12:01:10Z</time>
      </trkpt>
      <trkpt lat="42.85031" lon="0.90613">
        <ele>1519.61</ele>
        <time>2021-03-13T12:01:12Z</time>
      </trkpt>
      <trkpt lat="42.8503" lon="0.90613">
        <ele>1519.167</ele>
        <time>2021-03-13T12:01:13Z</time>
      </trkpt>
      <trkpt lat="42.85031" lon="0.90611">
        <ele>1518.776</ele>
        <time>2021-03-13T12:01:20Z</time>
      </trkpt>
      <trkpt lat="42.85031" lon="0.90611">
        <ele>1517.244</ele>
        <time>2021-03-13T12:01:22Z</time>
      </trkpt>
      <trkpt lat="42.85031" lon="0.90611">
        <ele>1517.498</ele>
        <time>2021-03-13T12:01:24Z</time>
      </trkpt>
      <trkpt lat="42.85031" lon="0.90611">
        <ele>1517.515</ele>
        <time>2021-03-13T12:01:26Z</time>
      </trkpt>
      <trkpt lat="42.8503" lon="0.90611">
        <ele>1517.77</ele>
        <time>2021-03-13T12:01:28Z</time>
      </trkpt>
      <trkpt lat="42.85031" lon="0.90613">
        <ele>1517.134</ele>
        <time>2021-03-13T12:01:30Z</time>
      </trkpt>
      <trkpt lat="42.85032" lon="0.90614">
        <ele>1516.988</ele>
        <time>2021-03-13T12:01:32Z</time>
      </trkpt>
      <trkpt lat="42.85031" lon="0.90617">
        <ele>1517.832</ele>
        <time>2021-03-13T12:01:34Z</time>
      </trkpt>
      <trkpt lat="42.85031" lon="0.90617">
        <ele>1517.995</ele>
        <time>2021-03-13T12:01:36Z</time>
      </trkpt>
      <trkpt lat="42.85031" lon="0.90619">
        <ele>1518.071</ele>
        <time>2021-03-13T12:01:38Z</time>
      </trkpt>
      <trkpt lat="42.85032" lon="0.9062">
        <ele>1517.071</ele>
        <time>2021-03-13T12:01:40Z</time>
      </trkpt>
      <trkpt lat="42.85033" lon="0.9062">
        <ele>1516.603</ele>
        <time>2021-03-13T12:01:42Z</time>
      </trkpt>
      <trkpt lat="42.85035" lon="0.9062">
        <ele>1516.122</ele>
        <time>2021-03-13T12:01:44Z</time>
      </trkpt>
      <trkpt lat="42.85036" lon="0.90621">
        <ele>1515.345</ele>
        <time>2021-03-13T12:01:46Z</time>
      </trkpt>
      <trkpt lat="42.85037" lon="0.90622">
        <ele>1514.401</ele>
        <time>2021-03-13T12:01:48Z</time>
      </trkpt>
      <trkpt lat="42.85038" lon="0.90625">
        <ele>1514.677</ele>
        <time>2021-03-13T12:01:50Z</time>
      </trkpt>
      <trkpt lat="42.85039" lon="0.90628">
        <ele>1514.628</ele>
        <time>2021-03-13T12:01:52Z</time>
      </trkpt>
      <trkpt lat="42.8504" lon="0.90631">
        <ele>1515.571</ele>
        <time>2021-03-13T12:01:54Z</time>
      </trkpt>
      <trkpt lat="42.85041" lon="0.90632">
        <ele>1516.337</ele>
        <time>2021-03-13T12:01:56Z</time>
      </trkpt>
      <trkpt lat="42.85042" lon="0.90633">
        <ele>1517.372</ele>
        <time>2021-03-13T12:01:58Z</time>
      </trkpt>
      <trkpt lat="42.85043" lon="0.90635">
        <ele>1518.219</ele>
        <time>2021-03-13T12:02:00Z</time>
      </trkpt>
      <trkpt lat="42.85043" lon="0.90635">
        <ele>1518.159</ele>
        <time>2021-03-13T12:02:02Z</time>
      </trkpt>
      <trkpt lat="42.85043" lon="0.90635">
        <ele>1517.761</ele>
        <time>2021-03-13T12:02:04Z</time>
      </trkpt>
      <trkpt lat="42.85043" lon="0.90636">
        <ele>1517.77</ele>
        <time>2021-03-13T12:02:06Z</time>
      </trkpt>
      <trkpt lat="42.85043" lon="0.90636">
        <ele>1517.977</ele>
        <time>2021-03-13T12:02:08Z</time>
      </trkpt>
      <trkpt lat="42.85043" lon="0.90636">
        <ele>1517.979</ele>
        <time>2021-03-13T12:02:10Z</time>
      </trkpt>
      <trkpt lat="42.85043" lon="0.90636">
        <ele>1517.972</ele>
        <time>2021-03-13T12:02:12Z</time>
      </trkpt>
      <trkpt lat="42.85043" lon="0.90636">
        <ele>1517.974</ele>
        <time>2021-03-13T12:02:14Z</time>
      </trkpt>
      <trkpt lat="42.85043" lon="0.90635">
        <ele>1517.984</ele>
        <time>2021-03-13T12:02:16Z</time>
      </trkpt>
      <trkpt lat="42.85043" lon="0.90635">
        <ele>1517.998</ele>
        <time>2021-03-13T12:02:18Z</time>
      </trkpt>
      <trkpt lat="42.85042" lon="0.90635">
        <ele>1517.725</ele>
        <time>2021-03-13T12:02:20Z</time>
      </trkpt>
      <trkpt lat="42.85042" lon="0.90635">
        <ele>1517.719</ele>
        <time>2021-03-13T12:02:22Z</time>
      </trkpt>
      <trkpt lat="42.85042" lon="0.90635">
        <ele>1517.723</ele>
        <time>2021-03-13T12:02:24Z</time>
      </trkpt>
      <trkpt lat="42.85042" lon="0.90635">
        <ele>1517.725</ele>
        <time>2021-03-13T12:02:26Z</time>
      </trkpt>
      <trkpt lat="42.85042" lon="0.90634">
        <ele>1517.407</ele>
        <time>2021-03-13T12:02:28Z</time>
      </trkpt>
      <trkpt lat="42.85042" lon="0.90634">
        <ele>1517.405</ele>
        <time>2021-03-13T12:02:30Z</time>
      </trkpt>
      <trkpt lat="42.85042" lon="0.90634">
        <ele>1517.394</ele>
        <time>2021-03-13T12:02:32Z</time>
      </trkpt>
      <trkpt lat="42.85042" lon="0.90634">
        <ele>1517.399</ele>
        <time>2021-03-13T12:02:34Z</time>
      </trkpt>
      <trkpt lat="42.85042" lon="0.90634">
        <ele>1517.401</ele>
        <time>2021-03-13T12:02:36Z</time>
      </trkpt>
      <trkpt lat="42.85042" lon="0.90634">
        <ele>1517.402</ele>
        <time>2021-03-13T12:02:38Z</time>
      </trkpt>
      <trkpt lat="42.85042" lon="0.90634">
        <ele>1517.393</ele>
        <time>2021-03-13T12:02:40Z</time>
      </trkpt>
      <trkpt lat="42.85041" lon="0.90633">
        <ele>1517.778</ele>
        <time>2021-03-13T12:02:42Z</time>
      </trkpt>
      <trkpt lat="42.8504" lon="0.90632">
        <ele>1517.132</ele>
        <time>2021-03-13T12:02:44Z</time>
      </trkpt>
      <trkpt lat="42.85039" lon="0.9063">
        <ele>1516.363</ele>
        <time>2021-03-13T12:02:46Z</time>
      </trkpt>
      <trkpt lat="42.85039" lon="0.90627">
        <ele>1515.803</ele>
        <time>2021-03-13T12:02:48Z</time>
      </trkpt>
      <trkpt lat="42.85041" lon="0.90625">
        <ele>1515.789</ele>
        <time>2021-03-13T12:02:50Z</time>
      </trkpt>
      <trkpt lat="42.85042" lon="0.90625">
        <ele>1515.791</ele>
        <time>2021-03-13T12:02:52Z</time>
      </trkpt>
      <trkpt lat="42.85042" lon="0.90625">
        <ele>1515.792</ele>
        <time>2021-03-13T12:02:54Z</time>
      </trkpt>
      <trkpt lat="42.85042" lon="0.90625">
        <ele>1515.791</ele>
        <time>2021-03-13T12:02:56Z</time>
      </trkpt>
      <trkpt lat="42.85043" lon="0.90625">
        <ele>1515.786</ele>
        <time>2021-03-13T12:02:58Z</time>
      </trkpt>
      <trkpt lat="42.85043" lon="0.90625">
        <ele>1515.78</ele>
        <time>2021-03-13T12:03:00Z</time>
      </trkpt>
      <trkpt lat="42.85043" lon="0.90625">
        <ele>1515.777</ele>
        <time>2021-03-13T12:03:02Z</time>
      </trkpt>
      <trkpt lat="42.85043" lon="0.90625">
        <ele>1515.773</ele>
        <time>2021-03-13T12:03:04Z</time>
      </trkpt>
      <trkpt lat="42.85043" lon="0.90625">
        <ele>1515.763</ele>
        <time>2021-03-13T12:03:06Z</time>
      </trkpt>
      <trkpt lat="42.85043" lon="0.90623">
        <ele>1515.562</ele>
        <time>2021-03-13T12:03:08Z</time>
      </trkpt>
      <trkpt lat="42.85042" lon="0.90622">
        <ele>1515.046</ele>
        <time>2021-03-13T12:03:10Z</time>
      </trkpt>
      <trkpt lat="42.85041" lon="0.9062">
        <ele>1514.687</ele>
        <time>2021-03-13T12:03:12Z</time>
      </trkpt>
      <trkpt lat="42.85036" lon="0.90623">
        <ele>1514.49</ele>
        <time>2021-03-13T12:03:14Z</time>
      </trkpt>
      <trkpt lat="42.85032" lon="0.90623">
        <ele>1515.285</ele>
        <time>2021-03-13T12:03:16Z</time>
      </trkpt>
      <trkpt lat="42.85032" lon="0.90621">
        <ele>1515.402</ele>
        <time>2021-03-13T12:03:18Z</time>
      </trkpt>
      <trkpt lat="42.85032" lon="0.90619">
        <ele>1516.163</ele>
        <time>2021-03-13T12:03:20Z</time>
      </trkpt>
      <trkpt lat="42.85032" lon="0.90617">
        <ele>1515.348</ele>
        <time>2021-03-13T12:03:22Z</time>
      </trkpt>
      <trkpt lat="42.85031" lon="0.90615">
        <ele>1515.372</ele>
        <time>2021-03-13T12:03:24Z</time>
      </trkpt>
      <trkpt lat="42.85029" lon="0.90614">
        <ele>1515.056</ele>
        <time>2021-03-13T12:03:26Z</time>
      </trkpt>
      <trkpt lat="42.85028" lon="0.90613">
        <ele>1514.63</ele>
        <time>2021-03-13T12:03:28Z</time>
      </trkpt>
      <trkpt lat="42.85028" lon="0.90612">
        <ele>1515.724</ele>
        <time>2021-03-13T12:03:30Z</time>
      </trkpt>
      <trkpt lat="42.85027" lon="0.90611">
        <ele>1515.335</ele>
        <time>2021-03-13T12:03:32Z</time>
      </trkpt>
      <trkpt lat="42.85027" lon="0.90609">
        <ele>1513.561</ele>
        <time>2021-03-13T12:03:34Z</time>
      </trkpt>
      <trkpt lat="42.85028" lon="0.90609">
        <ele>1514.254</ele>
        <time>2021-03-13T12:03:36Z</time>
      </trkpt>
      <trkpt lat="42.85028" lon="0.90609">
        <ele>1514.251</ele>
        <time>2021-03-13T12:03:38Z</time>
      </trkpt>
      <trkpt lat="42.85028" lon="0.90609">
        <ele>1514.25</ele>
        <time>2021-03-13T12:03:40Z</time>
      </trkpt>
      <trkpt lat="42.85028" lon="0.90608">
        <ele>1513.8</ele>
        <time>2021-03-13T12:03:42Z</time>
      </trkpt>
      <trkpt lat="42.85027" lon="0.90607">
        <ele>1513.351</ele>
        <time>2021-03-13T12:03:44Z</time>
      </trkpt>
      <trkpt lat="42.85028" lon="0.90607">
        <ele>1513.187</ele>
        <time>2021-03-13T12:03:46Z</time>
      </trkpt>
      <trkpt lat="42.85028" lon="0.90607">
        <ele>1513.176</ele>
        <time>2021-03-13T12:03:48Z</time>
      </trkpt>
      <trkpt lat="42.85028" lon="0.90609">
        <ele>1513.532</ele>
        <time>2021-03-13T12:03:50Z</time>
      </trkpt>
      <trkpt lat="42.85027" lon="0.90611">
        <ele>1514.574</ele>
        <time>2021-03-13T12:03:52Z</time>
      </trkpt>
      <trkpt lat="42.85027" lon="0.90612">
        <ele>1514.704</ele>
        <time>2021-03-13T12:03:54Z</time>
      </trkpt>
      <trkpt lat="42.85027" lon="0.90612">
        <ele>1514.7</ele>
        <time>2021-03-13T12:03:56Z</time>
      </trkpt>
      <trkpt lat="42.85027" lon="0.90611">
        <ele>1514.407</ele>
        <time>2021-03-13T12:03:58Z</time>
      </trkpt>
      <trkpt lat="42.85027" lon="0.9061">
        <ele>1514.261</ele>
        <time>2021-03-13T12:04:00Z</time>
      </trkpt>
      <trkpt lat="42.85027" lon="0.9061">
        <ele>1514.253</ele>
        <time>2021-03-13T12:04:02Z</time>
      </trkpt>
      <trkpt lat="42.85027" lon="0.9061">
        <ele>1514.253</ele>
        <time>2021-03-13T12:04:04Z</time>
      </trkpt>
      <trkpt lat="42.85027" lon="0.9061">
        <ele>1514.245</ele>
        <time>2021-03-13T12:04:06Z</time>
      </trkpt>
      <trkpt lat="42.85027" lon="0.9061">
        <ele>1514.243</ele>
        <time>2021-03-13T12:04:08Z</time>
      </trkpt>
      <trkpt lat="42.85027" lon="0.9061">
        <ele>1513.937</ele>
        <time>2021-03-13T12:04:10Z</time>
      </trkpt>
      <trkpt lat="42.85028" lon="0.90611">
        <ele>1514.817</ele>
        <time>2021-03-13T12:04:12Z</time>
      </trkpt>
      <trkpt lat="42.85028" lon="0.90611">
        <ele>1514.767</ele>
        <time>2021-03-13T12:04:14Z</time>
      </trkpt>
      <trkpt lat="42.85028" lon="0.90611">
        <ele>1514.763</ele>
        <time>2021-03-13T12:04:16Z</time>
      </trkpt>
      <trkpt lat="42.85028" lon="0.90611">
        <ele>1514.758</ele>
        <time>2021-03-13T12:04:18Z</time>
      </trkpt>
      <trkpt lat="42.85028" lon="0.90611">
        <ele>1514.754</ele>
        <time>2021-03-13T12:04:20Z</time>
      </trkpt>
      <trkpt lat="42.85028" lon="0.90611">
        <ele>1514.761</ele>
        <time>2021-03-13T12:04:22Z</time>
      </trkpt>
      <trkpt lat="42.85028" lon="0.90611">
        <ele>1514.76</ele>
        <time>2021-03-13T12:04:24Z</time>
      </trkpt>
      <trkpt lat="42.85028" lon="0.90611">
        <ele>1514.759</ele>
        <time>2021-03-13T12:04:26Z</time>
      </trkpt>
      <trkpt lat="42.85028" lon="0.90611">
        <ele>1514.758</ele>
        <time>2021-03-13T12:04:28Z</time>
      </trkpt>
      <trkpt lat="42.85028" lon="0.90611">
        <ele>1514.76</ele>
        <time>2021-03-13T12:04:30Z</time>
      </trkpt>
      <trkpt lat="42.85028" lon="0.9061">
        <ele>1514.689</ele>
        <time>2021-03-13T12:04:32Z</time>
      </trkpt>
      <trkpt lat="42.85028" lon="0.9061">
        <ele>1514.702</ele>
        <time>2021-03-13T12:04:34Z</time>
      </trkpt>
      <trkpt lat="42.85028" lon="0.9061">
        <ele>1514.698</ele>
        <time>2021-03-13T12:04:36Z</time>
      </trkpt>
      <trkpt lat="42.85028" lon="0.9061">
        <ele>1514.694</ele>
        <time>2021-03-13T12:04:38Z</time>
      </trkpt>
      <trkpt lat="42.85028" lon="0.9061">
        <ele>1514.687</ele>
        <time>2021-03-13T12:04:40Z</time>
      </trkpt>
      <trkpt lat="42.85028" lon="0.9061">
        <ele>1514.686</ele>
        <time>2021-03-13T12:04:42Z</time>
      </trkpt>
      <trkpt lat="42.85028" lon="0.9061">
        <ele>1514.686</ele>
        <time>2021-03-13T12:04:44Z</time>
      </trkpt>
      <trkpt lat="42.85028" lon="0.9061">
        <ele>1514.684</ele>
        <time>2021-03-13T12:04:46Z</time>
      </trkpt>
      <trkpt lat="42.85028" lon="0.9061">
        <ele>1514.679</ele>
        <time>2021-03-13T12:04:48Z</time>
      </trkpt>
      <trkpt lat="42.85028" lon="0.9061">
        <ele>1514.678</ele>
        <time>2021-03-13T12:04:50Z</time>
      </trkpt>
      <trkpt lat="42.85028" lon="0.9061">
        <ele>1515.01</ele>
        <time>2021-03-13T12:04:52Z</time>
      </trkpt>
      <trkpt lat="42.85028" lon="0.9061">
        <ele>1515.047</ele>
        <time>2021-03-13T12:04:54Z</time>
      </trkpt>
      <trkpt lat="42.85028" lon="0.9061">
        <ele>1515.047</ele>
        <time>2021-03-13T12:04:56Z</time>
      </trkpt>
      <trkpt lat="42.85028" lon="0.9061">
        <ele>1514.992</ele>
        <time>2021-03-13T12:04:58Z</time>
      </trkpt>
      <trkpt lat="42.85028" lon="0.9061">
        <ele>1514.985</ele>
        <time>2021-03-13T12:05:00Z</time>
      </trkpt>
      <trkpt lat="42.85029" lon="0.90609">
        <ele>1514.775</ele>
        <time>2021-03-13T12:05:02Z</time>
      </trkpt>
      <trkpt lat="42.85028" lon="0.90607">
        <ele>1514.887</ele>
        <time>2021-03-13T12:05:04Z</time>
      </trkpt>
      <trkpt lat="42.85028" lon="0.90607">
        <ele>1514.814</ele>
        <time>2021-03-13T12:05:06Z</time>
      </trkpt>
      <trkpt lat="42.85028" lon="0.90606">
        <ele>1514.188</ele>
        <time>2021-03-13T12:05:08Z</time>
      </trkpt>
      <trkpt lat="42.85028" lon="0.90606">
        <ele>1513.653</ele>
        <time>2021-03-13T12:05:10Z</time>
      </trkpt>
      <trkpt lat="42.85028" lon="0.90606">
        <ele>1514.016</ele>
        <time>2021-03-13T12:05:12Z</time>
      </trkpt>
      <trkpt lat="42.85028" lon="0.90606">
        <ele>1513.669</ele>
        <time>2021-03-13T12:05:14Z</time>
      </trkpt>
      <trkpt lat="42.85029" lon="0.90606">
        <ele>1513.671</ele>
        <time>2021-03-13T12:05:16Z</time>
      </trkpt>
      <trkpt lat="42.85029" lon="0.90606">
        <ele>1513.666</ele>
        <time>2021-03-13T12:05:18Z</time>
      </trkpt>
      <trkpt lat="42.85029" lon="0.90606">
        <ele>1513.664</ele>
        <time>2021-03-13T12:05:20Z</time>
      </trkpt>
      <trkpt lat="42.85029" lon="0.90606">
        <ele>1513.665</ele>
        <time>2021-03-13T12:05:22Z</time>
      </trkpt>
      <trkpt lat="42.85029" lon="0.90606">
        <ele>1513.664</ele>
        <time>2021-03-13T12:05:24Z</time>
      </trkpt>
      <trkpt lat="42.85029" lon="0.90606">
        <ele>1513.663</ele>
        <time>2021-03-13T12:05:26Z</time>
      </trkpt>
      <trkpt lat="42.85029" lon="0.90606">
        <ele>1513.665</ele>
        <time>2021-03-13T12:05:28Z</time>
      </trkpt>
      <trkpt lat="42.85029" lon="0.90606">
        <ele>1513.663</ele>
        <time>2021-03-13T12:05:30Z</time>
      </trkpt>
      <trkpt lat="42.85029" lon="0.90606">
        <ele>1513.659</ele>
        <time>2021-03-13T12:05:32Z</time>
      </trkpt>
      <trkpt lat="42.85029" lon="0.90606">
        <ele>1513.658</ele>
        <time>2021-03-13T12:05:34Z</time>
      </trkpt>
      <trkpt lat="42.85029" lon="0.90606">
        <ele>1513.654</ele>
        <time>2021-03-13T12:05:36Z</time>
      </trkpt>
      <trkpt lat="42.85028" lon="0.90606">
        <ele>1513.504</ele>
        <time>2021-03-13T12:05:38Z</time>
      </trkpt>
      <trkpt lat="42.85028" lon="0.90606">
        <ele>1513.505</ele>
        <time>2021-03-13T12:05:40Z</time>
      </trkpt>
      <trkpt lat="42.85028" lon="0.90606">
        <ele>1513.507</ele>
        <time>2021-03-13T12:05:42Z</time>
      </trkpt>
      <trkpt lat="42.85028" lon="0.90606">
        <ele>1513.507</ele>
        <time>2021-03-13T12:05:44Z</time>
      </trkpt>
      <trkpt lat="42.85029" lon="0.90606">
        <ele>1513.617</ele>
        <time>2021-03-13T12:05:46Z</time>
      </trkpt>
      <trkpt lat="42.85029" lon="0.90606">
        <ele>1513.692</ele>
        <time>2021-03-13T12:05:48Z</time>
      </trkpt>
      <trkpt lat="42.85029" lon="0.90606">
        <ele>1513.504</ele>
        <time>2021-03-13T12:05:50Z</time>
      </trkpt>
      <trkpt lat="42.85029" lon="0.90606">
        <ele>1513.503</ele>
        <time>2021-03-13T12:05:52Z</time>
      </trkpt>
      <trkpt lat="42.85029" lon="0.90606">
        <ele>1513.502</ele>
        <time>2021-03-13T12:05:54Z</time>
      </trkpt>
      <trkpt lat="42.85029" lon="0.90606">
        <ele>1513.501</ele>
        <time>2021-03-13T12:05:56Z</time>
      </trkpt>
      <trkpt lat="42.85029" lon="0.90606">
        <ele>1513.498</ele>
        <time>2021-03-13T12:05:58Z</time>
      </trkpt>
      <trkpt lat="42.85029" lon="0.90606">
        <ele>1513.495</ele>
        <time>2021-03-13T12:06:00Z</time>
      </trkpt>
      <trkpt lat="42.85029" lon="0.90606">
        <ele>1513.493</ele>
        <time>2021-03-13T12:06:02Z</time>
      </trkpt>
      <trkpt lat="42.85029" lon="0.90606">
        <ele>1513.494</ele>
        <time>2021-03-13T12:06:04Z</time>
      </trkpt>
      <trkpt lat="42.85029" lon="0.90606">
        <ele>1513.499</ele>
        <time>2021-03-13T12:06:06Z</time>
      </trkpt>
      <trkpt lat="42.85029" lon="0.90606">
        <ele>1513.501</ele>
        <time>2021-03-13T12:06:08Z</time>
      </trkpt>
      <trkpt lat="42.85029" lon="0.90606">
        <ele>1513.665</ele>
        <time>2021-03-13T12:06:10Z</time>
      </trkpt>
      <trkpt lat="42.85029" lon="0.90606">
        <ele>1513.68</ele>
        <time>2021-03-13T12:06:12Z</time>
      </trkpt>
      <trkpt lat="42.85029" lon="0.90606">
        <ele>1513.682</ele>
        <time>2021-03-13T12:06:14Z</time>
      </trkpt>
      <trkpt lat="42.85029" lon="0.90606">
        <ele>1513.683</ele>
        <time>2021-03-13T12:06:16Z</time>
      </trkpt>
      <trkpt lat="42.85029" lon="0.90606">
        <ele>1513.681</ele>
        <time>2021-03-13T12:06:18Z</time>
      </trkpt>
      <trkpt lat="42.85029" lon="0.90606">
        <ele>1513.682</ele>
        <time>2021-03-13T12:06:20Z</time>
      </trkpt>
      <trkpt lat="42.85029" lon="0.90606">
        <ele>1513.684</ele>
        <time>2021-03-13T12:06:22Z</time>
      </trkpt>
      <trkpt lat="42.85029" lon="0.90606">
        <ele>1513.689</ele>
        <time>2021-03-13T12:06:24Z</time>
      </trkpt>
      <trkpt lat="42.85029" lon="0.90606">
        <ele>1513.691</ele>
        <time>2021-03-13T12:06:26Z</time>
      </trkpt>
      <trkpt lat="42.85029" lon="0.90606">
        <ele>1513.693</ele>
        <time>2021-03-13T12:06:28Z</time>
      </trkpt>
      <trkpt lat="42.85029" lon="0.90606">
        <ele>1513.69</ele>
        <time>2021-03-13T12:06:30Z</time>
      </trkpt>
      <trkpt lat="42.85029" lon="0.90606">
        <ele>1513.693</ele>
        <time>2021-03-13T12:06:32Z</time>
      </trkpt>
      <trkpt lat="42.85029" lon="0.90606">
        <ele>1513.694</ele>
        <time>2021-03-13T12:06:34Z</time>
      </trkpt>
      <trkpt lat="42.85029" lon="0.90606">
        <ele>1513.693</ele>
        <time>2021-03-13T12:06:36Z</time>
      </trkpt>
      <trkpt lat="42.85029" lon="0.90606">
        <ele>1513.693</ele>
        <time>2021-03-13T12:06:38Z</time>
      </trkpt>
      <trkpt lat="42.85029" lon="0.90606">
        <ele>1513.692</ele>
        <time>2021-03-13T12:06:40Z</time>
      </trkpt>
      <trkpt lat="42.85029" lon="0.90606">
        <ele>1513.694</ele>
        <time>2021-03-13T12:06:42Z</time>
      </trkpt>
      <trkpt lat="42.85029" lon="0.90606">
        <ele>1513.692</ele>
        <time>2021-03-13T12:06:44Z</time>
      </trkpt>
      <trkpt lat="42.85029" lon="0.90606">
        <ele>1513.694</ele>
        <time>2021-03-13T12:06:46Z</time>
      </trkpt>
      <trkpt lat="42.85029" lon="0.90606">
        <ele>1513.696</ele>
        <time>2021-03-13T12:06:48Z</time>
      </trkpt>
      <trkpt lat="42.85029" lon="0.90606">
        <ele>1513.697</ele>
        <time>2021-03-13T12:06:50Z</time>
      </trkpt>
      <trkpt lat="42.85029" lon="0.90606">
        <ele>1513.698</ele>
        <time>2021-03-13T12:06:52Z</time>
      </trkpt>
      <trkpt lat="42.85029" lon="0.90606">
        <ele>1513.697</ele>
        <time>2021-03-13T12:06:54Z</time>
      </trkpt>
      <trkpt lat="42.85029" lon="0.90606">
        <ele>1513.7</ele>
        <time>2021-03-13T12:06:56Z</time>
      </trkpt>
      <trkpt lat="42.85029" lon="0.90606">
        <ele>1513.701</ele>
        <time>2021-03-13T12:06:58Z</time>
      </trkpt>
      <trkpt lat="42.85029" lon="0.90606">
        <ele>1513.702</ele>
        <time>2021-03-13T12:07:00Z</time>
      </trkpt>
      <trkpt lat="42.85029" lon="0.90606">
        <ele>1513.705</ele>
        <time>2021-03-13T12:07:02Z</time>
      </trkpt>
      <trkpt lat="42.85029" lon="0.90606">
        <ele>1513.711</ele>
        <time>2021-03-13T12:07:04Z</time>
      </trkpt>
      <trkpt lat="42.85029" lon="0.90606">
        <ele>1513.713</ele>
        <time>2021-03-13T12:07:06Z</time>
      </trkpt>
      <trkpt lat="42.85029" lon="0.90606">
        <ele>1513.879</ele>
        <time>2021-03-13T12:07:08Z</time>
      </trkpt>
      <trkpt lat="42.85029" lon="0.90606">
        <ele>1513.946</ele>
        <time>2021-03-13T12:07:10Z</time>
      </trkpt>
      <trkpt lat="42.85029" lon="0.90606">
        <ele>1513.939</ele>
        <time>2021-03-13T12:07:12Z</time>
      </trkpt>
      <trkpt lat="42.85028" lon="0.90606">
        <ele>1513.999</ele>
        <time>2021-03-13T12:07:14Z</time>
      </trkpt>
      <trkpt lat="42.85028" lon="0.90606">
        <ele>1514.097</ele>
        <time>2021-03-13T12:07:16Z</time>
      </trkpt>
      <trkpt lat="42.85028" lon="0.90606">
        <ele>1514.151</ele>
        <time>2021-03-13T12:07:18Z</time>
      </trkpt>
      <trkpt lat="42.85028" lon="0.90606">
        <ele>1514.152</ele>
        <time>2021-03-13T12:07:20Z</time>
      </trkpt>
      <trkpt lat="42.85028" lon="0.90606">
        <ele>1514.152</ele>
        <time>2021-03-13T12:07:22Z</time>
      </trkpt>
      <trkpt lat="42.85028" lon="0.90606">
        <ele>1514.156</ele>
        <time>2021-03-13T12:07:24Z</time>
      </trkpt>
      <trkpt lat="42.85028" lon="0.90606">
        <ele>1514.162</ele>
        <time>2021-03-13T12:07:26Z</time>
      </trkpt>
      <trkpt lat="42.85028" lon="0.90606">
        <ele>1514.036</ele>
        <time>2021-03-13T12:07:28Z</time>
      </trkpt>
      <trkpt lat="42.85029" lon="0.90606">
        <ele>1513.754</ele>
        <time>2021-03-13T12:07:30Z</time>
      </trkpt>
      <trkpt lat="42.85029" lon="0.90606">
        <ele>1513.755</ele>
        <time>2021-03-13T12:07:32Z</time>
      </trkpt>
      <trkpt lat="42.85029" lon="0.90606">
        <ele>1513.754</ele>
        <time>2021-03-13T12:07:34Z</time>
      </trkpt>
      <trkpt lat="42.85029" lon="0.90606">
        <ele>1513.753</ele>
        <time>2021-03-13T12:07:36Z</time>
      </trkpt>
      <trkpt lat="42.85029" lon="0.90607">
        <ele>1514.114</ele>
        <time>2021-03-13T12:07:38Z</time>
      </trkpt>
      <trkpt lat="42.85029" lon="0.90607">
        <ele>1514.1</ele>
        <time>2021-03-13T12:07:40Z</time>
      </trkpt>
      <trkpt lat="42.85029" lon="0.90607">
        <ele>1514.098</ele>
        <time>2021-03-13T12:07:42Z</time>
      </trkpt>
      <trkpt lat="42.85029" lon="0.90607">
        <ele>1514.094</ele>
        <time>2021-03-13T12:07:44Z</time>
      </trkpt>
      <trkpt lat="42.85029" lon="0.90607">
        <ele>1514.093</ele>
        <time>2021-03-13T12:07:46Z</time>
      </trkpt>
      <trkpt lat="42.85029" lon="0.90607">
        <ele>1513.951</ele>
        <time>2021-03-13T12:07:48Z</time>
      </trkpt>
      <trkpt lat="42.85029" lon="0.90607">
        <ele>1513.95</ele>
        <time>2021-03-13T12:07:50Z</time>
      </trkpt>
      <trkpt lat="42.85029" lon="0.90608">
        <ele>1514.143</ele>
        <time>2021-03-13T12:07:52Z</time>
      </trkpt>
      <trkpt lat="42.85029" lon="0.90608">
        <ele>1514.144</ele>
        <time>2021-03-13T12:07:54Z</time>
      </trkpt>
      <trkpt lat="42.85029" lon="0.90608">
        <ele>1514.141</ele>
        <time>2021-03-13T12:07:56Z</time>
      </trkpt>
      <trkpt lat="42.85029" lon="0.90608">
        <ele>1514.141</ele>
        <time>2021-03-13T12:07:58Z</time>
      </trkpt>
      <trkpt lat="42.85029" lon="0.90608">
        <ele>1514.147</ele>
        <time>2021-03-13T12:08:00Z</time>
      </trkpt>
      <trkpt lat="42.85029" lon="0.90608">
        <ele>1514.156</ele>
        <time>2021-03-13T12:08:02Z</time>
      </trkpt>
      <trkpt lat="42.85029" lon="0.90608">
        <ele>1514.163</ele>
        <time>2021-03-13T12:08:04Z</time>
      </trkpt>
      <trkpt lat="42.85029" lon="0.90608">
        <ele>1514.162</ele>
        <time>2021-03-13T12:08:06Z</time>
      </trkpt>
      <trkpt lat="42.85029" lon="0.90608">
        <ele>1514.164</ele>
        <time>2021-03-13T12:08:08Z</time>
      </trkpt>
      <trkpt lat="42.85029" lon="0.90608">
        <ele>1514.164</ele>
        <time>2021-03-13T12:08:10Z</time>
      </trkpt>
      <trkpt lat="42.85029" lon="0.90608">
        <ele>1514.162</ele>
        <time>2021-03-13T12:08:12Z</time>
      </trkpt>
      <trkpt lat="42.85029" lon="0.90608">
        <ele>1514.164</ele>
        <time>2021-03-13T12:08:14Z</time>
      </trkpt>
      <trkpt lat="42.85029" lon="0.90608">
        <ele>1514.165</ele>
        <time>2021-03-13T12:08:16Z</time>
      </trkpt>
      <trkpt lat="42.85029" lon="0.90608">
        <ele>1514.167</ele>
        <time>2021-03-13T12:08:18Z</time>
      </trkpt>
      <trkpt lat="42.85029" lon="0.90608">
        <ele>1514.17</ele>
        <time>2021-03-13T12:08:20Z</time>
      </trkpt>
      <trkpt lat="42.85028" lon="0.90608">
        <ele>1514.168</ele>
        <time>2021-03-13T12:08:22Z</time>
      </trkpt>
      <trkpt lat="42.85028" lon="0.90608">
        <ele>1514.168</ele>
        <time>2021-03-13T12:08:24Z</time>
      </trkpt>
      <trkpt lat="42.85028" lon="0.90608">
        <ele>1514.166</ele>
        <time>2021-03-13T12:08:26Z</time>
      </trkpt>
      <trkpt lat="42.85028" lon="0.90608">
        <ele>1513.786</ele>
        <time>2021-03-13T12:08:28Z</time>
      </trkpt>
      <trkpt lat="42.85028" lon="0.90608">
        <ele>1513.923</ele>
        <time>2021-03-13T12:08:30Z</time>
      </trkpt>
      <trkpt lat="42.85028" lon="0.90608">
        <ele>1513.924</ele>
        <time>2021-03-13T12:08:32Z</time>
      </trkpt>
      <trkpt lat="42.85028" lon="0.90608">
        <ele>1513.922</ele>
        <time>2021-03-13T12:08:34Z</time>
      </trkpt>
      <trkpt lat="42.85028" lon="0.90608">
        <ele>1513.922</ele>
        <time>2021-03-13T12:08:36Z</time>
      </trkpt>
      <trkpt lat="42.85028" lon="0.90608">
        <ele>1513.921</ele>
        <time>2021-03-13T12:08:38Z</time>
      </trkpt>
      <trkpt lat="42.85028" lon="0.90608">
        <ele>1513.923</ele>
        <time>2021-03-13T12:08:40Z</time>
      </trkpt>
      <trkpt lat="42.85028" lon="0.90608">
        <ele>1513.925</ele>
        <time>2021-03-13T12:08:42Z</time>
      </trkpt>
      <trkpt lat="42.85028" lon="0.90608">
        <ele>1513.928</ele>
        <time>2021-03-13T12:08:44Z</time>
      </trkpt>
      <trkpt lat="42.85028" lon="0.90608">
        <ele>1513.933</ele>
        <time>2021-03-13T12:08:46Z</time>
      </trkpt>
      <trkpt lat="42.85028" lon="0.90608">
        <ele>1513.924</ele>
        <time>2021-03-13T12:08:48Z</time>
      </trkpt>
      <trkpt lat="42.85028" lon="0.90608">
        <ele>1513.92</ele>
        <time>2021-03-13T12:08:50Z</time>
      </trkpt>
      <trkpt lat="42.85028" lon="0.90608">
        <ele>1513.92</ele>
        <time>2021-03-13T12:08:52Z</time>
      </trkpt>
      <trkpt lat="42.85028" lon="0.90608">
        <ele>1513.921</ele>
        <time>2021-03-13T12:08:54Z</time>
      </trkpt>
      <trkpt lat="42.85028" lon="0.90608">
        <ele>1513.92</ele>
        <time>2021-03-13T12:08:56Z</time>
      </trkpt>
      <trkpt lat="42.85028" lon="0.90608">
        <ele>1513.921</ele>
        <time>2021-03-13T12:08:58Z</time>
      </trkpt>
      <trkpt lat="42.85028" lon="0.90608">
        <ele>1513.917</ele>
        <time>2021-03-13T12:09:00Z</time>
      </trkpt>
      <trkpt lat="42.85028" lon="0.90608">
        <ele>1513.921</ele>
        <time>2021-03-13T12:09:02Z</time>
      </trkpt>
      <trkpt lat="42.85028" lon="0.90608">
        <ele>1513.925</ele>
        <time>2021-03-13T12:09:04Z</time>
      </trkpt>
      <trkpt lat="42.85028" lon="0.90608">
        <ele>1513.926</ele>
        <time>2021-03-13T12:09:06Z</time>
      </trkpt>
      <trkpt lat="42.85028" lon="0.90608">
        <ele>1513.931</ele>
        <time>2021-03-13T12:09:08Z</time>
      </trkpt>
      <trkpt lat="42.85028" lon="0.90608">
        <ele>1513.939</ele>
        <time>2021-03-13T12:09:10Z</time>
      </trkpt>
      <trkpt lat="42.85028" lon="0.90608">
        <ele>1513.942</ele>
        <time>2021-03-13T12:09:12Z</time>
      </trkpt>
      <trkpt lat="42.85028" lon="0.90608">
        <ele>1513.946</ele>
        <time>2021-03-13T12:09:14Z</time>
      </trkpt>
      <trkpt lat="42.85028" lon="0.90608">
        <ele>1513.953</ele>
        <time>2021-03-13T12:09:16Z</time>
      </trkpt>
      <trkpt lat="42.85028" lon="0.90608">
        <ele>1513.956</ele>
        <time>2021-03-13T12:09:18Z</time>
      </trkpt>
      <trkpt lat="42.85028" lon="0.90608">
        <ele>1513.959</ele>
        <time>2021-03-13T12:09:20Z</time>
      </trkpt>
      <trkpt lat="42.85028" lon="0.90608">
        <ele>1513.961</ele>
        <time>2021-03-13T12:09:22Z</time>
      </trkpt>
      <trkpt lat="42.85028" lon="0.90608">
        <ele>1513.963</ele>
        <time>2021-03-13T12:09:24Z</time>
      </trkpt>
      <trkpt lat="42.85028" lon="0.90608">
        <ele>1513.965</ele>
        <time>2021-03-13T12:09:26Z</time>
      </trkpt>
      <trkpt lat="42.85028" lon="0.90608">
        <ele>1513.965</ele>
        <time>2021-03-13T12:09:28Z</time>
      </trkpt>
      <trkpt lat="42.85028" lon="0.90608">
        <ele>1513.967</ele>
        <time>2021-03-13T12:09:30Z</time>
      </trkpt>
      <trkpt lat="42.85028" lon="0.90608">
        <ele>1513.964</ele>
        <time>2021-03-13T12:09:32Z</time>
      </trkpt>
      <trkpt lat="42.85028" lon="0.90608">
        <ele>1513.971</ele>
        <time>2021-03-13T12:09:34Z</time>
      </trkpt>
      <trkpt lat="42.85028" lon="0.90608">
        <ele>1513.97</ele>
        <time>2021-03-13T12:09:36Z</time>
      </trkpt>
      <trkpt lat="42.85028" lon="0.90608">
        <ele>1513.972</ele>
        <time>2021-03-13T12:09:38Z</time>
      </trkpt>
      <trkpt lat="42.85028" lon="0.90608">
        <ele>1513.976</ele>
        <time>2021-03-13T12:09:40Z</time>
      </trkpt>
      <trkpt lat="42.85028" lon="0.90608">
        <ele>1513.978</ele>
        <time>2021-03-13T12:09:42Z</time>
      </trkpt>
      <trkpt lat="42.85028" lon="0.90608">
        <ele>1513.98</ele>
        <time>2021-03-13T12:09:44Z</time>
      </trkpt>
      <trkpt lat="42.85028" lon="0.90608">
        <ele>1513.987</ele>
        <time>2021-03-13T12:09:46Z</time>
      </trkpt>
      <trkpt lat="42.85028" lon="0.90608">
        <ele>1513.991</ele>
        <time>2021-03-13T12:09:48Z</time>
      </trkpt>
      <trkpt lat="42.85028" lon="0.90608">
        <ele>1513.996</ele>
        <time>2021-03-13T12:09:50Z</time>
      </trkpt>
      <trkpt lat="42.85028" lon="0.90608">
        <ele>1513.995</ele>
        <time>2021-03-13T12:09:52Z</time>
      </trkpt>
      <trkpt lat="42.85028" lon="0.90608">
        <ele>1513.993</ele>
        <time>2021-03-13T12:09:54Z</time>
      </trkpt>
      <trkpt lat="42.85028" lon="0.90608">
        <ele>1513.994</ele>
        <time>2021-03-13T12:09:56Z</time>
      </trkpt>
      <trkpt lat="42.85028" lon="0.90608">
        <ele>1513.995</ele>
        <time>2021-03-13T12:09:58Z</time>
      </trkpt>
      <trkpt lat="42.85028" lon="0.90608">
        <ele>1513.999</ele>
        <time>2021-03-13T12:10:00Z</time>
      </trkpt>
      <trkpt lat="42.85028" lon="0.90608">
        <ele>1514.004</ele>
        <time>2021-03-13T12:10:02Z</time>
      </trkpt>
      <trkpt lat="42.85028" lon="0.90608">
        <ele>1514.001</ele>
        <time>2021-03-13T12:10:04Z</time>
      </trkpt>
      <trkpt lat="42.85028" lon="0.90608">
        <ele>1513.998</ele>
        <time>2021-03-13T12:10:06Z</time>
      </trkpt>
      <trkpt lat="42.85028" lon="0.90608">
        <ele>1513.998</ele>
        <time>2021-03-13T12:10:08Z</time>
      </trkpt>
      <trkpt lat="42.85028" lon="0.90608">
        <ele>1514.002</ele>
        <time>2021-03-13T12:10:10Z</time>
      </trkpt>
      <trkpt lat="42.85028" lon="0.90608">
        <ele>1514.006</ele>
        <time>2021-03-13T12:10:12Z</time>
      </trkpt>
      <trkpt lat="42.85028" lon="0.90608">
        <ele>1514.004</ele>
        <time>2021-03-13T12:10:14Z</time>
      </trkpt>
      <trkpt lat="42.85028" lon="0.90608">
        <ele>1514.004</ele>
        <time>2021-03-13T12:10:16Z</time>
      </trkpt>
      <trkpt lat="42.85028" lon="0.90608">
        <ele>1514.005</ele>
        <time>2021-03-13T12:10:18Z</time>
      </trkpt>
      <trkpt lat="42.85028" lon="0.90608">
        <ele>1514.009</ele>
        <time>2021-03-13T12:10:20Z</time>
      </trkpt>
      <trkpt lat="42.85028" lon="0.90608">
        <ele>1514.01</ele>
        <time>2021-03-13T12:10:22Z</time>
      </trkpt>
      <trkpt lat="42.85028" lon="0.90608">
        <ele>1514.007</ele>
        <time>2021-03-13T12:10:24Z</time>
      </trkpt>
      <trkpt lat="42.85028" lon="0.90608">
        <ele>1514.003</ele>
        <time>2021-03-13T12:10:26Z</time>
      </trkpt>
      <trkpt lat="42.85028" lon="0.90608">
        <ele>1514.001</ele>
        <time>2021-03-13T12:10:28Z</time>
      </trkpt>
      <trkpt lat="42.85028" lon="0.90608">
        <ele>1514.002</ele>
        <time>2021-03-13T12:10:30Z</time>
      </trkpt>
      <trkpt lat="42.85028" lon="0.90608">
        <ele>1514.006</ele>
        <time>2021-03-13T12:10:32Z</time>
      </trkpt>
      <trkpt lat="42.85028" lon="0.90608">
        <ele>1514.01</ele>
        <time>2021-03-13T12:10:34Z</time>
      </trkpt>
      <trkpt lat="42.85028" lon="0.90608">
        <ele>1514.012</ele>
        <time>2021-03-13T12:10:36Z</time>
      </trkpt>
      <trkpt lat="42.85028" lon="0.90608">
        <ele>1514.014</ele>
        <time>2021-03-13T12:10:38Z</time>
      </trkpt>
      <trkpt lat="42.85028" lon="0.90608">
        <ele>1514.015</ele>
        <time>2021-03-13T12:10:40Z</time>
      </trkpt>
      <trkpt lat="42.85028" lon="0.90608">
        <ele>1514.017</ele>
        <time>2021-03-13T12:10:42Z</time>
      </trkpt>
      <trkpt lat="42.85028" lon="0.90608">
        <ele>1514.018</ele>
        <time>2021-03-13T12:10:44Z</time>
      </trkpt>
      <trkpt lat="42.85028" lon="0.90608">
        <ele>1514.02</ele>
        <time>2021-03-13T12:10:46Z</time>
      </trkpt>
      <trkpt lat="42.85028" lon="0.90608">
        <ele>1514.021</ele>
        <time>2021-03-13T12:10:48Z</time>
      </trkpt>
      <trkpt lat="42.85028" lon="0.90608">
        <ele>1514.022</ele>
        <time>2021-03-13T12:10:50Z</time>
      </trkpt>
      <trkpt lat="42.85028" lon="0.90608">
        <ele>1514.028</ele>
        <time>2021-03-13T12:10:52Z</time>
      </trkpt>
      <trkpt lat="42.85028" lon="0.90608">
        <ele>1514.033</ele>
        <time>2021-03-13T12:10:54Z</time>
      </trkpt>
      <trkpt lat="42.85028" lon="0.90608">
        <ele>1514.036</ele>
        <time>2021-03-13T12:10:56Z</time>
      </trkpt>
      <trkpt lat="42.85028" lon="0.90608">
        <ele>1514.036</ele>
        <time>2021-03-13T12:10:58Z</time>
      </trkpt>
      <trkpt lat="42.85028" lon="0.90608">
        <ele>1514.038</ele>
        <time>2021-03-13T12:11:00Z</time>
      </trkpt>
      <trkpt lat="42.85028" lon="0.90608">
        <ele>1514.041</ele>
        <time>2021-03-13T12:11:02Z</time>
      </trkpt>
      <trkpt lat="42.85028" lon="0.90608">
        <ele>1514.044</ele>
        <time>2021-03-13T12:11:04Z</time>
      </trkpt>
      <trkpt lat="42.85028" lon="0.90608">
        <ele>1514.046</ele>
        <time>2021-03-13T12:11:06Z</time>
      </trkpt>
      <trkpt lat="42.85028" lon="0.90608">
        <ele>1514.045</ele>
        <time>2021-03-13T12:11:08Z</time>
      </trkpt>
      <trkpt lat="42.85028" lon="0.90608">
        <ele>1514.043</ele>
        <time>2021-03-13T12:11:10Z</time>
      </trkpt>
      <trkpt lat="42.85028" lon="0.90608">
        <ele>1514.043</ele>
        <time>2021-03-13T12:11:12Z</time>
      </trkpt>
      <trkpt lat="42.85028" lon="0.90608">
        <ele>1514.046</ele>
        <time>2021-03-13T12:11:14Z</time>
      </trkpt>
      <trkpt lat="42.85028" lon="0.90608">
        <ele>1514.054</ele>
        <time>2021-03-13T12:11:16Z</time>
      </trkpt>
      <trkpt lat="42.85028" lon="0.90608">
        <ele>1514.055</ele>
        <time>2021-03-13T12:11:18Z</time>
      </trkpt>
      <trkpt lat="42.85028" lon="0.90608">
        <ele>1514.055</ele>
        <time>2021-03-13T12:11:20Z</time>
      </trkpt>
      <trkpt lat="42.85028" lon="0.90608">
        <ele>1514.064</ele>
        <time>2021-03-13T12:11:22Z</time>
      </trkpt>
      <trkpt lat="42.85028" lon="0.90608">
        <ele>1514.072</ele>
        <time>2021-03-13T12:11:24Z</time>
      </trkpt>
      <trkpt lat="42.85028" lon="0.90608">
        <ele>1514.079</ele>
        <time>2021-03-13T12:11:26Z</time>
      </trkpt>
      <trkpt lat="42.85028" lon="0.90608">
        <ele>1514.077</ele>
        <time>2021-03-13T12:11:28Z</time>
      </trkpt>
      <trkpt lat="42.85028" lon="0.90608">
        <ele>1514.084</ele>
        <time>2021-03-13T12:11:30Z</time>
      </trkpt>
      <trkpt lat="42.85028" lon="0.90608">
        <ele>1514.083</ele>
        <time>2021-03-13T12:11:32Z</time>
      </trkpt>
      <trkpt lat="42.85028" lon="0.90608">
        <ele>1514.088</ele>
        <time>2021-03-13T12:11:34Z</time>
      </trkpt>
      <trkpt lat="42.85028" lon="0.90608">
        <ele>1514.091</ele>
        <time>2021-03-13T12:11:36Z</time>
      </trkpt>
      <trkpt lat="42.85028" lon="0.90608">
        <ele>1514.097</ele>
        <time>2021-03-13T12:11:38Z</time>
      </trkpt>
      <trkpt lat="42.85028" lon="0.90608">
        <ele>1514.103</ele>
        <time>2021-03-13T12:11:40Z</time>
      </trkpt>
      <trkpt lat="42.85028" lon="0.90608">
        <ele>1514.104</ele>
        <time>2021-03-13T12:11:42Z</time>
      </trkpt>
      <trkpt lat="42.85028" lon="0.90608">
        <ele>1514.103</ele>
        <time>2021-03-13T12:11:44Z</time>
      </trkpt>
      <trkpt lat="42.85028" lon="0.90608">
        <ele>1514.098</ele>
        <time>2021-03-13T12:11:46Z</time>
      </trkpt>
      <trkpt lat="42.85028" lon="0.90608">
        <ele>1514.099</ele>
        <time>2021-03-13T12:11:48Z</time>
      </trkpt>
      <trkpt lat="42.85028" lon="0.90608">
        <ele>1514.104</ele>
        <time>2021-03-13T12:11:50Z</time>
      </trkpt>
      <trkpt lat="42.85028" lon="0.90608">
        <ele>1514.108</ele>
        <time>2021-03-13T12:11:52Z</time>
      </trkpt>
      <trkpt lat="42.85028" lon="0.90608">
        <ele>1514.104</ele>
        <time>2021-03-13T12:11:54Z</time>
      </trkpt>
      <trkpt lat="42.85028" lon="0.90608">
        <ele>1514.099</ele>
        <time>2021-03-13T12:11:56Z</time>
      </trkpt>
      <trkpt lat="42.85028" lon="0.90608">
        <ele>1514.099</ele>
        <time>2021-03-13T12:11:58Z</time>
      </trkpt>
      <trkpt lat="42.85028" lon="0.90608">
        <ele>1514.099</ele>
        <time>2021-03-13T12:12:00Z</time>
      </trkpt>
      <trkpt lat="42.85028" lon="0.90608">
        <ele>1514.096</ele>
        <time>2021-03-13T12:12:02Z</time>
      </trkpt>
      <trkpt lat="42.85028" lon="0.90608">
        <ele>1514.09</ele>
        <time>2021-03-13T12:12:04Z</time>
      </trkpt>
      <trkpt lat="42.85028" lon="0.90608">
        <ele>1514.09</ele>
        <time>2021-03-13T12:12:06Z</time>
      </trkpt>
      <trkpt lat="42.85028" lon="0.90608">
        <ele>1514.092</ele>
        <time>2021-03-13T12:12:08Z</time>
      </trkpt>
      <trkpt lat="42.85028" lon="0.90608">
        <ele>1514.097</ele>
        <time>2021-03-13T12:12:10Z</time>
      </trkpt>
      <trkpt lat="42.85028" lon="0.90608">
        <ele>1514.1</ele>
        <time>2021-03-13T12:12:12Z</time>
      </trkpt>
      <trkpt lat="42.85028" lon="0.90608">
        <ele>1514.098</ele>
        <time>2021-03-13T12:12:14Z</time>
      </trkpt>
      <trkpt lat="42.85028" lon="0.90608">
        <ele>1514.094</ele>
        <time>2021-03-13T12:12:16Z</time>
      </trkpt>
      <trkpt lat="42.85028" lon="0.90608">
        <ele>1514.09</ele>
        <time>2021-03-13T12:12:18Z</time>
      </trkpt>
      <trkpt lat="42.85028" lon="0.90608">
        <ele>1514.087</ele>
        <time>2021-03-13T12:12:20Z</time>
      </trkpt>
      <trkpt lat="42.85028" lon="0.90608">
        <ele>1514.085</ele>
        <time>2021-03-13T12:12:22Z</time>
      </trkpt>
      <trkpt lat="42.85028" lon="0.90608">
        <ele>1514.086</ele>
        <time>2021-03-13T12:12:24Z</time>
      </trkpt>
      <trkpt lat="42.85028" lon="0.90608">
        <ele>1514.089</ele>
        <time>2021-03-13T12:12:26Z</time>
      </trkpt>
      <trkpt lat="42.85028" lon="0.90608">
        <ele>1514.093</ele>
        <time>2021-03-13T12:12:28Z</time>
      </trkpt>
      <trkpt lat="42.85028" lon="0.90608">
        <ele>1514.094</ele>
        <time>2021-03-13T12:12:30Z</time>
      </trkpt>
      <trkpt lat="42.85028" lon="0.90608">
        <ele>1514.096</ele>
        <time>2021-03-13T12:12:32Z</time>
      </trkpt>
      <trkpt lat="42.85028" lon="0.90608">
        <ele>1514.098</ele>
        <time>2021-03-13T12:12:34Z</time>
      </trkpt>
      <trkpt lat="42.85028" lon="0.90608">
        <ele>1514.102</ele>
        <time>2021-03-13T12:12:36Z</time>
      </trkpt>
      <trkpt lat="42.85028" lon="0.90608">
        <ele>1514.107</ele>
        <time>2021-03-13T12:12:38Z</time>
      </trkpt>
      <trkpt lat="42.85028" lon="0.90608">
        <ele>1514.115</ele>
        <time>2021-03-13T12:12:40Z</time>
      </trkpt>
      <trkpt lat="42.85028" lon="0.90608">
        <ele>1514.119</ele>
        <time>2021-03-13T12:12:42Z</time>
      </trkpt>
      <trkpt lat="42.85028" lon="0.90608">
        <ele>1514.118</ele>
        <time>2021-03-13T12:12:44Z</time>
      </trkpt>
      <trkpt lat="42.85028" lon="0.90608">
        <ele>1514.115</ele>
        <time>2021-03-13T12:12:46Z</time>
      </trkpt>
      <trkpt lat="42.85028" lon="0.90608">
        <ele>1514.111</ele>
        <time>2021-03-13T12:12:48Z</time>
      </trkpt>
      <trkpt lat="42.85028" lon="0.90608">
        <ele>1514.109</ele>
        <time>2021-03-13T12:12:50Z</time>
      </trkpt>
      <trkpt lat="42.85028" lon="0.90608">
        <ele>1514.111</ele>
        <time>2021-03-13T12:12:52Z</time>
      </trkpt>
      <trkpt lat="42.85028" lon="0.90608">
        <ele>1514.116</ele>
        <time>2021-03-13T12:12:54Z</time>
      </trkpt>
      <trkpt lat="42.85028" lon="0.90608">
        <ele>1514.116</ele>
        <time>2021-03-13T12:12:56Z</time>
      </trkpt>
      <trkpt lat="42.85028" lon="0.90608">
        <ele>1514.117</ele>
        <time>2021-03-13T12:12:58Z</time>
      </trkpt>
      <trkpt lat="42.85028" lon="0.90608">
        <ele>1514.119</ele>
        <time>2021-03-13T12:13:00Z</time>
      </trkpt>
      <trkpt lat="42.85028" lon="0.90608">
        <ele>1514.119</ele>
        <time>2021-03-13T12:13:02Z</time>
      </trkpt>
      <trkpt lat="42.85028" lon="0.90608">
        <ele>1514.123</ele>
        <time>2021-03-13T12:13:04Z</time>
      </trkpt>
      <trkpt lat="42.85028" lon="0.90608">
        <ele>1514.121</ele>
        <time>2021-03-13T12:13:06Z</time>
      </trkpt>
      <trkpt lat="42.85028" lon="0.90608">
        <ele>1514.12</ele>
        <time>2021-03-13T12:13:08Z</time>
      </trkpt>
      <trkpt lat="42.85028" lon="0.90608">
        <ele>1514.124</ele>
        <time>2021-03-13T12:13:10Z</time>
      </trkpt>
      <trkpt lat="42.85028" lon="0.90608">
        <ele>1514.119</ele>
        <time>2021-03-13T12:13:12Z</time>
      </trkpt>
      <trkpt lat="42.85028" lon="0.90608">
        <ele>1514.117</ele>
        <time>2021-03-13T12:13:14Z</time>
      </trkpt>
      <trkpt lat="42.85028" lon="0.90608">
        <ele>1514.121</ele>
        <time>2021-03-13T12:13:16Z</time>
      </trkpt>
      <trkpt lat="42.85028" lon="0.90608">
        <ele>1514.126</ele>
        <time>2021-03-13T12:13:18Z</time>
      </trkpt>
      <trkpt lat="42.85028" lon="0.90608">
        <ele>1514.131</ele>
        <time>2021-03-13T12:13:20Z</time>
      </trkpt>
      <trkpt lat="42.85028" lon="0.90608">
        <ele>1514.135</ele>
        <time>2021-03-13T12:13:22Z</time>
      </trkpt>
      <trkpt lat="42.85028" lon="0.90608">
        <ele>1514.134</ele>
        <time>2021-03-13T12:13:24Z</time>
      </trkpt>
      <trkpt lat="42.85028" lon="0.90608">
        <ele>1514.128</ele>
        <time>2021-03-13T12:13:26Z</time>
      </trkpt>
      <trkpt lat="42.85028" lon="0.90608">
        <ele>1514.121</ele>
        <time>2021-03-13T12:13:28Z</time>
      </trkpt>
      <trkpt lat="42.85028" lon="0.90608">
        <ele>1514.123</ele>
        <time>2021-03-13T12:13:30Z</time>
      </trkpt>
      <trkpt lat="42.85028" lon="0.90608">
        <ele>1514.129</ele>
        <time>2021-03-13T12:13:32Z</time>
      </trkpt>
      <trkpt lat="42.85028" lon="0.90608">
        <ele>1514.137</ele>
        <time>2021-03-13T12:13:34Z</time>
      </trkpt>
      <trkpt lat="42.85028" lon="0.90608">
        <ele>1514.14</ele>
        <time>2021-03-13T12:13:36Z</time>
      </trkpt>
      <trkpt lat="42.85028" lon="0.90608">
        <ele>1514.141</ele>
        <time>2021-03-13T12:13:38Z</time>
      </trkpt>
      <trkpt lat="42.85028" lon="0.90608">
        <ele>1514.135</ele>
        <time>2021-03-13T12:13:40Z</time>
      </trkpt>
      <trkpt lat="42.85028" lon="0.90608">
        <ele>1514.138</ele>
        <time>2021-03-13T12:13:42Z</time>
      </trkpt>
      <trkpt lat="42.85028" lon="0.90608">
        <ele>1514.148</ele>
        <time>2021-03-13T12:13:44Z</time>
      </trkpt>
      <trkpt lat="42.85028" lon="0.90608">
        <ele>1514.156</ele>
        <time>2021-03-13T12:13:46Z</time>
      </trkpt>
      <trkpt lat="42.85028" lon="0.90608">
        <ele>1514.161</ele>
        <time>2021-03-13T12:13:48Z</time>
      </trkpt>
      <trkpt lat="42.85028" lon="0.90608">
        <ele>1514.163</ele>
        <time>2021-03-13T12:13:50Z</time>
      </trkpt>
      <trkpt lat="42.85028" lon="0.90608">
        <ele>1514.171</ele>
        <time>2021-03-13T12:13:52Z</time>
      </trkpt>
      <trkpt lat="42.85028" lon="0.90608">
        <ele>1514.178</ele>
        <time>2021-03-13T12:13:54Z</time>
      </trkpt>
      <trkpt lat="42.85028" lon="0.90608">
        <ele>1514.179</ele>
        <time>2021-03-13T12:13:56Z</time>
      </trkpt>
      <trkpt lat="42.85028" lon="0.90608">
        <ele>1514.177</ele>
        <time>2021-03-13T12:13:58Z</time>
      </trkpt>
      <trkpt lat="42.85028" lon="0.90608">
        <ele>1514.176</ele>
        <time>2021-03-13T12:14:00Z</time>
      </trkpt>
      <trkpt lat="42.85028" lon="0.90608">
        <ele>1514.179</ele>
        <time>2021-03-13T12:14:02Z</time>
      </trkpt>
      <trkpt lat="42.85028" lon="0.90608">
        <ele>1514.18</ele>
        <time>2021-03-13T12:14:04Z</time>
      </trkpt>
      <trkpt lat="42.85028" lon="0.90608">
        <ele>1514.183</ele>
        <time>2021-03-13T12:14:06Z</time>
      </trkpt>
      <trkpt lat="42.85028" lon="0.90608">
        <ele>1514.183</ele>
        <time>2021-03-13T12:14:08Z</time>
      </trkpt>
      <trkpt lat="42.85028" lon="0.90608">
        <ele>1514.187</ele>
        <time>2021-03-13T12:14:10Z</time>
      </trkpt>
      <trkpt lat="42.85028" lon="0.90608">
        <ele>1514.194</ele>
        <time>2021-03-13T12:14:12Z</time>
      </trkpt>
      <trkpt lat="42.85028" lon="0.90608">
        <ele>1514.2</ele>
        <time>2021-03-13T12:14:14Z</time>
      </trkpt>
      <trkpt lat="42.85028" lon="0.90608">
        <ele>1514.206</ele>
        <time>2021-03-13T12:14:16Z</time>
      </trkpt>
      <trkpt lat="42.85028" lon="0.90608">
        <ele>1514.206</ele>
        <time>2021-03-13T12:14:18Z</time>
      </trkpt>
      <trkpt lat="42.85028" lon="0.90608">
        <ele>1514.202</ele>
        <time>2021-03-13T12:14:20Z</time>
      </trkpt>
      <trkpt lat="42.85028" lon="0.90608">
        <ele>1514.201</ele>
        <time>2021-03-13T12:14:22Z</time>
      </trkpt>
      <trkpt lat="42.85028" lon="0.90608">
        <ele>1514.21</ele>
        <time>2021-03-13T12:14:24Z</time>
      </trkpt>
      <trkpt lat="42.85028" lon="0.90608">
        <ele>1514.215</ele>
        <time>2021-03-13T12:14:26Z</time>
      </trkpt>
      <trkpt lat="42.85028" lon="0.90608">
        <ele>1514.221</ele>
        <time>2021-03-13T12:14:28Z</time>
      </trkpt>
      <trkpt lat="42.85028" lon="0.90608">
        <ele>1514.22</ele>
        <time>2021-03-13T12:14:30Z</time>
      </trkpt>
      <trkpt lat="42.85028" lon="0.90608">
        <ele>1514.226</ele>
        <time>2021-03-13T12:14:32Z</time>
      </trkpt>
      <trkpt lat="42.85028" lon="0.90608">
        <ele>1514.224</ele>
        <time>2021-03-13T12:14:34Z</time>
      </trkpt>
      <trkpt lat="42.85028" lon="0.90608">
        <ele>1514.227</ele>
        <time>2021-03-13T12:14:36Z</time>
      </trkpt>
      <trkpt lat="42.85028" lon="0.90608">
        <ele>1514.231</ele>
        <time>2021-03-13T12:14:38Z</time>
      </trkpt>
      <trkpt lat="42.85028" lon="0.90608">
        <ele>1514.239</ele>
        <time>2021-03-13T12:14:40Z</time>
      </trkpt>
      <trkpt lat="42.85028" lon="0.90608">
        <ele>1514.243</ele>
        <time>2021-03-13T12:14:42Z</time>
      </trkpt>
      <trkpt lat="42.85028" lon="0.90608">
        <ele>1514.242</ele>
        <time>2021-03-13T12:14:44Z</time>
      </trkpt>
      <trkpt lat="42.85028" lon="0.90608">
        <ele>1514.238</ele>
        <time>2021-03-13T12:14:46Z</time>
      </trkpt>
      <trkpt lat="42.85028" lon="0.90608">
        <ele>1514.242</ele>
        <time>2021-03-13T12:14:48Z</time>
      </trkpt>
      <trkpt lat="42.85028" lon="0.90608">
        <ele>1514.239</ele>
        <time>2021-03-13T12:14:50Z</time>
      </trkpt>
      <trkpt lat="42.85028" lon="0.90608">
        <ele>1514.237</ele>
        <time>2021-03-13T12:14:52Z</time>
      </trkpt>
      <trkpt lat="42.85028" lon="0.90608">
        <ele>1514.234</ele>
        <time>2021-03-13T12:14:54Z</time>
      </trkpt>
      <trkpt lat="42.85028" lon="0.90608">
        <ele>1514.235</ele>
        <time>2021-03-13T12:14:56Z</time>
      </trkpt>
      <trkpt lat="42.85028" lon="0.90608">
        <ele>1514.238</ele>
        <time>2021-03-13T12:14:58Z</time>
      </trkpt>
      <trkpt lat="42.85028" lon="0.90608">
        <ele>1514.248</ele>
        <time>2021-03-13T12:15:00Z</time>
      </trkpt>
      <trkpt lat="42.85028" lon="0.90608">
        <ele>1514.249</ele>
        <time>2021-03-13T12:15:02Z</time>
      </trkpt>
      <trkpt lat="42.85028" lon="0.90608">
        <ele>1514.249</ele>
        <time>2021-03-13T12:15:04Z</time>
      </trkpt>
      <trkpt lat="42.85028" lon="0.90608">
        <ele>1514.25</ele>
        <time>2021-03-13T12:15:06Z</time>
      </trkpt>
      <trkpt lat="42.85028" lon="0.90608">
        <ele>1514.253</ele>
        <time>2021-03-13T12:15:08Z</time>
      </trkpt>
      <trkpt lat="42.85028" lon="0.90608">
        <ele>1514.257</ele>
        <time>2021-03-13T12:15:10Z</time>
      </trkpt>
      <trkpt lat="42.85028" lon="0.90608">
        <ele>1514.265</ele>
        <time>2021-03-13T12:15:12Z</time>
      </trkpt>
      <trkpt lat="42.85028" lon="0.90608">
        <ele>1514.264</ele>
        <time>2021-03-13T12:15:14Z</time>
      </trkpt>
      <trkpt lat="42.85028" lon="0.90608">
        <ele>1514.262</ele>
        <time>2021-03-13T12:15:16Z</time>
      </trkpt>
      <trkpt lat="42.85028" lon="0.90608">
        <ele>1514.251</ele>
        <time>2021-03-13T12:15:18Z</time>
      </trkpt>
      <trkpt lat="42.85028" lon="0.90608">
        <ele>1514.248</ele>
        <time>2021-03-13T12:15:20Z</time>
      </trkpt>
      <trkpt lat="42.85028" lon="0.90608">
        <ele>1514.254</ele>
        <time>2021-03-13T12:15:22Z</time>
      </trkpt>
      <trkpt lat="42.85028" lon="0.90608">
        <ele>1514.256</ele>
        <time>2021-03-13T12:15:24Z</time>
      </trkpt>
      <trkpt lat="42.85027" lon="0.90608">
        <ele>1514.254</ele>
        <time>2021-03-13T12:15:26Z</time>
      </trkpt>
      <trkpt lat="42.85027" lon="0.90608">
        <ele>1514.254</ele>
        <time>2021-03-13T12:15:28Z</time>
      </trkpt>
      <trkpt lat="42.85027" lon="0.90608">
        <ele>1514.252</ele>
        <time>2021-03-13T12:15:30Z</time>
      </trkpt>
      <trkpt lat="42.85027" lon="0.90608">
        <ele>1514.249</ele>
        <time>2021-03-13T12:15:32Z</time>
      </trkpt>
      <trkpt lat="42.85027" lon="0.90608">
        <ele>1514.249</ele>
        <time>2021-03-13T12:15:34Z</time>
      </trkpt>
      <trkpt lat="42.85027" lon="0.90608">
        <ele>1514.251</ele>
        <time>2021-03-13T12:15:36Z</time>
      </trkpt>
      <trkpt lat="42.85027" lon="0.90608">
        <ele>1514.252</ele>
        <time>2021-03-13T12:15:38Z</time>
      </trkpt>
      <trkpt lat="42.85027" lon="0.90608">
        <ele>1514.25</ele>
        <time>2021-03-13T12:15:40Z</time>
      </trkpt>
      <trkpt lat="42.85027" lon="0.90608">
        <ele>1514.25</ele>
        <time>2021-03-13T12:15:42Z</time>
      </trkpt>
      <trkpt lat="42.85027" lon="0.90608">
        <ele>1514.245</ele>
        <time>2021-03-13T12:15:44Z</time>
      </trkpt>
      <trkpt lat="42.85027" lon="0.90608">
        <ele>1514.245</ele>
        <time>2021-03-13T12:15:46Z</time>
      </trkpt>
      <trkpt lat="42.85027" lon="0.90608">
        <ele>1514.245</ele>
        <time>2021-03-13T12:15:48Z</time>
      </trkpt>
      <trkpt lat="42.85027" lon="0.90608">
        <ele>1514.247</ele>
        <time>2021-03-13T12:15:50Z</time>
      </trkpt>
      <trkpt lat="42.85027" lon="0.90608">
        <ele>1514.246</ele>
        <time>2021-03-13T12:15:52Z</time>
      </trkpt>
      <trkpt lat="42.85027" lon="0.90608">
        <ele>1514.249</ele>
        <time>2021-03-13T12:15:54Z</time>
      </trkpt>
      <trkpt lat="42.85027" lon="0.90608">
        <ele>1514.248</ele>
        <time>2021-03-13T12:15:56Z</time>
      </trkpt>
      <trkpt lat="42.85027" lon="0.90608">
        <ele>1514.244</ele>
        <time>2021-03-13T12:15:58Z</time>
      </trkpt>
      <trkpt lat="42.85027" lon="0.90608">
        <ele>1514.238</ele>
        <time>2021-03-13T12:16:00Z</time>
      </trkpt>
      <trkpt lat="42.85027" lon="0.90608">
        <ele>1514.238</ele>
        <time>2021-03-13T12:16:02Z</time>
      </trkpt>
      <trkpt lat="42.85027" lon="0.90608">
        <ele>1514.244</ele>
        <time>2021-03-13T12:16:04Z</time>
      </trkpt>
      <trkpt lat="42.85027" lon="0.90608">
        <ele>1514.251</ele>
        <time>2021-03-13T12:16:06Z</time>
      </trkpt>
      <trkpt lat="42.85027" lon="0.90608">
        <ele>1514.259</ele>
        <time>2021-03-13T12:16:08Z</time>
      </trkpt>
      <trkpt lat="42.85027" lon="0.90608">
        <ele>1514.263</ele>
        <time>2021-03-13T12:16:10Z</time>
      </trkpt>
      <trkpt lat="42.85027" lon="0.90608">
        <ele>1514.958</ele>
        <time>2021-03-13T12:16:12Z</time>
      </trkpt>
      <trkpt lat="42.85027" lon="0.90608">
        <ele>1514.934</ele>
        <time>2021-03-13T12:16:14Z</time>
      </trkpt>
      <trkpt lat="42.85027" lon="0.90608">
        <ele>1514.823</ele>
        <time>2021-03-13T12:16:16Z</time>
      </trkpt>
      <trkpt lat="42.85027" lon="0.90608">
        <ele>1514.821</ele>
        <time>2021-03-13T12:16:18Z</time>
      </trkpt>
      <trkpt lat="42.85027" lon="0.90608">
        <ele>1514.82</ele>
        <time>2021-03-13T12:16:20Z</time>
      </trkpt>
      <trkpt lat="42.85027" lon="0.90608">
        <ele>1514.82</ele>
        <time>2021-03-13T12:16:22Z</time>
      </trkpt>
      <trkpt lat="42.85027" lon="0.90608">
        <ele>1514.822</ele>
        <time>2021-03-13T12:16:24Z</time>
      </trkpt>
      <trkpt lat="42.85027" lon="0.90608">
        <ele>1514.822</ele>
        <time>2021-03-13T12:16:26Z</time>
      </trkpt>
      <trkpt lat="42.85027" lon="0.90608">
        <ele>1514.818</ele>
        <time>2021-03-13T12:16:28Z</time>
      </trkpt>
      <trkpt lat="42.85027" lon="0.90608">
        <ele>1514.819</ele>
        <time>2021-03-13T12:16:30Z</time>
      </trkpt>
      <trkpt lat="42.85027" lon="0.90608">
        <ele>1514.818</ele>
        <time>2021-03-13T12:16:32Z</time>
      </trkpt>
      <trkpt lat="42.85027" lon="0.90608">
        <ele>1514.819</ele>
        <time>2021-03-13T12:16:34Z</time>
      </trkpt>
      <trkpt lat="42.85027" lon="0.90608">
        <ele>1514.816</ele>
        <time>2021-03-13T12:16:36Z</time>
      </trkpt>
      <trkpt lat="42.85027" lon="0.90608">
        <ele>1514.815</ele>
        <time>2021-03-13T12:16:38Z</time>
      </trkpt>
      <trkpt lat="42.85027" lon="0.90608">
        <ele>1514.815</ele>
        <time>2021-03-13T12:16:40Z</time>
      </trkpt>
      <trkpt lat="42.85027" lon="0.90608">
        <ele>1514.814</ele>
        <time>2021-03-13T12:16:42Z</time>
      </trkpt>
      <trkpt lat="42.85027" lon="0.90608">
        <ele>1514.811</ele>
        <time>2021-03-13T12:16:44Z</time>
      </trkpt>
      <trkpt lat="42.85027" lon="0.90608">
        <ele>1514.812</ele>
        <time>2021-03-13T12:16:46Z</time>
      </trkpt>
      <trkpt lat="42.85027" lon="0.90608">
        <ele>1514.812</ele>
        <time>2021-03-13T12:16:48Z</time>
      </trkpt>
      <trkpt lat="42.85028" lon="0.90608">
        <ele>1514.877</ele>
        <time>2021-03-13T12:16:50Z</time>
      </trkpt>
      <trkpt lat="42.85028" lon="0.90608">
        <ele>1514.878</ele>
        <time>2021-03-13T12:16:52Z</time>
      </trkpt>
      <trkpt lat="42.85028" lon="0.90608">
        <ele>1514.872</ele>
        <time>2021-03-13T12:16:54Z</time>
      </trkpt>
      <trkpt lat="42.85028" lon="0.90608">
        <ele>1515.067</ele>
        <time>2021-03-13T12:16:56Z</time>
      </trkpt>
      <trkpt lat="42.85028" lon="0.90607">
        <ele>1514.961</ele>
        <time>2021-03-13T12:16:58Z</time>
      </trkpt>
      <trkpt lat="42.85028" lon="0.90607">
        <ele>1514.962</ele>
        <time>2021-03-13T12:17:00Z</time>
      </trkpt>
      <trkpt lat="42.85028" lon="0.90607">
        <ele>1514.961</ele>
        <time>2021-03-13T12:17:02Z</time>
      </trkpt>
      <trkpt lat="42.85028" lon="0.90607">
        <ele>1514.961</ele>
        <time>2021-03-13T12:17:04Z</time>
      </trkpt>
      <trkpt lat="42.85028" lon="0.90607">
        <ele>1514.958</ele>
        <time>2021-03-13T12:17:06Z</time>
      </trkpt>
      <trkpt lat="42.85028" lon="0.90607">
        <ele>1514.958</ele>
        <time>2021-03-13T12:17:08Z</time>
      </trkpt>
      <trkpt lat="42.85028" lon="0.90607">
        <ele>1514.962</ele>
        <time>2021-03-13T12:17:10Z</time>
      </trkpt>
      <trkpt lat="42.85028" lon="0.90607">
        <ele>1514.96</ele>
        <time>2021-03-13T12:17:12Z</time>
      </trkpt>
      <trkpt lat="42.85028" lon="0.90607">
        <ele>1514.96</ele>
        <time>2021-03-13T12:17:14Z</time>
      </trkpt>
      <trkpt lat="42.85028" lon="0.90607">
        <ele>1514.961</ele>
        <time>2021-03-13T12:17:16Z</time>
      </trkpt>
      <trkpt lat="42.85028" lon="0.90607">
        <ele>1514.961</ele>
        <time>2021-03-13T12:17:18Z</time>
      </trkpt>
      <trkpt lat="42.85028" lon="0.90607">
        <ele>1514.96</ele>
        <time>2021-03-13T12:17:20Z</time>
      </trkpt>
      <trkpt lat="42.85028" lon="0.90607">
        <ele>1514.961</ele>
        <time>2021-03-13T12:17:22Z</time>
      </trkpt>
      <trkpt lat="42.85028" lon="0.90607">
        <ele>1514.961</ele>
        <time>2021-03-13T12:17:24Z</time>
      </trkpt>
      <trkpt lat="42.85028" lon="0.90607">
        <ele>1514.961</ele>
        <time>2021-03-13T12:17:26Z</time>
      </trkpt>
      <trkpt lat="42.85028" lon="0.90607">
        <ele>1514.962</ele>
        <time>2021-03-13T12:17:28Z</time>
      </trkpt>
      <trkpt lat="42.85028" lon="0.90607">
        <ele>1514.962</ele>
        <time>2021-03-13T12:17:30Z</time>
      </trkpt>
      <trkpt lat="42.85028" lon="0.90607">
        <ele>1514.96</ele>
        <time>2021-03-13T12:17:32Z</time>
      </trkpt>
      <trkpt lat="42.85028" lon="0.90607">
        <ele>1514.96</ele>
        <time>2021-03-13T12:17:34Z</time>
      </trkpt>
      <trkpt lat="42.85028" lon="0.90607">
        <ele>1514.961</ele>
        <time>2021-03-13T12:17:36Z</time>
      </trkpt>
      <trkpt lat="42.85028" lon="0.90607">
        <ele>1514.961</ele>
        <time>2021-03-13T12:17:38Z</time>
      </trkpt>
      <trkpt lat="42.85028" lon="0.90607">
        <ele>1514.962</ele>
        <time>2021-03-13T12:17:40Z</time>
      </trkpt>
      <trkpt lat="42.85028" lon="0.90607">
        <ele>1514.963</ele>
        <time>2021-03-13T12:17:42Z</time>
      </trkpt>
      <trkpt lat="42.85028" lon="0.90607">
        <ele>1514.964</ele>
        <time>2021-03-13T12:17:44Z</time>
      </trkpt>
      <trkpt lat="42.85028" lon="0.90607">
        <ele>1514.963</ele>
        <time>2021-03-13T12:17:46Z</time>
      </trkpt>
      <trkpt lat="42.85028" lon="0.90607">
        <ele>1514.962</ele>
        <time>2021-03-13T12:17:48Z</time>
      </trkpt>
      <trkpt lat="42.85028" lon="0.90607">
        <ele>1514.962</ele>
        <time>2021-03-13T12:17:50Z</time>
      </trkpt>
      <trkpt lat="42.85028" lon="0.90607">
        <ele>1514.96</ele>
        <time>2021-03-13T12:17:52Z</time>
      </trkpt>
      <trkpt lat="42.85028" lon="0.90607">
        <ele>1514.96</ele>
        <time>2021-03-13T12:17:54Z</time>
      </trkpt>
      <trkpt lat="42.85028" lon="0.90607">
        <ele>1514.962</ele>
        <time>2021-03-13T12:17:56Z</time>
      </trkpt>
      <trkpt lat="42.85028" lon="0.90607">
        <ele>1514.965</ele>
        <time>2021-03-13T12:17:58Z</time>
      </trkpt>
      <trkpt lat="42.85028" lon="0.90607">
        <ele>1514.939</ele>
        <time>2021-03-13T12:18:00Z</time>
      </trkpt>
      <trkpt lat="42.85028" lon="0.90607">
        <ele>1514.966</ele>
        <time>2021-03-13T12:18:02Z</time>
      </trkpt>
      <trkpt lat="42.85028" lon="0.90607">
        <ele>1514.965</ele>
        <time>2021-03-13T12:18:04Z</time>
      </trkpt>
      <trkpt lat="42.85028" lon="0.90607">
        <ele>1514.966</ele>
        <time>2021-03-13T12:18:06Z</time>
      </trkpt>
      <trkpt lat="42.85028" lon="0.90607">
        <ele>1514.964</ele>
        <time>2021-03-13T12:18:08Z</time>
      </trkpt>
      <trkpt lat="42.85028" lon="0.90607">
        <ele>1514.963</ele>
        <time>2021-03-13T12:18:10Z</time>
      </trkpt>
      <trkpt lat="42.85028" lon="0.90607">
        <ele>1514.963</ele>
        <time>2021-03-13T12:18:12Z</time>
      </trkpt>
      <trkpt lat="42.85028" lon="0.90607">
        <ele>1514.963</ele>
        <time>2021-03-13T12:18:14Z</time>
      </trkpt>
      <trkpt lat="42.85028" lon="0.90607">
        <ele>1514.963</ele>
        <time>2021-03-13T12:18:16Z</time>
      </trkpt>
      <trkpt lat="42.85028" lon="0.90607">
        <ele>1514.963</ele>
        <time>2021-03-13T12:18:18Z</time>
      </trkpt>
      <trkpt lat="42.85028" lon="0.90607">
        <ele>1514.966</ele>
        <time>2021-03-13T12:18:20Z</time>
      </trkpt>
      <trkpt lat="42.85028" lon="0.90607">
        <ele>1514.969</ele>
        <time>2021-03-13T12:18:22Z</time>
      </trkpt>
      <trkpt lat="42.85028" lon="0.90607">
        <ele>1514.968</ele>
        <time>2021-03-13T12:18:24Z</time>
      </trkpt>
      <trkpt lat="42.85028" lon="0.90607">
        <ele>1514.969</ele>
        <time>2021-03-13T12:18:26Z</time>
      </trkpt>
      <trkpt lat="42.85028" lon="0.90607">
        <ele>1514.969</ele>
        <time>2021-03-13T12:18:28Z</time>
      </trkpt>
      <trkpt lat="42.85028" lon="0.90607">
        <ele>1514.97</ele>
        <time>2021-03-13T12:18:30Z</time>
      </trkpt>
      <trkpt lat="42.85028" lon="0.90607">
        <ele>1514.972</ele>
        <time>2021-03-13T12:18:32Z</time>
      </trkpt>
      <trkpt lat="42.85028" lon="0.90607">
        <ele>1514.973</ele>
        <time>2021-03-13T12:18:34Z</time>
      </trkpt>
      <trkpt lat="42.85028" lon="0.90607">
        <ele>1514.972</ele>
        <time>2021-03-13T12:18:36Z</time>
      </trkpt>
      <trkpt lat="42.85028" lon="0.90607">
        <ele>1514.971</ele>
        <time>2021-03-13T12:18:38Z</time>
      </trkpt>
      <trkpt lat="42.85028" lon="0.90607">
        <ele>1514.973</ele>
        <time>2021-03-13T12:18:40Z</time>
      </trkpt>
      <trkpt lat="42.85028" lon="0.90607">
        <ele>1514.976</ele>
        <time>2021-03-13T12:18:42Z</time>
      </trkpt>
      <trkpt lat="42.85028" lon="0.90607">
        <ele>1514.976</ele>
        <time>2021-03-13T12:18:44Z</time>
      </trkpt>
      <trkpt lat="42.85028" lon="0.90607">
        <ele>1514.968</ele>
        <time>2021-03-13T12:18:46Z</time>
      </trkpt>
      <trkpt lat="42.85028" lon="0.90607">
        <ele>1514.962</ele>
        <time>2021-03-13T12:18:48Z</time>
      </trkpt>
      <trkpt lat="42.85028" lon="0.90607">
        <ele>1514.958</ele>
        <time>2021-03-13T12:18:50Z</time>
      </trkpt>
      <trkpt lat="42.85028" lon="0.90607">
        <ele>1514.958</ele>
        <time>2021-03-13T12:18:52Z</time>
      </trkpt>
      <trkpt lat="42.85028" lon="0.90607">
        <ele>1514.954</ele>
        <time>2021-03-13T12:18:54Z</time>
      </trkpt>
      <trkpt lat="42.85028" lon="0.90607">
        <ele>1514.954</ele>
        <time>2021-03-13T12:18:56Z</time>
      </trkpt>
      <trkpt lat="42.85028" lon="0.90607">
        <ele>1514.949</ele>
        <time>2021-03-13T12:18:58Z</time>
      </trkpt>
      <trkpt lat="42.85028" lon="0.90607">
        <ele>1514.947</ele>
        <time>2021-03-13T12:19:00Z</time>
      </trkpt>
      <trkpt lat="42.85028" lon="0.90607">
        <ele>1514.944</ele>
        <time>2021-03-13T12:19:02Z</time>
      </trkpt>
      <trkpt lat="42.85028" lon="0.90607">
        <ele>1514.943</ele>
        <time>2021-03-13T12:19:04Z</time>
      </trkpt>
      <trkpt lat="42.85028" lon="0.90607">
        <ele>1514.948</ele>
        <time>2021-03-13T12:19:06Z</time>
      </trkpt>
      <trkpt lat="42.85028" lon="0.90607">
        <ele>1514.952</ele>
        <time>2021-03-13T12:19:08Z</time>
      </trkpt>
      <trkpt lat="42.85028" lon="0.90607">
        <ele>1514.95</ele>
        <time>2021-03-13T12:19:10Z</time>
      </trkpt>
      <trkpt lat="42.85028" lon="0.90607">
        <ele>1514.95</ele>
        <time>2021-03-13T12:19:12Z</time>
      </trkpt>
      <trkpt lat="42.85028" lon="0.90607">
        <ele>1514.953</ele>
        <time>2021-03-13T12:19:14Z</time>
      </trkpt>
      <trkpt lat="42.85028" lon="0.90607">
        <ele>1514.957</ele>
        <time>2021-03-13T12:19:16Z</time>
      </trkpt>
      <trkpt lat="42.85028" lon="0.90607">
        <ele>1515.039</ele>
        <time>2021-03-13T12:19:18Z</time>
      </trkpt>
      <trkpt lat="42.85028" lon="0.90607">
        <ele>1515.038</ele>
        <time>2021-03-13T12:19:20Z</time>
      </trkpt>
      <trkpt lat="42.85028" lon="0.90607">
        <ele>1515.038</ele>
        <time>2021-03-13T12:19:22Z</time>
      </trkpt>
      <trkpt lat="42.85028" lon="0.90607">
        <ele>1515.04</ele>
        <time>2021-03-13T12:19:24Z</time>
      </trkpt>
      <trkpt lat="42.85028" lon="0.90607">
        <ele>1515.04</ele>
        <time>2021-03-13T12:19:26Z</time>
      </trkpt>
      <trkpt lat="42.85028" lon="0.90607">
        <ele>1515.041</ele>
        <time>2021-03-13T12:19:28Z</time>
      </trkpt>
      <trkpt lat="42.85028" lon="0.90607">
        <ele>1515.043</ele>
        <time>2021-03-13T12:19:30Z</time>
      </trkpt>
      <trkpt lat="42.85028" lon="0.90607">
        <ele>1515.043</ele>
        <time>2021-03-13T12:19:32Z</time>
      </trkpt>
      <trkpt lat="42.85028" lon="0.90607">
        <ele>1515.044</ele>
        <time>2021-03-13T12:19:34Z</time>
      </trkpt>
      <trkpt lat="42.85028" lon="0.90607">
        <ele>1515.044</ele>
        <time>2021-03-13T12:19:36Z</time>
      </trkpt>
      <trkpt lat="42.85028" lon="0.90607">
        <ele>1515.045</ele>
        <time>2021-03-13T12:19:38Z</time>
      </trkpt>
      <trkpt lat="42.85028" lon="0.90607">
        <ele>1515.046</ele>
        <time>2021-03-13T12:19:40Z</time>
      </trkpt>
      <trkpt lat="42.85028" lon="0.90607">
        <ele>1515.048</ele>
        <time>2021-03-13T12:19:42Z</time>
      </trkpt>
      <trkpt lat="42.85028" lon="0.90607">
        <ele>1515.05</ele>
        <time>2021-03-13T12:19:44Z</time>
      </trkpt>
      <trkpt lat="42.85028" lon="0.90607">
        <ele>1515.054</ele>
        <time>2021-03-13T12:19:46Z</time>
      </trkpt>
      <trkpt lat="42.85028" lon="0.90607">
        <ele>1515.057</ele>
        <time>2021-03-13T12:19:48Z</time>
      </trkpt>
      <trkpt lat="42.85028" lon="0.90607">
        <ele>1515.058</ele>
        <time>2021-03-13T12:19:50Z</time>
      </trkpt>
      <trkpt lat="42.85028" lon="0.90607">
        <ele>1515.058</ele>
        <time>2021-03-13T12:19:52Z</time>
      </trkpt>
      <trkpt lat="42.85028" lon="0.90607">
        <ele>1515.059</ele>
        <time>2021-03-13T12:19:54Z</time>
      </trkpt>
      <trkpt lat="42.85028" lon="0.90607">
        <ele>1515.061</ele>
        <time>2021-03-13T12:19:56Z</time>
      </trkpt>
      <trkpt lat="42.85028" lon="0.90607">
        <ele>1515.066</ele>
        <time>2021-03-13T12:19:58Z</time>
      </trkpt>
      <trkpt lat="42.85028" lon="0.90607">
        <ele>1515.07</ele>
        <time>2021-03-13T12:20:00Z</time>
      </trkpt>
      <trkpt lat="42.85028" lon="0.90607">
        <ele>1515.071</ele>
        <time>2021-03-13T12:20:02Z</time>
      </trkpt>
      <trkpt lat="42.85028" lon="0.90607">
        <ele>1515.074</ele>
        <time>2021-03-13T12:20:04Z</time>
      </trkpt>
      <trkpt lat="42.85028" lon="0.90607">
        <ele>1515.072</ele>
        <time>2021-03-13T12:20:06Z</time>
      </trkpt>
      <trkpt lat="42.85028" lon="0.90607">
        <ele>1515.067</ele>
        <time>2021-03-13T12:20:08Z</time>
      </trkpt>
      <trkpt lat="42.85028" lon="0.90607">
        <ele>1515.067</ele>
        <time>2021-03-13T12:20:10Z</time>
      </trkpt>
      <trkpt lat="42.85028" lon="0.90607">
        <ele>1515.069</ele>
        <time>2021-03-13T12:20:12Z</time>
      </trkpt>
      <trkpt lat="42.85028" lon="0.90607">
        <ele>1515.071</ele>
        <time>2021-03-13T12:20:14Z</time>
      </trkpt>
      <trkpt lat="42.85028" lon="0.90607">
        <ele>1515.068</ele>
        <time>2021-03-13T12:20:16Z</time>
      </trkpt>
      <trkpt lat="42.85028" lon="0.90607">
        <ele>1515.07</ele>
        <time>2021-03-13T12:20:18Z</time>
      </trkpt>
      <trkpt lat="42.85028" lon="0.90607">
        <ele>1515.068</ele>
        <time>2021-03-13T12:20:20Z</time>
      </trkpt>
      <trkpt lat="42.85028" lon="0.90607">
        <ele>1515.07</ele>
        <time>2021-03-13T12:20:22Z</time>
      </trkpt>
      <trkpt lat="42.85028" lon="0.90607">
        <ele>1515.073</ele>
        <time>2021-03-13T12:20:24Z</time>
      </trkpt>
      <trkpt lat="42.85028" lon="0.90607">
        <ele>1515.071</ele>
        <time>2021-03-13T12:20:26Z</time>
      </trkpt>
      <trkpt lat="42.85028" lon="0.90607">
        <ele>1515.364</ele>
        <time>2021-03-13T12:20:28Z</time>
      </trkpt>
      <trkpt lat="42.85028" lon="0.90607">
        <ele>1515.484</ele>
        <time>2021-03-13T12:20:30Z</time>
      </trkpt>
      <trkpt lat="42.85028" lon="0.90607">
        <ele>1515.482</ele>
        <time>2021-03-13T12:20:32Z</time>
      </trkpt>
      <trkpt lat="42.85028" lon="0.90607">
        <ele>1515.483</ele>
        <time>2021-03-13T12:20:34Z</time>
      </trkpt>
      <trkpt lat="42.85028" lon="0.90607">
        <ele>1515.484</ele>
        <time>2021-03-13T12:20:36Z</time>
      </trkpt>
      <trkpt lat="42.85028" lon="0.90607">
        <ele>1515.37</ele>
        <time>2021-03-13T12:20:38Z</time>
      </trkpt>
      <trkpt lat="42.85028" lon="0.90607">
        <ele>1515.255</ele>
        <time>2021-03-13T12:20:40Z</time>
      </trkpt>
      <trkpt lat="42.85028" lon="0.90607">
        <ele>1515.796</ele>
        <time>2021-03-13T12:20:42Z</time>
      </trkpt>
      <trkpt lat="42.85028" lon="0.90607">
        <ele>1515.843</ele>
        <time>2021-03-13T12:20:44Z</time>
      </trkpt>
      <trkpt lat="42.85028" lon="0.90607">
        <ele>1515.844</ele>
        <time>2021-03-13T12:20:46Z</time>
      </trkpt>
      <trkpt lat="42.85028" lon="0.90607">
        <ele>1515.845</ele>
        <time>2021-03-13T12:20:48Z</time>
      </trkpt>
      <trkpt lat="42.85028" lon="0.90607">
        <ele>1515.846</ele>
        <time>2021-03-13T12:20:50Z</time>
      </trkpt>
      <trkpt lat="42.85028" lon="0.90607">
        <ele>1515.846</ele>
        <time>2021-03-13T12:20:52Z</time>
      </trkpt>
      <trkpt lat="42.85028" lon="0.90607">
        <ele>1515.848</ele>
        <time>2021-03-13T12:20:54Z</time>
      </trkpt>
      <trkpt lat="42.85028" lon="0.90607">
        <ele>1515.848</ele>
        <time>2021-03-13T12:20:56Z</time>
      </trkpt>
      <trkpt lat="42.85028" lon="0.90607">
        <ele>1515.842</ele>
        <time>2021-03-13T12:20:58Z</time>
      </trkpt>
      <trkpt lat="42.85028" lon="0.90607">
        <ele>1515.842</ele>
        <time>2021-03-13T12:21:00Z</time>
      </trkpt>
      <trkpt lat="42.85028" lon="0.90607">
        <ele>1515.842</ele>
        <time>2021-03-13T12:21:02Z</time>
      </trkpt>
      <trkpt lat="42.85028" lon="0.90607">
        <ele>1515.841</ele>
        <time>2021-03-13T12:21:04Z</time>
      </trkpt>
      <trkpt lat="42.85028" lon="0.90607">
        <ele>1515.842</ele>
        <time>2021-03-13T12:21:06Z</time>
      </trkpt>
      <trkpt lat="42.85028" lon="0.90607">
        <ele>1515.838</ele>
        <time>2021-03-13T12:21:08Z</time>
      </trkpt>
      <trkpt lat="42.85028" lon="0.90607">
        <ele>1515.838</ele>
        <time>2021-03-13T12:21:10Z</time>
      </trkpt>
      <trkpt lat="42.85028" lon="0.90607">
        <ele>1515.833</ele>
        <time>2021-03-13T12:21:12Z</time>
      </trkpt>
      <trkpt lat="42.85028" lon="0.90607">
        <ele>1515.833</ele>
        <time>2021-03-13T12:21:14Z</time>
      </trkpt>
      <trkpt lat="42.85028" lon="0.90607">
        <ele>1515.833</ele>
        <time>2021-03-13T12:21:16Z</time>
      </trkpt>
      <trkpt lat="42.85028" lon="0.90607">
        <ele>1515.836</ele>
        <time>2021-03-13T12:21:18Z</time>
      </trkpt>
      <trkpt lat="42.85028" lon="0.90607">
        <ele>1515.839</ele>
        <time>2021-03-13T12:21:21Z</time>
      </trkpt>
      <trkpt lat="42.85028" lon="0.90607">
        <ele>1515.84</ele>
        <time>2021-03-13T12:21:23Z</time>
      </trkpt>
      <trkpt lat="42.85028" lon="0.90607">
        <ele>1515.84</ele>
        <time>2021-03-13T12:21:25Z</time>
      </trkpt>
      <trkpt lat="42.85028" lon="0.90607">
        <ele>1515.846</ele>
        <time>2021-03-13T12:21:27Z</time>
      </trkpt>
      <trkpt lat="42.85028" lon="0.90607">
        <ele>1515.847</ele>
        <time>2021-03-13T12:21:29Z</time>
      </trkpt>
      <trkpt lat="42.85028" lon="0.90607">
        <ele>1515.851</ele>
        <time>2021-03-13T12:21:31Z</time>
      </trkpt>
      <trkpt lat="42.85028" lon="0.90607">
        <ele>1515.851</ele>
        <time>2021-03-13T12:21:33Z</time>
      </trkpt>
      <trkpt lat="42.85028" lon="0.90607">
        <ele>1515.852</ele>
        <time>2021-03-13T12:21:35Z</time>
      </trkpt>
      <trkpt lat="42.85028" lon="0.90607">
        <ele>1515.856</ele>
        <time>2021-03-13T12:21:37Z</time>
      </trkpt>
      <trkpt lat="42.85028" lon="0.90607">
        <ele>1515.857</ele>
        <time>2021-03-13T12:21:39Z</time>
      </trkpt>
      <trkpt lat="42.85028" lon="0.90607">
        <ele>1515.858</ele>
        <time>2021-03-13T12:21:41Z</time>
      </trkpt>
      <trkpt lat="42.85028" lon="0.90607">
        <ele>1515.859</ele>
        <time>2021-03-13T12:21:43Z</time>
      </trkpt>
      <trkpt lat="42.85028" lon="0.90607">
        <ele>1515.859</ele>
        <time>2021-03-13T12:21:45Z</time>
      </trkpt>
      <trkpt lat="42.85028" lon="0.90607">
        <ele>1515.862</ele>
        <time>2021-03-13T12:21:47Z</time>
      </trkpt>
      <trkpt lat="42.85028" lon="0.90607">
        <ele>1515.866</ele>
        <time>2021-03-13T12:21:49Z</time>
      </trkpt>
      <trkpt lat="42.85028" lon="0.90607">
        <ele>1515.868</ele>
        <time>2021-03-13T12:21:51Z</time>
      </trkpt>
      <trkpt lat="42.85028" lon="0.90607">
        <ele>1515.867</ele>
        <time>2021-03-13T12:21:53Z</time>
      </trkpt>
      <trkpt lat="42.85028" lon="0.90607">
        <ele>1515.868</ele>
        <time>2021-03-13T12:21:55Z</time>
      </trkpt>
      <trkpt lat="42.85028" lon="0.90607">
        <ele>1515.869</ele>
        <time>2021-03-13T12:21:57Z</time>
      </trkpt>
      <trkpt lat="42.85028" lon="0.90607">
        <ele>1515.868</ele>
        <time>2021-03-13T12:21:59Z</time>
      </trkpt>
      <trkpt lat="42.85028" lon="0.90607">
        <ele>1515.867</ele>
        <time>2021-03-13T12:22:01Z</time>
      </trkpt>
      <trkpt lat="42.85028" lon="0.90607">
        <ele>1515.868</ele>
        <time>2021-03-13T12:22:03Z</time>
      </trkpt>
      <trkpt lat="42.85028" lon="0.90607">
        <ele>1515.868</ele>
        <time>2021-03-13T12:22:05Z</time>
      </trkpt>
      <trkpt lat="42.85028" lon="0.90607">
        <ele>1515.868</ele>
        <time>2021-03-13T12:22:07Z</time>
      </trkpt>
      <trkpt lat="42.85028" lon="0.90607">
        <ele>1515.869</ele>
        <time>2021-03-13T12:22:09Z</time>
      </trkpt>
      <trkpt lat="42.85028" lon="0.90607">
        <ele>1515.869</ele>
        <time>2021-03-13T12:22:11Z</time>
      </trkpt>
      <trkpt lat="42.85028" lon="0.90607">
        <ele>1515.867</ele>
        <time>2021-03-13T12:22:13Z</time>
      </trkpt>
      <trkpt lat="42.85028" lon="0.90607">
        <ele>1515.869</ele>
        <time>2021-03-13T12:22:15Z</time>
      </trkpt>
      <trkpt lat="42.85028" lon="0.90607">
        <ele>1515.872</ele>
        <time>2021-03-13T12:22:17Z</time>
      </trkpt>
      <trkpt lat="42.85028" lon="0.90607">
        <ele>1515.873</ele>
        <time>2021-03-13T12:22:19Z</time>
      </trkpt>
      <trkpt lat="42.85028" lon="0.90607">
        <ele>1515.87</ele>
        <time>2021-03-13T12:22:21Z</time>
      </trkpt>
      <trkpt lat="42.85028" lon="0.90607">
        <ele>1515.872</ele>
        <time>2021-03-13T12:22:23Z</time>
      </trkpt>
      <trkpt lat="42.85028" lon="0.90607">
        <ele>1515.874</ele>
        <time>2021-03-13T12:22:25Z</time>
      </trkpt>
      <trkpt lat="42.85028" lon="0.90607">
        <ele>1515.874</ele>
        <time>2021-03-13T12:22:27Z</time>
      </trkpt>
      <trkpt lat="42.85028" lon="0.90607">
        <ele>1515.875</ele>
        <time>2021-03-13T12:22:29Z</time>
      </trkpt>
      <trkpt lat="42.85028" lon="0.90607">
        <ele>1515.881</ele>
        <time>2021-03-13T12:22:31Z</time>
      </trkpt>
      <trkpt lat="42.85028" lon="0.90607">
        <ele>1515.878</ele>
        <time>2021-03-13T12:22:33Z</time>
      </trkpt>
      <trkpt lat="42.85028" lon="0.90607">
        <ele>1515.879</ele>
        <time>2021-03-13T12:22:35Z</time>
      </trkpt>
      <trkpt lat="42.85028" lon="0.90607">
        <ele>1515.881</ele>
        <time>2021-03-13T12:22:37Z</time>
      </trkpt>
      <trkpt lat="42.85028" lon="0.90607">
        <ele>1515.883</ele>
        <time>2021-03-13T12:22:39Z</time>
      </trkpt>
      <trkpt lat="42.85028" lon="0.90607">
        <ele>1515.886</ele>
        <time>2021-03-13T12:22:41Z</time>
      </trkpt>
      <trkpt lat="42.85028" lon="0.90607">
        <ele>1515.889</ele>
        <time>2021-03-13T12:22:43Z</time>
      </trkpt>
      <trkpt lat="42.85028" lon="0.90607">
        <ele>1515.891</ele>
        <time>2021-03-13T12:22:45Z</time>
      </trkpt>
      <trkpt lat="42.85028" lon="0.90607">
        <ele>1515.894</ele>
        <time>2021-03-13T12:22:47Z</time>
      </trkpt>
      <trkpt lat="42.85028" lon="0.90607">
        <ele>1515.896</ele>
        <time>2021-03-13T12:22:49Z</time>
      </trkpt>
      <trkpt lat="42.85028" lon="0.90607">
        <ele>1515.897</ele>
        <time>2021-03-13T12:22:51Z</time>
      </trkpt>
      <trkpt lat="42.85028" lon="0.90607">
        <ele>1515.896</ele>
        <time>2021-03-13T12:22:53Z</time>
      </trkpt>
      <trkpt lat="42.85028" lon="0.90607">
        <ele>1515.896</ele>
        <time>2021-03-13T12:22:55Z</time>
      </trkpt>
      <trkpt lat="42.85028" lon="0.90607">
        <ele>1515.898</ele>
        <time>2021-03-13T12:22:57Z</time>
      </trkpt>
      <trkpt lat="42.85028" lon="0.90607">
        <ele>1515.899</ele>
        <time>2021-03-13T12:22:59Z</time>
      </trkpt>
      <trkpt lat="42.85028" lon="0.90607">
        <ele>1515.901</ele>
        <time>2021-03-13T12:23:01Z</time>
      </trkpt>
      <trkpt lat="42.85028" lon="0.90607">
        <ele>1515.901</ele>
        <time>2021-03-13T12:23:03Z</time>
      </trkpt>
      <trkpt lat="42.85028" lon="0.90607">
        <ele>1515.904</ele>
        <time>2021-03-13T12:23:05Z</time>
      </trkpt>
      <trkpt lat="42.85028" lon="0.90607">
        <ele>1515.906</ele>
        <time>2021-03-13T12:23:07Z</time>
      </trkpt>
      <trkpt lat="42.85028" lon="0.90607">
        <ele>1515.905</ele>
        <time>2021-03-13T12:23:09Z</time>
      </trkpt>
      <trkpt lat="42.85028" lon="0.90607">
        <ele>1515.906</ele>
        <time>2021-03-13T12:23:11Z</time>
      </trkpt>
      <trkpt lat="42.85028" lon="0.90607">
        <ele>1515.905</ele>
        <time>2021-03-13T12:23:13Z</time>
      </trkpt>
      <trkpt lat="42.85028" lon="0.90607">
        <ele>1515.907</ele>
        <time>2021-03-13T12:23:15Z</time>
      </trkpt>
      <trkpt lat="42.85028" lon="0.90607">
        <ele>1515.908</ele>
        <time>2021-03-13T12:23:17Z</time>
      </trkpt>
      <trkpt lat="42.85028" lon="0.90607">
        <ele>1515.908</ele>
        <time>2021-03-13T12:23:19Z</time>
      </trkpt>
      <trkpt lat="42.85028" lon="0.90607">
        <ele>1515.906</ele>
        <time>2021-03-13T12:23:21Z</time>
      </trkpt>
      <trkpt lat="42.85028" lon="0.90607">
        <ele>1515.907</ele>
        <time>2021-03-13T12:23:23Z</time>
      </trkpt>
      <trkpt lat="42.85028" lon="0.90607">
        <ele>1515.909</ele>
        <time>2021-03-13T12:23:25Z</time>
      </trkpt>
      <trkpt lat="42.85028" lon="0.90607">
        <ele>1515.911</ele>
        <time>2021-03-13T12:23:27Z</time>
      </trkpt>
      <trkpt lat="42.85028" lon="0.90607">
        <ele>1515.912</ele>
        <time>2021-03-13T12:23:29Z</time>
      </trkpt>
      <trkpt lat="42.85028" lon="0.90607">
        <ele>1515.912</ele>
        <time>2021-03-13T12:23:31Z</time>
      </trkpt>
      <trkpt lat="42.85028" lon="0.90607">
        <ele>1515.913</ele>
        <time>2021-03-13T12:23:33Z</time>
      </trkpt>
      <trkpt lat="42.85028" lon="0.90607">
        <ele>1515.913</ele>
        <time>2021-03-13T12:23:35Z</time>
      </trkpt>
      <trkpt lat="42.85028" lon="0.90607">
        <ele>1515.918</ele>
        <time>2021-03-13T12:23:37Z</time>
      </trkpt>
      <trkpt lat="42.85028" lon="0.90607">
        <ele>1515.92</ele>
        <time>2021-03-13T12:23:39Z</time>
      </trkpt>
      <trkpt lat="42.85028" lon="0.90607">
        <ele>1515.922</ele>
        <time>2021-03-13T12:23:41Z</time>
      </trkpt>
      <trkpt lat="42.85028" lon="0.90607">
        <ele>1515.923</ele>
        <time>2021-03-13T12:23:43Z</time>
      </trkpt>
      <trkpt lat="42.85028" lon="0.90607">
        <ele>1515.925</ele>
        <time>2021-03-13T12:23:45Z</time>
      </trkpt>
      <trkpt lat="42.85028" lon="0.90607">
        <ele>1515.923</ele>
        <time>2021-03-13T12:23:47Z</time>
      </trkpt>
      <trkpt lat="42.85028" lon="0.90607">
        <ele>1515.92</ele>
        <time>2021-03-13T12:23:49Z</time>
      </trkpt>
      <trkpt lat="42.85028" lon="0.90607">
        <ele>1515.917</ele>
        <time>2021-03-13T12:23:51Z</time>
      </trkpt>
      <trkpt lat="42.85028" lon="0.90607">
        <ele>1515.917</ele>
        <time>2021-03-13T12:23:53Z</time>
      </trkpt>
      <trkpt lat="42.85028" lon="0.90607">
        <ele>1515.92</ele>
        <time>2021-03-13T12:23:55Z</time>
      </trkpt>
      <trkpt lat="42.85028" lon="0.90607">
        <ele>1515.92</ele>
        <time>2021-03-13T12:23:57Z</time>
      </trkpt>
      <trkpt lat="42.85028" lon="0.90607">
        <ele>1515.918</ele>
        <time>2021-03-13T12:23:59Z</time>
      </trkpt>
      <trkpt lat="42.85028" lon="0.90607">
        <ele>1515.916</ele>
        <time>2021-03-13T12:24:01Z</time>
      </trkpt>
      <trkpt lat="42.85028" lon="0.90607">
        <ele>1515.916</ele>
        <time>2021-03-13T12:24:03Z</time>
      </trkpt>
      <trkpt lat="42.85028" lon="0.90607">
        <ele>1515.914</ele>
        <time>2021-03-13T12:24:05Z</time>
      </trkpt>
      <trkpt lat="42.85028" lon="0.90607">
        <ele>1515.916</ele>
        <time>2021-03-13T12:24:07Z</time>
      </trkpt>
      <trkpt lat="42.85028" lon="0.90607">
        <ele>1515.918</ele>
        <time>2021-03-13T12:24:09Z</time>
      </trkpt>
      <trkpt lat="42.85028" lon="0.90607">
        <ele>1515.921</ele>
        <time>2021-03-13T12:24:11Z</time>
      </trkpt>
      <trkpt lat="42.85028" lon="0.90607">
        <ele>1515.926</ele>
        <time>2021-03-13T12:24:13Z</time>
      </trkpt>
      <trkpt lat="42.85028" lon="0.90607">
        <ele>1516.203</ele>
        <time>2021-03-13T12:24:15Z</time>
      </trkpt>
      <trkpt lat="42.85028" lon="0.90606">
        <ele>1516.274</ele>
        <time>2021-03-13T12:24:17Z</time>
      </trkpt>
      <trkpt lat="42.85028" lon="0.90606">
        <ele>1516.271</ele>
        <time>2021-03-13T12:24:19Z</time>
      </trkpt>
      <trkpt lat="42.85028" lon="0.90606">
        <ele>1516.269</ele>
        <time>2021-03-13T12:24:21Z</time>
      </trkpt>
      <trkpt lat="42.85028" lon="0.90606">
        <ele>1516.269</ele>
        <time>2021-03-13T12:24:23Z</time>
      </trkpt>
      <trkpt lat="42.85028" lon="0.90606">
        <ele>1516.269</ele>
        <time>2021-03-13T12:24:25Z</time>
      </trkpt>
      <trkpt lat="42.85028" lon="0.90606">
        <ele>1516.268</ele>
        <time>2021-03-13T12:24:27Z</time>
      </trkpt>
      <trkpt lat="42.85028" lon="0.90606">
        <ele>1516.268</ele>
        <time>2021-03-13T12:24:29Z</time>
      </trkpt>
      <trkpt lat="42.85028" lon="0.90606">
        <ele>1516.271</ele>
        <time>2021-03-13T12:24:31Z</time>
      </trkpt>
      <trkpt lat="42.85028" lon="0.90606">
        <ele>1516.272</ele>
        <time>2021-03-13T12:24:33Z</time>
      </trkpt>
      <trkpt lat="42.85028" lon="0.90606">
        <ele>1516.274</ele>
        <time>2021-03-13T12:24:35Z</time>
      </trkpt>
      <trkpt lat="42.85028" lon="0.90606">
        <ele>1516.276</ele>
        <time>2021-03-13T12:24:37Z</time>
      </trkpt>
      <trkpt lat="42.85028" lon="0.90606">
        <ele>1516.326</ele>
        <time>2021-03-13T12:24:39Z</time>
      </trkpt>
      <trkpt lat="42.85028" lon="0.90606">
        <ele>1516.192</ele>
        <time>2021-03-13T12:24:41Z</time>
      </trkpt>
      <trkpt lat="42.85028" lon="0.90606">
        <ele>1516.194</ele>
        <time>2021-03-13T12:24:43Z</time>
      </trkpt>
      <trkpt lat="42.85028" lon="0.90606">
        <ele>1516.193</ele>
        <time>2021-03-13T12:24:45Z</time>
      </trkpt>
      <trkpt lat="42.85028" lon="0.90606">
        <ele>1516.14</ele>
        <time>2021-03-13T12:24:47Z</time>
      </trkpt>
      <trkpt lat="42.85028" lon="0.90606">
        <ele>1516.439</ele>
        <time>2021-03-13T12:24:49Z</time>
      </trkpt>
      <trkpt lat="42.85028" lon="0.90606">
        <ele>1516.7</ele>
        <time>2021-03-13T12:24:51Z</time>
      </trkpt>
      <trkpt lat="42.85028" lon="0.90606">
        <ele>1516.699</ele>
        <time>2021-03-13T12:24:53Z</time>
      </trkpt>
      <trkpt lat="42.85028" lon="0.90606">
        <ele>1516.702</ele>
        <time>2021-03-13T12:24:55Z</time>
      </trkpt>
      <trkpt lat="42.85028" lon="0.90606">
        <ele>1516.704</ele>
        <time>2021-03-13T12:24:57Z</time>
      </trkpt>
      <trkpt lat="42.85028" lon="0.90606">
        <ele>1516.92</ele>
        <time>2021-03-13T12:24:59Z</time>
      </trkpt>
      <trkpt lat="42.85028" lon="0.90606">
        <ele>1516.928</ele>
        <time>2021-03-13T12:25:01Z</time>
      </trkpt>
      <trkpt lat="42.85028" lon="0.90606">
        <ele>1516.93</ele>
        <time>2021-03-13T12:25:03Z</time>
      </trkpt>
      <trkpt lat="42.85028" lon="0.90606">
        <ele>1516.931</ele>
        <time>2021-03-13T12:25:05Z</time>
      </trkpt>
      <trkpt lat="42.85028" lon="0.90606">
        <ele>1516.932</ele>
        <time>2021-03-13T12:25:07Z</time>
      </trkpt>
      <trkpt lat="42.85028" lon="0.90606">
        <ele>1516.931</ele>
        <time>2021-03-13T12:25:09Z</time>
      </trkpt>
      <trkpt lat="42.85028" lon="0.90606">
        <ele>1516.932</ele>
        <time>2021-03-13T12:25:11Z</time>
      </trkpt>
      <trkpt lat="42.85028" lon="0.90606">
        <ele>1516.933</ele>
        <time>2021-03-13T12:25:13Z</time>
      </trkpt>
      <trkpt lat="42.85028" lon="0.90606">
        <ele>1516.935</ele>
        <time>2021-03-13T12:25:15Z</time>
      </trkpt>
      <trkpt lat="42.85028" lon="0.90606">
        <ele>1516.935</ele>
        <time>2021-03-13T12:25:17Z</time>
      </trkpt>
      <trkpt lat="42.85028" lon="0.90606">
        <ele>1516.936</ele>
        <time>2021-03-13T12:25:19Z</time>
      </trkpt>
      <trkpt lat="42.85028" lon="0.90606">
        <ele>1516.936</ele>
        <time>2021-03-13T12:25:21Z</time>
      </trkpt>
      <trkpt lat="42.85028" lon="0.90606">
        <ele>1516.935</ele>
        <time>2021-03-13T12:25:23Z</time>
      </trkpt>
      <trkpt lat="42.85028" lon="0.90606">
        <ele>1516.935</ele>
        <time>2021-03-13T12:25:25Z</time>
      </trkpt>
      <trkpt lat="42.85028" lon="0.90606">
        <ele>1516.936</ele>
        <time>2021-03-13T12:25:27Z</time>
      </trkpt>
      <trkpt lat="42.85028" lon="0.90606">
        <ele>1516.936</ele>
        <time>2021-03-13T12:25:29Z</time>
      </trkpt>
      <trkpt lat="42.85028" lon="0.90606">
        <ele>1516.934</ele>
        <time>2021-03-13T12:25:31Z</time>
      </trkpt>
      <trkpt lat="42.85028" lon="0.90606">
        <ele>1516.934</ele>
        <time>2021-03-13T12:25:33Z</time>
      </trkpt>
      <trkpt lat="42.85028" lon="0.90606">
        <ele>1516.935</ele>
        <time>2021-03-13T12:25:35Z</time>
      </trkpt>
      <trkpt lat="42.85028" lon="0.90606">
        <ele>1516.937</ele>
        <time>2021-03-13T12:25:37Z</time>
      </trkpt>
      <trkpt lat="42.85028" lon="0.90606">
        <ele>1516.936</ele>
        <time>2021-03-13T12:25:39Z</time>
      </trkpt>
      <trkpt lat="42.85028" lon="0.90606">
        <ele>1516.935</ele>
        <time>2021-03-13T12:25:41Z</time>
      </trkpt>
      <trkpt lat="42.85028" lon="0.90606">
        <ele>1516.935</ele>
        <time>2021-03-13T12:25:43Z</time>
      </trkpt>
      <trkpt lat="42.85028" lon="0.90606">
        <ele>1516.937</ele>
        <time>2021-03-13T12:25:45Z</time>
      </trkpt>
      <trkpt lat="42.85028" lon="0.90606">
        <ele>1516.935</ele>
        <time>2021-03-13T12:25:47Z</time>
      </trkpt>
      <trkpt lat="42.85028" lon="0.90606">
        <ele>1516.934</ele>
        <time>2021-03-13T12:25:49Z</time>
      </trkpt>
      <trkpt lat="42.85028" lon="0.90606">
        <ele>1516.936</ele>
        <time>2021-03-13T12:25:51Z</time>
      </trkpt>
      <trkpt lat="42.85028" lon="0.90606">
        <ele>1516.937</ele>
        <time>2021-03-13T12:25:53Z</time>
      </trkpt>
      <trkpt lat="42.85028" lon="0.90606">
        <ele>1516.935</ele>
        <time>2021-03-13T12:25:55Z</time>
      </trkpt>
      <trkpt lat="42.85028" lon="0.90606">
        <ele>1516.935</ele>
        <time>2021-03-13T12:25:57Z</time>
      </trkpt>
      <trkpt lat="42.85028" lon="0.90606">
        <ele>1516.934</ele>
        <time>2021-03-13T12:25:59Z</time>
      </trkpt>
      <trkpt lat="42.85028" lon="0.90606">
        <ele>1516.937</ele>
        <time>2021-03-13T12:26:01Z</time>
      </trkpt>
      <trkpt lat="42.85028" lon="0.90606">
        <ele>1516.935</ele>
        <time>2021-03-13T12:26:03Z</time>
      </trkpt>
      <trkpt lat="42.85028" lon="0.90606">
        <ele>1516.933</ele>
        <time>2021-03-13T12:26:05Z</time>
      </trkpt>
      <trkpt lat="42.85028" lon="0.90606">
        <ele>1516.936</ele>
        <time>2021-03-13T12:26:07Z</time>
      </trkpt>
      <trkpt lat="42.85028" lon="0.90606">
        <ele>1516.941</ele>
        <time>2021-03-13T12:26:09Z</time>
      </trkpt>
      <trkpt lat="42.85028" lon="0.90606">
        <ele>1516.943</ele>
        <time>2021-03-13T12:26:11Z</time>
      </trkpt>
      <trkpt lat="42.85028" lon="0.90606">
        <ele>1516.945</ele>
        <time>2021-03-13T12:26:13Z</time>
      </trkpt>
      <trkpt lat="42.85028" lon="0.90607">
        <ele>1516.894</ele>
        <time>2021-03-13T12:26:15Z</time>
      </trkpt>
      <trkpt lat="42.85029" lon="0.90609">
        <ele>1516.366</ele>
        <time>2021-03-13T12:26:17Z</time>
      </trkpt>
      <trkpt lat="42.8503" lon="0.90608">
        <ele>1516.051</ele>
        <time>2021-03-13T12:26:19Z</time>
      </trkpt>
      <trkpt lat="42.8503" lon="0.90608">
        <ele>1516.043</ele>
        <time>2021-03-13T12:26:21Z</time>
      </trkpt>
      <trkpt lat="42.8503" lon="0.90608">
        <ele>1515.895</ele>
        <time>2021-03-13T12:26:23Z</time>
      </trkpt>
      <trkpt lat="42.8503" lon="0.90606">
        <ele>1515.732</ele>
        <time>2021-03-13T12:26:25Z</time>
      </trkpt>
      <trkpt lat="42.85029" lon="0.90605">
        <ele>1515.331</ele>
        <time>2021-03-13T12:26:27Z</time>
      </trkpt>
      <trkpt lat="42.8503" lon="0.90605">
        <ele>1515.003</ele>
        <time>2021-03-13T12:26:29Z</time>
      </trkpt>
      <trkpt lat="42.8503" lon="0.90605">
        <ele>1515.051</ele>
        <time>2021-03-13T12:26:31Z</time>
      </trkpt>
      <trkpt lat="42.8503" lon="0.90605">
        <ele>1515.052</ele>
        <time>2021-03-13T12:26:33Z</time>
      </trkpt>
      <trkpt lat="42.8503" lon="0.90605">
        <ele>1515.052</ele>
        <time>2021-03-13T12:26:35Z</time>
      </trkpt>
      <trkpt lat="42.8503" lon="0.90605">
        <ele>1515.053</ele>
        <time>2021-03-13T12:26:37Z</time>
      </trkpt>
      <trkpt lat="42.8503" lon="0.90605">
        <ele>1515.053</ele>
        <time>2021-03-13T12:26:39Z</time>
      </trkpt>
      <trkpt lat="42.8503" lon="0.90605">
        <ele>1515.053</ele>
        <time>2021-03-13T12:26:41Z</time>
      </trkpt>
      <trkpt lat="42.8503" lon="0.90605">
        <ele>1515.051</ele>
        <time>2021-03-13T12:26:43Z</time>
      </trkpt>
      <trkpt lat="42.8503" lon="0.90605">
        <ele>1515.051</ele>
        <time>2021-03-13T12:26:45Z</time>
      </trkpt>
      <trkpt lat="42.8503" lon="0.90605">
        <ele>1515.051</ele>
        <time>2021-03-13T12:26:47Z</time>
      </trkpt>
      <trkpt lat="42.8503" lon="0.90605">
        <ele>1515.053</ele>
        <time>2021-03-13T12:26:49Z</time>
      </trkpt>
      <trkpt lat="42.8503" lon="0.90605">
        <ele>1515.053</ele>
        <time>2021-03-13T12:26:51Z</time>
      </trkpt>
      <trkpt lat="42.8503" lon="0.90605">
        <ele>1515.053</ele>
        <time>2021-03-13T12:26:53Z</time>
      </trkpt>
      <trkpt lat="42.8503" lon="0.90605">
        <ele>1515.052</ele>
        <time>2021-03-13T12:26:55Z</time>
      </trkpt>
      <trkpt lat="42.8503" lon="0.90605">
        <ele>1515.052</ele>
        <time>2021-03-13T12:26:57Z</time>
      </trkpt>
      <trkpt lat="42.8503" lon="0.90605">
        <ele>1515.053</ele>
        <time>2021-03-13T12:26:59Z</time>
      </trkpt>
      <trkpt lat="42.8503" lon="0.90605">
        <ele>1515.052</ele>
        <time>2021-03-13T12:27:01Z</time>
      </trkpt>
      <trkpt lat="42.8503" lon="0.90605">
        <ele>1515.049</ele>
        <time>2021-03-13T12:27:03Z</time>
      </trkpt>
      <trkpt lat="42.8503" lon="0.90605">
        <ele>1515.048</ele>
        <time>2021-03-13T12:27:05Z</time>
      </trkpt>
      <trkpt lat="42.8503" lon="0.90605">
        <ele>1515.048</ele>
        <time>2021-03-13T12:27:07Z</time>
      </trkpt>
      <trkpt lat="42.8503" lon="0.90605">
        <ele>1515.049</ele>
        <time>2021-03-13T12:27:09Z</time>
      </trkpt>
      <trkpt lat="42.8503" lon="0.90605">
        <ele>1515.058</ele>
        <time>2021-03-13T12:27:11Z</time>
      </trkpt>
      <trkpt lat="42.8503" lon="0.90605">
        <ele>1515.053</ele>
        <time>2021-03-13T12:27:13Z</time>
      </trkpt>
      <trkpt lat="42.8503" lon="0.90605">
        <ele>1515.052</ele>
        <time>2021-03-13T12:27:15Z</time>
      </trkpt>
      <trkpt lat="42.8503" lon="0.90605">
        <ele>1515.051</ele>
        <time>2021-03-13T12:27:17Z</time>
      </trkpt>
      <trkpt lat="42.8503" lon="0.90605">
        <ele>1515.051</ele>
        <time>2021-03-13T12:27:19Z</time>
      </trkpt>
      <trkpt lat="42.8503" lon="0.90605">
        <ele>1515.051</ele>
        <time>2021-03-13T12:27:21Z</time>
      </trkpt>
      <trkpt lat="42.8503" lon="0.90605">
        <ele>1515.051</ele>
        <time>2021-03-13T12:27:23Z</time>
      </trkpt>
      <trkpt lat="42.8503" lon="0.90605">
        <ele>1515.051</ele>
        <time>2021-03-13T12:27:25Z</time>
      </trkpt>
      <trkpt lat="42.8503" lon="0.90605">
        <ele>1515.051</ele>
        <time>2021-03-13T12:27:27Z</time>
      </trkpt>
      <trkpt lat="42.8503" lon="0.90605">
        <ele>1515.051</ele>
        <time>2021-03-13T12:27:29Z</time>
      </trkpt>
      <trkpt lat="42.8503" lon="0.90605">
        <ele>1515.053</ele>
        <time>2021-03-13T12:27:31Z</time>
      </trkpt>
      <trkpt lat="42.8503" lon="0.90605">
        <ele>1515.053</ele>
        <time>2021-03-13T12:27:33Z</time>
      </trkpt>
      <trkpt lat="42.8503" lon="0.90605">
        <ele>1515.052</ele>
        <time>2021-03-13T12:27:35Z</time>
      </trkpt>
      <trkpt lat="42.8503" lon="0.90605">
        <ele>1515.053</ele>
        <time>2021-03-13T12:27:37Z</time>
      </trkpt>
      <trkpt lat="42.8503" lon="0.90605">
        <ele>1515.053</ele>
        <time>2021-03-13T12:27:39Z</time>
      </trkpt>
      <trkpt lat="42.8503" lon="0.90605">
        <ele>1515.053</ele>
        <time>2021-03-13T12:27:41Z</time>
      </trkpt>
      <trkpt lat="42.8503" lon="0.90605">
        <ele>1515.052</ele>
        <time>2021-03-13T12:27:43Z</time>
      </trkpt>
      <trkpt lat="42.8503" lon="0.90605">
        <ele>1515.052</ele>
        <time>2021-03-13T12:27:45Z</time>
      </trkpt>
      <trkpt lat="42.8503" lon="0.90605">
        <ele>1515.049</ele>
        <time>2021-03-13T12:27:47Z</time>
      </trkpt>
      <trkpt lat="42.8503" lon="0.90605">
        <ele>1515.047</ele>
        <time>2021-03-13T12:27:49Z</time>
      </trkpt>
      <trkpt lat="42.8503" lon="0.90605">
        <ele>1515.048</ele>
        <time>2021-03-13T12:27:51Z</time>
      </trkpt>
      <trkpt lat="42.8503" lon="0.90605">
        <ele>1515.049</ele>
        <time>2021-03-13T12:27:53Z</time>
      </trkpt>
      <trkpt lat="42.8503" lon="0.90605">
        <ele>1515.115</ele>
        <time>2021-03-13T12:27:55Z</time>
      </trkpt>
      <trkpt lat="42.8503" lon="0.90605">
        <ele>1515.114</ele>
        <time>2021-03-13T12:27:57Z</time>
      </trkpt>
      <trkpt lat="42.8503" lon="0.90605">
        <ele>1515.113</ele>
        <time>2021-03-13T12:27:59Z</time>
      </trkpt>
      <trkpt lat="42.8503" lon="0.90605">
        <ele>1515.113</ele>
        <time>2021-03-13T12:28:01Z</time>
      </trkpt>
      <trkpt lat="42.8503" lon="0.90605">
        <ele>1515.111</ele>
        <time>2021-03-13T12:28:03Z</time>
      </trkpt>
      <trkpt lat="42.8503" lon="0.90605">
        <ele>1515.111</ele>
        <time>2021-03-13T12:28:05Z</time>
      </trkpt>
      <trkpt lat="42.8503" lon="0.90605">
        <ele>1515.111</ele>
        <time>2021-03-13T12:28:07Z</time>
      </trkpt>
      <trkpt lat="42.8503" lon="0.90605">
        <ele>1515.109</ele>
        <time>2021-03-13T12:28:09Z</time>
      </trkpt>
      <trkpt lat="42.8503" lon="0.90605">
        <ele>1515.72</ele>
        <time>2021-03-13T12:28:11Z</time>
      </trkpt>
      <trkpt lat="42.8503" lon="0.90605">
        <ele>1515.738</ele>
        <time>2021-03-13T12:28:13Z</time>
      </trkpt>
      <trkpt lat="42.8503" lon="0.90605">
        <ele>1515.732</ele>
        <time>2021-03-13T12:28:15Z</time>
      </trkpt>
      <trkpt lat="42.8503" lon="0.90605">
        <ele>1515.727</ele>
        <time>2021-03-13T12:28:17Z</time>
      </trkpt>
      <trkpt lat="42.8503" lon="0.90605">
        <ele>1515.723</ele>
        <time>2021-03-13T12:28:19Z</time>
      </trkpt>
      <trkpt lat="42.8503" lon="0.90605">
        <ele>1515.722</ele>
        <time>2021-03-13T12:28:21Z</time>
      </trkpt>
      <trkpt lat="42.8503" lon="0.90605">
        <ele>1515.724</ele>
        <time>2021-03-13T12:28:23Z</time>
      </trkpt>
      <trkpt lat="42.8503" lon="0.90605">
        <ele>1515.725</ele>
        <time>2021-03-13T12:28:25Z</time>
      </trkpt>
      <trkpt lat="42.8503" lon="0.90605">
        <ele>1515.724</ele>
        <time>2021-03-13T12:28:27Z</time>
      </trkpt>
      <trkpt lat="42.8503" lon="0.90605">
        <ele>1515.724</ele>
        <time>2021-03-13T12:28:29Z</time>
      </trkpt>
      <trkpt lat="42.8503" lon="0.90605">
        <ele>1515.723</ele>
        <time>2021-03-13T12:28:31Z</time>
      </trkpt>
      <trkpt lat="42.8503" lon="0.90605">
        <ele>1515.723</ele>
        <time>2021-03-13T12:28:33Z</time>
      </trkpt>
      <trkpt lat="42.8503" lon="0.90605">
        <ele>1515.721</ele>
        <time>2021-03-13T12:28:35Z</time>
      </trkpt>
      <trkpt lat="42.8503" lon="0.90605">
        <ele>1515.721</ele>
        <time>2021-03-13T12:28:37Z</time>
      </trkpt>
      <trkpt lat="42.8503" lon="0.90605">
        <ele>1515.721</ele>
        <time>2021-03-13T12:28:39Z</time>
      </trkpt>
      <trkpt lat="42.8503" lon="0.90605">
        <ele>1515.721</ele>
        <time>2021-03-13T12:28:41Z</time>
      </trkpt>
      <trkpt lat="42.8503" lon="0.90605">
        <ele>1515.721</ele>
        <time>2021-03-13T12:28:43Z</time>
      </trkpt>
      <trkpt lat="42.8503" lon="0.90605">
        <ele>1515.721</ele>
        <time>2021-03-13T12:28:45Z</time>
      </trkpt>
      <trkpt lat="42.8503" lon="0.90605">
        <ele>1515.722</ele>
        <time>2021-03-13T12:28:47Z</time>
      </trkpt>
      <trkpt lat="42.8503" lon="0.90605">
        <ele>1515.723</ele>
        <time>2021-03-13T12:28:49Z</time>
      </trkpt>
      <trkpt lat="42.8503" lon="0.90605">
        <ele>1515.723</ele>
        <time>2021-03-13T12:28:51Z</time>
      </trkpt>
      <trkpt lat="42.8503" lon="0.90605">
        <ele>1515.723</ele>
        <time>2021-03-13T12:28:53Z</time>
      </trkpt>
      <trkpt lat="42.8503" lon="0.90605">
        <ele>1515.724</ele>
        <time>2021-03-13T12:28:55Z</time>
      </trkpt>
      <trkpt lat="42.8503" lon="0.90605">
        <ele>1515.726</ele>
        <time>2021-03-13T12:28:57Z</time>
      </trkpt>
      <trkpt lat="42.8503" lon="0.90605">
        <ele>1515.727</ele>
        <time>2021-03-13T12:28:59Z</time>
      </trkpt>
      <trkpt lat="42.8503" lon="0.90605">
        <ele>1515.724</ele>
        <time>2021-03-13T12:29:01Z</time>
      </trkpt>
      <trkpt lat="42.8503" lon="0.90605">
        <ele>1515.726</ele>
        <time>2021-03-13T12:29:03Z</time>
      </trkpt>
      <trkpt lat="42.8503" lon="0.90605">
        <ele>1515.723</ele>
        <time>2021-03-13T12:29:05Z</time>
      </trkpt>
      <trkpt lat="42.8503" lon="0.90605">
        <ele>1515.719</ele>
        <time>2021-03-13T12:29:07Z</time>
      </trkpt>
      <trkpt lat="42.8503" lon="0.90605">
        <ele>1515.713</ele>
        <time>2021-03-13T12:29:09Z</time>
      </trkpt>
      <trkpt lat="42.8503" lon="0.90605">
        <ele>1515.711</ele>
        <time>2021-03-13T12:29:11Z</time>
      </trkpt>
      <trkpt lat="42.8503" lon="0.90605">
        <ele>1515.708</ele>
        <time>2021-03-13T12:29:13Z</time>
      </trkpt>
      <trkpt lat="42.8503" lon="0.90605">
        <ele>1515.705</ele>
        <time>2021-03-13T12:29:15Z</time>
      </trkpt>
      <trkpt lat="42.8503" lon="0.90605">
        <ele>1515.706</ele>
        <time>2021-03-13T12:29:17Z</time>
      </trkpt>
      <trkpt lat="42.8503" lon="0.90605">
        <ele>1515.708</ele>
        <time>2021-03-13T12:29:19Z</time>
      </trkpt>
      <trkpt lat="42.8503" lon="0.90605">
        <ele>1515.708</ele>
        <time>2021-03-13T12:29:21Z</time>
      </trkpt>
      <trkpt lat="42.8503" lon="0.90605">
        <ele>1515.709</ele>
        <time>2021-03-13T12:29:23Z</time>
      </trkpt>
      <trkpt lat="42.8503" lon="0.90605">
        <ele>1515.71</ele>
        <time>2021-03-13T12:29:25Z</time>
      </trkpt>
      <trkpt lat="42.8503" lon="0.90605">
        <ele>1515.711</ele>
        <time>2021-03-13T12:29:27Z</time>
      </trkpt>
      <trkpt lat="42.8503" lon="0.90605">
        <ele>1515.98</ele>
        <time>2021-03-13T12:29:29Z</time>
      </trkpt>
      <trkpt lat="42.8503" lon="0.90605">
        <ele>1515.991</ele>
        <time>2021-03-13T12:29:31Z</time>
      </trkpt>
      <trkpt lat="42.8503" lon="0.90605">
        <ele>1515.992</ele>
        <time>2021-03-13T12:29:33Z</time>
      </trkpt>
      <trkpt lat="42.8503" lon="0.90605">
        <ele>1515.991</ele>
        <time>2021-03-13T12:29:35Z</time>
      </trkpt>
      <trkpt lat="42.8503" lon="0.90605">
        <ele>1515.988</ele>
        <time>2021-03-13T12:29:37Z</time>
      </trkpt>
      <trkpt lat="42.8503" lon="0.90605">
        <ele>1515.988</ele>
        <time>2021-03-13T12:29:39Z</time>
      </trkpt>
      <trkpt lat="42.8503" lon="0.90606">
        <ele>1515.974</ele>
        <time>2021-03-13T12:29:41Z</time>
      </trkpt>
      <trkpt lat="42.8503" lon="0.90606">
        <ele>1515.98</ele>
        <time>2021-03-13T12:29:43Z</time>
      </trkpt>
      <trkpt lat="42.8503" lon="0.90606">
        <ele>1515.984</ele>
        <time>2021-03-13T12:29:45Z</time>
      </trkpt>
      <trkpt lat="42.8503" lon="0.90606">
        <ele>1515.98</ele>
        <time>2021-03-13T12:29:47Z</time>
      </trkpt>
      <trkpt lat="42.8503" lon="0.90606">
        <ele>1515.98</ele>
        <time>2021-03-13T12:29:49Z</time>
      </trkpt>
      <trkpt lat="42.85031" lon="0.90606">
        <ele>1515.812</ele>
        <time>2021-03-13T12:29:51Z</time>
      </trkpt>
      <trkpt lat="42.8503" lon="0.90605">
        <ele>1515.619</ele>
        <time>2021-03-13T12:29:53Z</time>
      </trkpt>
      <trkpt lat="42.8503" lon="0.90605">
        <ele>1515.496</ele>
        <time>2021-03-13T12:29:55Z</time>
      </trkpt>
      <trkpt lat="42.85031" lon="0.90604">
        <ele>1515.415</ele>
        <time>2021-03-13T12:29:58Z</time>
      </trkpt>
      <trkpt lat="42.85031" lon="0.90604">
        <ele>1515.415</ele>
        <time>2021-03-13T12:30:00Z</time>
      </trkpt>
      <trkpt lat="42.85031" lon="0.90604">
        <ele>1515.417</ele>
        <time>2021-03-13T12:30:02Z</time>
      </trkpt>
      <trkpt lat="42.85031" lon="0.90604">
        <ele>1515.416</ele>
        <time>2021-03-13T12:30:04Z</time>
      </trkpt>
      <trkpt lat="42.85031" lon="0.90604">
        <ele>1515.417</ele>
        <time>2021-03-13T12:30:06Z</time>
      </trkpt>
      <trkpt lat="42.85031" lon="0.90604">
        <ele>1515.417</ele>
        <time>2021-03-13T12:30:08Z</time>
      </trkpt>
      <trkpt lat="42.85031" lon="0.90604">
        <ele>1515.416</ele>
        <time>2021-03-13T12:30:10Z</time>
      </trkpt>
      <trkpt lat="42.85031" lon="0.90604">
        <ele>1515.416</ele>
        <time>2021-03-13T12:30:12Z</time>
      </trkpt>
      <trkpt lat="42.85031" lon="0.90604">
        <ele>1515.415</ele>
        <time>2021-03-13T12:30:14Z</time>
      </trkpt>
      <trkpt lat="42.85031" lon="0.90604">
        <ele>1515.414</ele>
        <time>2021-03-13T12:30:16Z</time>
      </trkpt>
      <trkpt lat="42.85031" lon="0.90604">
        <ele>1515.417</ele>
        <time>2021-03-13T12:30:18Z</time>
      </trkpt>
      <trkpt lat="42.85031" lon="0.90604">
        <ele>1515.418</ele>
        <time>2021-03-13T12:30:20Z</time>
      </trkpt>
      <trkpt lat="42.85031" lon="0.90604">
        <ele>1515.418</ele>
        <time>2021-03-13T12:30:22Z</time>
      </trkpt>
      <trkpt lat="42.85031" lon="0.90604">
        <ele>1515.42</ele>
        <time>2021-03-13T12:30:24Z</time>
      </trkpt>
      <trkpt lat="42.85031" lon="0.90604">
        <ele>1515.42</ele>
        <time>2021-03-13T12:30:26Z</time>
      </trkpt>
      <trkpt lat="42.85031" lon="0.90604">
        <ele>1515.419</ele>
        <time>2021-03-13T12:30:28Z</time>
      </trkpt>
      <trkpt lat="42.85031" lon="0.90604">
        <ele>1515.418</ele>
        <time>2021-03-13T12:30:30Z</time>
      </trkpt>
      <trkpt lat="42.85031" lon="0.90604">
        <ele>1515.417</ele>
        <time>2021-03-13T12:30:32Z</time>
      </trkpt>
      <trkpt lat="42.85031" lon="0.90604">
        <ele>1515.416</ele>
        <time>2021-03-13T12:30:34Z</time>
      </trkpt>
      <trkpt lat="42.85031" lon="0.90604">
        <ele>1515.416</ele>
        <time>2021-03-13T12:30:36Z</time>
      </trkpt>
      <trkpt lat="42.85031" lon="0.90604">
        <ele>1515.418</ele>
        <time>2021-03-13T12:30:38Z</time>
      </trkpt>
      <trkpt lat="42.85031" lon="0.90604">
        <ele>1515.417</ele>
        <time>2021-03-13T12:30:40Z</time>
      </trkpt>
      <trkpt lat="42.85031" lon="0.90604">
        <ele>1515.26</ele>
        <time>2021-03-13T12:30:42Z</time>
      </trkpt>
      <trkpt lat="42.85031" lon="0.90604">
        <ele>1515.212</ele>
        <time>2021-03-13T12:30:44Z</time>
      </trkpt>
      <trkpt lat="42.85031" lon="0.90604">
        <ele>1515.213</ele>
        <time>2021-03-13T12:30:46Z</time>
      </trkpt>
      <trkpt lat="42.85031" lon="0.90604">
        <ele>1515.213</ele>
        <time>2021-03-13T12:30:48Z</time>
      </trkpt>
      <trkpt lat="42.85031" lon="0.90604">
        <ele>1515.214</ele>
        <time>2021-03-13T12:30:50Z</time>
      </trkpt>
      <trkpt lat="42.85031" lon="0.90604">
        <ele>1515.213</ele>
        <time>2021-03-13T12:30:52Z</time>
      </trkpt>
      <trkpt lat="42.85031" lon="0.90604">
        <ele>1515.216</ele>
        <time>2021-03-13T12:30:54Z</time>
      </trkpt>
      <trkpt lat="42.85031" lon="0.90604">
        <ele>1515.215</ele>
        <time>2021-03-13T12:30:56Z</time>
      </trkpt>
      <trkpt lat="42.85031" lon="0.90604">
        <ele>1515.216</ele>
        <time>2021-03-13T12:30:58Z</time>
      </trkpt>
      <trkpt lat="42.85031" lon="0.90604">
        <ele>1515.217</ele>
        <time>2021-03-13T12:31:00Z</time>
      </trkpt>
      <trkpt lat="42.85031" lon="0.90604">
        <ele>1515.216</ele>
        <time>2021-03-13T12:31:02Z</time>
      </trkpt>
      <trkpt lat="42.85031" lon="0.90604">
        <ele>1515.216</ele>
        <time>2021-03-13T12:31:04Z</time>
      </trkpt>
      <trkpt lat="42.85031" lon="0.90604">
        <ele>1515.22</ele>
        <time>2021-03-13T12:31:06Z</time>
      </trkpt>
      <trkpt lat="42.85031" lon="0.90604">
        <ele>1515.222</ele>
        <time>2021-03-13T12:31:08Z</time>
      </trkpt>
      <trkpt lat="42.85031" lon="0.90604">
        <ele>1515.223</ele>
        <time>2021-03-13T12:31:10Z</time>
      </trkpt>
      <trkpt lat="42.85031" lon="0.90604">
        <ele>1515.223</ele>
        <time>2021-03-13T12:31:12Z</time>
      </trkpt>
      <trkpt lat="42.85031" lon="0.90604">
        <ele>1515.224</ele>
        <time>2021-03-13T12:31:14Z</time>
      </trkpt>
      <trkpt lat="42.85031" lon="0.90604">
        <ele>1515.224</ele>
        <time>2021-03-13T12:31:16Z</time>
      </trkpt>
      <trkpt lat="42.85031" lon="0.90604">
        <ele>1515.223</ele>
        <time>2021-03-13T12:31:18Z</time>
      </trkpt>
      <trkpt lat="42.85031" lon="0.90604">
        <ele>1515.223</ele>
        <time>2021-03-13T12:31:20Z</time>
      </trkpt>
      <trkpt lat="42.85031" lon="0.90604">
        <ele>1515.227</ele>
        <time>2021-03-13T12:31:22Z</time>
      </trkpt>
      <trkpt lat="42.85031" lon="0.90604">
        <ele>1515.23</ele>
        <time>2021-03-13T12:31:24Z</time>
      </trkpt>
      <trkpt lat="42.85031" lon="0.90604">
        <ele>1515.23</ele>
        <time>2021-03-13T12:31:26Z</time>
      </trkpt>
      <trkpt lat="42.85031" lon="0.90604">
        <ele>1515.232</ele>
        <time>2021-03-13T12:31:28Z</time>
      </trkpt>
      <trkpt lat="42.85031" lon="0.90604">
        <ele>1515.231</ele>
        <time>2021-03-13T12:31:30Z</time>
      </trkpt>
      <trkpt lat="42.85031" lon="0.90604">
        <ele>1515.232</ele>
        <time>2021-03-13T12:31:32Z</time>
      </trkpt>
      <trkpt lat="42.85031" lon="0.90604">
        <ele>1515.231</ele>
        <time>2021-03-13T12:31:34Z</time>
      </trkpt>
      <trkpt lat="42.85031" lon="0.90604">
        <ele>1515.23</ele>
        <time>2021-03-13T12:31:36Z</time>
      </trkpt>
      <trkpt lat="42.85031" lon="0.90604">
        <ele>1515.23</ele>
        <time>2021-03-13T12:31:38Z</time>
      </trkpt>
      <trkpt lat="42.85031" lon="0.90604">
        <ele>1515.23</ele>
        <time>2021-03-13T12:31:40Z</time>
      </trkpt>
      <trkpt lat="42.85031" lon="0.90604">
        <ele>1515.226</ele>
        <time>2021-03-13T12:31:42Z</time>
      </trkpt>
      <trkpt lat="42.85031" lon="0.90604">
        <ele>1515.225</ele>
        <time>2021-03-13T12:31:44Z</time>
      </trkpt>
      <trkpt lat="42.85031" lon="0.90604">
        <ele>1515.222</ele>
        <time>2021-03-13T12:31:46Z</time>
      </trkpt>
      <trkpt lat="42.85031" lon="0.90604">
        <ele>1515.218</ele>
        <time>2021-03-13T12:31:48Z</time>
      </trkpt>
      <trkpt lat="42.85031" lon="0.90604">
        <ele>1515.219</ele>
        <time>2021-03-13T12:31:50Z</time>
      </trkpt>
      <trkpt lat="42.85031" lon="0.90604">
        <ele>1515.221</ele>
        <time>2021-03-13T12:31:52Z</time>
      </trkpt>
      <trkpt lat="42.85031" lon="0.90604">
        <ele>1515.22</ele>
        <time>2021-03-13T12:31:54Z</time>
      </trkpt>
      <trkpt lat="42.85031" lon="0.90604">
        <ele>1515.223</ele>
        <time>2021-03-13T12:31:56Z</time>
      </trkpt>
      <trkpt lat="42.85031" lon="0.90604">
        <ele>1515.221</ele>
        <time>2021-03-13T12:31:58Z</time>
      </trkpt>
      <trkpt lat="42.85031" lon="0.90604">
        <ele>1515.221</ele>
        <time>2021-03-13T12:32:00Z</time>
      </trkpt>
      <trkpt lat="42.85031" lon="0.90604">
        <ele>1515.223</ele>
        <time>2021-03-13T12:32:02Z</time>
      </trkpt>
      <trkpt lat="42.85031" lon="0.90604">
        <ele>1515.223</ele>
        <time>2021-03-13T12:32:04Z</time>
      </trkpt>
      <trkpt lat="42.85031" lon="0.90604">
        <ele>1515.222</ele>
        <time>2021-03-13T12:32:06Z</time>
      </trkpt>
      <trkpt lat="42.85031" lon="0.90604">
        <ele>1515.221</ele>
        <time>2021-03-13T12:32:08Z</time>
      </trkpt>
      <trkpt lat="42.85031" lon="0.90604">
        <ele>1515.218</ele>
        <time>2021-03-13T12:32:10Z</time>
      </trkpt>
      <trkpt lat="42.85031" lon="0.90604">
        <ele>1515.217</ele>
        <time>2021-03-13T12:32:12Z</time>
      </trkpt>
      <trkpt lat="42.85031" lon="0.90604">
        <ele>1515.215</ele>
        <time>2021-03-13T12:32:14Z</time>
      </trkpt>
      <trkpt lat="42.85031" lon="0.90604">
        <ele>1515.212</ele>
        <time>2021-03-13T12:32:16Z</time>
      </trkpt>
      <trkpt lat="42.85031" lon="0.90604">
        <ele>1515.212</ele>
        <time>2021-03-13T12:32:18Z</time>
      </trkpt>
      <trkpt lat="42.8503" lon="0.90605">
        <ele>1515.281</ele>
        <time>2021-03-13T12:32:20Z</time>
      </trkpt>
      <trkpt lat="42.8503" lon="0.90606">
        <ele>1515.965</ele>
        <time>2021-03-13T12:32:22Z</time>
      </trkpt>
      <trkpt lat="42.8503" lon="0.90607">
        <ele>1515.953</ele>
        <time>2021-03-13T12:32:24Z</time>
      </trkpt>
      <trkpt lat="42.8503" lon="0.90607">
        <ele>1515.939</ele>
        <time>2021-03-13T12:32:26Z</time>
      </trkpt>
      <trkpt lat="42.8503" lon="0.90607">
        <ele>1515.929</ele>
        <time>2021-03-13T12:32:28Z</time>
      </trkpt>
      <trkpt lat="42.8503" lon="0.90607">
        <ele>1515.921</ele>
        <time>2021-03-13T12:32:30Z</time>
      </trkpt>
      <trkpt lat="42.8503" lon="0.90608">
        <ele>1515.534</ele>
        <time>2021-03-13T12:32:32Z</time>
      </trkpt>
      <trkpt lat="42.85031" lon="0.90609">
        <ele>1515.381</ele>
        <time>2021-03-13T12:32:34Z</time>
      </trkpt>
      <trkpt lat="42.85031" lon="0.90609">
        <ele>1515.375</ele>
        <time>2021-03-13T12:32:36Z</time>
      </trkpt>
      <trkpt lat="42.85031" lon="0.90609">
        <ele>1515.361</ele>
        <time>2021-03-13T12:32:38Z</time>
      </trkpt>
      <trkpt lat="42.8503" lon="0.90607">
        <ele>1514.605</ele>
        <time>2021-03-13T12:32:40Z</time>
      </trkpt>
      <trkpt lat="42.85029" lon="0.90606">
        <ele>1514.402</ele>
        <time>2021-03-13T12:32:42Z</time>
      </trkpt>
      <trkpt lat="42.85029" lon="0.90606">
        <ele>1514.431</ele>
        <time>2021-03-13T12:32:44Z</time>
      </trkpt>
      <trkpt lat="42.85029" lon="0.90606">
        <ele>1514.253</ele>
        <time>2021-03-13T12:32:46Z</time>
      </trkpt>
      <trkpt lat="42.85029" lon="0.90606">
        <ele>1514.215</ele>
        <time>2021-03-13T12:32:48Z</time>
      </trkpt>
      <trkpt lat="42.85029" lon="0.90605">
        <ele>1514.225</ele>
        <time>2021-03-13T12:32:50Z</time>
      </trkpt>
      <trkpt lat="42.85029" lon="0.90605">
        <ele>1514.223</ele>
        <time>2021-03-13T12:32:52Z</time>
      </trkpt>
      <trkpt lat="42.85029" lon="0.90605">
        <ele>1514.223</ele>
        <time>2021-03-13T12:32:54Z</time>
      </trkpt>
      <trkpt lat="42.85029" lon="0.90606">
        <ele>1514.223</ele>
        <time>2021-03-13T12:32:56Z</time>
      </trkpt>
      <trkpt lat="42.85029" lon="0.90605">
        <ele>1514.223</ele>
        <time>2021-03-13T12:32:58Z</time>
      </trkpt>
      <trkpt lat="42.85029" lon="0.90606">
        <ele>1514.221</ele>
        <time>2021-03-13T12:33:00Z</time>
      </trkpt>
      <trkpt lat="42.85029" lon="0.90605">
        <ele>1514.221</ele>
        <time>2021-03-13T12:33:02Z</time>
      </trkpt>
      <trkpt lat="42.85029" lon="0.90605">
        <ele>1514.219</ele>
        <time>2021-03-13T12:33:04Z</time>
      </trkpt>
      <trkpt lat="42.85029" lon="0.90605">
        <ele>1514.22</ele>
        <time>2021-03-13T12:33:06Z</time>
      </trkpt>
      <trkpt lat="42.85029" lon="0.90605">
        <ele>1514.222</ele>
        <time>2021-03-13T12:33:08Z</time>
      </trkpt>
      <trkpt lat="42.85029" lon="0.90605">
        <ele>1514.223</ele>
        <time>2021-03-13T12:33:10Z</time>
      </trkpt>
      <trkpt lat="42.85029" lon="0.90606">
        <ele>1514.223</ele>
        <time>2021-03-13T12:33:12Z</time>
      </trkpt>
      <trkpt lat="42.85029" lon="0.90606">
        <ele>1514.222</ele>
        <time>2021-03-13T12:33:14Z</time>
      </trkpt>
      <trkpt lat="42.85029" lon="0.90606">
        <ele>1514.223</ele>
        <time>2021-03-13T12:33:16Z</time>
      </trkpt>
      <trkpt lat="42.85029" lon="0.90606">
        <ele>1514.224</ele>
        <time>2021-03-13T12:33:18Z</time>
      </trkpt>
      <trkpt lat="42.85029" lon="0.90606">
        <ele>1514.225</ele>
        <time>2021-03-13T12:33:20Z</time>
      </trkpt>
      <trkpt lat="42.85029" lon="0.90606">
        <ele>1514.224</ele>
        <time>2021-03-13T12:33:22Z</time>
      </trkpt>
      <trkpt lat="42.85029" lon="0.90606">
        <ele>1514.225</ele>
        <time>2021-03-13T12:33:24Z</time>
      </trkpt>
      <trkpt lat="42.85029" lon="0.90606">
        <ele>1514.224</ele>
        <time>2021-03-13T12:33:26Z</time>
      </trkpt>
      <trkpt lat="42.85029" lon="0.90606">
        <ele>1514.226</ele>
        <time>2021-03-13T12:33:28Z</time>
      </trkpt>
      <trkpt lat="42.85029" lon="0.90606">
        <ele>1514.647</ele>
        <time>2021-03-13T12:33:30Z</time>
      </trkpt>
      <trkpt lat="42.85029" lon="0.90606">
        <ele>1514.649</ele>
        <time>2021-03-13T12:33:32Z</time>
      </trkpt>
      <trkpt lat="42.85029" lon="0.90606">
        <ele>1514.652</ele>
        <time>2021-03-13T12:33:34Z</time>
      </trkpt>
      <trkpt lat="42.85029" lon="0.90606">
        <ele>1514.656</ele>
        <time>2021-03-13T12:33:36Z</time>
      </trkpt>
      <trkpt lat="42.85029" lon="0.90606">
        <ele>1514.656</ele>
        <time>2021-03-13T12:33:38Z</time>
      </trkpt>
      <trkpt lat="42.85029" lon="0.90606">
        <ele>1514.657</ele>
        <time>2021-03-13T12:33:40Z</time>
      </trkpt>
      <trkpt lat="42.85029" lon="0.90606">
        <ele>1514.655</ele>
        <time>2021-03-13T12:33:42Z</time>
      </trkpt>
      <trkpt lat="42.85029" lon="0.90606">
        <ele>1514.654</ele>
        <time>2021-03-13T12:33:44Z</time>
      </trkpt>
      <trkpt lat="42.85029" lon="0.90606">
        <ele>1514.651</ele>
        <time>2021-03-13T12:33:46Z</time>
      </trkpt>
      <trkpt lat="42.85029" lon="0.90606">
        <ele>1514.651</ele>
        <time>2021-03-13T12:33:48Z</time>
      </trkpt>
      <trkpt lat="42.85029" lon="0.90606">
        <ele>1514.651</ele>
        <time>2021-03-13T12:33:50Z</time>
      </trkpt>
      <trkpt lat="42.85029" lon="0.90606">
        <ele>1514.65</ele>
        <time>2021-03-13T12:33:52Z</time>
      </trkpt>
      <trkpt lat="42.85029" lon="0.90606">
        <ele>1514.649</ele>
        <time>2021-03-13T12:33:54Z</time>
      </trkpt>
      <trkpt lat="42.85029" lon="0.90606">
        <ele>1514.648</ele>
        <time>2021-03-13T12:33:56Z</time>
      </trkpt>
      <trkpt lat="42.85029" lon="0.90606">
        <ele>1514.65</ele>
        <time>2021-03-13T12:33:58Z</time>
      </trkpt>
      <trkpt lat="42.85029" lon="0.90606">
        <ele>1514.65</ele>
        <time>2021-03-13T12:34:00Z</time>
      </trkpt>
      <trkpt lat="42.85029" lon="0.90606">
        <ele>1514.648</ele>
        <time>2021-03-13T12:34:02Z</time>
      </trkpt>
      <trkpt lat="42.85029" lon="0.90606">
        <ele>1514.648</ele>
        <time>2021-03-13T12:34:04Z</time>
      </trkpt>
      <trkpt lat="42.85029" lon="0.90606">
        <ele>1514.647</ele>
        <time>2021-03-13T12:34:06Z</time>
      </trkpt>
      <trkpt lat="42.85029" lon="0.90606">
        <ele>1514.649</ele>
        <time>2021-03-13T12:34:08Z</time>
      </trkpt>
      <trkpt lat="42.85029" lon="0.90606">
        <ele>1514.646</ele>
        <time>2021-03-13T12:34:10Z</time>
      </trkpt>
      <trkpt lat="42.85029" lon="0.90606">
        <ele>1514.646</ele>
        <time>2021-03-13T12:34:12Z</time>
      </trkpt>
      <trkpt lat="42.85029" lon="0.90606">
        <ele>1514.647</ele>
        <time>2021-03-13T12:34:14Z</time>
      </trkpt>
      <trkpt lat="42.85029" lon="0.90606">
        <ele>1514.649</ele>
        <time>2021-03-13T12:34:16Z</time>
      </trkpt>
      <trkpt lat="42.85029" lon="0.90606">
        <ele>1514.648</ele>
        <time>2021-03-13T12:34:18Z</time>
      </trkpt>
      <trkpt lat="42.85029" lon="0.90606">
        <ele>1514.65</ele>
        <time>2021-03-13T12:34:20Z</time>
      </trkpt>
      <trkpt lat="42.85029" lon="0.90606">
        <ele>1514.653</ele>
        <time>2021-03-13T12:34:22Z</time>
      </trkpt>
      <trkpt lat="42.85029" lon="0.90606">
        <ele>1514.65</ele>
        <time>2021-03-13T12:34:24Z</time>
      </trkpt>
      <trkpt lat="42.85029" lon="0.90606">
        <ele>1514.648</ele>
        <time>2021-03-13T12:34:26Z</time>
      </trkpt>
      <trkpt lat="42.85029" lon="0.90606">
        <ele>1514.649</ele>
        <time>2021-03-13T12:34:28Z</time>
      </trkpt>
      <trkpt lat="42.85029" lon="0.90606">
        <ele>1514.651</ele>
        <time>2021-03-13T12:34:30Z</time>
      </trkpt>
      <trkpt lat="42.85029" lon="0.90606">
        <ele>1514.654</ele>
        <time>2021-03-13T12:34:32Z</time>
      </trkpt>
      <trkpt lat="42.85029" lon="0.90606">
        <ele>1514.657</ele>
        <time>2021-03-13T12:34:34Z</time>
      </trkpt>
      <trkpt lat="42.85029" lon="0.90606">
        <ele>1514.653</ele>
        <time>2021-03-13T12:34:36Z</time>
      </trkpt>
      <trkpt lat="42.85029" lon="0.90606">
        <ele>1514.653</ele>
        <time>2021-03-13T12:34:38Z</time>
      </trkpt>
      <trkpt lat="42.85029" lon="0.90606">
        <ele>1514.652</ele>
        <time>2021-03-13T12:34:40Z</time>
      </trkpt>
      <trkpt lat="42.85029" lon="0.90606">
        <ele>1514.651</ele>
        <time>2021-03-13T12:34:42Z</time>
      </trkpt>
      <trkpt lat="42.85029" lon="0.90606">
        <ele>1514.654</ele>
        <time>2021-03-13T12:34:44Z</time>
      </trkpt>
      <trkpt lat="42.85029" lon="0.90606">
        <ele>1514.657</ele>
        <time>2021-03-13T12:34:46Z</time>
      </trkpt>
      <trkpt lat="42.85029" lon="0.90606">
        <ele>1514.656</ele>
        <time>2021-03-13T12:34:48Z</time>
      </trkpt>
      <trkpt lat="42.85029" lon="0.90606">
        <ele>1514.66</ele>
        <time>2021-03-13T12:34:50Z</time>
      </trkpt>
      <trkpt lat="42.85029" lon="0.90606">
        <ele>1514.658</ele>
        <time>2021-03-13T12:34:52Z</time>
      </trkpt>
      <trkpt lat="42.85029" lon="0.90606">
        <ele>1514.657</ele>
        <time>2021-03-13T12:34:54Z</time>
      </trkpt>
      <trkpt lat="42.85029" lon="0.90606">
        <ele>1514.656</ele>
        <time>2021-03-13T12:34:56Z</time>
      </trkpt>
      <trkpt lat="42.85029" lon="0.90606">
        <ele>1514.654</ele>
        <time>2021-03-13T12:34:58Z</time>
      </trkpt>
      <trkpt lat="42.85029" lon="0.90606">
        <ele>1514.655</ele>
        <time>2021-03-13T12:35:00Z</time>
      </trkpt>
      <trkpt lat="42.85029" lon="0.90606">
        <ele>1514.656</ele>
        <time>2021-03-13T12:35:02Z</time>
      </trkpt>
      <trkpt lat="42.85029" lon="0.90606">
        <ele>1514.653</ele>
        <time>2021-03-13T12:35:04Z</time>
      </trkpt>
      <trkpt lat="42.85029" lon="0.90606">
        <ele>1514.65</ele>
        <time>2021-03-13T12:35:06Z</time>
      </trkpt>
      <trkpt lat="42.85029" lon="0.90606">
        <ele>1514.649</ele>
        <time>2021-03-13T12:35:08Z</time>
      </trkpt>
      <trkpt lat="42.85029" lon="0.90606">
        <ele>1514.644</ele>
        <time>2021-03-13T12:35:10Z</time>
      </trkpt>
      <trkpt lat="42.85029" lon="0.90606">
        <ele>1514.645</ele>
        <time>2021-03-13T12:35:12Z</time>
      </trkpt>
      <trkpt lat="42.85029" lon="0.90606">
        <ele>1514.648</ele>
        <time>2021-03-13T12:35:14Z</time>
      </trkpt>
      <trkpt lat="42.85029" lon="0.90606">
        <ele>1514.652</ele>
        <time>2021-03-13T12:35:16Z</time>
      </trkpt>
      <trkpt lat="42.85029" lon="0.90606">
        <ele>1514.653</ele>
        <time>2021-03-13T12:35:18Z</time>
      </trkpt>
      <trkpt lat="42.85029" lon="0.90606">
        <ele>1514.657</ele>
        <time>2021-03-13T12:35:20Z</time>
      </trkpt>
      <trkpt lat="42.85029" lon="0.90606">
        <ele>1514.661</ele>
        <time>2021-03-13T12:35:22Z</time>
      </trkpt>
      <trkpt lat="42.85029" lon="0.90606">
        <ele>1514.661</ele>
        <time>2021-03-13T12:35:24Z</time>
      </trkpt>
      <trkpt lat="42.85029" lon="0.90606">
        <ele>1514.664</ele>
        <time>2021-03-13T12:35:26Z</time>
      </trkpt>
      <trkpt lat="42.85029" lon="0.90606">
        <ele>1514.663</ele>
        <time>2021-03-13T12:35:28Z</time>
      </trkpt>
      <trkpt lat="42.85029" lon="0.90606">
        <ele>1514.662</ele>
        <time>2021-03-13T12:35:30Z</time>
      </trkpt>
      <trkpt lat="42.85029" lon="0.90606">
        <ele>1514.664</ele>
        <time>2021-03-13T12:35:32Z</time>
      </trkpt>
      <trkpt lat="42.85029" lon="0.90606">
        <ele>1514.663</ele>
        <time>2021-03-13T12:35:34Z</time>
      </trkpt>
      <trkpt lat="42.85029" lon="0.90606">
        <ele>1514.663</ele>
        <time>2021-03-13T12:35:36Z</time>
      </trkpt>
      <trkpt lat="42.85029" lon="0.90606">
        <ele>1514.659</ele>
        <time>2021-03-13T12:35:38Z</time>
      </trkpt>
      <trkpt lat="42.85029" lon="0.90606">
        <ele>1514.658</ele>
        <time>2021-03-13T12:35:40Z</time>
      </trkpt>
      <trkpt lat="42.85029" lon="0.90606">
        <ele>1514.659</ele>
        <time>2021-03-13T12:35:42Z</time>
      </trkpt>
      <trkpt lat="42.85029" lon="0.90606">
        <ele>1514.659</ele>
        <time>2021-03-13T12:35:44Z</time>
      </trkpt>
      <trkpt lat="42.85029" lon="0.90606">
        <ele>1514.663</ele>
        <time>2021-03-13T12:35:46Z</time>
      </trkpt>
      <trkpt lat="42.85029" lon="0.90606">
        <ele>1514.666</ele>
        <time>2021-03-13T12:35:48Z</time>
      </trkpt>
      <trkpt lat="42.85029" lon="0.90606">
        <ele>1514.666</ele>
        <time>2021-03-13T12:35:50Z</time>
      </trkpt>
      <trkpt lat="42.85029" lon="0.90606">
        <ele>1514.665</ele>
        <time>2021-03-13T12:35:52Z</time>
      </trkpt>
      <trkpt lat="42.85029" lon="0.90606">
        <ele>1514.663</ele>
        <time>2021-03-13T12:35:54Z</time>
      </trkpt>
      <trkpt lat="42.85029" lon="0.90606">
        <ele>1514.663</ele>
        <time>2021-03-13T12:35:56Z</time>
      </trkpt>
      <trkpt lat="42.85029" lon="0.90606">
        <ele>1514.664</ele>
        <time>2021-03-13T12:35:58Z</time>
      </trkpt>
      <trkpt lat="42.85029" lon="0.90606">
        <ele>1514.669</ele>
        <time>2021-03-13T12:36:00Z</time>
      </trkpt>
      <trkpt lat="42.85029" lon="0.90606">
        <ele>1514.67</ele>
        <time>2021-03-13T12:36:02Z</time>
      </trkpt>
      <trkpt lat="42.85029" lon="0.90606">
        <ele>1514.669</ele>
        <time>2021-03-13T12:36:04Z</time>
      </trkpt>
      <trkpt lat="42.85029" lon="0.90606">
        <ele>1514.669</ele>
        <time>2021-03-13T12:36:06Z</time>
      </trkpt>
      <trkpt lat="42.85029" lon="0.90606">
        <ele>1514.667</ele>
        <time>2021-03-13T12:36:08Z</time>
      </trkpt>
      <trkpt lat="42.85029" lon="0.90606">
        <ele>1514.668</ele>
        <time>2021-03-13T12:36:10Z</time>
      </trkpt>
      <trkpt lat="42.85029" lon="0.90606">
        <ele>1514.67</ele>
        <time>2021-03-13T12:36:12Z</time>
      </trkpt>
      <trkpt lat="42.85029" lon="0.90606">
        <ele>1514.672</ele>
        <time>2021-03-13T12:36:14Z</time>
      </trkpt>
      <trkpt lat="42.85029" lon="0.90606">
        <ele>1514.676</ele>
        <time>2021-03-13T12:36:16Z</time>
      </trkpt>
      <trkpt lat="42.85029" lon="0.90606">
        <ele>1514.679</ele>
        <time>2021-03-13T12:36:18Z</time>
      </trkpt>
      <trkpt lat="42.85029" lon="0.90606">
        <ele>1514.682</ele>
        <time>2021-03-13T12:36:20Z</time>
      </trkpt>
      <trkpt lat="42.85029" lon="0.90606">
        <ele>1514.685</ele>
        <time>2021-03-13T12:36:22Z</time>
      </trkpt>
      <trkpt lat="42.85029" lon="0.90606">
        <ele>1514.685</ele>
        <time>2021-03-13T12:36:24Z</time>
      </trkpt>
      <trkpt lat="42.85029" lon="0.90606">
        <ele>1514.683</ele>
        <time>2021-03-13T12:36:26Z</time>
      </trkpt>
      <trkpt lat="42.85029" lon="0.90606">
        <ele>1514.686</ele>
        <time>2021-03-13T12:36:28Z</time>
      </trkpt>
      <trkpt lat="42.85029" lon="0.90606">
        <ele>1514.803</ele>
        <time>2021-03-13T12:36:30Z</time>
      </trkpt>
      <trkpt lat="42.85029" lon="0.90606">
        <ele>1514.817</ele>
        <time>2021-03-13T12:36:32Z</time>
      </trkpt>
      <trkpt lat="42.85029" lon="0.90606">
        <ele>1514.82</ele>
        <time>2021-03-13T12:36:34Z</time>
      </trkpt>
      <trkpt lat="42.85029" lon="0.90606">
        <ele>1514.824</ele>
        <time>2021-03-13T12:36:36Z</time>
      </trkpt>
      <trkpt lat="42.85029" lon="0.90606">
        <ele>1514.828</ele>
        <time>2021-03-13T12:36:38Z</time>
      </trkpt>
      <trkpt lat="42.85029" lon="0.90606">
        <ele>1514.827</ele>
        <time>2021-03-13T12:36:40Z</time>
      </trkpt>
      <trkpt lat="42.85029" lon="0.90606">
        <ele>1514.831</ele>
        <time>2021-03-13T12:36:42Z</time>
      </trkpt>
      <trkpt lat="42.85029" lon="0.90606">
        <ele>1514.832</ele>
        <time>2021-03-13T12:36:44Z</time>
      </trkpt>
      <trkpt lat="42.85029" lon="0.90606">
        <ele>1514.834</ele>
        <time>2021-03-13T12:36:46Z</time>
      </trkpt>
      <trkpt lat="42.85029" lon="0.90606">
        <ele>1514.834</ele>
        <time>2021-03-13T12:36:48Z</time>
      </trkpt>
      <trkpt lat="42.85029" lon="0.90606">
        <ele>1514.836</ele>
        <time>2021-03-13T12:36:50Z</time>
      </trkpt>
      <trkpt lat="42.85029" lon="0.90606">
        <ele>1514.839</ele>
        <time>2021-03-13T12:36:52Z</time>
      </trkpt>
      <trkpt lat="42.85029" lon="0.90606">
        <ele>1514.842</ele>
        <time>2021-03-13T12:36:54Z</time>
      </trkpt>
      <trkpt lat="42.85029" lon="0.90606">
        <ele>1514.842</ele>
        <time>2021-03-13T12:36:56Z</time>
      </trkpt>
      <trkpt lat="42.85029" lon="0.90606">
        <ele>1514.839</ele>
        <time>2021-03-13T12:36:58Z</time>
      </trkpt>
      <trkpt lat="42.85029" lon="0.90606">
        <ele>1514.837</ele>
        <time>2021-03-13T12:37:00Z</time>
      </trkpt>
      <trkpt lat="42.85029" lon="0.90606">
        <ele>1514.836</ele>
        <time>2021-03-13T12:37:02Z</time>
      </trkpt>
      <trkpt lat="42.85029" lon="0.90606">
        <ele>1514.836</ele>
        <time>2021-03-13T12:37:04Z</time>
      </trkpt>
      <trkpt lat="42.85029" lon="0.90606">
        <ele>1514.836</ele>
        <time>2021-03-13T12:37:06Z</time>
      </trkpt>
      <trkpt lat="42.85029" lon="0.90606">
        <ele>1514.837</ele>
        <time>2021-03-13T12:37:08Z</time>
      </trkpt>
      <trkpt lat="42.85029" lon="0.90606">
        <ele>1514.84</ele>
        <time>2021-03-13T12:37:10Z</time>
      </trkpt>
      <trkpt lat="42.85029" lon="0.90606">
        <ele>1514.841</ele>
        <time>2021-03-13T12:37:12Z</time>
      </trkpt>
      <trkpt lat="42.85029" lon="0.90606">
        <ele>1514.843</ele>
        <time>2021-03-13T12:37:14Z</time>
      </trkpt>
      <trkpt lat="42.85029" lon="0.90606">
        <ele>1514.842</ele>
        <time>2021-03-13T12:37:16Z</time>
      </trkpt>
      <trkpt lat="42.85029" lon="0.90606">
        <ele>1514.84</ele>
        <time>2021-03-13T12:37:18Z</time>
      </trkpt>
      <trkpt lat="42.85029" lon="0.90606">
        <ele>1514.841</ele>
        <time>2021-03-13T12:37:20Z</time>
      </trkpt>
      <trkpt lat="42.85029" lon="0.90606">
        <ele>1514.843</ele>
        <time>2021-03-13T12:37:22Z</time>
      </trkpt>
      <trkpt lat="42.85029" lon="0.90606">
        <ele>1514.84</ele>
        <time>2021-03-13T12:37:24Z</time>
      </trkpt>
      <trkpt lat="42.85029" lon="0.90606">
        <ele>1514.839</ele>
        <time>2021-03-13T12:37:26Z</time>
      </trkpt>
      <trkpt lat="42.85029" lon="0.90606">
        <ele>1514.84</ele>
        <time>2021-03-13T12:37:28Z</time>
      </trkpt>
      <trkpt lat="42.85029" lon="0.90606">
        <ele>1514.839</ele>
        <time>2021-03-13T12:37:30Z</time>
      </trkpt>
      <trkpt lat="42.85029" lon="0.90606">
        <ele>1514.838</ele>
        <time>2021-03-13T12:37:32Z</time>
      </trkpt>
      <trkpt lat="42.85029" lon="0.90606">
        <ele>1514.842</ele>
        <time>2021-03-13T12:37:34Z</time>
      </trkpt>
      <trkpt lat="42.85029" lon="0.90606">
        <ele>1514.84</ele>
        <time>2021-03-13T12:37:36Z</time>
      </trkpt>
      <trkpt lat="42.85029" lon="0.90606">
        <ele>1514.841</ele>
        <time>2021-03-13T12:37:38Z</time>
      </trkpt>
      <trkpt lat="42.85029" lon="0.90606">
        <ele>1514.847</ele>
        <time>2021-03-13T12:37:40Z</time>
      </trkpt>
      <trkpt lat="42.85029" lon="0.90606">
        <ele>1514.847</ele>
        <time>2021-03-13T12:37:42Z</time>
      </trkpt>
      <trkpt lat="42.85029" lon="0.90606">
        <ele>1514.849</ele>
        <time>2021-03-13T12:37:44Z</time>
      </trkpt>
      <trkpt lat="42.85029" lon="0.90606">
        <ele>1514.854</ele>
        <time>2021-03-13T12:37:46Z</time>
      </trkpt>
      <trkpt lat="42.85029" lon="0.90606">
        <ele>1514.853</ele>
        <time>2021-03-13T12:37:48Z</time>
      </trkpt>
      <trkpt lat="42.85029" lon="0.90606">
        <ele>1514.852</ele>
        <time>2021-03-13T12:37:50Z</time>
      </trkpt>
      <trkpt lat="42.85029" lon="0.90606">
        <ele>1514.85</ele>
        <time>2021-03-13T12:37:52Z</time>
      </trkpt>
      <trkpt lat="42.85029" lon="0.90606">
        <ele>1514.848</ele>
        <time>2021-03-13T12:37:54Z</time>
      </trkpt>
      <trkpt lat="42.85029" lon="0.90606">
        <ele>1514.848</ele>
        <time>2021-03-13T12:37:56Z</time>
      </trkpt>
      <trkpt lat="42.85029" lon="0.90606">
        <ele>1514.851</ele>
        <time>2021-03-13T12:37:58Z</time>
      </trkpt>
      <trkpt lat="42.85029" lon="0.90606">
        <ele>1514.851</ele>
        <time>2021-03-13T12:38:00Z</time>
      </trkpt>
      <trkpt lat="42.85029" lon="0.90606">
        <ele>1514.853</ele>
        <time>2021-03-13T12:38:02Z</time>
      </trkpt>
      <trkpt lat="42.85029" lon="0.90606">
        <ele>1514.851</ele>
        <time>2021-03-13T12:38:04Z</time>
      </trkpt>
      <trkpt lat="42.85029" lon="0.90606">
        <ele>1514.853</ele>
        <time>2021-03-13T12:38:06Z</time>
      </trkpt>
      <trkpt lat="42.85029" lon="0.90606">
        <ele>1514.852</ele>
        <time>2021-03-13T12:38:08Z</time>
      </trkpt>
      <trkpt lat="42.85029" lon="0.90606">
        <ele>1514.856</ele>
        <time>2021-03-13T12:38:10Z</time>
      </trkpt>
      <trkpt lat="42.85029" lon="0.90606">
        <ele>1514.857</ele>
        <time>2021-03-13T12:38:12Z</time>
      </trkpt>
      <trkpt lat="42.85029" lon="0.90606">
        <ele>1514.853</ele>
        <time>2021-03-13T12:38:14Z</time>
      </trkpt>
      <trkpt lat="42.85029" lon="0.90606">
        <ele>1514.854</ele>
        <time>2021-03-13T12:38:16Z</time>
      </trkpt>
      <trkpt lat="42.85029" lon="0.90606">
        <ele>1514.611</ele>
        <time>2021-03-13T12:38:18Z</time>
      </trkpt>
      <trkpt lat="42.8503" lon="0.90606">
        <ele>1514.697</ele>
        <time>2021-03-13T12:38:20Z</time>
      </trkpt>
      <trkpt lat="42.8503" lon="0.90606">
        <ele>1514.678</ele>
        <time>2021-03-13T12:38:22Z</time>
      </trkpt>
      <trkpt lat="42.85029" lon="0.90606">
        <ele>1514.619</ele>
        <time>2021-03-13T12:38:24Z</time>
      </trkpt>
      <trkpt lat="42.85029" lon="0.90606">
        <ele>1514.624</ele>
        <time>2021-03-13T12:38:26Z</time>
      </trkpt>
      <trkpt lat="42.85029" lon="0.90606">
        <ele>1514.623</ele>
        <time>2021-03-13T12:38:28Z</time>
      </trkpt>
      <trkpt lat="42.85029" lon="0.90606">
        <ele>1514.625</ele>
        <time>2021-03-13T12:38:30Z</time>
      </trkpt>
      <trkpt lat="42.85029" lon="0.90606">
        <ele>1514.629</ele>
        <time>2021-03-13T12:38:32Z</time>
      </trkpt>
      <trkpt lat="42.85029" lon="0.90606">
        <ele>1514.631</ele>
        <time>2021-03-13T12:38:34Z</time>
      </trkpt>
      <trkpt lat="42.85029" lon="0.90606">
        <ele>1514.633</ele>
        <time>2021-03-13T12:38:36Z</time>
      </trkpt>
      <trkpt lat="42.85029" lon="0.90606">
        <ele>1514.633</ele>
        <time>2021-03-13T12:38:38Z</time>
      </trkpt>
      <trkpt lat="42.85029" lon="0.90606">
        <ele>1514.635</ele>
        <time>2021-03-13T12:38:40Z</time>
      </trkpt>
      <trkpt lat="42.85029" lon="0.90606">
        <ele>1514.636</ele>
        <time>2021-03-13T12:38:42Z</time>
      </trkpt>
      <trkpt lat="42.85029" lon="0.90606">
        <ele>1514.638</ele>
        <time>2021-03-13T12:38:44Z</time>
      </trkpt>
      <trkpt lat="42.85029" lon="0.90606">
        <ele>1514.637</ele>
        <time>2021-03-13T12:38:46Z</time>
      </trkpt>
      <trkpt lat="42.85029" lon="0.90606">
        <ele>1514.634</ele>
        <time>2021-03-13T12:38:48Z</time>
      </trkpt>
      <trkpt lat="42.85029" lon="0.90606">
        <ele>1514.637</ele>
        <time>2021-03-13T12:38:50Z</time>
      </trkpt>
      <trkpt lat="42.85029" lon="0.90606">
        <ele>1514.634</ele>
        <time>2021-03-13T12:38:52Z</time>
      </trkpt>
      <trkpt lat="42.85029" lon="0.90606">
        <ele>1514.64</ele>
        <time>2021-03-13T12:38:54Z</time>
      </trkpt>
      <trkpt lat="42.85029" lon="0.90606">
        <ele>1514.639</ele>
        <time>2021-03-13T12:38:56Z</time>
      </trkpt>
      <trkpt lat="42.85029" lon="0.90606">
        <ele>1514.639</ele>
        <time>2021-03-13T12:38:58Z</time>
      </trkpt>
      <trkpt lat="42.85029" lon="0.90606">
        <ele>1514.634</ele>
        <time>2021-03-13T12:39:00Z</time>
      </trkpt>
      <trkpt lat="42.85029" lon="0.90606">
        <ele>1514.633</ele>
        <time>2021-03-13T12:39:02Z</time>
      </trkpt>
      <trkpt lat="42.85029" lon="0.90606">
        <ele>1514.635</ele>
        <time>2021-03-13T12:39:04Z</time>
      </trkpt>
      <trkpt lat="42.85029" lon="0.90606">
        <ele>1514.636</ele>
        <time>2021-03-13T12:39:06Z</time>
      </trkpt>
      <trkpt lat="42.85029" lon="0.90606">
        <ele>1514.639</ele>
        <time>2021-03-13T12:39:08Z</time>
      </trkpt>
      <trkpt lat="42.85029" lon="0.90606">
        <ele>1514.641</ele>
        <time>2021-03-13T12:39:10Z</time>
      </trkpt>
      <trkpt lat="42.85029" lon="0.90606">
        <ele>1514.64</ele>
        <time>2021-03-13T12:39:12Z</time>
      </trkpt>
      <trkpt lat="42.85029" lon="0.90606">
        <ele>1514.64</ele>
        <time>2021-03-13T12:39:14Z</time>
      </trkpt>
      <trkpt lat="42.85029" lon="0.90606">
        <ele>1514.64</ele>
        <time>2021-03-13T12:39:16Z</time>
      </trkpt>
      <trkpt lat="42.85029" lon="0.90606">
        <ele>1514.641</ele>
        <time>2021-03-13T12:39:18Z</time>
      </trkpt>
      <trkpt lat="42.85029" lon="0.90606">
        <ele>1514.64</ele>
        <time>2021-03-13T12:39:20Z</time>
      </trkpt>
      <trkpt lat="42.85029" lon="0.90606">
        <ele>1514.64</ele>
        <time>2021-03-13T12:39:22Z</time>
      </trkpt>
      <trkpt lat="42.85029" lon="0.90606">
        <ele>1514.64</ele>
        <time>2021-03-13T12:39:24Z</time>
      </trkpt>
      <trkpt lat="42.85029" lon="0.90606">
        <ele>1514.639</ele>
        <time>2021-03-13T12:39:26Z</time>
      </trkpt>
      <trkpt lat="42.85029" lon="0.90606">
        <ele>1514.64</ele>
        <time>2021-03-13T12:39:28Z</time>
      </trkpt>
      <trkpt lat="42.85029" lon="0.90606">
        <ele>1514.638</ele>
        <time>2021-03-13T12:39:30Z</time>
      </trkpt>
      <trkpt lat="42.85029" lon="0.90606">
        <ele>1514.637</ele>
        <time>2021-03-13T12:39:32Z</time>
      </trkpt>
      <trkpt lat="42.85029" lon="0.90606">
        <ele>1514.638</ele>
        <time>2021-03-13T12:39:34Z</time>
      </trkpt>
      <trkpt lat="42.85029" lon="0.90606">
        <ele>1514.639</ele>
        <time>2021-03-13T12:39:36Z</time>
      </trkpt>
      <trkpt lat="42.85029" lon="0.90606">
        <ele>1514.636</ele>
        <time>2021-03-13T12:39:38Z</time>
      </trkpt>
      <trkpt lat="42.85029" lon="0.90606">
        <ele>1514.639</ele>
        <time>2021-03-13T12:39:40Z</time>
      </trkpt>
      <trkpt lat="42.85029" lon="0.90606">
        <ele>1514.637</ele>
        <time>2021-03-13T12:39:42Z</time>
      </trkpt>
      <trkpt lat="42.85029" lon="0.90606">
        <ele>1514.637</ele>
        <time>2021-03-13T12:39:44Z</time>
      </trkpt>
      <trkpt lat="42.85029" lon="0.90606">
        <ele>1514.636</ele>
        <time>2021-03-13T12:39:46Z</time>
      </trkpt>
      <trkpt lat="42.85029" lon="0.90606">
        <ele>1514.635</ele>
        <time>2021-03-13T12:39:48Z</time>
      </trkpt>
      <trkpt lat="42.85029" lon="0.90606">
        <ele>1514.631</ele>
        <time>2021-03-13T12:39:50Z</time>
      </trkpt>
      <trkpt lat="42.85029" lon="0.90606">
        <ele>1514.634</ele>
        <time>2021-03-13T12:39:52Z</time>
      </trkpt>
      <trkpt lat="42.85029" lon="0.90606">
        <ele>1514.638</ele>
        <time>2021-03-13T12:39:54Z</time>
      </trkpt>
      <trkpt lat="42.85029" lon="0.90606">
        <ele>1514.639</ele>
        <time>2021-03-13T12:39:56Z</time>
      </trkpt>
      <trkpt lat="42.85029" lon="0.90606">
        <ele>1514.639</ele>
        <time>2021-03-13T12:39:58Z</time>
      </trkpt>
      <trkpt lat="42.85029" lon="0.90606">
        <ele>1514.64</ele>
        <time>2021-03-13T12:40:00Z</time>
      </trkpt>
      <trkpt lat="42.85029" lon="0.90606">
        <ele>1514.642</ele>
        <time>2021-03-13T12:40:02Z</time>
      </trkpt>
      <trkpt lat="42.85029" lon="0.90606">
        <ele>1514.647</ele>
        <time>2021-03-13T12:40:04Z</time>
      </trkpt>
      <trkpt lat="42.85029" lon="0.90606">
        <ele>1514.647</ele>
        <time>2021-03-13T12:40:06Z</time>
      </trkpt>
      <trkpt lat="42.85029" lon="0.90606">
        <ele>1514.648</ele>
        <time>2021-03-13T12:40:08Z</time>
      </trkpt>
      <trkpt lat="42.85029" lon="0.90606">
        <ele>1514.649</ele>
        <time>2021-03-13T12:40:10Z</time>
      </trkpt>
      <trkpt lat="42.85029" lon="0.90606">
        <ele>1514.649</ele>
        <time>2021-03-13T12:40:12Z</time>
      </trkpt>
      <trkpt lat="42.85029" lon="0.90606">
        <ele>1514.651</ele>
        <time>2021-03-13T12:40:14Z</time>
      </trkpt>
      <trkpt lat="42.85029" lon="0.90606">
        <ele>1514.647</ele>
        <time>2021-03-13T12:40:16Z</time>
      </trkpt>
      <trkpt lat="42.85029" lon="0.90606">
        <ele>1514.645</ele>
        <time>2021-03-13T12:40:18Z</time>
      </trkpt>
      <trkpt lat="42.85029" lon="0.90606">
        <ele>1514.647</ele>
        <time>2021-03-13T12:40:20Z</time>
      </trkpt>
      <trkpt lat="42.85029" lon="0.90606">
        <ele>1514.647</ele>
        <time>2021-03-13T12:40:22Z</time>
      </trkpt>
      <trkpt lat="42.85029" lon="0.90606">
        <ele>1514.65</ele>
        <time>2021-03-13T12:40:24Z</time>
      </trkpt>
      <trkpt lat="42.85029" lon="0.90606">
        <ele>1514.653</ele>
        <time>2021-03-13T12:40:26Z</time>
      </trkpt>
      <trkpt lat="42.85029" lon="0.90606">
        <ele>1514.653</ele>
        <time>2021-03-13T12:40:28Z</time>
      </trkpt>
      <trkpt lat="42.85029" lon="0.90606">
        <ele>1514.652</ele>
        <time>2021-03-13T12:40:30Z</time>
      </trkpt>
      <trkpt lat="42.85029" lon="0.90606">
        <ele>1514.652</ele>
        <time>2021-03-13T12:40:32Z</time>
      </trkpt>
      <trkpt lat="42.85029" lon="0.90606">
        <ele>1514.65</ele>
        <time>2021-03-13T12:40:34Z</time>
      </trkpt>
      <trkpt lat="42.85029" lon="0.90606">
        <ele>1514.645</ele>
        <time>2021-03-13T12:40:36Z</time>
      </trkpt>
      <trkpt lat="42.85029" lon="0.90606">
        <ele>1514.643</ele>
        <time>2021-03-13T12:40:38Z</time>
      </trkpt>
      <trkpt lat="42.85029" lon="0.90606">
        <ele>1514.645</ele>
        <time>2021-03-13T12:40:40Z</time>
      </trkpt>
      <trkpt lat="42.85029" lon="0.90606">
        <ele>1514.641</ele>
        <time>2021-03-13T12:40:42Z</time>
      </trkpt>
      <trkpt lat="42.85029" lon="0.90606">
        <ele>1514.644</ele>
        <time>2021-03-13T12:40:44Z</time>
      </trkpt>
      <trkpt lat="42.85029" lon="0.90606">
        <ele>1514.642</ele>
        <time>2021-03-13T12:40:46Z</time>
      </trkpt>
      <trkpt lat="42.85029" lon="0.90606">
        <ele>1514.641</ele>
        <time>2021-03-13T12:40:48Z</time>
      </trkpt>
      <trkpt lat="42.85029" lon="0.90606">
        <ele>1514.643</ele>
        <time>2021-03-13T12:40:50Z</time>
      </trkpt>
      <trkpt lat="42.85029" lon="0.90606">
        <ele>1514.645</ele>
        <time>2021-03-13T12:40:52Z</time>
      </trkpt>
      <trkpt lat="42.85029" lon="0.90606">
        <ele>1514.647</ele>
        <time>2021-03-13T12:40:54Z</time>
      </trkpt>
      <trkpt lat="42.85029" lon="0.90606">
        <ele>1514.648</ele>
        <time>2021-03-13T12:40:56Z</time>
      </trkpt>
      <trkpt lat="42.85029" lon="0.90606">
        <ele>1514.647</ele>
        <time>2021-03-13T12:40:58Z</time>
      </trkpt>
      <trkpt lat="42.85029" lon="0.90606">
        <ele>1514.646</ele>
        <time>2021-03-13T12:41:00Z</time>
      </trkpt>
      <trkpt lat="42.85029" lon="0.90606">
        <ele>1514.649</ele>
        <time>2021-03-13T12:41:02Z</time>
      </trkpt>
      <trkpt lat="42.85029" lon="0.90606">
        <ele>1514.261</ele>
        <time>2021-03-13T12:41:04Z</time>
      </trkpt>
      <trkpt lat="42.8503" lon="0.90606">
        <ele>1514.335</ele>
        <time>2021-03-13T12:41:06Z</time>
      </trkpt>
      <trkpt lat="42.85031" lon="0.90605">
        <ele>1513.653</ele>
        <time>2021-03-13T12:41:08Z</time>
      </trkpt>
      <trkpt lat="42.85031" lon="0.90605">
        <ele>1513.656</ele>
        <time>2021-03-13T12:41:10Z</time>
      </trkpt>
      <trkpt lat="42.85031" lon="0.90605">
        <ele>1513.659</ele>
        <time>2021-03-13T12:41:12Z</time>
      </trkpt>
      <trkpt lat="42.85031" lon="0.90605">
        <ele>1513.143</ele>
        <time>2021-03-13T12:41:14Z</time>
      </trkpt>
      <trkpt lat="42.85031" lon="0.90605">
        <ele>1513.057</ele>
        <time>2021-03-13T12:41:16Z</time>
      </trkpt>
      <trkpt lat="42.85031" lon="0.90605">
        <ele>1513.069</ele>
        <time>2021-03-13T12:41:18Z</time>
      </trkpt>
      <trkpt lat="42.85031" lon="0.90605">
        <ele>1513.07</ele>
        <time>2021-03-13T12:41:20Z</time>
      </trkpt>
      <trkpt lat="42.85031" lon="0.90605">
        <ele>1513.072</ele>
        <time>2021-03-13T12:41:22Z</time>
      </trkpt>
      <trkpt lat="42.85031" lon="0.90605">
        <ele>1513.074</ele>
        <time>2021-03-13T12:41:24Z</time>
      </trkpt>
      <trkpt lat="42.85031" lon="0.90605">
        <ele>1513.071</ele>
        <time>2021-03-13T12:41:26Z</time>
      </trkpt>
      <trkpt lat="42.85031" lon="0.90605">
        <ele>1513.042</ele>
        <time>2021-03-13T12:41:28Z</time>
      </trkpt>
      <trkpt lat="42.85031" lon="0.90605">
        <ele>1513.075</ele>
        <time>2021-03-13T12:41:30Z</time>
      </trkpt>
      <trkpt lat="42.85031" lon="0.90605">
        <ele>1513.073</ele>
        <time>2021-03-13T12:41:32Z</time>
      </trkpt>
      <trkpt lat="42.85031" lon="0.90606">
        <ele>1513.273</ele>
        <time>2021-03-13T12:41:34Z</time>
      </trkpt>
      <trkpt lat="42.85031" lon="0.90606">
        <ele>1513.272</ele>
        <time>2021-03-13T12:41:36Z</time>
      </trkpt>
      <trkpt lat="42.85031" lon="0.90606">
        <ele>1513.269</ele>
        <time>2021-03-13T12:41:38Z</time>
      </trkpt>
      <trkpt lat="42.85031" lon="0.90606">
        <ele>1513.272</ele>
        <time>2021-03-13T12:41:40Z</time>
      </trkpt>
      <trkpt lat="42.85031" lon="0.90606">
        <ele>1513.265</ele>
        <time>2021-03-13T12:41:42Z</time>
      </trkpt>
      <trkpt lat="42.85031" lon="0.90606">
        <ele>1513.265</ele>
        <time>2021-03-13T12:41:44Z</time>
      </trkpt>
      <trkpt lat="42.85031" lon="0.90606">
        <ele>1513.26</ele>
        <time>2021-03-13T12:41:46Z</time>
      </trkpt>
      <trkpt lat="42.85031" lon="0.90606">
        <ele>1513.259</ele>
        <time>2021-03-13T12:41:48Z</time>
      </trkpt>
      <trkpt lat="42.85031" lon="0.90606">
        <ele>1513.256</ele>
        <time>2021-03-13T12:41:50Z</time>
      </trkpt>
      <trkpt lat="42.85031" lon="0.90606">
        <ele>1513.255</ele>
        <time>2021-03-13T12:41:52Z</time>
      </trkpt>
      <trkpt lat="42.85031" lon="0.90606">
        <ele>1513.251</ele>
        <time>2021-03-13T12:41:54Z</time>
      </trkpt>
      <trkpt lat="42.85031" lon="0.90606">
        <ele>1513.247</ele>
        <time>2021-03-13T12:41:56Z</time>
      </trkpt>
      <trkpt lat="42.85031" lon="0.90606">
        <ele>1513.243</ele>
        <time>2021-03-13T12:41:58Z</time>
      </trkpt>
      <trkpt lat="42.85031" lon="0.90606">
        <ele>1513.241</ele>
        <time>2021-03-13T12:42:00Z</time>
      </trkpt>
      <trkpt lat="42.85031" lon="0.90606">
        <ele>1513.242</ele>
        <time>2021-03-13T12:42:02Z</time>
      </trkpt>
      <trkpt lat="42.85031" lon="0.90606">
        <ele>1513.248</ele>
        <time>2021-03-13T12:42:04Z</time>
      </trkpt>
      <trkpt lat="42.85031" lon="0.90606">
        <ele>1513.252</ele>
        <time>2021-03-13T12:42:06Z</time>
      </trkpt>
      <trkpt lat="42.85031" lon="0.90606">
        <ele>1513.254</ele>
        <time>2021-03-13T12:42:08Z</time>
      </trkpt>
      <trkpt lat="42.85031" lon="0.90606">
        <ele>1513.564</ele>
        <time>2021-03-13T12:42:10Z</time>
      </trkpt>
      <trkpt lat="42.85031" lon="0.90605">
        <ele>1513.485</ele>
        <time>2021-03-13T12:42:12Z</time>
      </trkpt>
      <trkpt lat="42.85031" lon="0.90604">
        <ele>1513.291</ele>
        <time>2021-03-13T12:42:14Z</time>
      </trkpt>
      <trkpt lat="42.85031" lon="0.90605">
        <ele>1513.351</ele>
        <time>2021-03-13T12:42:16Z</time>
      </trkpt>
      <trkpt lat="42.85031" lon="0.90605">
        <ele>1513.355</ele>
        <time>2021-03-13T12:42:18Z</time>
      </trkpt>
      <trkpt lat="42.85031" lon="0.90605">
        <ele>1513.357</ele>
        <time>2021-03-13T12:42:20Z</time>
      </trkpt>
      <trkpt lat="42.85031" lon="0.90605">
        <ele>1513.36</ele>
        <time>2021-03-13T12:42:22Z</time>
      </trkpt>
      <trkpt lat="42.85031" lon="0.90605">
        <ele>1513.496</ele>
        <time>2021-03-13T12:42:24Z</time>
      </trkpt>
      <trkpt lat="42.85031" lon="0.90605">
        <ele>1513.842</ele>
        <time>2021-03-13T12:42:26Z</time>
      </trkpt>
      <trkpt lat="42.85031" lon="0.90605">
        <ele>1514</ele>
        <time>2021-03-13T12:42:28Z</time>
      </trkpt>
      <trkpt lat="42.85031" lon="0.90604">
        <ele>1514.033</ele>
        <time>2021-03-13T12:42:30Z</time>
      </trkpt>
      <trkpt lat="42.85031" lon="0.90604">
        <ele>1514.026</ele>
        <time>2021-03-13T12:42:32Z</time>
      </trkpt>
      <trkpt lat="42.85031" lon="0.90604">
        <ele>1514.029</ele>
        <time>2021-03-13T12:42:34Z</time>
      </trkpt>
      <trkpt lat="42.85031" lon="0.90604">
        <ele>1514.026</ele>
        <time>2021-03-13T12:42:36Z</time>
      </trkpt>
      <trkpt lat="42.85031" lon="0.90604">
        <ele>1514.021</ele>
        <time>2021-03-13T12:42:38Z</time>
      </trkpt>
      <trkpt lat="42.85031" lon="0.90604">
        <ele>1514.02</ele>
        <time>2021-03-13T12:42:40Z</time>
      </trkpt>
      <trkpt lat="42.85031" lon="0.90604">
        <ele>1514.017</ele>
        <time>2021-03-13T12:42:42Z</time>
      </trkpt>
      <trkpt lat="42.85031" lon="0.90604">
        <ele>1514.017</ele>
        <time>2021-03-13T12:42:44Z</time>
      </trkpt>
      <trkpt lat="42.85031" lon="0.90604">
        <ele>1514.015</ele>
        <time>2021-03-13T12:42:46Z</time>
      </trkpt>
      <trkpt lat="42.85031" lon="0.90604">
        <ele>1514.016</ele>
        <time>2021-03-13T12:42:48Z</time>
      </trkpt>
      <trkpt lat="42.85031" lon="0.90604">
        <ele>1514.017</ele>
        <time>2021-03-13T12:42:50Z</time>
      </trkpt>
      <trkpt lat="42.85031" lon="0.90604">
        <ele>1514.018</ele>
        <time>2021-03-13T12:42:52Z</time>
      </trkpt>
      <trkpt lat="42.85031" lon="0.90604">
        <ele>1514.02</ele>
        <time>2021-03-13T12:42:54Z</time>
      </trkpt>
      <trkpt lat="42.85031" lon="0.90604">
        <ele>1514.149</ele>
        <time>2021-03-13T12:42:56Z</time>
      </trkpt>
      <trkpt lat="42.85031" lon="0.90604">
        <ele>1514.148</ele>
        <time>2021-03-13T12:42:58Z</time>
      </trkpt>
      <trkpt lat="42.85031" lon="0.90604">
        <ele>1514.149</ele>
        <time>2021-03-13T12:43:00Z</time>
      </trkpt>
      <trkpt lat="42.85031" lon="0.90604">
        <ele>1514.152</ele>
        <time>2021-03-13T12:43:02Z</time>
      </trkpt>
      <trkpt lat="42.85031" lon="0.90604">
        <ele>1514.152</ele>
        <time>2021-03-13T12:43:04Z</time>
      </trkpt>
      <trkpt lat="42.85031" lon="0.90604">
        <ele>1514.151</ele>
        <time>2021-03-13T12:43:06Z</time>
      </trkpt>
      <trkpt lat="42.85031" lon="0.90604">
        <ele>1514.155</ele>
        <time>2021-03-13T12:43:08Z</time>
      </trkpt>
      <trkpt lat="42.85031" lon="0.90604">
        <ele>1514.159</ele>
        <time>2021-03-13T12:43:10Z</time>
      </trkpt>
      <trkpt lat="42.85031" lon="0.90604">
        <ele>1514.16</ele>
        <time>2021-03-13T12:43:12Z</time>
      </trkpt>
      <trkpt lat="42.85031" lon="0.90604">
        <ele>1514.164</ele>
        <time>2021-03-13T12:43:14Z</time>
      </trkpt>
      <trkpt lat="42.85031" lon="0.90604">
        <ele>1514.164</ele>
        <time>2021-03-13T12:43:16Z</time>
      </trkpt>
      <trkpt lat="42.85031" lon="0.90604">
        <ele>1514.166</ele>
        <time>2021-03-13T12:43:18Z</time>
      </trkpt>
      <trkpt lat="42.85031" lon="0.90604">
        <ele>1514.166</ele>
        <time>2021-03-13T12:43:20Z</time>
      </trkpt>
      <trkpt lat="42.85031" lon="0.90604">
        <ele>1514.167</ele>
        <time>2021-03-13T12:43:22Z</time>
      </trkpt>
      <trkpt lat="42.85031" lon="0.90604">
        <ele>1514.169</ele>
        <time>2021-03-13T12:43:24Z</time>
      </trkpt>
      <trkpt lat="42.85031" lon="0.90605">
        <ele>1514.203</ele>
        <time>2021-03-13T12:43:26Z</time>
      </trkpt>
      <trkpt lat="42.85031" lon="0.90605">
        <ele>1514.205</ele>
        <time>2021-03-13T12:43:28Z</time>
      </trkpt>
      <trkpt lat="42.85031" lon="0.90605">
        <ele>1514.204</ele>
        <time>2021-03-13T12:43:30Z</time>
      </trkpt>
      <trkpt lat="42.85031" lon="0.90605">
        <ele>1514.206</ele>
        <time>2021-03-13T12:43:32Z</time>
      </trkpt>
      <trkpt lat="42.85031" lon="0.90605">
        <ele>1514.207</ele>
        <time>2021-03-13T12:43:34Z</time>
      </trkpt>
      <trkpt lat="42.85031" lon="0.90605">
        <ele>1514.21</ele>
        <time>2021-03-13T12:43:36Z</time>
      </trkpt>
      <trkpt lat="42.85031" lon="0.90605">
        <ele>1514.211</ele>
        <time>2021-03-13T12:43:38Z</time>
      </trkpt>
      <trkpt lat="42.85031" lon="0.90605">
        <ele>1514.213</ele>
        <time>2021-03-13T12:43:40Z</time>
      </trkpt>
      <trkpt lat="42.85031" lon="0.90605">
        <ele>1514.216</ele>
        <time>2021-03-13T12:43:42Z</time>
      </trkpt>
      <trkpt lat="42.85031" lon="0.90605">
        <ele>1514.218</ele>
        <time>2021-03-13T12:43:44Z</time>
      </trkpt>
      <trkpt lat="42.85031" lon="0.90605">
        <ele>1514.219</ele>
        <time>2021-03-13T12:43:46Z</time>
      </trkpt>
      <trkpt lat="42.85031" lon="0.90605">
        <ele>1514.219</ele>
        <time>2021-03-13T12:43:48Z</time>
      </trkpt>
      <trkpt lat="42.85031" lon="0.90605">
        <ele>1514.22</ele>
        <time>2021-03-13T12:43:50Z</time>
      </trkpt>
      <trkpt lat="42.85031" lon="0.90605">
        <ele>1514.221</ele>
        <time>2021-03-13T12:43:52Z</time>
      </trkpt>
      <trkpt lat="42.85031" lon="0.90605">
        <ele>1514.221</ele>
        <time>2021-03-13T12:43:54Z</time>
      </trkpt>
      <trkpt lat="42.85031" lon="0.90605">
        <ele>1514.223</ele>
        <time>2021-03-13T12:43:56Z</time>
      </trkpt>
      <trkpt lat="42.85031" lon="0.90605">
        <ele>1514.225</ele>
        <time>2021-03-13T12:43:58Z</time>
      </trkpt>
      <trkpt lat="42.85031" lon="0.90605">
        <ele>1514.224</ele>
        <time>2021-03-13T12:44:00Z</time>
      </trkpt>
      <trkpt lat="42.85031" lon="0.90605">
        <ele>1514.223</ele>
        <time>2021-03-13T12:44:02Z</time>
      </trkpt>
      <trkpt lat="42.85031" lon="0.90605">
        <ele>1514.225</ele>
        <time>2021-03-13T12:44:04Z</time>
      </trkpt>
      <trkpt lat="42.85031" lon="0.90605">
        <ele>1514.227</ele>
        <time>2021-03-13T12:44:06Z</time>
      </trkpt>
      <trkpt lat="42.85031" lon="0.90605">
        <ele>1514.231</ele>
        <time>2021-03-13T12:44:08Z</time>
      </trkpt>
      <trkpt lat="42.85031" lon="0.90605">
        <ele>1514.232</ele>
        <time>2021-03-13T12:44:10Z</time>
      </trkpt>
      <trkpt lat="42.85031" lon="0.90605">
        <ele>1514.233</ele>
        <time>2021-03-13T12:44:12Z</time>
      </trkpt>
      <trkpt lat="42.85031" lon="0.90605">
        <ele>1514.234</ele>
        <time>2021-03-13T12:44:13Z</time>
      </trkpt>
      <trkpt lat="42.85031" lon="0.90605">
        <ele>1514.237</ele>
        <time>2021-03-13T12:44:16Z</time>
      </trkpt>
      <trkpt lat="42.85031" lon="0.90605">
        <ele>1514.238</ele>
        <time>2021-03-13T12:44:18Z</time>
      </trkpt>
      <trkpt lat="42.85031" lon="0.90605">
        <ele>1514.241</ele>
        <time>2021-03-13T12:44:20Z</time>
      </trkpt>
      <trkpt lat="42.85031" lon="0.90605">
        <ele>1514.243</ele>
        <time>2021-03-13T12:44:22Z</time>
      </trkpt>
      <trkpt lat="42.85031" lon="0.90605">
        <ele>1514.243</ele>
        <time>2021-03-13T12:44:24Z</time>
      </trkpt>
      <trkpt lat="42.85031" lon="0.90605">
        <ele>1514.246</ele>
        <time>2021-03-13T12:44:26Z</time>
      </trkpt>
      <trkpt lat="42.85031" lon="0.90605">
        <ele>1514.247</ele>
        <time>2021-03-13T12:44:28Z</time>
      </trkpt>
      <trkpt lat="42.85031" lon="0.90605">
        <ele>1514.247</ele>
        <time>2021-03-13T12:44:30Z</time>
      </trkpt>
      <trkpt lat="42.85031" lon="0.90605">
        <ele>1514.248</ele>
        <time>2021-03-13T12:44:32Z</time>
      </trkpt>
      <trkpt lat="42.85031" lon="0.90605">
        <ele>1514.252</ele>
        <time>2021-03-13T12:44:34Z</time>
      </trkpt>
      <trkpt lat="42.85031" lon="0.90605">
        <ele>1514.252</ele>
        <time>2021-03-13T12:44:36Z</time>
      </trkpt>
      <trkpt lat="42.85031" lon="0.90605">
        <ele>1514.253</ele>
        <time>2021-03-13T12:44:38Z</time>
      </trkpt>
      <trkpt lat="42.85031" lon="0.90605">
        <ele>1514.253</ele>
        <time>2021-03-13T12:44:40Z</time>
      </trkpt>
      <trkpt lat="42.85031" lon="0.90605">
        <ele>1514.254</ele>
        <time>2021-03-13T12:44:42Z</time>
      </trkpt>
      <trkpt lat="42.85031" lon="0.90605">
        <ele>1514.253</ele>
        <time>2021-03-13T12:44:44Z</time>
      </trkpt>
      <trkpt lat="42.85031" lon="0.90605">
        <ele>1514.253</ele>
        <time>2021-03-13T12:44:46Z</time>
      </trkpt>
      <trkpt lat="42.85031" lon="0.90605">
        <ele>1514.252</ele>
        <time>2021-03-13T12:44:48Z</time>
      </trkpt>
      <trkpt lat="42.85031" lon="0.90605">
        <ele>1514.251</ele>
        <time>2021-03-13T12:44:50Z</time>
      </trkpt>
      <trkpt lat="42.85031" lon="0.90605">
        <ele>1514.25</ele>
        <time>2021-03-13T12:44:52Z</time>
      </trkpt>
      <trkpt lat="42.85031" lon="0.90605">
        <ele>1514.25</ele>
        <time>2021-03-13T12:44:54Z</time>
      </trkpt>
      <trkpt lat="42.85031" lon="0.90605">
        <ele>1514.249</ele>
        <time>2021-03-13T12:44:56Z</time>
      </trkpt>
      <trkpt lat="42.85031" lon="0.90605">
        <ele>1514.25</ele>
        <time>2021-03-13T12:44:58Z</time>
      </trkpt>
      <trkpt lat="42.85031" lon="0.90605">
        <ele>1514.25</ele>
        <time>2021-03-13T12:45:00Z</time>
      </trkpt>
      <trkpt lat="42.85031" lon="0.90605">
        <ele>1514.25</ele>
        <time>2021-03-13T12:45:02Z</time>
      </trkpt>
      <trkpt lat="42.85031" lon="0.90605">
        <ele>1514.254</ele>
        <time>2021-03-13T12:45:04Z</time>
      </trkpt>
      <trkpt lat="42.85031" lon="0.90605">
        <ele>1514.258</ele>
        <time>2021-03-13T12:45:06Z</time>
      </trkpt>
      <trkpt lat="42.85031" lon="0.90605">
        <ele>1514.259</ele>
        <time>2021-03-13T12:45:08Z</time>
      </trkpt>
      <trkpt lat="42.85031" lon="0.90604">
        <ele>1514.467</ele>
        <time>2021-03-13T12:45:10Z</time>
      </trkpt>
      <trkpt lat="42.85031" lon="0.90604">
        <ele>1514.56</ele>
        <time>2021-03-13T12:45:12Z</time>
      </trkpt>
      <trkpt lat="42.85031" lon="0.90604">
        <ele>1514.56</ele>
        <time>2021-03-13T12:45:14Z</time>
      </trkpt>
      <trkpt lat="42.85031" lon="0.90604">
        <ele>1514.559</ele>
        <time>2021-03-13T12:45:16Z</time>
      </trkpt>
      <trkpt lat="42.85031" lon="0.90604">
        <ele>1514.559</ele>
        <time>2021-03-13T12:45:18Z</time>
      </trkpt>
      <trkpt lat="42.85031" lon="0.90604">
        <ele>1514.558</ele>
        <time>2021-03-13T12:45:20Z</time>
      </trkpt>
      <trkpt lat="42.85031" lon="0.90604">
        <ele>1514.557</ele>
        <time>2021-03-13T12:45:22Z</time>
      </trkpt>
      <trkpt lat="42.85031" lon="0.90604">
        <ele>1514.557</ele>
        <time>2021-03-13T12:45:24Z</time>
      </trkpt>
      <trkpt lat="42.85031" lon="0.90604">
        <ele>1514.56</ele>
        <time>2021-03-13T12:45:26Z</time>
      </trkpt>
      <trkpt lat="42.85031" lon="0.90604">
        <ele>1514.562</ele>
        <time>2021-03-13T12:45:28Z</time>
      </trkpt>
      <trkpt lat="42.85031" lon="0.90604">
        <ele>1514.565</ele>
        <time>2021-03-13T12:45:30Z</time>
      </trkpt>
      <trkpt lat="42.85031" lon="0.90604">
        <ele>1514.567</ele>
        <time>2021-03-13T12:45:32Z</time>
      </trkpt>
      <trkpt lat="42.85031" lon="0.90604">
        <ele>1514.565</ele>
        <time>2021-03-13T12:45:34Z</time>
      </trkpt>
      <trkpt lat="42.85031" lon="0.90604">
        <ele>1514.562</ele>
        <time>2021-03-13T12:45:36Z</time>
      </trkpt>
      <trkpt lat="42.85031" lon="0.90604">
        <ele>1514.561</ele>
        <time>2021-03-13T12:45:38Z</time>
      </trkpt>
      <trkpt lat="42.85031" lon="0.90604">
        <ele>1514.561</ele>
        <time>2021-03-13T12:45:40Z</time>
      </trkpt>
      <trkpt lat="42.85031" lon="0.90604">
        <ele>1514.563</ele>
        <time>2021-03-13T12:45:42Z</time>
      </trkpt>
      <trkpt lat="42.85031" lon="0.90604">
        <ele>1514.561</ele>
        <time>2021-03-13T12:45:44Z</time>
      </trkpt>
      <trkpt lat="42.85031" lon="0.90604">
        <ele>1514.56</ele>
        <time>2021-03-13T12:45:46Z</time>
      </trkpt>
      <trkpt lat="42.85031" lon="0.90604">
        <ele>1514.558</ele>
        <time>2021-03-13T12:45:48Z</time>
      </trkpt>
      <trkpt lat="42.85031" lon="0.90604">
        <ele>1514.558</ele>
        <time>2021-03-13T12:45:50Z</time>
      </trkpt>
      <trkpt lat="42.85031" lon="0.90604">
        <ele>1514.558</ele>
        <time>2021-03-13T12:45:52Z</time>
      </trkpt>
      <trkpt lat="42.85031" lon="0.90604">
        <ele>1514.559</ele>
        <time>2021-03-13T12:45:54Z</time>
      </trkpt>
      <trkpt lat="42.85031" lon="0.90604">
        <ele>1514.555</ele>
        <time>2021-03-13T12:45:56Z</time>
      </trkpt>
      <trkpt lat="42.85031" lon="0.90604">
        <ele>1514.554</ele>
        <time>2021-03-13T12:45:58Z</time>
      </trkpt>
      <trkpt lat="42.85031" lon="0.90604">
        <ele>1514.555</ele>
        <time>2021-03-13T12:46:00Z</time>
      </trkpt>
      <trkpt lat="42.85031" lon="0.90604">
        <ele>1514.556</ele>
        <time>2021-03-13T12:46:02Z</time>
      </trkpt>
      <trkpt lat="42.85031" lon="0.90604">
        <ele>1514.56</ele>
        <time>2021-03-13T12:46:04Z</time>
      </trkpt>
      <trkpt lat="42.85031" lon="0.90604">
        <ele>1514.564</ele>
        <time>2021-03-13T12:46:06Z</time>
      </trkpt>
      <trkpt lat="42.85031" lon="0.90604">
        <ele>1514.565</ele>
        <time>2021-03-13T12:46:08Z</time>
      </trkpt>
      <trkpt lat="42.85031" lon="0.90604">
        <ele>1514.565</ele>
        <time>2021-03-13T12:46:10Z</time>
      </trkpt>
      <trkpt lat="42.85031" lon="0.90604">
        <ele>1514.566</ele>
        <time>2021-03-13T12:46:12Z</time>
      </trkpt>
      <trkpt lat="42.85031" lon="0.90604">
        <ele>1514.565</ele>
        <time>2021-03-13T12:46:14Z</time>
      </trkpt>
      <trkpt lat="42.85031" lon="0.90604">
        <ele>1514.564</ele>
        <time>2021-03-13T12:46:16Z</time>
      </trkpt>
      <trkpt lat="42.85031" lon="0.90604">
        <ele>1514.565</ele>
        <time>2021-03-13T12:46:18Z</time>
      </trkpt>
      <trkpt lat="42.85031" lon="0.90604">
        <ele>1514.566</ele>
        <time>2021-03-13T12:46:20Z</time>
      </trkpt>
      <trkpt lat="42.85031" lon="0.90604">
        <ele>1514.565</ele>
        <time>2021-03-13T12:46:22Z</time>
      </trkpt>
      <trkpt lat="42.85031" lon="0.90604">
        <ele>1514.563</ele>
        <time>2021-03-13T12:46:24Z</time>
      </trkpt>
      <trkpt lat="42.85031" lon="0.90604">
        <ele>1514.562</ele>
        <time>2021-03-13T12:46:26Z</time>
      </trkpt>
      <trkpt lat="42.85031" lon="0.90604">
        <ele>1514.56</ele>
        <time>2021-03-13T12:46:28Z</time>
      </trkpt>
      <trkpt lat="42.85031" lon="0.90604">
        <ele>1514.558</ele>
        <time>2021-03-13T12:46:30Z</time>
      </trkpt>
      <trkpt lat="42.85031" lon="0.90604">
        <ele>1514.557</ele>
        <time>2021-03-13T12:46:32Z</time>
      </trkpt>
      <trkpt lat="42.85031" lon="0.90604">
        <ele>1514.559</ele>
        <time>2021-03-13T12:46:34Z</time>
      </trkpt>
      <trkpt lat="42.85031" lon="0.90604">
        <ele>1514.56</ele>
        <time>2021-03-13T12:46:36Z</time>
      </trkpt>
      <trkpt lat="42.85031" lon="0.90604">
        <ele>1514.565</ele>
        <time>2021-03-13T12:46:38Z</time>
      </trkpt>
      <trkpt lat="42.85031" lon="0.90604">
        <ele>1514.567</ele>
        <time>2021-03-13T12:46:40Z</time>
      </trkpt>
      <trkpt lat="42.85031" lon="0.90604">
        <ele>1514.569</ele>
        <time>2021-03-13T12:46:42Z</time>
      </trkpt>
      <trkpt lat="42.85031" lon="0.90604">
        <ele>1514.571</ele>
        <time>2021-03-13T12:46:44Z</time>
      </trkpt>
      <trkpt lat="42.85031" lon="0.90604">
        <ele>1514.573</ele>
        <time>2021-03-13T12:46:46Z</time>
      </trkpt>
      <trkpt lat="42.85031" lon="0.90604">
        <ele>1514.573</ele>
        <time>2021-03-13T12:46:48Z</time>
      </trkpt>
      <trkpt lat="42.85031" lon="0.90604">
        <ele>1514.574</ele>
        <time>2021-03-13T12:46:50Z</time>
      </trkpt>
      <trkpt lat="42.85031" lon="0.90604">
        <ele>1514.572</ele>
        <time>2021-03-13T12:46:52Z</time>
      </trkpt>
      <trkpt lat="42.85031" lon="0.90604">
        <ele>1514.571</ele>
        <time>2021-03-13T12:46:54Z</time>
      </trkpt>
      <trkpt lat="42.85031" lon="0.90604">
        <ele>1514.572</ele>
        <time>2021-03-13T12:46:56Z</time>
      </trkpt>
      <trkpt lat="42.85031" lon="0.90604">
        <ele>1514.57</ele>
        <time>2021-03-13T12:46:58Z</time>
      </trkpt>
      <trkpt lat="42.85031" lon="0.90604">
        <ele>1514.57</ele>
        <time>2021-03-13T12:47:00Z</time>
      </trkpt>
      <trkpt lat="42.85031" lon="0.90604">
        <ele>1514.57</ele>
        <time>2021-03-13T12:47:02Z</time>
      </trkpt>
      <trkpt lat="42.85031" lon="0.90604">
        <ele>1514.571</ele>
        <time>2021-03-13T12:47:04Z</time>
      </trkpt>
      <trkpt lat="42.85031" lon="0.90604">
        <ele>1514.569</ele>
        <time>2021-03-13T12:47:06Z</time>
      </trkpt>
      <trkpt lat="42.85031" lon="0.90604">
        <ele>1514.569</ele>
        <time>2021-03-13T12:47:08Z</time>
      </trkpt>
      <trkpt lat="42.85031" lon="0.90604">
        <ele>1514.57</ele>
        <time>2021-03-13T12:47:10Z</time>
      </trkpt>
      <trkpt lat="42.85031" lon="0.90604">
        <ele>1514.574</ele>
        <time>2021-03-13T12:47:12Z</time>
      </trkpt>
      <trkpt lat="42.85031" lon="0.90604">
        <ele>1514.575</ele>
        <time>2021-03-13T12:47:14Z</time>
      </trkpt>
      <trkpt lat="42.85031" lon="0.90604">
        <ele>1514.574</ele>
        <time>2021-03-13T12:47:16Z</time>
      </trkpt>
      <trkpt lat="42.85031" lon="0.90604">
        <ele>1514.572</ele>
        <time>2021-03-13T12:47:18Z</time>
      </trkpt>
      <trkpt lat="42.85031" lon="0.90604">
        <ele>1514.571</ele>
        <time>2021-03-13T12:47:20Z</time>
      </trkpt>
      <trkpt lat="42.85031" lon="0.90604">
        <ele>1514.571</ele>
        <time>2021-03-13T12:47:22Z</time>
      </trkpt>
      <trkpt lat="42.85031" lon="0.90604">
        <ele>1514.573</ele>
        <time>2021-03-13T12:47:24Z</time>
      </trkpt>
      <trkpt lat="42.85031" lon="0.90604">
        <ele>1514.573</ele>
        <time>2021-03-13T12:47:26Z</time>
      </trkpt>
      <trkpt lat="42.85031" lon="0.90604">
        <ele>1514.571</ele>
        <time>2021-03-13T12:47:28Z</time>
      </trkpt>
      <trkpt lat="42.85031" lon="0.90604">
        <ele>1514.57</ele>
        <time>2021-03-13T12:47:30Z</time>
      </trkpt>
      <trkpt lat="42.85031" lon="0.90604">
        <ele>1514.571</ele>
        <time>2021-03-13T12:47:32Z</time>
      </trkpt>
      <trkpt lat="42.85031" lon="0.90604">
        <ele>1514.574</ele>
        <time>2021-03-13T12:47:34Z</time>
      </trkpt>
      <trkpt lat="42.85031" lon="0.90604">
        <ele>1514.576</ele>
        <time>2021-03-13T12:47:36Z</time>
      </trkpt>
      <trkpt lat="42.85031" lon="0.90604">
        <ele>1514.576</ele>
        <time>2021-03-13T12:47:38Z</time>
      </trkpt>
      <trkpt lat="42.85031" lon="0.90604">
        <ele>1514.576</ele>
        <time>2021-03-13T12:47:40Z</time>
      </trkpt>
      <trkpt lat="42.85031" lon="0.90604">
        <ele>1514.575</ele>
        <time>2021-03-13T12:47:42Z</time>
      </trkpt>
      <trkpt lat="42.85031" lon="0.90604">
        <ele>1514.575</ele>
        <time>2021-03-13T12:47:44Z</time>
      </trkpt>
      <trkpt lat="42.85031" lon="0.90604">
        <ele>1514.574</ele>
        <time>2021-03-13T12:47:46Z</time>
      </trkpt>
      <trkpt lat="42.85031" lon="0.90604">
        <ele>1514.573</ele>
        <time>2021-03-13T12:47:48Z</time>
      </trkpt>
      <trkpt lat="42.85031" lon="0.90604">
        <ele>1514.573</ele>
        <time>2021-03-13T12:47:50Z</time>
      </trkpt>
      <trkpt lat="42.85031" lon="0.90604">
        <ele>1514.682</ele>
        <time>2021-03-13T12:47:52Z</time>
      </trkpt>
      <trkpt lat="42.85031" lon="0.90604">
        <ele>1514.682</ele>
        <time>2021-03-13T12:47:54Z</time>
      </trkpt>
      <trkpt lat="42.85031" lon="0.90604">
        <ele>1514.678</ele>
        <time>2021-03-13T12:47:56Z</time>
      </trkpt>
      <trkpt lat="42.85031" lon="0.90604">
        <ele>1514.676</ele>
        <time>2021-03-13T12:47:58Z</time>
      </trkpt>
      <trkpt lat="42.85031" lon="0.90604">
        <ele>1514.678</ele>
        <time>2021-03-13T12:48:00Z</time>
      </trkpt>
      <trkpt lat="42.85031" lon="0.90604">
        <ele>1514.68</ele>
        <time>2021-03-13T12:48:02Z</time>
      </trkpt>
      <trkpt lat="42.85031" lon="0.90604">
        <ele>1514.683</ele>
        <time>2021-03-13T12:48:04Z</time>
      </trkpt>
      <trkpt lat="42.85031" lon="0.90604">
        <ele>1514.683</ele>
        <time>2021-03-13T12:48:06Z</time>
      </trkpt>
      <trkpt lat="42.85031" lon="0.90604">
        <ele>1514.687</ele>
        <time>2021-03-13T12:48:08Z</time>
      </trkpt>
      <trkpt lat="42.85031" lon="0.90604">
        <ele>1514.685</ele>
        <time>2021-03-13T12:48:10Z</time>
      </trkpt>
      <trkpt lat="42.85031" lon="0.90604">
        <ele>1514.687</ele>
        <time>2021-03-13T12:48:12Z</time>
      </trkpt>
      <trkpt lat="42.85031" lon="0.90604">
        <ele>1514.687</ele>
        <time>2021-03-13T12:48:14Z</time>
      </trkpt>
      <trkpt lat="42.85031" lon="0.90604">
        <ele>1514.688</ele>
        <time>2021-03-13T12:48:16Z</time>
      </trkpt>
      <trkpt lat="42.85031" lon="0.90604">
        <ele>1514.685</ele>
        <time>2021-03-13T12:48:18Z</time>
      </trkpt>
      <trkpt lat="42.85031" lon="0.90604">
        <ele>1514.688</ele>
        <time>2021-03-13T12:48:20Z</time>
      </trkpt>
      <trkpt lat="42.85031" lon="0.90604">
        <ele>1514.692</ele>
        <time>2021-03-13T12:48:22Z</time>
      </trkpt>
      <trkpt lat="42.85031" lon="0.90604">
        <ele>1514.693</ele>
        <time>2021-03-13T12:48:24Z</time>
      </trkpt>
      <trkpt lat="42.85031" lon="0.90604">
        <ele>1514.695</ele>
        <time>2021-03-13T12:48:26Z</time>
      </trkpt>
      <trkpt lat="42.85031" lon="0.90604">
        <ele>1514.695</ele>
        <time>2021-03-13T12:48:28Z</time>
      </trkpt>
      <trkpt lat="42.85031" lon="0.90604">
        <ele>1514.698</ele>
        <time>2021-03-13T12:48:30Z</time>
      </trkpt>
      <trkpt lat="42.85031" lon="0.90604">
        <ele>1514.702</ele>
        <time>2021-03-13T12:48:32Z</time>
      </trkpt>
      <trkpt lat="42.85031" lon="0.90604">
        <ele>1514.703</ele>
        <time>2021-03-13T12:48:34Z</time>
      </trkpt>
      <trkpt lat="42.85031" lon="0.90604">
        <ele>1514.705</ele>
        <time>2021-03-13T12:48:36Z</time>
      </trkpt>
      <trkpt lat="42.85031" lon="0.90604">
        <ele>1514.708</ele>
        <time>2021-03-13T12:48:38Z</time>
      </trkpt>
      <trkpt lat="42.85031" lon="0.90604">
        <ele>1514.707</ele>
        <time>2021-03-13T12:48:40Z</time>
      </trkpt>
      <trkpt lat="42.85031" lon="0.90604">
        <ele>1514.71</ele>
        <time>2021-03-13T12:48:42Z</time>
      </trkpt>
      <trkpt lat="42.85031" lon="0.90604">
        <ele>1514.712</ele>
        <time>2021-03-13T12:48:44Z</time>
      </trkpt>
      <trkpt lat="42.85031" lon="0.90604">
        <ele>1514.708</ele>
        <time>2021-03-13T12:48:46Z</time>
      </trkpt>
      <trkpt lat="42.85031" lon="0.90604">
        <ele>1514.707</ele>
        <time>2021-03-13T12:48:48Z</time>
      </trkpt>
      <trkpt lat="42.85031" lon="0.90604">
        <ele>1514.705</ele>
        <time>2021-03-13T12:48:50Z</time>
      </trkpt>
      <trkpt lat="42.85031" lon="0.90604">
        <ele>1514.705</ele>
        <time>2021-03-13T12:48:52Z</time>
      </trkpt>
      <trkpt lat="42.85031" lon="0.90604">
        <ele>1514.702</ele>
        <time>2021-03-13T12:48:54Z</time>
      </trkpt>
      <trkpt lat="42.85031" lon="0.90604">
        <ele>1514.702</ele>
        <time>2021-03-13T12:48:56Z</time>
      </trkpt>
      <trkpt lat="42.85031" lon="0.90604">
        <ele>1514.7</ele>
        <time>2021-03-13T12:48:58Z</time>
      </trkpt>
      <trkpt lat="42.85031" lon="0.90604">
        <ele>1514.71</ele>
        <time>2021-03-13T12:49:00Z</time>
      </trkpt>
      <trkpt lat="42.85031" lon="0.90604">
        <ele>1514.709</ele>
        <time>2021-03-13T12:49:02Z</time>
      </trkpt>
      <trkpt lat="42.85031" lon="0.90604">
        <ele>1514.704</ele>
        <time>2021-03-13T12:49:04Z</time>
      </trkpt>
      <trkpt lat="42.85031" lon="0.90604">
        <ele>1514.704</ele>
        <time>2021-03-13T12:49:06Z</time>
      </trkpt>
      <trkpt lat="42.85031" lon="0.90604">
        <ele>1514.699</ele>
        <time>2021-03-13T12:49:08Z</time>
      </trkpt>
      <trkpt lat="42.85031" lon="0.90604">
        <ele>1514.69</ele>
        <time>2021-03-13T12:49:10Z</time>
      </trkpt>
      <trkpt lat="42.85031" lon="0.90604">
        <ele>1514.687</ele>
        <time>2021-03-13T12:49:12Z</time>
      </trkpt>
      <trkpt lat="42.85031" lon="0.90604">
        <ele>1514.688</ele>
        <time>2021-03-13T12:49:14Z</time>
      </trkpt>
      <trkpt lat="42.85031" lon="0.90604">
        <ele>1514.692</ele>
        <time>2021-03-13T12:49:16Z</time>
      </trkpt>
      <trkpt lat="42.85031" lon="0.90604">
        <ele>1514.697</ele>
        <time>2021-03-13T12:49:18Z</time>
      </trkpt>
      <trkpt lat="42.85031" lon="0.90604">
        <ele>1514.702</ele>
        <time>2021-03-13T12:49:20Z</time>
      </trkpt>
      <trkpt lat="42.85031" lon="0.90604">
        <ele>1514.704</ele>
        <time>2021-03-13T12:49:22Z</time>
      </trkpt>
      <trkpt lat="42.85031" lon="0.90604">
        <ele>1514.707</ele>
        <time>2021-03-13T12:49:24Z</time>
      </trkpt>
      <trkpt lat="42.85031" lon="0.90604">
        <ele>1514.707</ele>
        <time>2021-03-13T12:49:26Z</time>
      </trkpt>
      <trkpt lat="42.85031" lon="0.90604">
        <ele>1514.707</ele>
        <time>2021-03-13T12:49:28Z</time>
      </trkpt>
      <trkpt lat="42.85031" lon="0.90604">
        <ele>1514.708</ele>
        <time>2021-03-13T12:49:30Z</time>
      </trkpt>
      <trkpt lat="42.85031" lon="0.90604">
        <ele>1514.708</ele>
        <time>2021-03-13T12:49:32Z</time>
      </trkpt>
      <trkpt lat="42.85031" lon="0.90604">
        <ele>1514.709</ele>
        <time>2021-03-13T12:49:34Z</time>
      </trkpt>
      <trkpt lat="42.85031" lon="0.90604">
        <ele>1514.707</ele>
        <time>2021-03-13T12:49:36Z</time>
      </trkpt>
      <trkpt lat="42.85031" lon="0.90604">
        <ele>1514.706</ele>
        <time>2021-03-13T12:49:38Z</time>
      </trkpt>
      <trkpt lat="42.85031" lon="0.90604">
        <ele>1514.703</ele>
        <time>2021-03-13T12:49:40Z</time>
      </trkpt>
      <trkpt lat="42.85031" lon="0.90604">
        <ele>1514.701</ele>
        <time>2021-03-13T12:49:42Z</time>
      </trkpt>
      <trkpt lat="42.85031" lon="0.90604">
        <ele>1514.7</ele>
        <time>2021-03-13T12:49:44Z</time>
      </trkpt>
      <trkpt lat="42.85031" lon="0.90604">
        <ele>1514.698</ele>
        <time>2021-03-13T12:49:46Z</time>
      </trkpt>
      <trkpt lat="42.85031" lon="0.90604">
        <ele>1514.699</ele>
        <time>2021-03-13T12:49:48Z</time>
      </trkpt>
      <trkpt lat="42.85031" lon="0.90604">
        <ele>1514.697</ele>
        <time>2021-03-13T12:49:50Z</time>
      </trkpt>
      <trkpt lat="42.85031" lon="0.90604">
        <ele>1514.699</ele>
        <time>2021-03-13T12:49:52Z</time>
      </trkpt>
      <trkpt lat="42.85031" lon="0.90604">
        <ele>1514.699</ele>
        <time>2021-03-13T12:49:54Z</time>
      </trkpt>
      <trkpt lat="42.85031" lon="0.90604">
        <ele>1514.702</ele>
        <time>2021-03-13T12:49:56Z</time>
      </trkpt>
      <trkpt lat="42.85031" lon="0.90604">
        <ele>1514.704</ele>
        <time>2021-03-13T12:49:58Z</time>
      </trkpt>
      <trkpt lat="42.85031" lon="0.90604">
        <ele>1514.706</ele>
        <time>2021-03-13T12:50:00Z</time>
      </trkpt>
      <trkpt lat="42.85031" lon="0.90604">
        <ele>1514.709</ele>
        <time>2021-03-13T12:50:02Z</time>
      </trkpt>
      <trkpt lat="42.85031" lon="0.90604">
        <ele>1514.711</ele>
        <time>2021-03-13T12:50:04Z</time>
      </trkpt>
      <trkpt lat="42.85031" lon="0.90604">
        <ele>1514.714</ele>
        <time>2021-03-13T12:50:06Z</time>
      </trkpt>
      <trkpt lat="42.85031" lon="0.90604">
        <ele>1514.714</ele>
        <time>2021-03-13T12:50:08Z</time>
      </trkpt>
      <trkpt lat="42.85031" lon="0.90604">
        <ele>1514.714</ele>
        <time>2021-03-13T12:50:10Z</time>
      </trkpt>
      <trkpt lat="42.85031" lon="0.90604">
        <ele>1514.714</ele>
        <time>2021-03-13T12:50:12Z</time>
      </trkpt>
      <trkpt lat="42.85031" lon="0.90604">
        <ele>1514.711</ele>
        <time>2021-03-13T12:50:14Z</time>
      </trkpt>
      <trkpt lat="42.85031" lon="0.90604">
        <ele>1514.712</ele>
        <time>2021-03-13T12:50:16Z</time>
      </trkpt>
      <trkpt lat="42.85031" lon="0.90604">
        <ele>1514.714</ele>
        <time>2021-03-13T12:50:18Z</time>
      </trkpt>
      <trkpt lat="42.85031" lon="0.90604">
        <ele>1514.712</ele>
        <time>2021-03-13T12:50:20Z</time>
      </trkpt>
      <trkpt lat="42.85031" lon="0.90604">
        <ele>1514.71</ele>
        <time>2021-03-13T12:50:22Z</time>
      </trkpt>
      <trkpt lat="42.85031" lon="0.90604">
        <ele>1514.712</ele>
        <time>2021-03-13T12:50:24Z</time>
      </trkpt>
      <trkpt lat="42.85031" lon="0.90604">
        <ele>1514.715</ele>
        <time>2021-03-13T12:50:26Z</time>
      </trkpt>
      <trkpt lat="42.85031" lon="0.90604">
        <ele>1514.712</ele>
        <time>2021-03-13T12:50:28Z</time>
      </trkpt>
      <trkpt lat="42.85031" lon="0.90604">
        <ele>1514.713</ele>
        <time>2021-03-13T12:50:30Z</time>
      </trkpt>
      <trkpt lat="42.85031" lon="0.90604">
        <ele>1514.717</ele>
        <time>2021-03-13T12:50:32Z</time>
      </trkpt>
      <trkpt lat="42.85031" lon="0.90604">
        <ele>1514.714</ele>
        <time>2021-03-13T12:50:34Z</time>
      </trkpt>
      <trkpt lat="42.85031" lon="0.90604">
        <ele>1514.715</ele>
        <time>2021-03-13T12:50:36Z</time>
      </trkpt>
      <trkpt lat="42.85031" lon="0.90604">
        <ele>1514.713</ele>
        <time>2021-03-13T12:50:38Z</time>
      </trkpt>
      <trkpt lat="42.85031" lon="0.90604">
        <ele>1514.716</ele>
        <time>2021-03-13T12:50:40Z</time>
      </trkpt>
      <trkpt lat="42.85031" lon="0.90604">
        <ele>1514.718</ele>
        <time>2021-03-13T12:50:42Z</time>
      </trkpt>
      <trkpt lat="42.85031" lon="0.90604">
        <ele>1514.718</ele>
        <time>2021-03-13T12:50:44Z</time>
      </trkpt>
      <trkpt lat="42.85031" lon="0.90604">
        <ele>1514.719</ele>
        <time>2021-03-13T12:50:46Z</time>
      </trkpt>
      <trkpt lat="42.85031" lon="0.90604">
        <ele>1514.716</ele>
        <time>2021-03-13T12:50:48Z</time>
      </trkpt>
      <trkpt lat="42.85031" lon="0.90604">
        <ele>1514.714</ele>
        <time>2021-03-13T12:50:50Z</time>
      </trkpt>
      <trkpt lat="42.85031" lon="0.90604">
        <ele>1514.714</ele>
        <time>2021-03-13T12:50:52Z</time>
      </trkpt>
      <trkpt lat="42.85031" lon="0.90604">
        <ele>1514.716</ele>
        <time>2021-03-13T12:50:54Z</time>
      </trkpt>
      <trkpt lat="42.85031" lon="0.90604">
        <ele>1514.715</ele>
        <time>2021-03-13T12:50:56Z</time>
      </trkpt>
      <trkpt lat="42.85031" lon="0.90604">
        <ele>1514.716</ele>
        <time>2021-03-13T12:50:58Z</time>
      </trkpt>
      <trkpt lat="42.85031" lon="0.90604">
        <ele>1514.715</ele>
        <time>2021-03-13T12:51:00Z</time>
      </trkpt>
      <trkpt lat="42.85031" lon="0.90604">
        <ele>1514.715</ele>
        <time>2021-03-13T12:51:02Z</time>
      </trkpt>
      <trkpt lat="42.85031" lon="0.90604">
        <ele>1514.718</ele>
        <time>2021-03-13T12:51:04Z</time>
      </trkpt>
      <trkpt lat="42.85031" lon="0.90604">
        <ele>1514.715</ele>
        <time>2021-03-13T12:51:06Z</time>
      </trkpt>
      <trkpt lat="42.85031" lon="0.90604">
        <ele>1514.715</ele>
        <time>2021-03-13T12:51:08Z</time>
      </trkpt>
      <trkpt lat="42.85031" lon="0.90604">
        <ele>1514.718</ele>
        <time>2021-03-13T12:51:10Z</time>
      </trkpt>
      <trkpt lat="42.85031" lon="0.90604">
        <ele>1514.716</ele>
        <time>2021-03-13T12:51:12Z</time>
      </trkpt>
      <trkpt lat="42.85031" lon="0.90604">
        <ele>1514.718</ele>
        <time>2021-03-13T12:51:14Z</time>
      </trkpt>
      <trkpt lat="42.85031" lon="0.90604">
        <ele>1514.723</ele>
        <time>2021-03-13T12:51:16Z</time>
      </trkpt>
      <trkpt lat="42.85031" lon="0.90604">
        <ele>1514.724</ele>
        <time>2021-03-13T12:51:18Z</time>
      </trkpt>
      <trkpt lat="42.85031" lon="0.90604">
        <ele>1514.724</ele>
        <time>2021-03-13T12:51:20Z</time>
      </trkpt>
      <trkpt lat="42.85031" lon="0.90604">
        <ele>1514.724</ele>
        <time>2021-03-13T12:51:22Z</time>
      </trkpt>
      <trkpt lat="42.85031" lon="0.90604">
        <ele>1514.725</ele>
        <time>2021-03-13T12:51:24Z</time>
      </trkpt>
      <trkpt lat="42.85031" lon="0.90604">
        <ele>1514.727</ele>
        <time>2021-03-13T12:51:26Z</time>
      </trkpt>
      <trkpt lat="42.85031" lon="0.90604">
        <ele>1514.727</ele>
        <time>2021-03-13T12:51:28Z</time>
      </trkpt>
      <trkpt lat="42.85031" lon="0.90604">
        <ele>1514.729</ele>
        <time>2021-03-13T12:51:30Z</time>
      </trkpt>
      <trkpt lat="42.85031" lon="0.90604">
        <ele>1514.728</ele>
        <time>2021-03-13T12:51:32Z</time>
      </trkpt>
      <trkpt lat="42.85031" lon="0.90604">
        <ele>1514.731</ele>
        <time>2021-03-13T12:51:34Z</time>
      </trkpt>
      <trkpt lat="42.85031" lon="0.90604">
        <ele>1514.732</ele>
        <time>2021-03-13T12:51:36Z</time>
      </trkpt>
      <trkpt lat="42.85031" lon="0.90604">
        <ele>1514.73</ele>
        <time>2021-03-13T12:51:38Z</time>
      </trkpt>
      <trkpt lat="42.85031" lon="0.90604">
        <ele>1514.73</ele>
        <time>2021-03-13T12:51:40Z</time>
      </trkpt>
      <trkpt lat="42.85031" lon="0.90604">
        <ele>1514.726</ele>
        <time>2021-03-13T12:51:42Z</time>
      </trkpt>
      <trkpt lat="42.85031" lon="0.90604">
        <ele>1514.726</ele>
        <time>2021-03-13T12:51:44Z</time>
      </trkpt>
      <trkpt lat="42.85031" lon="0.90604">
        <ele>1514.724</ele>
        <time>2021-03-13T12:51:46Z</time>
      </trkpt>
      <trkpt lat="42.85031" lon="0.90604">
        <ele>1514.725</ele>
        <time>2021-03-13T12:51:48Z</time>
      </trkpt>
      <trkpt lat="42.85031" lon="0.90604">
        <ele>1514.725</ele>
        <time>2021-03-13T12:51:50Z</time>
      </trkpt>
      <trkpt lat="42.85031" lon="0.90604">
        <ele>1514.725</ele>
        <time>2021-03-13T12:51:52Z</time>
      </trkpt>
      <trkpt lat="42.85031" lon="0.90604">
        <ele>1514.724</ele>
        <time>2021-03-13T12:51:54Z</time>
      </trkpt>
      <trkpt lat="42.85031" lon="0.90604">
        <ele>1514.724</ele>
        <time>2021-03-13T12:51:56Z</time>
      </trkpt>
      <trkpt lat="42.85031" lon="0.90604">
        <ele>1514.727</ele>
        <time>2021-03-13T12:51:58Z</time>
      </trkpt>
      <trkpt lat="42.85031" lon="0.90604">
        <ele>1514.729</ele>
        <time>2021-03-13T12:52:00Z</time>
      </trkpt>
      <trkpt lat="42.85031" lon="0.90604">
        <ele>1514.731</ele>
        <time>2021-03-13T12:52:02Z</time>
      </trkpt>
      <trkpt lat="42.85031" lon="0.90604">
        <ele>1514.733</ele>
        <time>2021-03-13T12:52:04Z</time>
      </trkpt>
      <trkpt lat="42.85031" lon="0.90604">
        <ele>1514.736</ele>
        <time>2021-03-13T12:52:06Z</time>
      </trkpt>
      <trkpt lat="42.85031" lon="0.90604">
        <ele>1514.736</ele>
        <time>2021-03-13T12:52:08Z</time>
      </trkpt>
      <trkpt lat="42.85031" lon="0.90604">
        <ele>1514.736</ele>
        <time>2021-03-13T12:52:10Z</time>
      </trkpt>
      <trkpt lat="42.85031" lon="0.90604">
        <ele>1514.735</ele>
        <time>2021-03-13T12:52:12Z</time>
      </trkpt>
      <trkpt lat="42.85031" lon="0.90604">
        <ele>1514.736</ele>
        <time>2021-03-13T12:52:14Z</time>
      </trkpt>
      <trkpt lat="42.85031" lon="0.90604">
        <ele>1514.736</ele>
        <time>2021-03-13T12:52:16Z</time>
      </trkpt>
      <trkpt lat="42.85031" lon="0.90604">
        <ele>1514.738</ele>
        <time>2021-03-13T12:52:18Z</time>
      </trkpt>
      <trkpt lat="42.85031" lon="0.90604">
        <ele>1514.739</ele>
        <time>2021-03-13T12:52:20Z</time>
      </trkpt>
      <trkpt lat="42.85031" lon="0.90604">
        <ele>1514.738</ele>
        <time>2021-03-13T12:52:22Z</time>
      </trkpt>
      <trkpt lat="42.85031" lon="0.90604">
        <ele>1514.74</ele>
        <time>2021-03-13T12:52:24Z</time>
      </trkpt>
      <trkpt lat="42.85031" lon="0.90604">
        <ele>1514.741</ele>
        <time>2021-03-13T12:52:26Z</time>
      </trkpt>
      <trkpt lat="42.85031" lon="0.90604">
        <ele>1514.741</ele>
        <time>2021-03-13T12:52:28Z</time>
      </trkpt>
      <trkpt lat="42.85031" lon="0.90604">
        <ele>1514.742</ele>
        <time>2021-03-13T12:52:30Z</time>
      </trkpt>
      <trkpt lat="42.85031" lon="0.90604">
        <ele>1514.741</ele>
        <time>2021-03-13T12:52:32Z</time>
      </trkpt>
      <trkpt lat="42.85031" lon="0.90604">
        <ele>1514.741</ele>
        <time>2021-03-13T12:52:34Z</time>
      </trkpt>
      <trkpt lat="42.85031" lon="0.90604">
        <ele>1514.743</ele>
        <time>2021-03-13T12:52:36Z</time>
      </trkpt>
      <trkpt lat="42.85031" lon="0.90604">
        <ele>1514.746</ele>
        <time>2021-03-13T12:52:38Z</time>
      </trkpt>
      <trkpt lat="42.85031" lon="0.90604">
        <ele>1514.748</ele>
        <time>2021-03-13T12:52:40Z</time>
      </trkpt>
      <trkpt lat="42.85031" lon="0.90604">
        <ele>1514.748</ele>
        <time>2021-03-13T12:52:42Z</time>
      </trkpt>
      <trkpt lat="42.85031" lon="0.90604">
        <ele>1514.747</ele>
        <time>2021-03-13T12:52:44Z</time>
      </trkpt>
      <trkpt lat="42.85031" lon="0.90604">
        <ele>1514.748</ele>
        <time>2021-03-13T12:52:46Z</time>
      </trkpt>
      <trkpt lat="42.85031" lon="0.90604">
        <ele>1514.746</ele>
        <time>2021-03-13T12:52:48Z</time>
      </trkpt>
      <trkpt lat="42.85031" lon="0.90604">
        <ele>1514.748</ele>
        <time>2021-03-13T12:52:50Z</time>
      </trkpt>
      <trkpt lat="42.85031" lon="0.90604">
        <ele>1514.75</ele>
        <time>2021-03-13T12:52:52Z</time>
      </trkpt>
      <trkpt lat="42.85031" lon="0.90604">
        <ele>1514.751</ele>
        <time>2021-03-13T12:52:54Z</time>
      </trkpt>
      <trkpt lat="42.85031" lon="0.90604">
        <ele>1514.749</ele>
        <time>2021-03-13T12:52:56Z</time>
      </trkpt>
      <trkpt lat="42.85031" lon="0.90604">
        <ele>1514.752</ele>
        <time>2021-03-13T12:52:58Z</time>
      </trkpt>
      <trkpt lat="42.85031" lon="0.90604">
        <ele>1514.752</ele>
        <time>2021-03-13T12:53:00Z</time>
      </trkpt>
      <trkpt lat="42.85031" lon="0.90604">
        <ele>1514.751</ele>
        <time>2021-03-13T12:53:02Z</time>
      </trkpt>
      <trkpt lat="42.85031" lon="0.90604">
        <ele>1514.753</ele>
        <time>2021-03-13T12:53:04Z</time>
      </trkpt>
      <trkpt lat="42.85031" lon="0.90604">
        <ele>1514.754</ele>
        <time>2021-03-13T12:53:06Z</time>
      </trkpt>
      <trkpt lat="42.85031" lon="0.90604">
        <ele>1514.757</ele>
        <time>2021-03-13T12:53:08Z</time>
      </trkpt>
      <trkpt lat="42.85031" lon="0.90604">
        <ele>1514.759</ele>
        <time>2021-03-13T12:53:10Z</time>
      </trkpt>
      <trkpt lat="42.85031" lon="0.90604">
        <ele>1514.76</ele>
        <time>2021-03-13T12:53:12Z</time>
      </trkpt>
      <trkpt lat="42.85031" lon="0.90604">
        <ele>1514.76</ele>
        <time>2021-03-13T12:53:14Z</time>
      </trkpt>
      <trkpt lat="42.85031" lon="0.90604">
        <ele>1514.761</ele>
        <time>2021-03-13T12:53:16Z</time>
      </trkpt>
      <trkpt lat="42.85031" lon="0.90604">
        <ele>1514.761</ele>
        <time>2021-03-13T12:53:18Z</time>
      </trkpt>
      <trkpt lat="42.85031" lon="0.90604">
        <ele>1514.76</ele>
        <time>2021-03-13T12:53:20Z</time>
      </trkpt>
      <trkpt lat="42.85031" lon="0.90604">
        <ele>1514.761</ele>
        <time>2021-03-13T12:53:22Z</time>
      </trkpt>
      <trkpt lat="42.85031" lon="0.90604">
        <ele>1514.76</ele>
        <time>2021-03-13T12:53:24Z</time>
      </trkpt>
      <trkpt lat="42.85031" lon="0.90604">
        <ele>1514.76</ele>
        <time>2021-03-13T12:53:26Z</time>
      </trkpt>
      <trkpt lat="42.85031" lon="0.90604">
        <ele>1514.762</ele>
        <time>2021-03-13T12:53:28Z</time>
      </trkpt>
      <trkpt lat="42.85031" lon="0.90604">
        <ele>1514.764</ele>
        <time>2021-03-13T12:53:30Z</time>
      </trkpt>
      <trkpt lat="42.85031" lon="0.90604">
        <ele>1514.766</ele>
        <time>2021-03-13T12:53:32Z</time>
      </trkpt>
      <trkpt lat="42.85031" lon="0.90604">
        <ele>1514.766</ele>
        <time>2021-03-13T12:53:34Z</time>
      </trkpt>
      <trkpt lat="42.85031" lon="0.90604">
        <ele>1514.77</ele>
        <time>2021-03-13T12:53:36Z</time>
      </trkpt>
      <trkpt lat="42.85031" lon="0.90604">
        <ele>1514.77</ele>
        <time>2021-03-13T12:53:38Z</time>
      </trkpt>
      <trkpt lat="42.85031" lon="0.90604">
        <ele>1514.771</ele>
        <time>2021-03-13T12:53:40Z</time>
      </trkpt>
      <trkpt lat="42.85031" lon="0.90604">
        <ele>1514.773</ele>
        <time>2021-03-13T12:53:42Z</time>
      </trkpt>
      <trkpt lat="42.85031" lon="0.90604">
        <ele>1514.775</ele>
        <time>2021-03-13T12:53:44Z</time>
      </trkpt>
      <trkpt lat="42.85031" lon="0.90604">
        <ele>1514.778</ele>
        <time>2021-03-13T12:53:46Z</time>
      </trkpt>
      <trkpt lat="42.85031" lon="0.90604">
        <ele>1514.778</ele>
        <time>2021-03-13T12:53:48Z</time>
      </trkpt>
      <trkpt lat="42.85031" lon="0.90604">
        <ele>1514.779</ele>
        <time>2021-03-13T12:53:50Z</time>
      </trkpt>
      <trkpt lat="42.85031" lon="0.90604">
        <ele>1514.78</ele>
        <time>2021-03-13T12:53:52Z</time>
      </trkpt>
      <trkpt lat="42.85031" lon="0.90604">
        <ele>1514.779</ele>
        <time>2021-03-13T12:53:54Z</time>
      </trkpt>
      <trkpt lat="42.85031" lon="0.90604">
        <ele>1514.781</ele>
        <time>2021-03-13T12:53:56Z</time>
      </trkpt>
      <trkpt lat="42.85031" lon="0.90604">
        <ele>1514.781</ele>
        <time>2021-03-13T12:53:58Z</time>
      </trkpt>
      <trkpt lat="42.85031" lon="0.90604">
        <ele>1514.781</ele>
        <time>2021-03-13T12:54:00Z</time>
      </trkpt>
      <trkpt lat="42.85031" lon="0.90604">
        <ele>1514.782</ele>
        <time>2021-03-13T12:54:02Z</time>
      </trkpt>
      <trkpt lat="42.85031" lon="0.90604">
        <ele>1514.784</ele>
        <time>2021-03-13T12:54:04Z</time>
      </trkpt>
      <trkpt lat="42.85031" lon="0.90604">
        <ele>1514.784</ele>
        <time>2021-03-13T12:54:06Z</time>
      </trkpt>
      <trkpt lat="42.85031" lon="0.90604">
        <ele>1514.783</ele>
        <time>2021-03-13T12:54:08Z</time>
      </trkpt>
      <trkpt lat="42.85031" lon="0.90604">
        <ele>1514.782</ele>
        <time>2021-03-13T12:54:10Z</time>
      </trkpt>
      <trkpt lat="42.85031" lon="0.90604">
        <ele>1514.781</ele>
        <time>2021-03-13T12:54:12Z</time>
      </trkpt>
      <trkpt lat="42.85031" lon="0.90604">
        <ele>1514.78</ele>
        <time>2021-03-13T12:54:14Z</time>
      </trkpt>
      <trkpt lat="42.85031" lon="0.90604">
        <ele>1514.779</ele>
        <time>2021-03-13T12:54:16Z</time>
      </trkpt>
      <trkpt lat="42.85031" lon="0.90604">
        <ele>1514.779</ele>
        <time>2021-03-13T12:54:18Z</time>
      </trkpt>
      <trkpt lat="42.85031" lon="0.90604">
        <ele>1514.779</ele>
        <time>2021-03-13T12:54:20Z</time>
      </trkpt>
      <trkpt lat="42.85031" lon="0.90604">
        <ele>1514.778</ele>
        <time>2021-03-13T12:54:22Z</time>
      </trkpt>
      <trkpt lat="42.85031" lon="0.90604">
        <ele>1514.777</ele>
        <time>2021-03-13T12:54:24Z</time>
      </trkpt>
      <trkpt lat="42.85031" lon="0.90604">
        <ele>1514.777</ele>
        <time>2021-03-13T12:54:26Z</time>
      </trkpt>
      <trkpt lat="42.85031" lon="0.90604">
        <ele>1514.778</ele>
        <time>2021-03-13T12:54:28Z</time>
      </trkpt>
      <trkpt lat="42.85031" lon="0.90604">
        <ele>1514.778</ele>
        <time>2021-03-13T12:54:30Z</time>
      </trkpt>
      <trkpt lat="42.85031" lon="0.90604">
        <ele>1514.779</ele>
        <time>2021-03-13T12:54:32Z</time>
      </trkpt>
      <trkpt lat="42.85031" lon="0.90604">
        <ele>1514.779</ele>
        <time>2021-03-13T12:54:34Z</time>
      </trkpt>
      <trkpt lat="42.85031" lon="0.90604">
        <ele>1514.777</ele>
        <time>2021-03-13T12:54:36Z</time>
      </trkpt>
      <trkpt lat="42.85031" lon="0.90604">
        <ele>1514.777</ele>
        <time>2021-03-13T12:54:38Z</time>
      </trkpt>
      <trkpt lat="42.85031" lon="0.90604">
        <ele>1514.777</ele>
        <time>2021-03-13T12:54:40Z</time>
      </trkpt>
      <trkpt lat="42.85031" lon="0.90604">
        <ele>1514.777</ele>
        <time>2021-03-13T12:54:42Z</time>
      </trkpt>
      <trkpt lat="42.85031" lon="0.90604">
        <ele>1514.776</ele>
        <time>2021-03-13T12:54:44Z</time>
      </trkpt>
      <trkpt lat="42.85031" lon="0.90604">
        <ele>1514.767</ele>
        <time>2021-03-13T12:54:46Z</time>
      </trkpt>
      <trkpt lat="42.85031" lon="0.90604">
        <ele>1514.768</ele>
        <time>2021-03-13T12:54:48Z</time>
      </trkpt>
      <trkpt lat="42.85031" lon="0.90604">
        <ele>1514.766</ele>
        <time>2021-03-13T12:54:50Z</time>
      </trkpt>
      <trkpt lat="42.85031" lon="0.90604">
        <ele>1514.77</ele>
        <time>2021-03-13T12:54:52Z</time>
      </trkpt>
      <trkpt lat="42.85031" lon="0.90604">
        <ele>1514.769</ele>
        <time>2021-03-13T12:54:54Z</time>
      </trkpt>
      <trkpt lat="42.85031" lon="0.90604">
        <ele>1514.771</ele>
        <time>2021-03-13T12:54:56Z</time>
      </trkpt>
      <trkpt lat="42.85031" lon="0.90604">
        <ele>1514.772</ele>
        <time>2021-03-13T12:54:58Z</time>
      </trkpt>
      <trkpt lat="42.85031" lon="0.90604">
        <ele>1514.773</ele>
        <time>2021-03-13T12:55:00Z</time>
      </trkpt>
      <trkpt lat="42.85031" lon="0.90604">
        <ele>1514.772</ele>
        <time>2021-03-13T12:55:02Z</time>
      </trkpt>
      <trkpt lat="42.85031" lon="0.90604">
        <ele>1514.765</ele>
        <time>2021-03-13T12:55:04Z</time>
      </trkpt>
      <trkpt lat="42.85031" lon="0.90604">
        <ele>1514.76</ele>
        <time>2021-03-13T12:55:06Z</time>
      </trkpt>
      <trkpt lat="42.85031" lon="0.90604">
        <ele>1514.756</ele>
        <time>2021-03-13T12:55:08Z</time>
      </trkpt>
      <trkpt lat="42.85031" lon="0.90604">
        <ele>1514.753</ele>
        <time>2021-03-13T12:55:10Z</time>
      </trkpt>
      <trkpt lat="42.85031" lon="0.90604">
        <ele>1514.753</ele>
        <time>2021-03-13T12:55:12Z</time>
      </trkpt>
      <trkpt lat="42.85031" lon="0.90604">
        <ele>1514.754</ele>
        <time>2021-03-13T12:55:14Z</time>
      </trkpt>
      <trkpt lat="42.85031" lon="0.90604">
        <ele>1514.754</ele>
        <time>2021-03-13T12:55:16Z</time>
      </trkpt>
      <trkpt lat="42.85031" lon="0.90604">
        <ele>1514.754</ele>
        <time>2021-03-13T12:55:18Z</time>
      </trkpt>
      <trkpt lat="42.85031" lon="0.90604">
        <ele>1514.758</ele>
        <time>2021-03-13T12:55:20Z</time>
      </trkpt>
      <trkpt lat="42.85031" lon="0.90604">
        <ele>1514.755</ele>
        <time>2021-03-13T12:55:22Z</time>
      </trkpt>
      <trkpt lat="42.85031" lon="0.90604">
        <ele>1514.755</ele>
        <time>2021-03-13T12:55:24Z</time>
      </trkpt>
      <trkpt lat="42.85031" lon="0.90604">
        <ele>1514.753</ele>
        <time>2021-03-13T12:55:26Z</time>
      </trkpt>
      <trkpt lat="42.85031" lon="0.90604">
        <ele>1514.75</ele>
        <time>2021-03-13T12:55:28Z</time>
      </trkpt>
      <trkpt lat="42.85031" lon="0.90604">
        <ele>1514.754</ele>
        <time>2021-03-13T12:55:30Z</time>
      </trkpt>
      <trkpt lat="42.85031" lon="0.90604">
        <ele>1514.755</ele>
        <time>2021-03-13T12:55:32Z</time>
      </trkpt>
      <trkpt lat="42.85031" lon="0.90604">
        <ele>1514.754</ele>
        <time>2021-03-13T12:55:34Z</time>
      </trkpt>
      <trkpt lat="42.85031" lon="0.90604">
        <ele>1514.754</ele>
        <time>2021-03-13T12:55:36Z</time>
      </trkpt>
      <trkpt lat="42.85031" lon="0.90604">
        <ele>1514.752</ele>
        <time>2021-03-13T12:55:38Z</time>
      </trkpt>
      <trkpt lat="42.85031" lon="0.90604">
        <ele>1514.747</ele>
        <time>2021-03-13T12:55:40Z</time>
      </trkpt>
      <trkpt lat="42.85031" lon="0.90604">
        <ele>1514.745</ele>
        <time>2021-03-13T12:55:42Z</time>
      </trkpt>
      <trkpt lat="42.85031" lon="0.90604">
        <ele>1514.745</ele>
        <time>2021-03-13T12:55:44Z</time>
      </trkpt>
      <trkpt lat="42.85031" lon="0.90604">
        <ele>1514.742</ele>
        <time>2021-03-13T12:55:46Z</time>
      </trkpt>
      <trkpt lat="42.85031" lon="0.90604">
        <ele>1514.741</ele>
        <time>2021-03-13T12:55:48Z</time>
      </trkpt>
      <trkpt lat="42.85031" lon="0.90604">
        <ele>1514.737</ele>
        <time>2021-03-13T12:55:50Z</time>
      </trkpt>
      <trkpt lat="42.85031" lon="0.90604">
        <ele>1514.736</ele>
        <time>2021-03-13T12:55:52Z</time>
      </trkpt>
      <trkpt lat="42.85031" lon="0.90604">
        <ele>1514.735</ele>
        <time>2021-03-13T12:55:54Z</time>
      </trkpt>
      <trkpt lat="42.85031" lon="0.90604">
        <ele>1514.739</ele>
        <time>2021-03-13T12:55:56Z</time>
      </trkpt>
      <trkpt lat="42.85031" lon="0.90604">
        <ele>1514.743</ele>
        <time>2021-03-13T12:55:58Z</time>
      </trkpt>
      <trkpt lat="42.85031" lon="0.90604">
        <ele>1514.75</ele>
        <time>2021-03-13T12:56:00Z</time>
      </trkpt>
      <trkpt lat="42.85031" lon="0.90604">
        <ele>1514.753</ele>
        <time>2021-03-13T12:56:02Z</time>
      </trkpt>
      <trkpt lat="42.85031" lon="0.90604">
        <ele>1514.757</ele>
        <time>2021-03-13T12:56:04Z</time>
      </trkpt>
      <trkpt lat="42.85031" lon="0.90604">
        <ele>1514.76</ele>
        <time>2021-03-13T12:56:06Z</time>
      </trkpt>
      <trkpt lat="42.85031" lon="0.90604">
        <ele>1514.757</ele>
        <time>2021-03-13T12:56:08Z</time>
      </trkpt>
      <trkpt lat="42.85031" lon="0.90604">
        <ele>1514.751</ele>
        <time>2021-03-13T12:56:10Z</time>
      </trkpt>
      <trkpt lat="42.85031" lon="0.90604">
        <ele>1514.753</ele>
        <time>2021-03-13T12:56:12Z</time>
      </trkpt>
      <trkpt lat="42.85031" lon="0.90604">
        <ele>1514.752</ele>
        <time>2021-03-13T12:56:14Z</time>
      </trkpt>
      <trkpt lat="42.85031" lon="0.90604">
        <ele>1514.755</ele>
        <time>2021-03-13T12:56:16Z</time>
      </trkpt>
      <trkpt lat="42.85031" lon="0.90604">
        <ele>1514.754</ele>
        <time>2021-03-13T12:56:18Z</time>
      </trkpt>
      <trkpt lat="42.85031" lon="0.90604">
        <ele>1514.747</ele>
        <time>2021-03-13T12:56:20Z</time>
      </trkpt>
      <trkpt lat="42.85031" lon="0.90604">
        <ele>1514.745</ele>
        <time>2021-03-13T12:56:22Z</time>
      </trkpt>
      <trkpt lat="42.85031" lon="0.90604">
        <ele>1514.74</ele>
        <time>2021-03-13T12:56:24Z</time>
      </trkpt>
      <trkpt lat="42.85031" lon="0.90604">
        <ele>1514.743</ele>
        <time>2021-03-13T12:56:26Z</time>
      </trkpt>
      <trkpt lat="42.85031" lon="0.90604">
        <ele>1514.74</ele>
        <time>2021-03-13T12:56:28Z</time>
      </trkpt>
      <trkpt lat="42.85031" lon="0.90604">
        <ele>1514.745</ele>
        <time>2021-03-13T12:56:30Z</time>
      </trkpt>
      <trkpt lat="42.85031" lon="0.90604">
        <ele>1514.747</ele>
        <time>2021-03-13T12:56:32Z</time>
      </trkpt>
      <trkpt lat="42.85031" lon="0.90604">
        <ele>1514.744</ele>
        <time>2021-03-13T12:56:34Z</time>
      </trkpt>
      <trkpt lat="42.85031" lon="0.90604">
        <ele>1514.75</ele>
        <time>2021-03-13T12:56:36Z</time>
      </trkpt>
      <trkpt lat="42.85031" lon="0.90604">
        <ele>1514.748</ele>
        <time>2021-03-13T12:56:38Z</time>
      </trkpt>
      <trkpt lat="42.85031" lon="0.90604">
        <ele>1514.749</ele>
        <time>2021-03-13T12:56:40Z</time>
      </trkpt>
      <trkpt lat="42.85031" lon="0.90604">
        <ele>1514.749</ele>
        <time>2021-03-13T12:56:42Z</time>
      </trkpt>
      <trkpt lat="42.85031" lon="0.90604">
        <ele>1514.738</ele>
        <time>2021-03-13T12:56:44Z</time>
      </trkpt>
      <trkpt lat="42.85031" lon="0.90604">
        <ele>1514.739</ele>
        <time>2021-03-13T12:56:46Z</time>
      </trkpt>
      <trkpt lat="42.85031" lon="0.90604">
        <ele>1514.737</ele>
        <time>2021-03-13T12:56:48Z</time>
      </trkpt>
      <trkpt lat="42.85031" lon="0.90604">
        <ele>1514.735</ele>
        <time>2021-03-13T12:56:50Z</time>
      </trkpt>
      <trkpt lat="42.85031" lon="0.90604">
        <ele>1514.728</ele>
        <time>2021-03-13T12:56:52Z</time>
      </trkpt>
      <trkpt lat="42.85031" lon="0.90604">
        <ele>1514.733</ele>
        <time>2021-03-13T12:56:54Z</time>
      </trkpt>
      <trkpt lat="42.85031" lon="0.90604">
        <ele>1514.732</ele>
        <time>2021-03-13T12:56:56Z</time>
      </trkpt>
      <trkpt lat="42.85031" lon="0.90604">
        <ele>1514.731</ele>
        <time>2021-03-13T12:56:58Z</time>
      </trkpt>
      <trkpt lat="42.85031" lon="0.90604">
        <ele>1514.732</ele>
        <time>2021-03-13T12:57:00Z</time>
      </trkpt>
      <trkpt lat="42.85031" lon="0.90604">
        <ele>1514.734</ele>
        <time>2021-03-13T12:57:02Z</time>
      </trkpt>
      <trkpt lat="42.85031" lon="0.90604">
        <ele>1514.732</ele>
        <time>2021-03-13T12:57:04Z</time>
      </trkpt>
      <trkpt lat="42.85031" lon="0.90604">
        <ele>1514.728</ele>
        <time>2021-03-13T12:57:06Z</time>
      </trkpt>
      <trkpt lat="42.85031" lon="0.90604">
        <ele>1514.728</ele>
        <time>2021-03-13T12:57:08Z</time>
      </trkpt>
      <trkpt lat="42.85031" lon="0.90604">
        <ele>1514.73</ele>
        <time>2021-03-13T12:57:10Z</time>
      </trkpt>
      <trkpt lat="42.85031" lon="0.90604">
        <ele>1514.74</ele>
        <time>2021-03-13T12:57:12Z</time>
      </trkpt>
      <trkpt lat="42.85031" lon="0.90604">
        <ele>1514.741</ele>
        <time>2021-03-13T12:57:14Z</time>
      </trkpt>
      <trkpt lat="42.85031" lon="0.90604">
        <ele>1514.741</ele>
        <time>2021-03-13T12:57:16Z</time>
      </trkpt>
      <trkpt lat="42.85031" lon="0.90604">
        <ele>1514.739</ele>
        <time>2021-03-13T12:57:18Z</time>
      </trkpt>
      <trkpt lat="42.85031" lon="0.90604">
        <ele>1514.743</ele>
        <time>2021-03-13T12:57:20Z</time>
      </trkpt>
      <trkpt lat="42.85031" lon="0.90604">
        <ele>1514.75</ele>
        <time>2021-03-13T12:57:22Z</time>
      </trkpt>
      <trkpt lat="42.85031" lon="0.90604">
        <ele>1514.753</ele>
        <time>2021-03-13T12:57:24Z</time>
      </trkpt>
      <trkpt lat="42.85031" lon="0.90604">
        <ele>1514.751</ele>
        <time>2021-03-13T12:57:26Z</time>
      </trkpt>
      <trkpt lat="42.85031" lon="0.90604">
        <ele>1514.751</ele>
        <time>2021-03-13T12:57:28Z</time>
      </trkpt>
      <trkpt lat="42.85031" lon="0.90604">
        <ele>1514.75</ele>
        <time>2021-03-13T12:57:30Z</time>
      </trkpt>
      <trkpt lat="42.85031" lon="0.90604">
        <ele>1514.749</ele>
        <time>2021-03-13T12:57:32Z</time>
      </trkpt>
      <trkpt lat="42.85031" lon="0.90604">
        <ele>1514.749</ele>
        <time>2021-03-13T12:57:34Z</time>
      </trkpt>
      <trkpt lat="42.85031" lon="0.90604">
        <ele>1514.747</ele>
        <time>2021-03-13T12:57:36Z</time>
      </trkpt>
      <trkpt lat="42.85031" lon="0.90604">
        <ele>1514.75</ele>
        <time>2021-03-13T12:57:38Z</time>
      </trkpt>
      <trkpt lat="42.85031" lon="0.90604">
        <ele>1514.748</ele>
        <time>2021-03-13T12:57:40Z</time>
      </trkpt>
      <trkpt lat="42.85031" lon="0.90604">
        <ele>1514.752</ele>
        <time>2021-03-13T12:57:42Z</time>
      </trkpt>
      <trkpt lat="42.85031" lon="0.90604">
        <ele>1514.754</ele>
        <time>2021-03-13T12:57:44Z</time>
      </trkpt>
      <trkpt lat="42.85031" lon="0.90604">
        <ele>1514.759</ele>
        <time>2021-03-13T12:57:46Z</time>
      </trkpt>
      <trkpt lat="42.85031" lon="0.90604">
        <ele>1514.763</ele>
        <time>2021-03-13T12:57:48Z</time>
      </trkpt>
      <trkpt lat="42.85031" lon="0.90604">
        <ele>1514.763</ele>
        <time>2021-03-13T12:57:50Z</time>
      </trkpt>
      <trkpt lat="42.85031" lon="0.90604">
        <ele>1514.768</ele>
        <time>2021-03-13T12:57:52Z</time>
      </trkpt>
      <trkpt lat="42.85031" lon="0.90604">
        <ele>1514.775</ele>
        <time>2021-03-13T12:57:54Z</time>
      </trkpt>
      <trkpt lat="42.85031" lon="0.90604">
        <ele>1514.774</ele>
        <time>2021-03-13T12:57:56Z</time>
      </trkpt>
      <trkpt lat="42.85031" lon="0.90604">
        <ele>1514.773</ele>
        <time>2021-03-13T12:57:58Z</time>
      </trkpt>
      <trkpt lat="42.85031" lon="0.90604">
        <ele>1514.578</ele>
        <time>2021-03-13T12:58:00Z</time>
      </trkpt>
      <trkpt lat="42.85031" lon="0.90604">
        <ele>1514.545</ele>
        <time>2021-03-13T12:58:02Z</time>
      </trkpt>
      <trkpt lat="42.85031" lon="0.90604">
        <ele>1514.546</ele>
        <time>2021-03-13T12:58:04Z</time>
      </trkpt>
      <trkpt lat="42.85031" lon="0.90604">
        <ele>1514.545</ele>
        <time>2021-03-13T12:58:06Z</time>
      </trkpt>
      <trkpt lat="42.85031" lon="0.90604">
        <ele>1514.381</ele>
        <time>2021-03-13T12:58:08Z</time>
      </trkpt>
      <trkpt lat="42.85031" lon="0.90604">
        <ele>1514.378</ele>
        <time>2021-03-13T12:58:10Z</time>
      </trkpt>
      <trkpt lat="42.85031" lon="0.90604">
        <ele>1514.382</ele>
        <time>2021-03-13T12:58:12Z</time>
      </trkpt>
      <trkpt lat="42.85031" lon="0.90605">
        <ele>1514.143</ele>
        <time>2021-03-13T12:58:14Z</time>
      </trkpt>
      <trkpt lat="42.85031" lon="0.90605">
        <ele>1514.141</ele>
        <time>2021-03-13T12:58:16Z</time>
      </trkpt>
      <trkpt lat="42.85031" lon="0.90605">
        <ele>1514.141</ele>
        <time>2021-03-13T12:58:18Z</time>
      </trkpt>
      <trkpt lat="42.85031" lon="0.90605">
        <ele>1514.138</ele>
        <time>2021-03-13T12:58:20Z</time>
      </trkpt>
      <trkpt lat="42.85031" lon="0.90605">
        <ele>1514.138</ele>
        <time>2021-03-13T12:58:22Z</time>
      </trkpt>
      <trkpt lat="42.85031" lon="0.90605">
        <ele>1514.331</ele>
        <time>2021-03-13T12:58:24Z</time>
      </trkpt>
      <trkpt lat="42.85031" lon="0.90606">
        <ele>1514.288</ele>
        <time>2021-03-13T12:58:26Z</time>
      </trkpt>
      <trkpt lat="42.8503" lon="0.90606">
        <ele>1514.679</ele>
        <time>2021-03-13T12:58:28Z</time>
      </trkpt>
      <trkpt lat="42.8503" lon="0.90606">
        <ele>1514.366</ele>
        <time>2021-03-13T12:58:30Z</time>
      </trkpt>
      <trkpt lat="42.8503" lon="0.90606">
        <ele>1514.366</ele>
        <time>2021-03-13T12:58:32Z</time>
      </trkpt>
      <trkpt lat="42.8503" lon="0.90606">
        <ele>1514.353</ele>
        <time>2021-03-13T12:58:34Z</time>
      </trkpt>
      <trkpt lat="42.8503" lon="0.90606">
        <ele>1514.346</ele>
        <time>2021-03-13T12:58:36Z</time>
      </trkpt>
      <trkpt lat="42.8503" lon="0.90606">
        <ele>1514.344</ele>
        <time>2021-03-13T12:58:38Z</time>
      </trkpt>
      <trkpt lat="42.8503" lon="0.90606">
        <ele>1514.351</ele>
        <time>2021-03-13T12:58:40Z</time>
      </trkpt>
      <trkpt lat="42.8503" lon="0.90607">
        <ele>1514.815</ele>
        <time>2021-03-13T12:58:42Z</time>
      </trkpt>
      <trkpt lat="42.8503" lon="0.90607">
        <ele>1514.483</ele>
        <time>2021-03-13T12:58:44Z</time>
      </trkpt>
      <trkpt lat="42.8503" lon="0.90607">
        <ele>1514.484</ele>
        <time>2021-03-13T12:58:46Z</time>
      </trkpt>
      <trkpt lat="42.8503" lon="0.90607">
        <ele>1514.487</ele>
        <time>2021-03-13T12:58:48Z</time>
      </trkpt>
      <trkpt lat="42.8503" lon="0.90607">
        <ele>1514.484</ele>
        <time>2021-03-13T12:58:50Z</time>
      </trkpt>
      <trkpt lat="42.8503" lon="0.90607">
        <ele>1514.486</ele>
        <time>2021-03-13T12:58:52Z</time>
      </trkpt>
      <trkpt lat="42.8503" lon="0.90607">
        <ele>1514.489</ele>
        <time>2021-03-13T12:58:54Z</time>
      </trkpt>
      <trkpt lat="42.8503" lon="0.90607">
        <ele>1514.498</ele>
        <time>2021-03-13T12:58:56Z</time>
      </trkpt>
      <trkpt lat="42.8503" lon="0.90607">
        <ele>1514.504</ele>
        <time>2021-03-13T12:58:58Z</time>
      </trkpt>
      <trkpt lat="42.8503" lon="0.90607">
        <ele>1514.507</ele>
        <time>2021-03-13T12:59:00Z</time>
      </trkpt>
      <trkpt lat="42.8503" lon="0.90607">
        <ele>1514.506</ele>
        <time>2021-03-13T12:59:02Z</time>
      </trkpt>
      <trkpt lat="42.8503" lon="0.90607">
        <ele>1514.508</ele>
        <time>2021-03-13T12:59:04Z</time>
      </trkpt>
      <trkpt lat="42.8503" lon="0.90607">
        <ele>1514.51</ele>
        <time>2021-03-13T12:59:06Z</time>
      </trkpt>
      <trkpt lat="42.8503" lon="0.90607">
        <ele>1514.507</ele>
        <time>2021-03-13T12:59:08Z</time>
      </trkpt>
      <trkpt lat="42.8503" lon="0.90607">
        <ele>1514.503</ele>
        <time>2021-03-13T12:59:10Z</time>
      </trkpt>
      <trkpt lat="42.8503" lon="0.90607">
        <ele>1514.504</ele>
        <time>2021-03-13T12:59:12Z</time>
      </trkpt>
      <trkpt lat="42.8503" lon="0.90607">
        <ele>1514.507</ele>
        <time>2021-03-13T12:59:14Z</time>
      </trkpt>
      <trkpt lat="42.8503" lon="0.90607">
        <ele>1514.509</ele>
        <time>2021-03-13T12:59:16Z</time>
      </trkpt>
      <trkpt lat="42.8503" lon="0.90607">
        <ele>1514.509</ele>
        <time>2021-03-13T12:59:18Z</time>
      </trkpt>
      <trkpt lat="42.8503" lon="0.90607">
        <ele>1514.517</ele>
        <time>2021-03-13T12:59:20Z</time>
      </trkpt>
      <trkpt lat="42.8503" lon="0.90607">
        <ele>1514.522</ele>
        <time>2021-03-13T12:59:22Z</time>
      </trkpt>
      <trkpt lat="42.85031" lon="0.90607">
        <ele>1514.47</ele>
        <time>2021-03-13T12:59:24Z</time>
      </trkpt>
      <trkpt lat="42.85031" lon="0.90607">
        <ele>1514.477</ele>
        <time>2021-03-13T12:59:26Z</time>
      </trkpt>
      <trkpt lat="42.85031" lon="0.90607">
        <ele>1514.475</ele>
        <time>2021-03-13T12:59:28Z</time>
      </trkpt>
      <trkpt lat="42.85031" lon="0.90607">
        <ele>1514.475</ele>
        <time>2021-03-13T12:59:30Z</time>
      </trkpt>
      <trkpt lat="42.85031" lon="0.90607">
        <ele>1514.479</ele>
        <time>2021-03-13T12:59:32Z</time>
      </trkpt>
      <trkpt lat="42.85031" lon="0.90607">
        <ele>1514.488</ele>
        <time>2021-03-13T12:59:34Z</time>
      </trkpt>
      <trkpt lat="42.85031" lon="0.90607">
        <ele>1514.494</ele>
        <time>2021-03-13T12:59:36Z</time>
      </trkpt>
      <trkpt lat="42.85031" lon="0.90607">
        <ele>1514.497</ele>
        <time>2021-03-13T12:59:38Z</time>
      </trkpt>
      <trkpt lat="42.85031" lon="0.90607">
        <ele>1514.502</ele>
        <time>2021-03-13T12:59:40Z</time>
      </trkpt>
      <trkpt lat="42.85031" lon="0.90607">
        <ele>1514.508</ele>
        <time>2021-03-13T12:59:42Z</time>
      </trkpt>
      <trkpt lat="42.85031" lon="0.90607">
        <ele>1514.509</ele>
        <time>2021-03-13T12:59:44Z</time>
      </trkpt>
      <trkpt lat="42.85031" lon="0.90607">
        <ele>1514.505</ele>
        <time>2021-03-13T12:59:46Z</time>
      </trkpt>
      <trkpt lat="42.85031" lon="0.90607">
        <ele>1514.506</ele>
        <time>2021-03-13T12:59:48Z</time>
      </trkpt>
      <trkpt lat="42.85031" lon="0.90607">
        <ele>1514.511</ele>
        <time>2021-03-13T12:59:50Z</time>
      </trkpt>
      <trkpt lat="42.8503" lon="0.90606">
        <ele>1514.231</ele>
        <time>2021-03-13T12:59:52Z</time>
      </trkpt>
      <trkpt lat="42.8503" lon="0.90606">
        <ele>1514.59</ele>
        <time>2021-03-13T12:59:54Z</time>
      </trkpt>
      <trkpt lat="42.8503" lon="0.90606">
        <ele>1514.585</ele>
        <time>2021-03-13T12:59:56Z</time>
      </trkpt>
      <trkpt lat="42.8503" lon="0.90606">
        <ele>1514.584</ele>
        <time>2021-03-13T12:59:58Z</time>
      </trkpt>
      <trkpt lat="42.8503" lon="0.90606">
        <ele>1514.583</ele>
        <time>2021-03-13T13:00:00Z</time>
      </trkpt>
      <trkpt lat="42.8503" lon="0.90606">
        <ele>1514.319</ele>
        <time>2021-03-13T13:00:02Z</time>
      </trkpt>
      <trkpt lat="42.8503" lon="0.90607">
        <ele>1514.373</ele>
        <time>2021-03-13T13:00:04Z</time>
      </trkpt>
      <trkpt lat="42.8503" lon="0.90608">
        <ele>1514.642</ele>
        <time>2021-03-13T13:00:06Z</time>
      </trkpt>
      <trkpt lat="42.85031" lon="0.90608">
        <ele>1514.628</ele>
        <time>2021-03-13T13:00:08Z</time>
      </trkpt>
      <trkpt lat="42.85031" lon="0.90608">
        <ele>1514.627</ele>
        <time>2021-03-13T13:00:10Z</time>
      </trkpt>
      <trkpt lat="42.85031" lon="0.90608">
        <ele>1514.629</ele>
        <time>2021-03-13T13:00:12Z</time>
      </trkpt>
      <trkpt lat="42.85031" lon="0.90608">
        <ele>1514.628</ele>
        <time>2021-03-13T13:00:14Z</time>
      </trkpt>
      <trkpt lat="42.85031" lon="0.90608">
        <ele>1514.629</ele>
        <time>2021-03-13T13:00:16Z</time>
      </trkpt>
      <trkpt lat="42.85031" lon="0.90608">
        <ele>1514.633</ele>
        <time>2021-03-13T13:00:18Z</time>
      </trkpt>
      <trkpt lat="42.85031" lon="0.90608">
        <ele>1514.633</ele>
        <time>2021-03-13T13:00:20Z</time>
      </trkpt>
      <trkpt lat="42.85031" lon="0.90608">
        <ele>1514.632</ele>
        <time>2021-03-13T13:00:22Z</time>
      </trkpt>
      <trkpt lat="42.85031" lon="0.90608">
        <ele>1514.632</ele>
        <time>2021-03-13T13:00:24Z</time>
      </trkpt>
      <trkpt lat="42.85031" lon="0.90608">
        <ele>1514.436</ele>
        <time>2021-03-13T13:00:26Z</time>
      </trkpt>
      <trkpt lat="42.85031" lon="0.90608">
        <ele>1514.446</ele>
        <time>2021-03-13T13:00:28Z</time>
      </trkpt>
      <trkpt lat="42.85031" lon="0.90608">
        <ele>1514.456</ele>
        <time>2021-03-13T13:00:30Z</time>
      </trkpt>
      <trkpt lat="42.85031" lon="0.90607">
        <ele>1514.313</ele>
        <time>2021-03-13T13:00:32Z</time>
      </trkpt>
      <trkpt lat="42.8503" lon="0.90607">
        <ele>1513.934</ele>
        <time>2021-03-13T13:00:34Z</time>
      </trkpt>
      <trkpt lat="42.8503" lon="0.90608">
        <ele>1514.056</ele>
        <time>2021-03-13T13:00:36Z</time>
      </trkpt>
      <trkpt lat="42.8503" lon="0.90608">
        <ele>1514.064</ele>
        <time>2021-03-13T13:00:38Z</time>
      </trkpt>
      <trkpt lat="42.8503" lon="0.90608">
        <ele>1514.071</ele>
        <time>2021-03-13T13:00:40Z</time>
      </trkpt>
      <trkpt lat="42.8503" lon="0.90608">
        <ele>1514.192</ele>
        <time>2021-03-13T13:00:42Z</time>
      </trkpt>
      <trkpt lat="42.85031" lon="0.90606">
        <ele>1513.368</ele>
        <time>2021-03-13T13:00:44Z</time>
      </trkpt>
      <trkpt lat="42.85031" lon="0.90606">
        <ele>1513.376</ele>
        <time>2021-03-13T13:00:46Z</time>
      </trkpt>
      <trkpt lat="42.85031" lon="0.90606">
        <ele>1513.379</ele>
        <time>2021-03-13T13:00:48Z</time>
      </trkpt>
      <trkpt lat="42.85031" lon="0.90606">
        <ele>1513.38</ele>
        <time>2021-03-13T13:00:50Z</time>
      </trkpt>
      <trkpt lat="42.85031" lon="0.90606">
        <ele>1513.382</ele>
        <time>2021-03-13T13:00:52Z</time>
      </trkpt>
      <trkpt lat="42.85031" lon="0.90606">
        <ele>1513.379</ele>
        <time>2021-03-13T13:00:54Z</time>
      </trkpt>
      <trkpt lat="42.85031" lon="0.90606">
        <ele>1513.383</ele>
        <time>2021-03-13T13:00:56Z</time>
      </trkpt>
      <trkpt lat="42.85031" lon="0.90606">
        <ele>1513.383</ele>
        <time>2021-03-13T13:00:58Z</time>
      </trkpt>
      <trkpt lat="42.85031" lon="0.90606">
        <ele>1513.384</ele>
        <time>2021-03-13T13:01:00Z</time>
      </trkpt>
      <trkpt lat="42.85031" lon="0.90606">
        <ele>1513.382</ele>
        <time>2021-03-13T13:01:02Z</time>
      </trkpt>
      <trkpt lat="42.85031" lon="0.90606">
        <ele>1513.723</ele>
        <time>2021-03-13T13:01:04Z</time>
      </trkpt>
      <trkpt lat="42.85032" lon="0.90606">
        <ele>1513.735</ele>
        <time>2021-03-13T13:01:06Z</time>
      </trkpt>
      <trkpt lat="42.85032" lon="0.90606">
        <ele>1513.689</ele>
        <time>2021-03-13T13:01:08Z</time>
      </trkpt>
      <trkpt lat="42.85032" lon="0.90606">
        <ele>1513.687</ele>
        <time>2021-03-13T13:01:10Z</time>
      </trkpt>
      <trkpt lat="42.85032" lon="0.90606">
        <ele>1513.688</ele>
        <time>2021-03-13T13:01:12Z</time>
      </trkpt>
      <trkpt lat="42.85032" lon="0.90606">
        <ele>1513.417</ele>
        <time>2021-03-13T13:01:14Z</time>
      </trkpt>
      <trkpt lat="42.85032" lon="0.90606">
        <ele>1513.416</ele>
        <time>2021-03-13T13:01:16Z</time>
      </trkpt>
      <trkpt lat="42.85032" lon="0.90606">
        <ele>1513.413</ele>
        <time>2021-03-13T13:01:18Z</time>
      </trkpt>
      <trkpt lat="42.85032" lon="0.90606">
        <ele>1513.411</ele>
        <time>2021-03-13T13:01:20Z</time>
      </trkpt>
      <trkpt lat="42.85032" lon="0.90606">
        <ele>1513.409</ele>
        <time>2021-03-13T13:01:22Z</time>
      </trkpt>
      <trkpt lat="42.85032" lon="0.90606">
        <ele>1513.407</ele>
        <time>2021-03-13T13:01:24Z</time>
      </trkpt>
      <trkpt lat="42.85032" lon="0.90606">
        <ele>1513.403</ele>
        <time>2021-03-13T13:01:26Z</time>
      </trkpt>
      <trkpt lat="42.85032" lon="0.90606">
        <ele>1513.406</ele>
        <time>2021-03-13T13:01:28Z</time>
      </trkpt>
      <trkpt lat="42.85032" lon="0.90606">
        <ele>1513.405</ele>
        <time>2021-03-13T13:01:30Z</time>
      </trkpt>
      <trkpt lat="42.85032" lon="0.90606">
        <ele>1513.034</ele>
        <time>2021-03-13T13:01:32Z</time>
      </trkpt>
      <trkpt lat="42.85032" lon="0.90606">
        <ele>1512.62</ele>
        <time>2021-03-13T13:01:34Z</time>
      </trkpt>
      <trkpt lat="42.85032" lon="0.90606">
        <ele>1512.617</ele>
        <time>2021-03-13T13:01:36Z</time>
      </trkpt>
      <trkpt lat="42.85032" lon="0.90606">
        <ele>1512.619</ele>
        <time>2021-03-13T13:01:38Z</time>
      </trkpt>
      <trkpt lat="42.85031" lon="0.90605">
        <ele>1512.56</ele>
        <time>2021-03-13T13:01:40Z</time>
      </trkpt>
      <trkpt lat="42.85031" lon="0.90605">
        <ele>1512.558</ele>
        <time>2021-03-13T13:01:42Z</time>
      </trkpt>
      <trkpt lat="42.85031" lon="0.90605">
        <ele>1512.557</ele>
        <time>2021-03-13T13:01:44Z</time>
      </trkpt>
      <trkpt lat="42.85031" lon="0.90605">
        <ele>1512.388</ele>
        <time>2021-03-13T13:01:46Z</time>
      </trkpt>
      <trkpt lat="42.85031" lon="0.90604">
        <ele>1512.921</ele>
        <time>2021-03-13T13:01:48Z</time>
      </trkpt>
      <trkpt lat="42.85031" lon="0.90604">
        <ele>1512.942</ele>
        <time>2021-03-13T13:01:50Z</time>
      </trkpt>
      <trkpt lat="42.85031" lon="0.90604">
        <ele>1512.601</ele>
        <time>2021-03-13T13:01:52Z</time>
      </trkpt>
      <trkpt lat="42.8503" lon="0.90604">
        <ele>1512.837</ele>
        <time>2021-03-13T13:01:54Z</time>
      </trkpt>
      <trkpt lat="42.85029" lon="0.90603">
        <ele>1513.643</ele>
        <time>2021-03-13T13:01:56Z</time>
      </trkpt>
      <trkpt lat="42.85028" lon="0.90602">
        <ele>1514.969</ele>
        <time>2021-03-13T13:01:58Z</time>
      </trkpt>
      <trkpt lat="42.85029" lon="0.90603">
        <ele>1514.818</ele>
        <time>2021-03-13T13:02:00Z</time>
      </trkpt>
      <trkpt lat="42.85028" lon="0.90605">
        <ele>1515.735</ele>
        <time>2021-03-13T13:02:02Z</time>
      </trkpt>
      <trkpt lat="42.85027" lon="0.90604">
        <ele>1516.009</ele>
        <time>2021-03-13T13:02:04Z</time>
      </trkpt>
      <trkpt lat="42.85026" lon="0.90603">
        <ele>1516.059</ele>
        <time>2021-03-13T13:02:06Z</time>
      </trkpt>
      <trkpt lat="42.85024" lon="0.90601">
        <ele>1515.504</ele>
        <time>2021-03-13T13:02:08Z</time>
      </trkpt>
      <trkpt lat="42.85024" lon="0.90599">
        <ele>1515.687</ele>
        <time>2021-03-13T13:02:10Z</time>
      </trkpt>
      <trkpt lat="42.85022" lon="0.90597">
        <ele>1515.703</ele>
        <time>2021-03-13T13:02:12Z</time>
      </trkpt>
      <trkpt lat="42.85021" lon="0.90595">
        <ele>1515.694</ele>
        <time>2021-03-13T13:02:14Z</time>
      </trkpt>
      <trkpt lat="42.85019" lon="0.90593">
        <ele>1516.251</ele>
        <time>2021-03-13T13:02:16Z</time>
      </trkpt>
      <trkpt lat="42.85018" lon="0.90591">
        <ele>1516.322</ele>
        <time>2021-03-13T13:02:18Z</time>
      </trkpt>
      <trkpt lat="42.85017" lon="0.90588">
        <ele>1516.521</ele>
        <time>2021-03-13T13:02:20Z</time>
      </trkpt>
      <trkpt lat="42.85016" lon="0.90586">
        <ele>1516.329</ele>
        <time>2021-03-13T13:02:22Z</time>
      </trkpt>
      <trkpt lat="42.85015" lon="0.90585">
        <ele>1516.016</ele>
        <time>2021-03-13T13:02:24Z</time>
      </trkpt>
      <trkpt lat="42.85014" lon="0.90584">
        <ele>1515.529</ele>
        <time>2021-03-13T13:02:26Z</time>
      </trkpt>
      <trkpt lat="42.85012" lon="0.90583">
        <ele>1515.124</ele>
        <time>2021-03-13T13:02:28Z</time>
      </trkpt>
      <trkpt lat="42.85011" lon="0.90584">
        <ele>1515.16</ele>
        <time>2021-03-13T13:02:30Z</time>
      </trkpt>
      <trkpt lat="42.8501" lon="0.90584">
        <ele>1514.756</ele>
        <time>2021-03-13T13:02:32Z</time>
      </trkpt>
      <trkpt lat="42.85009" lon="0.90585">
        <ele>1514.361</ele>
        <time>2021-03-13T13:02:34Z</time>
      </trkpt>
      <trkpt lat="42.85008" lon="0.90585">
        <ele>1513.173</ele>
        <time>2021-03-13T13:02:36Z</time>
      </trkpt>
      <trkpt lat="42.85008" lon="0.90585">
        <ele>1513.173</ele>
        <time>2021-03-13T13:02:38Z</time>
      </trkpt>
      <trkpt lat="42.85008" lon="0.90585">
        <ele>1513.169</ele>
        <time>2021-03-13T13:02:40Z</time>
      </trkpt>
      <trkpt lat="42.85008" lon="0.90585">
        <ele>1513.171</ele>
        <time>2021-03-13T13:02:42Z</time>
      </trkpt>
      <trkpt lat="42.85008" lon="0.90585">
        <ele>1513.157</ele>
        <time>2021-03-13T13:02:44Z</time>
      </trkpt>
      <trkpt lat="42.85008" lon="0.90585">
        <ele>1513.094</ele>
        <time>2021-03-13T13:02:46Z</time>
      </trkpt>
      <trkpt lat="42.85007" lon="0.90585">
        <ele>1513.421</ele>
        <time>2021-03-13T13:02:48Z</time>
      </trkpt>
      <trkpt lat="42.85006" lon="0.90585">
        <ele>1513.669</ele>
        <time>2021-03-13T13:02:50Z</time>
      </trkpt>
      <trkpt lat="42.85005" lon="0.90586">
        <ele>1513.54</ele>
        <time>2021-03-13T13:02:52Z</time>
      </trkpt>
      <trkpt lat="42.85004" lon="0.90587">
        <ele>1513.036</ele>
        <time>2021-03-13T13:02:54Z</time>
      </trkpt>
      <trkpt lat="42.85002" lon="0.90588">
        <ele>1513.057</ele>
        <time>2021-03-13T13:02:56Z</time>
      </trkpt>
      <trkpt lat="42.85001" lon="0.90588">
        <ele>1513.499</ele>
        <time>2021-03-13T13:02:58Z</time>
      </trkpt>
      <trkpt lat="42.84999" lon="0.9059">
        <ele>1513.239</ele>
        <time>2021-03-13T13:03:00Z</time>
      </trkpt>
      <trkpt lat="42.84998" lon="0.90592">
        <ele>1513.015</ele>
        <time>2021-03-13T13:03:02Z</time>
      </trkpt>
      <trkpt lat="42.84997" lon="0.90594">
        <ele>1513.034</ele>
        <time>2021-03-13T13:03:04Z</time>
      </trkpt>
      <trkpt lat="42.84995" lon="0.90596">
        <ele>1512.924</ele>
        <time>2021-03-13T13:03:06Z</time>
      </trkpt>
      <trkpt lat="42.84994" lon="0.90599">
        <ele>1512.651</ele>
        <time>2021-03-13T13:03:08Z</time>
      </trkpt>
      <trkpt lat="42.84993" lon="0.906">
        <ele>1512.229</ele>
        <time>2021-03-13T13:03:10Z</time>
      </trkpt>
      <trkpt lat="42.84992" lon="0.90602">
        <ele>1511.697</ele>
        <time>2021-03-13T13:03:12Z</time>
      </trkpt>
      <trkpt lat="42.84992" lon="0.90604">
        <ele>1511.377</ele>
        <time>2021-03-13T13:03:14Z</time>
      </trkpt>
      <trkpt lat="42.84991" lon="0.90606">
        <ele>1510.907</ele>
        <time>2021-03-13T13:03:16Z</time>
      </trkpt>
      <trkpt lat="42.8499" lon="0.90609">
        <ele>1510.56</ele>
        <time>2021-03-13T13:03:18Z</time>
      </trkpt>
      <trkpt lat="42.8499" lon="0.90611">
        <ele>1510.146</ele>
        <time>2021-03-13T13:03:20Z</time>
      </trkpt>
      <trkpt lat="42.8499" lon="0.90612">
        <ele>1509.801</ele>
        <time>2021-03-13T13:03:22Z</time>
      </trkpt>
      <trkpt lat="42.84991" lon="0.90615">
        <ele>1509.428</ele>
        <time>2021-03-13T13:03:24Z</time>
      </trkpt>
      <trkpt lat="42.84991" lon="0.90617">
        <ele>1508.57</ele>
        <time>2021-03-13T13:03:26Z</time>
      </trkpt>
      <trkpt lat="42.8499" lon="0.90618">
        <ele>1508.506</ele>
        <time>2021-03-13T13:03:28Z</time>
      </trkpt>
      <trkpt lat="42.84989" lon="0.90618">
        <ele>1508.499</ele>
        <time>2021-03-13T13:03:30Z</time>
      </trkpt>
      <trkpt lat="42.84988" lon="0.90618">
        <ele>1507.955</ele>
        <time>2021-03-13T13:03:32Z</time>
      </trkpt>
      <trkpt lat="42.84988" lon="0.90618">
        <ele>1507.954</ele>
        <time>2021-03-13T13:03:34Z</time>
      </trkpt>
      <trkpt lat="42.84989" lon="0.90618">
        <ele>1507.555</ele>
        <time>2021-03-13T13:03:36Z</time>
      </trkpt>
      <trkpt lat="42.84989" lon="0.90618">
        <ele>1507.541</ele>
        <time>2021-03-13T13:03:38Z</time>
      </trkpt>
      <trkpt lat="42.84989" lon="0.90618">
        <ele>1507.806</ele>
        <time>2021-03-13T13:03:40Z</time>
      </trkpt>
      <trkpt lat="42.84989" lon="0.90618">
        <ele>1507.817</ele>
        <time>2021-03-13T13:03:42Z</time>
      </trkpt>
      <trkpt lat="42.84989" lon="0.90618">
        <ele>1508.313</ele>
        <time>2021-03-13T13:03:44Z</time>
      </trkpt>
      <trkpt lat="42.84989" lon="0.90618">
        <ele>1508.322</ele>
        <time>2021-03-13T13:03:46Z</time>
      </trkpt>
      <trkpt lat="42.84989" lon="0.90618">
        <ele>1508.331</ele>
        <time>2021-03-13T13:03:48Z</time>
      </trkpt>
      <trkpt lat="42.84989" lon="0.90618">
        <ele>1508.337</ele>
        <time>2021-03-13T13:03:50Z</time>
      </trkpt>
      <trkpt lat="42.84989" lon="0.90618">
        <ele>1508.336</ele>
        <time>2021-03-13T13:03:52Z</time>
      </trkpt>
      <trkpt lat="42.84989" lon="0.90618">
        <ele>1508.336</ele>
        <time>2021-03-13T13:03:54Z</time>
      </trkpt>
      <trkpt lat="42.84989" lon="0.90618">
        <ele>1508.339</ele>
        <time>2021-03-13T13:03:56Z</time>
      </trkpt>
      <trkpt lat="42.84989" lon="0.90617">
        <ele>1507.832</ele>
        <time>2021-03-13T13:03:58Z</time>
      </trkpt>
      <trkpt lat="42.84989" lon="0.90617">
        <ele>1507.818</ele>
        <time>2021-03-13T13:04:00Z</time>
      </trkpt>
      <trkpt lat="42.84989" lon="0.90617">
        <ele>1507.805</ele>
        <time>2021-03-13T13:04:02Z</time>
      </trkpt>
      <trkpt lat="42.84989" lon="0.90617">
        <ele>1507.806</ele>
        <time>2021-03-13T13:04:04Z</time>
      </trkpt>
      <trkpt lat="42.84989" lon="0.90617">
        <ele>1507.808</ele>
        <time>2021-03-13T13:04:06Z</time>
      </trkpt>
      <trkpt lat="42.84989" lon="0.90617">
        <ele>1507.632</ele>
        <time>2021-03-13T13:04:08Z</time>
      </trkpt>
      <trkpt lat="42.84989" lon="0.90618">
        <ele>1507.649</ele>
        <time>2021-03-13T13:04:10Z</time>
      </trkpt>
      <trkpt lat="42.84989" lon="0.90617">
        <ele>1507.579</ele>
        <time>2021-03-13T13:04:12Z</time>
      </trkpt>
      <trkpt lat="42.84988" lon="0.90618">
        <ele>1507.02</ele>
        <time>2021-03-13T13:04:14Z</time>
      </trkpt>
      <trkpt lat="42.84987" lon="0.90619">
        <ele>1506.513</ele>
        <time>2021-03-13T13:04:16Z</time>
      </trkpt>
      <trkpt lat="42.84986" lon="0.90621">
        <ele>1506.036</ele>
        <time>2021-03-13T13:04:18Z</time>
      </trkpt>
      <trkpt lat="42.84986" lon="0.90623">
        <ele>1505.247</ele>
        <time>2021-03-13T13:04:20Z</time>
      </trkpt>
      <trkpt lat="42.84985" lon="0.90624">
        <ele>1504.327</ele>
        <time>2021-03-13T13:04:22Z</time>
      </trkpt>
      <trkpt lat="42.84984" lon="0.90626">
        <ele>1504.478</ele>
        <time>2021-03-13T13:04:24Z</time>
      </trkpt>
      <trkpt lat="42.84983" lon="0.90627">
        <ele>1504.489</ele>
        <time>2021-03-13T13:04:26Z</time>
      </trkpt>
      <trkpt lat="42.84983" lon="0.90628">
        <ele>1503.9</ele>
        <time>2021-03-13T13:04:28Z</time>
      </trkpt>
      <trkpt lat="42.84982" lon="0.90629">
        <ele>1504.039</ele>
        <time>2021-03-13T13:04:30Z</time>
      </trkpt>
      <trkpt lat="42.84981" lon="0.9063">
        <ele>1504.26</ele>
        <time>2021-03-13T13:04:32Z</time>
      </trkpt>
      <trkpt lat="42.84981" lon="0.9063">
        <ele>1504.86</ele>
        <time>2021-03-13T13:04:34Z</time>
      </trkpt>
      <trkpt lat="42.84981" lon="0.90631">
        <ele>1505.043</ele>
        <time>2021-03-13T13:04:36Z</time>
      </trkpt>
      <trkpt lat="42.8498" lon="0.90632">
        <ele>1505.071</ele>
        <time>2021-03-13T13:04:38Z</time>
      </trkpt>
      <trkpt lat="42.84979" lon="0.90634">
        <ele>1503.93</ele>
        <time>2021-03-13T13:04:40Z</time>
      </trkpt>
      <trkpt lat="42.84978" lon="0.90636">
        <ele>1503.191</ele>
        <time>2021-03-13T13:04:42Z</time>
      </trkpt>
      <trkpt lat="42.84977" lon="0.90638">
        <ele>1503.019</ele>
        <time>2021-03-13T13:04:44Z</time>
      </trkpt>
      <trkpt lat="42.84975" lon="0.9064">
        <ele>1503.248</ele>
        <time>2021-03-13T13:04:46Z</time>
      </trkpt>
      <trkpt lat="42.84975" lon="0.90642">
        <ele>1502.79</ele>
        <time>2021-03-13T13:04:48Z</time>
      </trkpt>
      <trkpt lat="42.84974" lon="0.90645">
        <ele>1501.673</ele>
        <time>2021-03-13T13:04:50Z</time>
      </trkpt>
      <trkpt lat="42.84973" lon="0.90647">
        <ele>1501.087</ele>
        <time>2021-03-13T13:04:52Z</time>
      </trkpt>
      <trkpt lat="42.84971" lon="0.9065">
        <ele>1500.627</ele>
        <time>2021-03-13T13:04:54Z</time>
      </trkpt>
      <trkpt lat="42.8497" lon="0.90652">
        <ele>1499.566</ele>
        <time>2021-03-13T13:04:56Z</time>
      </trkpt>
      <trkpt lat="42.84968" lon="0.90654">
        <ele>1499.372</ele>
        <time>2021-03-13T13:04:58Z</time>
      </trkpt>
      <trkpt lat="42.84967" lon="0.90657">
        <ele>1499.244</ele>
        <time>2021-03-13T13:05:00Z</time>
      </trkpt>
      <trkpt lat="42.84966" lon="0.90659">
        <ele>1498.784</ele>
        <time>2021-03-13T13:05:02Z</time>
      </trkpt>
      <trkpt lat="42.84964" lon="0.90661">
        <ele>1498.215</ele>
        <time>2021-03-13T13:05:04Z</time>
      </trkpt>
      <trkpt lat="42.84963" lon="0.90663">
        <ele>1498.336</ele>
        <time>2021-03-13T13:05:06Z</time>
      </trkpt>
      <trkpt lat="42.84962" lon="0.90666">
        <ele>1497.754</ele>
        <time>2021-03-13T13:05:08Z</time>
      </trkpt>
      <trkpt lat="42.84961" lon="0.90669">
        <ele>1497.132</ele>
        <time>2021-03-13T13:05:10Z</time>
      </trkpt>
      <trkpt lat="42.8496" lon="0.90671">
        <ele>1496.153</ele>
        <time>2021-03-13T13:05:12Z</time>
      </trkpt>
      <trkpt lat="42.84959" lon="0.90673">
        <ele>1495.887</ele>
        <time>2021-03-13T13:05:14Z</time>
      </trkpt>
      <trkpt lat="42.84958" lon="0.90676">
        <ele>1495.005</ele>
        <time>2021-03-13T13:05:16Z</time>
      </trkpt>
      <trkpt lat="42.84958" lon="0.90678">
        <ele>1494.41</ele>
        <time>2021-03-13T13:05:18Z</time>
      </trkpt>
      <trkpt lat="42.84956" lon="0.90681">
        <ele>1493.726</ele>
        <time>2021-03-13T13:05:20Z</time>
      </trkpt>
      <trkpt lat="42.84955" lon="0.90684">
        <ele>1492.939</ele>
        <time>2021-03-13T13:05:22Z</time>
      </trkpt>
      <trkpt lat="42.84954" lon="0.90686">
        <ele>1492.658</ele>
        <time>2021-03-13T13:05:24Z</time>
      </trkpt>
      <trkpt lat="42.84954" lon="0.90689">
        <ele>1492.03</ele>
        <time>2021-03-13T13:05:26Z</time>
      </trkpt>
      <trkpt lat="42.84953" lon="0.90691">
        <ele>1491.387</ele>
        <time>2021-03-13T13:05:28Z</time>
      </trkpt>
      <trkpt lat="42.84952" lon="0.90694">
        <ele>1490.826</ele>
        <time>2021-03-13T13:05:30Z</time>
      </trkpt>
      <trkpt lat="42.84952" lon="0.90696">
        <ele>1490.036</ele>
        <time>2021-03-13T13:05:32Z</time>
      </trkpt>
      <trkpt lat="42.84951" lon="0.90699">
        <ele>1489.736</ele>
        <time>2021-03-13T13:05:34Z</time>
      </trkpt>
      <trkpt lat="42.8495" lon="0.90703">
        <ele>1488.971</ele>
        <time>2021-03-13T13:05:36Z</time>
      </trkpt>
      <trkpt lat="42.84948" lon="0.90706">
        <ele>1488.745</ele>
        <time>2021-03-13T13:05:38Z</time>
      </trkpt>
      <trkpt lat="42.84947" lon="0.90709">
        <ele>1488.431</ele>
        <time>2021-03-13T13:05:40Z</time>
      </trkpt>
      <trkpt lat="42.84947" lon="0.90712">
        <ele>1487.526</ele>
        <time>2021-03-13T13:05:42Z</time>
      </trkpt>
      <trkpt lat="42.84946" lon="0.90715">
        <ele>1486.531</ele>
        <time>2021-03-13T13:05:44Z</time>
      </trkpt>
      <trkpt lat="42.84945" lon="0.90718">
        <ele>1486.328</ele>
        <time>2021-03-13T13:05:46Z</time>
      </trkpt>
      <trkpt lat="42.84944" lon="0.90721">
        <ele>1485.475</ele>
        <time>2021-03-13T13:05:48Z</time>
      </trkpt>
      <trkpt lat="42.84944" lon="0.90724">
        <ele>1484.988</ele>
        <time>2021-03-13T13:05:50Z</time>
      </trkpt>
      <trkpt lat="42.84943" lon="0.90727">
        <ele>1484.689</ele>
        <time>2021-03-13T13:05:52Z</time>
      </trkpt>
      <trkpt lat="42.84942" lon="0.90729">
        <ele>1484.104</ele>
        <time>2021-03-13T13:05:54Z</time>
      </trkpt>
      <trkpt lat="42.84941" lon="0.90732">
        <ele>1484.042</ele>
        <time>2021-03-13T13:05:56Z</time>
      </trkpt>
      <trkpt lat="42.8494" lon="0.90735">
        <ele>1483.485</ele>
        <time>2021-03-13T13:05:58Z</time>
      </trkpt>
      <trkpt lat="42.84939" lon="0.90737">
        <ele>1482.803</ele>
        <time>2021-03-13T13:06:00Z</time>
      </trkpt>
      <trkpt lat="42.84939" lon="0.9074">
        <ele>1482.422</ele>
        <time>2021-03-13T13:06:02Z</time>
      </trkpt>
      <trkpt lat="42.84938" lon="0.90743">
        <ele>1482.099</ele>
        <time>2021-03-13T13:06:04Z</time>
      </trkpt>
      <trkpt lat="42.84938" lon="0.90745">
        <ele>1481.615</ele>
        <time>2021-03-13T13:06:06Z</time>
      </trkpt>
      <trkpt lat="42.84937" lon="0.90748">
        <ele>1481.46</ele>
        <time>2021-03-13T13:06:08Z</time>
      </trkpt>
      <trkpt lat="42.84937" lon="0.90751">
        <ele>1480.987</ele>
        <time>2021-03-13T13:06:10Z</time>
      </trkpt>
      <trkpt lat="42.84936" lon="0.90754">
        <ele>1480.869</ele>
        <time>2021-03-13T13:06:12Z</time>
      </trkpt>
      <trkpt lat="42.84935" lon="0.90757">
        <ele>1480.352</ele>
        <time>2021-03-13T13:06:14Z</time>
      </trkpt>
      <trkpt lat="42.84934" lon="0.9076">
        <ele>1479.882</ele>
        <time>2021-03-13T13:06:16Z</time>
      </trkpt>
      <trkpt lat="42.84933" lon="0.90762">
        <ele>1479.126</ele>
        <time>2021-03-13T13:06:18Z</time>
      </trkpt>
      <trkpt lat="42.84932" lon="0.90765">
        <ele>1478.82</ele>
        <time>2021-03-13T13:06:20Z</time>
      </trkpt>
      <trkpt lat="42.84931" lon="0.90767">
        <ele>1478.195</ele>
        <time>2021-03-13T13:06:22Z</time>
      </trkpt>
      <trkpt lat="42.84929" lon="0.90769">
        <ele>1477.965</ele>
        <time>2021-03-13T13:06:24Z</time>
      </trkpt>
      <trkpt lat="42.84928" lon="0.90772">
        <ele>1477.202</ele>
        <time>2021-03-13T13:06:26Z</time>
      </trkpt>
      <trkpt lat="42.84926" lon="0.90773">
        <ele>1476.723</ele>
        <time>2021-03-13T13:06:28Z</time>
      </trkpt>
      <trkpt lat="42.84925" lon="0.90775">
        <ele>1476.338</ele>
        <time>2021-03-13T13:06:30Z</time>
      </trkpt>
      <trkpt lat="42.84924" lon="0.90777">
        <ele>1475.889</ele>
        <time>2021-03-13T13:06:32Z</time>
      </trkpt>
      <trkpt lat="42.84923" lon="0.9078">
        <ele>1475.658</ele>
        <time>2021-03-13T13:06:34Z</time>
      </trkpt>
      <trkpt lat="42.84921" lon="0.90781">
        <ele>1474.956</ele>
        <time>2021-03-13T13:06:36Z</time>
      </trkpt>
      <trkpt lat="42.8492" lon="0.90784">
        <ele>1473.917</ele>
        <time>2021-03-13T13:06:38Z</time>
      </trkpt>
      <trkpt lat="42.84919" lon="0.90786">
        <ele>1473.832</ele>
        <time>2021-03-13T13:06:40Z</time>
      </trkpt>
      <trkpt lat="42.84917" lon="0.90787">
        <ele>1474.004</ele>
        <time>2021-03-13T13:06:42Z</time>
      </trkpt>
      <trkpt lat="42.84916" lon="0.90789">
        <ele>1472.999</ele>
        <time>2021-03-13T13:06:44Z</time>
      </trkpt>
      <trkpt lat="42.84914" lon="0.90791">
        <ele>1472.004</ele>
        <time>2021-03-13T13:06:46Z</time>
      </trkpt>
      <trkpt lat="42.84913" lon="0.90794">
        <ele>1471.291</ele>
        <time>2021-03-13T13:06:48Z</time>
      </trkpt>
      <trkpt lat="42.84912" lon="0.90796">
        <ele>1470.655</ele>
        <time>2021-03-13T13:06:50Z</time>
      </trkpt>
      <trkpt lat="42.84911" lon="0.90798">
        <ele>1470.486</ele>
        <time>2021-03-13T13:06:52Z</time>
      </trkpt>
      <trkpt lat="42.8491" lon="0.908">
        <ele>1470.035</ele>
        <time>2021-03-13T13:06:54Z</time>
      </trkpt>
      <trkpt lat="42.84909" lon="0.90802">
        <ele>1469.485</ele>
        <time>2021-03-13T13:06:56Z</time>
      </trkpt>
      <trkpt lat="42.84908" lon="0.90805">
        <ele>1469.147</ele>
        <time>2021-03-13T13:06:58Z</time>
      </trkpt>
      <trkpt lat="42.84908" lon="0.90807">
        <ele>1468.481</ele>
        <time>2021-03-13T13:07:00Z</time>
      </trkpt>
      <trkpt lat="42.84908" lon="0.90809">
        <ele>1467.823</ele>
        <time>2021-03-13T13:07:02Z</time>
      </trkpt>
      <trkpt lat="42.84907" lon="0.90812">
        <ele>1467.962</ele>
        <time>2021-03-13T13:07:04Z</time>
      </trkpt>
      <trkpt lat="42.84907" lon="0.90813">
        <ele>1467.929</ele>
        <time>2021-03-13T13:07:05Z</time>
      </trkpt>
      <trkpt lat="42.84905" lon="0.90816">
        <ele>1467.352</ele>
        <time>2021-03-13T13:07:08Z</time>
      </trkpt>
      <trkpt lat="42.84905" lon="0.90818">
        <ele>1466.513</ele>
        <time>2021-03-13T13:07:10Z</time>
      </trkpt>
      <trkpt lat="42.84904" lon="0.90821">
        <ele>1465.935</ele>
        <time>2021-03-13T13:07:12Z</time>
      </trkpt>
      <trkpt lat="42.84903" lon="0.90823">
        <ele>1465.711</ele>
        <time>2021-03-13T13:07:14Z</time>
      </trkpt>
      <trkpt lat="42.84903" lon="0.90825">
        <ele>1465.138</ele>
        <time>2021-03-13T13:07:16Z</time>
      </trkpt>
      <trkpt lat="42.84902" lon="0.90828">
        <ele>1464.733</ele>
        <time>2021-03-13T13:07:18Z</time>
      </trkpt>
      <trkpt lat="42.84901" lon="0.9083">
        <ele>1463.895</ele>
        <time>2021-03-13T13:07:20Z</time>
      </trkpt>
      <trkpt lat="42.84901" lon="0.90833">
        <ele>1464.362</ele>
        <time>2021-03-13T13:07:22Z</time>
      </trkpt>
      <trkpt lat="42.849" lon="0.90835">
        <ele>1463.792</ele>
        <time>2021-03-13T13:07:24Z</time>
      </trkpt>
      <trkpt lat="42.84899" lon="0.90837">
        <ele>1463.43</ele>
        <time>2021-03-13T13:07:26Z</time>
      </trkpt>
      <trkpt lat="42.84899" lon="0.90839">
        <ele>1462.904</ele>
        <time>2021-03-13T13:07:28Z</time>
      </trkpt>
      <trkpt lat="42.84899" lon="0.90841">
        <ele>1463.147</ele>
        <time>2021-03-13T13:07:30Z</time>
      </trkpt>
      <trkpt lat="42.84898" lon="0.90844">
        <ele>1462.82</ele>
        <time>2021-03-13T13:07:32Z</time>
      </trkpt>
      <trkpt lat="42.84898" lon="0.90846">
        <ele>1463.002</ele>
        <time>2021-03-13T13:07:34Z</time>
      </trkpt>
      <trkpt lat="42.84897" lon="0.90848">
        <ele>1462.902</ele>
        <time>2021-03-13T13:07:36Z</time>
      </trkpt>
      <trkpt lat="42.84897" lon="0.9085">
        <ele>1462.838</ele>
        <time>2021-03-13T13:07:38Z</time>
      </trkpt>
      <trkpt lat="42.84896" lon="0.90853">
        <ele>1462.701</ele>
        <time>2021-03-13T13:07:40Z</time>
      </trkpt>
      <trkpt lat="42.84895" lon="0.90855">
        <ele>1461.989</ele>
        <time>2021-03-13T13:07:42Z</time>
      </trkpt>
      <trkpt lat="42.84894" lon="0.90856">
        <ele>1461.258</ele>
        <time>2021-03-13T13:07:44Z</time>
      </trkpt>
      <trkpt lat="42.84892" lon="0.90858">
        <ele>1460.513</ele>
        <time>2021-03-13T13:07:46Z</time>
      </trkpt>
      <trkpt lat="42.84891" lon="0.9086">
        <ele>1459.776</ele>
        <time>2021-03-13T13:07:48Z</time>
      </trkpt>
      <trkpt lat="42.84891" lon="0.90863">
        <ele>1458.383</ele>
        <time>2021-03-13T13:07:50Z</time>
      </trkpt>
      <trkpt lat="42.8489" lon="0.90867">
        <ele>1457.979</ele>
        <time>2021-03-13T13:07:52Z</time>
      </trkpt>
      <trkpt lat="42.8489" lon="0.90872">
        <ele>1457.976</ele>
        <time>2021-03-13T13:07:54Z</time>
      </trkpt>
      <trkpt lat="42.84888" lon="0.90876">
        <ele>1457</ele>
        <time>2021-03-13T13:07:56Z</time>
      </trkpt>
      <trkpt lat="42.84887" lon="0.90879">
        <ele>1456.277</ele>
        <time>2021-03-13T13:07:58Z</time>
      </trkpt>
      <trkpt lat="42.84886" lon="0.9088">
        <ele>1456.573</ele>
        <time>2021-03-13T13:08:00Z</time>
      </trkpt>
      <trkpt lat="42.84884" lon="0.90882">
        <ele>1455.544</ele>
        <time>2021-03-13T13:08:02Z</time>
      </trkpt>
      <trkpt lat="42.84882" lon="0.90885">
        <ele>1455.059</ele>
        <time>2021-03-13T13:08:04Z</time>
      </trkpt>
      <trkpt lat="42.84881" lon="0.90887">
        <ele>1454.558</ele>
        <time>2021-03-13T13:08:06Z</time>
      </trkpt>
      <trkpt lat="42.84879" lon="0.90889">
        <ele>1453.979</ele>
        <time>2021-03-13T13:08:08Z</time>
      </trkpt>
      <trkpt lat="42.84878" lon="0.90891">
        <ele>1453.051</ele>
        <time>2021-03-13T13:08:10Z</time>
      </trkpt>
      <trkpt lat="42.84877" lon="0.90893">
        <ele>1452.402</ele>
        <time>2021-03-13T13:08:12Z</time>
      </trkpt>
      <trkpt lat="42.84876" lon="0.90896">
        <ele>1451.161</ele>
        <time>2021-03-13T13:08:14Z</time>
      </trkpt>
      <trkpt lat="42.84876" lon="0.90899">
        <ele>1451.131</ele>
        <time>2021-03-13T13:08:16Z</time>
      </trkpt>
      <trkpt lat="42.84874" lon="0.90901">
        <ele>1450.514</ele>
        <time>2021-03-13T13:08:18Z</time>
      </trkpt>
      <trkpt lat="42.84874" lon="0.90904">
        <ele>1450.339</ele>
        <time>2021-03-13T13:08:20Z</time>
      </trkpt>
      <trkpt lat="42.84873" lon="0.90906">
        <ele>1449.921</ele>
        <time>2021-03-13T13:08:22Z</time>
      </trkpt>
      <trkpt lat="42.84872" lon="0.90909">
        <ele>1449.321</ele>
        <time>2021-03-13T13:08:24Z</time>
      </trkpt>
      <trkpt lat="42.84871" lon="0.90911">
        <ele>1449.17</ele>
        <time>2021-03-13T13:08:26Z</time>
      </trkpt>
      <trkpt lat="42.8487" lon="0.90914">
        <ele>1448.98</ele>
        <time>2021-03-13T13:08:28Z</time>
      </trkpt>
      <trkpt lat="42.84869" lon="0.90916">
        <ele>1448.61</ele>
        <time>2021-03-13T13:08:30Z</time>
      </trkpt>
      <trkpt lat="42.84868" lon="0.90918">
        <ele>1448.284</ele>
        <time>2021-03-13T13:08:32Z</time>
      </trkpt>
      <trkpt lat="42.84867" lon="0.9092">
        <ele>1448.926</ele>
        <time>2021-03-13T13:08:34Z</time>
      </trkpt>
      <trkpt lat="42.84867" lon="0.90922">
        <ele>1447.667</ele>
        <time>2021-03-13T13:08:36Z</time>
      </trkpt>
      <trkpt lat="42.84867" lon="0.90925">
        <ele>1446.736</ele>
        <time>2021-03-13T13:08:38Z</time>
      </trkpt>
      <trkpt lat="42.84866" lon="0.90927">
        <ele>1445.892</ele>
        <time>2021-03-13T13:08:40Z</time>
      </trkpt>
      <trkpt lat="42.84864" lon="0.90929">
        <ele>1445.387</ele>
        <time>2021-03-13T13:08:42Z</time>
      </trkpt>
      <trkpt lat="42.84862" lon="0.9093">
        <ele>1444.904</ele>
        <time>2021-03-13T13:08:44Z</time>
      </trkpt>
      <trkpt lat="42.84861" lon="0.90932">
        <ele>1444.262</ele>
        <time>2021-03-13T13:08:46Z</time>
      </trkpt>
      <trkpt lat="42.8486" lon="0.90934">
        <ele>1443.423</ele>
        <time>2021-03-13T13:08:48Z</time>
      </trkpt>
      <trkpt lat="42.8486" lon="0.90936">
        <ele>1444.459</ele>
        <time>2021-03-13T13:08:50Z</time>
      </trkpt>
      <trkpt lat="42.8486" lon="0.90938">
        <ele>1443.811</ele>
        <time>2021-03-13T13:08:52Z</time>
      </trkpt>
      <trkpt lat="42.84859" lon="0.9094">
        <ele>1443.42</ele>
        <time>2021-03-13T13:08:54Z</time>
      </trkpt>
      <trkpt lat="42.84858" lon="0.90941">
        <ele>1443.044</ele>
        <time>2021-03-13T13:08:56Z</time>
      </trkpt>
      <trkpt lat="42.84857" lon="0.90942">
        <ele>1443.108</ele>
        <time>2021-03-13T13:08:58Z</time>
      </trkpt>
      <trkpt lat="42.84856" lon="0.90944">
        <ele>1443.949</ele>
        <time>2021-03-13T13:09:00Z</time>
      </trkpt>
      <trkpt lat="42.84856" lon="0.90945">
        <ele>1442.638</ele>
        <time>2021-03-13T13:09:02Z</time>
      </trkpt>
      <trkpt lat="42.84855" lon="0.90948">
        <ele>1442.044</ele>
        <time>2021-03-13T13:09:04Z</time>
      </trkpt>
      <trkpt lat="42.84853" lon="0.9095">
        <ele>1441.79</ele>
        <time>2021-03-13T13:09:06Z</time>
      </trkpt>
      <trkpt lat="42.8485" lon="0.9095">
        <ele>1444.552</ele>
        <time>2021-03-13T13:09:08Z</time>
      </trkpt>
      <trkpt lat="42.84848" lon="0.90951">
        <ele>1445.96</ele>
        <time>2021-03-13T13:09:10Z</time>
      </trkpt>
      <trkpt lat="42.84846" lon="0.90955">
        <ele>1445.586</ele>
        <time>2021-03-13T13:09:12Z</time>
      </trkpt>
      <trkpt lat="42.84846" lon="0.90957">
        <ele>1445.364</ele>
        <time>2021-03-13T13:09:14Z</time>
      </trkpt>
      <trkpt lat="42.84843" lon="0.90958">
        <ele>1443.92</ele>
        <time>2021-03-13T13:09:16Z</time>
      </trkpt>
      <trkpt lat="42.84842" lon="0.9096">
        <ele>1445.003</ele>
        <time>2021-03-13T13:09:18Z</time>
      </trkpt>
      <trkpt lat="42.84841" lon="0.9096">
        <ele>1445.126</ele>
        <time>2021-03-13T13:09:20Z</time>
      </trkpt>
      <trkpt lat="42.8484" lon="0.90961">
        <ele>1443.453</ele>
        <time>2021-03-13T13:09:22Z</time>
      </trkpt>
      <trkpt lat="42.8484" lon="0.90963">
        <ele>1442.909</ele>
        <time>2021-03-13T13:09:24Z</time>
      </trkpt>
      <trkpt lat="42.84841" lon="0.90964">
        <ele>1443.929</ele>
        <time>2021-03-13T13:09:26Z</time>
      </trkpt>
      <trkpt lat="42.84842" lon="0.90964">
        <ele>1444.561</ele>
        <time>2021-03-13T13:09:28Z</time>
      </trkpt>
      <trkpt lat="42.84842" lon="0.90964">
        <ele>1444.708</ele>
        <time>2021-03-13T13:09:30Z</time>
      </trkpt>
      <trkpt lat="42.84842" lon="0.90964">
        <ele>1444.447</ele>
        <time>2021-03-13T13:09:32Z</time>
      </trkpt>
      <trkpt lat="42.84843" lon="0.90966">
        <ele>1444.008</ele>
        <time>2021-03-13T13:09:34Z</time>
      </trkpt>
      <trkpt lat="42.84843" lon="0.90968">
        <ele>1443.612</ele>
        <time>2021-03-13T13:09:36Z</time>
      </trkpt>
      <trkpt lat="42.84844" lon="0.90969">
        <ele>1442.476</ele>
        <time>2021-03-13T13:09:38Z</time>
      </trkpt>
      <trkpt lat="42.84844" lon="0.90971">
        <ele>1441.456</ele>
        <time>2021-03-13T13:09:40Z</time>
      </trkpt>
      <trkpt lat="42.84844" lon="0.90973">
        <ele>1440.735</ele>
        <time>2021-03-13T13:09:42Z</time>
      </trkpt>
      <trkpt lat="42.84844" lon="0.90975">
        <ele>1439.199</ele>
        <time>2021-03-13T13:09:44Z</time>
      </trkpt>
      <trkpt lat="42.84843" lon="0.90978">
        <ele>1438.198</ele>
        <time>2021-03-13T13:09:46Z</time>
      </trkpt>
      <trkpt lat="42.84842" lon="0.90979">
        <ele>1437.064</ele>
        <time>2021-03-13T13:09:48Z</time>
      </trkpt>
      <trkpt lat="42.84841" lon="0.90981">
        <ele>1436.517</ele>
        <time>2021-03-13T13:09:50Z</time>
      </trkpt>
      <trkpt lat="42.8484" lon="0.90983">
        <ele>1435.616</ele>
        <time>2021-03-13T13:09:52Z</time>
      </trkpt>
      <trkpt lat="42.84839" lon="0.90986">
        <ele>1434.894</ele>
        <time>2021-03-13T13:09:54Z</time>
      </trkpt>
      <trkpt lat="42.84838" lon="0.9099">
        <ele>1434.118</ele>
        <time>2021-03-13T13:09:56Z</time>
      </trkpt>
      <trkpt lat="42.84837" lon="0.90993">
        <ele>1433.644</ele>
        <time>2021-03-13T13:09:58Z</time>
      </trkpt>
      <trkpt lat="42.84836" lon="0.90995">
        <ele>1432.574</ele>
        <time>2021-03-13T13:10:00Z</time>
      </trkpt>
      <trkpt lat="42.84835" lon="0.90998">
        <ele>1431.345</ele>
        <time>2021-03-13T13:10:02Z</time>
      </trkpt>
      <trkpt lat="42.84834" lon="0.91001">
        <ele>1430.607</ele>
        <time>2021-03-13T13:10:04Z</time>
      </trkpt>
      <trkpt lat="42.84834" lon="0.91004">
        <ele>1429.894</ele>
        <time>2021-03-13T13:10:06Z</time>
      </trkpt>
      <trkpt lat="42.84833" lon="0.91007">
        <ele>1428.858</ele>
        <time>2021-03-13T13:10:08Z</time>
      </trkpt>
      <trkpt lat="42.84832" lon="0.9101">
        <ele>1428.35</ele>
        <time>2021-03-13T13:10:10Z</time>
      </trkpt>
      <trkpt lat="42.84831" lon="0.91013">
        <ele>1428.08</ele>
        <time>2021-03-13T13:10:12Z</time>
      </trkpt>
      <trkpt lat="42.8483" lon="0.91016">
        <ele>1427.611</ele>
        <time>2021-03-13T13:10:14Z</time>
      </trkpt>
      <trkpt lat="42.84829" lon="0.91019">
        <ele>1427.12</ele>
        <time>2021-03-13T13:10:16Z</time>
      </trkpt>
      <trkpt lat="42.84829" lon="0.91021">
        <ele>1426.619</ele>
        <time>2021-03-13T13:10:18Z</time>
      </trkpt>
      <trkpt lat="42.84828" lon="0.91024">
        <ele>1426.608</ele>
        <time>2021-03-13T13:10:20Z</time>
      </trkpt>
      <trkpt lat="42.84828" lon="0.91026">
        <ele>1426.606</ele>
        <time>2021-03-13T13:10:22Z</time>
      </trkpt>
      <trkpt lat="42.84827" lon="0.91029">
        <ele>1426.5</ele>
        <time>2021-03-13T13:10:24Z</time>
      </trkpt>
      <trkpt lat="42.84826" lon="0.91031">
        <ele>1425.778</ele>
        <time>2021-03-13T13:10:26Z</time>
      </trkpt>
      <trkpt lat="42.84826" lon="0.91034">
        <ele>1424.996</ele>
        <time>2021-03-13T13:10:28Z</time>
      </trkpt>
      <trkpt lat="42.84824" lon="0.91036">
        <ele>1424.479</ele>
        <time>2021-03-13T13:10:30Z</time>
      </trkpt>
      <trkpt lat="42.84824" lon="0.91038">
        <ele>1424.48</ele>
        <time>2021-03-13T13:10:32Z</time>
      </trkpt>
      <trkpt lat="42.84823" lon="0.9104">
        <ele>1424.449</ele>
        <time>2021-03-13T13:10:34Z</time>
      </trkpt>
      <trkpt lat="42.84822" lon="0.91042">
        <ele>1424.479</ele>
        <time>2021-03-13T13:10:36Z</time>
      </trkpt>
      <trkpt lat="42.84821" lon="0.91043">
        <ele>1424.787</ele>
        <time>2021-03-13T13:10:38Z</time>
      </trkpt>
      <trkpt lat="42.84819" lon="0.91044">
        <ele>1424.926</ele>
        <time>2021-03-13T13:10:40Z</time>
      </trkpt>
      <trkpt lat="42.84818" lon="0.91045">
        <ele>1423.779</ele>
        <time>2021-03-13T13:10:42Z</time>
      </trkpt>
      <trkpt lat="42.84818" lon="0.91046">
        <ele>1423.063</ele>
        <time>2021-03-13T13:10:44Z</time>
      </trkpt>
      <trkpt lat="42.84817" lon="0.91048">
        <ele>1423.189</ele>
        <time>2021-03-13T13:10:46Z</time>
      </trkpt>
      <trkpt lat="42.84817" lon="0.9105">
        <ele>1422.878</ele>
        <time>2021-03-13T13:10:48Z</time>
      </trkpt>
      <trkpt lat="42.84816" lon="0.91053">
        <ele>1422.69</ele>
        <time>2021-03-13T13:10:50Z</time>
      </trkpt>
      <trkpt lat="42.84815" lon="0.91054">
        <ele>1423.394</ele>
        <time>2021-03-13T13:10:52Z</time>
      </trkpt>
      <trkpt lat="42.84815" lon="0.91054">
        <ele>1423.041</ele>
        <time>2021-03-13T13:10:54Z</time>
      </trkpt>
      <trkpt lat="42.84815" lon="0.91053">
        <ele>1422.65</ele>
        <time>2021-03-13T13:10:56Z</time>
      </trkpt>
      <trkpt lat="42.84815" lon="0.91053">
        <ele>1422.641</ele>
        <time>2021-03-13T13:10:58Z</time>
      </trkpt>
      <trkpt lat="42.84815" lon="0.91054">
        <ele>1423.19</ele>
        <time>2021-03-13T13:11:00Z</time>
      </trkpt>
      <trkpt lat="42.84817" lon="0.91055">
        <ele>1423.005</ele>
        <time>2021-03-13T13:11:02Z</time>
      </trkpt>
      <trkpt lat="42.84818" lon="0.91057">
        <ele>1424.12</ele>
        <time>2021-03-13T13:11:04Z</time>
      </trkpt>
      <trkpt lat="42.84819" lon="0.91057">
        <ele>1424.448</ele>
        <time>2021-03-13T13:11:06Z</time>
      </trkpt>
      <trkpt lat="42.8482" lon="0.91057">
        <ele>1424.494</ele>
        <time>2021-03-13T13:11:08Z</time>
      </trkpt>
      <trkpt lat="42.8482" lon="0.91057">
        <ele>1424.468</ele>
        <time>2021-03-13T13:11:10Z</time>
      </trkpt>
      <trkpt lat="42.8482" lon="0.91057">
        <ele>1424.434</ele>
        <time>2021-03-13T13:11:12Z</time>
      </trkpt>
      <trkpt lat="42.8482" lon="0.91057">
        <ele>1424.419</ele>
        <time>2021-03-13T13:11:14Z</time>
      </trkpt>
      <trkpt lat="42.8482" lon="0.91058">
        <ele>1422.731</ele>
        <time>2021-03-13T13:11:16Z</time>
      </trkpt>
      <trkpt lat="42.8482" lon="0.91059">
        <ele>1422.73</ele>
        <time>2021-03-13T13:11:18Z</time>
      </trkpt>
      <trkpt lat="42.8482" lon="0.91059">
        <ele>1422.726</ele>
        <time>2021-03-13T13:11:20Z</time>
      </trkpt>
      <trkpt lat="42.8482" lon="0.91059">
        <ele>1422.725</ele>
        <time>2021-03-13T13:11:22Z</time>
      </trkpt>
      <trkpt lat="42.8482" lon="0.91059">
        <ele>1422.532</ele>
        <time>2021-03-13T13:11:24Z</time>
      </trkpt>
      <trkpt lat="42.8482" lon="0.91061">
        <ele>1421.981</ele>
        <time>2021-03-13T13:11:26Z</time>
      </trkpt>
      <trkpt lat="42.84821" lon="0.91062">
        <ele>1421.583</ele>
        <time>2021-03-13T13:11:28Z</time>
      </trkpt>
      <trkpt lat="42.84822" lon="0.91063">
        <ele>1421.687</ele>
        <time>2021-03-13T13:11:30Z</time>
      </trkpt>
      <trkpt lat="42.84823" lon="0.91063">
        <ele>1421.916</ele>
        <time>2021-03-13T13:11:32Z</time>
      </trkpt>
      <trkpt lat="42.84823" lon="0.91063">
        <ele>1421.925</ele>
        <time>2021-03-13T13:11:34Z</time>
      </trkpt>
      <trkpt lat="42.84823" lon="0.91063">
        <ele>1421.924</ele>
        <time>2021-03-13T13:11:36Z</time>
      </trkpt>
      <trkpt lat="42.84823" lon="0.91064">
        <ele>1421.477</ele>
        <time>2021-03-13T13:11:38Z</time>
      </trkpt>
      <trkpt lat="42.84825" lon="0.91066">
        <ele>1420.653</ele>
        <time>2021-03-13T13:11:40Z</time>
      </trkpt>
      <trkpt lat="42.84825" lon="0.91068">
        <ele>1420.358</ele>
        <time>2021-03-13T13:11:42Z</time>
      </trkpt>
      <trkpt lat="42.84826" lon="0.9107">
        <ele>1419.492</ele>
        <time>2021-03-13T13:11:44Z</time>
      </trkpt>
      <trkpt lat="42.84826" lon="0.91071">
        <ele>1419.316</ele>
        <time>2021-03-13T13:11:46Z</time>
      </trkpt>
      <trkpt lat="42.84827" lon="0.91072">
        <ele>1419.309</ele>
        <time>2021-03-13T13:11:48Z</time>
      </trkpt>
      <trkpt lat="42.84827" lon="0.91072">
        <ele>1419.303</ele>
        <time>2021-03-13T13:11:50Z</time>
      </trkpt>
      <trkpt lat="42.84827" lon="0.91072">
        <ele>1419.288</ele>
        <time>2021-03-13T13:11:52Z</time>
      </trkpt>
      <trkpt lat="42.84827" lon="0.91072">
        <ele>1419.295</ele>
        <time>2021-03-13T13:11:54Z</time>
      </trkpt>
      <trkpt lat="42.84826" lon="0.91072">
        <ele>1419.298</ele>
        <time>2021-03-13T13:11:56Z</time>
      </trkpt>
      <trkpt lat="42.84826" lon="0.91072">
        <ele>1419.303</ele>
        <time>2021-03-13T13:11:58Z</time>
      </trkpt>
      <trkpt lat="42.84826" lon="0.91072">
        <ele>1419.29</ele>
        <time>2021-03-13T13:12:00Z</time>
      </trkpt>
      <trkpt lat="42.84826" lon="0.91072">
        <ele>1419.29</ele>
        <time>2021-03-13T13:12:02Z</time>
      </trkpt>
      <trkpt lat="42.84826" lon="0.91074">
        <ele>1418.34</ele>
        <time>2021-03-13T13:12:04Z</time>
      </trkpt>
      <trkpt lat="42.84828" lon="0.91076">
        <ele>1419.017</ele>
        <time>2021-03-13T13:12:06Z</time>
      </trkpt>
      <trkpt lat="42.84828" lon="0.9108">
        <ele>1419.876</ele>
        <time>2021-03-13T13:12:08Z</time>
      </trkpt>
      <trkpt lat="42.84827" lon="0.91083">
        <ele>1418.951</ele>
        <time>2021-03-13T13:12:10Z</time>
      </trkpt>
      <trkpt lat="42.84825" lon="0.91085">
        <ele>1418.549</ele>
        <time>2021-03-13T13:12:12Z</time>
      </trkpt>
      <trkpt lat="42.84824" lon="0.91088">
        <ele>1417.789</ele>
        <time>2021-03-13T13:12:14Z</time>
      </trkpt>
      <trkpt lat="42.84824" lon="0.91091">
        <ele>1416.766</ele>
        <time>2021-03-13T13:12:16Z</time>
      </trkpt>
      <trkpt lat="42.84824" lon="0.91093">
        <ele>1416.178</ele>
        <time>2021-03-13T13:12:18Z</time>
      </trkpt>
      <trkpt lat="42.84823" lon="0.91096">
        <ele>1415.767</ele>
        <time>2021-03-13T13:12:20Z</time>
      </trkpt>
      <trkpt lat="42.84824" lon="0.91099">
        <ele>1414.865</ele>
        <time>2021-03-13T13:12:22Z</time>
      </trkpt>
      <trkpt lat="42.84823" lon="0.91101">
        <ele>1413.895</ele>
        <time>2021-03-13T13:12:24Z</time>
      </trkpt>
      <trkpt lat="42.84823" lon="0.91104">
        <ele>1412.859</ele>
        <time>2021-03-13T13:12:26Z</time>
      </trkpt>
      <trkpt lat="42.84824" lon="0.91106">
        <ele>1412.699</ele>
        <time>2021-03-13T13:12:28Z</time>
      </trkpt>
      <trkpt lat="42.84823" lon="0.91109">
        <ele>1411.867</ele>
        <time>2021-03-13T13:12:30Z</time>
      </trkpt>
      <trkpt lat="42.84823" lon="0.91112">
        <ele>1411.122</ele>
        <time>2021-03-13T13:12:32Z</time>
      </trkpt>
      <trkpt lat="42.84823" lon="0.91114">
        <ele>1410.634</ele>
        <time>2021-03-13T13:12:34Z</time>
      </trkpt>
      <trkpt lat="42.84824" lon="0.91116">
        <ele>1410.117</ele>
        <time>2021-03-13T13:12:36Z</time>
      </trkpt>
      <trkpt lat="42.84824" lon="0.91119">
        <ele>1409.654</ele>
        <time>2021-03-13T13:12:38Z</time>
      </trkpt>
      <trkpt lat="42.84825" lon="0.91121">
        <ele>1408.53</ele>
        <time>2021-03-13T13:12:40Z</time>
      </trkpt>
      <trkpt lat="42.84826" lon="0.91125">
        <ele>1408.031</ele>
        <time>2021-03-13T13:12:42Z</time>
      </trkpt>
      <trkpt lat="42.84825" lon="0.91129">
        <ele>1407.38</ele>
        <time>2021-03-13T13:12:44Z</time>
      </trkpt>
      <trkpt lat="42.84825" lon="0.91132">
        <ele>1406.777</ele>
        <time>2021-03-13T13:12:46Z</time>
      </trkpt>
      <trkpt lat="42.84825" lon="0.91134">
        <ele>1406.347</ele>
        <time>2021-03-13T13:12:48Z</time>
      </trkpt>
      <trkpt lat="42.84825" lon="0.91136">
        <ele>1407.527</ele>
        <time>2021-03-13T13:12:50Z</time>
      </trkpt>
      <trkpt lat="42.84825" lon="0.91138">
        <ele>1406.459</ele>
        <time>2021-03-13T13:12:52Z</time>
      </trkpt>
      <trkpt lat="42.84825" lon="0.91141">
        <ele>1405.526</ele>
        <time>2021-03-13T13:12:54Z</time>
      </trkpt>
      <trkpt lat="42.84825" lon="0.91144">
        <ele>1404.411</ele>
        <time>2021-03-13T13:12:56Z</time>
      </trkpt>
      <trkpt lat="42.84826" lon="0.91146">
        <ele>1404.031</ele>
        <time>2021-03-13T13:12:58Z</time>
      </trkpt>
      <trkpt lat="42.84826" lon="0.91149">
        <ele>1403.202</ele>
        <time>2021-03-13T13:13:00Z</time>
      </trkpt>
      <trkpt lat="42.84825" lon="0.91152">
        <ele>1402.209</ele>
        <time>2021-03-13T13:13:02Z</time>
      </trkpt>
      <trkpt lat="42.84825" lon="0.91155">
        <ele>1401.337</ele>
        <time>2021-03-13T13:13:04Z</time>
      </trkpt>
      <trkpt lat="42.84824" lon="0.91158">
        <ele>1400.685</ele>
        <time>2021-03-13T13:13:06Z</time>
      </trkpt>
      <trkpt lat="42.84824" lon="0.9116">
        <ele>1400.017</ele>
        <time>2021-03-13T13:13:08Z</time>
      </trkpt>
      <trkpt lat="42.84823" lon="0.91163">
        <ele>1398.936</ele>
        <time>2021-03-13T13:13:10Z</time>
      </trkpt>
      <trkpt lat="42.84823" lon="0.91166">
        <ele>1397.967</ele>
        <time>2021-03-13T13:13:12Z</time>
      </trkpt>
      <trkpt lat="42.84822" lon="0.91169">
        <ele>1398.186</ele>
        <time>2021-03-13T13:13:14Z</time>
      </trkpt>
      <trkpt lat="42.84819" lon="0.91172">
        <ele>1397.466</ele>
        <time>2021-03-13T13:13:16Z</time>
      </trkpt>
      <trkpt lat="42.84819" lon="0.91175">
        <ele>1396.671</ele>
        <time>2021-03-13T13:13:18Z</time>
      </trkpt>
      <trkpt lat="42.84818" lon="0.91177">
        <ele>1395.361</ele>
        <time>2021-03-13T13:13:20Z</time>
      </trkpt>
      <trkpt lat="42.84816" lon="0.91178">
        <ele>1394.849</ele>
        <time>2021-03-13T13:13:22Z</time>
      </trkpt>
      <trkpt lat="42.84816" lon="0.9118">
        <ele>1393.907</ele>
        <time>2021-03-13T13:13:24Z</time>
      </trkpt>
      <trkpt lat="42.84816" lon="0.91181">
        <ele>1394.064</ele>
        <time>2021-03-13T13:13:26Z</time>
      </trkpt>
      <trkpt lat="42.84817" lon="0.91182">
        <ele>1394.399</ele>
        <time>2021-03-13T13:13:28Z</time>
      </trkpt>
      <trkpt lat="42.84817" lon="0.91185">
        <ele>1394.317</ele>
        <time>2021-03-13T13:13:30Z</time>
      </trkpt>
      <trkpt lat="42.84818" lon="0.91186">
        <ele>1394.239</ele>
        <time>2021-03-13T13:13:32Z</time>
      </trkpt>
      <trkpt lat="42.84818" lon="0.91188">
        <ele>1393.416</ele>
        <time>2021-03-13T13:13:34Z</time>
      </trkpt>
      <trkpt lat="42.84818" lon="0.9119">
        <ele>1392.795</ele>
        <time>2021-03-13T13:13:36Z</time>
      </trkpt>
      <trkpt lat="42.84818" lon="0.91191">
        <ele>1392.044</ele>
        <time>2021-03-13T13:13:38Z</time>
      </trkpt>
      <trkpt lat="42.84819" lon="0.91192">
        <ele>1390.963</ele>
        <time>2021-03-13T13:13:40Z</time>
      </trkpt>
      <trkpt lat="42.8482" lon="0.91191">
        <ele>1389.842</ele>
        <time>2021-03-13T13:13:42Z</time>
      </trkpt>
      <trkpt lat="42.84822" lon="0.91191">
        <ele>1389.755</ele>
        <time>2021-03-13T13:13:44Z</time>
      </trkpt>
      <trkpt lat="42.84823" lon="0.91194">
        <ele>1389.008</ele>
        <time>2021-03-13T13:13:46Z</time>
      </trkpt>
      <trkpt lat="42.84822" lon="0.91195">
        <ele>1388.714</ele>
        <time>2021-03-13T13:13:48Z</time>
      </trkpt>
      <trkpt lat="42.84821" lon="0.91196">
        <ele>1387.738</ele>
        <time>2021-03-13T13:13:50Z</time>
      </trkpt>
      <trkpt lat="42.84819" lon="0.91197">
        <ele>1387.342</ele>
        <time>2021-03-13T13:13:52Z</time>
      </trkpt>
      <trkpt lat="42.84819" lon="0.912">
        <ele>1386.853</ele>
        <time>2021-03-13T13:13:54Z</time>
      </trkpt>
      <trkpt lat="42.84819" lon="0.91203">
        <ele>1386.856</ele>
        <time>2021-03-13T13:13:56Z</time>
      </trkpt>
      <trkpt lat="42.8482" lon="0.91205">
        <ele>1386.698</ele>
        <time>2021-03-13T13:13:58Z</time>
      </trkpt>
      <trkpt lat="42.84821" lon="0.91207">
        <ele>1385.992</ele>
        <time>2021-03-13T13:14:00Z</time>
      </trkpt>
      <trkpt lat="42.84821" lon="0.91208">
        <ele>1385.676</ele>
        <time>2021-03-13T13:14:02Z</time>
      </trkpt>
      <trkpt lat="42.84823" lon="0.91208">
        <ele>1385.557</ele>
        <time>2021-03-13T13:14:04Z</time>
      </trkpt>
      <trkpt lat="42.84826" lon="0.91207">
        <ele>1385.74</ele>
        <time>2021-03-13T13:14:06Z</time>
      </trkpt>
      <trkpt lat="42.84828" lon="0.91205">
        <ele>1384.892</ele>
        <time>2021-03-13T13:14:08Z</time>
      </trkpt>
      <trkpt lat="42.84829" lon="0.91205">
        <ele>1383.054</ele>
        <time>2021-03-13T13:14:10Z</time>
      </trkpt>
      <trkpt lat="42.8483" lon="0.91207">
        <ele>1382.737</ele>
        <time>2021-03-13T13:14:12Z</time>
      </trkpt>
      <trkpt lat="42.84831" lon="0.91209">
        <ele>1381.834</ele>
        <time>2021-03-13T13:14:14Z</time>
      </trkpt>
      <trkpt lat="42.84833" lon="0.9121">
        <ele>1380.566</ele>
        <time>2021-03-13T13:14:16Z</time>
      </trkpt>
      <trkpt lat="42.84835" lon="0.9121">
        <ele>1380.516</ele>
        <time>2021-03-13T13:14:18Z</time>
      </trkpt>
      <trkpt lat="42.84836" lon="0.91211">
        <ele>1379.445</ele>
        <time>2021-03-13T13:14:20Z</time>
      </trkpt>
      <trkpt lat="42.84838" lon="0.91211">
        <ele>1378.359</ele>
        <time>2021-03-13T13:14:22Z</time>
      </trkpt>
      <trkpt lat="42.8484" lon="0.91212">
        <ele>1377.451</ele>
        <time>2021-03-13T13:14:24Z</time>
      </trkpt>
      <trkpt lat="42.84842" lon="0.91213">
        <ele>1375.919</ele>
        <time>2021-03-13T13:14:26Z</time>
      </trkpt>
      <trkpt lat="42.84844" lon="0.91214">
        <ele>1374.759</ele>
        <time>2021-03-13T13:14:28Z</time>
      </trkpt>
      <trkpt lat="42.84846" lon="0.91215">
        <ele>1374.075</ele>
        <time>2021-03-13T13:14:30Z</time>
      </trkpt>
      <trkpt lat="42.84848" lon="0.91216">
        <ele>1373.604</ele>
        <time>2021-03-13T13:14:32Z</time>
      </trkpt>
      <trkpt lat="42.8485" lon="0.91216">
        <ele>1373.716</ele>
        <time>2021-03-13T13:14:34Z</time>
      </trkpt>
      <trkpt lat="42.84852" lon="0.91218">
        <ele>1372.655</ele>
        <time>2021-03-13T13:14:36Z</time>
      </trkpt>
      <trkpt lat="42.84853" lon="0.91219">
        <ele>1372.391</ele>
        <time>2021-03-13T13:14:38Z</time>
      </trkpt>
      <trkpt lat="42.84855" lon="0.91221">
        <ele>1370.91</ele>
        <time>2021-03-13T13:14:40Z</time>
      </trkpt>
      <trkpt lat="42.84857" lon="0.91222">
        <ele>1370.237</ele>
        <time>2021-03-13T13:14:42Z</time>
      </trkpt>
      <trkpt lat="42.84858" lon="0.91224">
        <ele>1369.835</ele>
        <time>2021-03-13T13:14:44Z</time>
      </trkpt>
      <trkpt lat="42.84859" lon="0.91225">
        <ele>1369.295</ele>
        <time>2021-03-13T13:14:46Z</time>
      </trkpt>
      <trkpt lat="42.84861" lon="0.91226">
        <ele>1368.694</ele>
        <time>2021-03-13T13:14:48Z</time>
      </trkpt>
      <trkpt lat="42.84862" lon="0.91229">
        <ele>1367.963</ele>
        <time>2021-03-13T13:14:50Z</time>
      </trkpt>
      <trkpt lat="42.84864" lon="0.91229">
        <ele>1367.123</ele>
        <time>2021-03-13T13:14:52Z</time>
      </trkpt>
      <trkpt lat="42.84866" lon="0.91229">
        <ele>1366.762</ele>
        <time>2021-03-13T13:14:54Z</time>
      </trkpt>
      <trkpt lat="42.84867" lon="0.91229">
        <ele>1365.969</ele>
        <time>2021-03-13T13:14:56Z</time>
      </trkpt>
      <trkpt lat="42.84868" lon="0.91229">
        <ele>1364.674</ele>
        <time>2021-03-13T13:14:58Z</time>
      </trkpt>
      <trkpt lat="42.84869" lon="0.91229">
        <ele>1364.47</ele>
        <time>2021-03-13T13:15:00Z</time>
      </trkpt>
      <trkpt lat="42.8487" lon="0.91229">
        <ele>1364.447</ele>
        <time>2021-03-13T13:15:02Z</time>
      </trkpt>
      <trkpt lat="42.8487" lon="0.91228">
        <ele>1365.636</ele>
        <time>2021-03-13T13:15:04Z</time>
      </trkpt>
      <trkpt lat="42.84871" lon="0.91228">
        <ele>1366.139</ele>
        <time>2021-03-13T13:15:06Z</time>
      </trkpt>
      <trkpt lat="42.84872" lon="0.91227">
        <ele>1367.409</ele>
        <time>2021-03-13T13:15:08Z</time>
      </trkpt>
      <trkpt lat="42.84872" lon="0.91227">
        <ele>1367.082</ele>
        <time>2021-03-13T13:15:10Z</time>
      </trkpt>
      <trkpt lat="42.84873" lon="0.91226">
        <ele>1366.881</ele>
        <time>2021-03-13T13:15:12Z</time>
      </trkpt>
      <trkpt lat="42.84872" lon="0.91227">
        <ele>1366.881</ele>
        <time>2021-03-13T13:15:14Z</time>
      </trkpt>
      <trkpt lat="42.84872" lon="0.91227">
        <ele>1366.88</ele>
        <time>2021-03-13T13:15:16Z</time>
      </trkpt>
      <trkpt lat="42.84872" lon="0.91227">
        <ele>1367.107</ele>
        <time>2021-03-13T13:15:18Z</time>
      </trkpt>
      <trkpt lat="42.84872" lon="0.91228">
        <ele>1367.132</ele>
        <time>2021-03-13T13:15:20Z</time>
      </trkpt>
      <trkpt lat="42.84873" lon="0.91229">
        <ele>1366.878</ele>
        <time>2021-03-13T13:15:22Z</time>
      </trkpt>
      <trkpt lat="42.84873" lon="0.9123">
        <ele>1366.345</ele>
        <time>2021-03-13T13:15:24Z</time>
      </trkpt>
      <trkpt lat="42.84873" lon="0.91231">
        <ele>1366.533</ele>
        <time>2021-03-13T13:15:26Z</time>
      </trkpt>
      <trkpt lat="42.84873" lon="0.91231">
        <ele>1366.518</ele>
        <time>2021-03-13T13:15:28Z</time>
      </trkpt>
      <trkpt lat="42.84873" lon="0.91231">
        <ele>1366.528</ele>
        <time>2021-03-13T13:15:30Z</time>
      </trkpt>
      <trkpt lat="42.84873" lon="0.91231">
        <ele>1366.223</ele>
        <time>2021-03-13T13:15:32Z</time>
      </trkpt>
      <trkpt lat="42.84874" lon="0.91231">
        <ele>1365.746</ele>
        <time>2021-03-13T13:15:34Z</time>
      </trkpt>
      <trkpt lat="42.84876" lon="0.9123">
        <ele>1364.908</ele>
        <time>2021-03-13T13:15:36Z</time>
      </trkpt>
      <trkpt lat="42.84877" lon="0.91231">
        <ele>1365.303</ele>
        <time>2021-03-13T13:15:38Z</time>
      </trkpt>
      <trkpt lat="42.84877" lon="0.91231">
        <ele>1364.57</ele>
        <time>2021-03-13T13:15:40Z</time>
      </trkpt>
      <trkpt lat="42.84876" lon="0.91231">
        <ele>1364.585</ele>
        <time>2021-03-13T13:15:42Z</time>
      </trkpt>
      <trkpt lat="42.84876" lon="0.91231">
        <ele>1365.201</ele>
        <time>2021-03-13T13:15:44Z</time>
      </trkpt>
      <trkpt lat="42.84876" lon="0.91231">
        <ele>1365.096</ele>
        <time>2021-03-13T13:15:46Z</time>
      </trkpt>
      <trkpt lat="42.84876" lon="0.9123">
        <ele>1364.861</ele>
        <time>2021-03-13T13:15:49Z</time>
      </trkpt>
      <trkpt lat="42.84876" lon="0.9123">
        <ele>1364.857</ele>
        <time>2021-03-13T13:15:51Z</time>
      </trkpt>
      <trkpt lat="42.84876" lon="0.9123">
        <ele>1364.849</ele>
        <time>2021-03-13T13:15:53Z</time>
      </trkpt>
      <trkpt lat="42.84876" lon="0.9123">
        <ele>1364.835</ele>
        <time>2021-03-13T13:15:55Z</time>
      </trkpt>
      <trkpt lat="42.84876" lon="0.9123">
        <ele>1364.836</ele>
        <time>2021-03-13T13:15:57Z</time>
      </trkpt>
      <trkpt lat="42.84876" lon="0.9123">
        <ele>1364.848</ele>
        <time>2021-03-13T13:15:59Z</time>
      </trkpt>
      <trkpt lat="42.84876" lon="0.9123">
        <ele>1364.839</ele>
        <time>2021-03-13T13:16:01Z</time>
      </trkpt>
      <trkpt lat="42.84876" lon="0.9123">
        <ele>1364.836</ele>
        <time>2021-03-13T13:16:03Z</time>
      </trkpt>
      <trkpt lat="42.84876" lon="0.9123">
        <ele>1364.825</ele>
        <time>2021-03-13T13:16:05Z</time>
      </trkpt>
      <trkpt lat="42.84876" lon="0.9123">
        <ele>1364.844</ele>
        <time>2021-03-13T13:16:07Z</time>
      </trkpt>
      <trkpt lat="42.84876" lon="0.9123">
        <ele>1364.85</ele>
        <time>2021-03-13T13:16:09Z</time>
      </trkpt>
      <trkpt lat="42.84876" lon="0.9123">
        <ele>1364.847</ele>
        <time>2021-03-13T13:16:11Z</time>
      </trkpt>
      <trkpt lat="42.84876" lon="0.9123">
        <ele>1364.858</ele>
        <time>2021-03-13T13:16:13Z</time>
      </trkpt>
      <trkpt lat="42.84876" lon="0.9123">
        <ele>1364.862</ele>
        <time>2021-03-13T13:16:15Z</time>
      </trkpt>
      <trkpt lat="42.84876" lon="0.9123">
        <ele>1364.862</ele>
        <time>2021-03-13T13:16:17Z</time>
      </trkpt>
      <trkpt lat="42.84876" lon="0.9123">
        <ele>1364.863</ele>
        <time>2021-03-13T13:16:19Z</time>
      </trkpt>
      <trkpt lat="42.84876" lon="0.9123">
        <ele>1364.867</ele>
        <time>2021-03-13T13:16:21Z</time>
      </trkpt>
      <trkpt lat="42.84876" lon="0.9123">
        <ele>1364.853</ele>
        <time>2021-03-13T13:16:23Z</time>
      </trkpt>
      <trkpt lat="42.84876" lon="0.9123">
        <ele>1364.856</ele>
        <time>2021-03-13T13:16:25Z</time>
      </trkpt>
      <trkpt lat="42.84876" lon="0.9123">
        <ele>1364.906</ele>
        <time>2021-03-13T13:16:27Z</time>
      </trkpt>
      <trkpt lat="42.84876" lon="0.9123">
        <ele>1364.894</ele>
        <time>2021-03-13T13:16:29Z</time>
      </trkpt>
      <trkpt lat="42.84877" lon="0.9123">
        <ele>1364.349</ele>
        <time>2021-03-13T13:16:31Z</time>
      </trkpt>
      <trkpt lat="42.84877" lon="0.91231">
        <ele>1364.913</ele>
        <time>2021-03-13T13:16:33Z</time>
      </trkpt>
      <trkpt lat="42.84877" lon="0.91231">
        <ele>1365.439</ele>
        <time>2021-03-13T13:16:35Z</time>
      </trkpt>
      <trkpt lat="42.84877" lon="0.9123">
        <ele>1365.45</ele>
        <time>2021-03-13T13:16:37Z</time>
      </trkpt>
      <trkpt lat="42.84877" lon="0.9123">
        <ele>1365.182</ele>
        <time>2021-03-13T13:16:39Z</time>
      </trkpt>
      <trkpt lat="42.84877" lon="0.9123">
        <ele>1365.168</ele>
        <time>2021-03-13T13:16:41Z</time>
      </trkpt>
      <trkpt lat="42.84877" lon="0.91231">
        <ele>1365.089</ele>
        <time>2021-03-13T13:16:43Z</time>
      </trkpt>
      <trkpt lat="42.84877" lon="0.91231">
        <ele>1365.1</ele>
        <time>2021-03-13T13:16:45Z</time>
      </trkpt>
      <trkpt lat="42.84877" lon="0.91231">
        <ele>1365.102</ele>
        <time>2021-03-13T13:16:47Z</time>
      </trkpt>
      <trkpt lat="42.84877" lon="0.91231">
        <ele>1365.11</ele>
        <time>2021-03-13T13:16:49Z</time>
      </trkpt>
      <trkpt lat="42.84877" lon="0.91231">
        <ele>1364.987</ele>
        <time>2021-03-13T13:16:51Z</time>
      </trkpt>
      <trkpt lat="42.84878" lon="0.91231">
        <ele>1364.902</ele>
        <time>2021-03-13T13:16:53Z</time>
      </trkpt>
      <trkpt lat="42.84878" lon="0.9123">
        <ele>1365.121</ele>
        <time>2021-03-13T13:16:55Z</time>
      </trkpt>
      <trkpt lat="42.84878" lon="0.9123">
        <ele>1365.129</ele>
        <time>2021-03-13T13:16:57Z</time>
      </trkpt>
      <trkpt lat="42.84879" lon="0.91231">
        <ele>1364.632</ele>
        <time>2021-03-13T13:16:59Z</time>
      </trkpt>
      <trkpt lat="42.8488" lon="0.91231">
        <ele>1363.883</ele>
        <time>2021-03-13T13:17:01Z</time>
      </trkpt>
      <trkpt lat="42.8488" lon="0.91232">
        <ele>1363.264</ele>
        <time>2021-03-13T13:17:03Z</time>
      </trkpt>
      <trkpt lat="42.84881" lon="0.91233">
        <ele>1362.83</ele>
        <time>2021-03-13T13:17:05Z</time>
      </trkpt>
      <trkpt lat="42.84883" lon="0.91234">
        <ele>1362.349</ele>
        <time>2021-03-13T13:17:07Z</time>
      </trkpt>
      <trkpt lat="42.84883" lon="0.91235">
        <ele>1361.727</ele>
        <time>2021-03-13T13:17:09Z</time>
      </trkpt>
      <trkpt lat="42.84884" lon="0.91236">
        <ele>1361.282</ele>
        <time>2021-03-13T13:17:11Z</time>
      </trkpt>
      <trkpt lat="42.84885" lon="0.91237">
        <ele>1360.875</ele>
        <time>2021-03-13T13:17:13Z</time>
      </trkpt>
      <trkpt lat="42.84887" lon="0.91238">
        <ele>1360.22</ele>
        <time>2021-03-13T13:17:15Z</time>
      </trkpt>
      <trkpt lat="42.84889" lon="0.9124">
        <ele>1360.15</ele>
        <time>2021-03-13T13:17:17Z</time>
      </trkpt>
      <trkpt lat="42.84891" lon="0.91241">
        <ele>1359.907</ele>
        <time>2021-03-13T13:17:19Z</time>
      </trkpt>
      <trkpt lat="42.84893" lon="0.9124">
        <ele>1358.861</ele>
        <time>2021-03-13T13:17:21Z</time>
      </trkpt>
      <trkpt lat="42.84895" lon="0.9124">
        <ele>1358.09</ele>
        <time>2021-03-13T13:17:23Z</time>
      </trkpt>
      <trkpt lat="42.84898" lon="0.91238">
        <ele>1357.971</ele>
        <time>2021-03-13T13:17:25Z</time>
      </trkpt>
      <trkpt lat="42.849" lon="0.91237">
        <ele>1357.48</ele>
        <time>2021-03-13T13:17:27Z</time>
      </trkpt>
      <trkpt lat="42.84903" lon="0.91236">
        <ele>1357.541</ele>
        <time>2021-03-13T13:17:29Z</time>
      </trkpt>
      <trkpt lat="42.84905" lon="0.91235">
        <ele>1355.981</ele>
        <time>2021-03-13T13:17:31Z</time>
      </trkpt>
      <trkpt lat="42.84907" lon="0.91234">
        <ele>1355.055</ele>
        <time>2021-03-13T13:17:33Z</time>
      </trkpt>
      <trkpt lat="42.84908" lon="0.91233">
        <ele>1354.878</ele>
        <time>2021-03-13T13:17:35Z</time>
      </trkpt>
      <trkpt lat="42.8491" lon="0.91232">
        <ele>1354.38</ele>
        <time>2021-03-13T13:17:37Z</time>
      </trkpt>
      <trkpt lat="42.84912" lon="0.91233">
        <ele>1354.193</ele>
        <time>2021-03-13T13:17:39Z</time>
      </trkpt>
      <trkpt lat="42.84914" lon="0.91232">
        <ele>1353.513</ele>
        <time>2021-03-13T13:17:41Z</time>
      </trkpt>
      <trkpt lat="42.84915" lon="0.91231">
        <ele>1353.382</ele>
        <time>2021-03-13T13:17:43Z</time>
      </trkpt>
      <trkpt lat="42.84914" lon="0.91232">
        <ele>1352.256</ele>
        <time>2021-03-13T13:17:45Z</time>
      </trkpt>
      <trkpt lat="42.84914" lon="0.91232">
        <ele>1352.252</ele>
        <time>2021-03-13T13:17:47Z</time>
      </trkpt>
      <trkpt lat="42.84914" lon="0.91232">
        <ele>1352.249</ele>
        <time>2021-03-13T13:17:49Z</time>
      </trkpt>
      <trkpt lat="42.84914" lon="0.91232">
        <ele>1352.27</ele>
        <time>2021-03-13T13:17:51Z</time>
      </trkpt>
      <trkpt lat="42.84914" lon="0.91232">
        <ele>1352.273</ele>
        <time>2021-03-13T13:17:53Z</time>
      </trkpt>
      <trkpt lat="42.84915" lon="0.91231">
        <ele>1352.209</ele>
        <time>2021-03-13T13:17:55Z</time>
      </trkpt>
      <trkpt lat="42.84916" lon="0.91233">
        <ele>1351.234</ele>
        <time>2021-03-13T13:17:57Z</time>
      </trkpt>
      <trkpt lat="42.84916" lon="0.91235">
        <ele>1350.731</ele>
        <time>2021-03-13T13:17:59Z</time>
      </trkpt>
      <trkpt lat="42.84916" lon="0.91237">
        <ele>1350.316</ele>
        <time>2021-03-13T13:18:01Z</time>
      </trkpt>
      <trkpt lat="42.84916" lon="0.91239">
        <ele>1349.214</ele>
        <time>2021-03-13T13:18:03Z</time>
      </trkpt>
      <trkpt lat="42.84916" lon="0.9124">
        <ele>1348.515</ele>
        <time>2021-03-13T13:18:05Z</time>
      </trkpt>
      <trkpt lat="42.84916" lon="0.91242">
        <ele>1349.306</ele>
        <time>2021-03-13T13:18:07Z</time>
      </trkpt>
      <trkpt lat="42.84917" lon="0.91244">
        <ele>1348.489</ele>
        <time>2021-03-13T13:18:09Z</time>
      </trkpt>
      <trkpt lat="42.84918" lon="0.91246">
        <ele>1348.945</ele>
        <time>2021-03-13T13:18:11Z</time>
      </trkpt>
      <trkpt lat="42.84919" lon="0.91247">
        <ele>1349.056</ele>
        <time>2021-03-13T13:18:13Z</time>
      </trkpt>
      <trkpt lat="42.84921" lon="0.91246">
        <ele>1348.705</ele>
        <time>2021-03-13T13:18:15Z</time>
      </trkpt>
      <trkpt lat="42.84922" lon="0.91245">
        <ele>1347.986</ele>
        <time>2021-03-13T13:18:17Z</time>
      </trkpt>
      <trkpt lat="42.84923" lon="0.91244">
        <ele>1347.431</ele>
        <time>2021-03-13T13:18:19Z</time>
      </trkpt>
      <trkpt lat="42.84925" lon="0.91243">
        <ele>1346.338</ele>
        <time>2021-03-13T13:18:21Z</time>
      </trkpt>
      <trkpt lat="42.84926" lon="0.91244">
        <ele>1345.315</ele>
        <time>2021-03-13T13:18:23Z</time>
      </trkpt>
      <trkpt lat="42.84928" lon="0.91244">
        <ele>1345.541</ele>
        <time>2021-03-13T13:18:25Z</time>
      </trkpt>
      <trkpt lat="42.84929" lon="0.91244">
        <ele>1345.031</ele>
        <time>2021-03-13T13:18:27Z</time>
      </trkpt>
      <trkpt lat="42.84931" lon="0.91244">
        <ele>1344.009</ele>
        <time>2021-03-13T13:18:29Z</time>
      </trkpt>
      <trkpt lat="42.84932" lon="0.91243">
        <ele>1344.216</ele>
        <time>2021-03-13T13:18:31Z</time>
      </trkpt>
      <trkpt lat="42.84934" lon="0.91244">
        <ele>1343.525</ele>
        <time>2021-03-13T13:18:33Z</time>
      </trkpt>
      <trkpt lat="42.84935" lon="0.91245">
        <ele>1342.551</ele>
        <time>2021-03-13T13:18:35Z</time>
      </trkpt>
      <trkpt lat="42.84937" lon="0.91246">
        <ele>1342.308</ele>
        <time>2021-03-13T13:18:37Z</time>
      </trkpt>
      <trkpt lat="42.84938" lon="0.91247">
        <ele>1342.201</ele>
        <time>2021-03-13T13:18:39Z</time>
      </trkpt>
      <trkpt lat="42.84939" lon="0.91248">
        <ele>1341.65</ele>
        <time>2021-03-13T13:18:41Z</time>
      </trkpt>
      <trkpt lat="42.8494" lon="0.91249">
        <ele>1341.443</ele>
        <time>2021-03-13T13:18:43Z</time>
      </trkpt>
      <trkpt lat="42.84941" lon="0.9125">
        <ele>1340.491</ele>
        <time>2021-03-13T13:18:45Z</time>
      </trkpt>
      <trkpt lat="42.84942" lon="0.91252">
        <ele>1338.885</ele>
        <time>2021-03-13T13:18:47Z</time>
      </trkpt>
      <trkpt lat="42.84944" lon="0.91253">
        <ele>1338.369</ele>
        <time>2021-03-13T13:18:49Z</time>
      </trkpt>
      <trkpt lat="42.84945" lon="0.91253">
        <ele>1337.918</ele>
        <time>2021-03-13T13:18:51Z</time>
      </trkpt>
      <trkpt lat="42.84947" lon="0.91253">
        <ele>1337.347</ele>
        <time>2021-03-13T13:18:53Z</time>
      </trkpt>
      <trkpt lat="42.84949" lon="0.91253">
        <ele>1337.153</ele>
        <time>2021-03-13T13:18:55Z</time>
      </trkpt>
      <trkpt lat="42.8495" lon="0.91254">
        <ele>1336.633</ele>
        <time>2021-03-13T13:18:57Z</time>
      </trkpt>
      <trkpt lat="42.84951" lon="0.91257">
        <ele>1336.764</ele>
        <time>2021-03-13T13:18:59Z</time>
      </trkpt>
      <trkpt lat="42.84952" lon="0.91258">
        <ele>1335.704</ele>
        <time>2021-03-13T13:19:01Z</time>
      </trkpt>
      <trkpt lat="42.84953" lon="0.91259">
        <ele>1335.153</ele>
        <time>2021-03-13T13:19:03Z</time>
      </trkpt>
      <trkpt lat="42.84953" lon="0.9126">
        <ele>1334.351</ele>
        <time>2021-03-13T13:19:05Z</time>
      </trkpt>
      <trkpt lat="42.84953" lon="0.91262">
        <ele>1333.823</ele>
        <time>2021-03-13T13:19:07Z</time>
      </trkpt>
      <trkpt lat="42.84955" lon="0.91263">
        <ele>1333.31</ele>
        <time>2021-03-13T13:19:09Z</time>
      </trkpt>
      <trkpt lat="42.84955" lon="0.91264">
        <ele>1332.48</ele>
        <time>2021-03-13T13:19:11Z</time>
      </trkpt>
      <trkpt lat="42.84957" lon="0.91265">
        <ele>1331.768</ele>
        <time>2021-03-13T13:19:13Z</time>
      </trkpt>
      <trkpt lat="42.84957" lon="0.91266">
        <ele>1330.725</ele>
        <time>2021-03-13T13:19:15Z</time>
      </trkpt>
      <trkpt lat="42.84958" lon="0.91268">
        <ele>1329.911</ele>
        <time>2021-03-13T13:19:17Z</time>
      </trkpt>
      <trkpt lat="42.84959" lon="0.91269">
        <ele>1329.754</ele>
        <time>2021-03-13T13:19:19Z</time>
      </trkpt>
      <trkpt lat="42.8496" lon="0.9127">
        <ele>1329.845</ele>
        <time>2021-03-13T13:19:21Z</time>
      </trkpt>
      <trkpt lat="42.84962" lon="0.91272">
        <ele>1329.302</ele>
        <time>2021-03-13T13:19:23Z</time>
      </trkpt>
      <trkpt lat="42.84963" lon="0.91273">
        <ele>1328.748</ele>
        <time>2021-03-13T13:19:25Z</time>
      </trkpt>
      <trkpt lat="42.84964" lon="0.91275">
        <ele>1329.199</ele>
        <time>2021-03-13T13:19:27Z</time>
      </trkpt>
      <trkpt lat="42.84965" lon="0.91277">
        <ele>1328.857</ele>
        <time>2021-03-13T13:19:29Z</time>
      </trkpt>
      <trkpt lat="42.84966" lon="0.91279">
        <ele>1328.327</ele>
        <time>2021-03-13T13:19:31Z</time>
      </trkpt>
      <trkpt lat="42.84967" lon="0.9128">
        <ele>1327.331</ele>
        <time>2021-03-13T13:19:33Z</time>
      </trkpt>
      <trkpt lat="42.84968" lon="0.91283">
        <ele>1326.247</ele>
        <time>2021-03-13T13:19:35Z</time>
      </trkpt>
      <trkpt lat="42.84968" lon="0.91285">
        <ele>1326.358</ele>
        <time>2021-03-13T13:19:37Z</time>
      </trkpt>
      <trkpt lat="42.84969" lon="0.91287">
        <ele>1325.869</ele>
        <time>2021-03-13T13:19:39Z</time>
      </trkpt>
      <trkpt lat="42.8497" lon="0.91289">
        <ele>1325.448</ele>
        <time>2021-03-13T13:19:41Z</time>
      </trkpt>
      <trkpt lat="42.84971" lon="0.9129">
        <ele>1324.415</ele>
        <time>2021-03-13T13:19:43Z</time>
      </trkpt>
      <trkpt lat="42.84972" lon="0.91292">
        <ele>1323.87</ele>
        <time>2021-03-13T13:19:45Z</time>
      </trkpt>
      <trkpt lat="42.84972" lon="0.91294">
        <ele>1322.416</ele>
        <time>2021-03-13T13:19:47Z</time>
      </trkpt>
      <trkpt lat="42.84973" lon="0.91296">
        <ele>1321.982</ele>
        <time>2021-03-13T13:19:49Z</time>
      </trkpt>
      <trkpt lat="42.84974" lon="0.91297">
        <ele>1321.169</ele>
        <time>2021-03-13T13:19:51Z</time>
      </trkpt>
      <trkpt lat="42.84975" lon="0.91299">
        <ele>1319.659</ele>
        <time>2021-03-13T13:19:53Z</time>
      </trkpt>
      <trkpt lat="42.84977" lon="0.91298">
        <ele>1318.487</ele>
        <time>2021-03-13T13:19:55Z</time>
      </trkpt>
      <trkpt lat="42.84979" lon="0.91299">
        <ele>1316.908</ele>
        <time>2021-03-13T13:19:57Z</time>
      </trkpt>
      <trkpt lat="42.84981" lon="0.91302">
        <ele>1315.892</ele>
        <time>2021-03-13T13:19:59Z</time>
      </trkpt>
      <trkpt lat="42.84981" lon="0.91304">
        <ele>1315.402</ele>
        <time>2021-03-13T13:20:01Z</time>
      </trkpt>
      <trkpt lat="42.84982" lon="0.91306">
        <ele>1314.639</ele>
        <time>2021-03-13T13:20:03Z</time>
      </trkpt>
      <trkpt lat="42.84983" lon="0.91309">
        <ele>1314.006</ele>
        <time>2021-03-13T13:20:05Z</time>
      </trkpt>
      <trkpt lat="42.84983" lon="0.91311">
        <ele>1313.929</ele>
        <time>2021-03-13T13:20:07Z</time>
      </trkpt>
      <trkpt lat="42.84984" lon="0.91313">
        <ele>1312.846</ele>
        <time>2021-03-13T13:20:09Z</time>
      </trkpt>
      <trkpt lat="42.84985" lon="0.91315">
        <ele>1312.117</ele>
        <time>2021-03-13T13:20:11Z</time>
      </trkpt>
      <trkpt lat="42.84986" lon="0.91317">
        <ele>1311.584</ele>
        <time>2021-03-13T13:20:13Z</time>
      </trkpt>
      <trkpt lat="42.84987" lon="0.91319">
        <ele>1311.046</ele>
        <time>2021-03-13T13:20:15Z</time>
      </trkpt>
      <trkpt lat="42.84988" lon="0.91322">
        <ele>1310.082</ele>
        <time>2021-03-13T13:20:17Z</time>
      </trkpt>
      <trkpt lat="42.84988" lon="0.91324">
        <ele>1309.168</ele>
        <time>2021-03-13T13:20:19Z</time>
      </trkpt>
      <trkpt lat="42.84988" lon="0.91327">
        <ele>1308.021</ele>
        <time>2021-03-13T13:20:21Z</time>
      </trkpt>
      <trkpt lat="42.84987" lon="0.9133">
        <ele>1307.501</ele>
        <time>2021-03-13T13:20:23Z</time>
      </trkpt>
      <trkpt lat="42.84988" lon="0.91331">
        <ele>1306.921</ele>
        <time>2021-03-13T13:20:25Z</time>
      </trkpt>
      <trkpt lat="42.84988" lon="0.91333">
        <ele>1307.167</ele>
        <time>2021-03-13T13:20:27Z</time>
      </trkpt>
      <trkpt lat="42.84987" lon="0.91336">
        <ele>1307.107</ele>
        <time>2021-03-13T13:20:29Z</time>
      </trkpt>
      <trkpt lat="42.84986" lon="0.9134">
        <ele>1307.091</ele>
        <time>2021-03-13T13:20:31Z</time>
      </trkpt>
      <trkpt lat="42.84986" lon="0.91341">
        <ele>1306.751</ele>
        <time>2021-03-13T13:20:32Z</time>
      </trkpt>
      <trkpt lat="42.84984" lon="0.91346">
        <ele>1305.528</ele>
        <time>2021-03-13T13:20:35Z</time>
      </trkpt>
      <trkpt lat="42.84982" lon="0.91348">
        <ele>1305.385</ele>
        <time>2021-03-13T13:20:37Z</time>
      </trkpt>
      <trkpt lat="42.8498" lon="0.9135">
        <ele>1304.807</ele>
        <time>2021-03-13T13:20:39Z</time>
      </trkpt>
      <trkpt lat="42.84979" lon="0.91351">
        <ele>1304.258</ele>
        <time>2021-03-13T13:20:41Z</time>
      </trkpt>
      <trkpt lat="42.84978" lon="0.91353">
        <ele>1303.949</ele>
        <time>2021-03-13T13:20:43Z</time>
      </trkpt>
      <trkpt lat="42.84976" lon="0.91355">
        <ele>1303.502</ele>
        <time>2021-03-13T13:20:45Z</time>
      </trkpt>
      <trkpt lat="42.84975" lon="0.91356">
        <ele>1303.292</ele>
        <time>2021-03-13T13:20:46Z</time>
      </trkpt>
      <trkpt lat="42.84972" lon="0.91359">
        <ele>1302.88</ele>
        <time>2021-03-13T13:20:49Z</time>
      </trkpt>
      <trkpt lat="42.84971" lon="0.9136">
        <ele>1302.533</ele>
        <time>2021-03-13T13:20:51Z</time>
      </trkpt>
      <trkpt lat="42.84969" lon="0.91361">
        <ele>1302.272</ele>
        <time>2021-03-13T13:20:53Z</time>
      </trkpt>
      <trkpt lat="42.84968" lon="0.91363">
        <ele>1301.726</ele>
        <time>2021-03-13T13:20:55Z</time>
      </trkpt>
      <trkpt lat="42.84966" lon="0.91364">
        <ele>1301.711</ele>
        <time>2021-03-13T13:20:57Z</time>
      </trkpt>
      <trkpt lat="42.84964" lon="0.91366">
        <ele>1301.662</ele>
        <time>2021-03-13T13:20:59Z</time>
      </trkpt>
      <trkpt lat="42.84963" lon="0.91367">
        <ele>1300.482</ele>
        <time>2021-03-13T13:21:01Z</time>
      </trkpt>
      <trkpt lat="42.84961" lon="0.91369">
        <ele>1300.851</ele>
        <time>2021-03-13T13:21:03Z</time>
      </trkpt>
      <trkpt lat="42.84959" lon="0.9137">
        <ele>1299.722</ele>
        <time>2021-03-13T13:21:05Z</time>
      </trkpt>
      <trkpt lat="42.84957" lon="0.91372">
        <ele>1300.382</ele>
        <time>2021-03-13T13:21:07Z</time>
      </trkpt>
      <trkpt lat="42.84955" lon="0.91374">
        <ele>1300.227</ele>
        <time>2021-03-13T13:21:09Z</time>
      </trkpt>
      <trkpt lat="42.84952" lon="0.91376">
        <ele>1299.537</ele>
        <time>2021-03-13T13:21:11Z</time>
      </trkpt>
      <trkpt lat="42.8495" lon="0.91377">
        <ele>1298.556</ele>
        <time>2021-03-13T13:21:13Z</time>
      </trkpt>
      <trkpt lat="42.84948" lon="0.91378">
        <ele>1298.882</ele>
        <time>2021-03-13T13:21:15Z</time>
      </trkpt>
      <trkpt lat="42.84945" lon="0.91378">
        <ele>1299.294</ele>
        <time>2021-03-13T13:21:17Z</time>
      </trkpt>
      <trkpt lat="42.84943" lon="0.91378">
        <ele>1298.806</ele>
        <time>2021-03-13T13:21:19Z</time>
      </trkpt>
      <trkpt lat="42.84941" lon="0.9138">
        <ele>1299.113</ele>
        <time>2021-03-13T13:21:21Z</time>
      </trkpt>
      <trkpt lat="42.84939" lon="0.91381">
        <ele>1298.578</ele>
        <time>2021-03-13T13:21:23Z</time>
      </trkpt>
      <trkpt lat="42.84939" lon="0.91382">
        <ele>1299.479</ele>
        <time>2021-03-13T13:21:25Z</time>
      </trkpt>
      <trkpt lat="42.84939" lon="0.91383">
        <ele>1299.846</ele>
        <time>2021-03-13T13:21:27Z</time>
      </trkpt>
      <trkpt lat="42.84939" lon="0.91386">
        <ele>1298.751</ele>
        <time>2021-03-13T13:21:29Z</time>
      </trkpt>
      <trkpt lat="42.84938" lon="0.91388">
        <ele>1298.024</ele>
        <time>2021-03-13T13:21:31Z</time>
      </trkpt>
      <trkpt lat="42.84938" lon="0.91389">
        <ele>1296.998</ele>
        <time>2021-03-13T13:21:33Z</time>
      </trkpt>
      <trkpt lat="42.84937" lon="0.91391">
        <ele>1296.488</ele>
        <time>2021-03-13T13:21:35Z</time>
      </trkpt>
      <trkpt lat="42.84936" lon="0.91393">
        <ele>1296.023</ele>
        <time>2021-03-13T13:21:37Z</time>
      </trkpt>
      <trkpt lat="42.84935" lon="0.91394">
        <ele>1295.831</ele>
        <time>2021-03-13T13:21:39Z</time>
      </trkpt>
      <trkpt lat="42.84935" lon="0.91395">
        <ele>1296.053</ele>
        <time>2021-03-13T13:21:41Z</time>
      </trkpt>
      <trkpt lat="42.84934" lon="0.91396">
        <ele>1296.357</ele>
        <time>2021-03-13T13:21:43Z</time>
      </trkpt>
      <trkpt lat="42.84933" lon="0.91398">
        <ele>1295.759</ele>
        <time>2021-03-13T13:21:45Z</time>
      </trkpt>
      <trkpt lat="42.84932" lon="0.914">
        <ele>1295.155</ele>
        <time>2021-03-13T13:21:47Z</time>
      </trkpt>
      <trkpt lat="42.84932" lon="0.91402">
        <ele>1295.403</ele>
        <time>2021-03-13T13:21:49Z</time>
      </trkpt>
      <trkpt lat="42.84932" lon="0.91402">
        <ele>1295.328</ele>
        <time>2021-03-13T13:21:51Z</time>
      </trkpt>
      <trkpt lat="42.84932" lon="0.91402">
        <ele>1295.322</ele>
        <time>2021-03-13T13:21:53Z</time>
      </trkpt>
      <trkpt lat="42.84932" lon="0.91402">
        <ele>1295.307</ele>
        <time>2021-03-13T13:21:55Z</time>
      </trkpt>
      <trkpt lat="42.84932" lon="0.91402">
        <ele>1295.135</ele>
        <time>2021-03-13T13:21:57Z</time>
      </trkpt>
      <trkpt lat="42.84932" lon="0.91403">
        <ele>1294.962</ele>
        <time>2021-03-13T13:21:59Z</time>
      </trkpt>
      <trkpt lat="42.84932" lon="0.91404">
        <ele>1294.921</ele>
        <time>2021-03-13T13:22:01Z</time>
      </trkpt>
      <trkpt lat="42.84932" lon="0.91407">
        <ele>1294.115</ele>
        <time>2021-03-13T13:22:03Z</time>
      </trkpt>
      <trkpt lat="42.84933" lon="0.91409">
        <ele>1293.572</ele>
        <time>2021-03-13T13:22:05Z</time>
      </trkpt>
      <trkpt lat="42.84933" lon="0.91409">
        <ele>1293.094</ele>
        <time>2021-03-13T13:22:07Z</time>
      </trkpt>
      <trkpt lat="42.84933" lon="0.91412">
        <ele>1292.314</ele>
        <time>2021-03-13T13:22:09Z</time>
      </trkpt>
      <trkpt lat="42.84934" lon="0.91413">
        <ele>1291.756</ele>
        <time>2021-03-13T13:22:11Z</time>
      </trkpt>
      <trkpt lat="42.84934" lon="0.91415">
        <ele>1291.724</ele>
        <time>2021-03-13T13:22:13Z</time>
      </trkpt>
      <trkpt lat="42.84934" lon="0.91418">
        <ele>1291.451</ele>
        <time>2021-03-13T13:22:15Z</time>
      </trkpt>
      <trkpt lat="42.84933" lon="0.9142">
        <ele>1291.602</ele>
        <time>2021-03-13T13:22:17Z</time>
      </trkpt>
      <trkpt lat="42.84932" lon="0.91421">
        <ele>1290.957</ele>
        <time>2021-03-13T13:22:19Z</time>
      </trkpt>
      <trkpt lat="42.84931" lon="0.91424">
        <ele>1291.594</ele>
        <time>2021-03-13T13:22:21Z</time>
      </trkpt>
      <trkpt lat="42.84931" lon="0.91427">
        <ele>1291.662</ele>
        <time>2021-03-13T13:22:23Z</time>
      </trkpt>
      <trkpt lat="42.84931" lon="0.91429">
        <ele>1291.481</ele>
        <time>2021-03-13T13:22:25Z</time>
      </trkpt>
      <trkpt lat="42.84932" lon="0.91431">
        <ele>1291.091</ele>
        <time>2021-03-13T13:22:27Z</time>
      </trkpt>
      <trkpt lat="42.84933" lon="0.91433">
        <ele>1290.283</ele>
        <time>2021-03-13T13:22:29Z</time>
      </trkpt>
      <trkpt lat="42.84934" lon="0.91435">
        <ele>1289.793</ele>
        <time>2021-03-13T13:22:31Z</time>
      </trkpt>
      <trkpt lat="42.84935" lon="0.91436">
        <ele>1289.28</ele>
        <time>2021-03-13T13:22:33Z</time>
      </trkpt>
      <trkpt lat="42.84936" lon="0.91437">
        <ele>1288.113</ele>
        <time>2021-03-13T13:22:35Z</time>
      </trkpt>
      <trkpt lat="42.84937" lon="0.9144">
        <ele>1286.835</ele>
        <time>2021-03-13T13:22:37Z</time>
      </trkpt>
      <trkpt lat="42.84938" lon="0.91442">
        <ele>1286.11</ele>
        <time>2021-03-13T13:22:39Z</time>
      </trkpt>
      <trkpt lat="42.84939" lon="0.91445">
        <ele>1285.693</ele>
        <time>2021-03-13T13:22:41Z</time>
      </trkpt>
      <trkpt lat="42.8494" lon="0.91446">
        <ele>1284.959</ele>
        <time>2021-03-13T13:22:43Z</time>
      </trkpt>
      <trkpt lat="42.84942" lon="0.91448">
        <ele>1285.047</ele>
        <time>2021-03-13T13:22:45Z</time>
      </trkpt>
      <trkpt lat="42.84943" lon="0.91449">
        <ele>1285.024</ele>
        <time>2021-03-13T13:22:47Z</time>
      </trkpt>
      <trkpt lat="42.84945" lon="0.91451">
        <ele>1285.064</ele>
        <time>2021-03-13T13:22:49Z</time>
      </trkpt>
      <trkpt lat="42.84946" lon="0.91451">
        <ele>1284.232</ele>
        <time>2021-03-13T13:22:51Z</time>
      </trkpt>
      <trkpt lat="42.84948" lon="0.91452">
        <ele>1283.932</ele>
        <time>2021-03-13T13:22:53Z</time>
      </trkpt>
      <trkpt lat="42.8495" lon="0.91454">
        <ele>1284.911</ele>
        <time>2021-03-13T13:22:55Z</time>
      </trkpt>
      <trkpt lat="42.84952" lon="0.91455">
        <ele>1284.367</ele>
        <time>2021-03-13T13:22:57Z</time>
      </trkpt>
      <trkpt lat="42.84953" lon="0.91457">
        <ele>1282.873</ele>
        <time>2021-03-13T13:22:59Z</time>
      </trkpt>
      <trkpt lat="42.84953" lon="0.91457">
        <ele>1281.895</ele>
        <time>2021-03-13T13:23:01Z</time>
      </trkpt>
      <trkpt lat="42.84954" lon="0.91459">
        <ele>1283.103</ele>
        <time>2021-03-13T13:23:03Z</time>
      </trkpt>
      <trkpt lat="42.84954" lon="0.9146">
        <ele>1283.595</ele>
        <time>2021-03-13T13:23:05Z</time>
      </trkpt>
      <trkpt lat="42.84954" lon="0.9146">
        <ele>1283.581</ele>
        <time>2021-03-13T13:23:07Z</time>
      </trkpt>
      <trkpt lat="42.84954" lon="0.91461">
        <ele>1282.923</ele>
        <time>2021-03-13T13:23:09Z</time>
      </trkpt>
      <trkpt lat="42.84955" lon="0.91464">
        <ele>1283.155</ele>
        <time>2021-03-13T13:23:11Z</time>
      </trkpt>
      <trkpt lat="42.84954" lon="0.91465">
        <ele>1281.887</ele>
        <time>2021-03-13T13:23:13Z</time>
      </trkpt>
      <trkpt lat="42.84954" lon="0.91467">
        <ele>1281.045</ele>
        <time>2021-03-13T13:23:15Z</time>
      </trkpt>
      <trkpt lat="42.84954" lon="0.91469">
        <ele>1280.706</ele>
        <time>2021-03-13T13:23:17Z</time>
      </trkpt>
      <trkpt lat="42.84954" lon="0.9147">
        <ele>1279.719</ele>
        <time>2021-03-13T13:23:19Z</time>
      </trkpt>
      <trkpt lat="42.84954" lon="0.91471">
        <ele>1278.916</ele>
        <time>2021-03-13T13:23:21Z</time>
      </trkpt>
      <trkpt lat="42.84955" lon="0.91474">
        <ele>1278.489</ele>
        <time>2021-03-13T13:23:23Z</time>
      </trkpt>
      <trkpt lat="42.84955" lon="0.91475">
        <ele>1278.273</ele>
        <time>2021-03-13T13:23:25Z</time>
      </trkpt>
      <trkpt lat="42.84956" lon="0.91476">
        <ele>1278.522</ele>
        <time>2021-03-13T13:23:27Z</time>
      </trkpt>
      <trkpt lat="42.84956" lon="0.91477">
        <ele>1278.666</ele>
        <time>2021-03-13T13:23:29Z</time>
      </trkpt>
      <trkpt lat="42.84957" lon="0.91479">
        <ele>1278.389</ele>
        <time>2021-03-13T13:23:31Z</time>
      </trkpt>
      <trkpt lat="42.84957" lon="0.91478">
        <ele>1276.21</ele>
        <time>2021-03-13T13:23:33Z</time>
      </trkpt>
      <trkpt lat="42.84958" lon="0.91479">
        <ele>1274.847</ele>
        <time>2021-03-13T13:23:35Z</time>
      </trkpt>
      <trkpt lat="42.8496" lon="0.91479">
        <ele>1274.916</ele>
        <time>2021-03-13T13:23:37Z</time>
      </trkpt>
      <trkpt lat="42.84963" lon="0.91479">
        <ele>1274.034</ele>
        <time>2021-03-13T13:23:39Z</time>
      </trkpt>
      <trkpt lat="42.84964" lon="0.9148">
        <ele>1272.885</ele>
        <time>2021-03-13T13:23:41Z</time>
      </trkpt>
      <trkpt lat="42.84966" lon="0.9148">
        <ele>1271.981</ele>
        <time>2021-03-13T13:23:43Z</time>
      </trkpt>
      <trkpt lat="42.84968" lon="0.91482">
        <ele>1271.532</ele>
        <time>2021-03-13T13:23:45Z</time>
      </trkpt>
      <trkpt lat="42.84968" lon="0.91484">
        <ele>1269.924</ele>
        <time>2021-03-13T13:23:47Z</time>
      </trkpt>
      <trkpt lat="42.84969" lon="0.91485">
        <ele>1269.472</ele>
        <time>2021-03-13T13:23:49Z</time>
      </trkpt>
      <trkpt lat="42.84971" lon="0.91485">
        <ele>1268.559</ele>
        <time>2021-03-13T13:23:51Z</time>
      </trkpt>
      <trkpt lat="42.84971" lon="0.91486">
        <ele>1267.342</ele>
        <time>2021-03-13T13:23:53Z</time>
      </trkpt>
      <trkpt lat="42.8497" lon="0.91488">
        <ele>1267.042</ele>
        <time>2021-03-13T13:23:55Z</time>
      </trkpt>
      <trkpt lat="42.84969" lon="0.91489">
        <ele>1263.611</ele>
        <time>2021-03-13T13:23:57Z</time>
      </trkpt>
      <trkpt lat="42.84969" lon="0.9149">
        <ele>1263.897</ele>
        <time>2021-03-13T13:23:59Z</time>
      </trkpt>
      <trkpt lat="42.8497" lon="0.91492">
        <ele>1264.194</ele>
        <time>2021-03-13T13:24:01Z</time>
      </trkpt>
      <trkpt lat="42.84972" lon="0.91493">
        <ele>1263.762</ele>
        <time>2021-03-13T13:24:03Z</time>
      </trkpt>
      <trkpt lat="42.84972" lon="0.91493">
        <ele>1263.691</ele>
        <time>2021-03-13T13:24:05Z</time>
      </trkpt>
      <trkpt lat="42.84972" lon="0.91493">
        <ele>1263.666</ele>
        <time>2021-03-13T13:24:07Z</time>
      </trkpt>
      <trkpt lat="42.84972" lon="0.91493">
        <ele>1263.653</ele>
        <time>2021-03-13T13:24:09Z</time>
      </trkpt>
      <trkpt lat="42.84972" lon="0.91493">
        <ele>1263.643</ele>
        <time>2021-03-13T13:24:11Z</time>
      </trkpt>
      <trkpt lat="42.84972" lon="0.91493">
        <ele>1263.626</ele>
        <time>2021-03-13T13:24:13Z</time>
      </trkpt>
      <trkpt lat="42.84972" lon="0.91493">
        <ele>1263.613</ele>
        <time>2021-03-13T13:24:15Z</time>
      </trkpt>
      <trkpt lat="42.84972" lon="0.91493">
        <ele>1263.61</ele>
        <time>2021-03-13T13:24:17Z</time>
      </trkpt>
      <trkpt lat="42.84972" lon="0.91494">
        <ele>1263.837</ele>
        <time>2021-03-13T13:24:19Z</time>
      </trkpt>
      <trkpt lat="42.84971" lon="0.91495">
        <ele>1264.004</ele>
        <time>2021-03-13T13:24:21Z</time>
      </trkpt>
      <trkpt lat="42.84972" lon="0.91495">
        <ele>1264.036</ele>
        <time>2021-03-13T13:24:23Z</time>
      </trkpt>
      <trkpt lat="42.84972" lon="0.91495">
        <ele>1264.007</ele>
        <time>2021-03-13T13:24:25Z</time>
      </trkpt>
      <trkpt lat="42.84972" lon="0.91495">
        <ele>1263.979</ele>
        <time>2021-03-13T13:24:27Z</time>
      </trkpt>
      <trkpt lat="42.84972" lon="0.91494">
        <ele>1263.932</ele>
        <time>2021-03-13T13:24:29Z</time>
      </trkpt>
      <trkpt lat="42.84972" lon="0.91494">
        <ele>1263.919</ele>
        <time>2021-03-13T13:24:31Z</time>
      </trkpt>
      <trkpt lat="42.84972" lon="0.91494">
        <ele>1263.93</ele>
        <time>2021-03-13T13:24:33Z</time>
      </trkpt>
      <trkpt lat="42.84972" lon="0.91494">
        <ele>1263.924</ele>
        <time>2021-03-13T13:24:35Z</time>
      </trkpt>
      <trkpt lat="42.84972" lon="0.91494">
        <ele>1263.932</ele>
        <time>2021-03-13T13:24:37Z</time>
      </trkpt>
      <trkpt lat="42.84972" lon="0.91494">
        <ele>1263.918</ele>
        <time>2021-03-13T13:24:39Z</time>
      </trkpt>
      <trkpt lat="42.84972" lon="0.91494">
        <ele>1263.891</ele>
        <time>2021-03-13T13:24:41Z</time>
      </trkpt>
      <trkpt lat="42.84972" lon="0.91494">
        <ele>1263.872</ele>
        <time>2021-03-13T13:24:43Z</time>
      </trkpt>
      <trkpt lat="42.84972" lon="0.91494">
        <ele>1263.868</ele>
        <time>2021-03-13T13:24:45Z</time>
      </trkpt>
      <trkpt lat="42.84972" lon="0.91494">
        <ele>1263.891</ele>
        <time>2021-03-13T13:24:47Z</time>
      </trkpt>
      <trkpt lat="42.84972" lon="0.91494">
        <ele>1263.883</ele>
        <time>2021-03-13T13:24:49Z</time>
      </trkpt>
      <trkpt lat="42.84972" lon="0.91494">
        <ele>1263.879</ele>
        <time>2021-03-13T13:24:51Z</time>
      </trkpt>
      <trkpt lat="42.84972" lon="0.91494">
        <ele>1263.883</ele>
        <time>2021-03-13T13:24:53Z</time>
      </trkpt>
      <trkpt lat="42.84972" lon="0.91494">
        <ele>1263.844</ele>
        <time>2021-03-13T13:24:55Z</time>
      </trkpt>
      <trkpt lat="42.84973" lon="0.91494">
        <ele>1263.944</ele>
        <time>2021-03-13T13:24:57Z</time>
      </trkpt>
      <trkpt lat="42.84973" lon="0.91493">
        <ele>1264.038</ele>
        <time>2021-03-13T13:24:59Z</time>
      </trkpt>
      <trkpt lat="42.84973" lon="0.91493">
        <ele>1264.036</ele>
        <time>2021-03-13T13:25:01Z</time>
      </trkpt>
      <trkpt lat="42.84972" lon="0.91494">
        <ele>1263.947</ele>
        <time>2021-03-13T13:25:03Z</time>
      </trkpt>
      <trkpt lat="42.84972" lon="0.91495">
        <ele>1263.717</ele>
        <time>2021-03-13T13:25:05Z</time>
      </trkpt>
      <trkpt lat="42.84971" lon="0.91496">
        <ele>1263.336</ele>
        <time>2021-03-13T13:25:07Z</time>
      </trkpt>
      <trkpt lat="42.8497" lon="0.91498">
        <ele>1264.332</ele>
        <time>2021-03-13T13:25:09Z</time>
      </trkpt>
      <trkpt lat="42.84969" lon="0.91501">
        <ele>1264.3</ele>
        <time>2021-03-13T13:25:11Z</time>
      </trkpt>
      <trkpt lat="42.84969" lon="0.91503">
        <ele>1263.434</ele>
        <time>2021-03-13T13:25:13Z</time>
      </trkpt>
      <trkpt lat="42.84969" lon="0.91505">
        <ele>1262.581</ele>
        <time>2021-03-13T13:25:15Z</time>
      </trkpt>
      <trkpt lat="42.84969" lon="0.91507">
        <ele>1262.334</ele>
        <time>2021-03-13T13:25:17Z</time>
      </trkpt>
      <trkpt lat="42.84969" lon="0.91508">
        <ele>1261.707</ele>
        <time>2021-03-13T13:25:19Z</time>
      </trkpt>
      <trkpt lat="42.84968" lon="0.91508">
        <ele>1262.272</ele>
        <time>2021-03-13T13:25:21Z</time>
      </trkpt>
      <trkpt lat="42.84968" lon="0.91508">
        <ele>1262.271</ele>
        <time>2021-03-13T13:25:23Z</time>
      </trkpt>
      <trkpt lat="42.84968" lon="0.91509">
        <ele>1262.342</ele>
        <time>2021-03-13T13:25:25Z</time>
      </trkpt>
      <trkpt lat="42.84968" lon="0.91512">
        <ele>1261.856</ele>
        <time>2021-03-13T13:25:27Z</time>
      </trkpt>
      <trkpt lat="42.84968" lon="0.91516">
        <ele>1262.481</ele>
        <time>2021-03-13T13:25:29Z</time>
      </trkpt>
      <trkpt lat="42.84968" lon="0.91519">
        <ele>1261.897</ele>
        <time>2021-03-13T13:25:31Z</time>
      </trkpt>
      <trkpt lat="42.84968" lon="0.91522">
        <ele>1261.61</ele>
        <time>2021-03-13T13:25:33Z</time>
      </trkpt>
      <trkpt lat="42.84968" lon="0.91525">
        <ele>1261.329</ele>
        <time>2021-03-13T13:25:35Z</time>
      </trkpt>
      <trkpt lat="42.84968" lon="0.91527">
        <ele>1260.786</ele>
        <time>2021-03-13T13:25:37Z</time>
      </trkpt>
      <trkpt lat="42.84968" lon="0.9153">
        <ele>1260.142</ele>
        <time>2021-03-13T13:25:39Z</time>
      </trkpt>
      <trkpt lat="42.84968" lon="0.91533">
        <ele>1259.417</ele>
        <time>2021-03-13T13:25:41Z</time>
      </trkpt>
      <trkpt lat="42.84968" lon="0.91535">
        <ele>1258.848</ele>
        <time>2021-03-13T13:25:43Z</time>
      </trkpt>
      <trkpt lat="42.84968" lon="0.91538">
        <ele>1257.932</ele>
        <time>2021-03-13T13:25:45Z</time>
      </trkpt>
      <trkpt lat="42.84967" lon="0.9154">
        <ele>1257.406</ele>
        <time>2021-03-13T13:25:47Z</time>
      </trkpt>
      <trkpt lat="42.84967" lon="0.91544">
        <ele>1256.882</ele>
        <time>2021-03-13T13:25:49Z</time>
      </trkpt>
      <trkpt lat="42.84967" lon="0.91546">
        <ele>1255.729</ele>
        <time>2021-03-13T13:25:51Z</time>
      </trkpt>
      <trkpt lat="42.84967" lon="0.91549">
        <ele>1255.457</ele>
        <time>2021-03-13T13:25:53Z</time>
      </trkpt>
      <trkpt lat="42.84967" lon="0.91551">
        <ele>1254.837</ele>
        <time>2021-03-13T13:25:55Z</time>
      </trkpt>
      <trkpt lat="42.84967" lon="0.91554">
        <ele>1254.294</ele>
        <time>2021-03-13T13:25:57Z</time>
      </trkpt>
      <trkpt lat="42.84967" lon="0.91557">
        <ele>1252.83</ele>
        <time>2021-03-13T13:25:59Z</time>
      </trkpt>
      <trkpt lat="42.84966" lon="0.9156">
        <ele>1250.901</ele>
        <time>2021-03-13T13:26:01Z</time>
      </trkpt>
      <trkpt lat="42.84966" lon="0.91562">
        <ele>1250.777</ele>
        <time>2021-03-13T13:26:03Z</time>
      </trkpt>
      <trkpt lat="42.84965" lon="0.91565">
        <ele>1249.579</ele>
        <time>2021-03-13T13:26:05Z</time>
      </trkpt>
      <trkpt lat="42.84965" lon="0.91567">
        <ele>1247.358</ele>
        <time>2021-03-13T13:26:07Z</time>
      </trkpt>
      <trkpt lat="42.84965" lon="0.9157">
        <ele>1246.353</ele>
        <time>2021-03-13T13:26:09Z</time>
      </trkpt>
      <trkpt lat="42.84965" lon="0.91573">
        <ele>1246.584</ele>
        <time>2021-03-13T13:26:11Z</time>
      </trkpt>
      <trkpt lat="42.84965" lon="0.91576">
        <ele>1246.236</ele>
        <time>2021-03-13T13:26:13Z</time>
      </trkpt>
      <trkpt lat="42.84965" lon="0.91579">
        <ele>1245.148</ele>
        <time>2021-03-13T13:26:15Z</time>
      </trkpt>
      <trkpt lat="42.84965" lon="0.91583">
        <ele>1246.773</ele>
        <time>2021-03-13T13:26:17Z</time>
      </trkpt>
      <trkpt lat="42.84965" lon="0.91585">
        <ele>1245.568</ele>
        <time>2021-03-13T13:26:19Z</time>
      </trkpt>
      <trkpt lat="42.84965" lon="0.91587">
        <ele>1244.691</ele>
        <time>2021-03-13T13:26:21Z</time>
      </trkpt>
      <trkpt lat="42.84966" lon="0.91588">
        <ele>1243.982</ele>
        <time>2021-03-13T13:26:23Z</time>
      </trkpt>
      <trkpt lat="42.84965" lon="0.9159">
        <ele>1242.504</ele>
        <time>2021-03-13T13:26:25Z</time>
      </trkpt>
      <trkpt lat="42.84965" lon="0.91593">
        <ele>1241.766</ele>
        <time>2021-03-13T13:26:27Z</time>
      </trkpt>
      <trkpt lat="42.84964" lon="0.91595">
        <ele>1241.878</ele>
        <time>2021-03-13T13:26:29Z</time>
      </trkpt>
      <trkpt lat="42.84964" lon="0.91597">
        <ele>1240.797</ele>
        <time>2021-03-13T13:26:31Z</time>
      </trkpt>
      <trkpt lat="42.84964" lon="0.916">
        <ele>1239.756</ele>
        <time>2021-03-13T13:26:33Z</time>
      </trkpt>
      <trkpt lat="42.84964" lon="0.91602">
        <ele>1239.229</ele>
        <time>2021-03-13T13:26:35Z</time>
      </trkpt>
      <trkpt lat="42.84964" lon="0.91603">
        <ele>1239.344</ele>
        <time>2021-03-13T13:26:37Z</time>
      </trkpt>
      <trkpt lat="42.84964" lon="0.91606">
        <ele>1239.146</ele>
        <time>2021-03-13T13:26:39Z</time>
      </trkpt>
      <trkpt lat="42.84963" lon="0.9161">
        <ele>1238.438</ele>
        <time>2021-03-13T13:26:41Z</time>
      </trkpt>
      <trkpt lat="42.84963" lon="0.91613">
        <ele>1237.878</ele>
        <time>2021-03-13T13:26:43Z</time>
      </trkpt>
      <trkpt lat="42.84962" lon="0.91614">
        <ele>1237.4</ele>
        <time>2021-03-13T13:26:45Z</time>
      </trkpt>
      <trkpt lat="42.84962" lon="0.91616">
        <ele>1237.233</ele>
        <time>2021-03-13T13:26:47Z</time>
      </trkpt>
      <trkpt lat="42.84962" lon="0.91618">
        <ele>1236.234</ele>
        <time>2021-03-13T13:26:49Z</time>
      </trkpt>
      <trkpt lat="42.84962" lon="0.9162">
        <ele>1235.996</ele>
        <time>2021-03-13T13:26:51Z</time>
      </trkpt>
      <trkpt lat="42.84961" lon="0.91622">
        <ele>1235.76</ele>
        <time>2021-03-13T13:26:53Z</time>
      </trkpt>
      <trkpt lat="42.8496" lon="0.91624">
        <ele>1235.568</ele>
        <time>2021-03-13T13:26:55Z</time>
      </trkpt>
      <trkpt lat="42.84959" lon="0.91627">
        <ele>1235.59</ele>
        <time>2021-03-13T13:26:57Z</time>
      </trkpt>
      <trkpt lat="42.84958" lon="0.91629">
        <ele>1235.622</ele>
        <time>2021-03-13T13:26:59Z</time>
      </trkpt>
      <trkpt lat="42.84957" lon="0.91632">
        <ele>1235.778</ele>
        <time>2021-03-13T13:27:01Z</time>
      </trkpt>
      <trkpt lat="42.84957" lon="0.91634">
        <ele>1235.291</ele>
        <time>2021-03-13T13:27:03Z</time>
      </trkpt>
      <trkpt lat="42.84956" lon="0.91636">
        <ele>1234.72</ele>
        <time>2021-03-13T13:27:05Z</time>
      </trkpt>
      <trkpt lat="42.84956" lon="0.91638">
        <ele>1234.481</ele>
        <time>2021-03-13T13:27:07Z</time>
      </trkpt>
      <trkpt lat="42.84956" lon="0.9164">
        <ele>1234.074</ele>
        <time>2021-03-13T13:27:09Z</time>
      </trkpt>
      <trkpt lat="42.84956" lon="0.91643">
        <ele>1233.394</ele>
        <time>2021-03-13T13:27:11Z</time>
      </trkpt>
      <trkpt lat="42.84956" lon="0.91644">
        <ele>1233.025</ele>
        <time>2021-03-13T13:27:13Z</time>
      </trkpt>
      <trkpt lat="42.84956" lon="0.91646">
        <ele>1233.412</ele>
        <time>2021-03-13T13:27:15Z</time>
      </trkpt>
      <trkpt lat="42.84955" lon="0.91648">
        <ele>1232.846</ele>
        <time>2021-03-13T13:27:17Z</time>
      </trkpt>
      <trkpt lat="42.84954" lon="0.91649">
        <ele>1233.654</ele>
        <time>2021-03-13T13:27:19Z</time>
      </trkpt>
      <trkpt lat="42.84953" lon="0.9165">
        <ele>1233.609</ele>
        <time>2021-03-13T13:27:21Z</time>
      </trkpt>
      <trkpt lat="42.84953" lon="0.91652">
        <ele>1233.085</ele>
        <time>2021-03-13T13:27:23Z</time>
      </trkpt>
      <trkpt lat="42.84953" lon="0.91654">
        <ele>1233.445</ele>
        <time>2021-03-13T13:27:25Z</time>
      </trkpt>
      <trkpt lat="42.84954" lon="0.91656">
        <ele>1233.35</ele>
        <time>2021-03-13T13:27:27Z</time>
      </trkpt>
      <trkpt lat="42.84954" lon="0.91658">
        <ele>1233.021</ele>
        <time>2021-03-13T13:27:29Z</time>
      </trkpt>
      <trkpt lat="42.84954" lon="0.91661">
        <ele>1232.39</ele>
        <time>2021-03-13T13:27:31Z</time>
      </trkpt>
      <trkpt lat="42.84954" lon="0.91662">
        <ele>1231.218</ele>
        <time>2021-03-13T13:27:33Z</time>
      </trkpt>
      <trkpt lat="42.84954" lon="0.91665">
        <ele>1230.932</ele>
        <time>2021-03-13T13:27:35Z</time>
      </trkpt>
      <trkpt lat="42.84954" lon="0.91668">
        <ele>1231.381</ele>
        <time>2021-03-13T13:27:38Z</time>
      </trkpt>
      <trkpt lat="42.84954" lon="0.91669">
        <ele>1230.933</ele>
        <time>2021-03-13T13:27:40Z</time>
      </trkpt>
      <trkpt lat="42.84954" lon="0.91668">
        <ele>1230.928</ele>
        <time>2021-03-13T13:27:42Z</time>
      </trkpt>
      <trkpt lat="42.84954" lon="0.9167">
        <ele>1231.008</ele>
        <time>2021-03-13T13:27:44Z</time>
      </trkpt>
      <trkpt lat="42.84954" lon="0.91671">
        <ele>1230.652</ele>
        <time>2021-03-13T13:27:46Z</time>
      </trkpt>
      <trkpt lat="42.84953" lon="0.91673">
        <ele>1229.264</ele>
        <time>2021-03-13T13:27:48Z</time>
      </trkpt>
      <trkpt lat="42.84952" lon="0.91676">
        <ele>1230.101</ele>
        <time>2021-03-13T13:27:50Z</time>
      </trkpt>
      <trkpt lat="42.84952" lon="0.91677">
        <ele>1230.491</ele>
        <time>2021-03-13T13:27:52Z</time>
      </trkpt>
      <trkpt lat="42.84953" lon="0.91679">
        <ele>1230.208</ele>
        <time>2021-03-13T13:27:54Z</time>
      </trkpt>
      <trkpt lat="42.84953" lon="0.91681">
        <ele>1229.523</ele>
        <time>2021-03-13T13:27:56Z</time>
      </trkpt>
      <trkpt lat="42.84954" lon="0.91683">
        <ele>1229.369</ele>
        <time>2021-03-13T13:27:58Z</time>
      </trkpt>
      <trkpt lat="42.84954" lon="0.91684">
        <ele>1229.27</ele>
        <time>2021-03-13T13:28:00Z</time>
      </trkpt>
      <trkpt lat="42.84954" lon="0.91686">
        <ele>1228.414</ele>
        <time>2021-03-13T13:28:02Z</time>
      </trkpt>
      <trkpt lat="42.84956" lon="0.91689">
        <ele>1228.509</ele>
        <time>2021-03-13T13:28:04Z</time>
      </trkpt>
      <trkpt lat="42.84957" lon="0.9169">
        <ele>1227.51</ele>
        <time>2021-03-13T13:28:06Z</time>
      </trkpt>
      <trkpt lat="42.84958" lon="0.91692">
        <ele>1226.718</ele>
        <time>2021-03-13T13:28:08Z</time>
      </trkpt>
      <trkpt lat="42.84957" lon="0.91694">
        <ele>1226.786</ele>
        <time>2021-03-13T13:28:10Z</time>
      </trkpt>
      <trkpt lat="42.84957" lon="0.91695">
        <ele>1225.846</ele>
        <time>2021-03-13T13:28:12Z</time>
      </trkpt>
      <trkpt lat="42.84958" lon="0.91695">
        <ele>1224.793</ele>
        <time>2021-03-13T13:28:14Z</time>
      </trkpt>
      <trkpt lat="42.84959" lon="0.91696">
        <ele>1224.931</ele>
        <time>2021-03-13T13:28:16Z</time>
      </trkpt>
      <trkpt lat="42.84961" lon="0.91699">
        <ele>1224.223</ele>
        <time>2021-03-13T13:28:18Z</time>
      </trkpt>
      <trkpt lat="42.84961" lon="0.91702">
        <ele>1223.018</ele>
        <time>2021-03-13T13:28:20Z</time>
      </trkpt>
      <trkpt lat="42.8496" lon="0.91704">
        <ele>1222.749</ele>
        <time>2021-03-13T13:28:22Z</time>
      </trkpt>
      <trkpt lat="42.84961" lon="0.91705">
        <ele>1223.468</ele>
        <time>2021-03-13T13:28:24Z</time>
      </trkpt>
      <trkpt lat="42.84961" lon="0.91709">
        <ele>1224.305</ele>
        <time>2021-03-13T13:28:26Z</time>
      </trkpt>
      <trkpt lat="42.84961" lon="0.91714">
        <ele>1223.455</ele>
        <time>2021-03-13T13:28:28Z</time>
      </trkpt>
      <trkpt lat="42.8496" lon="0.91718">
        <ele>1222.954</ele>
        <time>2021-03-13T13:28:30Z</time>
      </trkpt>
      <trkpt lat="42.84959" lon="0.91721">
        <ele>1223.374</ele>
        <time>2021-03-13T13:28:32Z</time>
      </trkpt>
      <trkpt lat="42.84958" lon="0.91721">
        <ele>1220.682</ele>
        <time>2021-03-13T13:28:34Z</time>
      </trkpt>
      <trkpt lat="42.84958" lon="0.91724">
        <ele>1219.905</ele>
        <time>2021-03-13T13:28:36Z</time>
      </trkpt>
      <trkpt lat="42.84957" lon="0.91726">
        <ele>1219.066</ele>
        <time>2021-03-13T13:28:38Z</time>
      </trkpt>
      <trkpt lat="42.84956" lon="0.91729">
        <ele>1218.072</ele>
        <time>2021-03-13T13:28:40Z</time>
      </trkpt>
      <trkpt lat="42.84955" lon="0.91731">
        <ele>1216.313</ele>
        <time>2021-03-13T13:28:42Z</time>
      </trkpt>
      <trkpt lat="42.84954" lon="0.91732">
        <ele>1214.481</ele>
        <time>2021-03-13T13:28:44Z</time>
      </trkpt>
      <trkpt lat="42.84954" lon="0.91736">
        <ele>1215.585</ele>
        <time>2021-03-13T13:28:46Z</time>
      </trkpt>
      <trkpt lat="42.84955" lon="0.91738">
        <ele>1216.115</ele>
        <time>2021-03-13T13:28:48Z</time>
      </trkpt>
      <trkpt lat="42.84956" lon="0.91739">
        <ele>1216.078</ele>
        <time>2021-03-13T13:28:50Z</time>
      </trkpt>
      <trkpt lat="42.84955" lon="0.91742">
        <ele>1216.832</ele>
        <time>2021-03-13T13:28:52Z</time>
      </trkpt>
      <trkpt lat="42.84953" lon="0.91743">
        <ele>1217.024</ele>
        <time>2021-03-13T13:28:54Z</time>
      </trkpt>
      <trkpt lat="42.84953" lon="0.91745">
        <ele>1216.542</ele>
        <time>2021-03-13T13:28:56Z</time>
      </trkpt>
      <trkpt lat="42.84954" lon="0.91747">
        <ele>1214.827</ele>
        <time>2021-03-13T13:28:58Z</time>
      </trkpt>
      <trkpt lat="42.84954" lon="0.91748">
        <ele>1214.67</ele>
        <time>2021-03-13T13:29:00Z</time>
      </trkpt>
      <trkpt lat="42.84953" lon="0.9175">
        <ele>1212.555</ele>
        <time>2021-03-13T13:29:02Z</time>
      </trkpt>
      <trkpt lat="42.84952" lon="0.91753">
        <ele>1211.95</ele>
        <time>2021-03-13T13:29:04Z</time>
      </trkpt>
      <trkpt lat="42.84952" lon="0.91755">
        <ele>1211.144</ele>
        <time>2021-03-13T13:29:06Z</time>
      </trkpt>
      <trkpt lat="42.84952" lon="0.91758">
        <ele>1210.446</ele>
        <time>2021-03-13T13:29:08Z</time>
      </trkpt>
      <trkpt lat="42.8495" lon="0.9176">
        <ele>1209.797</ele>
        <time>2021-03-13T13:29:10Z</time>
      </trkpt>
      <trkpt lat="42.84949" lon="0.91763">
        <ele>1209.006</ele>
        <time>2021-03-13T13:29:12Z</time>
      </trkpt>
      <trkpt lat="42.84949" lon="0.91765">
        <ele>1208.096</ele>
        <time>2021-03-13T13:29:14Z</time>
      </trkpt>
      <trkpt lat="42.84949" lon="0.91767">
        <ele>1207.422</ele>
        <time>2021-03-13T13:29:16Z</time>
      </trkpt>
      <trkpt lat="42.8495" lon="0.9177">
        <ele>1206.11</ele>
        <time>2021-03-13T13:29:18Z</time>
      </trkpt>
      <trkpt lat="42.8495" lon="0.91772">
        <ele>1204.345</ele>
        <time>2021-03-13T13:29:20Z</time>
      </trkpt>
      <trkpt lat="42.84952" lon="0.91774">
        <ele>1203.242</ele>
        <time>2021-03-13T13:29:22Z</time>
      </trkpt>
      <trkpt lat="42.84952" lon="0.91777">
        <ele>1204.225</ele>
        <time>2021-03-13T13:29:24Z</time>
      </trkpt>
      <trkpt lat="42.84953" lon="0.91779">
        <ele>1203.716</ele>
        <time>2021-03-13T13:29:27Z</time>
      </trkpt>
      <trkpt lat="42.84955" lon="0.91784">
        <ele>1203.499</ele>
        <time>2021-03-13T13:29:29Z</time>
      </trkpt>
      <trkpt lat="42.84954" lon="0.91785">
        <ele>1201.96</ele>
        <time>2021-03-13T13:29:31Z</time>
      </trkpt>
      <trkpt lat="42.84953" lon="0.91786">
        <ele>1199.7</ele>
        <time>2021-03-13T13:29:33Z</time>
      </trkpt>
      <trkpt lat="42.84954" lon="0.9179">
        <ele>1197.777</ele>
        <time>2021-03-13T13:29:35Z</time>
      </trkpt>
      <trkpt lat="42.84955" lon="0.91792">
        <ele>1198.021</ele>
        <time>2021-03-13T13:29:37Z</time>
      </trkpt>
      <trkpt lat="42.84955" lon="0.91794">
        <ele>1197.51</ele>
        <time>2021-03-13T13:29:39Z</time>
      </trkpt>
      <trkpt lat="42.84955" lon="0.91797">
        <ele>1196.283</ele>
        <time>2021-03-13T13:29:41Z</time>
      </trkpt>
      <trkpt lat="42.84954" lon="0.918">
        <ele>1194.987</ele>
        <time>2021-03-13T13:29:43Z</time>
      </trkpt>
      <trkpt lat="42.84954" lon="0.91802">
        <ele>1195.268</ele>
        <time>2021-03-13T13:29:45Z</time>
      </trkpt>
      <trkpt lat="42.84954" lon="0.91803">
        <ele>1194.375</ele>
        <time>2021-03-13T13:29:47Z</time>
      </trkpt>
      <trkpt lat="42.84953" lon="0.91807">
        <ele>1194.554</ele>
        <time>2021-03-13T13:29:49Z</time>
      </trkpt>
      <trkpt lat="42.84952" lon="0.91809">
        <ele>1194.011</ele>
        <time>2021-03-13T13:29:51Z</time>
      </trkpt>
      <trkpt lat="42.84951" lon="0.91811">
        <ele>1194.018</ele>
        <time>2021-03-13T13:29:53Z</time>
      </trkpt>
      <trkpt lat="42.8495" lon="0.91813">
        <ele>1193.038</ele>
        <time>2021-03-13T13:29:55Z</time>
      </trkpt>
      <trkpt lat="42.84949" lon="0.91816">
        <ele>1193.135</ele>
        <time>2021-03-13T13:29:57Z</time>
      </trkpt>
      <trkpt lat="42.84949" lon="0.91821">
        <ele>1192.447</ele>
        <time>2021-03-13T13:29:59Z</time>
      </trkpt>
      <trkpt lat="42.8495" lon="0.91822">
        <ele>1191.855</ele>
        <time>2021-03-13T13:30:01Z</time>
      </trkpt>
      <trkpt lat="42.84949" lon="0.91822">
        <ele>1191.614</ele>
        <time>2021-03-13T13:30:03Z</time>
      </trkpt>
      <trkpt lat="42.84949" lon="0.91824">
        <ele>1191.208</ele>
        <time>2021-03-13T13:30:05Z</time>
      </trkpt>
      <trkpt lat="42.84951" lon="0.9183">
        <ele>1190.96</ele>
        <time>2021-03-13T13:30:07Z</time>
      </trkpt>
      <trkpt lat="42.84952" lon="0.91831">
        <ele>1192.602</ele>
        <time>2021-03-13T13:30:09Z</time>
      </trkpt>
      <trkpt lat="42.84953" lon="0.91831">
        <ele>1191.683</ele>
        <time>2021-03-13T13:30:11Z</time>
      </trkpt>
      <trkpt lat="42.84953" lon="0.91832">
        <ele>1191.25</ele>
        <time>2021-03-13T13:30:13Z</time>
      </trkpt>
      <trkpt lat="42.84951" lon="0.91834">
        <ele>1190.786</ele>
        <time>2021-03-13T13:30:15Z</time>
      </trkpt>
      <trkpt lat="42.8495" lon="0.91835">
        <ele>1192.015</ele>
        <time>2021-03-13T13:30:17Z</time>
      </trkpt>
      <trkpt lat="42.84948" lon="0.91835">
        <ele>1190.567</ele>
        <time>2021-03-13T13:30:19Z</time>
      </trkpt>
      <trkpt lat="42.84947" lon="0.91835">
        <ele>1189.181</ele>
        <time>2021-03-13T13:30:21Z</time>
      </trkpt>
      <trkpt lat="42.84944" lon="0.91837">
        <ele>1187.269</ele>
        <time>2021-03-13T13:30:23Z</time>
      </trkpt>
      <trkpt lat="42.84942" lon="0.91841">
        <ele>1188.068</ele>
        <time>2021-03-13T13:30:25Z</time>
      </trkpt>
      <trkpt lat="42.84941" lon="0.91842">
        <ele>1185.357</ele>
        <time>2021-03-13T13:30:27Z</time>
      </trkpt>
      <trkpt lat="42.84941" lon="0.91847">
        <ele>1184.171</ele>
        <time>2021-03-13T13:30:29Z</time>
      </trkpt>
      <trkpt lat="42.8494" lon="0.9185">
        <ele>1184.277</ele>
        <time>2021-03-13T13:30:31Z</time>
      </trkpt>
      <trkpt lat="42.8494" lon="0.91855">
        <ele>1182.94</ele>
        <time>2021-03-13T13:30:33Z</time>
      </trkpt>
      <trkpt lat="42.8494" lon="0.91857">
        <ele>1183.505</ele>
        <time>2021-03-13T13:30:35Z</time>
      </trkpt>
      <trkpt lat="42.84941" lon="0.91858">
        <ele>1184.116</ele>
        <time>2021-03-13T13:30:37Z</time>
      </trkpt>
      <trkpt lat="42.84941" lon="0.9186">
        <ele>1183.175</ele>
        <time>2021-03-13T13:30:39Z</time>
      </trkpt>
      <trkpt lat="42.8494" lon="0.91861">
        <ele>1182.512</ele>
        <time>2021-03-13T13:30:41Z</time>
      </trkpt>
      <trkpt lat="42.84941" lon="0.91863">
        <ele>1182.295</ele>
        <time>2021-03-13T13:30:43Z</time>
      </trkpt>
      <trkpt lat="42.8494" lon="0.91865">
        <ele>1181.882</ele>
        <time>2021-03-13T13:30:45Z</time>
      </trkpt>
      <trkpt lat="42.8494" lon="0.91868">
        <ele>1181.341</ele>
        <time>2021-03-13T13:30:47Z</time>
      </trkpt>
      <trkpt lat="42.8494" lon="0.91871">
        <ele>1181.102</ele>
        <time>2021-03-13T13:30:49Z</time>
      </trkpt>
      <trkpt lat="42.84941" lon="0.91874">
        <ele>1180.943</ele>
        <time>2021-03-13T13:30:51Z</time>
      </trkpt>
      <trkpt lat="42.84941" lon="0.91877">
        <ele>1180.469</ele>
        <time>2021-03-13T13:30:53Z</time>
      </trkpt>
      <trkpt lat="42.84941" lon="0.9188">
        <ele>1179.46</ele>
        <time>2021-03-13T13:30:55Z</time>
      </trkpt>
      <trkpt lat="42.84941" lon="0.91882">
        <ele>1179.401</ele>
        <time>2021-03-13T13:30:57Z</time>
      </trkpt>
      <trkpt lat="42.84941" lon="0.91885">
        <ele>1178.857</ele>
        <time>2021-03-13T13:30:59Z</time>
      </trkpt>
      <trkpt lat="42.84941" lon="0.91887">
        <ele>1179.168</ele>
        <time>2021-03-13T13:31:01Z</time>
      </trkpt>
      <trkpt lat="42.84941" lon="0.91889">
        <ele>1178.93</ele>
        <time>2021-03-13T13:31:03Z</time>
      </trkpt>
      <trkpt lat="42.84942" lon="0.91891">
        <ele>1178.474</ele>
        <time>2021-03-13T13:31:05Z</time>
      </trkpt>
      <trkpt lat="42.84943" lon="0.91893">
        <ele>1179.431</ele>
        <time>2021-03-13T13:31:07Z</time>
      </trkpt>
      <trkpt lat="42.84943" lon="0.91895">
        <ele>1179.248</ele>
        <time>2021-03-13T13:31:09Z</time>
      </trkpt>
      <trkpt lat="42.84944" lon="0.91897">
        <ele>1179.85</ele>
        <time>2021-03-13T13:31:11Z</time>
      </trkpt>
      <trkpt lat="42.84945" lon="0.919">
        <ele>1179.586</ele>
        <time>2021-03-13T13:31:13Z</time>
      </trkpt>
      <trkpt lat="42.84946" lon="0.91902">
        <ele>1179.335</ele>
        <time>2021-03-13T13:31:15Z</time>
      </trkpt>
      <trkpt lat="42.84947" lon="0.91904">
        <ele>1178.878</ele>
        <time>2021-03-13T13:31:17Z</time>
      </trkpt>
      <trkpt lat="42.84948" lon="0.91907">
        <ele>1177.089</ele>
        <time>2021-03-13T13:31:19Z</time>
      </trkpt>
      <trkpt lat="42.84948" lon="0.91909">
        <ele>1177.514</ele>
        <time>2021-03-13T13:31:21Z</time>
      </trkpt>
      <trkpt lat="42.84948" lon="0.91912">
        <ele>1175.78</ele>
        <time>2021-03-13T13:31:23Z</time>
      </trkpt>
      <trkpt lat="42.84949" lon="0.91914">
        <ele>1175.988</ele>
        <time>2021-03-13T13:31:25Z</time>
      </trkpt>
      <trkpt lat="42.84949" lon="0.91917">
        <ele>1176.57</ele>
        <time>2021-03-13T13:31:27Z</time>
      </trkpt>
      <trkpt lat="42.84951" lon="0.91918">
        <ele>1176.776</ele>
        <time>2021-03-13T13:31:29Z</time>
      </trkpt>
      <trkpt lat="42.84951" lon="0.9192">
        <ele>1176.294</ele>
        <time>2021-03-13T13:31:31Z</time>
      </trkpt>
      <trkpt lat="42.84952" lon="0.91922">
        <ele>1176.147</ele>
        <time>2021-03-13T13:31:33Z</time>
      </trkpt>
      <trkpt lat="42.84953" lon="0.91925">
        <ele>1175.533</ele>
        <time>2021-03-13T13:31:35Z</time>
      </trkpt>
      <trkpt lat="42.84955" lon="0.91927">
        <ele>1175.812</ele>
        <time>2021-03-13T13:31:37Z</time>
      </trkpt>
      <trkpt lat="42.84955" lon="0.91929">
        <ele>1172.635</ele>
        <time>2021-03-13T13:31:39Z</time>
      </trkpt>
      <trkpt lat="42.84955" lon="0.91931">
        <ele>1171.711</ele>
        <time>2021-03-13T13:31:41Z</time>
      </trkpt>
      <trkpt lat="42.84955" lon="0.91934">
        <ele>1171.208</ele>
        <time>2021-03-13T13:31:43Z</time>
      </trkpt>
      <trkpt lat="42.84956" lon="0.91936">
        <ele>1169.369</ele>
        <time>2021-03-13T13:31:45Z</time>
      </trkpt>
      <trkpt lat="42.84957" lon="0.91937">
        <ele>1168.581</ele>
        <time>2021-03-13T13:31:47Z</time>
      </trkpt>
      <trkpt lat="42.84958" lon="0.9194">
        <ele>1168.197</ele>
        <time>2021-03-13T13:31:49Z</time>
      </trkpt>
      <trkpt lat="42.84959" lon="0.91942">
        <ele>1167.539</ele>
        <time>2021-03-13T13:31:51Z</time>
      </trkpt>
      <trkpt lat="42.8496" lon="0.91944">
        <ele>1167.615</ele>
        <time>2021-03-13T13:31:53Z</time>
      </trkpt>
      <trkpt lat="42.84962" lon="0.91945">
        <ele>1166.977</ele>
        <time>2021-03-13T13:31:55Z</time>
      </trkpt>
      <trkpt lat="42.84963" lon="0.91947">
        <ele>1167.098</ele>
        <time>2021-03-13T13:31:57Z</time>
      </trkpt>
      <trkpt lat="42.84965" lon="0.91948">
        <ele>1166.327</ele>
        <time>2021-03-13T13:31:59Z</time>
      </trkpt>
      <trkpt lat="42.84966" lon="0.9195">
        <ele>1164.954</ele>
        <time>2021-03-13T13:32:01Z</time>
      </trkpt>
      <trkpt lat="42.84967" lon="0.91952">
        <ele>1163.719</ele>
        <time>2021-03-13T13:32:03Z</time>
      </trkpt>
      <trkpt lat="42.84969" lon="0.91954">
        <ele>1163.55</ele>
        <time>2021-03-13T13:32:05Z</time>
      </trkpt>
      <trkpt lat="42.8497" lon="0.91956">
        <ele>1163.799</ele>
        <time>2021-03-13T13:32:07Z</time>
      </trkpt>
      <trkpt lat="42.84971" lon="0.91958">
        <ele>1163.193</ele>
        <time>2021-03-13T13:32:09Z</time>
      </trkpt>
      <trkpt lat="42.84972" lon="0.91961">
        <ele>1162.084</ele>
        <time>2021-03-13T13:32:11Z</time>
      </trkpt>
      <trkpt lat="42.84974" lon="0.91963">
        <ele>1161.675</ele>
        <time>2021-03-13T13:32:13Z</time>
      </trkpt>
      <trkpt lat="42.84975" lon="0.91965">
        <ele>1162.177</ele>
        <time>2021-03-13T13:32:15Z</time>
      </trkpt>
      <trkpt lat="42.84976" lon="0.91967">
        <ele>1160.026</ele>
        <time>2021-03-13T13:32:17Z</time>
      </trkpt>
      <trkpt lat="42.84976" lon="0.9197">
        <ele>1158.123</ele>
        <time>2021-03-13T13:32:19Z</time>
      </trkpt>
      <trkpt lat="42.84976" lon="0.91972">
        <ele>1156.892</ele>
        <time>2021-03-13T13:32:21Z</time>
      </trkpt>
      <trkpt lat="42.84977" lon="0.91974">
        <ele>1156.726</ele>
        <time>2021-03-13T13:32:23Z</time>
      </trkpt>
      <trkpt lat="42.84979" lon="0.91976">
        <ele>1157.54</ele>
        <time>2021-03-13T13:32:25Z</time>
      </trkpt>
      <trkpt lat="42.8498" lon="0.91979">
        <ele>1157.828</ele>
        <time>2021-03-13T13:32:27Z</time>
      </trkpt>
      <trkpt lat="42.84981" lon="0.91981">
        <ele>1156.739</ele>
        <time>2021-03-13T13:32:29Z</time>
      </trkpt>
      <trkpt lat="42.84982" lon="0.91984">
        <ele>1158.165</ele>
        <time>2021-03-13T13:32:31Z</time>
      </trkpt>
      <trkpt lat="42.84983" lon="0.91986">
        <ele>1158.347</ele>
        <time>2021-03-13T13:32:33Z</time>
      </trkpt>
      <trkpt lat="42.84984" lon="0.91989">
        <ele>1157.029</ele>
        <time>2021-03-13T13:32:35Z</time>
      </trkpt>
      <trkpt lat="42.84985" lon="0.91991">
        <ele>1156.622</ele>
        <time>2021-03-13T13:32:37Z</time>
      </trkpt>
      <trkpt lat="42.84985" lon="0.91994">
        <ele>1155.628</ele>
        <time>2021-03-13T13:32:39Z</time>
      </trkpt>
      <trkpt lat="42.84986" lon="0.91996">
        <ele>1154.068</ele>
        <time>2021-03-13T13:32:41Z</time>
      </trkpt>
      <trkpt lat="42.84985" lon="0.91998">
        <ele>1152.464</ele>
        <time>2021-03-13T13:32:43Z</time>
      </trkpt>
      <trkpt lat="42.84985" lon="0.92">
        <ele>1151.647</ele>
        <time>2021-03-13T13:32:45Z</time>
      </trkpt>
      <trkpt lat="42.84985" lon="0.92002">
        <ele>1151.222</ele>
        <time>2021-03-13T13:32:47Z</time>
      </trkpt>
      <trkpt lat="42.84985" lon="0.92005">
        <ele>1149.979</ele>
        <time>2021-03-13T13:32:49Z</time>
      </trkpt>
      <trkpt lat="42.84986" lon="0.92007">
        <ele>1150.398</ele>
        <time>2021-03-13T13:32:51Z</time>
      </trkpt>
      <trkpt lat="42.84987" lon="0.92009">
        <ele>1152.096</ele>
        <time>2021-03-13T13:32:53Z</time>
      </trkpt>
      <trkpt lat="42.84988" lon="0.92011">
        <ele>1152.604</ele>
        <time>2021-03-13T13:32:55Z</time>
      </trkpt>
      <trkpt lat="42.84989" lon="0.92013">
        <ele>1153.753</ele>
        <time>2021-03-13T13:32:57Z</time>
      </trkpt>
      <trkpt lat="42.8499" lon="0.92015">
        <ele>1153.908</ele>
        <time>2021-03-13T13:32:59Z</time>
      </trkpt>
      <trkpt lat="42.8499" lon="0.92017">
        <ele>1151.608</ele>
        <time>2021-03-13T13:33:01Z</time>
      </trkpt>
      <trkpt lat="42.8499" lon="0.92018">
        <ele>1151.091</ele>
        <time>2021-03-13T13:33:03Z</time>
      </trkpt>
      <trkpt lat="42.84992" lon="0.9202">
        <ele>1152.471</ele>
        <time>2021-03-13T13:33:05Z</time>
      </trkpt>
      <trkpt lat="42.84993" lon="0.92022">
        <ele>1152.134</ele>
        <time>2021-03-13T13:33:07Z</time>
      </trkpt>
      <trkpt lat="42.84995" lon="0.92024">
        <ele>1153.222</ele>
        <time>2021-03-13T13:33:09Z</time>
      </trkpt>
      <trkpt lat="42.84996" lon="0.92027">
        <ele>1154.698</ele>
        <time>2021-03-13T13:33:11Z</time>
      </trkpt>
      <trkpt lat="42.84997" lon="0.92029">
        <ele>1155.475</ele>
        <time>2021-03-13T13:33:13Z</time>
      </trkpt>
      <trkpt lat="42.84998" lon="0.92032">
        <ele>1156.739</ele>
        <time>2021-03-13T13:33:15Z</time>
      </trkpt>
      <trkpt lat="42.84999" lon="0.92035">
        <ele>1156.163</ele>
        <time>2021-03-13T13:33:17Z</time>
      </trkpt>
      <trkpt lat="42.84999" lon="0.92036">
        <ele>1155.779</ele>
        <time>2021-03-13T13:33:19Z</time>
      </trkpt>
      <trkpt lat="42.85001" lon="0.92039">
        <ele>1156.204</ele>
        <time>2021-03-13T13:33:21Z</time>
      </trkpt>
      <trkpt lat="42.85001" lon="0.92041">
        <ele>1156.857</ele>
        <time>2021-03-13T13:33:23Z</time>
      </trkpt>
      <trkpt lat="42.85" lon="0.92044">
        <ele>1153.852</ele>
        <time>2021-03-13T13:33:25Z</time>
      </trkpt>
      <trkpt lat="42.84999" lon="0.92046">
        <ele>1151.453</ele>
        <time>2021-03-13T13:33:27Z</time>
      </trkpt>
      <trkpt lat="42.84996" lon="0.92048">
        <ele>1146.254</ele>
        <time>2021-03-13T13:33:29Z</time>
      </trkpt>
      <trkpt lat="42.84994" lon="0.92051">
        <ele>1142.69</ele>
        <time>2021-03-13T13:33:31Z</time>
      </trkpt>
      <trkpt lat="42.84992" lon="0.92055">
        <ele>1140.209</ele>
        <time>2021-03-13T13:33:33Z</time>
      </trkpt>
      <trkpt lat="42.84991" lon="0.92058">
        <ele>1137.909</ele>
        <time>2021-03-13T13:33:35Z</time>
      </trkpt>
      <trkpt lat="42.84991" lon="0.92062">
        <ele>1135.833</ele>
        <time>2021-03-13T13:33:37Z</time>
      </trkpt>
      <trkpt lat="42.84991" lon="0.92065">
        <ele>1134.283</ele>
        <time>2021-03-13T13:33:39Z</time>
      </trkpt>
      <trkpt lat="42.84992" lon="0.92069">
        <ele>1132.648</ele>
        <time>2021-03-13T13:33:41Z</time>
      </trkpt>
      <trkpt lat="42.8499" lon="0.92071">
        <ele>1130.326</ele>
        <time>2021-03-13T13:33:43Z</time>
      </trkpt>
      <trkpt lat="42.8499" lon="0.92073">
        <ele>1127.894</ele>
        <time>2021-03-13T13:33:45Z</time>
      </trkpt>
      <trkpt lat="42.8499" lon="0.92076">
        <ele>1127.49</ele>
        <time>2021-03-13T13:33:47Z</time>
      </trkpt>
      <trkpt lat="42.84989" lon="0.9208">
        <ele>1126.251</ele>
        <time>2021-03-13T13:33:49Z</time>
      </trkpt>
      <trkpt lat="42.84989" lon="0.92082">
        <ele>1125.868</ele>
        <time>2021-03-13T13:33:51Z</time>
      </trkpt>
      <trkpt lat="42.84989" lon="0.92085">
        <ele>1125.487</ele>
        <time>2021-03-13T13:33:53Z</time>
      </trkpt>
      <trkpt lat="42.84989" lon="0.92088">
        <ele>1124.713</ele>
        <time>2021-03-13T13:33:55Z</time>
      </trkpt>
      <trkpt lat="42.8499" lon="0.9209">
        <ele>1125.023</ele>
        <time>2021-03-13T13:33:57Z</time>
      </trkpt>
      <trkpt lat="42.8499" lon="0.92094">
        <ele>1124.405</ele>
        <time>2021-03-13T13:33:59Z</time>
      </trkpt>
      <trkpt lat="42.84989" lon="0.92096">
        <ele>1122.6</ele>
        <time>2021-03-13T13:34:01Z</time>
      </trkpt>
      <trkpt lat="42.84989" lon="0.921">
        <ele>1122.741</ele>
        <time>2021-03-13T13:34:03Z</time>
      </trkpt>
      <trkpt lat="42.84989" lon="0.92101">
        <ele>1122.454</ele>
        <time>2021-03-13T13:34:05Z</time>
      </trkpt>
      <trkpt lat="42.84989" lon="0.92103">
        <ele>1122.05</ele>
        <time>2021-03-13T13:34:07Z</time>
      </trkpt>
      <trkpt lat="42.84989" lon="0.92106">
        <ele>1122.296</ele>
        <time>2021-03-13T13:34:09Z</time>
      </trkpt>
      <trkpt lat="42.84989" lon="0.92109">
        <ele>1123.407</ele>
        <time>2021-03-13T13:34:11Z</time>
      </trkpt>
      <trkpt lat="42.84989" lon="0.9211">
        <ele>1122.782</ele>
        <time>2021-03-13T13:34:13Z</time>
      </trkpt>
      <trkpt lat="42.8499" lon="0.92115">
        <ele>1125.037</ele>
        <time>2021-03-13T13:34:15Z</time>
      </trkpt>
      <trkpt lat="42.8499" lon="0.92117">
        <ele>1124.72</ele>
        <time>2021-03-13T13:34:17Z</time>
      </trkpt>
      <trkpt lat="42.8499" lon="0.9212">
        <ele>1123.391</ele>
        <time>2021-03-13T13:34:19Z</time>
      </trkpt>
      <trkpt lat="42.8499" lon="0.92122">
        <ele>1123.357</ele>
        <time>2021-03-13T13:34:21Z</time>
      </trkpt>
      <trkpt lat="42.8499" lon="0.92124">
        <ele>1122.665</ele>
        <time>2021-03-13T13:34:23Z</time>
      </trkpt>
      <trkpt lat="42.84989" lon="0.92126">
        <ele>1121.622</ele>
        <time>2021-03-13T13:34:25Z</time>
      </trkpt>
      <trkpt lat="42.84989" lon="0.92128">
        <ele>1121.503</ele>
        <time>2021-03-13T13:34:27Z</time>
      </trkpt>
      <trkpt lat="42.84989" lon="0.92129">
        <ele>1121.048</ele>
        <time>2021-03-13T13:34:29Z</time>
      </trkpt>
      <trkpt lat="42.84989" lon="0.92132">
        <ele>1119.504</ele>
        <time>2021-03-13T13:34:31Z</time>
      </trkpt>
      <trkpt lat="42.84988" lon="0.92135">
        <ele>1117.522</ele>
        <time>2021-03-13T13:34:33Z</time>
      </trkpt>
      <trkpt lat="42.84988" lon="0.92138">
        <ele>1116.627</ele>
        <time>2021-03-13T13:34:35Z</time>
      </trkpt>
      <trkpt lat="42.84989" lon="0.9214">
        <ele>1115.864</ele>
        <time>2021-03-13T13:34:37Z</time>
      </trkpt>
      <trkpt lat="42.84989" lon="0.92142">
        <ele>1115.945</ele>
        <time>2021-03-13T13:34:39Z</time>
      </trkpt>
      <trkpt lat="42.84989" lon="0.92145">
        <ele>1114.821</ele>
        <time>2021-03-13T13:34:41Z</time>
      </trkpt>
      <trkpt lat="42.84989" lon="0.92146">
        <ele>1114.222</ele>
        <time>2021-03-13T13:34:43Z</time>
      </trkpt>
      <trkpt lat="42.8499" lon="0.92148">
        <ele>1113.434</ele>
        <time>2021-03-13T13:34:45Z</time>
      </trkpt>
      <trkpt lat="42.84989" lon="0.92148">
        <ele>1113.43</ele>
        <time>2021-03-13T13:34:47Z</time>
      </trkpt>
      <trkpt lat="42.84989" lon="0.92148">
        <ele>1113.42</ele>
        <time>2021-03-13T13:34:49Z</time>
      </trkpt>
      <trkpt lat="42.84991" lon="0.92149">
        <ele>1111.918</ele>
        <time>2021-03-13T13:34:51Z</time>
      </trkpt>
      <trkpt lat="42.84994" lon="0.92149">
        <ele>1110.697</ele>
        <time>2021-03-13T13:34:53Z</time>
      </trkpt>
      <trkpt lat="42.84995" lon="0.92153">
        <ele>1109.516</ele>
        <time>2021-03-13T13:34:55Z</time>
      </trkpt>
      <trkpt lat="42.84994" lon="0.92158">
        <ele>1108.859</ele>
        <time>2021-03-13T13:34:57Z</time>
      </trkpt>
      <trkpt lat="42.84994" lon="0.92161">
        <ele>1108.74</ele>
        <time>2021-03-13T13:34:59Z</time>
      </trkpt>
      <trkpt lat="42.84994" lon="0.92164">
        <ele>1109.139</ele>
        <time>2021-03-13T13:35:01Z</time>
      </trkpt>
      <trkpt lat="42.84994" lon="0.92166">
        <ele>1107.86</ele>
        <time>2021-03-13T13:35:03Z</time>
      </trkpt>
      <trkpt lat="42.84994" lon="0.92171">
        <ele>1106.24</ele>
        <time>2021-03-13T13:35:05Z</time>
      </trkpt>
      <trkpt lat="42.84995" lon="0.92173">
        <ele>1105.64</ele>
        <time>2021-03-13T13:35:07Z</time>
      </trkpt>
      <trkpt lat="42.84995" lon="0.92173">
        <ele>1103.727</ele>
        <time>2021-03-13T13:35:09Z</time>
      </trkpt>
      <trkpt lat="42.84996" lon="0.92174">
        <ele>1103.8</ele>
        <time>2021-03-13T13:35:11Z</time>
      </trkpt>
      <trkpt lat="42.84998" lon="0.92175">
        <ele>1103.754</ele>
        <time>2021-03-13T13:35:13Z</time>
      </trkpt>
      <trkpt lat="42.84999" lon="0.92175">
        <ele>1103.441</ele>
        <time>2021-03-13T13:35:15Z</time>
      </trkpt>
      <trkpt lat="42.85" lon="0.92176">
        <ele>1104.024</ele>
        <time>2021-03-13T13:35:17Z</time>
      </trkpt>
      <trkpt lat="42.85001" lon="0.92175">
        <ele>1103.286</ele>
        <time>2021-03-13T13:35:19Z</time>
      </trkpt>
      <trkpt lat="42.85002" lon="0.92175">
        <ele>1102.794</ele>
        <time>2021-03-13T13:35:21Z</time>
      </trkpt>
      <trkpt lat="42.85001" lon="0.92178">
        <ele>1101.614</ele>
        <time>2021-03-13T13:35:23Z</time>
      </trkpt>
      <trkpt lat="42.85" lon="0.92179">
        <ele>1100.62</ele>
        <time>2021-03-13T13:35:25Z</time>
      </trkpt>
      <trkpt lat="42.85001" lon="0.92183">
        <ele>1100.055</ele>
        <time>2021-03-13T13:35:27Z</time>
      </trkpt>
      <trkpt lat="42.85002" lon="0.92184">
        <ele>1098.843</ele>
        <time>2021-03-13T13:35:29Z</time>
      </trkpt>
      <trkpt lat="42.85003" lon="0.92186">
        <ele>1097.806</ele>
        <time>2021-03-13T13:35:31Z</time>
      </trkpt>
      <trkpt lat="42.85004" lon="0.92188">
        <ele>1097.415</ele>
        <time>2021-03-13T13:35:33Z</time>
      </trkpt>
      <trkpt lat="42.85004" lon="0.92189">
        <ele>1096.518</ele>
        <time>2021-03-13T13:35:35Z</time>
      </trkpt>
      <trkpt lat="42.85004" lon="0.9219">
        <ele>1094.786</ele>
        <time>2021-03-13T13:35:37Z</time>
      </trkpt>
      <trkpt lat="42.85003" lon="0.92193">
        <ele>1094.059</ele>
        <time>2021-03-13T13:35:39Z</time>
      </trkpt>
      <trkpt lat="42.85003" lon="0.92195">
        <ele>1093.205</ele>
        <time>2021-03-13T13:35:41Z</time>
      </trkpt>
      <trkpt lat="42.85003" lon="0.92199">
        <ele>1092.063</ele>
        <time>2021-03-13T13:35:43Z</time>
      </trkpt>
      <trkpt lat="42.85004" lon="0.92203">
        <ele>1094.483</ele>
        <time>2021-03-13T13:35:45Z</time>
      </trkpt>
      <trkpt lat="42.85007" lon="0.92205">
        <ele>1094.943</ele>
        <time>2021-03-13T13:35:47Z</time>
      </trkpt>
      <trkpt lat="42.85008" lon="0.92209">
        <ele>1097.909</ele>
        <time>2021-03-13T13:35:49Z</time>
      </trkpt>
      <trkpt lat="42.85006" lon="0.92211">
        <ele>1096.568</ele>
        <time>2021-03-13T13:35:51Z</time>
      </trkpt>
      <trkpt lat="42.85005" lon="0.92214">
        <ele>1097.779</ele>
        <time>2021-03-13T13:35:53Z</time>
      </trkpt>
      <trkpt lat="42.85006" lon="0.92216">
        <ele>1099.372</ele>
        <time>2021-03-13T13:35:55Z</time>
      </trkpt>
      <trkpt lat="42.85006" lon="0.92219">
        <ele>1099.047</ele>
        <time>2021-03-13T13:35:57Z</time>
      </trkpt>
      <trkpt lat="42.85008" lon="0.92221">
        <ele>1099.397</ele>
        <time>2021-03-13T13:35:59Z</time>
      </trkpt>
      <trkpt lat="42.8501" lon="0.92223">
        <ele>1097.155</ele>
        <time>2021-03-13T13:36:01Z</time>
      </trkpt>
      <trkpt lat="42.85012" lon="0.92225">
        <ele>1097.387</ele>
        <time>2021-03-13T13:36:03Z</time>
      </trkpt>
      <trkpt lat="42.85013" lon="0.92226">
        <ele>1096.428</ele>
        <time>2021-03-13T13:36:05Z</time>
      </trkpt>
      <trkpt lat="42.85013" lon="0.92228">
        <ele>1095.301</ele>
        <time>2021-03-13T13:36:07Z</time>
      </trkpt>
      <trkpt lat="42.85013" lon="0.9223">
        <ele>1093.058</ele>
        <time>2021-03-13T13:36:09Z</time>
      </trkpt>
      <trkpt lat="42.85012" lon="0.92232">
        <ele>1091.723</ele>
        <time>2021-03-13T13:36:11Z</time>
      </trkpt>
      <trkpt lat="42.85011" lon="0.92234">
        <ele>1091.473</ele>
        <time>2021-03-13T13:36:13Z</time>
      </trkpt>
      <trkpt lat="42.8501" lon="0.92236">
        <ele>1090.452</ele>
        <time>2021-03-13T13:36:15Z</time>
      </trkpt>
      <trkpt lat="42.85009" lon="0.92238">
        <ele>1089.286</ele>
        <time>2021-03-13T13:36:17Z</time>
      </trkpt>
      <trkpt lat="42.85008" lon="0.92241">
        <ele>1088.898</ele>
        <time>2021-03-13T13:36:19Z</time>
      </trkpt>
      <trkpt lat="42.85007" lon="0.92244">
        <ele>1087.702</ele>
        <time>2021-03-13T13:36:21Z</time>
      </trkpt>
      <trkpt lat="42.85007" lon="0.92245">
        <ele>1086.798</ele>
        <time>2021-03-13T13:36:23Z</time>
      </trkpt>
      <trkpt lat="42.85008" lon="0.92247">
        <ele>1086.965</ele>
        <time>2021-03-13T13:36:25Z</time>
      </trkpt>
      <trkpt lat="42.85008" lon="0.92248">
        <ele>1085.678</ele>
        <time>2021-03-13T13:36:27Z</time>
      </trkpt>
      <trkpt lat="42.85008" lon="0.92251">
        <ele>1085.061</ele>
        <time>2021-03-13T13:36:29Z</time>
      </trkpt>
      <trkpt lat="42.85007" lon="0.92253">
        <ele>1083.646</ele>
        <time>2021-03-13T13:36:31Z</time>
      </trkpt>
      <trkpt lat="42.85008" lon="0.92255">
        <ele>1082.575</ele>
        <time>2021-03-13T13:36:33Z</time>
      </trkpt>
      <trkpt lat="42.85006" lon="0.92258">
        <ele>1083.477</ele>
        <time>2021-03-13T13:36:35Z</time>
      </trkpt>
      <trkpt lat="42.85006" lon="0.9226">
        <ele>1082.451</ele>
        <time>2021-03-13T13:36:37Z</time>
      </trkpt>
      <trkpt lat="42.85006" lon="0.92262">
        <ele>1081.779</ele>
        <time>2021-03-13T13:36:39Z</time>
      </trkpt>
      <trkpt lat="42.85005" lon="0.92264">
        <ele>1080.021</ele>
        <time>2021-03-13T13:36:41Z</time>
      </trkpt>
      <trkpt lat="42.85005" lon="0.92267">
        <ele>1079.508</ele>
        <time>2021-03-13T13:36:43Z</time>
      </trkpt>
      <trkpt lat="42.85005" lon="0.92269">
        <ele>1078.627</ele>
        <time>2021-03-13T13:36:45Z</time>
      </trkpt>
      <trkpt lat="42.85004" lon="0.92272">
        <ele>1077.81</ele>
        <time>2021-03-13T13:36:47Z</time>
      </trkpt>
      <trkpt lat="42.85004" lon="0.92274">
        <ele>1077.333</ele>
        <time>2021-03-13T13:36:49Z</time>
      </trkpt>
      <trkpt lat="42.85004" lon="0.92277">
        <ele>1076.595</ele>
        <time>2021-03-13T13:36:51Z</time>
      </trkpt>
      <trkpt lat="42.85004" lon="0.9228">
        <ele>1076.164</ele>
        <time>2021-03-13T13:36:53Z</time>
      </trkpt>
      <trkpt lat="42.85004" lon="0.92281">
        <ele>1074.989</ele>
        <time>2021-03-13T13:36:55Z</time>
      </trkpt>
      <trkpt lat="42.85004" lon="0.92284">
        <ele>1074.403</ele>
        <time>2021-03-13T13:36:57Z</time>
      </trkpt>
      <trkpt lat="42.85004" lon="0.92286">
        <ele>1073.101</ele>
        <time>2021-03-13T13:36:59Z</time>
      </trkpt>
      <trkpt lat="42.85005" lon="0.92289">
        <ele>1072.109</ele>
        <time>2021-03-13T13:37:01Z</time>
      </trkpt>
      <trkpt lat="42.85006" lon="0.92292">
        <ele>1072.41</ele>
        <time>2021-03-13T13:37:03Z</time>
      </trkpt>
      <trkpt lat="42.85007" lon="0.92294">
        <ele>1070.817</ele>
        <time>2021-03-13T13:37:05Z</time>
      </trkpt>
      <trkpt lat="42.85008" lon="0.92295">
        <ele>1070.124</ele>
        <time>2021-03-13T13:37:07Z</time>
      </trkpt>
      <trkpt lat="42.85009" lon="0.92295">
        <ele>1070.968</ele>
        <time>2021-03-13T13:37:09Z</time>
      </trkpt>
      <trkpt lat="42.85008" lon="0.92295">
        <ele>1070.966</ele>
        <time>2021-03-13T13:37:11Z</time>
      </trkpt>
      <trkpt lat="42.85008" lon="0.92297">
        <ele>1070.532</ele>
        <time>2021-03-13T13:37:13Z</time>
      </trkpt>
      <trkpt lat="42.85009" lon="0.92298">
        <ele>1070.688</ele>
        <time>2021-03-13T13:37:15Z</time>
      </trkpt>
      <trkpt lat="42.8501" lon="0.923">
        <ele>1070.978</ele>
        <time>2021-03-13T13:37:17Z</time>
      </trkpt>
      <trkpt lat="42.8501" lon="0.92302">
        <ele>1070.327</ele>
        <time>2021-03-13T13:37:19Z</time>
      </trkpt>
      <trkpt lat="42.85011" lon="0.92302">
        <ele>1069.929</ele>
        <time>2021-03-13T13:37:21Z</time>
      </trkpt>
      <trkpt lat="42.85011" lon="0.92301">
        <ele>1069.89</ele>
        <time>2021-03-13T13:37:23Z</time>
      </trkpt>
      <trkpt lat="42.85011" lon="0.92301">
        <ele>1069.886</ele>
        <time>2021-03-13T13:37:25Z</time>
      </trkpt>
      <trkpt lat="42.85011" lon="0.92301">
        <ele>1069.668</ele>
        <time>2021-03-13T13:37:27Z</time>
      </trkpt>
      <trkpt lat="42.85011" lon="0.92301">
        <ele>1069.639</ele>
        <time>2021-03-13T13:37:29Z</time>
      </trkpt>
      <trkpt lat="42.85011" lon="0.92301">
        <ele>1069.636</ele>
        <time>2021-03-13T13:37:31Z</time>
      </trkpt>
      <trkpt lat="42.85011" lon="0.92301">
        <ele>1069.636</ele>
        <time>2021-03-13T13:37:33Z</time>
      </trkpt>
      <trkpt lat="42.85011" lon="0.92301">
        <ele>1069.63</ele>
        <time>2021-03-13T13:37:35Z</time>
      </trkpt>
      <trkpt lat="42.85011" lon="0.92301">
        <ele>1069.153</ele>
        <time>2021-03-13T13:37:37Z</time>
      </trkpt>
      <trkpt lat="42.85011" lon="0.92301">
        <ele>1069.155</ele>
        <time>2021-03-13T13:37:39Z</time>
      </trkpt>
      <trkpt lat="42.85011" lon="0.92301">
        <ele>1069.152</ele>
        <time>2021-03-13T13:37:41Z</time>
      </trkpt>
      <trkpt lat="42.85011" lon="0.923">
        <ele>1068.916</ele>
        <time>2021-03-13T13:37:43Z</time>
      </trkpt>
      <trkpt lat="42.85011" lon="0.923">
        <ele>1068.905</ele>
        <time>2021-03-13T13:37:45Z</time>
      </trkpt>
      <trkpt lat="42.85011" lon="0.923">
        <ele>1068.906</ele>
        <time>2021-03-13T13:37:47Z</time>
      </trkpt>
      <trkpt lat="42.85011" lon="0.92301">
        <ele>1069.072</ele>
        <time>2021-03-13T13:37:49Z</time>
      </trkpt>
      <trkpt lat="42.85011" lon="0.92301">
        <ele>1069.079</ele>
        <time>2021-03-13T13:37:51Z</time>
      </trkpt>
      <trkpt lat="42.85011" lon="0.92301">
        <ele>1069.068</ele>
        <time>2021-03-13T13:37:53Z</time>
      </trkpt>
      <trkpt lat="42.85011" lon="0.92301">
        <ele>1068.97</ele>
        <time>2021-03-13T13:37:55Z</time>
      </trkpt>
      <trkpt lat="42.85011" lon="0.92301">
        <ele>1069.063</ele>
        <time>2021-03-13T13:37:57Z</time>
      </trkpt>
      <trkpt lat="42.85011" lon="0.92301">
        <ele>1069.065</ele>
        <time>2021-03-13T13:37:59Z</time>
      </trkpt>
      <trkpt lat="42.85011" lon="0.92301">
        <ele>1069.066</ele>
        <time>2021-03-13T13:38:01Z</time>
      </trkpt>
      <trkpt lat="42.85011" lon="0.92301">
        <ele>1069.067</ele>
        <time>2021-03-13T13:38:03Z</time>
      </trkpt>
      <trkpt lat="42.85011" lon="0.92301">
        <ele>1069.059</ele>
        <time>2021-03-13T13:38:05Z</time>
      </trkpt>
      <trkpt lat="42.85011" lon="0.923">
        <ele>1068.707</ele>
        <time>2021-03-13T13:38:07Z</time>
      </trkpt>
      <trkpt lat="42.85011" lon="0.923">
        <ele>1068.417</ele>
        <time>2021-03-13T13:38:09Z</time>
      </trkpt>
      <trkpt lat="42.85011" lon="0.923">
        <ele>1068.413</ele>
        <time>2021-03-13T13:38:11Z</time>
      </trkpt>
      <trkpt lat="42.85011" lon="0.923">
        <ele>1068.129</ele>
        <time>2021-03-13T13:38:13Z</time>
      </trkpt>
      <trkpt lat="42.85011" lon="0.923">
        <ele>1068.123</ele>
        <time>2021-03-13T13:38:15Z</time>
      </trkpt>
      <trkpt lat="42.85011" lon="0.923">
        <ele>1067.687</ele>
        <time>2021-03-13T13:38:17Z</time>
      </trkpt>
      <trkpt lat="42.85011" lon="0.92301">
        <ele>1067.13</ele>
        <time>2021-03-13T13:38:19Z</time>
      </trkpt>
      <trkpt lat="42.85011" lon="0.92301">
        <ele>1066.556</ele>
        <time>2021-03-13T13:38:21Z</time>
      </trkpt>
      <trkpt lat="42.8501" lon="0.92301">
        <ele>1066.554</ele>
        <time>2021-03-13T13:38:23Z</time>
      </trkpt>
      <trkpt lat="42.8501" lon="0.923">
        <ele>1066.558</ele>
        <time>2021-03-13T13:38:25Z</time>
      </trkpt>
      <trkpt lat="42.8501" lon="0.923">
        <ele>1066.555</ele>
        <time>2021-03-13T13:38:27Z</time>
      </trkpt>
      <trkpt lat="42.8501" lon="0.923">
        <ele>1066.557</ele>
        <time>2021-03-13T13:38:29Z</time>
      </trkpt>
      <trkpt lat="42.8501" lon="0.923">
        <ele>1066.555</ele>
        <time>2021-03-13T13:38:31Z</time>
      </trkpt>
      <trkpt lat="42.8501" lon="0.923">
        <ele>1066.549</ele>
        <time>2021-03-13T13:38:33Z</time>
      </trkpt>
      <trkpt lat="42.8501" lon="0.923">
        <ele>1066.542</ele>
        <time>2021-03-13T13:38:35Z</time>
      </trkpt>
      <trkpt lat="42.8501" lon="0.923">
        <ele>1066.462</ele>
        <time>2021-03-13T13:38:37Z</time>
      </trkpt>
      <trkpt lat="42.8501" lon="0.92301">
        <ele>1066.569</ele>
        <time>2021-03-13T13:38:39Z</time>
      </trkpt>
      <trkpt lat="42.8501" lon="0.92301">
        <ele>1066.554</ele>
        <time>2021-03-13T13:38:41Z</time>
      </trkpt>
      <trkpt lat="42.8501" lon="0.92301">
        <ele>1066.55</ele>
        <time>2021-03-13T13:38:43Z</time>
      </trkpt>
      <trkpt lat="42.8501" lon="0.92301">
        <ele>1066.544</ele>
        <time>2021-03-13T13:38:45Z</time>
      </trkpt>
      <trkpt lat="42.8501" lon="0.92301">
        <ele>1066.541</ele>
        <time>2021-03-13T13:38:47Z</time>
      </trkpt>
      <trkpt lat="42.8501" lon="0.92301">
        <ele>1066.545</ele>
        <time>2021-03-13T13:38:49Z</time>
      </trkpt>
      <trkpt lat="42.8501" lon="0.92301">
        <ele>1066.537</ele>
        <time>2021-03-13T13:38:51Z</time>
      </trkpt>
      <trkpt lat="42.8501" lon="0.92301">
        <ele>1066.535</ele>
        <time>2021-03-13T13:38:53Z</time>
      </trkpt>
      <trkpt lat="42.8501" lon="0.92301">
        <ele>1066.531</ele>
        <time>2021-03-13T13:38:55Z</time>
      </trkpt>
      <trkpt lat="42.8501" lon="0.92301">
        <ele>1066.524</ele>
        <time>2021-03-13T13:38:57Z</time>
      </trkpt>
      <trkpt lat="42.8501" lon="0.92301">
        <ele>1065.94</ele>
        <time>2021-03-13T13:38:59Z</time>
      </trkpt>
      <trkpt lat="42.8501" lon="0.92301">
        <ele>1065.922</ele>
        <time>2021-03-13T13:39:01Z</time>
      </trkpt>
      <trkpt lat="42.8501" lon="0.92301">
        <ele>1065.902</ele>
        <time>2021-03-13T13:39:03Z</time>
      </trkpt>
      <trkpt lat="42.8501" lon="0.92301">
        <ele>1065.99</ele>
        <time>2021-03-13T13:39:05Z</time>
      </trkpt>
      <trkpt lat="42.8501" lon="0.92301">
        <ele>1065.99</ele>
        <time>2021-03-13T13:39:07Z</time>
      </trkpt>
      <trkpt lat="42.8501" lon="0.92301">
        <ele>1065.99</ele>
        <time>2021-03-13T13:39:09Z</time>
      </trkpt>
      <trkpt lat="42.8501" lon="0.92301">
        <ele>1065.984</ele>
        <time>2021-03-13T13:39:11Z</time>
      </trkpt>
      <trkpt lat="42.8501" lon="0.92301">
        <ele>1065.238</ele>
        <time>2021-03-13T13:39:13Z</time>
      </trkpt>
      <trkpt lat="42.8501" lon="0.92301">
        <ele>1065.262</ele>
        <time>2021-03-13T13:39:15Z</time>
      </trkpt>
      <trkpt lat="42.8501" lon="0.92301">
        <ele>1065.267</ele>
        <time>2021-03-13T13:39:17Z</time>
      </trkpt>
      <trkpt lat="42.8501" lon="0.92301">
        <ele>1065.388</ele>
        <time>2021-03-13T13:39:19Z</time>
      </trkpt>
      <trkpt lat="42.8501" lon="0.92301">
        <ele>1065.385</ele>
        <time>2021-03-13T13:39:21Z</time>
      </trkpt>
      <trkpt lat="42.8501" lon="0.92301">
        <ele>1065.385</ele>
        <time>2021-03-13T13:39:23Z</time>
      </trkpt>
      <trkpt lat="42.8501" lon="0.92301">
        <ele>1065.388</ele>
        <time>2021-03-13T13:39:25Z</time>
      </trkpt>
      <trkpt lat="42.8501" lon="0.92301">
        <ele>1065.384</ele>
        <time>2021-03-13T13:39:27Z</time>
      </trkpt>
      <trkpt lat="42.8501" lon="0.92301">
        <ele>1065.384</ele>
        <time>2021-03-13T13:39:29Z</time>
      </trkpt>
      <trkpt lat="42.8501" lon="0.92301">
        <ele>1065.386</ele>
        <time>2021-03-13T13:39:31Z</time>
      </trkpt>
      <trkpt lat="42.8501" lon="0.92301">
        <ele>1065.39</ele>
        <time>2021-03-13T13:39:33Z</time>
      </trkpt>
      <trkpt lat="42.8501" lon="0.92301">
        <ele>1065.388</ele>
        <time>2021-03-13T13:39:35Z</time>
      </trkpt>
      <trkpt lat="42.8501" lon="0.92301">
        <ele>1065.388</ele>
        <time>2021-03-13T13:39:37Z</time>
      </trkpt>
      <trkpt lat="42.8501" lon="0.92301">
        <ele>1065.387</ele>
        <time>2021-03-13T13:39:39Z</time>
      </trkpt>
      <trkpt lat="42.8501" lon="0.92301">
        <ele>1065.387</ele>
        <time>2021-03-13T13:39:41Z</time>
      </trkpt>
      <trkpt lat="42.8501" lon="0.92301">
        <ele>1065.787</ele>
        <time>2021-03-13T13:39:44Z</time>
      </trkpt>
      <trkpt lat="42.8501" lon="0.92301">
        <ele>1065.786</ele>
        <time>2021-03-13T13:39:46Z</time>
      </trkpt>
      <trkpt lat="42.8501" lon="0.92301">
        <ele>1065.785</ele>
        <time>2021-03-13T13:39:48Z</time>
      </trkpt>
      <trkpt lat="42.8501" lon="0.92301">
        <ele>1065.793</ele>
        <time>2021-03-13T13:39:50Z</time>
      </trkpt>
      <trkpt lat="42.8501" lon="0.92301">
        <ele>1065.797</ele>
        <time>2021-03-13T13:39:52Z</time>
      </trkpt>
      <trkpt lat="42.8501" lon="0.92301">
        <ele>1065.799</ele>
        <time>2021-03-13T13:39:54Z</time>
      </trkpt>
      <trkpt lat="42.8501" lon="0.92301">
        <ele>1065.795</ele>
        <time>2021-03-13T13:39:56Z</time>
      </trkpt>
      <trkpt lat="42.8501" lon="0.92301">
        <ele>1065.796</ele>
        <time>2021-03-13T13:39:58Z</time>
      </trkpt>
      <trkpt lat="42.8501" lon="0.92301">
        <ele>1065.79</ele>
        <time>2021-03-13T13:40:00Z</time>
      </trkpt>
      <trkpt lat="42.8501" lon="0.92301">
        <ele>1065.792</ele>
        <time>2021-03-13T13:40:02Z</time>
      </trkpt>
      <trkpt lat="42.8501" lon="0.92301">
        <ele>1065.794</ele>
        <time>2021-03-13T13:40:04Z</time>
      </trkpt>
      <trkpt lat="42.8501" lon="0.92301">
        <ele>1065.801</ele>
        <time>2021-03-13T13:40:06Z</time>
      </trkpt>
      <trkpt lat="42.8501" lon="0.92301">
        <ele>1065.801</ele>
        <time>2021-03-13T13:40:08Z</time>
      </trkpt>
      <trkpt lat="42.8501" lon="0.92301">
        <ele>1065.802</ele>
        <time>2021-03-13T13:40:10Z</time>
      </trkpt>
      <trkpt lat="42.8501" lon="0.92301">
        <ele>1065.801</ele>
        <time>2021-03-13T13:40:12Z</time>
      </trkpt>
      <trkpt lat="42.8501" lon="0.92301">
        <ele>1065.795</ele>
        <time>2021-03-13T13:40:14Z</time>
      </trkpt>
      <trkpt lat="42.8501" lon="0.92301">
        <ele>1065.79</ele>
        <time>2021-03-13T13:40:16Z</time>
      </trkpt>
      <trkpt lat="42.8501" lon="0.92301">
        <ele>1065.786</ele>
        <time>2021-03-13T13:40:18Z</time>
      </trkpt>
      <trkpt lat="42.8501" lon="0.92301">
        <ele>1065.78</ele>
        <time>2021-03-13T13:40:20Z</time>
      </trkpt>
      <trkpt lat="42.8501" lon="0.92301">
        <ele>1065.773</ele>
        <time>2021-03-13T13:40:22Z</time>
      </trkpt>
      <trkpt lat="42.8501" lon="0.92301">
        <ele>1065.765</ele>
        <time>2021-03-13T13:40:24Z</time>
      </trkpt>
      <trkpt lat="42.8501" lon="0.92301">
        <ele>1065.763</ele>
        <time>2021-03-13T13:40:26Z</time>
      </trkpt>
      <trkpt lat="42.8501" lon="0.92301">
        <ele>1065.753</ele>
        <time>2021-03-13T13:40:28Z</time>
      </trkpt>
      <trkpt lat="42.8501" lon="0.92301">
        <ele>1065.746</ele>
        <time>2021-03-13T13:40:30Z</time>
      </trkpt>
      <trkpt lat="42.8501" lon="0.92301">
        <ele>1065.739</ele>
        <time>2021-03-13T13:40:32Z</time>
      </trkpt>
      <trkpt lat="42.8501" lon="0.92301">
        <ele>1065.383</ele>
        <time>2021-03-13T13:40:34Z</time>
      </trkpt>
      <trkpt lat="42.8501" lon="0.92301">
        <ele>1065.217</ele>
        <time>2021-03-13T13:40:36Z</time>
      </trkpt>
      <trkpt lat="42.8501" lon="0.923">
        <ele>1065.247</ele>
        <time>2021-03-13T13:40:38Z</time>
      </trkpt>
      <trkpt lat="42.85011" lon="0.923">
        <ele>1065.21</ele>
        <time>2021-03-13T13:40:40Z</time>
      </trkpt>
      <trkpt lat="42.85011" lon="0.923">
        <ele>1065.217</ele>
        <time>2021-03-13T13:40:42Z</time>
      </trkpt>
      <trkpt lat="42.85011" lon="0.923">
        <ele>1065.215</ele>
        <time>2021-03-13T13:40:44Z</time>
      </trkpt>
      <trkpt lat="42.85011" lon="0.923">
        <ele>1065.216</ele>
        <time>2021-03-13T13:40:46Z</time>
      </trkpt>
      <trkpt lat="42.85011" lon="0.923">
        <ele>1065.223</ele>
        <time>2021-03-13T13:40:48Z</time>
      </trkpt>
      <trkpt lat="42.85011" lon="0.923">
        <ele>1065.22</ele>
        <time>2021-03-13T13:40:50Z</time>
      </trkpt>
      <trkpt lat="42.85011" lon="0.923">
        <ele>1065.21</ele>
        <time>2021-03-13T13:40:52Z</time>
      </trkpt>
      <trkpt lat="42.85011" lon="0.923">
        <ele>1065.207</ele>
        <time>2021-03-13T13:40:54Z</time>
      </trkpt>
      <trkpt lat="42.85011" lon="0.923">
        <ele>1065.191</ele>
        <time>2021-03-13T13:40:56Z</time>
      </trkpt>
      <trkpt lat="42.85011" lon="0.923">
        <ele>1065.188</ele>
        <time>2021-03-13T13:40:58Z</time>
      </trkpt>
      <trkpt lat="42.85011" lon="0.923">
        <ele>1065.18</ele>
        <time>2021-03-13T13:41:00Z</time>
      </trkpt>
      <trkpt lat="42.85011" lon="0.923">
        <ele>1065.179</ele>
        <time>2021-03-13T13:41:02Z</time>
      </trkpt>
      <trkpt lat="42.85011" lon="0.923">
        <ele>1065.176</ele>
        <time>2021-03-13T13:41:04Z</time>
      </trkpt>
      <trkpt lat="42.85011" lon="0.923">
        <ele>1065.167</ele>
        <time>2021-03-13T13:41:06Z</time>
      </trkpt>
      <trkpt lat="42.85011" lon="0.923">
        <ele>1065.166</ele>
        <time>2021-03-13T13:41:08Z</time>
      </trkpt>
      <trkpt lat="42.85011" lon="0.923">
        <ele>1065.095</ele>
        <time>2021-03-13T13:41:10Z</time>
      </trkpt>
      <trkpt lat="42.85011" lon="0.923">
        <ele>1064.818</ele>
        <time>2021-03-13T13:41:12Z</time>
      </trkpt>
      <trkpt lat="42.85012" lon="0.92299">
        <ele>1065.274</ele>
        <time>2021-03-13T13:41:14Z</time>
      </trkpt>
      <trkpt lat="42.85012" lon="0.92298">
        <ele>1064.695</ele>
        <time>2021-03-13T13:41:16Z</time>
      </trkpt>
      <trkpt lat="42.85012" lon="0.92298">
        <ele>1063.998</ele>
        <time>2021-03-13T13:41:18Z</time>
      </trkpt>
      <trkpt lat="42.85012" lon="0.92296">
        <ele>1063.912</ele>
        <time>2021-03-13T13:41:20Z</time>
      </trkpt>
      <trkpt lat="42.85013" lon="0.92296">
        <ele>1063.328</ele>
        <time>2021-03-13T13:41:22Z</time>
      </trkpt>
      <trkpt lat="42.85013" lon="0.92295">
        <ele>1063.32</ele>
        <time>2021-03-13T13:41:24Z</time>
      </trkpt>
      <trkpt lat="42.85013" lon="0.92295">
        <ele>1063.313</ele>
        <time>2021-03-13T13:41:26Z</time>
      </trkpt>
      <trkpt lat="42.85013" lon="0.92295">
        <ele>1063.318</ele>
        <time>2021-03-13T13:41:28Z</time>
      </trkpt>
      <trkpt lat="42.85012" lon="0.92295">
        <ele>1063.687</ele>
        <time>2021-03-13T13:41:30Z</time>
      </trkpt>
      <trkpt lat="42.85012" lon="0.92296">
        <ele>1063.703</ele>
        <time>2021-03-13T13:41:32Z</time>
      </trkpt>
      <trkpt lat="42.85012" lon="0.92296">
        <ele>1063.703</ele>
        <time>2021-03-13T13:41:34Z</time>
      </trkpt>
      <trkpt lat="42.85012" lon="0.92296">
        <ele>1063.704</ele>
        <time>2021-03-13T13:41:36Z</time>
      </trkpt>
      <trkpt lat="42.85012" lon="0.92296">
        <ele>1063.71</ele>
        <time>2021-03-13T13:41:38Z</time>
      </trkpt>
      <trkpt lat="42.85012" lon="0.92296">
        <ele>1063.706</ele>
        <time>2021-03-13T13:41:40Z</time>
      </trkpt>
      <trkpt lat="42.85012" lon="0.92296">
        <ele>1063.701</ele>
        <time>2021-03-13T13:41:42Z</time>
      </trkpt>
      <trkpt lat="42.85012" lon="0.92296">
        <ele>1063.69</ele>
        <time>2021-03-13T13:41:44Z</time>
      </trkpt>
      <trkpt lat="42.85012" lon="0.92296">
        <ele>1063.689</ele>
        <time>2021-03-13T13:41:46Z</time>
      </trkpt>
      <trkpt lat="42.85012" lon="0.92296">
        <ele>1063.693</ele>
        <time>2021-03-13T13:41:48Z</time>
      </trkpt>
      <trkpt lat="42.85012" lon="0.92297">
        <ele>1063.866</ele>
        <time>2021-03-13T13:41:50Z</time>
      </trkpt>
      <trkpt lat="42.85012" lon="0.92297">
        <ele>1063.86</ele>
        <time>2021-03-13T13:41:52Z</time>
      </trkpt>
      <trkpt lat="42.85012" lon="0.92297">
        <ele>1063.859</ele>
        <time>2021-03-13T13:41:54Z</time>
      </trkpt>
      <trkpt lat="42.85012" lon="0.92297">
        <ele>1063.853</ele>
        <time>2021-03-13T13:41:56Z</time>
      </trkpt>
      <trkpt lat="42.85012" lon="0.92297">
        <ele>1063.852</ele>
        <time>2021-03-13T13:41:58Z</time>
      </trkpt>
      <trkpt lat="42.85012" lon="0.92297">
        <ele>1063.851</ele>
        <time>2021-03-13T13:42:00Z</time>
      </trkpt>
      <trkpt lat="42.85013" lon="0.92297">
        <ele>1063.543</ele>
        <time>2021-03-13T13:42:02Z</time>
      </trkpt>
      <trkpt lat="42.85012" lon="0.92298">
        <ele>1063.875</ele>
        <time>2021-03-13T13:42:04Z</time>
      </trkpt>
      <trkpt lat="42.85012" lon="0.92299">
        <ele>1063.446</ele>
        <time>2021-03-13T13:42:06Z</time>
      </trkpt>
      <trkpt lat="42.85011" lon="0.923">
        <ele>1063.647</ele>
        <time>2021-03-13T13:42:08Z</time>
      </trkpt>
      <trkpt lat="42.8501" lon="0.92301">
        <ele>1063.458</ele>
        <time>2021-03-13T13:42:10Z</time>
      </trkpt>
      <trkpt lat="42.85009" lon="0.92302">
        <ele>1062.398</ele>
        <time>2021-03-13T13:42:12Z</time>
      </trkpt>
      <trkpt lat="42.85007" lon="0.92303">
        <ele>1063.684</ele>
        <time>2021-03-13T13:42:14Z</time>
      </trkpt>
      <trkpt lat="42.85007" lon="0.92305">
        <ele>1064.217</ele>
        <time>2021-03-13T13:42:16Z</time>
      </trkpt>
      <trkpt lat="42.85006" lon="0.92307">
        <ele>1064.002</ele>
        <time>2021-03-13T13:42:18Z</time>
      </trkpt>
      <trkpt lat="42.85006" lon="0.92309">
        <ele>1063.031</ele>
        <time>2021-03-13T13:42:20Z</time>
      </trkpt>
      <trkpt lat="42.85006" lon="0.92311">
        <ele>1063.819</ele>
        <time>2021-03-13T13:42:22Z</time>
      </trkpt>
      <trkpt lat="42.85006" lon="0.92313">
        <ele>1064.334</ele>
        <time>2021-03-13T13:42:24Z</time>
      </trkpt>
      <trkpt lat="42.85006" lon="0.92315">
        <ele>1065.699</ele>
        <time>2021-03-13T13:42:26Z</time>
      </trkpt>
      <trkpt lat="42.85005" lon="0.9232">
        <ele>1066.485</ele>
        <time>2021-03-13T13:42:28Z</time>
      </trkpt>
      <trkpt lat="42.85004" lon="0.92324">
        <ele>1066.281</ele>
        <time>2021-03-13T13:42:30Z</time>
      </trkpt>
      <trkpt lat="42.85006" lon="0.92319">
        <ele>1065.292</ele>
        <time>2021-03-13T13:42:32Z</time>
      </trkpt>
      <trkpt lat="42.85007" lon="0.92317">
        <ele>1065.272</ele>
        <time>2021-03-13T13:42:34Z</time>
      </trkpt>
      <trkpt lat="42.85007" lon="0.92317">
        <ele>1065.264</ele>
        <time>2021-03-13T13:42:36Z</time>
      </trkpt>
      <trkpt lat="42.85007" lon="0.92317">
        <ele>1065.263</ele>
        <time>2021-03-13T13:42:38Z</time>
      </trkpt>
      <trkpt lat="42.85007" lon="0.92317">
        <ele>1065.26</ele>
        <time>2021-03-13T13:42:40Z</time>
      </trkpt>
      <trkpt lat="42.85006" lon="0.92317">
        <ele>1064.668</ele>
        <time>2021-03-13T13:42:42Z</time>
      </trkpt>
      <trkpt lat="42.85007" lon="0.92317">
        <ele>1065.108</ele>
        <time>2021-03-13T13:42:44Z</time>
      </trkpt>
      <trkpt lat="42.85007" lon="0.92317">
        <ele>1064.656</ele>
        <time>2021-03-13T13:42:46Z</time>
      </trkpt>
      <trkpt lat="42.85006" lon="0.92317">
        <ele>1064.539</ele>
        <time>2021-03-13T13:42:48Z</time>
      </trkpt>
      <trkpt lat="42.85005" lon="0.92319">
        <ele>1063.62</ele>
        <time>2021-03-13T13:42:50Z</time>
      </trkpt>
      <trkpt lat="42.85004" lon="0.92321">
        <ele>1062.998</ele>
        <time>2021-03-13T13:42:52Z</time>
      </trkpt>
      <trkpt lat="42.85003" lon="0.92323">
        <ele>1062.299</ele>
        <time>2021-03-13T13:42:54Z</time>
      </trkpt>
      <trkpt lat="42.85002" lon="0.92325">
        <ele>1061.631</ele>
        <time>2021-03-13T13:42:56Z</time>
      </trkpt>
      <trkpt lat="42.85001" lon="0.92327">
        <ele>1061.002</ele>
        <time>2021-03-13T13:42:58Z</time>
      </trkpt>
      <trkpt lat="42.85001" lon="0.92328">
        <ele>1061.469</ele>
        <time>2021-03-13T13:43:00Z</time>
      </trkpt>
      <trkpt lat="42.85002" lon="0.92328">
        <ele>1061.425</ele>
        <time>2021-03-13T13:43:02Z</time>
      </trkpt>
      <trkpt lat="42.85003" lon="0.92327">
        <ele>1061.141</ele>
        <time>2021-03-13T13:43:04Z</time>
      </trkpt>
      <trkpt lat="42.85004" lon="0.92326">
        <ele>1060.779</ele>
        <time>2021-03-13T13:43:06Z</time>
      </trkpt>
      <trkpt lat="42.85003" lon="0.92325">
        <ele>1061.085</ele>
        <time>2021-03-13T13:43:08Z</time>
      </trkpt>
      <trkpt lat="42.85003" lon="0.92323">
        <ele>1060.286</ele>
        <time>2021-03-13T13:43:10Z</time>
      </trkpt>
      <trkpt lat="42.85002" lon="0.92322">
        <ele>1060.098</ele>
        <time>2021-03-13T13:43:12Z</time>
      </trkpt>
      <trkpt lat="42.85002" lon="0.92322">
        <ele>1060.058</ele>
        <time>2021-03-13T13:43:14Z</time>
      </trkpt>
      <trkpt lat="42.85002" lon="0.92322">
        <ele>1060.051</ele>
        <time>2021-03-13T13:43:16Z</time>
      </trkpt>
      <trkpt lat="42.85002" lon="0.92322">
        <ele>1060.055</ele>
        <time>2021-03-13T13:43:18Z</time>
      </trkpt>
      <trkpt lat="42.85001" lon="0.92321">
        <ele>1059.387</ele>
        <time>2021-03-13T13:43:20Z</time>
      </trkpt>
      <trkpt lat="42.85001" lon="0.9232">
        <ele>1059.255</ele>
        <time>2021-03-13T13:43:22Z</time>
      </trkpt>
      <trkpt lat="42.85001" lon="0.92318">
        <ele>1058.99</ele>
        <time>2021-03-13T13:43:24Z</time>
      </trkpt>
      <trkpt lat="42.85001" lon="0.92317">
        <ele>1058.934</ele>
        <time>2021-03-13T13:43:26Z</time>
      </trkpt>
      <trkpt lat="42.85001" lon="0.92316">
        <ele>1058.892</ele>
        <time>2021-03-13T13:43:28Z</time>
      </trkpt>
      <trkpt lat="42.85" lon="0.92315">
        <ele>1059.053</ele>
        <time>2021-03-13T13:43:30Z</time>
      </trkpt>
      <trkpt lat="42.85" lon="0.92315">
        <ele>1059.055</ele>
        <time>2021-03-13T13:43:32Z</time>
      </trkpt>
      <trkpt lat="42.85" lon="0.92315">
        <ele>1059.052</ele>
        <time>2021-03-13T13:43:34Z</time>
      </trkpt>
      <trkpt lat="42.85" lon="0.92315">
        <ele>1059.047</ele>
        <time>2021-03-13T13:43:36Z</time>
      </trkpt>
      <trkpt lat="42.85" lon="0.92315">
        <ele>1059.044</ele>
        <time>2021-03-13T13:43:38Z</time>
      </trkpt>
      <trkpt lat="42.85" lon="0.92315">
        <ele>1059.048</ele>
        <time>2021-03-13T13:43:40Z</time>
      </trkpt>
      <trkpt lat="42.85" lon="0.92315">
        <ele>1059.046</ele>
        <time>2021-03-13T13:43:42Z</time>
      </trkpt>
      <trkpt lat="42.85" lon="0.92315">
        <ele>1058.902</ele>
        <time>2021-03-13T13:43:44Z</time>
      </trkpt>
      <trkpt lat="42.85" lon="0.92315">
        <ele>1058.912</ele>
        <time>2021-03-13T13:43:46Z</time>
      </trkpt>
      <trkpt lat="42.84999" lon="0.92313">
        <ele>1059.389</ele>
        <time>2021-03-13T13:43:48Z</time>
      </trkpt>
      <trkpt lat="42.84997" lon="0.92313">
        <ele>1058.229</ele>
        <time>2021-03-13T13:43:50Z</time>
      </trkpt>
      <trkpt lat="42.84995" lon="0.92315">
        <ele>1057.245</ele>
        <time>2021-03-13T13:43:52Z</time>
      </trkpt>
      <trkpt lat="42.84993" lon="0.92315">
        <ele>1057.985</ele>
        <time>2021-03-13T13:43:54Z</time>
      </trkpt>
      <trkpt lat="42.84995" lon="0.92315">
        <ele>1057.966</ele>
        <time>2021-03-13T13:43:56Z</time>
      </trkpt>
      <trkpt lat="42.84995" lon="0.92315">
        <ele>1057.966</ele>
        <time>2021-03-13T13:43:58Z</time>
      </trkpt>
      <trkpt lat="42.84994" lon="0.92317">
        <ele>1058.523</ele>
        <time>2021-03-13T13:44:00Z</time>
      </trkpt>
      <trkpt lat="42.84992" lon="0.92319">
        <ele>1058.431</ele>
        <time>2021-03-13T13:44:02Z</time>
      </trkpt>
      <trkpt lat="42.84991" lon="0.92319">
        <ele>1058.261</ele>
        <time>2021-03-13T13:44:04Z</time>
      </trkpt>
      <trkpt lat="42.84993" lon="0.92319">
        <ele>1056.958</ele>
        <time>2021-03-13T13:44:06Z</time>
      </trkpt>
      <trkpt lat="42.84993" lon="0.92319">
        <ele>1056.955</ele>
        <time>2021-03-13T13:44:08Z</time>
      </trkpt>
      <trkpt lat="42.84993" lon="0.92319">
        <ele>1056.96</ele>
        <time>2021-03-13T13:44:10Z</time>
      </trkpt>
      <trkpt lat="42.84993" lon="0.92319">
        <ele>1056.97</ele>
        <time>2021-03-13T13:44:12Z</time>
      </trkpt>
      <trkpt lat="42.84993" lon="0.92319">
        <ele>1056.986</ele>
        <time>2021-03-13T13:44:14Z</time>
      </trkpt>
      <trkpt lat="42.84993" lon="0.92319">
        <ele>1057.002</ele>
        <time>2021-03-13T13:44:16Z</time>
      </trkpt>
      <trkpt lat="42.84993" lon="0.92319">
        <ele>1057.016</ele>
        <time>2021-03-13T13:44:18Z</time>
      </trkpt>
      <trkpt lat="42.84993" lon="0.92319">
        <ele>1057.031</ele>
        <time>2021-03-13T13:44:20Z</time>
      </trkpt>
      <trkpt lat="42.84993" lon="0.92319">
        <ele>1056.89</ele>
        <time>2021-03-13T13:44:22Z</time>
      </trkpt>
      <trkpt lat="42.84993" lon="0.92319">
        <ele>1056.456</ele>
        <time>2021-03-13T13:44:24Z</time>
      </trkpt>
      <trkpt lat="42.84993" lon="0.92319">
        <ele>1056.438</ele>
        <time>2021-03-13T13:44:26Z</time>
      </trkpt>
      <trkpt lat="42.84993" lon="0.92319">
        <ele>1056.42</ele>
        <time>2021-03-13T13:44:28Z</time>
      </trkpt>
      <trkpt lat="42.84993" lon="0.92319">
        <ele>1056.389</ele>
        <time>2021-03-13T13:44:30Z</time>
      </trkpt>
      <trkpt lat="42.84993" lon="0.92319">
        <ele>1056.374</ele>
        <time>2021-03-13T13:44:32Z</time>
      </trkpt>
      <trkpt lat="42.84993" lon="0.92319">
        <ele>1056.389</ele>
        <time>2021-03-13T13:44:34Z</time>
      </trkpt>
      <trkpt lat="42.84993" lon="0.92319">
        <ele>1056.426</ele>
        <time>2021-03-13T13:44:36Z</time>
      </trkpt>
      <trkpt lat="42.84993" lon="0.92319">
        <ele>1056.447</ele>
        <time>2021-03-13T13:44:38Z</time>
      </trkpt>
      <trkpt lat="42.84993" lon="0.92319">
        <ele>1056.449</ele>
        <time>2021-03-13T13:44:40Z</time>
      </trkpt>
      <trkpt lat="42.84993" lon="0.92319">
        <ele>1056.446</ele>
        <time>2021-03-13T13:44:42Z</time>
      </trkpt>
      <trkpt lat="42.84993" lon="0.92319">
        <ele>1056.453</ele>
        <time>2021-03-13T13:44:44Z</time>
      </trkpt>
      <trkpt lat="42.84993" lon="0.92319">
        <ele>1056.464</ele>
        <time>2021-03-13T13:44:46Z</time>
      </trkpt>
      <trkpt lat="42.84993" lon="0.92319">
        <ele>1056.462</ele>
        <time>2021-03-13T13:44:48Z</time>
      </trkpt>
      <trkpt lat="42.84993" lon="0.92319">
        <ele>1056.113</ele>
        <time>2021-03-13T13:44:50Z</time>
      </trkpt>
      <trkpt lat="42.84992" lon="0.92319">
        <ele>1055.62</ele>
        <time>2021-03-13T13:44:52Z</time>
      </trkpt>
      <trkpt lat="42.84992" lon="0.92319">
        <ele>1055.629</ele>
        <time>2021-03-13T13:44:54Z</time>
      </trkpt>
      <trkpt lat="42.84992" lon="0.92319">
        <ele>1055.635</ele>
        <time>2021-03-13T13:44:56Z</time>
      </trkpt>
      <trkpt lat="42.84992" lon="0.92318">
        <ele>1056.048</ele>
        <time>2021-03-13T13:44:58Z</time>
      </trkpt>
      <trkpt lat="42.84991" lon="0.92318">
        <ele>1056.249</ele>
        <time>2021-03-13T13:45:00Z</time>
      </trkpt>
      <trkpt lat="42.84989" lon="0.92317">
        <ele>1056.442</ele>
        <time>2021-03-13T13:45:02Z</time>
      </trkpt>
      <trkpt lat="42.84988" lon="0.92317">
        <ele>1055.325</ele>
        <time>2021-03-13T13:45:04Z</time>
      </trkpt>
      <trkpt lat="42.84987" lon="0.92317">
        <ele>1055.325</ele>
        <time>2021-03-13T13:45:06Z</time>
      </trkpt>
      <trkpt lat="42.84986" lon="0.92317">
        <ele>1055.599</ele>
        <time>2021-03-13T13:45:08Z</time>
      </trkpt>
      <trkpt lat="42.84985" lon="0.92317">
        <ele>1055.309</ele>
        <time>2021-03-13T13:45:10Z</time>
      </trkpt>
      <trkpt lat="42.84984" lon="0.92316">
        <ele>1054.674</ele>
        <time>2021-03-13T13:45:12Z</time>
      </trkpt>
      <trkpt lat="42.84983" lon="0.92314">
        <ele>1055.808</ele>
        <time>2021-03-13T13:45:14Z</time>
      </trkpt>
      <trkpt lat="42.84983" lon="0.92311">
        <ele>1054.187</ele>
        <time>2021-03-13T13:45:16Z</time>
      </trkpt>
      <trkpt lat="42.84982" lon="0.92309">
        <ele>1052.572</ele>
        <time>2021-03-13T13:45:18Z</time>
      </trkpt>
      <trkpt lat="42.8498" lon="0.92307">
        <ele>1052.941</ele>
        <time>2021-03-13T13:45:20Z</time>
      </trkpt>
      <trkpt lat="42.84979" lon="0.92305">
        <ele>1051.849</ele>
        <time>2021-03-13T13:45:22Z</time>
      </trkpt>
      <trkpt lat="42.84978" lon="0.92303">
        <ele>1051.199</ele>
        <time>2021-03-13T13:45:24Z</time>
      </trkpt>
      <trkpt lat="42.84976" lon="0.92301">
        <ele>1051.425</ele>
        <time>2021-03-13T13:45:26Z</time>
      </trkpt>
      <trkpt lat="42.84976" lon="0.923">
        <ele>1050.66</ele>
        <time>2021-03-13T13:45:28Z</time>
      </trkpt>
      <trkpt lat="42.84974" lon="0.92299">
        <ele>1050.593</ele>
        <time>2021-03-13T13:45:30Z</time>
      </trkpt>
      <trkpt lat="42.84973" lon="0.92297">
        <ele>1049.215</ele>
        <time>2021-03-13T13:45:32Z</time>
      </trkpt>
      <trkpt lat="42.84971" lon="0.92299">
        <ele>1049.562</ele>
        <time>2021-03-13T13:45:34Z</time>
      </trkpt>
      <trkpt lat="42.84971" lon="0.92302">
        <ele>1049.008</ele>
        <time>2021-03-13T13:45:36Z</time>
      </trkpt>
      <trkpt lat="42.84971" lon="0.92304">
        <ele>1049.738</ele>
        <time>2021-03-13T13:45:38Z</time>
      </trkpt>
      <trkpt lat="42.8497" lon="0.92306">
        <ele>1047.879</ele>
        <time>2021-03-13T13:45:40Z</time>
      </trkpt>
      <trkpt lat="42.84968" lon="0.92307">
        <ele>1046.673</ele>
        <time>2021-03-13T13:45:42Z</time>
      </trkpt>
      <trkpt lat="42.84966" lon="0.92307">
        <ele>1045.938</ele>
        <time>2021-03-13T13:45:44Z</time>
      </trkpt>
      <trkpt lat="42.84964" lon="0.92305">
        <ele>1045.112</ele>
        <time>2021-03-13T13:45:46Z</time>
      </trkpt>
      <trkpt lat="42.84963" lon="0.92304">
        <ele>1044.632</ele>
        <time>2021-03-13T13:45:48Z</time>
      </trkpt>
      <trkpt lat="42.84961" lon="0.92302">
        <ele>1043.272</ele>
        <time>2021-03-13T13:45:50Z</time>
      </trkpt>
      <trkpt lat="42.84959" lon="0.923">
        <ele>1042.814</ele>
        <time>2021-03-13T13:45:52Z</time>
      </trkpt>
      <trkpt lat="42.84957" lon="0.92298">
        <ele>1042.232</ele>
        <time>2021-03-13T13:45:54Z</time>
      </trkpt>
      <trkpt lat="42.84955" lon="0.92296">
        <ele>1041.587</ele>
        <time>2021-03-13T13:45:56Z</time>
      </trkpt>
      <trkpt lat="42.84953" lon="0.92294">
        <ele>1041.656</ele>
        <time>2021-03-13T13:45:58Z</time>
      </trkpt>
      <trkpt lat="42.84952" lon="0.92291">
        <ele>1041.469</ele>
        <time>2021-03-13T13:46:00Z</time>
      </trkpt>
      <trkpt lat="42.8495" lon="0.92291">
        <ele>1041.847</ele>
        <time>2021-03-13T13:46:02Z</time>
      </trkpt>
      <trkpt lat="42.84949" lon="0.92293">
        <ele>1041.532</ele>
        <time>2021-03-13T13:46:04Z</time>
      </trkpt>
      <trkpt lat="42.8495" lon="0.92296">
        <ele>1042.039</ele>
        <time>2021-03-13T13:46:06Z</time>
      </trkpt>
      <trkpt lat="42.84951" lon="0.92298">
        <ele>1041.83</ele>
        <time>2021-03-13T13:46:08Z</time>
      </trkpt>
      <trkpt lat="42.84953" lon="0.92301">
        <ele>1041.322</ele>
        <time>2021-03-13T13:46:10Z</time>
      </trkpt>
      <trkpt lat="42.84954" lon="0.92303">
        <ele>1040.8</ele>
        <time>2021-03-13T13:46:12Z</time>
      </trkpt>
      <trkpt lat="42.84954" lon="0.92305">
        <ele>1041.027</ele>
        <time>2021-03-13T13:46:14Z</time>
      </trkpt>
      <trkpt lat="42.84953" lon="0.92307">
        <ele>1040.701</ele>
        <time>2021-03-13T13:46:16Z</time>
      </trkpt>
      <trkpt lat="42.84952" lon="0.92306">
        <ele>1040.999</ele>
        <time>2021-03-13T13:46:18Z</time>
      </trkpt>
      <trkpt lat="42.8495" lon="0.92304">
        <ele>1039.352</ele>
        <time>2021-03-13T13:46:20Z</time>
      </trkpt>
      <trkpt lat="42.84949" lon="0.92303">
        <ele>1038.037</ele>
        <time>2021-03-13T13:46:22Z</time>
      </trkpt>
      <trkpt lat="42.84947" lon="0.92301">
        <ele>1036.387</ele>
        <time>2021-03-13T13:46:24Z</time>
      </trkpt>
      <trkpt lat="42.84946" lon="0.923">
        <ele>1035.341</ele>
        <time>2021-03-13T13:46:26Z</time>
      </trkpt>
      <trkpt lat="42.84944" lon="0.92299">
        <ele>1034.55</ele>
        <time>2021-03-13T13:46:28Z</time>
      </trkpt>
      <trkpt lat="42.84942" lon="0.92298">
        <ele>1032.631</ele>
        <time>2021-03-13T13:46:30Z</time>
      </trkpt>
      <trkpt lat="42.84941" lon="0.92297">
        <ele>1032.126</ele>
        <time>2021-03-13T13:46:32Z</time>
      </trkpt>
      <trkpt lat="42.84939" lon="0.92296">
        <ele>1032.326</ele>
        <time>2021-03-13T13:46:34Z</time>
      </trkpt>
      <trkpt lat="42.84937" lon="0.92294">
        <ele>1031.62</ele>
        <time>2021-03-13T13:46:36Z</time>
      </trkpt>
      <trkpt lat="42.84935" lon="0.92291">
        <ele>1034.493</ele>
        <time>2021-03-13T13:46:38Z</time>
      </trkpt>
      <trkpt lat="42.84933" lon="0.92289">
        <ele>1035.51</ele>
        <time>2021-03-13T13:46:40Z</time>
      </trkpt>
      <trkpt lat="42.84931" lon="0.92287">
        <ele>1036.82</ele>
        <time>2021-03-13T13:46:42Z</time>
      </trkpt>
      <trkpt lat="42.84929" lon="0.92285">
        <ele>1039.23</ele>
        <time>2021-03-13T13:46:44Z</time>
      </trkpt>
      <trkpt lat="42.84927" lon="0.92284">
        <ele>1041.074</ele>
        <time>2021-03-13T13:46:46Z</time>
      </trkpt>
      <trkpt lat="42.84925" lon="0.92282">
        <ele>1042.076</ele>
        <time>2021-03-13T13:46:48Z</time>
      </trkpt>
      <trkpt lat="42.84924" lon="0.9228">
        <ele>1041.636</ele>
        <time>2021-03-13T13:46:50Z</time>
      </trkpt>
      <trkpt lat="42.84922" lon="0.92278">
        <ele>1041.244</ele>
        <time>2021-03-13T13:46:52Z</time>
      </trkpt>
      <trkpt lat="42.8492" lon="0.92276">
        <ele>1038.878</ele>
        <time>2021-03-13T13:46:54Z</time>
      </trkpt>
      <trkpt lat="42.84918" lon="0.92274">
        <ele>1038.716</ele>
        <time>2021-03-13T13:46:56Z</time>
      </trkpt>
      <trkpt lat="42.84916" lon="0.92272">
        <ele>1038.861</ele>
        <time>2021-03-13T13:46:58Z</time>
      </trkpt>
      <trkpt lat="42.84914" lon="0.92271">
        <ele>1039.364</ele>
        <time>2021-03-13T13:47:00Z</time>
      </trkpt>
      <trkpt lat="42.84912" lon="0.9227">
        <ele>1038.788</ele>
        <time>2021-03-13T13:47:02Z</time>
      </trkpt>
      <trkpt lat="42.8491" lon="0.92269">
        <ele>1037.216</ele>
        <time>2021-03-13T13:47:04Z</time>
      </trkpt>
      <trkpt lat="42.84908" lon="0.92267">
        <ele>1035.569</ele>
        <time>2021-03-13T13:47:06Z</time>
      </trkpt>
      <trkpt lat="42.84906" lon="0.92266">
        <ele>1035.176</ele>
        <time>2021-03-13T13:47:08Z</time>
      </trkpt>
      <trkpt lat="42.84905" lon="0.92267">
        <ele>1034.634</ele>
        <time>2021-03-13T13:47:10Z</time>
      </trkpt>
      <trkpt lat="42.84905" lon="0.92269">
        <ele>1033.158</ele>
        <time>2021-03-13T13:47:12Z</time>
      </trkpt>
      <trkpt lat="42.84906" lon="0.92271">
        <ele>1034.222</ele>
        <time>2021-03-13T13:47:14Z</time>
      </trkpt>
      <trkpt lat="42.84906" lon="0.92274">
        <ele>1034.875</ele>
        <time>2021-03-13T13:47:16Z</time>
      </trkpt>
      <trkpt lat="42.84907" lon="0.92277">
        <ele>1035.286</ele>
        <time>2021-03-13T13:47:18Z</time>
      </trkpt>
      <trkpt lat="42.84907" lon="0.92279">
        <ele>1033.199</ele>
        <time>2021-03-13T13:47:20Z</time>
      </trkpt>
      <trkpt lat="42.84908" lon="0.92282">
        <ele>1031.342</ele>
        <time>2021-03-13T13:47:22Z</time>
      </trkpt>
      <trkpt lat="42.84909" lon="0.92285">
        <ele>1030.984</ele>
        <time>2021-03-13T13:47:24Z</time>
      </trkpt>
      <trkpt lat="42.8491" lon="0.92287">
        <ele>1029.618</ele>
        <time>2021-03-13T13:47:26Z</time>
      </trkpt>
      <trkpt lat="42.8491" lon="0.9229">
        <ele>1029.471</ele>
        <time>2021-03-13T13:47:28Z</time>
      </trkpt>
      <trkpt lat="42.8491" lon="0.92293">
        <ele>1029.197</ele>
        <time>2021-03-13T13:47:30Z</time>
      </trkpt>
      <trkpt lat="42.8491" lon="0.92294">
        <ele>1029.553</ele>
        <time>2021-03-13T13:47:32Z</time>
      </trkpt>
      <trkpt lat="42.8491" lon="0.92294">
        <ele>1029.989</ele>
        <time>2021-03-13T13:47:34Z</time>
      </trkpt>
      <trkpt lat="42.8491" lon="0.92296">
        <ele>1030.597</ele>
        <time>2021-03-13T13:47:36Z</time>
      </trkpt>
      <trkpt lat="42.8491" lon="0.92299">
        <ele>1030.481</ele>
        <time>2021-03-13T13:47:38Z</time>
      </trkpt>
      <trkpt lat="42.8491" lon="0.92301">
        <ele>1030.632</ele>
        <time>2021-03-13T13:47:40Z</time>
      </trkpt>
      <trkpt lat="42.84911" lon="0.92304">
        <ele>1030.479</ele>
        <time>2021-03-13T13:47:42Z</time>
      </trkpt>
      <trkpt lat="42.84911" lon="0.92305">
        <ele>1030.92</ele>
        <time>2021-03-13T13:47:44Z</time>
      </trkpt>
      <trkpt lat="42.84911" lon="0.92307">
        <ele>1029.619</ele>
        <time>2021-03-13T13:47:46Z</time>
      </trkpt>
      <trkpt lat="42.84911" lon="0.92309">
        <ele>1028.36</ele>
        <time>2021-03-13T13:47:48Z</time>
      </trkpt>
      <trkpt lat="42.84911" lon="0.92311">
        <ele>1026.858</ele>
        <time>2021-03-13T13:47:50Z</time>
      </trkpt>
      <trkpt lat="42.84912" lon="0.92314">
        <ele>1026.724</ele>
        <time>2021-03-13T13:47:52Z</time>
      </trkpt>
      <trkpt lat="42.84913" lon="0.92316">
        <ele>1025.463</ele>
        <time>2021-03-13T13:47:54Z</time>
      </trkpt>
      <trkpt lat="42.84914" lon="0.92318">
        <ele>1025.035</ele>
        <time>2021-03-13T13:47:56Z</time>
      </trkpt>
      <trkpt lat="42.84914" lon="0.9232">
        <ele>1025.083</ele>
        <time>2021-03-13T13:47:58Z</time>
      </trkpt>
      <trkpt lat="42.84915" lon="0.92323">
        <ele>1024.915</ele>
        <time>2021-03-13T13:48:00Z</time>
      </trkpt>
      <trkpt lat="42.84916" lon="0.92326">
        <ele>1025.006</ele>
        <time>2021-03-13T13:48:02Z</time>
      </trkpt>
      <trkpt lat="42.84917" lon="0.92328">
        <ele>1022.87</ele>
        <time>2021-03-13T13:48:04Z</time>
      </trkpt>
      <trkpt lat="42.84917" lon="0.9233">
        <ele>1021.541</ele>
        <time>2021-03-13T13:48:06Z</time>
      </trkpt>
      <trkpt lat="42.84918" lon="0.92333">
        <ele>1020.623</ele>
        <time>2021-03-13T13:48:08Z</time>
      </trkpt>
      <trkpt lat="42.84919" lon="0.92337">
        <ele>1019.696</ele>
        <time>2021-03-13T13:48:10Z</time>
      </trkpt>
      <trkpt lat="42.8492" lon="0.92339">
        <ele>1017.498</ele>
        <time>2021-03-13T13:48:12Z</time>
      </trkpt>
      <trkpt lat="42.84921" lon="0.92342">
        <ele>1017.135</ele>
        <time>2021-03-13T13:48:14Z</time>
      </trkpt>
      <trkpt lat="42.84922" lon="0.92344">
        <ele>1015.699</ele>
        <time>2021-03-13T13:48:16Z</time>
      </trkpt>
      <trkpt lat="42.84923" lon="0.92348">
        <ele>1016.201</ele>
        <time>2021-03-13T13:48:18Z</time>
      </trkpt>
      <trkpt lat="42.84923" lon="0.92351">
        <ele>1015.642</ele>
        <time>2021-03-13T13:48:20Z</time>
      </trkpt>
      <trkpt lat="42.84924" lon="0.92355">
        <ele>1015.362</ele>
        <time>2021-03-13T13:48:22Z</time>
      </trkpt>
      <trkpt lat="42.84924" lon="0.92358">
        <ele>1015.834</ele>
        <time>2021-03-13T13:48:24Z</time>
      </trkpt>
      <trkpt lat="42.84924" lon="0.92361">
        <ele>1015.754</ele>
        <time>2021-03-13T13:48:26Z</time>
      </trkpt>
      <trkpt lat="42.84925" lon="0.92364">
        <ele>1013.879</ele>
        <time>2021-03-13T13:48:28Z</time>
      </trkpt>
      <trkpt lat="42.84927" lon="0.92366">
        <ele>1013.893</ele>
        <time>2021-03-13T13:48:30Z</time>
      </trkpt>
      <trkpt lat="42.84927" lon="0.92369">
        <ele>1013.59</ele>
        <time>2021-03-13T13:48:32Z</time>
      </trkpt>
      <trkpt lat="42.84927" lon="0.92372">
        <ele>1012.707</ele>
        <time>2021-03-13T13:48:34Z</time>
      </trkpt>
      <trkpt lat="42.84927" lon="0.92374">
        <ele>1010.511</ele>
        <time>2021-03-13T13:48:36Z</time>
      </trkpt>
      <trkpt lat="42.84928" lon="0.92376">
        <ele>1008.676</ele>
        <time>2021-03-13T13:48:38Z</time>
      </trkpt>
      <trkpt lat="42.84929" lon="0.92379">
        <ele>1007.432</ele>
        <time>2021-03-13T13:48:40Z</time>
      </trkpt>
      <trkpt lat="42.8493" lon="0.92381">
        <ele>1006.551</ele>
        <time>2021-03-13T13:48:42Z</time>
      </trkpt>
      <trkpt lat="42.84931" lon="0.92384">
        <ele>1006.481</ele>
        <time>2021-03-13T13:48:44Z</time>
      </trkpt>
      <trkpt lat="42.84931" lon="0.92387">
        <ele>1006.108</ele>
        <time>2021-03-13T13:48:46Z</time>
      </trkpt>
      <trkpt lat="42.84932" lon="0.9239">
        <ele>1006.017</ele>
        <time>2021-03-13T13:48:48Z</time>
      </trkpt>
      <trkpt lat="42.84933" lon="0.92393">
        <ele>1006.447</ele>
        <time>2021-03-13T13:48:50Z</time>
      </trkpt>
      <trkpt lat="42.84933" lon="0.92396">
        <ele>1005.207</ele>
        <time>2021-03-13T13:48:52Z</time>
      </trkpt>
      <trkpt lat="42.84934" lon="0.92399">
        <ele>1004.796</ele>
        <time>2021-03-13T13:48:54Z</time>
      </trkpt>
      <trkpt lat="42.84934" lon="0.92401">
        <ele>1005.168</ele>
        <time>2021-03-13T13:48:56Z</time>
      </trkpt>
      <trkpt lat="42.84935" lon="0.92404">
        <ele>1004.838</ele>
        <time>2021-03-13T13:48:58Z</time>
      </trkpt>
      <trkpt lat="42.84936" lon="0.92407">
        <ele>1004.589</ele>
        <time>2021-03-13T13:49:00Z</time>
      </trkpt>
      <trkpt lat="42.84937" lon="0.9241">
        <ele>1003.409</ele>
        <time>2021-03-13T13:49:02Z</time>
      </trkpt>
      <trkpt lat="42.84938" lon="0.92413">
        <ele>1003.438</ele>
        <time>2021-03-13T13:49:04Z</time>
      </trkpt>
      <trkpt lat="42.84938" lon="0.92418">
        <ele>1002.866</ele>
        <time>2021-03-13T13:49:06Z</time>
      </trkpt>
      <trkpt lat="42.84938" lon="0.92421">
        <ele>1002.349</ele>
        <time>2021-03-13T13:49:08Z</time>
      </trkpt>
      <trkpt lat="42.84939" lon="0.92424">
        <ele>1000.237</ele>
        <time>2021-03-13T13:49:10Z</time>
      </trkpt>
      <trkpt lat="42.8494" lon="0.92427">
        <ele>999.489</ele>
        <time>2021-03-13T13:49:12Z</time>
      </trkpt>
      <trkpt lat="42.84941" lon="0.9243">
        <ele>998.719</ele>
        <time>2021-03-13T13:49:14Z</time>
      </trkpt>
      <trkpt lat="42.84941" lon="0.92433">
        <ele>999.288</ele>
        <time>2021-03-13T13:49:16Z</time>
      </trkpt>
      <trkpt lat="42.84942" lon="0.92436">
        <ele>999.901</ele>
        <time>2021-03-13T13:49:18Z</time>
      </trkpt>
      <trkpt lat="42.84942" lon="0.92439">
        <ele>999.692</ele>
        <time>2021-03-13T13:49:20Z</time>
      </trkpt>
      <trkpt lat="42.84943" lon="0.92441">
        <ele>999.001</ele>
        <time>2021-03-13T13:49:22Z</time>
      </trkpt>
      <trkpt lat="42.84943" lon="0.92444">
        <ele>997.973</ele>
        <time>2021-03-13T13:49:24Z</time>
      </trkpt>
      <trkpt lat="42.84944" lon="0.92446">
        <ele>996.798</ele>
        <time>2021-03-13T13:49:26Z</time>
      </trkpt>
      <trkpt lat="42.84945" lon="0.92449">
        <ele>996.19</ele>
        <time>2021-03-13T13:49:28Z</time>
      </trkpt>
      <trkpt lat="42.84945" lon="0.92453">
        <ele>996.633</ele>
        <time>2021-03-13T13:49:30Z</time>
      </trkpt>
      <trkpt lat="42.84946" lon="0.92455">
        <ele>996.358</ele>
        <time>2021-03-13T13:49:32Z</time>
      </trkpt>
      <trkpt lat="42.84946" lon="0.92458">
        <ele>995.686</ele>
        <time>2021-03-13T13:49:34Z</time>
      </trkpt>
      <trkpt lat="42.84947" lon="0.92462">
        <ele>995.634</ele>
        <time>2021-03-13T13:49:36Z</time>
      </trkpt>
      <trkpt lat="42.84947" lon="0.92464">
        <ele>994.598</ele>
        <time>2021-03-13T13:49:38Z</time>
      </trkpt>
      <trkpt lat="42.84948" lon="0.92467">
        <ele>993.499</ele>
        <time>2021-03-13T13:49:40Z</time>
      </trkpt>
      <trkpt lat="42.84948" lon="0.92469">
        <ele>991.923</ele>
        <time>2021-03-13T13:49:42Z</time>
      </trkpt>
      <trkpt lat="42.84949" lon="0.92472">
        <ele>991.072</ele>
        <time>2021-03-13T13:49:44Z</time>
      </trkpt>
      <trkpt lat="42.84949" lon="0.92475">
        <ele>991.453</ele>
        <time>2021-03-13T13:49:46Z</time>
      </trkpt>
      <trkpt lat="42.8495" lon="0.92478">
        <ele>990.7</ele>
        <time>2021-03-13T13:49:48Z</time>
      </trkpt>
      <trkpt lat="42.8495" lon="0.92481">
        <ele>991.005</ele>
        <time>2021-03-13T13:49:50Z</time>
      </trkpt>
      <trkpt lat="42.84951" lon="0.92484">
        <ele>991.147</ele>
        <time>2021-03-13T13:49:52Z</time>
      </trkpt>
      <trkpt lat="42.84951" lon="0.92488">
        <ele>990.755</ele>
        <time>2021-03-13T13:49:54Z</time>
      </trkpt>
      <trkpt lat="42.84952" lon="0.92491">
        <ele>990.485</ele>
        <time>2021-03-13T13:49:56Z</time>
      </trkpt>
      <trkpt lat="42.84952" lon="0.92494">
        <ele>989.973</ele>
        <time>2021-03-13T13:49:58Z</time>
      </trkpt>
      <trkpt lat="42.84953" lon="0.92496">
        <ele>989.17</ele>
        <time>2021-03-13T13:50:00Z</time>
      </trkpt>
      <trkpt lat="42.84953" lon="0.92498">
        <ele>988.636</ele>
        <time>2021-03-13T13:50:02Z</time>
      </trkpt>
      <trkpt lat="42.84953" lon="0.92501">
        <ele>988.109</ele>
        <time>2021-03-13T13:50:04Z</time>
      </trkpt>
      <trkpt lat="42.84953" lon="0.92504">
        <ele>987.767</ele>
        <time>2021-03-13T13:50:06Z</time>
      </trkpt>
      <trkpt lat="42.84954" lon="0.92507">
        <ele>988.383</ele>
        <time>2021-03-13T13:50:08Z</time>
      </trkpt>
      <trkpt lat="42.84954" lon="0.92509">
        <ele>987.032</ele>
        <time>2021-03-13T13:50:10Z</time>
      </trkpt>
      <trkpt lat="42.84954" lon="0.92513">
        <ele>986.239</ele>
        <time>2021-03-13T13:50:12Z</time>
      </trkpt>
      <trkpt lat="42.84955" lon="0.92515">
        <ele>986.059</ele>
        <time>2021-03-13T13:50:14Z</time>
      </trkpt>
      <trkpt lat="42.84956" lon="0.92519">
        <ele>985.757</ele>
        <time>2021-03-13T13:50:16Z</time>
      </trkpt>
      <trkpt lat="42.84956" lon="0.92522">
        <ele>984.778</ele>
        <time>2021-03-13T13:50:18Z</time>
      </trkpt>
      <trkpt lat="42.84956" lon="0.92524">
        <ele>983.654</ele>
        <time>2021-03-13T13:50:20Z</time>
      </trkpt>
      <trkpt lat="42.84956" lon="0.92527">
        <ele>981.652</ele>
        <time>2021-03-13T13:50:22Z</time>
      </trkpt>
      <trkpt lat="42.84957" lon="0.9253">
        <ele>981.316</ele>
        <time>2021-03-13T13:50:24Z</time>
      </trkpt>
      <trkpt lat="42.84958" lon="0.92533">
        <ele>982.015</ele>
        <time>2021-03-13T13:50:26Z</time>
      </trkpt>
      <trkpt lat="42.84957" lon="0.92536">
        <ele>981.788</ele>
        <time>2021-03-13T13:50:28Z</time>
      </trkpt>
      <trkpt lat="42.84958" lon="0.92539">
        <ele>982.005</ele>
        <time>2021-03-13T13:50:30Z</time>
      </trkpt>
      <trkpt lat="42.8496" lon="0.92541">
        <ele>981.821</ele>
        <time>2021-03-13T13:50:32Z</time>
      </trkpt>
      <trkpt lat="42.84962" lon="0.92543">
        <ele>982.046</ele>
        <time>2021-03-13T13:50:34Z</time>
      </trkpt>
      <trkpt lat="42.84964" lon="0.92543">
        <ele>981.94</ele>
        <time>2021-03-13T13:50:36Z</time>
      </trkpt>
      <trkpt lat="42.84966" lon="0.92546">
        <ele>983.263</ele>
        <time>2021-03-13T13:50:38Z</time>
      </trkpt>
      <trkpt lat="42.84965" lon="0.92549">
        <ele>984.473</ele>
        <time>2021-03-13T13:50:40Z</time>
      </trkpt>
      <trkpt lat="42.84965" lon="0.92552">
        <ele>985.588</ele>
        <time>2021-03-13T13:50:42Z</time>
      </trkpt>
      <trkpt lat="42.84966" lon="0.92554">
        <ele>984.995</ele>
        <time>2021-03-13T13:50:44Z</time>
      </trkpt>
      <trkpt lat="42.84967" lon="0.92556">
        <ele>985.371</ele>
        <time>2021-03-13T13:50:46Z</time>
      </trkpt>
      <trkpt lat="42.84969" lon="0.92556">
        <ele>985.883</ele>
        <time>2021-03-13T13:50:48Z</time>
      </trkpt>
      <trkpt lat="42.84971" lon="0.92557">
        <ele>985.627</ele>
        <time>2021-03-13T13:50:50Z</time>
      </trkpt>
      <trkpt lat="42.84972" lon="0.92559">
        <ele>988.063</ele>
        <time>2021-03-13T13:50:52Z</time>
      </trkpt>
      <trkpt lat="42.84972" lon="0.92562">
        <ele>988.877</ele>
        <time>2021-03-13T13:50:54Z</time>
      </trkpt>
      <trkpt lat="42.8497" lon="0.92564">
        <ele>988.279</ele>
        <time>2021-03-13T13:50:56Z</time>
      </trkpt>
      <trkpt lat="42.8497" lon="0.92566">
        <ele>989.354</ele>
        <time>2021-03-13T13:50:58Z</time>
      </trkpt>
      <trkpt lat="42.84968" lon="0.92568">
        <ele>990.268</ele>
        <time>2021-03-13T13:51:00Z</time>
      </trkpt>
      <trkpt lat="42.84966" lon="0.92569">
        <ele>988.056</ele>
        <time>2021-03-13T13:51:02Z</time>
      </trkpt>
      <trkpt lat="42.84965" lon="0.92572">
        <ele>987.953</ele>
        <time>2021-03-13T13:51:04Z</time>
      </trkpt>
      <trkpt lat="42.84964" lon="0.92574">
        <ele>988.172</ele>
        <time>2021-03-13T13:51:06Z</time>
      </trkpt>
      <trkpt lat="42.84964" lon="0.92577">
        <ele>987.786</ele>
        <time>2021-03-13T13:51:08Z</time>
      </trkpt>
      <trkpt lat="42.84964" lon="0.92579">
        <ele>987.411</ele>
        <time>2021-03-13T13:51:10Z</time>
      </trkpt>
      <trkpt lat="42.84964" lon="0.9258">
        <ele>984.982</ele>
        <time>2021-03-13T13:51:12Z</time>
      </trkpt>
      <trkpt lat="42.84967" lon="0.92581">
        <ele>985.72</ele>
        <time>2021-03-13T13:51:14Z</time>
      </trkpt>
      <trkpt lat="42.84968" lon="0.92578">
        <ele>985.52</ele>
        <time>2021-03-13T13:51:16Z</time>
      </trkpt>
      <trkpt lat="42.84971" lon="0.92577">
        <ele>985.438</ele>
        <time>2021-03-13T13:51:18Z</time>
      </trkpt>
      <trkpt lat="42.84973" lon="0.92577">
        <ele>985.871</ele>
        <time>2021-03-13T13:51:20Z</time>
      </trkpt>
      <trkpt lat="42.84975" lon="0.92578">
        <ele>985.322</ele>
        <time>2021-03-13T13:51:22Z</time>
      </trkpt>
      <trkpt lat="42.84977" lon="0.92579">
        <ele>983.199</ele>
        <time>2021-03-13T13:51:24Z</time>
      </trkpt>
      <trkpt lat="42.84978" lon="0.92581">
        <ele>982.783</ele>
        <time>2021-03-13T13:51:26Z</time>
      </trkpt>
      <trkpt lat="42.84979" lon="0.92583">
        <ele>982.28</ele>
        <time>2021-03-13T13:51:28Z</time>
      </trkpt>
      <trkpt lat="42.84978" lon="0.92585">
        <ele>981.757</ele>
        <time>2021-03-13T13:51:30Z</time>
      </trkpt>
      <trkpt lat="42.84978" lon="0.92588">
        <ele>980.148</ele>
        <time>2021-03-13T13:51:32Z</time>
      </trkpt>
      <trkpt lat="42.84977" lon="0.9259">
        <ele>978.459</ele>
        <time>2021-03-13T13:51:34Z</time>
      </trkpt>
      <trkpt lat="42.84977" lon="0.92592">
        <ele>977.328</ele>
        <time>2021-03-13T13:51:36Z</time>
      </trkpt>
      <trkpt lat="42.84978" lon="0.92595">
        <ele>976.182</ele>
        <time>2021-03-13T13:51:38Z</time>
      </trkpt>
      <trkpt lat="42.84978" lon="0.92597">
        <ele>975.889</ele>
        <time>2021-03-13T13:51:40Z</time>
      </trkpt>
      <trkpt lat="42.84978" lon="0.926">
        <ele>974.53</ele>
        <time>2021-03-13T13:51:42Z</time>
      </trkpt>
      <trkpt lat="42.84978" lon="0.92602">
        <ele>972.077</ele>
        <time>2021-03-13T13:51:44Z</time>
      </trkpt>
      <trkpt lat="42.84977" lon="0.92605">
        <ele>970.943</ele>
        <time>2021-03-13T13:51:46Z</time>
      </trkpt>
      <trkpt lat="42.84977" lon="0.92607">
        <ele>969.406</ele>
        <time>2021-03-13T13:51:48Z</time>
      </trkpt>
      <trkpt lat="42.84976" lon="0.9261">
        <ele>968.153</ele>
        <time>2021-03-13T13:51:50Z</time>
      </trkpt>
      <trkpt lat="42.84975" lon="0.92613">
        <ele>966.33</ele>
        <time>2021-03-13T13:51:52Z</time>
      </trkpt>
      <trkpt lat="42.84975" lon="0.92615">
        <ele>965.605</ele>
        <time>2021-03-13T13:51:54Z</time>
      </trkpt>
      <trkpt lat="42.84974" lon="0.92618">
        <ele>965.881</ele>
        <time>2021-03-13T13:51:56Z</time>
      </trkpt>
      <trkpt lat="42.84972" lon="0.9262">
        <ele>964.292</ele>
        <time>2021-03-13T13:51:58Z</time>
      </trkpt>
      <trkpt lat="42.84972" lon="0.92623">
        <ele>963.059</ele>
        <time>2021-03-13T13:52:00Z</time>
      </trkpt>
      <trkpt lat="42.84972" lon="0.92626">
        <ele>963.077</ele>
        <time>2021-03-13T13:52:02Z</time>
      </trkpt>
      <trkpt lat="42.84971" lon="0.92629">
        <ele>962.752</ele>
        <time>2021-03-13T13:52:04Z</time>
      </trkpt>
      <trkpt lat="42.8497" lon="0.92632">
        <ele>961.646</ele>
        <time>2021-03-13T13:52:06Z</time>
      </trkpt>
      <trkpt lat="42.8497" lon="0.92635">
        <ele>960.819</ele>
        <time>2021-03-13T13:52:08Z</time>
      </trkpt>
      <trkpt lat="42.84969" lon="0.92638">
        <ele>960.512</ele>
        <time>2021-03-13T13:52:10Z</time>
      </trkpt>
      <trkpt lat="42.84968" lon="0.9264">
        <ele>959.566</ele>
        <time>2021-03-13T13:52:12Z</time>
      </trkpt>
      <trkpt lat="42.84967" lon="0.92642">
        <ele>958.95</ele>
        <time>2021-03-13T13:52:14Z</time>
      </trkpt>
      <trkpt lat="42.84966" lon="0.92645">
        <ele>956.891</ele>
        <time>2021-03-13T13:52:16Z</time>
      </trkpt>
      <trkpt lat="42.84965" lon="0.92648">
        <ele>955.418</ele>
        <time>2021-03-13T13:52:18Z</time>
      </trkpt>
      <trkpt lat="42.84963" lon="0.9265">
        <ele>954.603</ele>
        <time>2021-03-13T13:52:20Z</time>
      </trkpt>
      <trkpt lat="42.84962" lon="0.92652">
        <ele>952.751</ele>
        <time>2021-03-13T13:52:22Z</time>
      </trkpt>
      <trkpt lat="42.84961" lon="0.92655">
        <ele>952.14</ele>
        <time>2021-03-13T13:52:24Z</time>
      </trkpt>
      <trkpt lat="42.8496" lon="0.92657">
        <ele>953.118</ele>
        <time>2021-03-13T13:52:26Z</time>
      </trkpt>
      <trkpt lat="42.8496" lon="0.9266">
        <ele>954.314</ele>
        <time>2021-03-13T13:52:28Z</time>
      </trkpt>
      <trkpt lat="42.84958" lon="0.92663">
        <ele>955.936</ele>
        <time>2021-03-13T13:52:30Z</time>
      </trkpt>
      <trkpt lat="42.84957" lon="0.92665">
        <ele>956.655</ele>
        <time>2021-03-13T13:52:32Z</time>
      </trkpt>
      <trkpt lat="42.84956" lon="0.92666">
        <ele>958.267</ele>
        <time>2021-03-13T13:52:34Z</time>
      </trkpt>
      <trkpt lat="42.84954" lon="0.92667">
        <ele>957.507</ele>
        <time>2021-03-13T13:52:36Z</time>
      </trkpt>
      <trkpt lat="42.84952" lon="0.92668">
        <ele>955.791</ele>
        <time>2021-03-13T13:52:38Z</time>
      </trkpt>
      <trkpt lat="42.84951" lon="0.9267">
        <ele>955.194</ele>
        <time>2021-03-13T13:52:40Z</time>
      </trkpt>
      <trkpt lat="42.8495" lon="0.92671">
        <ele>955.289</ele>
        <time>2021-03-13T13:52:42Z</time>
      </trkpt>
      <trkpt lat="42.84949" lon="0.92673">
        <ele>955.407</ele>
        <time>2021-03-13T13:52:44Z</time>
      </trkpt>
      <trkpt lat="42.84948" lon="0.92676">
        <ele>954.279</ele>
        <time>2021-03-13T13:52:46Z</time>
      </trkpt>
      <trkpt lat="42.84948" lon="0.92677">
        <ele>954.475</ele>
        <time>2021-03-13T13:52:48Z</time>
      </trkpt>
      <trkpt lat="42.84948" lon="0.92676">
        <ele>954.466</ele>
        <time>2021-03-13T13:52:50Z</time>
      </trkpt>
      <trkpt lat="42.84948" lon="0.92677">
        <ele>954.073</ele>
        <time>2021-03-13T13:52:52Z</time>
      </trkpt>
      <trkpt lat="42.84949" lon="0.92678">
        <ele>951.241</ele>
        <time>2021-03-13T13:52:54Z</time>
      </trkpt>
      <trkpt lat="42.8495" lon="0.92682">
        <ele>949.474</ele>
        <time>2021-03-13T13:52:56Z</time>
      </trkpt>
      <trkpt lat="42.84953" lon="0.92683">
        <ele>949.728</ele>
        <time>2021-03-13T13:52:58Z</time>
      </trkpt>
      <trkpt lat="42.84955" lon="0.92682">
        <ele>948.669</ele>
        <time>2021-03-13T13:53:00Z</time>
      </trkpt>
      <trkpt lat="42.84957" lon="0.92682">
        <ele>947.584</ele>
        <time>2021-03-13T13:53:02Z</time>
      </trkpt>
      <trkpt lat="42.84959" lon="0.92682">
        <ele>945.604</ele>
        <time>2021-03-13T13:53:04Z</time>
      </trkpt>
      <trkpt lat="42.84961" lon="0.92681">
        <ele>944.947</ele>
        <time>2021-03-13T13:53:06Z</time>
      </trkpt>
      <trkpt lat="42.84962" lon="0.92681">
        <ele>944.107</ele>
        <time>2021-03-13T13:53:08Z</time>
      </trkpt>
      <trkpt lat="42.84964" lon="0.9268">
        <ele>943.458</ele>
        <time>2021-03-13T13:53:10Z</time>
      </trkpt>
      <trkpt lat="42.84966" lon="0.9268">
        <ele>942.603</ele>
        <time>2021-03-13T13:53:12Z</time>
      </trkpt>
      <trkpt lat="42.84968" lon="0.9268">
        <ele>942.345</ele>
        <time>2021-03-13T13:53:14Z</time>
      </trkpt>
      <trkpt lat="42.8497" lon="0.92679">
        <ele>940.843</ele>
        <time>2021-03-13T13:53:16Z</time>
      </trkpt>
      <trkpt lat="42.84972" lon="0.92676">
        <ele>938.064</ele>
        <time>2021-03-13T13:53:18Z</time>
      </trkpt>
      <trkpt lat="42.84974" lon="0.92674">
        <ele>938.174</ele>
        <time>2021-03-13T13:53:20Z</time>
      </trkpt>
      <trkpt lat="42.84976" lon="0.92671">
        <ele>937.276</ele>
        <time>2021-03-13T13:53:22Z</time>
      </trkpt>
      <trkpt lat="42.84978" lon="0.92668">
        <ele>936.222</ele>
        <time>2021-03-13T13:53:24Z</time>
      </trkpt>
      <trkpt lat="42.84979" lon="0.92666">
        <ele>934.878</ele>
        <time>2021-03-13T13:53:26Z</time>
      </trkpt>
      <trkpt lat="42.8498" lon="0.92662">
        <ele>932.732</ele>
        <time>2021-03-13T13:53:28Z</time>
      </trkpt>
      <trkpt lat="42.84981" lon="0.92658">
        <ele>930.931</ele>
        <time>2021-03-13T13:53:30Z</time>
      </trkpt>
      <trkpt lat="42.84982" lon="0.92655">
        <ele>930.911</ele>
        <time>2021-03-13T13:53:32Z</time>
      </trkpt>
      <trkpt lat="42.84984" lon="0.92652">
        <ele>930.976</ele>
        <time>2021-03-13T13:53:34Z</time>
      </trkpt>
      <trkpt lat="42.84986" lon="0.92648">
        <ele>930.947</ele>
        <time>2021-03-13T13:53:36Z</time>
      </trkpt>
      <trkpt lat="42.84988" lon="0.92645">
        <ele>929.6</ele>
        <time>2021-03-13T13:53:38Z</time>
      </trkpt>
      <trkpt lat="42.84988" lon="0.92641">
        <ele>928.225</ele>
        <time>2021-03-13T13:53:40Z</time>
      </trkpt>
      <trkpt lat="42.84989" lon="0.92637">
        <ele>926.892</ele>
        <time>2021-03-13T13:53:42Z</time>
      </trkpt>
      <trkpt lat="42.8499" lon="0.92634">
        <ele>927.099</ele>
        <time>2021-03-13T13:53:44Z</time>
      </trkpt>
      <trkpt lat="42.84991" lon="0.9263">
        <ele>925.982</ele>
        <time>2021-03-13T13:53:46Z</time>
      </trkpt>
      <trkpt lat="42.84992" lon="0.92627">
        <ele>925.411</ele>
        <time>2021-03-13T13:53:48Z</time>
      </trkpt>
      <trkpt lat="42.84992" lon="0.92624">
        <ele>924.733</ele>
        <time>2021-03-13T13:53:50Z</time>
      </trkpt>
      <trkpt lat="42.84994" lon="0.92621">
        <ele>924.857</ele>
        <time>2021-03-13T13:53:52Z</time>
      </trkpt>
      <trkpt lat="42.84994" lon="0.92618">
        <ele>922.766</ele>
        <time>2021-03-13T13:53:54Z</time>
      </trkpt>
      <trkpt lat="42.84993" lon="0.92619">
        <ele>925.15</ele>
        <time>2021-03-13T13:53:56Z</time>
      </trkpt>
      <trkpt lat="42.84993" lon="0.92619">
        <ele>925.25</ele>
        <time>2021-03-13T13:53:58Z</time>
      </trkpt>
      <trkpt lat="42.84993" lon="0.92619">
        <ele>925.273</ele>
        <time>2021-03-13T13:54:00Z</time>
      </trkpt>
      <trkpt lat="42.84993" lon="0.92619">
        <ele>925.293</ele>
        <time>2021-03-13T13:54:02Z</time>
      </trkpt>
      <trkpt lat="42.84993" lon="0.92619">
        <ele>925.497</ele>
        <time>2021-03-13T13:54:04Z</time>
      </trkpt>
      <trkpt lat="42.84994" lon="0.92616">
        <ele>923.675</ele>
        <time>2021-03-13T13:54:06Z</time>
      </trkpt>
      <trkpt lat="42.84996" lon="0.92613">
        <ele>923.274</ele>
        <time>2021-03-13T13:54:08Z</time>
      </trkpt>
      <trkpt lat="42.84998" lon="0.9261">
        <ele>922.923</ele>
        <time>2021-03-13T13:54:10Z</time>
      </trkpt>
      <trkpt lat="42.85" lon="0.92607">
        <ele>922.035</ele>
        <time>2021-03-13T13:54:12Z</time>
      </trkpt>
      <trkpt lat="42.85002" lon="0.92605">
        <ele>921.669</ele>
        <time>2021-03-13T13:54:14Z</time>
      </trkpt>
      <trkpt lat="42.85004" lon="0.92602">
        <ele>921.935</ele>
        <time>2021-03-13T13:54:16Z</time>
      </trkpt>
      <trkpt lat="42.85006" lon="0.926">
        <ele>922.408</ele>
        <time>2021-03-13T13:54:18Z</time>
      </trkpt>
      <trkpt lat="42.85008" lon="0.92598">
        <ele>923.417</ele>
        <time>2021-03-13T13:54:20Z</time>
      </trkpt>
      <trkpt lat="42.8501" lon="0.92596">
        <ele>923.251</ele>
        <time>2021-03-13T13:54:22Z</time>
      </trkpt>
      <trkpt lat="42.85011" lon="0.92593">
        <ele>922.163</ele>
        <time>2021-03-13T13:54:24Z</time>
      </trkpt>
      <trkpt lat="42.85013" lon="0.9259">
        <ele>922.404</ele>
        <time>2021-03-13T13:54:26Z</time>
      </trkpt>
      <trkpt lat="42.85013" lon="0.92588">
        <ele>922.538</ele>
        <time>2021-03-13T13:54:28Z</time>
      </trkpt>
      <trkpt lat="42.85014" lon="0.92586">
        <ele>922.676</ele>
        <time>2021-03-13T13:54:30Z</time>
      </trkpt>
      <trkpt lat="42.85017" lon="0.92586">
        <ele>923.321</ele>
        <time>2021-03-13T13:54:32Z</time>
      </trkpt>
      <trkpt lat="42.8502" lon="0.92587">
        <ele>922.102</ele>
        <time>2021-03-13T13:54:34Z</time>
      </trkpt>
      <trkpt lat="42.85022" lon="0.92591">
        <ele>923.491</ele>
        <time>2021-03-13T13:54:36Z</time>
      </trkpt>
      <trkpt lat="42.85025" lon="0.92595">
        <ele>924.627</ele>
        <time>2021-03-13T13:54:38Z</time>
      </trkpt>
      <trkpt lat="42.85026" lon="0.92598">
        <ele>924.159</ele>
        <time>2021-03-13T13:54:40Z</time>
      </trkpt>
      <trkpt lat="42.85026" lon="0.926">
        <ele>922.872</ele>
        <time>2021-03-13T13:54:41Z</time>
      </trkpt>
      <trkpt lat="42.85025" lon="0.92603">
        <ele>922.34</ele>
        <time>2021-03-13T13:54:44Z</time>
      </trkpt>
      <trkpt lat="42.85024" lon="0.92606">
        <ele>921.529</ele>
        <time>2021-03-13T13:54:46Z</time>
      </trkpt>
      <trkpt lat="42.85024" lon="0.92609">
        <ele>922.457</ele>
        <time>2021-03-13T13:54:48Z</time>
      </trkpt>
      <trkpt lat="42.85023" lon="0.92611">
        <ele>922.993</ele>
        <time>2021-03-13T13:54:50Z</time>
      </trkpt>
      <trkpt lat="42.85023" lon="0.92613">
        <ele>922.355</ele>
        <time>2021-03-13T13:54:52Z</time>
      </trkpt>
      <trkpt lat="42.85023" lon="0.92616">
        <ele>921.023</ele>
        <time>2021-03-13T13:54:54Z</time>
      </trkpt>
      <trkpt lat="42.85023" lon="0.92619">
        <ele>921.457</ele>
        <time>2021-03-13T13:54:56Z</time>
      </trkpt>
      <trkpt lat="42.85024" lon="0.92622">
        <ele>921.984</ele>
        <time>2021-03-13T13:54:58Z</time>
      </trkpt>
      <trkpt lat="42.85024" lon="0.92626">
        <ele>921.634</ele>
        <time>2021-03-13T13:55:00Z</time>
      </trkpt>
      <trkpt lat="42.85025" lon="0.92628">
        <ele>920.739</ele>
        <time>2021-03-13T13:55:02Z</time>
      </trkpt>
      <trkpt lat="42.85026" lon="0.92631">
        <ele>921.066</ele>
        <time>2021-03-13T13:55:04Z</time>
      </trkpt>
      <trkpt lat="42.85026" lon="0.92635">
        <ele>921.028</ele>
        <time>2021-03-13T13:55:06Z</time>
      </trkpt>
      <trkpt lat="42.85027" lon="0.92638">
        <ele>921.131</ele>
        <time>2021-03-13T13:55:08Z</time>
      </trkpt>
      <trkpt lat="42.85028" lon="0.92643">
        <ele>921.465</ele>
        <time>2021-03-13T13:55:10Z</time>
      </trkpt>
      <trkpt lat="42.85029" lon="0.92646">
        <ele>920.698</ele>
        <time>2021-03-13T13:55:12Z</time>
      </trkpt>
      <trkpt lat="42.85029" lon="0.92649">
        <ele>919.64</ele>
        <time>2021-03-13T13:55:14Z</time>
      </trkpt>
      <trkpt lat="42.85029" lon="0.92652">
        <ele>920.216</ele>
        <time>2021-03-13T13:55:16Z</time>
      </trkpt>
      <trkpt lat="42.8503" lon="0.92656">
        <ele>921.287</ele>
        <time>2021-03-13T13:55:18Z</time>
      </trkpt>
      <trkpt lat="42.85031" lon="0.92659">
        <ele>922.014</ele>
        <time>2021-03-13T13:55:20Z</time>
      </trkpt>
      <trkpt lat="42.85031" lon="0.92663">
        <ele>923.103</ele>
        <time>2021-03-13T13:55:22Z</time>
      </trkpt>
      <trkpt lat="42.85031" lon="0.92667">
        <ele>924.254</ele>
        <time>2021-03-13T13:55:24Z</time>
      </trkpt>
      <trkpt lat="42.85031" lon="0.9267">
        <ele>924.659</ele>
        <time>2021-03-13T13:55:26Z</time>
      </trkpt>
      <trkpt lat="42.85032" lon="0.92673">
        <ele>924.664</ele>
        <time>2021-03-13T13:55:28Z</time>
      </trkpt>
      <trkpt lat="42.85032" lon="0.92675">
        <ele>924.642</ele>
        <time>2021-03-13T13:55:30Z</time>
      </trkpt>
      <trkpt lat="42.85033" lon="0.92678">
        <ele>924.654</ele>
        <time>2021-03-13T13:55:32Z</time>
      </trkpt>
      <trkpt lat="42.85033" lon="0.92681">
        <ele>924.715</ele>
        <time>2021-03-13T13:55:34Z</time>
      </trkpt>
      <trkpt lat="42.85033" lon="0.92684">
        <ele>923.684</ele>
        <time>2021-03-13T13:55:36Z</time>
      </trkpt>
      <trkpt lat="42.85034" lon="0.92686">
        <ele>924.293</ele>
        <time>2021-03-13T13:55:38Z</time>
      </trkpt>
      <trkpt lat="42.85034" lon="0.92689">
        <ele>923.646</ele>
        <time>2021-03-13T13:55:40Z</time>
      </trkpt>
      <trkpt lat="42.85035" lon="0.92692">
        <ele>923.573</ele>
        <time>2021-03-13T13:55:42Z</time>
      </trkpt>
      <trkpt lat="42.85035" lon="0.92695">
        <ele>924.69</ele>
        <time>2021-03-13T13:55:44Z</time>
      </trkpt>
      <trkpt lat="42.85036" lon="0.92698">
        <ele>925.909</ele>
        <time>2021-03-13T13:55:46Z</time>
      </trkpt>
      <trkpt lat="42.85036" lon="0.92701">
        <ele>927.053</ele>
        <time>2021-03-13T13:55:48Z</time>
      </trkpt>
      <trkpt lat="42.85038" lon="0.92703">
        <ele>927.81</ele>
        <time>2021-03-13T13:55:50Z</time>
      </trkpt>
      <trkpt lat="42.85038" lon="0.92702">
        <ele>925.785</ele>
        <time>2021-03-13T13:55:52Z</time>
      </trkpt>
      <trkpt lat="42.85038" lon="0.92702">
        <ele>925.842</ele>
        <time>2021-03-13T13:55:54Z</time>
      </trkpt>
      <trkpt lat="42.85038" lon="0.92702">
        <ele>925.805</ele>
        <time>2021-03-13T13:55:56Z</time>
      </trkpt>
      <trkpt lat="42.85038" lon="0.92704">
        <ele>925.552</ele>
        <time>2021-03-13T13:55:58Z</time>
      </trkpt>
      <trkpt lat="42.85038" lon="0.92704">
        <ele>925.63</ele>
        <time>2021-03-13T13:56:00Z</time>
      </trkpt>
      <trkpt lat="42.85038" lon="0.92704">
        <ele>925.647</ele>
        <time>2021-03-13T13:56:02Z</time>
      </trkpt>
      <trkpt lat="42.85038" lon="0.92704">
        <ele>925.659</ele>
        <time>2021-03-13T13:56:04Z</time>
      </trkpt>
      <trkpt lat="42.85037" lon="0.92704">
        <ele>925.059</ele>
        <time>2021-03-13T13:56:06Z</time>
      </trkpt>
      <trkpt lat="42.85038" lon="0.92705">
        <ele>925.37</ele>
        <time>2021-03-13T13:56:08Z</time>
      </trkpt>
      <trkpt lat="42.85038" lon="0.92705">
        <ele>926.058</ele>
        <time>2021-03-13T13:56:10Z</time>
      </trkpt>
      <trkpt lat="42.85037" lon="0.92707">
        <ele>926.119</ele>
        <time>2021-03-13T13:56:12Z</time>
      </trkpt>
      <trkpt lat="42.85037" lon="0.92711">
        <ele>927.267</ele>
        <time>2021-03-13T13:56:14Z</time>
      </trkpt>
      <trkpt lat="42.85037" lon="0.92714">
        <ele>926.847</ele>
        <time>2021-03-13T13:56:16Z</time>
      </trkpt>
      <trkpt lat="42.85037" lon="0.92717">
        <ele>926.535</ele>
        <time>2021-03-13T13:56:18Z</time>
      </trkpt>
      <trkpt lat="42.85038" lon="0.92721">
        <ele>927.95</ele>
        <time>2021-03-13T13:56:20Z</time>
      </trkpt>
      <trkpt lat="42.85039" lon="0.92724">
        <ele>928.538</ele>
        <time>2021-03-13T13:56:22Z</time>
      </trkpt>
      <trkpt lat="42.85041" lon="0.92728">
        <ele>930.596</ele>
        <time>2021-03-13T13:56:24Z</time>
      </trkpt>
      <trkpt lat="42.85041" lon="0.9273">
        <ele>930.298</ele>
        <time>2021-03-13T13:56:26Z</time>
      </trkpt>
      <trkpt lat="42.85042" lon="0.92733">
        <ele>930.452</ele>
        <time>2021-03-13T13:56:28Z</time>
      </trkpt>
      <trkpt lat="42.85042" lon="0.92736">
        <ele>931.512</ele>
        <time>2021-03-13T13:56:30Z</time>
      </trkpt>
      <trkpt lat="42.85042" lon="0.92737">
        <ele>930.495</ele>
        <time>2021-03-13T13:56:32Z</time>
      </trkpt>
      <trkpt lat="42.85042" lon="0.92738">
        <ele>929.916</ele>
        <time>2021-03-13T13:56:34Z</time>
      </trkpt>
      <trkpt lat="42.85042" lon="0.92738">
        <ele>929.922</ele>
        <time>2021-03-13T13:56:36Z</time>
      </trkpt>
      <trkpt lat="42.85042" lon="0.92738">
        <ele>930.365</ele>
        <time>2021-03-13T13:56:38Z</time>
      </trkpt>
      <trkpt lat="42.85042" lon="0.92738">
        <ele>930.387</ele>
        <time>2021-03-13T13:56:40Z</time>
      </trkpt>
      <trkpt lat="42.85042" lon="0.92738">
        <ele>930.41</ele>
        <time>2021-03-13T13:56:42Z</time>
      </trkpt>
      <trkpt lat="42.85042" lon="0.92738">
        <ele>930.407</ele>
        <time>2021-03-13T13:56:44Z</time>
      </trkpt>
      <trkpt lat="42.85042" lon="0.92738">
        <ele>930.802</ele>
        <time>2021-03-13T13:56:46Z</time>
      </trkpt>
      <trkpt lat="42.85042" lon="0.92738">
        <ele>930.796</ele>
        <time>2021-03-13T13:56:48Z</time>
      </trkpt>
      <trkpt lat="42.85042" lon="0.92737">
        <ele>930.976</ele>
        <time>2021-03-13T13:56:50Z</time>
      </trkpt>
      <trkpt lat="42.85042" lon="0.92737">
        <ele>930.983</ele>
        <time>2021-03-13T13:56:52Z</time>
      </trkpt>
      <trkpt lat="42.85042" lon="0.92737">
        <ele>930.603</ele>
        <time>2021-03-13T13:56:54Z</time>
      </trkpt>
      <trkpt lat="42.85042" lon="0.92737">
        <ele>930.575</ele>
        <time>2021-03-13T13:56:56Z</time>
      </trkpt>
      <trkpt lat="42.85042" lon="0.92737">
        <ele>930.578</ele>
        <time>2021-03-13T13:56:58Z</time>
      </trkpt>
      <trkpt lat="42.85042" lon="0.92737">
        <ele>930.577</ele>
        <time>2021-03-13T13:57:00Z</time>
      </trkpt>
      <trkpt lat="42.85042" lon="0.92737">
        <ele>930.581</ele>
        <time>2021-03-13T13:57:02Z</time>
      </trkpt>
      <trkpt lat="42.85042" lon="0.92737">
        <ele>930.58</ele>
        <time>2021-03-13T13:57:04Z</time>
      </trkpt>
      <trkpt lat="42.85042" lon="0.92737">
        <ele>930.581</ele>
        <time>2021-03-13T13:57:06Z</time>
      </trkpt>
      <trkpt lat="42.85042" lon="0.92737">
        <ele>930.581</ele>
        <time>2021-03-13T13:57:08Z</time>
      </trkpt>
      <trkpt lat="42.85042" lon="0.92737">
        <ele>930.583</ele>
        <time>2021-03-13T13:57:10Z</time>
      </trkpt>
      <trkpt lat="42.85042" lon="0.92737">
        <ele>930.571</ele>
        <time>2021-03-13T13:57:12Z</time>
      </trkpt>
      <trkpt lat="42.85043" lon="0.92738">
        <ele>931.12</ele>
        <time>2021-03-13T13:57:14Z</time>
      </trkpt>
      <trkpt lat="42.85043" lon="0.92738">
        <ele>931.042</ele>
        <time>2021-03-13T13:57:16Z</time>
      </trkpt>
      <trkpt lat="42.85047" lon="0.92737">
        <ele>931.87</ele>
        <time>2021-03-13T13:57:18Z</time>
      </trkpt>
      <trkpt lat="42.85049" lon="0.92734">
        <ele>931.731</ele>
        <time>2021-03-13T13:57:20Z</time>
      </trkpt>
      <trkpt lat="42.85046" lon="0.92728">
        <ele>929.041</ele>
        <time>2021-03-13T13:57:22Z</time>
      </trkpt>
      <trkpt lat="42.85045" lon="0.92728">
        <ele>929.105</ele>
        <time>2021-03-13T13:57:24Z</time>
      </trkpt>
      <trkpt lat="42.85045" lon="0.92728">
        <ele>929.223</ele>
        <time>2021-03-13T13:57:26Z</time>
      </trkpt>
      <trkpt lat="42.85044" lon="0.92727">
        <ele>928.915</ele>
        <time>2021-03-13T13:57:28Z</time>
      </trkpt>
      <trkpt lat="42.85044" lon="0.92727">
        <ele>928.915</ele>
        <time>2021-03-13T13:57:30Z</time>
      </trkpt>
      <trkpt lat="42.85044" lon="0.92727">
        <ele>928.92</ele>
        <time>2021-03-13T13:57:32Z</time>
      </trkpt>
      <trkpt lat="42.85043" lon="0.92728">
        <ele>928.735</ele>
        <time>2021-03-13T13:57:34Z</time>
      </trkpt>
      <trkpt lat="42.8504" lon="0.92726">
        <ele>929.455</ele>
        <time>2021-03-13T13:57:36Z</time>
      </trkpt>
      <trkpt lat="42.85038" lon="0.92724">
        <ele>928.959</ele>
        <time>2021-03-13T13:57:38Z</time>
      </trkpt>
      <trkpt lat="42.85038" lon="0.92725">
        <ele>927.884</ele>
        <time>2021-03-13T13:57:40Z</time>
      </trkpt>
      <trkpt lat="42.85039" lon="0.92726">
        <ele>927.906</ele>
        <time>2021-03-13T13:57:42Z</time>
      </trkpt>
      <trkpt lat="42.85039" lon="0.92726">
        <ele>927.915</ele>
        <time>2021-03-13T13:57:44Z</time>
      </trkpt>
      <trkpt lat="42.85039" lon="0.92726">
        <ele>927.94</ele>
        <time>2021-03-13T13:57:46Z</time>
      </trkpt>
    </trkseg>
  </trk>
</gpx>